<?xml version="1.0" encoding="UTF-8" standalone="no" ?>
<gpx xmlns="http://www.topografix.com/GPX/1/1" xmlns:xsi="http://www.w3.org/2001/XMLSchema-instance" xsi:schemaLocation="http://www.topografix.com/GPX/1/1 http://www.topografix.com/GPX/1/1/gpx.xsd" version="1.1" creator="VisuGPX - https://www.visugpx.com">
  <metadata>
    <name>2018-03-07 Bike ride-Chatillon-Limas</name>
    <desc><![CDATA[2018-03-07 Bike ride-Chatillon-Limas]]></desc>
  </metadata>
  <wpt lat="45.92453" lon="4.73701">
    <ele>174</ele>
    <name><![CDATA[2018-03-07 10:26 (Start)]]></name>
  </wpt>
  <wpt lat="45.89123" lon="4.66824">
    <ele>411</ele>
    <name><![CDATA[2018-03-07 10:26 (End)]]></name>
  </wpt>
  <trk>
    <name><![CDATA[2018-03-07 10:26]]></name>
    <trkseg>
      <trkpt lat="45.92453" lon="4.73701">
        <ele>174</ele>
        <time>2018-03-07T09:26:43.64Z</time>
      </trkpt>
      <trkpt lat="45.92451" lon="4.73703">
        <ele>174</ele>
        <time>2018-03-07T09:26:44.59Z</time>
      </trkpt>
      <trkpt lat="45.92452" lon="4.73701">
        <ele>174</ele>
        <time>2018-03-07T09:26:49.536Z</time>
      </trkpt>
      <trkpt lat="45.92455" lon="4.73704">
        <ele>174</ele>
        <time>2018-03-07T09:26:50.54Z</time>
      </trkpt>
      <trkpt lat="45.92454" lon="4.73702">
        <ele>174</ele>
        <time>2018-03-07T09:26:55Z</time>
      </trkpt>
      <trkpt lat="45.92454" lon="4.73703">
        <ele>174</ele>
        <time>2018-03-07T09:26:56Z</time>
      </trkpt>
      <trkpt lat="45.92455" lon="4.73706">
        <ele>174</ele>
        <time>2018-03-07T09:27:09Z</time>
      </trkpt>
      <trkpt lat="45.92455" lon="4.73707">
        <ele>174</ele>
        <time>2018-03-07T09:27:10Z</time>
      </trkpt>
      <trkpt lat="45.92463" lon="4.73707">
        <ele>174</ele>
        <time>2018-03-07T09:27:35Z</time>
      </trkpt>
      <trkpt lat="45.92465" lon="4.73707">
        <ele>174</ele>
        <time>2018-03-07T09:27:36Z</time>
      </trkpt>
      <trkpt lat="45.92469" lon="4.73696">
        <ele>174</ele>
        <time>2018-03-07T09:27:41Z</time>
      </trkpt>
      <trkpt lat="45.92469" lon="4.73692">
        <ele>174</ele>
        <time>2018-03-07T09:27:42Z</time>
      </trkpt>
      <trkpt lat="45.92469" lon="4.73681">
        <ele>174</ele>
        <time>2018-03-07T09:27:45Z</time>
      </trkpt>
      <trkpt lat="45.92469" lon="4.73678">
        <ele>174</ele>
        <time>2018-03-07T09:27:46Z</time>
      </trkpt>
      <trkpt lat="45.9247" lon="4.73667">
        <ele>174</ele>
        <time>2018-03-07T09:27:49Z</time>
      </trkpt>
      <trkpt lat="45.9247" lon="4.73663">
        <ele>174</ele>
        <time>2018-03-07T09:27:50Z</time>
      </trkpt>
      <trkpt lat="45.92471" lon="4.73652">
        <ele>174</ele>
        <time>2018-03-07T09:27:53Z</time>
      </trkpt>
      <trkpt lat="45.92471" lon="4.73648">
        <ele>174</ele>
        <time>2018-03-07T09:27:54Z</time>
      </trkpt>
      <trkpt lat="45.92471" lon="4.7364">
        <ele>174</ele>
        <time>2018-03-07T09:27:56Z</time>
      </trkpt>
      <trkpt lat="45.9247" lon="4.73626">
        <ele>174</ele>
        <time>2018-03-07T09:27:57Z</time>
      </trkpt>
      <trkpt lat="45.92468" lon="4.73615">
        <ele>174</ele>
        <time>2018-03-07T09:27:59Z</time>
      </trkpt>
      <trkpt lat="45.92467" lon="4.7361">
        <ele>174</ele>
        <time>2018-03-07T09:28:00Z</time>
      </trkpt>
      <trkpt lat="45.92467" lon="4.73599">
        <ele>174</ele>
        <time>2018-03-07T09:28:02Z</time>
      </trkpt>
      <trkpt lat="45.92467" lon="4.73593">
        <ele>174</ele>
        <time>2018-03-07T09:28:03Z</time>
      </trkpt>
      <trkpt lat="45.92468" lon="4.73582">
        <ele>173</ele>
        <time>2018-03-07T09:28:05Z</time>
      </trkpt>
      <trkpt lat="45.92468" lon="4.73576">
        <ele>173</ele>
        <time>2018-03-07T09:28:06Z</time>
      </trkpt>
      <trkpt lat="45.92468" lon="4.73567">
        <ele>173</ele>
        <time>2018-03-07T09:28:09Z</time>
      </trkpt>
      <trkpt lat="45.92468" lon="4.73562">
        <ele>173</ele>
        <time>2018-03-07T09:28:10Z</time>
      </trkpt>
      <trkpt lat="45.92467" lon="4.73551">
        <ele>173</ele>
        <time>2018-03-07T09:28:13Z</time>
      </trkpt>
      <trkpt lat="45.92465" lon="4.73549">
        <ele>173</ele>
        <time>2018-03-07T09:28:14Z</time>
      </trkpt>
      <trkpt lat="45.92461" lon="4.73546">
        <ele>173</ele>
        <time>2018-03-07T09:28:16Z</time>
      </trkpt>
      <trkpt lat="45.92452" lon="4.73545">
        <ele>174</ele>
        <time>2018-03-07T09:28:17Z</time>
      </trkpt>
      <trkpt lat="45.92445" lon="4.7355">
        <ele>174</ele>
        <time>2018-03-07T09:28:19Z</time>
      </trkpt>
      <trkpt lat="45.92442" lon="4.73552">
        <ele>174</ele>
        <time>2018-03-07T09:28:20Z</time>
      </trkpt>
      <trkpt lat="45.92433" lon="4.73557">
        <ele>174</ele>
        <time>2018-03-07T09:28:22Z</time>
      </trkpt>
      <trkpt lat="45.9243" lon="4.7356">
        <ele>174</ele>
        <time>2018-03-07T09:28:23Z</time>
      </trkpt>
      <trkpt lat="45.92423" lon="4.73565">
        <ele>174</ele>
        <time>2018-03-07T09:28:25Z</time>
      </trkpt>
      <trkpt lat="45.92419" lon="4.73567">
        <ele>174</ele>
        <time>2018-03-07T09:28:26Z</time>
      </trkpt>
      <trkpt lat="45.92411" lon="4.73571">
        <ele>173</ele>
        <time>2018-03-07T09:28:28Z</time>
      </trkpt>
      <trkpt lat="45.92407" lon="4.73574">
        <ele>173</ele>
        <time>2018-03-07T09:28:29Z</time>
      </trkpt>
      <trkpt lat="45.92402" lon="4.73576">
        <ele>173</ele>
        <time>2018-03-07T09:28:30Z</time>
      </trkpt>
      <trkpt lat="45.92397" lon="4.73578">
        <ele>173</ele>
        <time>2018-03-07T09:28:31Z</time>
      </trkpt>
      <trkpt lat="45.92392" lon="4.7358">
        <ele>173</ele>
        <time>2018-03-07T09:28:32Z</time>
      </trkpt>
      <trkpt lat="45.92388" lon="4.73582">
        <ele>173</ele>
        <time>2018-03-07T09:28:33Z</time>
      </trkpt>
      <trkpt lat="45.92383" lon="4.73585">
        <ele>173</ele>
        <time>2018-03-07T09:28:34Z</time>
      </trkpt>
      <trkpt lat="45.92379" lon="4.73587">
        <ele>173</ele>
        <time>2018-03-07T09:28:35Z</time>
      </trkpt>
      <trkpt lat="45.92373" lon="4.73589">
        <ele>173</ele>
        <time>2018-03-07T09:28:36Z</time>
      </trkpt>
      <trkpt lat="45.92368" lon="4.7359">
        <ele>173</ele>
        <time>2018-03-07T09:28:37Z</time>
      </trkpt>
      <trkpt lat="45.92363" lon="4.73592">
        <ele>173</ele>
        <time>2018-03-07T09:28:38Z</time>
      </trkpt>
      <trkpt lat="45.92357" lon="4.73594">
        <ele>173</ele>
        <time>2018-03-07T09:28:39Z</time>
      </trkpt>
      <trkpt lat="45.92353" lon="4.73597">
        <ele>173</ele>
        <time>2018-03-07T09:28:40Z</time>
      </trkpt>
      <trkpt lat="45.92349" lon="4.73601">
        <ele>173</ele>
        <time>2018-03-07T09:28:41Z</time>
      </trkpt>
      <trkpt lat="45.92341" lon="4.73607">
        <ele>173</ele>
        <time>2018-03-07T09:28:43Z</time>
      </trkpt>
      <trkpt lat="45.92337" lon="4.7361">
        <ele>173</ele>
        <time>2018-03-07T09:28:44Z</time>
      </trkpt>
      <trkpt lat="45.92332" lon="4.73613">
        <ele>172</ele>
        <time>2018-03-07T09:28:45Z</time>
      </trkpt>
      <trkpt lat="45.92327" lon="4.73614">
        <ele>172</ele>
        <time>2018-03-07T09:28:46Z</time>
      </trkpt>
      <trkpt lat="45.92324" lon="4.73616">
        <ele>172</ele>
        <time>2018-03-07T09:28:47Z</time>
      </trkpt>
      <trkpt lat="45.92319" lon="4.73619">
        <ele>172</ele>
        <time>2018-03-07T09:28:48Z</time>
      </trkpt>
      <trkpt lat="45.92314" lon="4.73622">
        <ele>172</ele>
        <time>2018-03-07T09:28:49Z</time>
      </trkpt>
      <trkpt lat="45.92309" lon="4.73625">
        <ele>172</ele>
        <time>2018-03-07T09:28:50Z</time>
      </trkpt>
      <trkpt lat="45.92304" lon="4.7363">
        <ele>172</ele>
        <time>2018-03-07T09:28:51Z</time>
      </trkpt>
      <trkpt lat="45.923" lon="4.73634">
        <ele>172</ele>
        <time>2018-03-07T09:28:52Z</time>
      </trkpt>
      <trkpt lat="45.92294" lon="4.73636">
        <ele>172</ele>
        <time>2018-03-07T09:28:53Z</time>
      </trkpt>
      <trkpt lat="45.9229" lon="4.73639">
        <ele>172</ele>
        <time>2018-03-07T09:28:54Z</time>
      </trkpt>
      <trkpt lat="45.92285" lon="4.73642">
        <ele>172</ele>
        <time>2018-03-07T09:28:55Z</time>
      </trkpt>
      <trkpt lat="45.9228" lon="4.73645">
        <ele>172</ele>
        <time>2018-03-07T09:28:56Z</time>
      </trkpt>
      <trkpt lat="45.92276" lon="4.73648">
        <ele>172</ele>
        <time>2018-03-07T09:28:57Z</time>
      </trkpt>
      <trkpt lat="45.92271" lon="4.73651">
        <ele>172</ele>
        <time>2018-03-07T09:28:58Z</time>
      </trkpt>
      <trkpt lat="45.92266" lon="4.73653">
        <ele>171</ele>
        <time>2018-03-07T09:28:59Z</time>
      </trkpt>
      <trkpt lat="45.92261" lon="4.73655">
        <ele>171</ele>
        <time>2018-03-07T09:29:00Z</time>
      </trkpt>
      <trkpt lat="45.92257" lon="4.73658">
        <ele>171</ele>
        <time>2018-03-07T09:29:01Z</time>
      </trkpt>
      <trkpt lat="45.9225" lon="4.7366">
        <ele>171</ele>
        <time>2018-03-07T09:29:02Z</time>
      </trkpt>
      <trkpt lat="45.92245" lon="4.73663">
        <ele>171</ele>
        <time>2018-03-07T09:29:03Z</time>
      </trkpt>
      <trkpt lat="45.9224" lon="4.73664">
        <ele>171</ele>
        <time>2018-03-07T09:29:04Z</time>
      </trkpt>
      <trkpt lat="45.92235" lon="4.73665">
        <ele>171</ele>
        <time>2018-03-07T09:29:05Z</time>
      </trkpt>
      <trkpt lat="45.9223" lon="4.73667">
        <ele>171</ele>
        <time>2018-03-07T09:29:06Z</time>
      </trkpt>
      <trkpt lat="45.92226" lon="4.73668">
        <ele>171</ele>
        <time>2018-03-07T09:29:07Z</time>
      </trkpt>
      <trkpt lat="45.92221" lon="4.73671">
        <ele>171</ele>
        <time>2018-03-07T09:29:08Z</time>
      </trkpt>
      <trkpt lat="45.92216" lon="4.73675">
        <ele>171</ele>
        <time>2018-03-07T09:29:09Z</time>
      </trkpt>
      <trkpt lat="45.92212" lon="4.73678">
        <ele>171</ele>
        <time>2018-03-07T09:29:10Z</time>
      </trkpt>
      <trkpt lat="45.92207" lon="4.7368">
        <ele>171</ele>
        <time>2018-03-07T09:29:11Z</time>
      </trkpt>
      <trkpt lat="45.92202" lon="4.73682">
        <ele>171</ele>
        <time>2018-03-07T09:29:12Z</time>
      </trkpt>
      <trkpt lat="45.92197" lon="4.73684">
        <ele>171</ele>
        <time>2018-03-07T09:29:13Z</time>
      </trkpt>
      <trkpt lat="45.92192" lon="4.73687">
        <ele>171</ele>
        <time>2018-03-07T09:29:14Z</time>
      </trkpt>
      <trkpt lat="45.92184" lon="4.73692">
        <ele>171</ele>
        <time>2018-03-07T09:29:16Z</time>
      </trkpt>
      <trkpt lat="45.9218" lon="4.73694">
        <ele>171</ele>
        <time>2018-03-07T09:29:17Z</time>
      </trkpt>
      <trkpt lat="45.92175" lon="4.73697">
        <ele>171</ele>
        <time>2018-03-07T09:29:18Z</time>
      </trkpt>
      <trkpt lat="45.9217" lon="4.737">
        <ele>171</ele>
        <time>2018-03-07T09:29:19Z</time>
      </trkpt>
      <trkpt lat="45.92164" lon="4.73703">
        <ele>171</ele>
        <time>2018-03-07T09:29:20Z</time>
      </trkpt>
      <trkpt lat="45.9216" lon="4.73704">
        <ele>171</ele>
        <time>2018-03-07T09:29:21Z</time>
      </trkpt>
      <trkpt lat="45.92155" lon="4.73706">
        <ele>171</ele>
        <time>2018-03-07T09:29:22Z</time>
      </trkpt>
      <trkpt lat="45.92149" lon="4.73709">
        <ele>171</ele>
        <time>2018-03-07T09:29:23Z</time>
      </trkpt>
      <trkpt lat="45.92144" lon="4.73711">
        <ele>171</ele>
        <time>2018-03-07T09:29:24Z</time>
      </trkpt>
      <trkpt lat="45.92139" lon="4.73712">
        <ele>171</ele>
        <time>2018-03-07T09:29:25Z</time>
      </trkpt>
      <trkpt lat="45.92134" lon="4.73714">
        <ele>171</ele>
        <time>2018-03-07T09:29:26Z</time>
      </trkpt>
      <trkpt lat="45.92129" lon="4.73716">
        <ele>171</ele>
        <time>2018-03-07T09:29:27Z</time>
      </trkpt>
      <trkpt lat="45.92124" lon="4.73718">
        <ele>171</ele>
        <time>2018-03-07T09:29:28Z</time>
      </trkpt>
      <trkpt lat="45.92118" lon="4.73719">
        <ele>171</ele>
        <time>2018-03-07T09:29:29Z</time>
      </trkpt>
      <trkpt lat="45.92109" lon="4.7372">
        <ele>171</ele>
        <time>2018-03-07T09:29:31Z</time>
      </trkpt>
      <trkpt lat="45.92104" lon="4.73721">
        <ele>171</ele>
        <time>2018-03-07T09:29:32Z</time>
      </trkpt>
      <trkpt lat="45.92098" lon="4.73723">
        <ele>171</ele>
        <time>2018-03-07T09:29:33Z</time>
      </trkpt>
      <trkpt lat="45.92093" lon="4.73724">
        <ele>171</ele>
        <time>2018-03-07T09:29:34Z</time>
      </trkpt>
      <trkpt lat="45.92085" lon="4.73726">
        <ele>171</ele>
        <time>2018-03-07T09:29:36Z</time>
      </trkpt>
      <trkpt lat="45.92079" lon="4.73727">
        <ele>171</ele>
        <time>2018-03-07T09:29:37Z</time>
      </trkpt>
      <trkpt lat="45.92073" lon="4.73727">
        <ele>171</ele>
        <time>2018-03-07T09:29:38Z</time>
      </trkpt>
      <trkpt lat="45.92068" lon="4.73728">
        <ele>171</ele>
        <time>2018-03-07T09:29:39Z</time>
      </trkpt>
      <trkpt lat="45.92063" lon="4.73728">
        <ele>171</ele>
        <time>2018-03-07T09:29:40Z</time>
      </trkpt>
      <trkpt lat="45.92058" lon="4.73729">
        <ele>171</ele>
        <time>2018-03-07T09:29:41Z</time>
      </trkpt>
      <trkpt lat="45.92053" lon="4.73729">
        <ele>171</ele>
        <time>2018-03-07T09:29:42Z</time>
      </trkpt>
      <trkpt lat="45.92049" lon="4.73729">
        <ele>171</ele>
        <time>2018-03-07T09:29:43Z</time>
      </trkpt>
      <trkpt lat="45.9204" lon="4.73729">
        <ele>171</ele>
        <time>2018-03-07T09:29:45Z</time>
      </trkpt>
      <trkpt lat="45.92035" lon="4.73729">
        <ele>171</ele>
        <time>2018-03-07T09:29:46Z</time>
      </trkpt>
      <trkpt lat="45.9203" lon="4.73729">
        <ele>171</ele>
        <time>2018-03-07T09:29:47Z</time>
      </trkpt>
      <trkpt lat="45.92025" lon="4.73729">
        <ele>171</ele>
        <time>2018-03-07T09:29:48Z</time>
      </trkpt>
      <trkpt lat="45.92017" lon="4.73729">
        <ele>171</ele>
        <time>2018-03-07T09:29:50Z</time>
      </trkpt>
      <trkpt lat="45.9201" lon="4.73729">
        <ele>171</ele>
        <time>2018-03-07T09:29:51Z</time>
      </trkpt>
      <trkpt lat="45.92005" lon="4.73729">
        <ele>171</ele>
        <time>2018-03-07T09:29:52Z</time>
      </trkpt>
      <trkpt lat="45.92" lon="4.73729">
        <ele>171</ele>
        <time>2018-03-07T09:29:53Z</time>
      </trkpt>
      <trkpt lat="45.91995" lon="4.73729">
        <ele>171</ele>
        <time>2018-03-07T09:29:54Z</time>
      </trkpt>
      <trkpt lat="45.9199" lon="4.73729">
        <ele>171</ele>
        <time>2018-03-07T09:29:55Z</time>
      </trkpt>
      <trkpt lat="45.91982" lon="4.7373">
        <ele>171</ele>
        <time>2018-03-07T09:29:57Z</time>
      </trkpt>
      <trkpt lat="45.91977" lon="4.7373">
        <ele>171</ele>
        <time>2018-03-07T09:29:58Z</time>
      </trkpt>
      <trkpt lat="45.91968" lon="4.7373">
        <ele>171</ele>
        <time>2018-03-07T09:30:00Z</time>
      </trkpt>
      <trkpt lat="45.91963" lon="4.7373">
        <ele>171</ele>
        <time>2018-03-07T09:30:01Z</time>
      </trkpt>
      <trkpt lat="45.91958" lon="4.7373">
        <ele>170</ele>
        <time>2018-03-07T09:30:02Z</time>
      </trkpt>
      <trkpt lat="45.91952" lon="4.7373">
        <ele>170</ele>
        <time>2018-03-07T09:30:03Z</time>
      </trkpt>
      <trkpt lat="45.91947" lon="4.7373">
        <ele>170</ele>
        <time>2018-03-07T09:30:04Z</time>
      </trkpt>
      <trkpt lat="45.91941" lon="4.73729">
        <ele>170</ele>
        <time>2018-03-07T09:30:05Z</time>
      </trkpt>
      <trkpt lat="45.91935" lon="4.73729">
        <ele>170</ele>
        <time>2018-03-07T09:30:06Z</time>
      </trkpt>
      <trkpt lat="45.91929" lon="4.73729">
        <ele>170</ele>
        <time>2018-03-07T09:30:07Z</time>
      </trkpt>
      <trkpt lat="45.91924" lon="4.73729">
        <ele>170</ele>
        <time>2018-03-07T09:30:08Z</time>
      </trkpt>
      <trkpt lat="45.91919" lon="4.73729">
        <ele>170</ele>
        <time>2018-03-07T09:30:09Z</time>
      </trkpt>
      <trkpt lat="45.91914" lon="4.73729">
        <ele>171</ele>
        <time>2018-03-07T09:30:10Z</time>
      </trkpt>
      <trkpt lat="45.91909" lon="4.7373">
        <ele>171</ele>
        <time>2018-03-07T09:30:11Z</time>
      </trkpt>
      <trkpt lat="45.91904" lon="4.73729">
        <ele>171</ele>
        <time>2018-03-07T09:30:12Z</time>
      </trkpt>
      <trkpt lat="45.91899" lon="4.73729">
        <ele>171</ele>
        <time>2018-03-07T09:30:13Z</time>
      </trkpt>
      <trkpt lat="45.91894" lon="4.7373">
        <ele>171</ele>
        <time>2018-03-07T09:30:14Z</time>
      </trkpt>
      <trkpt lat="45.91889" lon="4.73729">
        <ele>171</ele>
        <time>2018-03-07T09:30:15Z</time>
      </trkpt>
      <trkpt lat="45.91884" lon="4.73729">
        <ele>171</ele>
        <time>2018-03-07T09:30:16Z</time>
      </trkpt>
      <trkpt lat="45.91878" lon="4.73729">
        <ele>171</ele>
        <time>2018-03-07T09:30:17Z</time>
      </trkpt>
      <trkpt lat="45.91873" lon="4.73729">
        <ele>171</ele>
        <time>2018-03-07T09:30:18Z</time>
      </trkpt>
      <trkpt lat="45.91867" lon="4.73729">
        <ele>171</ele>
        <time>2018-03-07T09:30:19Z</time>
      </trkpt>
      <trkpt lat="45.91862" lon="4.73728">
        <ele>171</ele>
        <time>2018-03-07T09:30:20Z</time>
      </trkpt>
      <trkpt lat="45.91857" lon="4.73728">
        <ele>171</ele>
        <time>2018-03-07T09:30:21Z</time>
      </trkpt>
      <trkpt lat="45.91851" lon="4.73728">
        <ele>171</ele>
        <time>2018-03-07T09:30:22Z</time>
      </trkpt>
      <trkpt lat="45.91845" lon="4.73729">
        <ele>172</ele>
        <time>2018-03-07T09:30:23Z</time>
      </trkpt>
      <trkpt lat="45.91839" lon="4.73729">
        <ele>172</ele>
        <time>2018-03-07T09:30:24Z</time>
      </trkpt>
      <trkpt lat="45.91834" lon="4.73729">
        <ele>172</ele>
        <time>2018-03-07T09:30:25Z</time>
      </trkpt>
      <trkpt lat="45.91828" lon="4.73729">
        <ele>172</ele>
        <time>2018-03-07T09:30:26Z</time>
      </trkpt>
      <trkpt lat="45.91823" lon="4.7373">
        <ele>172</ele>
        <time>2018-03-07T09:30:27Z</time>
      </trkpt>
      <trkpt lat="45.91817" lon="4.7373">
        <ele>172</ele>
        <time>2018-03-07T09:30:28Z</time>
      </trkpt>
      <trkpt lat="45.91811" lon="4.73731">
        <ele>172</ele>
        <time>2018-03-07T09:30:29Z</time>
      </trkpt>
      <trkpt lat="45.91805" lon="4.73731">
        <ele>172</ele>
        <time>2018-03-07T09:30:30Z</time>
      </trkpt>
      <trkpt lat="45.918" lon="4.73731">
        <ele>172</ele>
        <time>2018-03-07T09:30:31Z</time>
      </trkpt>
      <trkpt lat="45.91796" lon="4.73729">
        <ele>172</ele>
        <time>2018-03-07T09:30:32Z</time>
      </trkpt>
      <trkpt lat="45.91791" lon="4.73729">
        <ele>173</ele>
        <time>2018-03-07T09:30:33Z</time>
      </trkpt>
      <trkpt lat="45.91785" lon="4.73729">
        <ele>173</ele>
        <time>2018-03-07T09:30:34Z</time>
      </trkpt>
      <trkpt lat="45.91779" lon="4.73729">
        <ele>173</ele>
        <time>2018-03-07T09:30:35Z</time>
      </trkpt>
      <trkpt lat="45.91775" lon="4.73729">
        <ele>173</ele>
        <time>2018-03-07T09:30:36Z</time>
      </trkpt>
      <trkpt lat="45.91769" lon="4.7373">
        <ele>173</ele>
        <time>2018-03-07T09:30:37Z</time>
      </trkpt>
      <trkpt lat="45.91764" lon="4.73731">
        <ele>173</ele>
        <time>2018-03-07T09:30:38Z</time>
      </trkpt>
      <trkpt lat="45.91758" lon="4.73731">
        <ele>173</ele>
        <time>2018-03-07T09:30:39Z</time>
      </trkpt>
      <trkpt lat="45.91753" lon="4.73731">
        <ele>173</ele>
        <time>2018-03-07T09:30:40Z</time>
      </trkpt>
      <trkpt lat="45.91748" lon="4.7373">
        <ele>173</ele>
        <time>2018-03-07T09:30:41Z</time>
      </trkpt>
      <trkpt lat="45.91741" lon="4.73732">
        <ele>173</ele>
        <time>2018-03-07T09:30:43Z</time>
      </trkpt>
      <trkpt lat="45.91736" lon="4.73732">
        <ele>173</ele>
        <time>2018-03-07T09:30:44Z</time>
      </trkpt>
      <trkpt lat="45.91731" lon="4.73732">
        <ele>173</ele>
        <time>2018-03-07T09:30:45Z</time>
      </trkpt>
      <trkpt lat="45.91725" lon="4.73731">
        <ele>173</ele>
        <time>2018-03-07T09:30:46Z</time>
      </trkpt>
      <trkpt lat="45.91718" lon="4.73731">
        <ele>173</ele>
        <time>2018-03-07T09:30:47Z</time>
      </trkpt>
      <trkpt lat="45.91712" lon="4.73732">
        <ele>173</ele>
        <time>2018-03-07T09:30:48Z</time>
      </trkpt>
      <trkpt lat="45.91707" lon="4.73732">
        <ele>172</ele>
        <time>2018-03-07T09:30:49Z</time>
      </trkpt>
      <trkpt lat="45.91702" lon="4.73732">
        <ele>172</ele>
        <time>2018-03-07T09:30:50Z</time>
      </trkpt>
      <trkpt lat="45.91696" lon="4.73733">
        <ele>172</ele>
        <time>2018-03-07T09:30:51Z</time>
      </trkpt>
      <trkpt lat="45.91691" lon="4.73733">
        <ele>172</ele>
        <time>2018-03-07T09:30:52Z</time>
      </trkpt>
      <trkpt lat="45.91686" lon="4.73734">
        <ele>172</ele>
        <time>2018-03-07T09:30:53Z</time>
      </trkpt>
      <trkpt lat="45.9168" lon="4.73734">
        <ele>172</ele>
        <time>2018-03-07T09:30:54Z</time>
      </trkpt>
      <trkpt lat="45.91675" lon="4.73735">
        <ele>172</ele>
        <time>2018-03-07T09:30:55Z</time>
      </trkpt>
      <trkpt lat="45.91668" lon="4.73734">
        <ele>172</ele>
        <time>2018-03-07T09:30:56Z</time>
      </trkpt>
      <trkpt lat="45.91662" lon="4.73734">
        <ele>172</ele>
        <time>2018-03-07T09:30:57Z</time>
      </trkpt>
      <trkpt lat="45.91657" lon="4.73734">
        <ele>172</ele>
        <time>2018-03-07T09:30:58Z</time>
      </trkpt>
      <trkpt lat="45.91651" lon="4.73735">
        <ele>172</ele>
        <time>2018-03-07T09:30:59Z</time>
      </trkpt>
      <trkpt lat="45.91646" lon="4.73735">
        <ele>172</ele>
        <time>2018-03-07T09:31:00Z</time>
      </trkpt>
      <trkpt lat="45.91641" lon="4.73735">
        <ele>172</ele>
        <time>2018-03-07T09:31:01Z</time>
      </trkpt>
      <trkpt lat="45.91637" lon="4.73735">
        <ele>172</ele>
        <time>2018-03-07T09:31:02Z</time>
      </trkpt>
      <trkpt lat="45.91632" lon="4.73736">
        <ele>172</ele>
        <time>2018-03-07T09:31:03Z</time>
      </trkpt>
      <trkpt lat="45.91627" lon="4.73735">
        <ele>172</ele>
        <time>2018-03-07T09:31:04Z</time>
      </trkpt>
      <trkpt lat="45.91622" lon="4.73734">
        <ele>173</ele>
        <time>2018-03-07T09:31:05Z</time>
      </trkpt>
      <trkpt lat="45.91617" lon="4.73733">
        <ele>173</ele>
        <time>2018-03-07T09:31:06Z</time>
      </trkpt>
      <trkpt lat="45.91613" lon="4.73734">
        <ele>173</ele>
        <time>2018-03-07T09:31:07Z</time>
      </trkpt>
      <trkpt lat="45.91607" lon="4.73733">
        <ele>173</ele>
        <time>2018-03-07T09:31:08Z</time>
      </trkpt>
      <trkpt lat="45.91599" lon="4.73735">
        <ele>173</ele>
        <time>2018-03-07T09:31:10Z</time>
      </trkpt>
      <trkpt lat="45.91593" lon="4.73736">
        <ele>173</ele>
        <time>2018-03-07T09:31:11Z</time>
      </trkpt>
      <trkpt lat="45.91588" lon="4.73736">
        <ele>173</ele>
        <time>2018-03-07T09:31:12Z</time>
      </trkpt>
      <trkpt lat="45.91583" lon="4.73736">
        <ele>173</ele>
        <time>2018-03-07T09:31:13Z</time>
      </trkpt>
      <trkpt lat="45.91578" lon="4.73736">
        <ele>173</ele>
        <time>2018-03-07T09:31:14Z</time>
      </trkpt>
      <trkpt lat="45.91572" lon="4.73735">
        <ele>173</ele>
        <time>2018-03-07T09:31:15Z</time>
      </trkpt>
      <trkpt lat="45.91567" lon="4.73735">
        <ele>173</ele>
        <time>2018-03-07T09:31:16Z</time>
      </trkpt>
      <trkpt lat="45.91561" lon="4.73735">
        <ele>173</ele>
        <time>2018-03-07T09:31:17Z</time>
      </trkpt>
      <trkpt lat="45.91556" lon="4.73735">
        <ele>174</ele>
        <time>2018-03-07T09:31:18Z</time>
      </trkpt>
      <trkpt lat="45.91551" lon="4.73735">
        <ele>174</ele>
        <time>2018-03-07T09:31:19Z</time>
      </trkpt>
      <trkpt lat="45.91545" lon="4.73734">
        <ele>174</ele>
        <time>2018-03-07T09:31:20Z</time>
      </trkpt>
      <trkpt lat="45.9154" lon="4.73734">
        <ele>174</ele>
        <time>2018-03-07T09:31:21Z</time>
      </trkpt>
      <trkpt lat="45.91535" lon="4.73734">
        <ele>174</ele>
        <time>2018-03-07T09:31:22Z</time>
      </trkpt>
      <trkpt lat="45.91529" lon="4.73735">
        <ele>174</ele>
        <time>2018-03-07T09:31:23Z</time>
      </trkpt>
      <trkpt lat="45.91524" lon="4.73734">
        <ele>174</ele>
        <time>2018-03-07T09:31:24Z</time>
      </trkpt>
      <trkpt lat="45.91519" lon="4.73734">
        <ele>174</ele>
        <time>2018-03-07T09:31:25Z</time>
      </trkpt>
      <trkpt lat="45.91514" lon="4.73733">
        <ele>174</ele>
        <time>2018-03-07T09:31:26Z</time>
      </trkpt>
      <trkpt lat="45.91509" lon="4.73734">
        <ele>174</ele>
        <time>2018-03-07T09:31:27Z</time>
      </trkpt>
      <trkpt lat="45.91503" lon="4.73734">
        <ele>174</ele>
        <time>2018-03-07T09:31:28Z</time>
      </trkpt>
      <trkpt lat="45.91498" lon="4.73734">
        <ele>174</ele>
        <time>2018-03-07T09:31:29Z</time>
      </trkpt>
      <trkpt lat="45.91494" lon="4.73734">
        <ele>174</ele>
        <time>2018-03-07T09:31:30Z</time>
      </trkpt>
      <trkpt lat="45.91489" lon="4.73734">
        <ele>174</ele>
        <time>2018-03-07T09:31:31Z</time>
      </trkpt>
      <trkpt lat="45.91483" lon="4.73735">
        <ele>174</ele>
        <time>2018-03-07T09:31:32Z</time>
      </trkpt>
      <trkpt lat="45.91477" lon="4.73735">
        <ele>174</ele>
        <time>2018-03-07T09:31:33Z</time>
      </trkpt>
      <trkpt lat="45.91471" lon="4.73734">
        <ele>174</ele>
        <time>2018-03-07T09:31:34Z</time>
      </trkpt>
      <trkpt lat="45.91465" lon="4.73734">
        <ele>174</ele>
        <time>2018-03-07T09:31:35Z</time>
      </trkpt>
      <trkpt lat="45.9146" lon="4.73735">
        <ele>174</ele>
        <time>2018-03-07T09:31:36Z</time>
      </trkpt>
      <trkpt lat="45.91454" lon="4.73735">
        <ele>173</ele>
        <time>2018-03-07T09:31:37Z</time>
      </trkpt>
      <trkpt lat="45.91448" lon="4.73735">
        <ele>173</ele>
        <time>2018-03-07T09:31:38Z</time>
      </trkpt>
      <trkpt lat="45.91442" lon="4.73735">
        <ele>173</ele>
        <time>2018-03-07T09:31:39Z</time>
      </trkpt>
      <trkpt lat="45.91436" lon="4.73735">
        <ele>173</ele>
        <time>2018-03-07T09:31:40Z</time>
      </trkpt>
      <trkpt lat="45.9143" lon="4.73734">
        <ele>173</ele>
        <time>2018-03-07T09:31:41Z</time>
      </trkpt>
      <trkpt lat="45.91425" lon="4.73735">
        <ele>173</ele>
        <time>2018-03-07T09:31:42Z</time>
      </trkpt>
      <trkpt lat="45.91421" lon="4.73735">
        <ele>173</ele>
        <time>2018-03-07T09:31:43Z</time>
      </trkpt>
      <trkpt lat="45.91414" lon="4.73735">
        <ele>173</ele>
        <time>2018-03-07T09:31:44Z</time>
      </trkpt>
      <trkpt lat="45.91408" lon="4.73734">
        <ele>173</ele>
        <time>2018-03-07T09:31:45Z</time>
      </trkpt>
      <trkpt lat="45.91402" lon="4.73734">
        <ele>173</ele>
        <time>2018-03-07T09:31:46Z</time>
      </trkpt>
      <trkpt lat="45.91396" lon="4.73734">
        <ele>173</ele>
        <time>2018-03-07T09:31:47Z</time>
      </trkpt>
      <trkpt lat="45.9139" lon="4.73734">
        <ele>173</ele>
        <time>2018-03-07T09:31:48Z</time>
      </trkpt>
      <trkpt lat="45.91386" lon="4.73733">
        <ele>173</ele>
        <time>2018-03-07T09:31:49Z</time>
      </trkpt>
      <trkpt lat="45.91379" lon="4.73733">
        <ele>173</ele>
        <time>2018-03-07T09:31:50Z</time>
      </trkpt>
      <trkpt lat="45.91373" lon="4.73733">
        <ele>173</ele>
        <time>2018-03-07T09:31:51Z</time>
      </trkpt>
      <trkpt lat="45.91368" lon="4.73734">
        <ele>173</ele>
        <time>2018-03-07T09:31:52Z</time>
      </trkpt>
      <trkpt lat="45.91363" lon="4.73735">
        <ele>173</ele>
        <time>2018-03-07T09:31:53Z</time>
      </trkpt>
      <trkpt lat="45.91357" lon="4.73735">
        <ele>173</ele>
        <time>2018-03-07T09:31:54Z</time>
      </trkpt>
      <trkpt lat="45.91352" lon="4.73735">
        <ele>173</ele>
        <time>2018-03-07T09:31:55Z</time>
      </trkpt>
      <trkpt lat="45.91346" lon="4.73735">
        <ele>173</ele>
        <time>2018-03-07T09:31:56Z</time>
      </trkpt>
      <trkpt lat="45.9134" lon="4.73735">
        <ele>173</ele>
        <time>2018-03-07T09:31:57Z</time>
      </trkpt>
      <trkpt lat="45.91335" lon="4.73736">
        <ele>173</ele>
        <time>2018-03-07T09:31:58Z</time>
      </trkpt>
      <trkpt lat="45.91329" lon="4.73736">
        <ele>173</ele>
        <time>2018-03-07T09:31:59Z</time>
      </trkpt>
      <trkpt lat="45.91322" lon="4.73736">
        <ele>174</ele>
        <time>2018-03-07T09:32:00Z</time>
      </trkpt>
      <trkpt lat="45.91316" lon="4.73737">
        <ele>174</ele>
        <time>2018-03-07T09:32:01Z</time>
      </trkpt>
      <trkpt lat="45.9131" lon="4.73736">
        <ele>174</ele>
        <time>2018-03-07T09:32:02Z</time>
      </trkpt>
      <trkpt lat="45.91304" lon="4.73737">
        <ele>174</ele>
        <time>2018-03-07T09:32:03Z</time>
      </trkpt>
      <trkpt lat="45.91298" lon="4.73737">
        <ele>174</ele>
        <time>2018-03-07T09:32:04Z</time>
      </trkpt>
      <trkpt lat="45.91293" lon="4.73737">
        <ele>174</ele>
        <time>2018-03-07T09:32:05Z</time>
      </trkpt>
      <trkpt lat="45.91287" lon="4.73737">
        <ele>174</ele>
        <time>2018-03-07T09:32:06Z</time>
      </trkpt>
      <trkpt lat="45.91283" lon="4.73737">
        <ele>174</ele>
        <time>2018-03-07T09:32:07Z</time>
      </trkpt>
      <trkpt lat="45.91277" lon="4.73737">
        <ele>174</ele>
        <time>2018-03-07T09:32:08Z</time>
      </trkpt>
      <trkpt lat="45.91272" lon="4.73738">
        <ele>174</ele>
        <time>2018-03-07T09:32:09Z</time>
      </trkpt>
      <trkpt lat="45.91268" lon="4.73738">
        <ele>174</ele>
        <time>2018-03-07T09:32:10Z</time>
      </trkpt>
      <trkpt lat="45.91262" lon="4.73738">
        <ele>174</ele>
        <time>2018-03-07T09:32:11Z</time>
      </trkpt>
      <trkpt lat="45.91257" lon="4.73738">
        <ele>175</ele>
        <time>2018-03-07T09:32:12Z</time>
      </trkpt>
      <trkpt lat="45.91253" lon="4.73739">
        <ele>175</ele>
        <time>2018-03-07T09:32:13Z</time>
      </trkpt>
      <trkpt lat="45.91249" lon="4.73738">
        <ele>175</ele>
        <time>2018-03-07T09:32:14Z</time>
      </trkpt>
      <trkpt lat="45.91243" lon="4.73737">
        <ele>175</ele>
        <time>2018-03-07T09:32:15Z</time>
      </trkpt>
      <trkpt lat="45.91238" lon="4.73737">
        <ele>175</ele>
        <time>2018-03-07T09:32:16Z</time>
      </trkpt>
      <trkpt lat="45.91233" lon="4.73738">
        <ele>175</ele>
        <time>2018-03-07T09:32:17Z</time>
      </trkpt>
      <trkpt lat="45.91228" lon="4.73738">
        <ele>175</ele>
        <time>2018-03-07T09:32:18Z</time>
      </trkpt>
      <trkpt lat="45.91223" lon="4.73738">
        <ele>175</ele>
        <time>2018-03-07T09:32:19Z</time>
      </trkpt>
      <trkpt lat="45.91218" lon="4.73739">
        <ele>175</ele>
        <time>2018-03-07T09:32:20Z</time>
      </trkpt>
      <trkpt lat="45.91213" lon="4.73739">
        <ele>175</ele>
        <time>2018-03-07T09:32:21Z</time>
      </trkpt>
      <trkpt lat="45.91208" lon="4.73739">
        <ele>175</ele>
        <time>2018-03-07T09:32:22Z</time>
      </trkpt>
      <trkpt lat="45.91204" lon="4.73738">
        <ele>175</ele>
        <time>2018-03-07T09:32:23Z</time>
      </trkpt>
      <trkpt lat="45.91199" lon="4.73737">
        <ele>175</ele>
        <time>2018-03-07T09:32:24Z</time>
      </trkpt>
      <trkpt lat="45.91195" lon="4.73736">
        <ele>175</ele>
        <time>2018-03-07T09:32:25Z</time>
      </trkpt>
      <trkpt lat="45.91186" lon="4.73732">
        <ele>175</ele>
        <time>2018-03-07T09:32:27Z</time>
      </trkpt>
      <trkpt lat="45.91181" lon="4.7373">
        <ele>175</ele>
        <time>2018-03-07T09:32:28Z</time>
      </trkpt>
      <trkpt lat="45.91177" lon="4.73728">
        <ele>175</ele>
        <time>2018-03-07T09:32:29Z</time>
      </trkpt>
      <trkpt lat="45.91172" lon="4.73727">
        <ele>175</ele>
        <time>2018-03-07T09:32:30Z</time>
      </trkpt>
      <trkpt lat="45.91163" lon="4.73725">
        <ele>175</ele>
        <time>2018-03-07T09:32:32Z</time>
      </trkpt>
      <trkpt lat="45.9116" lon="4.73721">
        <ele>175</ele>
        <time>2018-03-07T09:32:33Z</time>
      </trkpt>
      <trkpt lat="45.91157" lon="4.73716">
        <ele>175</ele>
        <time>2018-03-07T09:32:34Z</time>
      </trkpt>
      <trkpt lat="45.91154" lon="4.73711">
        <ele>174</ele>
        <time>2018-03-07T09:32:35Z</time>
      </trkpt>
      <trkpt lat="45.9115" lon="4.73706">
        <ele>174</ele>
        <time>2018-03-07T09:32:36Z</time>
      </trkpt>
      <trkpt lat="45.91147" lon="4.73699">
        <ele>174</ele>
        <time>2018-03-07T09:32:37Z</time>
      </trkpt>
      <trkpt lat="45.91144" lon="4.73692">
        <ele>174</ele>
        <time>2018-03-07T09:32:38Z</time>
      </trkpt>
      <trkpt lat="45.91141" lon="4.73687">
        <ele>174</ele>
        <time>2018-03-07T09:32:39Z</time>
      </trkpt>
      <trkpt lat="45.91139" lon="4.73681">
        <ele>174</ele>
        <time>2018-03-07T09:32:40Z</time>
      </trkpt>
      <trkpt lat="45.91135" lon="4.73676">
        <ele>174</ele>
        <time>2018-03-07T09:32:41Z</time>
      </trkpt>
      <trkpt lat="45.91133" lon="4.73669">
        <ele>174</ele>
        <time>2018-03-07T09:32:42Z</time>
      </trkpt>
      <trkpt lat="45.9113" lon="4.73664">
        <ele>174</ele>
        <time>2018-03-07T09:32:43Z</time>
      </trkpt>
      <trkpt lat="45.91128" lon="4.73658">
        <ele>174</ele>
        <time>2018-03-07T09:32:44Z</time>
      </trkpt>
      <trkpt lat="45.91125" lon="4.73653">
        <ele>174</ele>
        <time>2018-03-07T09:32:45Z</time>
      </trkpt>
      <trkpt lat="45.91123" lon="4.73646">
        <ele>174</ele>
        <time>2018-03-07T09:32:46Z</time>
      </trkpt>
      <trkpt lat="45.9112" lon="4.73641">
        <ele>174</ele>
        <time>2018-03-07T09:32:47Z</time>
      </trkpt>
      <trkpt lat="45.91118" lon="4.73636">
        <ele>174</ele>
        <time>2018-03-07T09:32:48Z</time>
      </trkpt>
      <trkpt lat="45.91115" lon="4.7363">
        <ele>174</ele>
        <time>2018-03-07T09:32:49Z</time>
      </trkpt>
      <trkpt lat="45.91112" lon="4.73625">
        <ele>174</ele>
        <time>2018-03-07T09:32:50Z</time>
      </trkpt>
      <trkpt lat="45.91109" lon="4.73619">
        <ele>174</ele>
        <time>2018-03-07T09:32:51Z</time>
      </trkpt>
      <trkpt lat="45.91107" lon="4.73614">
        <ele>174</ele>
        <time>2018-03-07T09:32:52Z</time>
      </trkpt>
      <trkpt lat="45.91102" lon="4.73608">
        <ele>174</ele>
        <time>2018-03-07T09:32:53Z</time>
      </trkpt>
      <trkpt lat="45.911" lon="4.73602">
        <ele>174</ele>
        <time>2018-03-07T09:32:54Z</time>
      </trkpt>
      <trkpt lat="45.91098" lon="4.73597">
        <ele>174</ele>
        <time>2018-03-07T09:32:55Z</time>
      </trkpt>
      <trkpt lat="45.91095" lon="4.7359">
        <ele>174</ele>
        <time>2018-03-07T09:32:56Z</time>
      </trkpt>
      <trkpt lat="45.91092" lon="4.73585">
        <ele>174</ele>
        <time>2018-03-07T09:32:57Z</time>
      </trkpt>
      <trkpt lat="45.9109" lon="4.73579">
        <ele>174</ele>
        <time>2018-03-07T09:32:58Z</time>
      </trkpt>
      <trkpt lat="45.91087" lon="4.73574">
        <ele>174</ele>
        <time>2018-03-07T09:32:59Z</time>
      </trkpt>
      <trkpt lat="45.91084" lon="4.73568">
        <ele>174</ele>
        <time>2018-03-07T09:33:00Z</time>
      </trkpt>
      <trkpt lat="45.91082" lon="4.73562">
        <ele>174</ele>
        <time>2018-03-07T09:33:01Z</time>
      </trkpt>
      <trkpt lat="45.91077" lon="4.73553">
        <ele>174</ele>
        <time>2018-03-07T09:33:03Z</time>
      </trkpt>
      <trkpt lat="45.91075" lon="4.73547">
        <ele>174</ele>
        <time>2018-03-07T09:33:04Z</time>
      </trkpt>
      <trkpt lat="45.91073" lon="4.73542">
        <ele>175</ele>
        <time>2018-03-07T09:33:05Z</time>
      </trkpt>
      <trkpt lat="45.91071" lon="4.73535">
        <ele>175</ele>
        <time>2018-03-07T09:33:06Z</time>
      </trkpt>
      <trkpt lat="45.91066" lon="4.73526">
        <ele>175</ele>
        <time>2018-03-07T09:33:08Z</time>
      </trkpt>
      <trkpt lat="45.91063" lon="4.73521">
        <ele>175</ele>
        <time>2018-03-07T09:33:09Z</time>
      </trkpt>
      <trkpt lat="45.91061" lon="4.73515">
        <ele>175</ele>
        <time>2018-03-07T09:33:10Z</time>
      </trkpt>
      <trkpt lat="45.91059" lon="4.7351">
        <ele>175</ele>
        <time>2018-03-07T09:33:11Z</time>
      </trkpt>
      <trkpt lat="45.91053" lon="4.73499">
        <ele>175</ele>
        <time>2018-03-07T09:33:13Z</time>
      </trkpt>
      <trkpt lat="45.91051" lon="4.73494">
        <ele>175</ele>
        <time>2018-03-07T09:33:14Z</time>
      </trkpt>
      <trkpt lat="45.91048" lon="4.73488">
        <ele>175</ele>
        <time>2018-03-07T09:33:15Z</time>
      </trkpt>
      <trkpt lat="45.91045" lon="4.73483">
        <ele>175</ele>
        <time>2018-03-07T09:33:16Z</time>
      </trkpt>
      <trkpt lat="45.91041" lon="4.73472">
        <ele>175</ele>
        <time>2018-03-07T09:33:18Z</time>
      </trkpt>
      <trkpt lat="45.9104" lon="4.73467">
        <ele>175</ele>
        <time>2018-03-07T09:33:19Z</time>
      </trkpt>
      <trkpt lat="45.91038" lon="4.73456">
        <ele>175</ele>
        <time>2018-03-07T09:33:21Z</time>
      </trkpt>
      <trkpt lat="45.91037" lon="4.7345">
        <ele>175</ele>
        <time>2018-03-07T09:33:22Z</time>
      </trkpt>
      <trkpt lat="45.91036" lon="4.73437">
        <ele>175</ele>
        <time>2018-03-07T09:33:24Z</time>
      </trkpt>
      <trkpt lat="45.91037" lon="4.73431">
        <ele>175</ele>
        <time>2018-03-07T09:33:25Z</time>
      </trkpt>
      <trkpt lat="45.91032" lon="4.73421">
        <ele>175</ele>
        <time>2018-03-07T09:33:27Z</time>
      </trkpt>
      <trkpt lat="45.91028" lon="4.73417">
        <ele>175</ele>
        <time>2018-03-07T09:33:28Z</time>
      </trkpt>
      <trkpt lat="45.91021" lon="4.73415">
        <ele>174</ele>
        <time>2018-03-07T09:33:30Z</time>
      </trkpt>
      <trkpt lat="45.91016" lon="4.73418">
        <ele>175</ele>
        <time>2018-03-07T09:33:31Z</time>
      </trkpt>
      <trkpt lat="45.91011" lon="4.73422">
        <ele>175</ele>
        <time>2018-03-07T09:33:32Z</time>
      </trkpt>
      <trkpt lat="45.91008" lon="4.73427">
        <ele>175</ele>
        <time>2018-03-07T09:33:33Z</time>
      </trkpt>
      <trkpt lat="45.91004" lon="4.73431">
        <ele>175</ele>
        <time>2018-03-07T09:33:34Z</time>
      </trkpt>
      <trkpt lat="45.90999" lon="4.73435">
        <ele>175</ele>
        <time>2018-03-07T09:33:35Z</time>
      </trkpt>
      <trkpt lat="45.90995" lon="4.73438">
        <ele>175</ele>
        <time>2018-03-07T09:33:36Z</time>
      </trkpt>
      <trkpt lat="45.9099" lon="4.73442">
        <ele>175</ele>
        <time>2018-03-07T09:33:37Z</time>
      </trkpt>
      <trkpt lat="45.90985" lon="4.73445">
        <ele>175</ele>
        <time>2018-03-07T09:33:38Z</time>
      </trkpt>
      <trkpt lat="45.90981" lon="4.73447">
        <ele>175</ele>
        <time>2018-03-07T09:33:39Z</time>
      </trkpt>
      <trkpt lat="45.90976" lon="4.7345">
        <ele>175</ele>
        <time>2018-03-07T09:33:40Z</time>
      </trkpt>
      <trkpt lat="45.90972" lon="4.73452">
        <ele>175</ele>
        <time>2018-03-07T09:33:41Z</time>
      </trkpt>
      <trkpt lat="45.90967" lon="4.73454">
        <ele>175</ele>
        <time>2018-03-07T09:33:42Z</time>
      </trkpt>
      <trkpt lat="45.90963" lon="4.73456">
        <ele>175</ele>
        <time>2018-03-07T09:33:43Z</time>
      </trkpt>
      <trkpt lat="45.90958" lon="4.73458">
        <ele>175</ele>
        <time>2018-03-07T09:33:44Z</time>
      </trkpt>
      <trkpt lat="45.90953" lon="4.73461">
        <ele>175</ele>
        <time>2018-03-07T09:33:45Z</time>
      </trkpt>
      <trkpt lat="45.90949" lon="4.73463">
        <ele>175</ele>
        <time>2018-03-07T09:33:46Z</time>
      </trkpt>
      <trkpt lat="45.90943" lon="4.73465">
        <ele>175</ele>
        <time>2018-03-07T09:33:47Z</time>
      </trkpt>
      <trkpt lat="45.90938" lon="4.73468">
        <ele>175</ele>
        <time>2018-03-07T09:33:48Z</time>
      </trkpt>
      <trkpt lat="45.90934" lon="4.73469">
        <ele>175</ele>
        <time>2018-03-07T09:33:49Z</time>
      </trkpt>
      <trkpt lat="45.90929" lon="4.73471">
        <ele>175</ele>
        <time>2018-03-07T09:33:50Z</time>
      </trkpt>
      <trkpt lat="45.90924" lon="4.73473">
        <ele>175</ele>
        <time>2018-03-07T09:33:51Z</time>
      </trkpt>
      <trkpt lat="45.90919" lon="4.73476">
        <ele>175</ele>
        <time>2018-03-07T09:33:52Z</time>
      </trkpt>
      <trkpt lat="45.90913" lon="4.73477">
        <ele>175</ele>
        <time>2018-03-07T09:33:53Z</time>
      </trkpt>
      <trkpt lat="45.90908" lon="4.73478">
        <ele>175</ele>
        <time>2018-03-07T09:33:54Z</time>
      </trkpt>
      <trkpt lat="45.90902" lon="4.73481">
        <ele>175</ele>
        <time>2018-03-07T09:33:55Z</time>
      </trkpt>
      <trkpt lat="45.90897" lon="4.73485">
        <ele>175</ele>
        <time>2018-03-07T09:33:56Z</time>
      </trkpt>
      <trkpt lat="45.90892" lon="4.73488">
        <ele>175</ele>
        <time>2018-03-07T09:33:57Z</time>
      </trkpt>
      <trkpt lat="45.90887" lon="4.7349">
        <ele>175</ele>
        <time>2018-03-07T09:33:58Z</time>
      </trkpt>
      <trkpt lat="45.90882" lon="4.73492">
        <ele>175</ele>
        <time>2018-03-07T09:33:59Z</time>
      </trkpt>
      <trkpt lat="45.90877" lon="4.73495">
        <ele>175</ele>
        <time>2018-03-07T09:34:00Z</time>
      </trkpt>
      <trkpt lat="45.90871" lon="4.73497">
        <ele>175</ele>
        <time>2018-03-07T09:34:01Z</time>
      </trkpt>
      <trkpt lat="45.90865" lon="4.73499">
        <ele>175</ele>
        <time>2018-03-07T09:34:02Z</time>
      </trkpt>
      <trkpt lat="45.9086" lon="4.735">
        <ele>174</ele>
        <time>2018-03-07T09:34:03Z</time>
      </trkpt>
      <trkpt lat="45.90854" lon="4.73502">
        <ele>174</ele>
        <time>2018-03-07T09:34:04Z</time>
      </trkpt>
      <trkpt lat="45.90849" lon="4.73505">
        <ele>174</ele>
        <time>2018-03-07T09:34:05Z</time>
      </trkpt>
      <trkpt lat="45.90844" lon="4.73508">
        <ele>174</ele>
        <time>2018-03-07T09:34:06Z</time>
      </trkpt>
      <trkpt lat="45.9084" lon="4.7351">
        <ele>174</ele>
        <time>2018-03-07T09:34:07Z</time>
      </trkpt>
      <trkpt lat="45.90835" lon="4.73512">
        <ele>174</ele>
        <time>2018-03-07T09:34:08Z</time>
      </trkpt>
      <trkpt lat="45.9083" lon="4.73515">
        <ele>175</ele>
        <time>2018-03-07T09:34:09Z</time>
      </trkpt>
      <trkpt lat="45.90825" lon="4.73516">
        <ele>175</ele>
        <time>2018-03-07T09:34:10Z</time>
      </trkpt>
      <trkpt lat="45.9082" lon="4.73517">
        <ele>175</ele>
        <time>2018-03-07T09:34:11Z</time>
      </trkpt>
      <trkpt lat="45.90815" lon="4.73519">
        <ele>175</ele>
        <time>2018-03-07T09:34:12Z</time>
      </trkpt>
      <trkpt lat="45.90809" lon="4.73522">
        <ele>175</ele>
        <time>2018-03-07T09:34:13Z</time>
      </trkpt>
      <trkpt lat="45.90804" lon="4.73524">
        <ele>175</ele>
        <time>2018-03-07T09:34:14Z</time>
      </trkpt>
      <trkpt lat="45.90799" lon="4.73527">
        <ele>175</ele>
        <time>2018-03-07T09:34:15Z</time>
      </trkpt>
      <trkpt lat="45.90793" lon="4.7353">
        <ele>176</ele>
        <time>2018-03-07T09:34:16Z</time>
      </trkpt>
      <trkpt lat="45.90788" lon="4.73532">
        <ele>176</ele>
        <time>2018-03-07T09:34:17Z</time>
      </trkpt>
      <trkpt lat="45.90783" lon="4.73533">
        <ele>176</ele>
        <time>2018-03-07T09:34:18Z</time>
      </trkpt>
      <trkpt lat="45.90778" lon="4.73536">
        <ele>176</ele>
        <time>2018-03-07T09:34:19Z</time>
      </trkpt>
      <trkpt lat="45.90773" lon="4.73538">
        <ele>176</ele>
        <time>2018-03-07T09:34:20Z</time>
      </trkpt>
      <trkpt lat="45.90768" lon="4.73539">
        <ele>176</ele>
        <time>2018-03-07T09:34:21Z</time>
      </trkpt>
      <trkpt lat="45.9076" lon="4.73541">
        <ele>176</ele>
        <time>2018-03-07T09:34:23Z</time>
      </trkpt>
      <trkpt lat="45.90756" lon="4.73543">
        <ele>176</ele>
        <time>2018-03-07T09:34:24Z</time>
      </trkpt>
      <trkpt lat="45.90751" lon="4.73543">
        <ele>176</ele>
        <time>2018-03-07T09:34:25Z</time>
      </trkpt>
      <trkpt lat="45.90746" lon="4.73545">
        <ele>177</ele>
        <time>2018-03-07T09:34:26Z</time>
      </trkpt>
      <trkpt lat="45.90738" lon="4.73549">
        <ele>178</ele>
        <time>2018-03-07T09:34:28Z</time>
      </trkpt>
      <trkpt lat="45.90734" lon="4.73552">
        <ele>178</ele>
        <time>2018-03-07T09:34:29Z</time>
      </trkpt>
      <trkpt lat="45.90725" lon="4.73556">
        <ele>178</ele>
        <time>2018-03-07T09:34:31Z</time>
      </trkpt>
      <trkpt lat="45.90721" lon="4.73558">
        <ele>178</ele>
        <time>2018-03-07T09:34:32Z</time>
      </trkpt>
      <trkpt lat="45.90714" lon="4.73561">
        <ele>178</ele>
        <time>2018-03-07T09:34:34Z</time>
      </trkpt>
      <trkpt lat="45.90711" lon="4.73563">
        <ele>178</ele>
        <time>2018-03-07T09:34:35Z</time>
      </trkpt>
      <trkpt lat="45.90703" lon="4.73566">
        <ele>178</ele>
        <time>2018-03-07T09:34:37Z</time>
      </trkpt>
      <trkpt lat="45.90699" lon="4.73567">
        <ele>178</ele>
        <time>2018-03-07T09:34:38Z</time>
      </trkpt>
      <trkpt lat="45.90691" lon="4.7357">
        <ele>178</ele>
        <time>2018-03-07T09:34:40Z</time>
      </trkpt>
      <trkpt lat="45.90689" lon="4.73571">
        <ele>178</ele>
        <time>2018-03-07T09:34:41Z</time>
      </trkpt>
      <trkpt lat="45.90681" lon="4.73574">
        <ele>179</ele>
        <time>2018-03-07T09:34:43Z</time>
      </trkpt>
      <trkpt lat="45.90677" lon="4.73576">
        <ele>179</ele>
        <time>2018-03-07T09:34:44Z</time>
      </trkpt>
      <trkpt lat="45.90673" lon="4.73578">
        <ele>179</ele>
        <time>2018-03-07T09:34:46Z</time>
      </trkpt>
      <trkpt lat="45.90667" lon="4.7358">
        <ele>180</ele>
        <time>2018-03-07T09:34:47Z</time>
      </trkpt>
      <trkpt lat="45.9066" lon="4.73583">
        <ele>180</ele>
        <time>2018-03-07T09:34:49Z</time>
      </trkpt>
      <trkpt lat="45.90658" lon="4.73584">
        <ele>180</ele>
        <time>2018-03-07T09:34:50Z</time>
      </trkpt>
      <trkpt lat="45.90651" lon="4.73587">
        <ele>181</ele>
        <time>2018-03-07T09:34:52Z</time>
      </trkpt>
      <trkpt lat="45.90649" lon="4.73588">
        <ele>181</ele>
        <time>2018-03-07T09:34:53Z</time>
      </trkpt>
      <trkpt lat="45.90641" lon="4.73591">
        <ele>181</ele>
        <time>2018-03-07T09:34:56Z</time>
      </trkpt>
      <trkpt lat="45.90638" lon="4.73593">
        <ele>181</ele>
        <time>2018-03-07T09:34:57Z</time>
      </trkpt>
      <trkpt lat="45.90635" lon="4.73594">
        <ele>181</ele>
        <time>2018-03-07T09:34:58Z</time>
      </trkpt>
      <trkpt lat="45.90626" lon="4.73597">
        <ele>181</ele>
        <time>2018-03-07T09:34:59Z</time>
      </trkpt>
      <trkpt lat="45.90622" lon="4.73598">
        <ele>181</ele>
        <time>2018-03-07T09:35:01Z</time>
      </trkpt>
      <trkpt lat="45.90615" lon="4.73601">
        <ele>180</ele>
        <time>2018-03-07T09:35:02Z</time>
      </trkpt>
      <trkpt lat="45.90608" lon="4.73604">
        <ele>180</ele>
        <time>2018-03-07T09:35:04Z</time>
      </trkpt>
      <trkpt lat="45.90604" lon="4.73606">
        <ele>180</ele>
        <time>2018-03-07T09:35:05Z</time>
      </trkpt>
      <trkpt lat="45.90597" lon="4.73609">
        <ele>180</ele>
        <time>2018-03-07T09:35:07Z</time>
      </trkpt>
      <trkpt lat="45.90593" lon="4.73611">
        <ele>180</ele>
        <time>2018-03-07T09:35:08Z</time>
      </trkpt>
      <trkpt lat="45.90586" lon="4.73614">
        <ele>180</ele>
        <time>2018-03-07T09:35:10Z</time>
      </trkpt>
      <trkpt lat="45.90582" lon="4.73616">
        <ele>179</ele>
        <time>2018-03-07T09:35:11Z</time>
      </trkpt>
      <trkpt lat="45.90575" lon="4.73619">
        <ele>179</ele>
        <time>2018-03-07T09:35:13Z</time>
      </trkpt>
      <trkpt lat="45.90571" lon="4.73621">
        <ele>179</ele>
        <time>2018-03-07T09:35:14Z</time>
      </trkpt>
      <trkpt lat="45.90563" lon="4.73624">
        <ele>179</ele>
        <time>2018-03-07T09:35:16Z</time>
      </trkpt>
      <trkpt lat="45.90559" lon="4.73626">
        <ele>179</ele>
        <time>2018-03-07T09:35:17Z</time>
      </trkpt>
      <trkpt lat="45.90551" lon="4.7363">
        <ele>178</ele>
        <time>2018-03-07T09:35:19Z</time>
      </trkpt>
      <trkpt lat="45.90547" lon="4.73632">
        <ele>178</ele>
        <time>2018-03-07T09:35:20Z</time>
      </trkpt>
      <trkpt lat="45.90539" lon="4.73636">
        <ele>178</ele>
        <time>2018-03-07T09:35:22Z</time>
      </trkpt>
      <trkpt lat="45.90535" lon="4.73638">
        <ele>178</ele>
        <time>2018-03-07T09:35:23Z</time>
      </trkpt>
      <trkpt lat="45.90527" lon="4.73642">
        <ele>178</ele>
        <time>2018-03-07T09:35:25Z</time>
      </trkpt>
      <trkpt lat="45.90523" lon="4.73644">
        <ele>178</ele>
        <time>2018-03-07T09:35:26Z</time>
      </trkpt>
      <trkpt lat="45.90514" lon="4.73648">
        <ele>178</ele>
        <time>2018-03-07T09:35:28Z</time>
      </trkpt>
      <trkpt lat="45.90509" lon="4.7365">
        <ele>178</ele>
        <time>2018-03-07T09:35:29Z</time>
      </trkpt>
      <trkpt lat="45.90504" lon="4.73651">
        <ele>178</ele>
        <time>2018-03-07T09:35:30Z</time>
      </trkpt>
      <trkpt lat="45.90499" lon="4.73653">
        <ele>177</ele>
        <time>2018-03-07T09:35:31Z</time>
      </trkpt>
      <trkpt lat="45.90494" lon="4.73656">
        <ele>177</ele>
        <time>2018-03-07T09:35:32Z</time>
      </trkpt>
      <trkpt lat="45.9049" lon="4.73658">
        <ele>177</ele>
        <time>2018-03-07T09:35:33Z</time>
      </trkpt>
      <trkpt lat="45.90486" lon="4.73659">
        <ele>177</ele>
        <time>2018-03-07T09:35:34Z</time>
      </trkpt>
      <trkpt lat="45.90481" lon="4.73662">
        <ele>177</ele>
        <time>2018-03-07T09:35:35Z</time>
      </trkpt>
      <trkpt lat="45.90475" lon="4.73663">
        <ele>177</ele>
        <time>2018-03-07T09:35:36Z</time>
      </trkpt>
      <trkpt lat="45.90471" lon="4.73665">
        <ele>177</ele>
        <time>2018-03-07T09:35:37Z</time>
      </trkpt>
      <trkpt lat="45.90466" lon="4.73666">
        <ele>177</ele>
        <time>2018-03-07T09:35:38Z</time>
      </trkpt>
      <trkpt lat="45.9046" lon="4.73668">
        <ele>176</ele>
        <time>2018-03-07T09:35:39Z</time>
      </trkpt>
      <trkpt lat="45.90455" lon="4.7367">
        <ele>176</ele>
        <time>2018-03-07T09:35:40Z</time>
      </trkpt>
      <trkpt lat="45.9045" lon="4.73672">
        <ele>176</ele>
        <time>2018-03-07T09:35:41Z</time>
      </trkpt>
      <trkpt lat="45.90445" lon="4.73674">
        <ele>176</ele>
        <time>2018-03-07T09:35:42Z</time>
      </trkpt>
      <trkpt lat="45.9044" lon="4.73676">
        <ele>176</ele>
        <time>2018-03-07T09:35:43Z</time>
      </trkpt>
      <trkpt lat="45.90435" lon="4.73679">
        <ele>176</ele>
        <time>2018-03-07T09:35:44Z</time>
      </trkpt>
      <trkpt lat="45.9043" lon="4.73681">
        <ele>177</ele>
        <time>2018-03-07T09:35:45Z</time>
      </trkpt>
      <trkpt lat="45.90425" lon="4.73682">
        <ele>177</ele>
        <time>2018-03-07T09:35:46Z</time>
      </trkpt>
      <trkpt lat="45.9042" lon="4.73683">
        <ele>177</ele>
        <time>2018-03-07T09:35:47Z</time>
      </trkpt>
      <trkpt lat="45.90414" lon="4.73686">
        <ele>177</ele>
        <time>2018-03-07T09:35:48Z</time>
      </trkpt>
      <trkpt lat="45.90408" lon="4.73689">
        <ele>177</ele>
        <time>2018-03-07T09:35:49Z</time>
      </trkpt>
      <trkpt lat="45.90402" lon="4.73692">
        <ele>177</ele>
        <time>2018-03-07T09:35:50Z</time>
      </trkpt>
      <trkpt lat="45.90396" lon="4.73695">
        <ele>177</ele>
        <time>2018-03-07T09:35:51Z</time>
      </trkpt>
      <trkpt lat="45.9039" lon="4.73697">
        <ele>177</ele>
        <time>2018-03-07T09:35:52Z</time>
      </trkpt>
      <trkpt lat="45.90384" lon="4.737">
        <ele>177</ele>
        <time>2018-03-07T09:35:53Z</time>
      </trkpt>
      <trkpt lat="45.90377" lon="4.73702">
        <ele>177</ele>
        <time>2018-03-07T09:35:54Z</time>
      </trkpt>
      <trkpt lat="45.90371" lon="4.73706">
        <ele>177</ele>
        <time>2018-03-07T09:35:55Z</time>
      </trkpt>
      <trkpt lat="45.90366" lon="4.73709">
        <ele>177</ele>
        <time>2018-03-07T09:35:56Z</time>
      </trkpt>
      <trkpt lat="45.90359" lon="4.73712">
        <ele>177</ele>
        <time>2018-03-07T09:35:57Z</time>
      </trkpt>
      <trkpt lat="45.90353" lon="4.73715">
        <ele>177</ele>
        <time>2018-03-07T09:35:58Z</time>
      </trkpt>
      <trkpt lat="45.90346" lon="4.73718">
        <ele>177</ele>
        <time>2018-03-07T09:35:59Z</time>
      </trkpt>
      <trkpt lat="45.9034" lon="4.73721">
        <ele>177</ele>
        <time>2018-03-07T09:36:00Z</time>
      </trkpt>
      <trkpt lat="45.90332" lon="4.73724">
        <ele>177</ele>
        <time>2018-03-07T09:36:01Z</time>
      </trkpt>
      <trkpt lat="45.90326" lon="4.73727">
        <ele>177</ele>
        <time>2018-03-07T09:36:02Z</time>
      </trkpt>
      <trkpt lat="45.90319" lon="4.7373">
        <ele>177</ele>
        <time>2018-03-07T09:36:03Z</time>
      </trkpt>
      <trkpt lat="45.90313" lon="4.73733">
        <ele>177</ele>
        <time>2018-03-07T09:36:04Z</time>
      </trkpt>
      <trkpt lat="45.90307" lon="4.73736">
        <ele>177</ele>
        <time>2018-03-07T09:36:05Z</time>
      </trkpt>
      <trkpt lat="45.90301" lon="4.73738">
        <ele>177</ele>
        <time>2018-03-07T09:36:06Z</time>
      </trkpt>
      <trkpt lat="45.90295" lon="4.73741">
        <ele>177</ele>
        <time>2018-03-07T09:36:07Z</time>
      </trkpt>
      <trkpt lat="45.90288" lon="4.73744">
        <ele>177</ele>
        <time>2018-03-07T09:36:08Z</time>
      </trkpt>
      <trkpt lat="45.90282" lon="4.73746">
        <ele>177</ele>
        <time>2018-03-07T09:36:09Z</time>
      </trkpt>
      <trkpt lat="45.90276" lon="4.73748">
        <ele>177</ele>
        <time>2018-03-07T09:36:10Z</time>
      </trkpt>
      <trkpt lat="45.9027" lon="4.7375">
        <ele>177</ele>
        <time>2018-03-07T09:36:11Z</time>
      </trkpt>
      <trkpt lat="45.90264" lon="4.73753">
        <ele>177</ele>
        <time>2018-03-07T09:36:12Z</time>
      </trkpt>
      <trkpt lat="45.90259" lon="4.73755">
        <ele>178</ele>
        <time>2018-03-07T09:36:13Z</time>
      </trkpt>
      <trkpt lat="45.90254" lon="4.73758">
        <ele>178</ele>
        <time>2018-03-07T09:36:14Z</time>
      </trkpt>
      <trkpt lat="45.90248" lon="4.7376">
        <ele>178</ele>
        <time>2018-03-07T09:36:15Z</time>
      </trkpt>
      <trkpt lat="45.90244" lon="4.73762">
        <ele>178</ele>
        <time>2018-03-07T09:36:16Z</time>
      </trkpt>
      <trkpt lat="45.90239" lon="4.73764">
        <ele>177</ele>
        <time>2018-03-07T09:36:17Z</time>
      </trkpt>
      <trkpt lat="45.90234" lon="4.73766">
        <ele>177</ele>
        <time>2018-03-07T09:36:18Z</time>
      </trkpt>
      <trkpt lat="45.90228" lon="4.73769">
        <ele>177</ele>
        <time>2018-03-07T09:36:19Z</time>
      </trkpt>
      <trkpt lat="45.90222" lon="4.73772">
        <ele>177</ele>
        <time>2018-03-07T09:36:20Z</time>
      </trkpt>
      <trkpt lat="45.90216" lon="4.73774">
        <ele>177</ele>
        <time>2018-03-07T09:36:21Z</time>
      </trkpt>
      <trkpt lat="45.9021" lon="4.73775">
        <ele>177</ele>
        <time>2018-03-07T09:36:22Z</time>
      </trkpt>
      <trkpt lat="45.90205" lon="4.73778">
        <ele>177</ele>
        <time>2018-03-07T09:36:23Z</time>
      </trkpt>
      <trkpt lat="45.902" lon="4.73779">
        <ele>177</ele>
        <time>2018-03-07T09:36:24Z</time>
      </trkpt>
      <trkpt lat="45.90195" lon="4.73782">
        <ele>177</ele>
        <time>2018-03-07T09:36:25Z</time>
      </trkpt>
      <trkpt lat="45.90189" lon="4.73784">
        <ele>177</ele>
        <time>2018-03-07T09:36:26Z</time>
      </trkpt>
      <trkpt lat="45.90184" lon="4.73786">
        <ele>177</ele>
        <time>2018-03-07T09:36:27Z</time>
      </trkpt>
      <trkpt lat="45.90179" lon="4.73788">
        <ele>177</ele>
        <time>2018-03-07T09:36:28Z</time>
      </trkpt>
      <trkpt lat="45.90174" lon="4.7379">
        <ele>177</ele>
        <time>2018-03-07T09:36:29Z</time>
      </trkpt>
      <trkpt lat="45.90168" lon="4.73792">
        <ele>177</ele>
        <time>2018-03-07T09:36:30Z</time>
      </trkpt>
      <trkpt lat="45.90163" lon="4.73795">
        <ele>176</ele>
        <time>2018-03-07T09:36:31Z</time>
      </trkpt>
      <trkpt lat="45.90159" lon="4.73795">
        <ele>176</ele>
        <time>2018-03-07T09:36:32Z</time>
      </trkpt>
      <trkpt lat="45.90154" lon="4.73797">
        <ele>177</ele>
        <time>2018-03-07T09:36:33Z</time>
      </trkpt>
      <trkpt lat="45.90149" lon="4.73799">
        <ele>177</ele>
        <time>2018-03-07T09:36:34Z</time>
      </trkpt>
      <trkpt lat="45.90144" lon="4.73801">
        <ele>177</ele>
        <time>2018-03-07T09:36:35Z</time>
      </trkpt>
      <trkpt lat="45.90139" lon="4.73804">
        <ele>177</ele>
        <time>2018-03-07T09:36:36Z</time>
      </trkpt>
      <trkpt lat="45.90134" lon="4.73806">
        <ele>177</ele>
        <time>2018-03-07T09:36:37Z</time>
      </trkpt>
      <trkpt lat="45.9013" lon="4.73808">
        <ele>177</ele>
        <time>2018-03-07T09:36:38Z</time>
      </trkpt>
      <trkpt lat="45.90125" lon="4.7381">
        <ele>177</ele>
        <time>2018-03-07T09:36:39Z</time>
      </trkpt>
      <trkpt lat="45.9012" lon="4.73812">
        <ele>177</ele>
        <time>2018-03-07T09:36:40Z</time>
      </trkpt>
      <trkpt lat="45.90115" lon="4.73814">
        <ele>177</ele>
        <time>2018-03-07T09:36:41Z</time>
      </trkpt>
      <trkpt lat="45.90109" lon="4.73816">
        <ele>177</ele>
        <time>2018-03-07T09:36:42Z</time>
      </trkpt>
      <trkpt lat="45.90104" lon="4.7382">
        <ele>177</ele>
        <time>2018-03-07T09:36:43Z</time>
      </trkpt>
      <trkpt lat="45.90098" lon="4.73822">
        <ele>177</ele>
        <time>2018-03-07T09:36:44Z</time>
      </trkpt>
      <trkpt lat="45.90094" lon="4.73825">
        <ele>177</ele>
        <time>2018-03-07T09:36:45Z</time>
      </trkpt>
      <trkpt lat="45.90089" lon="4.73827">
        <ele>178</ele>
        <time>2018-03-07T09:36:46Z</time>
      </trkpt>
      <trkpt lat="45.90083" lon="4.73829">
        <ele>178</ele>
        <time>2018-03-07T09:36:47Z</time>
      </trkpt>
      <trkpt lat="45.90077" lon="4.73831">
        <ele>178</ele>
        <time>2018-03-07T09:36:48Z</time>
      </trkpt>
      <trkpt lat="45.9007" lon="4.73835">
        <ele>178</ele>
        <time>2018-03-07T09:36:49Z</time>
      </trkpt>
      <trkpt lat="45.90065" lon="4.73838">
        <ele>178</ele>
        <time>2018-03-07T09:36:50Z</time>
      </trkpt>
      <trkpt lat="45.90058" lon="4.7384">
        <ele>178</ele>
        <time>2018-03-07T09:36:51Z</time>
      </trkpt>
      <trkpt lat="45.90053" lon="4.73842">
        <ele>178</ele>
        <time>2018-03-07T09:36:52Z</time>
      </trkpt>
      <trkpt lat="45.90047" lon="4.73844">
        <ele>178</ele>
        <time>2018-03-07T09:36:53Z</time>
      </trkpt>
      <trkpt lat="45.90041" lon="4.73846">
        <ele>178</ele>
        <time>2018-03-07T09:36:54Z</time>
      </trkpt>
      <trkpt lat="45.90035" lon="4.73847">
        <ele>178</ele>
        <time>2018-03-07T09:36:55Z</time>
      </trkpt>
      <trkpt lat="45.90031" lon="4.73849">
        <ele>178</ele>
        <time>2018-03-07T09:36:56Z</time>
      </trkpt>
      <trkpt lat="45.90025" lon="4.73851">
        <ele>178</ele>
        <time>2018-03-07T09:36:57Z</time>
      </trkpt>
      <trkpt lat="45.90018" lon="4.73854">
        <ele>178</ele>
        <time>2018-03-07T09:36:58Z</time>
      </trkpt>
      <trkpt lat="45.90015" lon="4.73856">
        <ele>178</ele>
        <time>2018-03-07T09:36:59Z</time>
      </trkpt>
      <trkpt lat="45.90009" lon="4.73858">
        <ele>178</ele>
        <time>2018-03-07T09:37:00Z</time>
      </trkpt>
      <trkpt lat="45.90003" lon="4.7386">
        <ele>178</ele>
        <time>2018-03-07T09:37:01Z</time>
      </trkpt>
      <trkpt lat="45.89998" lon="4.73861">
        <ele>178</ele>
        <time>2018-03-07T09:37:02Z</time>
      </trkpt>
      <trkpt lat="45.89992" lon="4.73863">
        <ele>178</ele>
        <time>2018-03-07T09:37:03Z</time>
      </trkpt>
      <trkpt lat="45.89986" lon="4.73865">
        <ele>178</ele>
        <time>2018-03-07T09:37:04Z</time>
      </trkpt>
      <trkpt lat="45.8998" lon="4.73867">
        <ele>178</ele>
        <time>2018-03-07T09:37:05Z</time>
      </trkpt>
      <trkpt lat="45.89973" lon="4.73868">
        <ele>178</ele>
        <time>2018-03-07T09:37:06Z</time>
      </trkpt>
      <trkpt lat="45.89968" lon="4.7387">
        <ele>178</ele>
        <time>2018-03-07T09:37:07Z</time>
      </trkpt>
      <trkpt lat="45.89963" lon="4.73873">
        <ele>178</ele>
        <time>2018-03-07T09:37:08Z</time>
      </trkpt>
      <trkpt lat="45.89957" lon="4.73875">
        <ele>178</ele>
        <time>2018-03-07T09:37:09Z</time>
      </trkpt>
      <trkpt lat="45.89953" lon="4.73878">
        <ele>178</ele>
        <time>2018-03-07T09:37:10Z</time>
      </trkpt>
      <trkpt lat="45.89947" lon="4.73881">
        <ele>178</ele>
        <time>2018-03-07T09:37:11Z</time>
      </trkpt>
      <trkpt lat="45.89941" lon="4.73884">
        <ele>178</ele>
        <time>2018-03-07T09:37:12Z</time>
      </trkpt>
      <trkpt lat="45.89935" lon="4.73887">
        <ele>178</ele>
        <time>2018-03-07T09:37:13Z</time>
      </trkpt>
      <trkpt lat="45.8993" lon="4.73889">
        <ele>178</ele>
        <time>2018-03-07T09:37:14Z</time>
      </trkpt>
      <trkpt lat="45.89924" lon="4.7389">
        <ele>178</ele>
        <time>2018-03-07T09:37:15Z</time>
      </trkpt>
      <trkpt lat="45.89919" lon="4.73892">
        <ele>178</ele>
        <time>2018-03-07T09:37:16Z</time>
      </trkpt>
      <trkpt lat="45.89914" lon="4.73895">
        <ele>178</ele>
        <time>2018-03-07T09:37:17Z</time>
      </trkpt>
      <trkpt lat="45.89907" lon="4.73897">
        <ele>178</ele>
        <time>2018-03-07T09:37:18Z</time>
      </trkpt>
      <trkpt lat="45.89901" lon="4.739">
        <ele>178</ele>
        <time>2018-03-07T09:37:19Z</time>
      </trkpt>
      <trkpt lat="45.89896" lon="4.73903">
        <ele>178</ele>
        <time>2018-03-07T09:37:20Z</time>
      </trkpt>
      <trkpt lat="45.89892" lon="4.73904">
        <ele>179</ele>
        <time>2018-03-07T09:37:21Z</time>
      </trkpt>
      <trkpt lat="45.89886" lon="4.73905">
        <ele>179</ele>
        <time>2018-03-07T09:37:22Z</time>
      </trkpt>
      <trkpt lat="45.8988" lon="4.73906">
        <ele>179</ele>
        <time>2018-03-07T09:37:23Z</time>
      </trkpt>
      <trkpt lat="45.89876" lon="4.73908">
        <ele>179</ele>
        <time>2018-03-07T09:37:24Z</time>
      </trkpt>
      <trkpt lat="45.89871" lon="4.73912">
        <ele>179</ele>
        <time>2018-03-07T09:37:25Z</time>
      </trkpt>
      <trkpt lat="45.89865" lon="4.73914">
        <ele>179</ele>
        <time>2018-03-07T09:37:26Z</time>
      </trkpt>
      <trkpt lat="45.89861" lon="4.73916">
        <ele>179</ele>
        <time>2018-03-07T09:37:27Z</time>
      </trkpt>
      <trkpt lat="45.89856" lon="4.73919">
        <ele>179</ele>
        <time>2018-03-07T09:37:28Z</time>
      </trkpt>
      <trkpt lat="45.89851" lon="4.73921">
        <ele>179</ele>
        <time>2018-03-07T09:37:29Z</time>
      </trkpt>
      <trkpt lat="45.89845" lon="4.73922">
        <ele>179</ele>
        <time>2018-03-07T09:37:30Z</time>
      </trkpt>
      <trkpt lat="45.89841" lon="4.73924">
        <ele>179</ele>
        <time>2018-03-07T09:37:31Z</time>
      </trkpt>
      <trkpt lat="45.89833" lon="4.7393">
        <ele>179</ele>
        <time>2018-03-07T09:37:33Z</time>
      </trkpt>
      <trkpt lat="45.89828" lon="4.73933">
        <ele>179</ele>
        <time>2018-03-07T09:37:34Z</time>
      </trkpt>
      <trkpt lat="45.89823" lon="4.73936">
        <ele>179</ele>
        <time>2018-03-07T09:37:35Z</time>
      </trkpt>
      <trkpt lat="45.89818" lon="4.73938">
        <ele>179</ele>
        <time>2018-03-07T09:37:36Z</time>
      </trkpt>
      <trkpt lat="45.89812" lon="4.73941">
        <ele>179</ele>
        <time>2018-03-07T09:37:37Z</time>
      </trkpt>
      <trkpt lat="45.89807" lon="4.73943">
        <ele>179</ele>
        <time>2018-03-07T09:37:38Z</time>
      </trkpt>
      <trkpt lat="45.89801" lon="4.73946">
        <ele>179</ele>
        <time>2018-03-07T09:37:39Z</time>
      </trkpt>
      <trkpt lat="45.89796" lon="4.73948">
        <ele>179</ele>
        <time>2018-03-07T09:37:40Z</time>
      </trkpt>
      <trkpt lat="45.89791" lon="4.7395">
        <ele>179</ele>
        <time>2018-03-07T09:37:41Z</time>
      </trkpt>
      <trkpt lat="45.89787" lon="4.73951">
        <ele>179</ele>
        <time>2018-03-07T09:37:42Z</time>
      </trkpt>
      <trkpt lat="45.89783" lon="4.73952">
        <ele>179</ele>
        <time>2018-03-07T09:37:43Z</time>
      </trkpt>
      <trkpt lat="45.89778" lon="4.73955">
        <ele>179</ele>
        <time>2018-03-07T09:37:44Z</time>
      </trkpt>
      <trkpt lat="45.89773" lon="4.73957">
        <ele>179</ele>
        <time>2018-03-07T09:37:45Z</time>
      </trkpt>
      <trkpt lat="45.89767" lon="4.73959">
        <ele>179</ele>
        <time>2018-03-07T09:37:46Z</time>
      </trkpt>
      <trkpt lat="45.89762" lon="4.73962">
        <ele>179</ele>
        <time>2018-03-07T09:37:47Z</time>
      </trkpt>
      <trkpt lat="45.89757" lon="4.73964">
        <ele>178</ele>
        <time>2018-03-07T09:37:48Z</time>
      </trkpt>
      <trkpt lat="45.89752" lon="4.73966">
        <ele>178</ele>
        <time>2018-03-07T09:37:49Z</time>
      </trkpt>
      <trkpt lat="45.89747" lon="4.73968">
        <ele>178</ele>
        <time>2018-03-07T09:37:50Z</time>
      </trkpt>
      <trkpt lat="45.89743" lon="4.7397">
        <ele>178</ele>
        <time>2018-03-07T09:37:51Z</time>
      </trkpt>
      <trkpt lat="45.89737" lon="4.73971">
        <ele>178</ele>
        <time>2018-03-07T09:37:52Z</time>
      </trkpt>
      <trkpt lat="45.89732" lon="4.73973">
        <ele>178</ele>
        <time>2018-03-07T09:37:53Z</time>
      </trkpt>
      <trkpt lat="45.89727" lon="4.73976">
        <ele>178</ele>
        <time>2018-03-07T09:37:54Z</time>
      </trkpt>
      <trkpt lat="45.89723" lon="4.73978">
        <ele>178</ele>
        <time>2018-03-07T09:37:55Z</time>
      </trkpt>
      <trkpt lat="45.89718" lon="4.7398">
        <ele>178</ele>
        <time>2018-03-07T09:37:56Z</time>
      </trkpt>
      <trkpt lat="45.89712" lon="4.73982">
        <ele>178</ele>
        <time>2018-03-07T09:37:57Z</time>
      </trkpt>
      <trkpt lat="45.89707" lon="4.73984">
        <ele>178</ele>
        <time>2018-03-07T09:37:58Z</time>
      </trkpt>
      <trkpt lat="45.89702" lon="4.73985">
        <ele>178</ele>
        <time>2018-03-07T09:37:59Z</time>
      </trkpt>
      <trkpt lat="45.89693" lon="4.73989">
        <ele>178</ele>
        <time>2018-03-07T09:38:00Z</time>
      </trkpt>
      <trkpt lat="45.89687" lon="4.73992">
        <ele>179</ele>
        <time>2018-03-07T09:38:01Z</time>
      </trkpt>
      <trkpt lat="45.89683" lon="4.73995">
        <ele>179</ele>
        <time>2018-03-07T09:38:02Z</time>
      </trkpt>
      <trkpt lat="45.89679" lon="4.73997">
        <ele>179</ele>
        <time>2018-03-07T09:38:03Z</time>
      </trkpt>
      <trkpt lat="45.89674" lon="4.74">
        <ele>179</ele>
        <time>2018-03-07T09:38:04Z</time>
      </trkpt>
      <trkpt lat="45.89668" lon="4.74002">
        <ele>179</ele>
        <time>2018-03-07T09:38:05Z</time>
      </trkpt>
      <trkpt lat="45.89663" lon="4.74005">
        <ele>179</ele>
        <time>2018-03-07T09:38:06Z</time>
      </trkpt>
      <trkpt lat="45.89658" lon="4.74007">
        <ele>179</ele>
        <time>2018-03-07T09:38:07Z</time>
      </trkpt>
      <trkpt lat="45.89654" lon="4.74008">
        <ele>179</ele>
        <time>2018-03-07T09:38:08Z</time>
      </trkpt>
      <trkpt lat="45.89649" lon="4.7401">
        <ele>180</ele>
        <time>2018-03-07T09:38:09Z</time>
      </trkpt>
      <trkpt lat="45.89643" lon="4.74012">
        <ele>180</ele>
        <time>2018-03-07T09:38:10Z</time>
      </trkpt>
      <trkpt lat="45.89638" lon="4.74015">
        <ele>180</ele>
        <time>2018-03-07T09:38:11Z</time>
      </trkpt>
      <trkpt lat="45.89633" lon="4.74017">
        <ele>180</ele>
        <time>2018-03-07T09:38:12Z</time>
      </trkpt>
      <trkpt lat="45.89629" lon="4.74018">
        <ele>180</ele>
        <time>2018-03-07T09:38:13Z</time>
      </trkpt>
      <trkpt lat="45.89623" lon="4.74021">
        <ele>180</ele>
        <time>2018-03-07T09:38:14Z</time>
      </trkpt>
      <trkpt lat="45.89618" lon="4.74024">
        <ele>180</ele>
        <time>2018-03-07T09:38:15Z</time>
      </trkpt>
      <trkpt lat="45.89612" lon="4.74027">
        <ele>180</ele>
        <time>2018-03-07T09:38:16Z</time>
      </trkpt>
      <trkpt lat="45.89607" lon="4.74028">
        <ele>180</ele>
        <time>2018-03-07T09:38:17Z</time>
      </trkpt>
      <trkpt lat="45.89603" lon="4.7403">
        <ele>180</ele>
        <time>2018-03-07T09:38:18Z</time>
      </trkpt>
      <trkpt lat="45.89598" lon="4.74032">
        <ele>180</ele>
        <time>2018-03-07T09:38:19Z</time>
      </trkpt>
      <trkpt lat="45.89594" lon="4.74035">
        <ele>180</ele>
        <time>2018-03-07T09:38:20Z</time>
      </trkpt>
      <trkpt lat="45.8959" lon="4.74039">
        <ele>180</ele>
        <time>2018-03-07T09:38:21Z</time>
      </trkpt>
      <trkpt lat="45.89583" lon="4.74041">
        <ele>181</ele>
        <time>2018-03-07T09:38:22Z</time>
      </trkpt>
      <trkpt lat="45.89579" lon="4.74042">
        <ele>181</ele>
        <time>2018-03-07T09:38:23Z</time>
      </trkpt>
      <trkpt lat="45.89573" lon="4.74045">
        <ele>181</ele>
        <time>2018-03-07T09:38:24Z</time>
      </trkpt>
      <trkpt lat="45.89568" lon="4.74047">
        <ele>181</ele>
        <time>2018-03-07T09:38:25Z</time>
      </trkpt>
      <trkpt lat="45.89564" lon="4.74049">
        <ele>181</ele>
        <time>2018-03-07T09:38:26Z</time>
      </trkpt>
      <trkpt lat="45.89558" lon="4.74052">
        <ele>181</ele>
        <time>2018-03-07T09:38:27Z</time>
      </trkpt>
      <trkpt lat="45.89551" lon="4.74054">
        <ele>181</ele>
        <time>2018-03-07T09:38:28Z</time>
      </trkpt>
      <trkpt lat="45.89545" lon="4.74057">
        <ele>181</ele>
        <time>2018-03-07T09:38:29Z</time>
      </trkpt>
      <trkpt lat="45.89541" lon="4.74058">
        <ele>181</ele>
        <time>2018-03-07T09:38:30Z</time>
      </trkpt>
      <trkpt lat="45.89536" lon="4.74061">
        <ele>181</ele>
        <time>2018-03-07T09:38:31Z</time>
      </trkpt>
      <trkpt lat="45.89531" lon="4.74063">
        <ele>181</ele>
        <time>2018-03-07T09:38:32Z</time>
      </trkpt>
      <trkpt lat="45.89525" lon="4.74065">
        <ele>181</ele>
        <time>2018-03-07T09:38:33Z</time>
      </trkpt>
      <trkpt lat="45.89521" lon="4.74068">
        <ele>181</ele>
        <time>2018-03-07T09:38:34Z</time>
      </trkpt>
      <trkpt lat="45.89515" lon="4.7407">
        <ele>181</ele>
        <time>2018-03-07T09:38:35Z</time>
      </trkpt>
      <trkpt lat="45.8951" lon="4.74072">
        <ele>181</ele>
        <time>2018-03-07T09:38:36Z</time>
      </trkpt>
      <trkpt lat="45.89505" lon="4.74074">
        <ele>181</ele>
        <time>2018-03-07T09:38:37Z</time>
      </trkpt>
      <trkpt lat="45.895" lon="4.74076">
        <ele>181</ele>
        <time>2018-03-07T09:38:38Z</time>
      </trkpt>
      <trkpt lat="45.89495" lon="4.74079">
        <ele>181</ele>
        <time>2018-03-07T09:38:39Z</time>
      </trkpt>
      <trkpt lat="45.8949" lon="4.74081">
        <ele>181</ele>
        <time>2018-03-07T09:38:40Z</time>
      </trkpt>
      <trkpt lat="45.89482" lon="4.74084">
        <ele>182</ele>
        <time>2018-03-07T09:38:42Z</time>
      </trkpt>
      <trkpt lat="45.89478" lon="4.74086">
        <ele>182</ele>
        <time>2018-03-07T09:38:43Z</time>
      </trkpt>
      <trkpt lat="45.89471" lon="4.74087">
        <ele>182</ele>
        <time>2018-03-07T09:38:44Z</time>
      </trkpt>
      <trkpt lat="45.89467" lon="4.74089">
        <ele>182</ele>
        <time>2018-03-07T09:38:45Z</time>
      </trkpt>
      <trkpt lat="45.89462" lon="4.74092">
        <ele>182</ele>
        <time>2018-03-07T09:38:46Z</time>
      </trkpt>
      <trkpt lat="45.89458" lon="4.74094">
        <ele>182</ele>
        <time>2018-03-07T09:38:47Z</time>
      </trkpt>
      <trkpt lat="45.89453" lon="4.74096">
        <ele>182</ele>
        <time>2018-03-07T09:38:48Z</time>
      </trkpt>
      <trkpt lat="45.89449" lon="4.74099">
        <ele>182</ele>
        <time>2018-03-07T09:38:49Z</time>
      </trkpt>
      <trkpt lat="45.89444" lon="4.741">
        <ele>182</ele>
        <time>2018-03-07T09:38:50Z</time>
      </trkpt>
      <trkpt lat="45.89439" lon="4.74103">
        <ele>182</ele>
        <time>2018-03-07T09:38:51Z</time>
      </trkpt>
      <trkpt lat="45.89434" lon="4.74105">
        <ele>182</ele>
        <time>2018-03-07T09:38:52Z</time>
      </trkpt>
      <trkpt lat="45.89429" lon="4.74106">
        <ele>183</ele>
        <time>2018-03-07T09:38:53Z</time>
      </trkpt>
      <trkpt lat="45.89424" lon="4.74108">
        <ele>183</ele>
        <time>2018-03-07T09:38:54Z</time>
      </trkpt>
      <trkpt lat="45.89419" lon="4.7411">
        <ele>183</ele>
        <time>2018-03-07T09:38:55Z</time>
      </trkpt>
      <trkpt lat="45.89414" lon="4.74113">
        <ele>183</ele>
        <time>2018-03-07T09:38:56Z</time>
      </trkpt>
      <trkpt lat="45.89409" lon="4.74115">
        <ele>183</ele>
        <time>2018-03-07T09:38:57Z</time>
      </trkpt>
      <trkpt lat="45.89404" lon="4.74117">
        <ele>184</ele>
        <time>2018-03-07T09:38:58Z</time>
      </trkpt>
      <trkpt lat="45.894" lon="4.7412">
        <ele>184</ele>
        <time>2018-03-07T09:38:59Z</time>
      </trkpt>
      <trkpt lat="45.89394" lon="4.74123">
        <ele>184</ele>
        <time>2018-03-07T09:39:00Z</time>
      </trkpt>
      <trkpt lat="45.89389" lon="4.74125">
        <ele>184</ele>
        <time>2018-03-07T09:39:01Z</time>
      </trkpt>
      <trkpt lat="45.89385" lon="4.74127">
        <ele>184</ele>
        <time>2018-03-07T09:39:02Z</time>
      </trkpt>
      <trkpt lat="45.8938" lon="4.74128">
        <ele>184</ele>
        <time>2018-03-07T09:39:03Z</time>
      </trkpt>
      <trkpt lat="45.89375" lon="4.7413">
        <ele>184</ele>
        <time>2018-03-07T09:39:04Z</time>
      </trkpt>
      <trkpt lat="45.8937" lon="4.74133">
        <ele>184</ele>
        <time>2018-03-07T09:39:05Z</time>
      </trkpt>
      <trkpt lat="45.89365" lon="4.74136">
        <ele>184</ele>
        <time>2018-03-07T09:39:06Z</time>
      </trkpt>
      <trkpt lat="45.8936" lon="4.74138">
        <ele>184</ele>
        <time>2018-03-07T09:39:07Z</time>
      </trkpt>
      <trkpt lat="45.89356" lon="4.7414">
        <ele>184</ele>
        <time>2018-03-07T09:39:08Z</time>
      </trkpt>
      <trkpt lat="45.89351" lon="4.74142">
        <ele>185</ele>
        <time>2018-03-07T09:39:09Z</time>
      </trkpt>
      <trkpt lat="45.89346" lon="4.74144">
        <ele>185</ele>
        <time>2018-03-07T09:39:10Z</time>
      </trkpt>
      <trkpt lat="45.89341" lon="4.74145">
        <ele>185</ele>
        <time>2018-03-07T09:39:11Z</time>
      </trkpt>
      <trkpt lat="45.89337" lon="4.74148">
        <ele>185</ele>
        <time>2018-03-07T09:39:12Z</time>
      </trkpt>
      <trkpt lat="45.89331" lon="4.74149">
        <ele>185</ele>
        <time>2018-03-07T09:39:13Z</time>
      </trkpt>
      <trkpt lat="45.89327" lon="4.74152">
        <ele>185</ele>
        <time>2018-03-07T09:39:14Z</time>
      </trkpt>
      <trkpt lat="45.89321" lon="4.74154">
        <ele>185</ele>
        <time>2018-03-07T09:39:15Z</time>
      </trkpt>
      <trkpt lat="45.89316" lon="4.74156">
        <ele>185</ele>
        <time>2018-03-07T09:39:16Z</time>
      </trkpt>
      <trkpt lat="45.89311" lon="4.74159">
        <ele>185</ele>
        <time>2018-03-07T09:39:17Z</time>
      </trkpt>
      <trkpt lat="45.89306" lon="4.74161">
        <ele>185</ele>
        <time>2018-03-07T09:39:18Z</time>
      </trkpt>
      <trkpt lat="45.893" lon="4.74163">
        <ele>185</ele>
        <time>2018-03-07T09:39:19Z</time>
      </trkpt>
      <trkpt lat="45.89294" lon="4.74165">
        <ele>185</ele>
        <time>2018-03-07T09:39:20Z</time>
      </trkpt>
      <trkpt lat="45.89289" lon="4.74167">
        <ele>186</ele>
        <time>2018-03-07T09:39:21Z</time>
      </trkpt>
      <trkpt lat="45.89283" lon="4.74169">
        <ele>186</ele>
        <time>2018-03-07T09:39:22Z</time>
      </trkpt>
      <trkpt lat="45.89277" lon="4.74172">
        <ele>186</ele>
        <time>2018-03-07T09:39:23Z</time>
      </trkpt>
      <trkpt lat="45.89271" lon="4.74174">
        <ele>186</ele>
        <time>2018-03-07T09:39:24Z</time>
      </trkpt>
      <trkpt lat="45.89265" lon="4.74177">
        <ele>186</ele>
        <time>2018-03-07T09:39:25Z</time>
      </trkpt>
      <trkpt lat="45.8926" lon="4.74179">
        <ele>186</ele>
        <time>2018-03-07T09:39:26Z</time>
      </trkpt>
      <trkpt lat="45.89253" lon="4.74181">
        <ele>185</ele>
        <time>2018-03-07T09:39:27Z</time>
      </trkpt>
      <trkpt lat="45.89247" lon="4.74184">
        <ele>186</ele>
        <time>2018-03-07T09:39:28Z</time>
      </trkpt>
      <trkpt lat="45.89241" lon="4.74186">
        <ele>186</ele>
        <time>2018-03-07T09:39:29Z</time>
      </trkpt>
      <trkpt lat="45.89237" lon="4.74188">
        <ele>186</ele>
        <time>2018-03-07T09:39:30Z</time>
      </trkpt>
      <trkpt lat="45.89231" lon="4.7419">
        <ele>186</ele>
        <time>2018-03-07T09:39:31Z</time>
      </trkpt>
      <trkpt lat="45.89226" lon="4.74192">
        <ele>186</ele>
        <time>2018-03-07T09:39:32Z</time>
      </trkpt>
      <trkpt lat="45.8922" lon="4.74194">
        <ele>186</ele>
        <time>2018-03-07T09:39:33Z</time>
      </trkpt>
      <trkpt lat="45.89214" lon="4.74197">
        <ele>186</ele>
        <time>2018-03-07T09:39:34Z</time>
      </trkpt>
      <trkpt lat="45.89209" lon="4.74199">
        <ele>186</ele>
        <time>2018-03-07T09:39:35Z</time>
      </trkpt>
      <trkpt lat="45.89204" lon="4.74202">
        <ele>186</ele>
        <time>2018-03-07T09:39:36Z</time>
      </trkpt>
      <trkpt lat="45.89198" lon="4.74205">
        <ele>186</ele>
        <time>2018-03-07T09:39:37Z</time>
      </trkpt>
      <trkpt lat="45.89194" lon="4.74206">
        <ele>186</ele>
        <time>2018-03-07T09:39:38Z</time>
      </trkpt>
      <trkpt lat="45.89189" lon="4.74208">
        <ele>186</ele>
        <time>2018-03-07T09:39:39Z</time>
      </trkpt>
      <trkpt lat="45.89184" lon="4.74209">
        <ele>186</ele>
        <time>2018-03-07T09:39:40Z</time>
      </trkpt>
      <trkpt lat="45.8918" lon="4.74211">
        <ele>186</ele>
        <time>2018-03-07T09:39:41Z</time>
      </trkpt>
      <trkpt lat="45.89173" lon="4.74214">
        <ele>186</ele>
        <time>2018-03-07T09:39:42Z</time>
      </trkpt>
      <trkpt lat="45.89167" lon="4.74217">
        <ele>186</ele>
        <time>2018-03-07T09:39:43Z</time>
      </trkpt>
      <trkpt lat="45.89162" lon="4.7422">
        <ele>186</ele>
        <time>2018-03-07T09:39:44Z</time>
      </trkpt>
      <trkpt lat="45.89157" lon="4.74223">
        <ele>186</ele>
        <time>2018-03-07T09:39:45Z</time>
      </trkpt>
      <trkpt lat="45.89152" lon="4.74225">
        <ele>186</ele>
        <time>2018-03-07T09:39:46Z</time>
      </trkpt>
      <trkpt lat="45.89148" lon="4.74226">
        <ele>186</ele>
        <time>2018-03-07T09:39:47Z</time>
      </trkpt>
      <trkpt lat="45.89143" lon="4.74228">
        <ele>186</ele>
        <time>2018-03-07T09:39:48Z</time>
      </trkpt>
      <trkpt lat="45.89138" lon="4.7423">
        <ele>186</ele>
        <time>2018-03-07T09:39:49Z</time>
      </trkpt>
      <trkpt lat="45.89133" lon="4.74233">
        <ele>186</ele>
        <time>2018-03-07T09:39:50Z</time>
      </trkpt>
      <trkpt lat="45.89128" lon="4.74235">
        <ele>186</ele>
        <time>2018-03-07T09:39:51Z</time>
      </trkpt>
      <trkpt lat="45.89124" lon="4.74237">
        <ele>186</ele>
        <time>2018-03-07T09:39:52Z</time>
      </trkpt>
      <trkpt lat="45.89119" lon="4.74239">
        <ele>186</ele>
        <time>2018-03-07T09:39:53Z</time>
      </trkpt>
      <trkpt lat="45.89111" lon="4.74242">
        <ele>186</ele>
        <time>2018-03-07T09:39:55Z</time>
      </trkpt>
      <trkpt lat="45.89106" lon="4.74243">
        <ele>186</ele>
        <time>2018-03-07T09:39:56Z</time>
      </trkpt>
      <trkpt lat="45.89098" lon="4.74245">
        <ele>186</ele>
        <time>2018-03-07T09:39:58Z</time>
      </trkpt>
      <trkpt lat="45.89094" lon="4.74246">
        <ele>186</ele>
        <time>2018-03-07T09:39:59Z</time>
      </trkpt>
      <trkpt lat="45.89086" lon="4.74249">
        <ele>186</ele>
        <time>2018-03-07T09:40:01Z</time>
      </trkpt>
      <trkpt lat="45.89081" lon="4.74251">
        <ele>186</ele>
        <time>2018-03-07T09:40:02Z</time>
      </trkpt>
      <trkpt lat="45.89076" lon="4.74253">
        <ele>186</ele>
        <time>2018-03-07T09:40:03Z</time>
      </trkpt>
      <trkpt lat="45.89071" lon="4.74254">
        <ele>186</ele>
        <time>2018-03-07T09:40:04Z</time>
      </trkpt>
      <trkpt lat="45.89066" lon="4.74256">
        <ele>186</ele>
        <time>2018-03-07T09:40:05Z</time>
      </trkpt>
      <trkpt lat="45.89062" lon="4.74258">
        <ele>186</ele>
        <time>2018-03-07T09:40:06Z</time>
      </trkpt>
      <trkpt lat="45.89056" lon="4.7426">
        <ele>187</ele>
        <time>2018-03-07T09:40:07Z</time>
      </trkpt>
      <trkpt lat="45.89052" lon="4.74263">
        <ele>187</ele>
        <time>2018-03-07T09:40:08Z</time>
      </trkpt>
      <trkpt lat="45.89047" lon="4.74265">
        <ele>187</ele>
        <time>2018-03-07T09:40:09Z</time>
      </trkpt>
      <trkpt lat="45.89042" lon="4.74266">
        <ele>187</ele>
        <time>2018-03-07T09:40:10Z</time>
      </trkpt>
      <trkpt lat="45.89036" lon="4.74267">
        <ele>187</ele>
        <time>2018-03-07T09:40:11Z</time>
      </trkpt>
      <trkpt lat="45.89032" lon="4.74268">
        <ele>187</ele>
        <time>2018-03-07T09:40:12Z</time>
      </trkpt>
      <trkpt lat="45.89027" lon="4.74269">
        <ele>187</ele>
        <time>2018-03-07T09:40:13Z</time>
      </trkpt>
      <trkpt lat="45.89021" lon="4.74271">
        <ele>187</ele>
        <time>2018-03-07T09:40:14Z</time>
      </trkpt>
      <trkpt lat="45.89016" lon="4.74274">
        <ele>187</ele>
        <time>2018-03-07T09:40:15Z</time>
      </trkpt>
      <trkpt lat="45.8901" lon="4.74276">
        <ele>187</ele>
        <time>2018-03-07T09:40:16Z</time>
      </trkpt>
      <trkpt lat="45.89005" lon="4.74276">
        <ele>187</ele>
        <time>2018-03-07T09:40:17Z</time>
      </trkpt>
      <trkpt lat="45.89" lon="4.74278">
        <ele>187</ele>
        <time>2018-03-07T09:40:18Z</time>
      </trkpt>
      <trkpt lat="45.88994" lon="4.7428">
        <ele>187</ele>
        <time>2018-03-07T09:40:19Z</time>
      </trkpt>
      <trkpt lat="45.88989" lon="4.7428">
        <ele>187</ele>
        <time>2018-03-07T09:40:20Z</time>
      </trkpt>
      <trkpt lat="45.8898" lon="4.74281">
        <ele>187</ele>
        <time>2018-03-07T09:40:22Z</time>
      </trkpt>
      <trkpt lat="45.88977" lon="4.74281">
        <ele>187</ele>
        <time>2018-03-07T09:40:23Z</time>
      </trkpt>
      <trkpt lat="45.88971" lon="4.74281">
        <ele>187</ele>
        <time>2018-03-07T09:40:24Z</time>
      </trkpt>
      <trkpt lat="45.88967" lon="4.74278">
        <ele>187</ele>
        <time>2018-03-07T09:40:25Z</time>
      </trkpt>
      <trkpt lat="45.88958" lon="4.74275">
        <ele>187</ele>
        <time>2018-03-07T09:40:27Z</time>
      </trkpt>
      <trkpt lat="45.88954" lon="4.74274">
        <ele>187</ele>
        <time>2018-03-07T09:40:28Z</time>
      </trkpt>
      <trkpt lat="45.88947" lon="4.74268">
        <ele>187</ele>
        <time>2018-03-07T09:40:31Z</time>
      </trkpt>
      <trkpt lat="45.88942" lon="4.74265">
        <ele>187</ele>
        <time>2018-03-07T09:40:32Z</time>
      </trkpt>
      <trkpt lat="45.88934" lon="4.7426">
        <ele>187</ele>
        <time>2018-03-07T09:40:34Z</time>
      </trkpt>
      <trkpt lat="45.88931" lon="4.74257">
        <ele>187</ele>
        <time>2018-03-07T09:40:35Z</time>
      </trkpt>
      <trkpt lat="45.88923" lon="4.74252">
        <ele>187</ele>
        <time>2018-03-07T09:40:37Z</time>
      </trkpt>
      <trkpt lat="45.88916" lon="4.7425">
        <ele>187</ele>
        <time>2018-03-07T09:40:38Z</time>
      </trkpt>
      <trkpt lat="45.88909" lon="4.74246">
        <ele>187</ele>
        <time>2018-03-07T09:40:40Z</time>
      </trkpt>
      <trkpt lat="45.889" lon="4.74245">
        <ele>187</ele>
        <time>2018-03-07T09:40:41Z</time>
      </trkpt>
      <trkpt lat="45.88896" lon="4.74242">
        <ele>187</ele>
        <time>2018-03-07T09:40:42Z</time>
      </trkpt>
      <trkpt lat="45.88892" lon="4.74239">
        <ele>187</ele>
        <time>2018-03-07T09:40:43Z</time>
      </trkpt>
      <trkpt lat="45.88887" lon="4.74236">
        <ele>187</ele>
        <time>2018-03-07T09:40:44Z</time>
      </trkpt>
      <trkpt lat="45.88883" lon="4.74232">
        <ele>187</ele>
        <time>2018-03-07T09:40:45Z</time>
      </trkpt>
      <trkpt lat="45.88879" lon="4.74229">
        <ele>187</ele>
        <time>2018-03-07T09:40:46Z</time>
      </trkpt>
      <trkpt lat="45.88874" lon="4.74226">
        <ele>187</ele>
        <time>2018-03-07T09:40:47Z</time>
      </trkpt>
      <trkpt lat="45.8887" lon="4.74222">
        <ele>187</ele>
        <time>2018-03-07T09:40:48Z</time>
      </trkpt>
      <trkpt lat="45.88865" lon="4.7422">
        <ele>187</ele>
        <time>2018-03-07T09:40:49Z</time>
      </trkpt>
      <trkpt lat="45.88861" lon="4.74217">
        <ele>187</ele>
        <time>2018-03-07T09:40:50Z</time>
      </trkpt>
      <trkpt lat="45.88857" lon="4.74214">
        <ele>187</ele>
        <time>2018-03-07T09:40:51Z</time>
      </trkpt>
      <trkpt lat="45.88853" lon="4.74211">
        <ele>187</ele>
        <time>2018-03-07T09:40:52Z</time>
      </trkpt>
      <trkpt lat="45.88848" lon="4.7421">
        <ele>187</ele>
        <time>2018-03-07T09:40:53Z</time>
      </trkpt>
      <trkpt lat="45.88844" lon="4.74207">
        <ele>187</ele>
        <time>2018-03-07T09:40:54Z</time>
      </trkpt>
      <trkpt lat="45.88839" lon="4.74205">
        <ele>187</ele>
        <time>2018-03-07T09:40:55Z</time>
      </trkpt>
      <trkpt lat="45.88834" lon="4.74202">
        <ele>187</ele>
        <time>2018-03-07T09:40:56Z</time>
      </trkpt>
      <trkpt lat="45.88829" lon="4.74199">
        <ele>187</ele>
        <time>2018-03-07T09:40:57Z</time>
      </trkpt>
      <trkpt lat="45.88824" lon="4.74196">
        <ele>187</ele>
        <time>2018-03-07T09:40:58Z</time>
      </trkpt>
      <trkpt lat="45.8882" lon="4.74194">
        <ele>187</ele>
        <time>2018-03-07T09:40:59Z</time>
      </trkpt>
      <trkpt lat="45.88814" lon="4.74192">
        <ele>187</ele>
        <time>2018-03-07T09:41:00Z</time>
      </trkpt>
      <trkpt lat="45.8881" lon="4.74189">
        <ele>187</ele>
        <time>2018-03-07T09:41:01Z</time>
      </trkpt>
      <trkpt lat="45.88806" lon="4.74187">
        <ele>187</ele>
        <time>2018-03-07T09:41:02Z</time>
      </trkpt>
      <trkpt lat="45.88801" lon="4.74184">
        <ele>187</ele>
        <time>2018-03-07T09:41:03Z</time>
      </trkpt>
      <trkpt lat="45.88797" lon="4.74182">
        <ele>187</ele>
        <time>2018-03-07T09:41:04Z</time>
      </trkpt>
      <trkpt lat="45.88793" lon="4.74179">
        <ele>187</ele>
        <time>2018-03-07T09:41:05Z</time>
      </trkpt>
      <trkpt lat="45.88789" lon="4.74177">
        <ele>188</ele>
        <time>2018-03-07T09:41:06Z</time>
      </trkpt>
      <trkpt lat="45.88784" lon="4.74174">
        <ele>188</ele>
        <time>2018-03-07T09:41:07Z</time>
      </trkpt>
      <trkpt lat="45.88776" lon="4.74169">
        <ele>188</ele>
        <time>2018-03-07T09:41:09Z</time>
      </trkpt>
      <trkpt lat="45.88772" lon="4.74168">
        <ele>188</ele>
        <time>2018-03-07T09:41:10Z</time>
      </trkpt>
      <trkpt lat="45.88767" lon="4.74165">
        <ele>187</ele>
        <time>2018-03-07T09:41:11Z</time>
      </trkpt>
      <trkpt lat="45.88763" lon="4.74163">
        <ele>187</ele>
        <time>2018-03-07T09:41:12Z</time>
      </trkpt>
      <trkpt lat="45.88758" lon="4.74161">
        <ele>188</ele>
        <time>2018-03-07T09:41:13Z</time>
      </trkpt>
      <trkpt lat="45.88753" lon="4.74157">
        <ele>188</ele>
        <time>2018-03-07T09:41:14Z</time>
      </trkpt>
      <trkpt lat="45.88749" lon="4.74154">
        <ele>188</ele>
        <time>2018-03-07T09:41:15Z</time>
      </trkpt>
      <trkpt lat="45.88745" lon="4.7415">
        <ele>188</ele>
        <time>2018-03-07T09:41:16Z</time>
      </trkpt>
      <trkpt lat="45.8874" lon="4.74147">
        <ele>188</ele>
        <time>2018-03-07T09:41:17Z</time>
      </trkpt>
      <trkpt lat="45.88736" lon="4.74143">
        <ele>188</ele>
        <time>2018-03-07T09:41:18Z</time>
      </trkpt>
      <trkpt lat="45.8873" lon="4.7414">
        <ele>188</ele>
        <time>2018-03-07T09:41:19Z</time>
      </trkpt>
      <trkpt lat="45.88726" lon="4.74137">
        <ele>188</ele>
        <time>2018-03-07T09:41:20Z</time>
      </trkpt>
      <trkpt lat="45.88723" lon="4.74133">
        <ele>188</ele>
        <time>2018-03-07T09:41:21Z</time>
      </trkpt>
      <trkpt lat="45.88718" lon="4.74128">
        <ele>188</ele>
        <time>2018-03-07T09:41:22Z</time>
      </trkpt>
      <trkpt lat="45.88714" lon="4.74124">
        <ele>188</ele>
        <time>2018-03-07T09:41:23Z</time>
      </trkpt>
      <trkpt lat="45.88711" lon="4.74119">
        <ele>188</ele>
        <time>2018-03-07T09:41:24Z</time>
      </trkpt>
      <trkpt lat="45.88707" lon="4.74115">
        <ele>188</ele>
        <time>2018-03-07T09:41:25Z</time>
      </trkpt>
      <trkpt lat="45.88703" lon="4.74111">
        <ele>188</ele>
        <time>2018-03-07T09:41:26Z</time>
      </trkpt>
      <trkpt lat="45.88697" lon="4.74109">
        <ele>188</ele>
        <time>2018-03-07T09:41:27Z</time>
      </trkpt>
      <trkpt lat="45.88692" lon="4.74107">
        <ele>188</ele>
        <time>2018-03-07T09:41:28Z</time>
      </trkpt>
      <trkpt lat="45.88683" lon="4.74108">
        <ele>188</ele>
        <time>2018-03-07T09:41:32Z</time>
      </trkpt>
      <trkpt lat="45.88681" lon="4.74107">
        <ele>188</ele>
        <time>2018-03-07T09:41:33Z</time>
      </trkpt>
      <trkpt lat="45.88675" lon="4.74098">
        <ele>188</ele>
        <time>2018-03-07T09:41:35Z</time>
      </trkpt>
      <trkpt lat="45.88672" lon="4.74091">
        <ele>188</ele>
        <time>2018-03-07T09:41:36Z</time>
      </trkpt>
      <trkpt lat="45.88669" lon="4.7408">
        <ele>188</ele>
        <time>2018-03-07T09:41:38Z</time>
      </trkpt>
      <trkpt lat="45.88667" lon="4.74074">
        <ele>188</ele>
        <time>2018-03-07T09:41:39Z</time>
      </trkpt>
      <trkpt lat="45.88665" lon="4.74068">
        <ele>188</ele>
        <time>2018-03-07T09:41:40Z</time>
      </trkpt>
      <trkpt lat="45.88664" lon="4.74061">
        <ele>187</ele>
        <time>2018-03-07T09:41:41Z</time>
      </trkpt>
      <trkpt lat="45.88662" lon="4.74055">
        <ele>187</ele>
        <time>2018-03-07T09:41:42Z</time>
      </trkpt>
      <trkpt lat="45.8866" lon="4.74049">
        <ele>187</ele>
        <time>2018-03-07T09:41:43Z</time>
      </trkpt>
      <trkpt lat="45.88658" lon="4.74042">
        <ele>187</ele>
        <time>2018-03-07T09:41:44Z</time>
      </trkpt>
      <trkpt lat="45.88657" lon="4.74035">
        <ele>187</ele>
        <time>2018-03-07T09:41:45Z</time>
      </trkpt>
      <trkpt lat="45.88656" lon="4.74027">
        <ele>187</ele>
        <time>2018-03-07T09:41:46Z</time>
      </trkpt>
      <trkpt lat="45.88655" lon="4.7402">
        <ele>187</ele>
        <time>2018-03-07T09:41:47Z</time>
      </trkpt>
      <trkpt lat="45.88653" lon="4.74007">
        <ele>187</ele>
        <time>2018-03-07T09:41:49Z</time>
      </trkpt>
      <trkpt lat="45.88652" lon="4.73999">
        <ele>186</ele>
        <time>2018-03-07T09:41:50Z</time>
      </trkpt>
      <trkpt lat="45.88651" lon="4.73992">
        <ele>186</ele>
        <time>2018-03-07T09:41:51Z</time>
      </trkpt>
      <trkpt lat="45.8865" lon="4.73984">
        <ele>187</ele>
        <time>2018-03-07T09:41:52Z</time>
      </trkpt>
      <trkpt lat="45.88649" lon="4.73977">
        <ele>187</ele>
        <time>2018-03-07T09:41:53Z</time>
      </trkpt>
      <trkpt lat="45.88647" lon="4.73968">
        <ele>187</ele>
        <time>2018-03-07T09:41:54Z</time>
      </trkpt>
      <trkpt lat="45.88647" lon="4.73962">
        <ele>187</ele>
        <time>2018-03-07T09:41:55Z</time>
      </trkpt>
      <trkpt lat="45.88647" lon="4.73954">
        <ele>187</ele>
        <time>2018-03-07T09:41:56Z</time>
      </trkpt>
      <trkpt lat="45.88646" lon="4.73946">
        <ele>187</ele>
        <time>2018-03-07T09:41:57Z</time>
      </trkpt>
      <trkpt lat="45.88646" lon="4.73938">
        <ele>187</ele>
        <time>2018-03-07T09:41:58Z</time>
      </trkpt>
      <trkpt lat="45.88645" lon="4.73931">
        <ele>187</ele>
        <time>2018-03-07T09:41:59Z</time>
      </trkpt>
      <trkpt lat="45.88644" lon="4.73922">
        <ele>187</ele>
        <time>2018-03-07T09:42:00Z</time>
      </trkpt>
      <trkpt lat="45.88645" lon="4.73914">
        <ele>187</ele>
        <time>2018-03-07T09:42:01Z</time>
      </trkpt>
      <trkpt lat="45.88644" lon="4.73907">
        <ele>187</ele>
        <time>2018-03-07T09:42:02Z</time>
      </trkpt>
      <trkpt lat="45.88644" lon="4.73899">
        <ele>187</ele>
        <time>2018-03-07T09:42:03Z</time>
      </trkpt>
      <trkpt lat="45.88643" lon="4.73892">
        <ele>187</ele>
        <time>2018-03-07T09:42:04Z</time>
      </trkpt>
      <trkpt lat="45.88643" lon="4.73884">
        <ele>187</ele>
        <time>2018-03-07T09:42:05Z</time>
      </trkpt>
      <trkpt lat="45.88643" lon="4.73876">
        <ele>187</ele>
        <time>2018-03-07T09:42:06Z</time>
      </trkpt>
      <trkpt lat="45.88643" lon="4.73867">
        <ele>187</ele>
        <time>2018-03-07T09:42:07Z</time>
      </trkpt>
      <trkpt lat="45.88643" lon="4.7386">
        <ele>187</ele>
        <time>2018-03-07T09:42:08Z</time>
      </trkpt>
      <trkpt lat="45.88643" lon="4.73853">
        <ele>187</ele>
        <time>2018-03-07T09:42:09Z</time>
      </trkpt>
      <trkpt lat="45.88643" lon="4.73846">
        <ele>187</ele>
        <time>2018-03-07T09:42:10Z</time>
      </trkpt>
      <trkpt lat="45.88644" lon="4.73838">
        <ele>187</ele>
        <time>2018-03-07T09:42:11Z</time>
      </trkpt>
      <trkpt lat="45.88644" lon="4.73831">
        <ele>187</ele>
        <time>2018-03-07T09:42:12Z</time>
      </trkpt>
      <trkpt lat="45.88643" lon="4.73822">
        <ele>187</ele>
        <time>2018-03-07T09:42:13Z</time>
      </trkpt>
      <trkpt lat="45.88643" lon="4.73815">
        <ele>187</ele>
        <time>2018-03-07T09:42:14Z</time>
      </trkpt>
      <trkpt lat="45.88643" lon="4.73808">
        <ele>187</ele>
        <time>2018-03-07T09:42:15Z</time>
      </trkpt>
      <trkpt lat="45.88643" lon="4.73801">
        <ele>187</ele>
        <time>2018-03-07T09:42:16Z</time>
      </trkpt>
      <trkpt lat="45.88644" lon="4.73794">
        <ele>187</ele>
        <time>2018-03-07T09:42:17Z</time>
      </trkpt>
      <trkpt lat="45.88644" lon="4.73786">
        <ele>187</ele>
        <time>2018-03-07T09:42:18Z</time>
      </trkpt>
      <trkpt lat="45.88645" lon="4.73773">
        <ele>187</ele>
        <time>2018-03-07T09:42:20Z</time>
      </trkpt>
      <trkpt lat="45.88647" lon="4.73767">
        <ele>187</ele>
        <time>2018-03-07T09:42:21Z</time>
      </trkpt>
      <trkpt lat="45.88647" lon="4.73754">
        <ele>187</ele>
        <time>2018-03-07T09:42:23Z</time>
      </trkpt>
      <trkpt lat="45.88648" lon="4.7375">
        <ele>187</ele>
        <time>2018-03-07T09:42:24Z</time>
      </trkpt>
      <trkpt lat="45.88646" lon="4.7374">
        <ele>187</ele>
        <time>2018-03-07T09:42:26Z</time>
      </trkpt>
      <trkpt lat="45.88646" lon="4.73733">
        <ele>186</ele>
        <time>2018-03-07T09:42:27Z</time>
      </trkpt>
      <trkpt lat="45.88646" lon="4.73722">
        <ele>186</ele>
        <time>2018-03-07T09:42:30Z</time>
      </trkpt>
      <trkpt lat="45.88647" lon="4.73718">
        <ele>186</ele>
        <time>2018-03-07T09:42:31Z</time>
      </trkpt>
      <trkpt lat="45.88648" lon="4.73706">
        <ele>186</ele>
        <time>2018-03-07T09:42:34Z</time>
      </trkpt>
      <trkpt lat="45.88648" lon="4.73702">
        <ele>186</ele>
        <time>2018-03-07T09:42:35Z</time>
      </trkpt>
      <trkpt lat="45.88648" lon="4.73692">
        <ele>186</ele>
        <time>2018-03-07T09:42:37Z</time>
      </trkpt>
      <trkpt lat="45.88648" lon="4.73687">
        <ele>186</ele>
        <time>2018-03-07T09:42:38Z</time>
      </trkpt>
      <trkpt lat="45.88648" lon="4.73674">
        <ele>186</ele>
        <time>2018-03-07T09:42:39Z</time>
      </trkpt>
      <trkpt lat="45.88648" lon="4.73662">
        <ele>186</ele>
        <time>2018-03-07T09:42:41Z</time>
      </trkpt>
      <trkpt lat="45.88648" lon="4.73656">
        <ele>186</ele>
        <time>2018-03-07T09:42:42Z</time>
      </trkpt>
      <trkpt lat="45.88648" lon="4.7365">
        <ele>186</ele>
        <time>2018-03-07T09:42:43Z</time>
      </trkpt>
      <trkpt lat="45.88648" lon="4.73643">
        <ele>186</ele>
        <time>2018-03-07T09:42:44Z</time>
      </trkpt>
      <trkpt lat="45.88648" lon="4.7363">
        <ele>186</ele>
        <time>2018-03-07T09:42:46Z</time>
      </trkpt>
      <trkpt lat="45.88649" lon="4.73624">
        <ele>186</ele>
        <time>2018-03-07T09:42:47Z</time>
      </trkpt>
      <trkpt lat="45.88649" lon="4.73617">
        <ele>186</ele>
        <time>2018-03-07T09:42:48Z</time>
      </trkpt>
      <trkpt lat="45.8865" lon="4.7361">
        <ele>186</ele>
        <time>2018-03-07T09:42:49Z</time>
      </trkpt>
      <trkpt lat="45.8865" lon="4.73603">
        <ele>186</ele>
        <time>2018-03-07T09:42:50Z</time>
      </trkpt>
      <trkpt lat="45.88651" lon="4.73596">
        <ele>185</ele>
        <time>2018-03-07T09:42:51Z</time>
      </trkpt>
      <trkpt lat="45.88651" lon="4.73587">
        <ele>185</ele>
        <time>2018-03-07T09:42:52Z</time>
      </trkpt>
      <trkpt lat="45.8865" lon="4.7358">
        <ele>185</ele>
        <time>2018-03-07T09:42:53Z</time>
      </trkpt>
      <trkpt lat="45.8865" lon="4.73571">
        <ele>185</ele>
        <time>2018-03-07T09:42:54Z</time>
      </trkpt>
      <trkpt lat="45.8865" lon="4.73564">
        <ele>185</ele>
        <time>2018-03-07T09:42:55Z</time>
      </trkpt>
      <trkpt lat="45.88651" lon="4.73555">
        <ele>185</ele>
        <time>2018-03-07T09:42:56Z</time>
      </trkpt>
      <trkpt lat="45.88652" lon="4.73544">
        <ele>185</ele>
        <time>2018-03-07T09:42:57Z</time>
      </trkpt>
      <trkpt lat="45.88652" lon="4.73534">
        <ele>185</ele>
        <time>2018-03-07T09:42:58Z</time>
      </trkpt>
      <trkpt lat="45.88653" lon="4.73525">
        <ele>185</ele>
        <time>2018-03-07T09:42:59Z</time>
      </trkpt>
      <trkpt lat="45.88654" lon="4.73515">
        <ele>185</ele>
        <time>2018-03-07T09:43:00Z</time>
      </trkpt>
      <trkpt lat="45.88656" lon="4.73506">
        <ele>184</ele>
        <time>2018-03-07T09:43:01Z</time>
      </trkpt>
      <trkpt lat="45.88657" lon="4.73496">
        <ele>184</ele>
        <time>2018-03-07T09:43:02Z</time>
      </trkpt>
      <trkpt lat="45.88657" lon="4.73488">
        <ele>184</ele>
        <time>2018-03-07T09:43:03Z</time>
      </trkpt>
      <trkpt lat="45.88656" lon="4.7348">
        <ele>184</ele>
        <time>2018-03-07T09:43:04Z</time>
      </trkpt>
      <trkpt lat="45.88653" lon="4.73473">
        <ele>184</ele>
        <time>2018-03-07T09:43:05Z</time>
      </trkpt>
      <trkpt lat="45.88649" lon="4.73469">
        <ele>184</ele>
        <time>2018-03-07T09:43:06Z</time>
      </trkpt>
      <trkpt lat="45.88644" lon="4.73468">
        <ele>184</ele>
        <time>2018-03-07T09:43:07Z</time>
      </trkpt>
      <trkpt lat="45.88638" lon="4.73461">
        <ele>184</ele>
        <time>2018-03-07T09:43:09Z</time>
      </trkpt>
      <trkpt lat="45.88636" lon="4.73455">
        <ele>184</ele>
        <time>2018-03-07T09:43:10Z</time>
      </trkpt>
      <trkpt lat="45.88635" lon="4.73449">
        <ele>184</ele>
        <time>2018-03-07T09:43:11Z</time>
      </trkpt>
      <trkpt lat="45.88635" lon="4.73442">
        <ele>184</ele>
        <time>2018-03-07T09:43:12Z</time>
      </trkpt>
      <trkpt lat="45.88636" lon="4.73434">
        <ele>184</ele>
        <time>2018-03-07T09:43:13Z</time>
      </trkpt>
      <trkpt lat="45.88637" lon="4.73427">
        <ele>184</ele>
        <time>2018-03-07T09:43:14Z</time>
      </trkpt>
      <trkpt lat="45.88637" lon="4.73419">
        <ele>184</ele>
        <time>2018-03-07T09:43:15Z</time>
      </trkpt>
      <trkpt lat="45.88637" lon="4.73411">
        <ele>184</ele>
        <time>2018-03-07T09:43:16Z</time>
      </trkpt>
      <trkpt lat="45.88636" lon="4.73403">
        <ele>184</ele>
        <time>2018-03-07T09:43:17Z</time>
      </trkpt>
      <trkpt lat="45.88634" lon="4.73396">
        <ele>184</ele>
        <time>2018-03-07T09:43:18Z</time>
      </trkpt>
      <trkpt lat="45.88631" lon="4.7339">
        <ele>183</ele>
        <time>2018-03-07T09:43:19Z</time>
      </trkpt>
      <trkpt lat="45.88626" lon="4.73385">
        <ele>183</ele>
        <time>2018-03-07T09:43:20Z</time>
      </trkpt>
      <trkpt lat="45.88621" lon="4.73384">
        <ele>183</ele>
        <time>2018-03-07T09:43:21Z</time>
      </trkpt>
      <trkpt lat="45.88616" lon="4.73384">
        <ele>183</ele>
        <time>2018-03-07T09:43:22Z</time>
      </trkpt>
      <trkpt lat="45.8861" lon="4.73385">
        <ele>183</ele>
        <time>2018-03-07T09:43:23Z</time>
      </trkpt>
      <trkpt lat="45.88605" lon="4.73386">
        <ele>183</ele>
        <time>2018-03-07T09:43:24Z</time>
      </trkpt>
      <trkpt lat="45.886" lon="4.73388">
        <ele>183</ele>
        <time>2018-03-07T09:43:25Z</time>
      </trkpt>
      <trkpt lat="45.88594" lon="4.7339">
        <ele>183</ele>
        <time>2018-03-07T09:43:26Z</time>
      </trkpt>
      <trkpt lat="45.8859" lon="4.73392">
        <ele>183</ele>
        <time>2018-03-07T09:43:27Z</time>
      </trkpt>
      <trkpt lat="45.88585" lon="4.73393">
        <ele>183</ele>
        <time>2018-03-07T09:43:28Z</time>
      </trkpt>
      <trkpt lat="45.88577" lon="4.73395">
        <ele>183</ele>
        <time>2018-03-07T09:43:30Z</time>
      </trkpt>
      <trkpt lat="45.88571" lon="4.73396">
        <ele>183</ele>
        <time>2018-03-07T09:43:31Z</time>
      </trkpt>
      <trkpt lat="45.88566" lon="4.73397">
        <ele>183</ele>
        <time>2018-03-07T09:43:32Z</time>
      </trkpt>
      <trkpt lat="45.88561" lon="4.73398">
        <ele>183</ele>
        <time>2018-03-07T09:43:33Z</time>
      </trkpt>
      <trkpt lat="45.88556" lon="4.734">
        <ele>183</ele>
        <time>2018-03-07T09:43:34Z</time>
      </trkpt>
      <trkpt lat="45.88551" lon="4.73402">
        <ele>183</ele>
        <time>2018-03-07T09:43:35Z</time>
      </trkpt>
      <trkpt lat="45.88546" lon="4.73404">
        <ele>183</ele>
        <time>2018-03-07T09:43:36Z</time>
      </trkpt>
      <trkpt lat="45.88541" lon="4.73405">
        <ele>183</ele>
        <time>2018-03-07T09:43:37Z</time>
      </trkpt>
      <trkpt lat="45.88536" lon="4.73406">
        <ele>183</ele>
        <time>2018-03-07T09:43:38Z</time>
      </trkpt>
      <trkpt lat="45.88532" lon="4.73408">
        <ele>183</ele>
        <time>2018-03-07T09:43:39Z</time>
      </trkpt>
      <trkpt lat="45.88526" lon="4.7341">
        <ele>183</ele>
        <time>2018-03-07T09:43:40Z</time>
      </trkpt>
      <trkpt lat="45.88521" lon="4.73412">
        <ele>184</ele>
        <time>2018-03-07T09:43:41Z</time>
      </trkpt>
      <trkpt lat="45.88516" lon="4.73414">
        <ele>184</ele>
        <time>2018-03-07T09:43:42Z</time>
      </trkpt>
      <trkpt lat="45.8851" lon="4.73416">
        <ele>184</ele>
        <time>2018-03-07T09:43:43Z</time>
      </trkpt>
      <trkpt lat="45.88505" lon="4.73417">
        <ele>184</ele>
        <time>2018-03-07T09:43:44Z</time>
      </trkpt>
      <trkpt lat="45.885" lon="4.73419">
        <ele>184</ele>
        <time>2018-03-07T09:43:45Z</time>
      </trkpt>
      <trkpt lat="45.88494" lon="4.73421">
        <ele>184</ele>
        <time>2018-03-07T09:43:46Z</time>
      </trkpt>
      <trkpt lat="45.88489" lon="4.73422">
        <ele>184</ele>
        <time>2018-03-07T09:43:47Z</time>
      </trkpt>
      <trkpt lat="45.8848" lon="4.73424">
        <ele>184</ele>
        <time>2018-03-07T09:43:49Z</time>
      </trkpt>
      <trkpt lat="45.88474" lon="4.73425">
        <ele>184</ele>
        <time>2018-03-07T09:43:50Z</time>
      </trkpt>
      <trkpt lat="45.88469" lon="4.73425">
        <ele>184</ele>
        <time>2018-03-07T09:43:51Z</time>
      </trkpt>
      <trkpt lat="45.88464" lon="4.73426">
        <ele>184</ele>
        <time>2018-03-07T09:43:52Z</time>
      </trkpt>
      <trkpt lat="45.88458" lon="4.73429">
        <ele>184</ele>
        <time>2018-03-07T09:43:53Z</time>
      </trkpt>
      <trkpt lat="45.88454" lon="4.7343">
        <ele>184</ele>
        <time>2018-03-07T09:43:54Z</time>
      </trkpt>
      <trkpt lat="45.88449" lon="4.73431">
        <ele>184</ele>
        <time>2018-03-07T09:43:55Z</time>
      </trkpt>
      <trkpt lat="45.88444" lon="4.73433">
        <ele>184</ele>
        <time>2018-03-07T09:43:56Z</time>
      </trkpt>
      <trkpt lat="45.88439" lon="4.73435">
        <ele>184</ele>
        <time>2018-03-07T09:43:57Z</time>
      </trkpt>
      <trkpt lat="45.88435" lon="4.73435">
        <ele>184</ele>
        <time>2018-03-07T09:43:58Z</time>
      </trkpt>
      <trkpt lat="45.88431" lon="4.73436">
        <ele>184</ele>
        <time>2018-03-07T09:43:59Z</time>
      </trkpt>
      <trkpt lat="45.88426" lon="4.73438">
        <ele>184</ele>
        <time>2018-03-07T09:44:00Z</time>
      </trkpt>
      <trkpt lat="45.88421" lon="4.73439">
        <ele>184</ele>
        <time>2018-03-07T09:44:01Z</time>
      </trkpt>
      <trkpt lat="45.88416" lon="4.73441">
        <ele>184</ele>
        <time>2018-03-07T09:44:02Z</time>
      </trkpt>
      <trkpt lat="45.88411" lon="4.73442">
        <ele>184</ele>
        <time>2018-03-07T09:44:03Z</time>
      </trkpt>
      <trkpt lat="45.88405" lon="4.73444">
        <ele>184</ele>
        <time>2018-03-07T09:44:04Z</time>
      </trkpt>
      <trkpt lat="45.88399" lon="4.73446">
        <ele>184</ele>
        <time>2018-03-07T09:44:05Z</time>
      </trkpt>
      <trkpt lat="45.88394" lon="4.73447">
        <ele>184</ele>
        <time>2018-03-07T09:44:06Z</time>
      </trkpt>
      <trkpt lat="45.88389" lon="4.73449">
        <ele>184</ele>
        <time>2018-03-07T09:44:07Z</time>
      </trkpt>
      <trkpt lat="45.88384" lon="4.73451">
        <ele>184</ele>
        <time>2018-03-07T09:44:08Z</time>
      </trkpt>
      <trkpt lat="45.88379" lon="4.73453">
        <ele>184</ele>
        <time>2018-03-07T09:44:09Z</time>
      </trkpt>
      <trkpt lat="45.88375" lon="4.73454">
        <ele>184</ele>
        <time>2018-03-07T09:44:10Z</time>
      </trkpt>
      <trkpt lat="45.8837" lon="4.73455">
        <ele>184</ele>
        <time>2018-03-07T09:44:11Z</time>
      </trkpt>
      <trkpt lat="45.88366" lon="4.73457">
        <ele>184</ele>
        <time>2018-03-07T09:44:12Z</time>
      </trkpt>
      <trkpt lat="45.88361" lon="4.73458">
        <ele>184</ele>
        <time>2018-03-07T09:44:13Z</time>
      </trkpt>
      <trkpt lat="45.88356" lon="4.73459">
        <ele>184</ele>
        <time>2018-03-07T09:44:14Z</time>
      </trkpt>
      <trkpt lat="45.88348" lon="4.73461">
        <ele>184</ele>
        <time>2018-03-07T09:44:16Z</time>
      </trkpt>
      <trkpt lat="45.88343" lon="4.73463">
        <ele>184</ele>
        <time>2018-03-07T09:44:17Z</time>
      </trkpt>
      <trkpt lat="45.88338" lon="4.73464">
        <ele>184</ele>
        <time>2018-03-07T09:44:18Z</time>
      </trkpt>
      <trkpt lat="45.88334" lon="4.73465">
        <ele>184</ele>
        <time>2018-03-07T09:44:19Z</time>
      </trkpt>
      <trkpt lat="45.88329" lon="4.73466">
        <ele>184</ele>
        <time>2018-03-07T09:44:20Z</time>
      </trkpt>
      <trkpt lat="45.88323" lon="4.73468">
        <ele>184</ele>
        <time>2018-03-07T09:44:21Z</time>
      </trkpt>
      <trkpt lat="45.88318" lon="4.7347">
        <ele>184</ele>
        <time>2018-03-07T09:44:22Z</time>
      </trkpt>
      <trkpt lat="45.88313" lon="4.73471">
        <ele>184</ele>
        <time>2018-03-07T09:44:23Z</time>
      </trkpt>
      <trkpt lat="45.88309" lon="4.73472">
        <ele>184</ele>
        <time>2018-03-07T09:44:24Z</time>
      </trkpt>
      <trkpt lat="45.88304" lon="4.73476">
        <ele>184</ele>
        <time>2018-03-07T09:44:25Z</time>
      </trkpt>
      <trkpt lat="45.88299" lon="4.73478">
        <ele>184</ele>
        <time>2018-03-07T09:44:26Z</time>
      </trkpt>
      <trkpt lat="45.88295" lon="4.73481">
        <ele>184</ele>
        <time>2018-03-07T09:44:27Z</time>
      </trkpt>
      <trkpt lat="45.8829" lon="4.73484">
        <ele>184</ele>
        <time>2018-03-07T09:44:28Z</time>
      </trkpt>
      <trkpt lat="45.88285" lon="4.73487">
        <ele>184</ele>
        <time>2018-03-07T09:44:29Z</time>
      </trkpt>
      <trkpt lat="45.88281" lon="4.7349">
        <ele>184</ele>
        <time>2018-03-07T09:44:30Z</time>
      </trkpt>
      <trkpt lat="45.88277" lon="4.73493">
        <ele>184</ele>
        <time>2018-03-07T09:44:31Z</time>
      </trkpt>
      <trkpt lat="45.88272" lon="4.73496">
        <ele>184</ele>
        <time>2018-03-07T09:44:32Z</time>
      </trkpt>
      <trkpt lat="45.88268" lon="4.73499">
        <ele>184</ele>
        <time>2018-03-07T09:44:33Z</time>
      </trkpt>
      <trkpt lat="45.88263" lon="4.73502">
        <ele>185</ele>
        <time>2018-03-07T09:44:34Z</time>
      </trkpt>
      <trkpt lat="45.88259" lon="4.73505">
        <ele>185</ele>
        <time>2018-03-07T09:44:35Z</time>
      </trkpt>
      <trkpt lat="45.88254" lon="4.73508">
        <ele>185</ele>
        <time>2018-03-07T09:44:36Z</time>
      </trkpt>
      <trkpt lat="45.8825" lon="4.7351">
        <ele>185</ele>
        <time>2018-03-07T09:44:37Z</time>
      </trkpt>
      <trkpt lat="45.88245" lon="4.73513">
        <ele>185</ele>
        <time>2018-03-07T09:44:38Z</time>
      </trkpt>
      <trkpt lat="45.88241" lon="4.73516">
        <ele>185</ele>
        <time>2018-03-07T09:44:39Z</time>
      </trkpt>
      <trkpt lat="45.88236" lon="4.73519">
        <ele>185</ele>
        <time>2018-03-07T09:44:40Z</time>
      </trkpt>
      <trkpt lat="45.88232" lon="4.73521">
        <ele>185</ele>
        <time>2018-03-07T09:44:41Z</time>
      </trkpt>
      <trkpt lat="45.88227" lon="4.73524">
        <ele>185</ele>
        <time>2018-03-07T09:44:42Z</time>
      </trkpt>
      <trkpt lat="45.88222" lon="4.73527">
        <ele>185</ele>
        <time>2018-03-07T09:44:43Z</time>
      </trkpt>
      <trkpt lat="45.88217" lon="4.7353">
        <ele>185</ele>
        <time>2018-03-07T09:44:44Z</time>
      </trkpt>
      <trkpt lat="45.88213" lon="4.73533">
        <ele>185</ele>
        <time>2018-03-07T09:44:45Z</time>
      </trkpt>
      <trkpt lat="45.88208" lon="4.73537">
        <ele>186</ele>
        <time>2018-03-07T09:44:46Z</time>
      </trkpt>
      <trkpt lat="45.88204" lon="4.73539">
        <ele>186</ele>
        <time>2018-03-07T09:44:47Z</time>
      </trkpt>
      <trkpt lat="45.88199" lon="4.73542">
        <ele>186</ele>
        <time>2018-03-07T09:44:48Z</time>
      </trkpt>
      <trkpt lat="45.88195" lon="4.73544">
        <ele>186</ele>
        <time>2018-03-07T09:44:49Z</time>
      </trkpt>
      <trkpt lat="45.8819" lon="4.73547">
        <ele>186</ele>
        <time>2018-03-07T09:44:50Z</time>
      </trkpt>
      <trkpt lat="45.88186" lon="4.7355">
        <ele>186</ele>
        <time>2018-03-07T09:44:51Z</time>
      </trkpt>
      <trkpt lat="45.88178" lon="4.73556">
        <ele>186</ele>
        <time>2018-03-07T09:44:53Z</time>
      </trkpt>
      <trkpt lat="45.88172" lon="4.73558">
        <ele>186</ele>
        <time>2018-03-07T09:44:54Z</time>
      </trkpt>
      <trkpt lat="45.88166" lon="4.73561">
        <ele>186</ele>
        <time>2018-03-07T09:44:55Z</time>
      </trkpt>
      <trkpt lat="45.88162" lon="4.73565">
        <ele>186</ele>
        <time>2018-03-07T09:44:56Z</time>
      </trkpt>
      <trkpt lat="45.88158" lon="4.73568">
        <ele>186</ele>
        <time>2018-03-07T09:44:57Z</time>
      </trkpt>
      <trkpt lat="45.88152" lon="4.73571">
        <ele>186</ele>
        <time>2018-03-07T09:44:58Z</time>
      </trkpt>
      <trkpt lat="45.88147" lon="4.73574">
        <ele>186</ele>
        <time>2018-03-07T09:44:59Z</time>
      </trkpt>
      <trkpt lat="45.88143" lon="4.73576">
        <ele>186</ele>
        <time>2018-03-07T09:45:00Z</time>
      </trkpt>
      <trkpt lat="45.88138" lon="4.73578">
        <ele>186</ele>
        <time>2018-03-07T09:45:01Z</time>
      </trkpt>
      <trkpt lat="45.88134" lon="4.73581">
        <ele>186</ele>
        <time>2018-03-07T09:45:02Z</time>
      </trkpt>
      <trkpt lat="45.88129" lon="4.73583">
        <ele>186</ele>
        <time>2018-03-07T09:45:03Z</time>
      </trkpt>
      <trkpt lat="45.88124" lon="4.73585">
        <ele>187</ele>
        <time>2018-03-07T09:45:04Z</time>
      </trkpt>
      <trkpt lat="45.88119" lon="4.73588">
        <ele>187</ele>
        <time>2018-03-07T09:45:05Z</time>
      </trkpt>
      <trkpt lat="45.88115" lon="4.73592">
        <ele>187</ele>
        <time>2018-03-07T09:45:06Z</time>
      </trkpt>
      <trkpt lat="45.88111" lon="4.73596">
        <ele>187</ele>
        <time>2018-03-07T09:45:07Z</time>
      </trkpt>
      <trkpt lat="45.88107" lon="4.736">
        <ele>187</ele>
        <time>2018-03-07T09:45:08Z</time>
      </trkpt>
      <trkpt lat="45.88102" lon="4.73603">
        <ele>188</ele>
        <time>2018-03-07T09:45:09Z</time>
      </trkpt>
      <trkpt lat="45.88098" lon="4.73606">
        <ele>188</ele>
        <time>2018-03-07T09:45:10Z</time>
      </trkpt>
      <trkpt lat="45.88094" lon="4.7361">
        <ele>188</ele>
        <time>2018-03-07T09:45:11Z</time>
      </trkpt>
      <trkpt lat="45.88089" lon="4.73613">
        <ele>188</ele>
        <time>2018-03-07T09:45:12Z</time>
      </trkpt>
      <trkpt lat="45.88084" lon="4.73616">
        <ele>188</ele>
        <time>2018-03-07T09:45:13Z</time>
      </trkpt>
      <trkpt lat="45.8808" lon="4.73619">
        <ele>189</ele>
        <time>2018-03-07T09:45:14Z</time>
      </trkpt>
      <trkpt lat="45.88076" lon="4.73622">
        <ele>189</ele>
        <time>2018-03-07T09:45:15Z</time>
      </trkpt>
      <trkpt lat="45.88072" lon="4.73625">
        <ele>189</ele>
        <time>2018-03-07T09:45:16Z</time>
      </trkpt>
      <trkpt lat="45.88067" lon="4.73628">
        <ele>189</ele>
        <time>2018-03-07T09:45:17Z</time>
      </trkpt>
      <trkpt lat="45.88063" lon="4.73631">
        <ele>189</ele>
        <time>2018-03-07T09:45:18Z</time>
      </trkpt>
      <trkpt lat="45.88058" lon="4.73634">
        <ele>189</ele>
        <time>2018-03-07T09:45:19Z</time>
      </trkpt>
      <trkpt lat="45.88053" lon="4.73637">
        <ele>189</ele>
        <time>2018-03-07T09:45:20Z</time>
      </trkpt>
      <trkpt lat="45.8805" lon="4.7364">
        <ele>189</ele>
        <time>2018-03-07T09:45:21Z</time>
      </trkpt>
      <trkpt lat="45.88045" lon="4.73643">
        <ele>189</ele>
        <time>2018-03-07T09:45:22Z</time>
      </trkpt>
      <trkpt lat="45.88037" lon="4.73649">
        <ele>189</ele>
        <time>2018-03-07T09:45:24Z</time>
      </trkpt>
      <trkpt lat="45.88032" lon="4.73652">
        <ele>189</ele>
        <time>2018-03-07T09:45:25Z</time>
      </trkpt>
      <trkpt lat="45.88027" lon="4.73654">
        <ele>189</ele>
        <time>2018-03-07T09:45:26Z</time>
      </trkpt>
      <trkpt lat="45.88022" lon="4.73656">
        <ele>189</ele>
        <time>2018-03-07T09:45:27Z</time>
      </trkpt>
      <trkpt lat="45.88013" lon="4.73656">
        <ele>189</ele>
        <time>2018-03-07T09:45:29Z</time>
      </trkpt>
      <trkpt lat="45.88008" lon="4.73654">
        <ele>189</ele>
        <time>2018-03-07T09:45:30Z</time>
      </trkpt>
      <trkpt lat="45.88003" lon="4.73652">
        <ele>189</ele>
        <time>2018-03-07T09:45:31Z</time>
      </trkpt>
      <trkpt lat="45.87998" lon="4.73651">
        <ele>190</ele>
        <time>2018-03-07T09:45:32Z</time>
      </trkpt>
      <trkpt lat="45.87994" lon="4.73649">
        <ele>190</ele>
        <time>2018-03-07T09:45:33Z</time>
      </trkpt>
      <trkpt lat="45.87989" lon="4.73647">
        <ele>190</ele>
        <time>2018-03-07T09:45:34Z</time>
      </trkpt>
      <trkpt lat="45.87984" lon="4.73646">
        <ele>190</ele>
        <time>2018-03-07T09:45:35Z</time>
      </trkpt>
      <trkpt lat="45.87979" lon="4.73644">
        <ele>189</ele>
        <time>2018-03-07T09:45:36Z</time>
      </trkpt>
      <trkpt lat="45.87974" lon="4.73642">
        <ele>189</ele>
        <time>2018-03-07T09:45:37Z</time>
      </trkpt>
      <trkpt lat="45.87969" lon="4.7364">
        <ele>189</ele>
        <time>2018-03-07T09:45:38Z</time>
      </trkpt>
      <trkpt lat="45.87964" lon="4.73637">
        <ele>189</ele>
        <time>2018-03-07T09:45:39Z</time>
      </trkpt>
      <trkpt lat="45.87958" lon="4.73636">
        <ele>189</ele>
        <time>2018-03-07T09:45:40Z</time>
      </trkpt>
      <trkpt lat="45.87953" lon="4.73635">
        <ele>189</ele>
        <time>2018-03-07T09:45:41Z</time>
      </trkpt>
      <trkpt lat="45.87947" lon="4.73635">
        <ele>189</ele>
        <time>2018-03-07T09:45:42Z</time>
      </trkpt>
      <trkpt lat="45.87942" lon="4.73634">
        <ele>189</ele>
        <time>2018-03-07T09:45:43Z</time>
      </trkpt>
      <trkpt lat="45.87937" lon="4.73632">
        <ele>189</ele>
        <time>2018-03-07T09:45:44Z</time>
      </trkpt>
      <trkpt lat="45.87932" lon="4.73631">
        <ele>189</ele>
        <time>2018-03-07T09:45:45Z</time>
      </trkpt>
      <trkpt lat="45.87927" lon="4.73629">
        <ele>189</ele>
        <time>2018-03-07T09:45:46Z</time>
      </trkpt>
      <trkpt lat="45.87921" lon="4.73628">
        <ele>189</ele>
        <time>2018-03-07T09:45:47Z</time>
      </trkpt>
      <trkpt lat="45.87915" lon="4.73627">
        <ele>190</ele>
        <time>2018-03-07T09:45:48Z</time>
      </trkpt>
      <trkpt lat="45.8791" lon="4.73625">
        <ele>190</ele>
        <time>2018-03-07T09:45:49Z</time>
      </trkpt>
      <trkpt lat="45.87905" lon="4.73624">
        <ele>190</ele>
        <time>2018-03-07T09:45:50Z</time>
      </trkpt>
      <trkpt lat="45.879" lon="4.73622">
        <ele>190</ele>
        <time>2018-03-07T09:45:51Z</time>
      </trkpt>
      <trkpt lat="45.87895" lon="4.7362">
        <ele>190</ele>
        <time>2018-03-07T09:45:52Z</time>
      </trkpt>
      <trkpt lat="45.87889" lon="4.73619">
        <ele>190</ele>
        <time>2018-03-07T09:45:53Z</time>
      </trkpt>
      <trkpt lat="45.87884" lon="4.73617">
        <ele>190</ele>
        <time>2018-03-07T09:45:54Z</time>
      </trkpt>
      <trkpt lat="45.87878" lon="4.73617">
        <ele>190</ele>
        <time>2018-03-07T09:45:55Z</time>
      </trkpt>
      <trkpt lat="45.87873" lon="4.73616">
        <ele>190</ele>
        <time>2018-03-07T09:45:56Z</time>
      </trkpt>
      <trkpt lat="45.87868" lon="4.73617">
        <ele>190</ele>
        <time>2018-03-07T09:45:57Z</time>
      </trkpt>
      <trkpt lat="45.87864" lon="4.73619">
        <ele>190</ele>
        <time>2018-03-07T09:45:58Z</time>
      </trkpt>
      <trkpt lat="45.87859" lon="4.73622">
        <ele>190</ele>
        <time>2018-03-07T09:45:59Z</time>
      </trkpt>
      <trkpt lat="45.87854" lon="4.73625">
        <ele>190</ele>
        <time>2018-03-07T09:46:00Z</time>
      </trkpt>
      <trkpt lat="45.8785" lon="4.73629">
        <ele>191</ele>
        <time>2018-03-07T09:46:01Z</time>
      </trkpt>
      <trkpt lat="45.87846" lon="4.73633">
        <ele>191</ele>
        <time>2018-03-07T09:46:02Z</time>
      </trkpt>
      <trkpt lat="45.87841" lon="4.73635">
        <ele>191</ele>
        <time>2018-03-07T09:46:03Z</time>
      </trkpt>
      <trkpt lat="45.87836" lon="4.73631">
        <ele>191</ele>
        <time>2018-03-07T09:46:04Z</time>
      </trkpt>
      <trkpt lat="45.8783" lon="4.73622">
        <ele>190</ele>
        <time>2018-03-07T09:46:06Z</time>
      </trkpt>
      <trkpt lat="45.87828" lon="4.73617">
        <ele>190</ele>
        <time>2018-03-07T09:46:07Z</time>
      </trkpt>
      <trkpt lat="45.87825" lon="4.73611">
        <ele>190</ele>
        <time>2018-03-07T09:46:08Z</time>
      </trkpt>
      <trkpt lat="45.87823" lon="4.73606">
        <ele>190</ele>
        <time>2018-03-07T09:46:09Z</time>
      </trkpt>
      <trkpt lat="45.87821" lon="4.736">
        <ele>190</ele>
        <time>2018-03-07T09:46:10Z</time>
      </trkpt>
      <trkpt lat="45.87818" lon="4.73594">
        <ele>190</ele>
        <time>2018-03-07T09:46:11Z</time>
      </trkpt>
      <trkpt lat="45.87814" lon="4.73588">
        <ele>190</ele>
        <time>2018-03-07T09:46:12Z</time>
      </trkpt>
      <trkpt lat="45.87812" lon="4.73582">
        <ele>189</ele>
        <time>2018-03-07T09:46:13Z</time>
      </trkpt>
      <trkpt lat="45.87808" lon="4.73572">
        <ele>189</ele>
        <time>2018-03-07T09:46:15Z</time>
      </trkpt>
      <trkpt lat="45.87805" lon="4.73565">
        <ele>189</ele>
        <time>2018-03-07T09:46:16Z</time>
      </trkpt>
      <trkpt lat="45.87803" lon="4.73559">
        <ele>189</ele>
        <time>2018-03-07T09:46:17Z</time>
      </trkpt>
      <trkpt lat="45.878" lon="4.73552">
        <ele>189</ele>
        <time>2018-03-07T09:46:18Z</time>
      </trkpt>
      <trkpt lat="45.87797" lon="4.73547">
        <ele>189</ele>
        <time>2018-03-07T09:46:19Z</time>
      </trkpt>
      <trkpt lat="45.87794" lon="4.73541">
        <ele>189</ele>
        <time>2018-03-07T09:46:20Z</time>
      </trkpt>
      <trkpt lat="45.87791" lon="4.73535">
        <ele>189</ele>
        <time>2018-03-07T09:46:21Z</time>
      </trkpt>
      <trkpt lat="45.87787" lon="4.73529">
        <ele>189</ele>
        <time>2018-03-07T09:46:22Z</time>
      </trkpt>
      <trkpt lat="45.87785" lon="4.73523">
        <ele>189</ele>
        <time>2018-03-07T09:46:23Z</time>
      </trkpt>
      <trkpt lat="45.87782" lon="4.73517">
        <ele>189</ele>
        <time>2018-03-07T09:46:24Z</time>
      </trkpt>
      <trkpt lat="45.87779" lon="4.7351">
        <ele>189</ele>
        <time>2018-03-07T09:46:25Z</time>
      </trkpt>
      <trkpt lat="45.87776" lon="4.73504">
        <ele>189</ele>
        <time>2018-03-07T09:46:26Z</time>
      </trkpt>
      <trkpt lat="45.87774" lon="4.73499">
        <ele>188</ele>
        <time>2018-03-07T09:46:27Z</time>
      </trkpt>
      <trkpt lat="45.87771" lon="4.73493">
        <ele>189</ele>
        <time>2018-03-07T09:46:28Z</time>
      </trkpt>
      <trkpt lat="45.87768" lon="4.73487">
        <ele>189</ele>
        <time>2018-03-07T09:46:29Z</time>
      </trkpt>
      <trkpt lat="45.87766" lon="4.73481">
        <ele>188</ele>
        <time>2018-03-07T09:46:30Z</time>
      </trkpt>
      <trkpt lat="45.87763" lon="4.73475">
        <ele>188</ele>
        <time>2018-03-07T09:46:31Z</time>
      </trkpt>
      <trkpt lat="45.87761" lon="4.7347">
        <ele>188</ele>
        <time>2018-03-07T09:46:32Z</time>
      </trkpt>
      <trkpt lat="45.87758" lon="4.73464">
        <ele>188</ele>
        <time>2018-03-07T09:46:33Z</time>
      </trkpt>
      <trkpt lat="45.87756" lon="4.73458">
        <ele>188</ele>
        <time>2018-03-07T09:46:34Z</time>
      </trkpt>
      <trkpt lat="45.87753" lon="4.73452">
        <ele>188</ele>
        <time>2018-03-07T09:46:35Z</time>
      </trkpt>
      <trkpt lat="45.8775" lon="4.73445">
        <ele>189</ele>
        <time>2018-03-07T09:46:36Z</time>
      </trkpt>
      <trkpt lat="45.87747" lon="4.7344">
        <ele>189</ele>
        <time>2018-03-07T09:46:37Z</time>
      </trkpt>
      <trkpt lat="45.87744" lon="4.73434">
        <ele>188</ele>
        <time>2018-03-07T09:46:38Z</time>
      </trkpt>
      <trkpt lat="45.87742" lon="4.73427">
        <ele>188</ele>
        <time>2018-03-07T09:46:39Z</time>
      </trkpt>
      <trkpt lat="45.87739" lon="4.73421">
        <ele>188</ele>
        <time>2018-03-07T09:46:40Z</time>
      </trkpt>
      <trkpt lat="45.87735" lon="4.73415">
        <ele>188</ele>
        <time>2018-03-07T09:46:41Z</time>
      </trkpt>
      <trkpt lat="45.87732" lon="4.73408">
        <ele>188</ele>
        <time>2018-03-07T09:46:42Z</time>
      </trkpt>
      <trkpt lat="45.87729" lon="4.73402">
        <ele>188</ele>
        <time>2018-03-07T09:46:43Z</time>
      </trkpt>
      <trkpt lat="45.87727" lon="4.73396">
        <ele>188</ele>
        <time>2018-03-07T09:46:44Z</time>
      </trkpt>
      <trkpt lat="45.87723" lon="4.7339">
        <ele>188</ele>
        <time>2018-03-07T09:46:45Z</time>
      </trkpt>
      <trkpt lat="45.8772" lon="4.73384">
        <ele>188</ele>
        <time>2018-03-07T09:46:46Z</time>
      </trkpt>
      <trkpt lat="45.87718" lon="4.73377">
        <ele>187</ele>
        <time>2018-03-07T09:46:47Z</time>
      </trkpt>
      <trkpt lat="45.87715" lon="4.73371">
        <ele>187</ele>
        <time>2018-03-07T09:46:48Z</time>
      </trkpt>
      <trkpt lat="45.87712" lon="4.73365">
        <ele>187</ele>
        <time>2018-03-07T09:46:49Z</time>
      </trkpt>
      <trkpt lat="45.87709" lon="4.7336">
        <ele>187</ele>
        <time>2018-03-07T09:46:50Z</time>
      </trkpt>
      <trkpt lat="45.87706" lon="4.73354">
        <ele>187</ele>
        <time>2018-03-07T09:46:51Z</time>
      </trkpt>
      <trkpt lat="45.87704" lon="4.73347">
        <ele>187</ele>
        <time>2018-03-07T09:46:52Z</time>
      </trkpt>
      <trkpt lat="45.87702" lon="4.73341">
        <ele>187</ele>
        <time>2018-03-07T09:46:53Z</time>
      </trkpt>
      <trkpt lat="45.87699" lon="4.73334">
        <ele>187</ele>
        <time>2018-03-07T09:46:54Z</time>
      </trkpt>
      <trkpt lat="45.87696" lon="4.73328">
        <ele>188</ele>
        <time>2018-03-07T09:46:55Z</time>
      </trkpt>
      <trkpt lat="45.87694" lon="4.73321">
        <ele>188</ele>
        <time>2018-03-07T09:46:56Z</time>
      </trkpt>
      <trkpt lat="45.8769" lon="4.73316">
        <ele>188</ele>
        <time>2018-03-07T09:46:57Z</time>
      </trkpt>
      <trkpt lat="45.87687" lon="4.7331">
        <ele>188</ele>
        <time>2018-03-07T09:46:58Z</time>
      </trkpt>
      <trkpt lat="45.87685" lon="4.73304">
        <ele>188</ele>
        <time>2018-03-07T09:46:59Z</time>
      </trkpt>
      <trkpt lat="45.87682" lon="4.73299">
        <ele>188</ele>
        <time>2018-03-07T09:47:00Z</time>
      </trkpt>
      <trkpt lat="45.87679" lon="4.73293">
        <ele>188</ele>
        <time>2018-03-07T09:47:01Z</time>
      </trkpt>
      <trkpt lat="45.87676" lon="4.73287">
        <ele>188</ele>
        <time>2018-03-07T09:47:02Z</time>
      </trkpt>
      <trkpt lat="45.87673" lon="4.73282">
        <ele>188</ele>
        <time>2018-03-07T09:47:03Z</time>
      </trkpt>
      <trkpt lat="45.8767" lon="4.73276">
        <ele>188</ele>
        <time>2018-03-07T09:47:04Z</time>
      </trkpt>
      <trkpt lat="45.87668" lon="4.7327">
        <ele>188</ele>
        <time>2018-03-07T09:47:05Z</time>
      </trkpt>
      <trkpt lat="45.87666" lon="4.73264">
        <ele>189</ele>
        <time>2018-03-07T09:47:06Z</time>
      </trkpt>
      <trkpt lat="45.87663" lon="4.73258">
        <ele>189</ele>
        <time>2018-03-07T09:47:07Z</time>
      </trkpt>
      <trkpt lat="45.8766" lon="4.73252">
        <ele>189</ele>
        <time>2018-03-07T09:47:08Z</time>
      </trkpt>
      <trkpt lat="45.87657" lon="4.73247">
        <ele>189</ele>
        <time>2018-03-07T09:47:09Z</time>
      </trkpt>
      <trkpt lat="45.87654" lon="4.73241">
        <ele>188</ele>
        <time>2018-03-07T09:47:10Z</time>
      </trkpt>
      <trkpt lat="45.87651" lon="4.73236">
        <ele>188</ele>
        <time>2018-03-07T09:47:11Z</time>
      </trkpt>
      <trkpt lat="45.87648" lon="4.73229">
        <ele>188</ele>
        <time>2018-03-07T09:47:12Z</time>
      </trkpt>
      <trkpt lat="45.87645" lon="4.73223">
        <ele>188</ele>
        <time>2018-03-07T09:47:13Z</time>
      </trkpt>
      <trkpt lat="45.87642" lon="4.73216">
        <ele>188</ele>
        <time>2018-03-07T09:47:14Z</time>
      </trkpt>
      <trkpt lat="45.87639" lon="4.7321">
        <ele>188</ele>
        <time>2018-03-07T09:47:15Z</time>
      </trkpt>
      <trkpt lat="45.87636" lon="4.73204">
        <ele>188</ele>
        <time>2018-03-07T09:47:16Z</time>
      </trkpt>
      <trkpt lat="45.87633" lon="4.73197">
        <ele>188</ele>
        <time>2018-03-07T09:47:17Z</time>
      </trkpt>
      <trkpt lat="45.87629" lon="4.73191">
        <ele>188</ele>
        <time>2018-03-07T09:47:18Z</time>
      </trkpt>
      <trkpt lat="45.87625" lon="4.73184">
        <ele>188</ele>
        <time>2018-03-07T09:47:19Z</time>
      </trkpt>
      <trkpt lat="45.87622" lon="4.73179">
        <ele>188</ele>
        <time>2018-03-07T09:47:20Z</time>
      </trkpt>
      <trkpt lat="45.87619" lon="4.73173">
        <ele>187</ele>
        <time>2018-03-07T09:47:21Z</time>
      </trkpt>
      <trkpt lat="45.87616" lon="4.73166">
        <ele>187</ele>
        <time>2018-03-07T09:47:22Z</time>
      </trkpt>
      <trkpt lat="45.87613" lon="4.7316">
        <ele>187</ele>
        <time>2018-03-07T09:47:23Z</time>
      </trkpt>
      <trkpt lat="45.8761" lon="4.73154">
        <ele>187</ele>
        <time>2018-03-07T09:47:24Z</time>
      </trkpt>
      <trkpt lat="45.87607" lon="4.73148">
        <ele>187</ele>
        <time>2018-03-07T09:47:25Z</time>
      </trkpt>
      <trkpt lat="45.87603" lon="4.7314">
        <ele>187</ele>
        <time>2018-03-07T09:47:26Z</time>
      </trkpt>
      <trkpt lat="45.876" lon="4.73133">
        <ele>187</ele>
        <time>2018-03-07T09:47:27Z</time>
      </trkpt>
      <trkpt lat="45.87596" lon="4.73126">
        <ele>187</ele>
        <time>2018-03-07T09:47:28Z</time>
      </trkpt>
      <trkpt lat="45.87592" lon="4.73118">
        <ele>188</ele>
        <time>2018-03-07T09:47:29Z</time>
      </trkpt>
      <trkpt lat="45.87588" lon="4.73111">
        <ele>188</ele>
        <time>2018-03-07T09:47:30Z</time>
      </trkpt>
      <trkpt lat="45.87584" lon="4.73104">
        <ele>188</ele>
        <time>2018-03-07T09:47:31Z</time>
      </trkpt>
      <trkpt lat="45.87581" lon="4.73098">
        <ele>188</ele>
        <time>2018-03-07T09:47:32Z</time>
      </trkpt>
      <trkpt lat="45.87577" lon="4.73091">
        <ele>188</ele>
        <time>2018-03-07T09:47:33Z</time>
      </trkpt>
      <trkpt lat="45.87574" lon="4.73084">
        <ele>188</ele>
        <time>2018-03-07T09:47:34Z</time>
      </trkpt>
      <trkpt lat="45.87571" lon="4.73078">
        <ele>188</ele>
        <time>2018-03-07T09:47:35Z</time>
      </trkpt>
      <trkpt lat="45.87568" lon="4.73073">
        <ele>188</ele>
        <time>2018-03-07T09:47:36Z</time>
      </trkpt>
      <trkpt lat="45.87565" lon="4.73066">
        <ele>188</ele>
        <time>2018-03-07T09:47:37Z</time>
      </trkpt>
      <trkpt lat="45.87562" lon="4.7306">
        <ele>188</ele>
        <time>2018-03-07T09:47:38Z</time>
      </trkpt>
      <trkpt lat="45.87559" lon="4.73054">
        <ele>188</ele>
        <time>2018-03-07T09:47:39Z</time>
      </trkpt>
      <trkpt lat="45.87556" lon="4.73047">
        <ele>188</ele>
        <time>2018-03-07T09:47:40Z</time>
      </trkpt>
      <trkpt lat="45.87553" lon="4.7304">
        <ele>188</ele>
        <time>2018-03-07T09:47:41Z</time>
      </trkpt>
      <trkpt lat="45.8755" lon="4.73035">
        <ele>188</ele>
        <time>2018-03-07T09:47:42Z</time>
      </trkpt>
      <trkpt lat="45.87547" lon="4.7303">
        <ele>188</ele>
        <time>2018-03-07T09:47:43Z</time>
      </trkpt>
      <trkpt lat="45.87544" lon="4.73024">
        <ele>188</ele>
        <time>2018-03-07T09:47:44Z</time>
      </trkpt>
      <trkpt lat="45.87539" lon="4.73013">
        <ele>187</ele>
        <time>2018-03-07T09:47:46Z</time>
      </trkpt>
      <trkpt lat="45.87537" lon="4.73008">
        <ele>187</ele>
        <time>2018-03-07T09:47:47Z</time>
      </trkpt>
      <trkpt lat="45.87534" lon="4.73002">
        <ele>187</ele>
        <time>2018-03-07T09:47:48Z</time>
      </trkpt>
      <trkpt lat="45.87532" lon="4.72995">
        <ele>187</ele>
        <time>2018-03-07T09:47:49Z</time>
      </trkpt>
      <trkpt lat="45.87527" lon="4.72985">
        <ele>187</ele>
        <time>2018-03-07T09:47:51Z</time>
      </trkpt>
      <trkpt lat="45.87524" lon="4.7298">
        <ele>187</ele>
        <time>2018-03-07T09:47:52Z</time>
      </trkpt>
      <trkpt lat="45.87522" lon="4.72975">
        <ele>187</ele>
        <time>2018-03-07T09:47:53Z</time>
      </trkpt>
      <trkpt lat="45.87519" lon="4.72969">
        <ele>187</ele>
        <time>2018-03-07T09:47:54Z</time>
      </trkpt>
      <trkpt lat="45.87515" lon="4.72964">
        <ele>187</ele>
        <time>2018-03-07T09:47:55Z</time>
      </trkpt>
      <trkpt lat="45.87512" lon="4.72959">
        <ele>187</ele>
        <time>2018-03-07T09:47:56Z</time>
      </trkpt>
      <trkpt lat="45.87509" lon="4.72953">
        <ele>187</ele>
        <time>2018-03-07T09:47:57Z</time>
      </trkpt>
      <trkpt lat="45.87504" lon="4.72948">
        <ele>187</ele>
        <time>2018-03-07T09:47:58Z</time>
      </trkpt>
      <trkpt lat="45.875" lon="4.72944">
        <ele>188</ele>
        <time>2018-03-07T09:47:59Z</time>
      </trkpt>
      <trkpt lat="45.87495" lon="4.72941">
        <ele>188</ele>
        <time>2018-03-07T09:48:00Z</time>
      </trkpt>
      <trkpt lat="45.8749" lon="4.72938">
        <ele>188</ele>
        <time>2018-03-07T09:48:01Z</time>
      </trkpt>
      <trkpt lat="45.87487" lon="4.72935">
        <ele>188</ele>
        <time>2018-03-07T09:48:02Z</time>
      </trkpt>
      <trkpt lat="45.87479" lon="4.72928">
        <ele>188</ele>
        <time>2018-03-07T09:48:04Z</time>
      </trkpt>
      <trkpt lat="45.87476" lon="4.72923">
        <ele>188</ele>
        <time>2018-03-07T09:48:05Z</time>
      </trkpt>
      <trkpt lat="45.87471" lon="4.72913">
        <ele>188</ele>
        <time>2018-03-07T09:48:07Z</time>
      </trkpt>
      <trkpt lat="45.87469" lon="4.72909">
        <ele>188</ele>
        <time>2018-03-07T09:48:08Z</time>
      </trkpt>
      <trkpt lat="45.87466" lon="4.72899">
        <ele>188</ele>
        <time>2018-03-07T09:48:11Z</time>
      </trkpt>
      <trkpt lat="45.87465" lon="4.72896">
        <ele>188</ele>
        <time>2018-03-07T09:48:12Z</time>
      </trkpt>
      <trkpt lat="45.87463" lon="4.7289">
        <ele>188</ele>
        <time>2018-03-07T09:48:14Z</time>
      </trkpt>
      <trkpt lat="45.8746" lon="4.72879">
        <ele>188</ele>
        <time>2018-03-07T09:48:15Z</time>
      </trkpt>
      <trkpt lat="45.87457" lon="4.72871">
        <ele>188</ele>
        <time>2018-03-07T09:48:16Z</time>
      </trkpt>
      <trkpt lat="45.87455" lon="4.72865">
        <ele>188</ele>
        <time>2018-03-07T09:48:17Z</time>
      </trkpt>
      <trkpt lat="45.87453" lon="4.72859">
        <ele>188</ele>
        <time>2018-03-07T09:48:18Z</time>
      </trkpt>
      <trkpt lat="45.8745" lon="4.72853">
        <ele>188</ele>
        <time>2018-03-07T09:48:19Z</time>
      </trkpt>
      <trkpt lat="45.87446" lon="4.72842">
        <ele>188</ele>
        <time>2018-03-07T09:48:21Z</time>
      </trkpt>
      <trkpt lat="45.87444" lon="4.72836">
        <ele>188</ele>
        <time>2018-03-07T09:48:22Z</time>
      </trkpt>
      <trkpt lat="45.87441" lon="4.7283">
        <ele>189</ele>
        <time>2018-03-07T09:48:23Z</time>
      </trkpt>
      <trkpt lat="45.87438" lon="4.72824">
        <ele>189</ele>
        <time>2018-03-07T09:48:24Z</time>
      </trkpt>
      <trkpt lat="45.87435" lon="4.72819">
        <ele>189</ele>
        <time>2018-03-07T09:48:25Z</time>
      </trkpt>
      <trkpt lat="45.87433" lon="4.72813">
        <ele>189</ele>
        <time>2018-03-07T09:48:26Z</time>
      </trkpt>
      <trkpt lat="45.8743" lon="4.72807">
        <ele>189</ele>
        <time>2018-03-07T09:48:27Z</time>
      </trkpt>
      <trkpt lat="45.87428" lon="4.72802">
        <ele>189</ele>
        <time>2018-03-07T09:48:28Z</time>
      </trkpt>
      <trkpt lat="45.87425" lon="4.72796">
        <ele>189</ele>
        <time>2018-03-07T09:48:29Z</time>
      </trkpt>
      <trkpt lat="45.87423" lon="4.72791">
        <ele>189</ele>
        <time>2018-03-07T09:48:30Z</time>
      </trkpt>
      <trkpt lat="45.87421" lon="4.72785">
        <ele>189</ele>
        <time>2018-03-07T09:48:31Z</time>
      </trkpt>
      <trkpt lat="45.87418" lon="4.72779">
        <ele>189</ele>
        <time>2018-03-07T09:48:32Z</time>
      </trkpt>
      <trkpt lat="45.87415" lon="4.72773">
        <ele>189</ele>
        <time>2018-03-07T09:48:33Z</time>
      </trkpt>
      <trkpt lat="45.87413" lon="4.72768">
        <ele>189</ele>
        <time>2018-03-07T09:48:34Z</time>
      </trkpt>
      <trkpt lat="45.8741" lon="4.72763">
        <ele>189</ele>
        <time>2018-03-07T09:48:35Z</time>
      </trkpt>
      <trkpt lat="45.87408" lon="4.72758">
        <ele>189</ele>
        <time>2018-03-07T09:48:36Z</time>
      </trkpt>
      <trkpt lat="45.87402" lon="4.72748">
        <ele>189</ele>
        <time>2018-03-07T09:48:38Z</time>
      </trkpt>
      <trkpt lat="45.87399" lon="4.72744">
        <ele>189</ele>
        <time>2018-03-07T09:48:39Z</time>
      </trkpt>
      <trkpt lat="45.87395" lon="4.72739">
        <ele>189</ele>
        <time>2018-03-07T09:48:40Z</time>
      </trkpt>
      <trkpt lat="45.87392" lon="4.72735">
        <ele>190</ele>
        <time>2018-03-07T09:48:41Z</time>
      </trkpt>
      <trkpt lat="45.87388" lon="4.7273">
        <ele>190</ele>
        <time>2018-03-07T09:48:42Z</time>
      </trkpt>
      <trkpt lat="45.87386" lon="4.72724">
        <ele>190</ele>
        <time>2018-03-07T09:48:43Z</time>
      </trkpt>
      <trkpt lat="45.87384" lon="4.72717">
        <ele>190</ele>
        <time>2018-03-07T09:48:44Z</time>
      </trkpt>
      <trkpt lat="45.87381" lon="4.72711">
        <ele>190</ele>
        <time>2018-03-07T09:48:45Z</time>
      </trkpt>
      <trkpt lat="45.87379" lon="4.72705">
        <ele>190</ele>
        <time>2018-03-07T09:48:46Z</time>
      </trkpt>
      <trkpt lat="45.87376" lon="4.72699">
        <ele>190</ele>
        <time>2018-03-07T09:48:47Z</time>
      </trkpt>
      <trkpt lat="45.87372" lon="4.72693">
        <ele>190</ele>
        <time>2018-03-07T09:48:48Z</time>
      </trkpt>
      <trkpt lat="45.87369" lon="4.72688">
        <ele>190</ele>
        <time>2018-03-07T09:48:49Z</time>
      </trkpt>
      <trkpt lat="45.87365" lon="4.72682">
        <ele>190</ele>
        <time>2018-03-07T09:48:50Z</time>
      </trkpt>
      <trkpt lat="45.8736" lon="4.72678">
        <ele>190</ele>
        <time>2018-03-07T09:48:51Z</time>
      </trkpt>
      <trkpt lat="45.87353" lon="4.72671">
        <ele>190</ele>
        <time>2018-03-07T09:48:53Z</time>
      </trkpt>
      <trkpt lat="45.8735" lon="4.72668">
        <ele>190</ele>
        <time>2018-03-07T09:48:54Z</time>
      </trkpt>
      <trkpt lat="45.87346" lon="4.72664">
        <ele>190</ele>
        <time>2018-03-07T09:48:55Z</time>
      </trkpt>
      <trkpt lat="45.87342" lon="4.7266">
        <ele>190</ele>
        <time>2018-03-07T09:48:56Z</time>
      </trkpt>
      <trkpt lat="45.87338" lon="4.72656">
        <ele>190</ele>
        <time>2018-03-07T09:48:57Z</time>
      </trkpt>
      <trkpt lat="45.87333" lon="4.72652">
        <ele>190</ele>
        <time>2018-03-07T09:48:58Z</time>
      </trkpt>
      <trkpt lat="45.87329" lon="4.72648">
        <ele>192</ele>
        <time>2018-03-07T09:48:59Z</time>
      </trkpt>
      <trkpt lat="45.87324" lon="4.72644">
        <ele>192</ele>
        <time>2018-03-07T09:49:00Z</time>
      </trkpt>
      <trkpt lat="45.8732" lon="4.72639">
        <ele>193</ele>
        <time>2018-03-07T09:49:01Z</time>
      </trkpt>
      <trkpt lat="45.87317" lon="4.72634">
        <ele>193</ele>
        <time>2018-03-07T09:49:02Z</time>
      </trkpt>
      <trkpt lat="45.87313" lon="4.7263">
        <ele>193</ele>
        <time>2018-03-07T09:49:03Z</time>
      </trkpt>
      <trkpt lat="45.87309" lon="4.72626">
        <ele>193</ele>
        <time>2018-03-07T09:49:04Z</time>
      </trkpt>
      <trkpt lat="45.87302" lon="4.72618">
        <ele>193</ele>
        <time>2018-03-07T09:49:06Z</time>
      </trkpt>
      <trkpt lat="45.87299" lon="4.72614">
        <ele>194</ele>
        <time>2018-03-07T09:49:07Z</time>
      </trkpt>
      <trkpt lat="45.87294" lon="4.7261">
        <ele>194</ele>
        <time>2018-03-07T09:49:08Z</time>
      </trkpt>
      <trkpt lat="45.87291" lon="4.72606">
        <ele>194</ele>
        <time>2018-03-07T09:49:09Z</time>
      </trkpt>
      <trkpt lat="45.87287" lon="4.72601">
        <ele>194</ele>
        <time>2018-03-07T09:49:10Z</time>
      </trkpt>
      <trkpt lat="45.87284" lon="4.72596">
        <ele>194</ele>
        <time>2018-03-07T09:49:11Z</time>
      </trkpt>
      <trkpt lat="45.87279" lon="4.72591">
        <ele>195</ele>
        <time>2018-03-07T09:49:12Z</time>
      </trkpt>
      <trkpt lat="45.87276" lon="4.72586">
        <ele>195</ele>
        <time>2018-03-07T09:49:13Z</time>
      </trkpt>
      <trkpt lat="45.87271" lon="4.72578">
        <ele>195</ele>
        <time>2018-03-07T09:49:15Z</time>
      </trkpt>
      <trkpt lat="45.87268" lon="4.72573">
        <ele>195</ele>
        <time>2018-03-07T09:49:16Z</time>
      </trkpt>
      <trkpt lat="45.87263" lon="4.72565">
        <ele>195</ele>
        <time>2018-03-07T09:49:18Z</time>
      </trkpt>
      <trkpt lat="45.8726" lon="4.72559">
        <ele>194</ele>
        <time>2018-03-07T09:49:19Z</time>
      </trkpt>
      <trkpt lat="45.87254" lon="4.72551">
        <ele>194</ele>
        <time>2018-03-07T09:49:22Z</time>
      </trkpt>
      <trkpt lat="45.87252" lon="4.72549">
        <ele>194</ele>
        <time>2018-03-07T09:49:23Z</time>
      </trkpt>
      <trkpt lat="45.8725" lon="4.72538">
        <ele>197</ele>
        <time>2018-03-07T09:49:26Z</time>
      </trkpt>
      <trkpt lat="45.87248" lon="4.72533">
        <ele>197</ele>
        <time>2018-03-07T09:49:27Z</time>
      </trkpt>
      <trkpt lat="45.87243" lon="4.72521">
        <ele>196</ele>
        <time>2018-03-07T09:49:28Z</time>
      </trkpt>
      <trkpt lat="45.87237" lon="4.72512">
        <ele>196</ele>
        <time>2018-03-07T09:49:30Z</time>
      </trkpt>
      <trkpt lat="45.87235" lon="4.72508">
        <ele>196</ele>
        <time>2018-03-07T09:49:31Z</time>
      </trkpt>
      <trkpt lat="45.87232" lon="4.72502">
        <ele>196</ele>
        <time>2018-03-07T09:49:32Z</time>
      </trkpt>
      <trkpt lat="45.87229" lon="4.72497">
        <ele>194</ele>
        <time>2018-03-07T09:49:33Z</time>
      </trkpt>
      <trkpt lat="45.87226" lon="4.72493">
        <ele>194</ele>
        <time>2018-03-07T09:49:34Z</time>
      </trkpt>
      <trkpt lat="45.87223" lon="4.72488">
        <ele>194</ele>
        <time>2018-03-07T09:49:35Z</time>
      </trkpt>
      <trkpt lat="45.8722" lon="4.72483">
        <ele>194</ele>
        <time>2018-03-07T09:49:36Z</time>
      </trkpt>
      <trkpt lat="45.87217" lon="4.72478">
        <ele>194</ele>
        <time>2018-03-07T09:49:37Z</time>
      </trkpt>
      <trkpt lat="45.87211" lon="4.72469">
        <ele>194</ele>
        <time>2018-03-07T09:49:39Z</time>
      </trkpt>
      <trkpt lat="45.87208" lon="4.72463">
        <ele>194</ele>
        <time>2018-03-07T09:49:40Z</time>
      </trkpt>
      <trkpt lat="45.87203" lon="4.72454">
        <ele>194</ele>
        <time>2018-03-07T09:49:42Z</time>
      </trkpt>
      <trkpt lat="45.872" lon="4.72449">
        <ele>194</ele>
        <time>2018-03-07T09:49:43Z</time>
      </trkpt>
      <trkpt lat="45.87196" lon="4.72445">
        <ele>194</ele>
        <time>2018-03-07T09:49:44Z</time>
      </trkpt>
      <trkpt lat="45.87193" lon="4.72439">
        <ele>194</ele>
        <time>2018-03-07T09:49:45Z</time>
      </trkpt>
      <trkpt lat="45.87188" lon="4.72431">
        <ele>194</ele>
        <time>2018-03-07T09:49:47Z</time>
      </trkpt>
      <trkpt lat="45.87186" lon="4.7243">
        <ele>194</ele>
        <time>2018-03-07T09:49:48Z</time>
      </trkpt>
      <trkpt lat="45.87181" lon="4.72424">
        <ele>194</ele>
        <time>2018-03-07T09:49:51Z</time>
      </trkpt>
      <trkpt lat="45.87179" lon="4.72421">
        <ele>194</ele>
        <time>2018-03-07T09:49:52Z</time>
      </trkpt>
      <trkpt lat="45.87177" lon="4.72418">
        <ele>194</ele>
        <time>2018-03-07T09:49:53Z</time>
      </trkpt>
      <trkpt lat="45.87172" lon="4.72409">
        <ele>192</ele>
        <time>2018-03-07T09:49:54Z</time>
      </trkpt>
      <trkpt lat="45.87168" lon="4.724">
        <ele>192</ele>
        <time>2018-03-07T09:49:56Z</time>
      </trkpt>
      <trkpt lat="45.87166" lon="4.72396">
        <ele>196</ele>
        <time>2018-03-07T09:49:57Z</time>
      </trkpt>
      <trkpt lat="45.87162" lon="4.72384">
        <ele>197</ele>
        <time>2018-03-07T09:49:59Z</time>
      </trkpt>
      <trkpt lat="45.8716" lon="4.72379">
        <ele>197</ele>
        <time>2018-03-07T09:50:00Z</time>
      </trkpt>
      <trkpt lat="45.87155" lon="4.72368">
        <ele>197</ele>
        <time>2018-03-07T09:50:02Z</time>
      </trkpt>
      <trkpt lat="45.87153" lon="4.72363">
        <ele>196</ele>
        <time>2018-03-07T09:50:03Z</time>
      </trkpt>
      <trkpt lat="45.87148" lon="4.72352">
        <ele>196</ele>
        <time>2018-03-07T09:50:05Z</time>
      </trkpt>
      <trkpt lat="45.87146" lon="4.72347">
        <ele>196</ele>
        <time>2018-03-07T09:50:06Z</time>
      </trkpt>
      <trkpt lat="45.87142" lon="4.72336">
        <ele>196</ele>
        <time>2018-03-07T09:50:08Z</time>
      </trkpt>
      <trkpt lat="45.8714" lon="4.72331">
        <ele>194</ele>
        <time>2018-03-07T09:50:09Z</time>
      </trkpt>
      <trkpt lat="45.87135" lon="4.7232">
        <ele>195</ele>
        <time>2018-03-07T09:50:11Z</time>
      </trkpt>
      <trkpt lat="45.87132" lon="4.72315">
        <ele>196</ele>
        <time>2018-03-07T09:50:12Z</time>
      </trkpt>
      <trkpt lat="45.8713" lon="4.72309">
        <ele>196</ele>
        <time>2018-03-07T09:50:13Z</time>
      </trkpt>
      <trkpt lat="45.87126" lon="4.72303">
        <ele>196</ele>
        <time>2018-03-07T09:50:14Z</time>
      </trkpt>
      <trkpt lat="45.87124" lon="4.72297">
        <ele>196</ele>
        <time>2018-03-07T09:50:15Z</time>
      </trkpt>
      <trkpt lat="45.87121" lon="4.72292">
        <ele>196</ele>
        <time>2018-03-07T09:50:16Z</time>
      </trkpt>
      <trkpt lat="45.87118" lon="4.72287">
        <ele>196</ele>
        <time>2018-03-07T09:50:17Z</time>
      </trkpt>
      <trkpt lat="45.87112" lon="4.72282">
        <ele>197</ele>
        <time>2018-03-07T09:50:18Z</time>
      </trkpt>
      <trkpt lat="45.87108" lon="4.72277">
        <ele>197</ele>
        <time>2018-03-07T09:50:19Z</time>
      </trkpt>
      <trkpt lat="45.87105" lon="4.72272">
        <ele>197</ele>
        <time>2018-03-07T09:50:20Z</time>
      </trkpt>
      <trkpt lat="45.871" lon="4.72267">
        <ele>197</ele>
        <time>2018-03-07T09:50:21Z</time>
      </trkpt>
      <trkpt lat="45.87096" lon="4.72262">
        <ele>198</ele>
        <time>2018-03-07T09:50:22Z</time>
      </trkpt>
      <trkpt lat="45.87092" lon="4.72258">
        <ele>198</ele>
        <time>2018-03-07T09:50:23Z</time>
      </trkpt>
      <trkpt lat="45.87088" lon="4.72253">
        <ele>198</ele>
        <time>2018-03-07T09:50:24Z</time>
      </trkpt>
      <trkpt lat="45.87085" lon="4.72249">
        <ele>198</ele>
        <time>2018-03-07T09:50:25Z</time>
      </trkpt>
      <trkpt lat="45.87081" lon="4.72244">
        <ele>199</ele>
        <time>2018-03-07T09:50:26Z</time>
      </trkpt>
      <trkpt lat="45.87076" lon="4.72239">
        <ele>200</ele>
        <time>2018-03-07T09:50:27Z</time>
      </trkpt>
      <trkpt lat="45.87072" lon="4.72235">
        <ele>200</ele>
        <time>2018-03-07T09:50:28Z</time>
      </trkpt>
      <trkpt lat="45.87068" lon="4.7223">
        <ele>200</ele>
        <time>2018-03-07T09:50:29Z</time>
      </trkpt>
      <trkpt lat="45.87064" lon="4.72227">
        <ele>200</ele>
        <time>2018-03-07T09:50:30Z</time>
      </trkpt>
      <trkpt lat="45.8706" lon="4.72222">
        <ele>200</ele>
        <time>2018-03-07T09:50:31Z</time>
      </trkpt>
      <trkpt lat="45.87055" lon="4.72219">
        <ele>200</ele>
        <time>2018-03-07T09:50:32Z</time>
      </trkpt>
      <trkpt lat="45.87051" lon="4.72215">
        <ele>200</ele>
        <time>2018-03-07T09:50:33Z</time>
      </trkpt>
      <trkpt lat="45.87046" lon="4.72211">
        <ele>201</ele>
        <time>2018-03-07T09:50:34Z</time>
      </trkpt>
      <trkpt lat="45.8704" lon="4.72207">
        <ele>201</ele>
        <time>2018-03-07T09:50:35Z</time>
      </trkpt>
      <trkpt lat="45.87036" lon="4.72203">
        <ele>201</ele>
        <time>2018-03-07T09:50:36Z</time>
      </trkpt>
      <trkpt lat="45.8703" lon="4.722">
        <ele>201</ele>
        <time>2018-03-07T09:50:37Z</time>
      </trkpt>
      <trkpt lat="45.87025" lon="4.72196">
        <ele>201</ele>
        <time>2018-03-07T09:50:38Z</time>
      </trkpt>
      <trkpt lat="45.87019" lon="4.72193">
        <ele>201</ele>
        <time>2018-03-07T09:50:39Z</time>
      </trkpt>
      <trkpt lat="45.87015" lon="4.7219">
        <ele>201</ele>
        <time>2018-03-07T09:50:40Z</time>
      </trkpt>
      <trkpt lat="45.8701" lon="4.72186">
        <ele>201</ele>
        <time>2018-03-07T09:50:41Z</time>
      </trkpt>
      <trkpt lat="45.87005" lon="4.72183">
        <ele>201</ele>
        <time>2018-03-07T09:50:42Z</time>
      </trkpt>
      <trkpt lat="45.87" lon="4.7218">
        <ele>201</ele>
        <time>2018-03-07T09:50:43Z</time>
      </trkpt>
      <trkpt lat="45.86996" lon="4.72176">
        <ele>205</ele>
        <time>2018-03-07T09:50:44Z</time>
      </trkpt>
      <trkpt lat="45.86992" lon="4.72173">
        <ele>205</ele>
        <time>2018-03-07T09:50:45Z</time>
      </trkpt>
      <trkpt lat="45.86987" lon="4.7217">
        <ele>206</ele>
        <time>2018-03-07T09:50:46Z</time>
      </trkpt>
      <trkpt lat="45.86982" lon="4.72166">
        <ele>201</ele>
        <time>2018-03-07T09:50:47Z</time>
      </trkpt>
      <trkpt lat="45.86978" lon="4.72162">
        <ele>201</ele>
        <time>2018-03-07T09:50:48Z</time>
      </trkpt>
      <trkpt lat="45.86973" lon="4.72159">
        <ele>201</ele>
        <time>2018-03-07T09:50:49Z</time>
      </trkpt>
      <trkpt lat="45.86969" lon="4.72157">
        <ele>201</ele>
        <time>2018-03-07T09:50:50Z</time>
      </trkpt>
      <trkpt lat="45.86964" lon="4.72154">
        <ele>201</ele>
        <time>2018-03-07T09:50:51Z</time>
      </trkpt>
      <trkpt lat="45.86959" lon="4.72151">
        <ele>201</ele>
        <time>2018-03-07T09:50:52Z</time>
      </trkpt>
      <trkpt lat="45.86954" lon="4.72149">
        <ele>201</ele>
        <time>2018-03-07T09:50:53Z</time>
      </trkpt>
      <trkpt lat="45.86949" lon="4.72146">
        <ele>201</ele>
        <time>2018-03-07T09:50:54Z</time>
      </trkpt>
      <trkpt lat="45.86944" lon="4.72143">
        <ele>202</ele>
        <time>2018-03-07T09:50:55Z</time>
      </trkpt>
      <trkpt lat="45.8694" lon="4.7214">
        <ele>202</ele>
        <time>2018-03-07T09:50:56Z</time>
      </trkpt>
      <trkpt lat="45.86935" lon="4.72137">
        <ele>201</ele>
        <time>2018-03-07T09:50:57Z</time>
      </trkpt>
      <trkpt lat="45.8693" lon="4.72134">
        <ele>201</ele>
        <time>2018-03-07T09:50:58Z</time>
      </trkpt>
      <trkpt lat="45.86925" lon="4.72132">
        <ele>201</ele>
        <time>2018-03-07T09:50:59Z</time>
      </trkpt>
      <trkpt lat="45.86921" lon="4.72128">
        <ele>200</ele>
        <time>2018-03-07T09:51:00Z</time>
      </trkpt>
      <trkpt lat="45.86915" lon="4.72126">
        <ele>202</ele>
        <time>2018-03-07T09:51:01Z</time>
      </trkpt>
      <trkpt lat="45.8691" lon="4.72124">
        <ele>202</ele>
        <time>2018-03-07T09:51:02Z</time>
      </trkpt>
      <trkpt lat="45.86905" lon="4.72123">
        <ele>202</ele>
        <time>2018-03-07T09:51:03Z</time>
      </trkpt>
      <trkpt lat="45.869" lon="4.72121">
        <ele>202</ele>
        <time>2018-03-07T09:51:04Z</time>
      </trkpt>
      <trkpt lat="45.86896" lon="4.72119">
        <ele>201</ele>
        <time>2018-03-07T09:51:05Z</time>
      </trkpt>
      <trkpt lat="45.8689" lon="4.72116">
        <ele>201</ele>
        <time>2018-03-07T09:51:06Z</time>
      </trkpt>
      <trkpt lat="45.86884" lon="4.72114">
        <ele>201</ele>
        <time>2018-03-07T09:51:07Z</time>
      </trkpt>
      <trkpt lat="45.8688" lon="4.72111">
        <ele>201</ele>
        <time>2018-03-07T09:51:08Z</time>
      </trkpt>
      <trkpt lat="45.86875" lon="4.72109">
        <ele>201</ele>
        <time>2018-03-07T09:51:09Z</time>
      </trkpt>
      <trkpt lat="45.8687" lon="4.72105">
        <ele>200</ele>
        <time>2018-03-07T09:51:10Z</time>
      </trkpt>
      <trkpt lat="45.86863" lon="4.72104">
        <ele>200</ele>
        <time>2018-03-07T09:51:11Z</time>
      </trkpt>
      <trkpt lat="45.86858" lon="4.72101">
        <ele>200</ele>
        <time>2018-03-07T09:51:12Z</time>
      </trkpt>
      <trkpt lat="45.86853" lon="4.72099">
        <ele>199</ele>
        <time>2018-03-07T09:51:13Z</time>
      </trkpt>
      <trkpt lat="45.86848" lon="4.72096">
        <ele>198</ele>
        <time>2018-03-07T09:51:14Z</time>
      </trkpt>
      <trkpt lat="45.86843" lon="4.72093">
        <ele>197</ele>
        <time>2018-03-07T09:51:15Z</time>
      </trkpt>
      <trkpt lat="45.86837" lon="4.72092">
        <ele>196</ele>
        <time>2018-03-07T09:51:16Z</time>
      </trkpt>
      <trkpt lat="45.86831" lon="4.7209">
        <ele>196</ele>
        <time>2018-03-07T09:51:17Z</time>
      </trkpt>
      <trkpt lat="45.86826" lon="4.72088">
        <ele>197</ele>
        <time>2018-03-07T09:51:18Z</time>
      </trkpt>
      <trkpt lat="45.8682" lon="4.72087">
        <ele>198</ele>
        <time>2018-03-07T09:51:19Z</time>
      </trkpt>
      <trkpt lat="45.86815" lon="4.72085">
        <ele>199</ele>
        <time>2018-03-07T09:51:20Z</time>
      </trkpt>
      <trkpt lat="45.8681" lon="4.72083">
        <ele>194</ele>
        <time>2018-03-07T09:51:21Z</time>
      </trkpt>
      <trkpt lat="45.86804" lon="4.7208">
        <ele>194</ele>
        <time>2018-03-07T09:51:22Z</time>
      </trkpt>
      <trkpt lat="45.86799" lon="4.72078">
        <ele>194</ele>
        <time>2018-03-07T09:51:23Z</time>
      </trkpt>
      <trkpt lat="45.86794" lon="4.72075">
        <ele>194</ele>
        <time>2018-03-07T09:51:24Z</time>
      </trkpt>
      <trkpt lat="45.86789" lon="4.72072">
        <ele>194</ele>
        <time>2018-03-07T09:51:25Z</time>
      </trkpt>
      <trkpt lat="45.86783" lon="4.72069">
        <ele>194</ele>
        <time>2018-03-07T09:51:26Z</time>
      </trkpt>
      <trkpt lat="45.86778" lon="4.72067">
        <ele>194</ele>
        <time>2018-03-07T09:51:27Z</time>
      </trkpt>
      <trkpt lat="45.86772" lon="4.72064">
        <ele>195</ele>
        <time>2018-03-07T09:51:28Z</time>
      </trkpt>
      <trkpt lat="45.86767" lon="4.72063">
        <ele>195</ele>
        <time>2018-03-07T09:51:29Z</time>
      </trkpt>
      <trkpt lat="45.86762" lon="4.72061">
        <ele>195</ele>
        <time>2018-03-07T09:51:30Z</time>
      </trkpt>
      <trkpt lat="45.86757" lon="4.72059">
        <ele>195</ele>
        <time>2018-03-07T09:51:31Z</time>
      </trkpt>
      <trkpt lat="45.86752" lon="4.72057">
        <ele>195</ele>
        <time>2018-03-07T09:51:32Z</time>
      </trkpt>
      <trkpt lat="45.86746" lon="4.72054">
        <ele>197</ele>
        <time>2018-03-07T09:51:33Z</time>
      </trkpt>
      <trkpt lat="45.86741" lon="4.72052">
        <ele>197</ele>
        <time>2018-03-07T09:51:34Z</time>
      </trkpt>
      <trkpt lat="45.86736" lon="4.7205">
        <ele>197</ele>
        <time>2018-03-07T09:51:35Z</time>
      </trkpt>
      <trkpt lat="45.86732" lon="4.72047">
        <ele>197</ele>
        <time>2018-03-07T09:51:36Z</time>
      </trkpt>
      <trkpt lat="45.86726" lon="4.72045">
        <ele>197</ele>
        <time>2018-03-07T09:51:37Z</time>
      </trkpt>
      <trkpt lat="45.86722" lon="4.72042">
        <ele>197</ele>
        <time>2018-03-07T09:51:38Z</time>
      </trkpt>
      <trkpt lat="45.86717" lon="4.7204">
        <ele>197</ele>
        <time>2018-03-07T09:51:39Z</time>
      </trkpt>
      <trkpt lat="45.86713" lon="4.72037">
        <ele>197</ele>
        <time>2018-03-07T09:51:40Z</time>
      </trkpt>
      <trkpt lat="45.86708" lon="4.72034">
        <ele>197</ele>
        <time>2018-03-07T09:51:41Z</time>
      </trkpt>
      <trkpt lat="45.86703" lon="4.72031">
        <ele>197</ele>
        <time>2018-03-07T09:51:42Z</time>
      </trkpt>
      <trkpt lat="45.86699" lon="4.72028">
        <ele>197</ele>
        <time>2018-03-07T09:51:43Z</time>
      </trkpt>
      <trkpt lat="45.86695" lon="4.72025">
        <ele>197</ele>
        <time>2018-03-07T09:51:44Z</time>
      </trkpt>
      <trkpt lat="45.8669" lon="4.72022">
        <ele>197</ele>
        <time>2018-03-07T09:51:45Z</time>
      </trkpt>
      <trkpt lat="45.86686" lon="4.72018">
        <ele>196</ele>
        <time>2018-03-07T09:51:46Z</time>
      </trkpt>
      <trkpt lat="45.86681" lon="4.72014">
        <ele>196</ele>
        <time>2018-03-07T09:51:47Z</time>
      </trkpt>
      <trkpt lat="45.86677" lon="4.7201">
        <ele>196</ele>
        <time>2018-03-07T09:51:48Z</time>
      </trkpt>
      <trkpt lat="45.86673" lon="4.72006">
        <ele>196</ele>
        <time>2018-03-07T09:51:49Z</time>
      </trkpt>
      <trkpt lat="45.86669" lon="4.72003">
        <ele>195</ele>
        <time>2018-03-07T09:51:50Z</time>
      </trkpt>
      <trkpt lat="45.86665" lon="4.71999">
        <ele>195</ele>
        <time>2018-03-07T09:51:51Z</time>
      </trkpt>
      <trkpt lat="45.86661" lon="4.71994">
        <ele>195</ele>
        <time>2018-03-07T09:51:52Z</time>
      </trkpt>
      <trkpt lat="45.86657" lon="4.71991">
        <ele>195</ele>
        <time>2018-03-07T09:51:53Z</time>
      </trkpt>
      <trkpt lat="45.86653" lon="4.71988">
        <ele>195</ele>
        <time>2018-03-07T09:51:54Z</time>
      </trkpt>
      <trkpt lat="45.86648" lon="4.71985">
        <ele>195</ele>
        <time>2018-03-07T09:51:55Z</time>
      </trkpt>
      <trkpt lat="45.86644" lon="4.71982">
        <ele>195</ele>
        <time>2018-03-07T09:51:56Z</time>
      </trkpt>
      <trkpt lat="45.8664" lon="4.71979">
        <ele>195</ele>
        <time>2018-03-07T09:51:57Z</time>
      </trkpt>
      <trkpt lat="45.86636" lon="4.71975">
        <ele>195</ele>
        <time>2018-03-07T09:51:58Z</time>
      </trkpt>
      <trkpt lat="45.86629" lon="4.71969">
        <ele>195</ele>
        <time>2018-03-07T09:52:00Z</time>
      </trkpt>
      <trkpt lat="45.86625" lon="4.71966">
        <ele>195</ele>
        <time>2018-03-07T09:52:01Z</time>
      </trkpt>
      <trkpt lat="45.86621" lon="4.71962">
        <ele>195</ele>
        <time>2018-03-07T09:52:02Z</time>
      </trkpt>
      <trkpt lat="45.86617" lon="4.71959">
        <ele>195</ele>
        <time>2018-03-07T09:52:03Z</time>
      </trkpt>
      <trkpt lat="45.86612" lon="4.71955">
        <ele>194</ele>
        <time>2018-03-07T09:52:04Z</time>
      </trkpt>
      <trkpt lat="45.86608" lon="4.71952">
        <ele>194</ele>
        <time>2018-03-07T09:52:05Z</time>
      </trkpt>
      <trkpt lat="45.86603" lon="4.71949">
        <ele>194</ele>
        <time>2018-03-07T09:52:06Z</time>
      </trkpt>
      <trkpt lat="45.86599" lon="4.71945">
        <ele>194</ele>
        <time>2018-03-07T09:52:07Z</time>
      </trkpt>
      <trkpt lat="45.86595" lon="4.71941">
        <ele>194</ele>
        <time>2018-03-07T09:52:08Z</time>
      </trkpt>
      <trkpt lat="45.86591" lon="4.71938">
        <ele>194</ele>
        <time>2018-03-07T09:52:09Z</time>
      </trkpt>
      <trkpt lat="45.86587" lon="4.71934">
        <ele>194</ele>
        <time>2018-03-07T09:52:10Z</time>
      </trkpt>
      <trkpt lat="45.86583" lon="4.71931">
        <ele>195</ele>
        <time>2018-03-07T09:52:11Z</time>
      </trkpt>
      <trkpt lat="45.86578" lon="4.71928">
        <ele>195</ele>
        <time>2018-03-07T09:52:12Z</time>
      </trkpt>
      <trkpt lat="45.86574" lon="4.71926">
        <ele>195</ele>
        <time>2018-03-07T09:52:13Z</time>
      </trkpt>
      <trkpt lat="45.8657" lon="4.71922">
        <ele>195</ele>
        <time>2018-03-07T09:52:14Z</time>
      </trkpt>
      <trkpt lat="45.86565" lon="4.71919">
        <ele>195</ele>
        <time>2018-03-07T09:52:15Z</time>
      </trkpt>
      <trkpt lat="45.86561" lon="4.71917">
        <ele>195</ele>
        <time>2018-03-07T09:52:16Z</time>
      </trkpt>
      <trkpt lat="45.86557" lon="4.71913">
        <ele>195</ele>
        <time>2018-03-07T09:52:17Z</time>
      </trkpt>
      <trkpt lat="45.8655" lon="4.71905">
        <ele>195</ele>
        <time>2018-03-07T09:52:19Z</time>
      </trkpt>
      <trkpt lat="45.86546" lon="4.71902">
        <ele>195</ele>
        <time>2018-03-07T09:52:20Z</time>
      </trkpt>
      <trkpt lat="45.86538" lon="4.71895">
        <ele>195</ele>
        <time>2018-03-07T09:52:22Z</time>
      </trkpt>
      <trkpt lat="45.86535" lon="4.71892">
        <ele>195</ele>
        <time>2018-03-07T09:52:23Z</time>
      </trkpt>
      <trkpt lat="45.86527" lon="4.71887">
        <ele>195</ele>
        <time>2018-03-07T09:52:25Z</time>
      </trkpt>
      <trkpt lat="45.86523" lon="4.71885">
        <ele>195</ele>
        <time>2018-03-07T09:52:26Z</time>
      </trkpt>
      <trkpt lat="45.86519" lon="4.71881">
        <ele>195</ele>
        <time>2018-03-07T09:52:27Z</time>
      </trkpt>
      <trkpt lat="45.86514" lon="4.71878">
        <ele>195</ele>
        <time>2018-03-07T09:52:28Z</time>
      </trkpt>
      <trkpt lat="45.8651" lon="4.71874">
        <ele>195</ele>
        <time>2018-03-07T09:52:29Z</time>
      </trkpt>
      <trkpt lat="45.86506" lon="4.71871">
        <ele>195</ele>
        <time>2018-03-07T09:52:30Z</time>
      </trkpt>
      <trkpt lat="45.86498" lon="4.71865">
        <ele>198</ele>
        <time>2018-03-07T09:52:32Z</time>
      </trkpt>
      <trkpt lat="45.86494" lon="4.71862">
        <ele>198</ele>
        <time>2018-03-07T09:52:33Z</time>
      </trkpt>
      <trkpt lat="45.86488" lon="4.71856">
        <ele>198</ele>
        <time>2018-03-07T09:52:35Z</time>
      </trkpt>
      <trkpt lat="45.86484" lon="4.71854">
        <ele>198</ele>
        <time>2018-03-07T09:52:36Z</time>
      </trkpt>
      <trkpt lat="45.8648" lon="4.71851">
        <ele>198</ele>
        <time>2018-03-07T09:52:37Z</time>
      </trkpt>
      <trkpt lat="45.86475" lon="4.71848">
        <ele>198</ele>
        <time>2018-03-07T09:52:38Z</time>
      </trkpt>
      <trkpt lat="45.86468" lon="4.71842">
        <ele>199</ele>
        <time>2018-03-07T09:52:40Z</time>
      </trkpt>
      <trkpt lat="45.86464" lon="4.71839">
        <ele>199</ele>
        <time>2018-03-07T09:52:41Z</time>
      </trkpt>
      <trkpt lat="45.86461" lon="4.71836">
        <ele>199</ele>
        <time>2018-03-07T09:52:42Z</time>
      </trkpt>
      <trkpt lat="45.86455" lon="4.71833">
        <ele>197</ele>
        <time>2018-03-07T09:52:43Z</time>
      </trkpt>
      <trkpt lat="45.86448" lon="4.71826">
        <ele>197</ele>
        <time>2018-03-07T09:52:45Z</time>
      </trkpt>
      <trkpt lat="45.86444" lon="4.71824">
        <ele>197</ele>
        <time>2018-03-07T09:52:46Z</time>
      </trkpt>
      <trkpt lat="45.86439" lon="4.71819">
        <ele>198</ele>
        <time>2018-03-07T09:52:47Z</time>
      </trkpt>
      <trkpt lat="45.86435" lon="4.71816">
        <ele>198</ele>
        <time>2018-03-07T09:52:48Z</time>
      </trkpt>
      <trkpt lat="45.86432" lon="4.71812">
        <ele>198</ele>
        <time>2018-03-07T09:52:49Z</time>
      </trkpt>
      <trkpt lat="45.86427" lon="4.7181">
        <ele>198</ele>
        <time>2018-03-07T09:52:50Z</time>
      </trkpt>
      <trkpt lat="45.86422" lon="4.71806">
        <ele>197</ele>
        <time>2018-03-07T09:52:51Z</time>
      </trkpt>
      <trkpt lat="45.86419" lon="4.71802">
        <ele>197</ele>
        <time>2018-03-07T09:52:52Z</time>
      </trkpt>
      <trkpt lat="45.86415" lon="4.71798">
        <ele>199</ele>
        <time>2018-03-07T09:52:53Z</time>
      </trkpt>
      <trkpt lat="45.86411" lon="4.71795">
        <ele>199</ele>
        <time>2018-03-07T09:52:54Z</time>
      </trkpt>
      <trkpt lat="45.86403" lon="4.71789">
        <ele>198</ele>
        <time>2018-03-07T09:52:56Z</time>
      </trkpt>
      <trkpt lat="45.864" lon="4.71786">
        <ele>198</ele>
        <time>2018-03-07T09:52:57Z</time>
      </trkpt>
      <trkpt lat="45.86395" lon="4.71783">
        <ele>198</ele>
        <time>2018-03-07T09:52:58Z</time>
      </trkpt>
      <trkpt lat="45.86391" lon="4.7178">
        <ele>198</ele>
        <time>2018-03-07T09:52:59Z</time>
      </trkpt>
      <trkpt lat="45.86388" lon="4.71777">
        <ele>198</ele>
        <time>2018-03-07T09:53:00Z</time>
      </trkpt>
      <trkpt lat="45.86383" lon="4.71773">
        <ele>198</ele>
        <time>2018-03-07T09:53:01Z</time>
      </trkpt>
      <trkpt lat="45.86379" lon="4.7177">
        <ele>198</ele>
        <time>2018-03-07T09:53:02Z</time>
      </trkpt>
      <trkpt lat="45.86374" lon="4.71767">
        <ele>198</ele>
        <time>2018-03-07T09:53:03Z</time>
      </trkpt>
      <trkpt lat="45.86366" lon="4.71763">
        <ele>198</ele>
        <time>2018-03-07T09:53:05Z</time>
      </trkpt>
      <trkpt lat="45.86362" lon="4.71759">
        <ele>198</ele>
        <time>2018-03-07T09:53:06Z</time>
      </trkpt>
      <trkpt lat="45.86358" lon="4.71755">
        <ele>198</ele>
        <time>2018-03-07T09:53:07Z</time>
      </trkpt>
      <trkpt lat="45.86353" lon="4.71752">
        <ele>197</ele>
        <time>2018-03-07T09:53:08Z</time>
      </trkpt>
      <trkpt lat="45.86349" lon="4.71748">
        <ele>195</ele>
        <time>2018-03-07T09:53:09Z</time>
      </trkpt>
      <trkpt lat="45.86344" lon="4.71745">
        <ele>195</ele>
        <time>2018-03-07T09:53:10Z</time>
      </trkpt>
      <trkpt lat="45.8634" lon="4.7174">
        <ele>195</ele>
        <time>2018-03-07T09:53:11Z</time>
      </trkpt>
      <trkpt lat="45.86336" lon="4.71737">
        <ele>195</ele>
        <time>2018-03-07T09:53:12Z</time>
      </trkpt>
      <trkpt lat="45.86328" lon="4.7173">
        <ele>196</ele>
        <time>2018-03-07T09:53:14Z</time>
      </trkpt>
      <trkpt lat="45.86324" lon="4.71727">
        <ele>196</ele>
        <time>2018-03-07T09:53:15Z</time>
      </trkpt>
      <trkpt lat="45.86316" lon="4.71722">
        <ele>196</ele>
        <time>2018-03-07T09:53:17Z</time>
      </trkpt>
      <trkpt lat="45.86313" lon="4.71719">
        <ele>196</ele>
        <time>2018-03-07T09:53:18Z</time>
      </trkpt>
      <trkpt lat="45.86308" lon="4.71716">
        <ele>196</ele>
        <time>2018-03-07T09:53:19Z</time>
      </trkpt>
      <trkpt lat="45.86305" lon="4.71712">
        <ele>195</ele>
        <time>2018-03-07T09:53:20Z</time>
      </trkpt>
      <trkpt lat="45.86301" lon="4.71709">
        <ele>195</ele>
        <time>2018-03-07T09:53:21Z</time>
      </trkpt>
      <trkpt lat="45.86296" lon="4.71705">
        <ele>195</ele>
        <time>2018-03-07T09:53:22Z</time>
      </trkpt>
      <trkpt lat="45.86292" lon="4.71702">
        <ele>195</ele>
        <time>2018-03-07T09:53:23Z</time>
      </trkpt>
      <trkpt lat="45.86287" lon="4.71697">
        <ele>195</ele>
        <time>2018-03-07T09:53:24Z</time>
      </trkpt>
      <trkpt lat="45.86283" lon="4.71694">
        <ele>195</ele>
        <time>2018-03-07T09:53:25Z</time>
      </trkpt>
      <trkpt lat="45.86279" lon="4.71691">
        <ele>195</ele>
        <time>2018-03-07T09:53:26Z</time>
      </trkpt>
      <trkpt lat="45.86272" lon="4.71685">
        <ele>195</ele>
        <time>2018-03-07T09:53:28Z</time>
      </trkpt>
      <trkpt lat="45.86267" lon="4.71681">
        <ele>195</ele>
        <time>2018-03-07T09:53:29Z</time>
      </trkpt>
      <trkpt lat="45.86262" lon="4.71679">
        <ele>195</ele>
        <time>2018-03-07T09:53:30Z</time>
      </trkpt>
      <trkpt lat="45.86258" lon="4.71675">
        <ele>195</ele>
        <time>2018-03-07T09:53:31Z</time>
      </trkpt>
      <trkpt lat="45.86254" lon="4.71672">
        <ele>195</ele>
        <time>2018-03-07T09:53:32Z</time>
      </trkpt>
      <trkpt lat="45.8625" lon="4.71669">
        <ele>195</ele>
        <time>2018-03-07T09:53:33Z</time>
      </trkpt>
      <trkpt lat="45.86246" lon="4.71666">
        <ele>195</ele>
        <time>2018-03-07T09:53:34Z</time>
      </trkpt>
      <trkpt lat="45.86242" lon="4.71663">
        <ele>195</ele>
        <time>2018-03-07T09:53:35Z</time>
      </trkpt>
      <trkpt lat="45.86237" lon="4.7166">
        <ele>195</ele>
        <time>2018-03-07T09:53:36Z</time>
      </trkpt>
      <trkpt lat="45.86233" lon="4.71657">
        <ele>195</ele>
        <time>2018-03-07T09:53:37Z</time>
      </trkpt>
      <trkpt lat="45.8623" lon="4.71651">
        <ele>195</ele>
        <time>2018-03-07T09:53:38Z</time>
      </trkpt>
      <trkpt lat="45.86226" lon="4.71648">
        <ele>195</ele>
        <time>2018-03-07T09:53:39Z</time>
      </trkpt>
      <trkpt lat="45.86222" lon="4.71644">
        <ele>195</ele>
        <time>2018-03-07T09:53:40Z</time>
      </trkpt>
      <trkpt lat="45.86219" lon="4.71639">
        <ele>195</ele>
        <time>2018-03-07T09:53:41Z</time>
      </trkpt>
      <trkpt lat="45.86216" lon="4.71633">
        <ele>195</ele>
        <time>2018-03-07T09:53:42Z</time>
      </trkpt>
      <trkpt lat="45.86214" lon="4.71626">
        <ele>195</ele>
        <time>2018-03-07T09:53:43Z</time>
      </trkpt>
      <trkpt lat="45.86212" lon="4.71621">
        <ele>195</ele>
        <time>2018-03-07T09:53:44Z</time>
      </trkpt>
      <trkpt lat="45.86211" lon="4.71613">
        <ele>195</ele>
        <time>2018-03-07T09:53:45Z</time>
      </trkpt>
      <trkpt lat="45.86209" lon="4.71608">
        <ele>195</ele>
        <time>2018-03-07T09:53:46Z</time>
      </trkpt>
      <trkpt lat="45.86206" lon="4.71602">
        <ele>195</ele>
        <time>2018-03-07T09:53:47Z</time>
      </trkpt>
      <trkpt lat="45.86202" lon="4.71598">
        <ele>195</ele>
        <time>2018-03-07T09:53:48Z</time>
      </trkpt>
      <trkpt lat="45.86196" lon="4.71594">
        <ele>195</ele>
        <time>2018-03-07T09:53:49Z</time>
      </trkpt>
      <trkpt lat="45.86192" lon="4.71591">
        <ele>195</ele>
        <time>2018-03-07T09:53:50Z</time>
      </trkpt>
      <trkpt lat="45.86189" lon="4.71586">
        <ele>195</ele>
        <time>2018-03-07T09:53:51Z</time>
      </trkpt>
      <trkpt lat="45.86186" lon="4.71581">
        <ele>195</ele>
        <time>2018-03-07T09:53:52Z</time>
      </trkpt>
      <trkpt lat="45.86182" lon="4.71576">
        <ele>195</ele>
        <time>2018-03-07T09:53:53Z</time>
      </trkpt>
      <trkpt lat="45.86178" lon="4.71573">
        <ele>196</ele>
        <time>2018-03-07T09:53:54Z</time>
      </trkpt>
      <trkpt lat="45.86175" lon="4.71568">
        <ele>195</ele>
        <time>2018-03-07T09:53:55Z</time>
      </trkpt>
      <trkpt lat="45.86172" lon="4.71564">
        <ele>195</ele>
        <time>2018-03-07T09:53:56Z</time>
      </trkpt>
      <trkpt lat="45.86169" lon="4.71559">
        <ele>195</ele>
        <time>2018-03-07T09:53:57Z</time>
      </trkpt>
      <trkpt lat="45.86167" lon="4.71551">
        <ele>195</ele>
        <time>2018-03-07T09:53:58Z</time>
      </trkpt>
      <trkpt lat="45.86164" lon="4.71546">
        <ele>196</ele>
        <time>2018-03-07T09:53:59Z</time>
      </trkpt>
      <trkpt lat="45.8616" lon="4.71539">
        <ele>195</ele>
        <time>2018-03-07T09:54:00Z</time>
      </trkpt>
      <trkpt lat="45.86158" lon="4.71534">
        <ele>195</ele>
        <time>2018-03-07T09:54:01Z</time>
      </trkpt>
      <trkpt lat="45.86154" lon="4.71529">
        <ele>195</ele>
        <time>2018-03-07T09:54:02Z</time>
      </trkpt>
      <trkpt lat="45.86151" lon="4.71524">
        <ele>195</ele>
        <time>2018-03-07T09:54:03Z</time>
      </trkpt>
      <trkpt lat="45.86148" lon="4.71519">
        <ele>195</ele>
        <time>2018-03-07T09:54:04Z</time>
      </trkpt>
      <trkpt lat="45.86146" lon="4.71513">
        <ele>195</ele>
        <time>2018-03-07T09:54:05Z</time>
      </trkpt>
      <trkpt lat="45.86143" lon="4.71506">
        <ele>195</ele>
        <time>2018-03-07T09:54:06Z</time>
      </trkpt>
      <trkpt lat="45.8614" lon="4.715">
        <ele>195</ele>
        <time>2018-03-07T09:54:07Z</time>
      </trkpt>
      <trkpt lat="45.86138" lon="4.71494">
        <ele>195</ele>
        <time>2018-03-07T09:54:08Z</time>
      </trkpt>
      <trkpt lat="45.86135" lon="4.71487">
        <ele>195</ele>
        <time>2018-03-07T09:54:09Z</time>
      </trkpt>
      <trkpt lat="45.86132" lon="4.7148">
        <ele>195</ele>
        <time>2018-03-07T09:54:10Z</time>
      </trkpt>
      <trkpt lat="45.86131" lon="4.71474">
        <ele>195</ele>
        <time>2018-03-07T09:54:11Z</time>
      </trkpt>
      <trkpt lat="45.86128" lon="4.71467">
        <ele>195</ele>
        <time>2018-03-07T09:54:12Z</time>
      </trkpt>
      <trkpt lat="45.86127" lon="4.71461">
        <ele>195</ele>
        <time>2018-03-07T09:54:13Z</time>
      </trkpt>
      <trkpt lat="45.86126" lon="4.71458">
        <ele>195</ele>
        <time>2018-03-07T09:54:14Z</time>
      </trkpt>
      <trkpt lat="45.86124" lon="4.71448">
        <ele>195</ele>
        <time>2018-03-07T09:54:15Z</time>
      </trkpt>
      <trkpt lat="45.86122" lon="4.71441">
        <ele>195</ele>
        <time>2018-03-07T09:54:16Z</time>
      </trkpt>
      <trkpt lat="45.86121" lon="4.71433">
        <ele>195</ele>
        <time>2018-03-07T09:54:17Z</time>
      </trkpt>
      <trkpt lat="45.86118" lon="4.71426">
        <ele>195</ele>
        <time>2018-03-07T09:54:18Z</time>
      </trkpt>
      <trkpt lat="45.86117" lon="4.71419">
        <ele>195</ele>
        <time>2018-03-07T09:54:19Z</time>
      </trkpt>
      <trkpt lat="45.86117" lon="4.71412">
        <ele>196</ele>
        <time>2018-03-07T09:54:20Z</time>
      </trkpt>
      <trkpt lat="45.86115" lon="4.71404">
        <ele>196</ele>
        <time>2018-03-07T09:54:21Z</time>
      </trkpt>
      <trkpt lat="45.86115" lon="4.71397">
        <ele>196</ele>
        <time>2018-03-07T09:54:22Z</time>
      </trkpt>
      <trkpt lat="45.86114" lon="4.71389">
        <ele>196</ele>
        <time>2018-03-07T09:54:23Z</time>
      </trkpt>
      <trkpt lat="45.86114" lon="4.71382">
        <ele>196</ele>
        <time>2018-03-07T09:54:24Z</time>
      </trkpt>
      <trkpt lat="45.86113" lon="4.71374">
        <ele>196</ele>
        <time>2018-03-07T09:54:25Z</time>
      </trkpt>
      <trkpt lat="45.86113" lon="4.71367">
        <ele>196</ele>
        <time>2018-03-07T09:54:26Z</time>
      </trkpt>
      <trkpt lat="45.86113" lon="4.71361">
        <ele>196</ele>
        <time>2018-03-07T09:54:27Z</time>
      </trkpt>
      <trkpt lat="45.86111" lon="4.71354">
        <ele>196</ele>
        <time>2018-03-07T09:54:28Z</time>
      </trkpt>
      <trkpt lat="45.8611" lon="4.71348">
        <ele>196</ele>
        <time>2018-03-07T09:54:29Z</time>
      </trkpt>
      <trkpt lat="45.86109" lon="4.71339">
        <ele>196</ele>
        <time>2018-03-07T09:54:30Z</time>
      </trkpt>
      <trkpt lat="45.86108" lon="4.71334">
        <ele>196</ele>
        <time>2018-03-07T09:54:31Z</time>
      </trkpt>
      <trkpt lat="45.86105" lon="4.71325">
        <ele>197</ele>
        <time>2018-03-07T09:54:32Z</time>
      </trkpt>
      <trkpt lat="45.86103" lon="4.71319">
        <ele>197</ele>
        <time>2018-03-07T09:54:33Z</time>
      </trkpt>
      <trkpt lat="45.861" lon="4.71308">
        <ele>197</ele>
        <time>2018-03-07T09:54:35Z</time>
      </trkpt>
      <trkpt lat="45.861" lon="4.71302">
        <ele>197</ele>
        <time>2018-03-07T09:54:36Z</time>
      </trkpt>
      <trkpt lat="45.86098" lon="4.71291">
        <ele>197</ele>
        <time>2018-03-07T09:54:38Z</time>
      </trkpt>
      <trkpt lat="45.86096" lon="4.71285">
        <ele>197</ele>
        <time>2018-03-07T09:54:39Z</time>
      </trkpt>
      <trkpt lat="45.86093" lon="4.71274">
        <ele>197</ele>
        <time>2018-03-07T09:54:41Z</time>
      </trkpt>
      <trkpt lat="45.86091" lon="4.71269">
        <ele>197</ele>
        <time>2018-03-07T09:54:42Z</time>
      </trkpt>
      <trkpt lat="45.86086" lon="4.7126">
        <ele>197</ele>
        <time>2018-03-07T09:54:44Z</time>
      </trkpt>
      <trkpt lat="45.86085" lon="4.71258">
        <ele>198</ele>
        <time>2018-03-07T09:54:45Z</time>
      </trkpt>
      <trkpt lat="45.86082" lon="4.71247">
        <ele>198</ele>
        <time>2018-03-07T09:54:47Z</time>
      </trkpt>
      <trkpt lat="45.86081" lon="4.7124">
        <ele>198</ele>
        <time>2018-03-07T09:54:48Z</time>
      </trkpt>
      <trkpt lat="45.86081" lon="4.71233">
        <ele>198</ele>
        <time>2018-03-07T09:54:49Z</time>
      </trkpt>
      <trkpt lat="45.8608" lon="4.71225">
        <ele>198</ele>
        <time>2018-03-07T09:54:50Z</time>
      </trkpt>
      <trkpt lat="45.86081" lon="4.71218">
        <ele>198</ele>
        <time>2018-03-07T09:54:51Z</time>
      </trkpt>
      <trkpt lat="45.86082" lon="4.71211">
        <ele>198</ele>
        <time>2018-03-07T09:54:52Z</time>
      </trkpt>
      <trkpt lat="45.86083" lon="4.71199">
        <ele>198</ele>
        <time>2018-03-07T09:54:54Z</time>
      </trkpt>
      <trkpt lat="45.86084" lon="4.71192">
        <ele>197</ele>
        <time>2018-03-07T09:54:55Z</time>
      </trkpt>
      <trkpt lat="45.86085" lon="4.71186">
        <ele>197</ele>
        <time>2018-03-07T09:54:56Z</time>
      </trkpt>
      <trkpt lat="45.86085" lon="4.71179">
        <ele>197</ele>
        <time>2018-03-07T09:54:57Z</time>
      </trkpt>
      <trkpt lat="45.86085" lon="4.71173">
        <ele>198</ele>
        <time>2018-03-07T09:54:58Z</time>
      </trkpt>
      <trkpt lat="45.86086" lon="4.71166">
        <ele>198</ele>
        <time>2018-03-07T09:54:59Z</time>
      </trkpt>
      <trkpt lat="45.86086" lon="4.71155">
        <ele>197</ele>
        <time>2018-03-07T09:55:01Z</time>
      </trkpt>
      <trkpt lat="45.86084" lon="4.71148">
        <ele>197</ele>
        <time>2018-03-07T09:55:02Z</time>
      </trkpt>
      <trkpt lat="45.8608" lon="4.71141">
        <ele>197</ele>
        <time>2018-03-07T09:55:04Z</time>
      </trkpt>
      <trkpt lat="45.86075" lon="4.71137">
        <ele>197</ele>
        <time>2018-03-07T09:55:05Z</time>
      </trkpt>
      <trkpt lat="45.86067" lon="4.71136">
        <ele>197</ele>
        <time>2018-03-07T09:55:07Z</time>
      </trkpt>
      <trkpt lat="45.86061" lon="4.71135">
        <ele>197</ele>
        <time>2018-03-07T09:55:08Z</time>
      </trkpt>
      <trkpt lat="45.86064" lon="4.71125">
        <ele>197</ele>
        <time>2018-03-07T09:55:09Z</time>
      </trkpt>
      <trkpt lat="45.86062" lon="4.71119">
        <ele>197</ele>
        <time>2018-03-07T09:55:10Z</time>
      </trkpt>
      <trkpt lat="45.86057" lon="4.71114">
        <ele>197</ele>
        <time>2018-03-07T09:55:11Z</time>
      </trkpt>
      <trkpt lat="45.86054" lon="4.71109">
        <ele>197</ele>
        <time>2018-03-07T09:55:12Z</time>
      </trkpt>
      <trkpt lat="45.86049" lon="4.71099">
        <ele>197</ele>
        <time>2018-03-07T09:55:14Z</time>
      </trkpt>
      <trkpt lat="45.86046" lon="4.71094">
        <ele>197</ele>
        <time>2018-03-07T09:55:15Z</time>
      </trkpt>
      <trkpt lat="45.86043" lon="4.71089">
        <ele>197</ele>
        <time>2018-03-07T09:55:16Z</time>
      </trkpt>
      <trkpt lat="45.86041" lon="4.71084">
        <ele>197</ele>
        <time>2018-03-07T09:55:17Z</time>
      </trkpt>
      <trkpt lat="45.86036" lon="4.71073">
        <ele>197</ele>
        <time>2018-03-07T09:55:19Z</time>
      </trkpt>
      <trkpt lat="45.86035" lon="4.71066">
        <ele>197</ele>
        <time>2018-03-07T09:55:20Z</time>
      </trkpt>
      <trkpt lat="45.86035" lon="4.71058">
        <ele>197</ele>
        <time>2018-03-07T09:55:21Z</time>
      </trkpt>
      <trkpt lat="45.86034" lon="4.71052">
        <ele>197</ele>
        <time>2018-03-07T09:55:22Z</time>
      </trkpt>
      <trkpt lat="45.86033" lon="4.71042">
        <ele>197</ele>
        <time>2018-03-07T09:55:23Z</time>
      </trkpt>
      <trkpt lat="45.86032" lon="4.71037">
        <ele>197</ele>
        <time>2018-03-07T09:55:24Z</time>
      </trkpt>
      <trkpt lat="45.8603" lon="4.7103">
        <ele>197</ele>
        <time>2018-03-07T09:55:25Z</time>
      </trkpt>
      <trkpt lat="45.86028" lon="4.71024">
        <ele>197</ele>
        <time>2018-03-07T09:55:26Z</time>
      </trkpt>
      <trkpt lat="45.86022" lon="4.71016">
        <ele>197</ele>
        <time>2018-03-07T09:55:28Z</time>
      </trkpt>
      <trkpt lat="45.86019" lon="4.71012">
        <ele>197</ele>
        <time>2018-03-07T09:55:29Z</time>
      </trkpt>
      <trkpt lat="45.86014" lon="4.71002">
        <ele>197</ele>
        <time>2018-03-07T09:55:31Z</time>
      </trkpt>
      <trkpt lat="45.86011" lon="4.70998">
        <ele>197</ele>
        <time>2018-03-07T09:55:32Z</time>
      </trkpt>
      <trkpt lat="45.86007" lon="4.70992">
        <ele>197</ele>
        <time>2018-03-07T09:55:33Z</time>
      </trkpt>
      <trkpt lat="45.86003" lon="4.70989">
        <ele>197</ele>
        <time>2018-03-07T09:55:34Z</time>
      </trkpt>
      <trkpt lat="45.85999" lon="4.70985">
        <ele>197</ele>
        <time>2018-03-07T09:55:35Z</time>
      </trkpt>
      <trkpt lat="45.85995" lon="4.70982">
        <ele>197</ele>
        <time>2018-03-07T09:55:36Z</time>
      </trkpt>
      <trkpt lat="45.85991" lon="4.70979">
        <ele>197</ele>
        <time>2018-03-07T09:55:37Z</time>
      </trkpt>
      <trkpt lat="45.85986" lon="4.70977">
        <ele>197</ele>
        <time>2018-03-07T09:55:38Z</time>
      </trkpt>
      <trkpt lat="45.85982" lon="4.70975">
        <ele>197</ele>
        <time>2018-03-07T09:55:39Z</time>
      </trkpt>
      <trkpt lat="45.85976" lon="4.70973">
        <ele>197</ele>
        <time>2018-03-07T09:55:40Z</time>
      </trkpt>
      <trkpt lat="45.85971" lon="4.70971">
        <ele>197</ele>
        <time>2018-03-07T09:55:41Z</time>
      </trkpt>
      <trkpt lat="45.85967" lon="4.7097">
        <ele>197</ele>
        <time>2018-03-07T09:55:42Z</time>
      </trkpt>
      <trkpt lat="45.8596" lon="4.70967">
        <ele>197</ele>
        <time>2018-03-07T09:55:43Z</time>
      </trkpt>
      <trkpt lat="45.85956" lon="4.70966">
        <ele>197</ele>
        <time>2018-03-07T09:55:44Z</time>
      </trkpt>
      <trkpt lat="45.85952" lon="4.70966">
        <ele>197</ele>
        <time>2018-03-07T09:55:45Z</time>
      </trkpt>
      <trkpt lat="45.85947" lon="4.70965">
        <ele>197</ele>
        <time>2018-03-07T09:55:46Z</time>
      </trkpt>
      <trkpt lat="45.8594" lon="4.70962">
        <ele>197</ele>
        <time>2018-03-07T09:55:48Z</time>
      </trkpt>
      <trkpt lat="45.85938" lon="4.70957">
        <ele>197</ele>
        <time>2018-03-07T09:55:49Z</time>
      </trkpt>
      <trkpt lat="45.85939" lon="4.70945">
        <ele>197</ele>
        <time>2018-03-07T09:55:51Z</time>
      </trkpt>
      <trkpt lat="45.8594" lon="4.7094">
        <ele>197</ele>
        <time>2018-03-07T09:55:52Z</time>
      </trkpt>
      <trkpt lat="45.85942" lon="4.70934">
        <ele>197</ele>
        <time>2018-03-07T09:55:53Z</time>
      </trkpt>
      <trkpt lat="45.85942" lon="4.70926">
        <ele>197</ele>
        <time>2018-03-07T09:55:54Z</time>
      </trkpt>
      <trkpt lat="45.85945" lon="4.7092">
        <ele>197</ele>
        <time>2018-03-07T09:55:55Z</time>
      </trkpt>
      <trkpt lat="45.85947" lon="4.70913">
        <ele>197</ele>
        <time>2018-03-07T09:55:56Z</time>
      </trkpt>
      <trkpt lat="45.8595" lon="4.70904">
        <ele>197</ele>
        <time>2018-03-07T09:55:57Z</time>
      </trkpt>
      <trkpt lat="45.85952" lon="4.70896">
        <ele>197</ele>
        <time>2018-03-07T09:55:58Z</time>
      </trkpt>
      <trkpt lat="45.85953" lon="4.70889">
        <ele>197</ele>
        <time>2018-03-07T09:55:59Z</time>
      </trkpt>
      <trkpt lat="45.85955" lon="4.70882">
        <ele>197</ele>
        <time>2018-03-07T09:56:00Z</time>
      </trkpt>
      <trkpt lat="45.85957" lon="4.70874">
        <ele>196</ele>
        <time>2018-03-07T09:56:01Z</time>
      </trkpt>
      <trkpt lat="45.85955" lon="4.70866">
        <ele>196</ele>
        <time>2018-03-07T09:56:02Z</time>
      </trkpt>
      <trkpt lat="45.85956" lon="4.70859">
        <ele>196</ele>
        <time>2018-03-07T09:56:03Z</time>
      </trkpt>
      <trkpt lat="45.85957" lon="4.70852">
        <ele>196</ele>
        <time>2018-03-07T09:56:04Z</time>
      </trkpt>
      <trkpt lat="45.85957" lon="4.70846">
        <ele>196</ele>
        <time>2018-03-07T09:56:05Z</time>
      </trkpt>
      <trkpt lat="45.85957" lon="4.70838">
        <ele>196</ele>
        <time>2018-03-07T09:56:06Z</time>
      </trkpt>
      <trkpt lat="45.85957" lon="4.70831">
        <ele>196</ele>
        <time>2018-03-07T09:56:07Z</time>
      </trkpt>
      <trkpt lat="45.85957" lon="4.70825">
        <ele>196</ele>
        <time>2018-03-07T09:56:08Z</time>
      </trkpt>
      <trkpt lat="45.85956" lon="4.70816">
        <ele>195</ele>
        <time>2018-03-07T09:56:10Z</time>
      </trkpt>
      <trkpt lat="45.85956" lon="4.70808">
        <ele>195</ele>
        <time>2018-03-07T09:56:11Z</time>
      </trkpt>
      <trkpt lat="45.85955" lon="4.70802">
        <ele>195</ele>
        <time>2018-03-07T09:56:12Z</time>
      </trkpt>
      <trkpt lat="45.85954" lon="4.70795">
        <ele>195</ele>
        <time>2018-03-07T09:56:13Z</time>
      </trkpt>
      <trkpt lat="45.85954" lon="4.70782">
        <ele>195</ele>
        <time>2018-03-07T09:56:15Z</time>
      </trkpt>
      <trkpt lat="45.85955" lon="4.70775">
        <ele>195</ele>
        <time>2018-03-07T09:56:16Z</time>
      </trkpt>
      <trkpt lat="45.85954" lon="4.70767">
        <ele>195</ele>
        <time>2018-03-07T09:56:17Z</time>
      </trkpt>
      <trkpt lat="45.85955" lon="4.70761">
        <ele>195</ele>
        <time>2018-03-07T09:56:18Z</time>
      </trkpt>
      <trkpt lat="45.85956" lon="4.70753">
        <ele>195</ele>
        <time>2018-03-07T09:56:19Z</time>
      </trkpt>
      <trkpt lat="45.85956" lon="4.70746">
        <ele>194</ele>
        <time>2018-03-07T09:56:20Z</time>
      </trkpt>
      <trkpt lat="45.85957" lon="4.7074">
        <ele>194</ele>
        <time>2018-03-07T09:56:21Z</time>
      </trkpt>
      <trkpt lat="45.85957" lon="4.70732">
        <ele>194</ele>
        <time>2018-03-07T09:56:22Z</time>
      </trkpt>
      <trkpt lat="45.85958" lon="4.70724">
        <ele>194</ele>
        <time>2018-03-07T09:56:23Z</time>
      </trkpt>
      <trkpt lat="45.85959" lon="4.70714">
        <ele>194</ele>
        <time>2018-03-07T09:56:24Z</time>
      </trkpt>
      <trkpt lat="45.8596" lon="4.70707">
        <ele>194</ele>
        <time>2018-03-07T09:56:25Z</time>
      </trkpt>
      <trkpt lat="45.85961" lon="4.70701">
        <ele>194</ele>
        <time>2018-03-07T09:56:26Z</time>
      </trkpt>
      <trkpt lat="45.85961" lon="4.70693">
        <ele>194</ele>
        <time>2018-03-07T09:56:27Z</time>
      </trkpt>
      <trkpt lat="45.85959" lon="4.70686">
        <ele>194</ele>
        <time>2018-03-07T09:56:28Z</time>
      </trkpt>
      <trkpt lat="45.85957" lon="4.70679">
        <ele>194</ele>
        <time>2018-03-07T09:56:29Z</time>
      </trkpt>
      <trkpt lat="45.85955" lon="4.70673">
        <ele>194</ele>
        <time>2018-03-07T09:56:30Z</time>
      </trkpt>
      <trkpt lat="45.85953" lon="4.70665">
        <ele>194</ele>
        <time>2018-03-07T09:56:31Z</time>
      </trkpt>
      <trkpt lat="45.8595" lon="4.70659">
        <ele>194</ele>
        <time>2018-03-07T09:56:32Z</time>
      </trkpt>
      <trkpt lat="45.85946" lon="4.70653">
        <ele>194</ele>
        <time>2018-03-07T09:56:33Z</time>
      </trkpt>
      <trkpt lat="45.85943" lon="4.70647">
        <ele>194</ele>
        <time>2018-03-07T09:56:34Z</time>
      </trkpt>
      <trkpt lat="45.85938" lon="4.70638">
        <ele>194</ele>
        <time>2018-03-07T09:56:36Z</time>
      </trkpt>
      <trkpt lat="45.85934" lon="4.70633">
        <ele>194</ele>
        <time>2018-03-07T09:56:37Z</time>
      </trkpt>
      <trkpt lat="45.85928" lon="4.70624">
        <ele>194</ele>
        <time>2018-03-07T09:56:39Z</time>
      </trkpt>
      <trkpt lat="45.85925" lon="4.70618">
        <ele>194</ele>
        <time>2018-03-07T09:56:40Z</time>
      </trkpt>
      <trkpt lat="45.85921" lon="4.70612">
        <ele>194</ele>
        <time>2018-03-07T09:56:41Z</time>
      </trkpt>
      <trkpt lat="45.85918" lon="4.70607">
        <ele>194</ele>
        <time>2018-03-07T09:56:42Z</time>
      </trkpt>
      <trkpt lat="45.85916" lon="4.706">
        <ele>195</ele>
        <time>2018-03-07T09:56:43Z</time>
      </trkpt>
      <trkpt lat="45.85913" lon="4.70595">
        <ele>195</ele>
        <time>2018-03-07T09:56:44Z</time>
      </trkpt>
      <trkpt lat="45.85908" lon="4.70591">
        <ele>195</ele>
        <time>2018-03-07T09:56:45Z</time>
      </trkpt>
      <trkpt lat="45.85904" lon="4.70586">
        <ele>195</ele>
        <time>2018-03-07T09:56:46Z</time>
      </trkpt>
      <trkpt lat="45.859" lon="4.70583">
        <ele>195</ele>
        <time>2018-03-07T09:56:47Z</time>
      </trkpt>
      <trkpt lat="45.85895" lon="4.70581">
        <ele>195</ele>
        <time>2018-03-07T09:56:48Z</time>
      </trkpt>
      <trkpt lat="45.85889" lon="4.70578">
        <ele>195</ele>
        <time>2018-03-07T09:56:49Z</time>
      </trkpt>
      <trkpt lat="45.85885" lon="4.70576">
        <ele>195</ele>
        <time>2018-03-07T09:56:50Z</time>
      </trkpt>
      <trkpt lat="45.8588" lon="4.70574">
        <ele>195</ele>
        <time>2018-03-07T09:56:51Z</time>
      </trkpt>
      <trkpt lat="45.85876" lon="4.70573">
        <ele>195</ele>
        <time>2018-03-07T09:56:52Z</time>
      </trkpt>
      <trkpt lat="45.85871" lon="4.70571">
        <ele>195</ele>
        <time>2018-03-07T09:56:53Z</time>
      </trkpt>
      <trkpt lat="45.85866" lon="4.70569">
        <ele>195</ele>
        <time>2018-03-07T09:56:54Z</time>
      </trkpt>
      <trkpt lat="45.85861" lon="4.70568">
        <ele>195</ele>
        <time>2018-03-07T09:56:55Z</time>
      </trkpt>
      <trkpt lat="45.85856" lon="4.70566">
        <ele>195</ele>
        <time>2018-03-07T09:56:56Z</time>
      </trkpt>
      <trkpt lat="45.85852" lon="4.70564">
        <ele>195</ele>
        <time>2018-03-07T09:56:57Z</time>
      </trkpt>
      <trkpt lat="45.85847" lon="4.70563">
        <ele>195</ele>
        <time>2018-03-07T09:56:58Z</time>
      </trkpt>
      <trkpt lat="45.85843" lon="4.70561">
        <ele>195</ele>
        <time>2018-03-07T09:56:59Z</time>
      </trkpt>
      <trkpt lat="45.85838" lon="4.7056">
        <ele>195</ele>
        <time>2018-03-07T09:57:00Z</time>
      </trkpt>
      <trkpt lat="45.85833" lon="4.70558">
        <ele>195</ele>
        <time>2018-03-07T09:57:01Z</time>
      </trkpt>
      <trkpt lat="45.85828" lon="4.70556">
        <ele>195</ele>
        <time>2018-03-07T09:57:02Z</time>
      </trkpt>
      <trkpt lat="45.85822" lon="4.70555">
        <ele>195</ele>
        <time>2018-03-07T09:57:03Z</time>
      </trkpt>
      <trkpt lat="45.85818" lon="4.70554">
        <ele>195</ele>
        <time>2018-03-07T09:57:04Z</time>
      </trkpt>
      <trkpt lat="45.85812" lon="4.70552">
        <ele>195</ele>
        <time>2018-03-07T09:57:05Z</time>
      </trkpt>
      <trkpt lat="45.85807" lon="4.70549">
        <ele>195</ele>
        <time>2018-03-07T09:57:06Z</time>
      </trkpt>
      <trkpt lat="45.85801" lon="4.70543">
        <ele>195</ele>
        <time>2018-03-07T09:57:08Z</time>
      </trkpt>
      <trkpt lat="45.85796" lon="4.70541">
        <ele>195</ele>
        <time>2018-03-07T09:57:09Z</time>
      </trkpt>
      <trkpt lat="45.85792" lon="4.70537">
        <ele>195</ele>
        <time>2018-03-07T09:57:10Z</time>
      </trkpt>
      <trkpt lat="45.85788" lon="4.70535">
        <ele>196</ele>
        <time>2018-03-07T09:57:11Z</time>
      </trkpt>
      <trkpt lat="45.85782" lon="4.70533">
        <ele>196</ele>
        <time>2018-03-07T09:57:12Z</time>
      </trkpt>
      <trkpt lat="45.85779" lon="4.70529">
        <ele>196</ele>
        <time>2018-03-07T09:57:13Z</time>
      </trkpt>
      <trkpt lat="45.85774" lon="4.70524">
        <ele>196</ele>
        <time>2018-03-07T09:57:14Z</time>
      </trkpt>
      <trkpt lat="45.85767" lon="4.70521">
        <ele>196</ele>
        <time>2018-03-07T09:57:15Z</time>
      </trkpt>
      <trkpt lat="45.85762" lon="4.70518">
        <ele>196</ele>
        <time>2018-03-07T09:57:16Z</time>
      </trkpt>
      <trkpt lat="45.85758" lon="4.70515">
        <ele>196</ele>
        <time>2018-03-07T09:57:17Z</time>
      </trkpt>
      <trkpt lat="45.85754" lon="4.70511">
        <ele>196</ele>
        <time>2018-03-07T09:57:18Z</time>
      </trkpt>
      <trkpt lat="45.85748" lon="4.7051">
        <ele>196</ele>
        <time>2018-03-07T09:57:19Z</time>
      </trkpt>
      <trkpt lat="45.85742" lon="4.70503">
        <ele>196</ele>
        <time>2018-03-07T09:57:21Z</time>
      </trkpt>
      <trkpt lat="45.85739" lon="4.70499">
        <ele>196</ele>
        <time>2018-03-07T09:57:22Z</time>
      </trkpt>
      <trkpt lat="45.85734" lon="4.70489">
        <ele>196</ele>
        <time>2018-03-07T09:57:24Z</time>
      </trkpt>
      <trkpt lat="45.85732" lon="4.70484">
        <ele>196</ele>
        <time>2018-03-07T09:57:25Z</time>
      </trkpt>
      <trkpt lat="45.85727" lon="4.70473">
        <ele>196</ele>
        <time>2018-03-07T09:57:27Z</time>
      </trkpt>
      <trkpt lat="45.85726" lon="4.70467">
        <ele>196</ele>
        <time>2018-03-07T09:57:28Z</time>
      </trkpt>
      <trkpt lat="45.85726" lon="4.70464">
        <ele>196</ele>
        <time>2018-03-07T09:57:29Z</time>
      </trkpt>
      <trkpt lat="45.85723" lon="4.70454">
        <ele>196</ele>
        <time>2018-03-07T09:57:30Z</time>
      </trkpt>
      <trkpt lat="45.85723" lon="4.70447">
        <ele>196</ele>
        <time>2018-03-07T09:57:31Z</time>
      </trkpt>
      <trkpt lat="45.85721" lon="4.70441">
        <ele>196</ele>
        <time>2018-03-07T09:57:32Z</time>
      </trkpt>
      <trkpt lat="45.85717" lon="4.70429">
        <ele>196</ele>
        <time>2018-03-07T09:57:34Z</time>
      </trkpt>
      <trkpt lat="45.85716" lon="4.70423">
        <ele>196</ele>
        <time>2018-03-07T09:57:35Z</time>
      </trkpt>
      <trkpt lat="45.85713" lon="4.70416">
        <ele>196</ele>
        <time>2018-03-07T09:57:36Z</time>
      </trkpt>
      <trkpt lat="45.85714" lon="4.7041">
        <ele>196</ele>
        <time>2018-03-07T09:57:37Z</time>
      </trkpt>
      <trkpt lat="45.85713" lon="4.70401">
        <ele>196</ele>
        <time>2018-03-07T09:57:38Z</time>
      </trkpt>
      <trkpt lat="45.85713" lon="4.70394">
        <ele>196</ele>
        <time>2018-03-07T09:57:39Z</time>
      </trkpt>
      <trkpt lat="45.85712" lon="4.70387">
        <ele>196</ele>
        <time>2018-03-07T09:57:40Z</time>
      </trkpt>
      <trkpt lat="45.8571" lon="4.70381">
        <ele>196</ele>
        <time>2018-03-07T09:57:41Z</time>
      </trkpt>
      <trkpt lat="45.85708" lon="4.70369">
        <ele>196</ele>
        <time>2018-03-07T09:57:43Z</time>
      </trkpt>
      <trkpt lat="45.85708" lon="4.70362">
        <ele>196</ele>
        <time>2018-03-07T09:57:44Z</time>
      </trkpt>
      <trkpt lat="45.85707" lon="4.70354">
        <ele>196</ele>
        <time>2018-03-07T09:57:45Z</time>
      </trkpt>
      <trkpt lat="45.85707" lon="4.70347">
        <ele>196</ele>
        <time>2018-03-07T09:57:46Z</time>
      </trkpt>
      <trkpt lat="45.85707" lon="4.7034">
        <ele>196</ele>
        <time>2018-03-07T09:57:47Z</time>
      </trkpt>
      <trkpt lat="45.85708" lon="4.70334">
        <ele>196</ele>
        <time>2018-03-07T09:57:48Z</time>
      </trkpt>
      <trkpt lat="45.85708" lon="4.70327">
        <ele>197</ele>
        <time>2018-03-07T09:57:49Z</time>
      </trkpt>
      <trkpt lat="45.85707" lon="4.7032">
        <ele>197</ele>
        <time>2018-03-07T09:57:50Z</time>
      </trkpt>
      <trkpt lat="45.85705" lon="4.70312">
        <ele>197</ele>
        <time>2018-03-07T09:57:51Z</time>
      </trkpt>
      <trkpt lat="45.85704" lon="4.70305">
        <ele>197</ele>
        <time>2018-03-07T09:57:52Z</time>
      </trkpt>
      <trkpt lat="45.85704" lon="4.70298">
        <ele>197</ele>
        <time>2018-03-07T09:57:53Z</time>
      </trkpt>
      <trkpt lat="45.85703" lon="4.70291">
        <ele>197</ele>
        <time>2018-03-07T09:57:54Z</time>
      </trkpt>
      <trkpt lat="45.85703" lon="4.70285">
        <ele>197</ele>
        <time>2018-03-07T09:57:55Z</time>
      </trkpt>
      <trkpt lat="45.85702" lon="4.70278">
        <ele>197</ele>
        <time>2018-03-07T09:57:56Z</time>
      </trkpt>
      <trkpt lat="45.85702" lon="4.70271">
        <ele>197</ele>
        <time>2018-03-07T09:57:57Z</time>
      </trkpt>
      <trkpt lat="45.85701" lon="4.70264">
        <ele>197</ele>
        <time>2018-03-07T09:57:58Z</time>
      </trkpt>
      <trkpt lat="45.857" lon="4.70257">
        <ele>197</ele>
        <time>2018-03-07T09:57:59Z</time>
      </trkpt>
      <trkpt lat="45.85699" lon="4.70251">
        <ele>197</ele>
        <time>2018-03-07T09:58:00Z</time>
      </trkpt>
      <trkpt lat="45.85696" lon="4.7024">
        <ele>197</ele>
        <time>2018-03-07T09:58:02Z</time>
      </trkpt>
      <trkpt lat="45.85695" lon="4.70232">
        <ele>197</ele>
        <time>2018-03-07T09:58:03Z</time>
      </trkpt>
      <trkpt lat="45.85696" lon="4.70225">
        <ele>197</ele>
        <time>2018-03-07T09:58:04Z</time>
      </trkpt>
      <trkpt lat="45.85695" lon="4.70218">
        <ele>197</ele>
        <time>2018-03-07T09:58:05Z</time>
      </trkpt>
      <trkpt lat="45.85692" lon="4.70211">
        <ele>197</ele>
        <time>2018-03-07T09:58:06Z</time>
      </trkpt>
      <trkpt lat="45.8569" lon="4.70204">
        <ele>197</ele>
        <time>2018-03-07T09:58:07Z</time>
      </trkpt>
      <trkpt lat="45.85688" lon="4.70196">
        <ele>197</ele>
        <time>2018-03-07T09:58:08Z</time>
      </trkpt>
      <trkpt lat="45.85686" lon="4.70189">
        <ele>197</ele>
        <time>2018-03-07T09:58:09Z</time>
      </trkpt>
      <trkpt lat="45.85684" lon="4.7018">
        <ele>197</ele>
        <time>2018-03-07T09:58:10Z</time>
      </trkpt>
      <trkpt lat="45.85683" lon="4.70171">
        <ele>197</ele>
        <time>2018-03-07T09:58:11Z</time>
      </trkpt>
      <trkpt lat="45.85682" lon="4.70165">
        <ele>197</ele>
        <time>2018-03-07T09:58:12Z</time>
      </trkpt>
      <trkpt lat="45.85681" lon="4.70158">
        <ele>197</ele>
        <time>2018-03-07T09:58:13Z</time>
      </trkpt>
      <trkpt lat="45.8568" lon="4.70149">
        <ele>197</ele>
        <time>2018-03-07T09:58:14Z</time>
      </trkpt>
      <trkpt lat="45.85679" lon="4.70141">
        <ele>197</ele>
        <time>2018-03-07T09:58:15Z</time>
      </trkpt>
      <trkpt lat="45.85678" lon="4.70134">
        <ele>197</ele>
        <time>2018-03-07T09:58:16Z</time>
      </trkpt>
      <trkpt lat="45.85677" lon="4.70126">
        <ele>197</ele>
        <time>2018-03-07T09:58:17Z</time>
      </trkpt>
      <trkpt lat="45.85677" lon="4.7012">
        <ele>197</ele>
        <time>2018-03-07T09:58:18Z</time>
      </trkpt>
      <trkpt lat="45.85677" lon="4.70112">
        <ele>197</ele>
        <time>2018-03-07T09:58:19Z</time>
      </trkpt>
      <trkpt lat="45.85678" lon="4.70105">
        <ele>196</ele>
        <time>2018-03-07T09:58:20Z</time>
      </trkpt>
      <trkpt lat="45.85678" lon="4.70099">
        <ele>196</ele>
        <time>2018-03-07T09:58:21Z</time>
      </trkpt>
      <trkpt lat="45.85679" lon="4.7009">
        <ele>196</ele>
        <time>2018-03-07T09:58:22Z</time>
      </trkpt>
      <trkpt lat="45.8568" lon="4.70084">
        <ele>196</ele>
        <time>2018-03-07T09:58:23Z</time>
      </trkpt>
      <trkpt lat="45.85681" lon="4.70073">
        <ele>196</ele>
        <time>2018-03-07T09:58:25Z</time>
      </trkpt>
      <trkpt lat="45.85683" lon="4.70068">
        <ele>196</ele>
        <time>2018-03-07T09:58:26Z</time>
      </trkpt>
      <trkpt lat="45.85685" lon="4.70057">
        <ele>195</ele>
        <time>2018-03-07T09:58:28Z</time>
      </trkpt>
      <trkpt lat="45.85686" lon="4.70055">
        <ele>195</ele>
        <time>2018-03-07T09:58:29Z</time>
      </trkpt>
      <trkpt lat="45.85689" lon="4.70047">
        <ele>195</ele>
        <time>2018-03-07T09:58:31Z</time>
      </trkpt>
      <trkpt lat="45.85689" lon="4.7004">
        <ele>195</ele>
        <time>2018-03-07T09:58:32Z</time>
      </trkpt>
      <trkpt lat="45.85691" lon="4.70028">
        <ele>195</ele>
        <time>2018-03-07T09:58:34Z</time>
      </trkpt>
      <trkpt lat="45.85691" lon="4.7002">
        <ele>195</ele>
        <time>2018-03-07T09:58:35Z</time>
      </trkpt>
      <trkpt lat="45.85692" lon="4.70009">
        <ele>195</ele>
        <time>2018-03-07T09:58:37Z</time>
      </trkpt>
      <trkpt lat="45.85692" lon="4.7">
        <ele>195</ele>
        <time>2018-03-07T09:58:38Z</time>
      </trkpt>
      <trkpt lat="45.85692" lon="4.69993">
        <ele>195</ele>
        <time>2018-03-07T09:58:39Z</time>
      </trkpt>
      <trkpt lat="45.85691" lon="4.69986">
        <ele>195</ele>
        <time>2018-03-07T09:58:40Z</time>
      </trkpt>
      <trkpt lat="45.8569" lon="4.69979">
        <ele>195</ele>
        <time>2018-03-07T09:58:41Z</time>
      </trkpt>
      <trkpt lat="45.85689" lon="4.69971">
        <ele>195</ele>
        <time>2018-03-07T09:58:42Z</time>
      </trkpt>
      <trkpt lat="45.85687" lon="4.69964">
        <ele>195</ele>
        <time>2018-03-07T09:58:43Z</time>
      </trkpt>
      <trkpt lat="45.85685" lon="4.69956">
        <ele>195</ele>
        <time>2018-03-07T09:58:44Z</time>
      </trkpt>
      <trkpt lat="45.85683" lon="4.69948">
        <ele>195</ele>
        <time>2018-03-07T09:58:45Z</time>
      </trkpt>
      <trkpt lat="45.85682" lon="4.69941">
        <ele>195</ele>
        <time>2018-03-07T09:58:46Z</time>
      </trkpt>
      <trkpt lat="45.8568" lon="4.69933">
        <ele>195</ele>
        <time>2018-03-07T09:58:47Z</time>
      </trkpt>
      <trkpt lat="45.85677" lon="4.69925">
        <ele>195</ele>
        <time>2018-03-07T09:58:48Z</time>
      </trkpt>
      <trkpt lat="45.85675" lon="4.69918">
        <ele>195</ele>
        <time>2018-03-07T09:58:49Z</time>
      </trkpt>
      <trkpt lat="45.85673" lon="4.6991">
        <ele>195</ele>
        <time>2018-03-07T09:58:50Z</time>
      </trkpt>
      <trkpt lat="45.85671" lon="4.69903">
        <ele>195</ele>
        <time>2018-03-07T09:58:51Z</time>
      </trkpt>
      <trkpt lat="45.8567" lon="4.69895">
        <ele>195</ele>
        <time>2018-03-07T09:58:52Z</time>
      </trkpt>
      <trkpt lat="45.85665" lon="4.69889">
        <ele>195</ele>
        <time>2018-03-07T09:58:53Z</time>
      </trkpt>
      <trkpt lat="45.85664" lon="4.69883">
        <ele>195</ele>
        <time>2018-03-07T09:58:54Z</time>
      </trkpt>
      <trkpt lat="45.85663" lon="4.69876">
        <ele>195</ele>
        <time>2018-03-07T09:58:55Z</time>
      </trkpt>
      <trkpt lat="45.85662" lon="4.69868">
        <ele>195</ele>
        <time>2018-03-07T09:58:56Z</time>
      </trkpt>
      <trkpt lat="45.85661" lon="4.6986">
        <ele>195</ele>
        <time>2018-03-07T09:58:57Z</time>
      </trkpt>
      <trkpt lat="45.85661" lon="4.69851">
        <ele>195</ele>
        <time>2018-03-07T09:58:58Z</time>
      </trkpt>
      <trkpt lat="45.8566" lon="4.69844">
        <ele>195</ele>
        <time>2018-03-07T09:58:59Z</time>
      </trkpt>
      <trkpt lat="45.8566" lon="4.69837">
        <ele>195</ele>
        <time>2018-03-07T09:59:00Z</time>
      </trkpt>
      <trkpt lat="45.85658" lon="4.69828">
        <ele>195</ele>
        <time>2018-03-07T09:59:01Z</time>
      </trkpt>
      <trkpt lat="45.85658" lon="4.69822">
        <ele>195</ele>
        <time>2018-03-07T09:59:02Z</time>
      </trkpt>
      <trkpt lat="45.85657" lon="4.69815">
        <ele>195</ele>
        <time>2018-03-07T09:59:03Z</time>
      </trkpt>
      <trkpt lat="45.85657" lon="4.69808">
        <ele>195</ele>
        <time>2018-03-07T09:59:04Z</time>
      </trkpt>
      <trkpt lat="45.85657" lon="4.69797">
        <ele>195</ele>
        <time>2018-03-07T09:59:06Z</time>
      </trkpt>
      <trkpt lat="45.85657" lon="4.69791">
        <ele>195</ele>
        <time>2018-03-07T09:59:07Z</time>
      </trkpt>
      <trkpt lat="45.85656" lon="4.69785">
        <ele>195</ele>
        <time>2018-03-07T09:59:08Z</time>
      </trkpt>
      <trkpt lat="45.85656" lon="4.69778">
        <ele>195</ele>
        <time>2018-03-07T09:59:09Z</time>
      </trkpt>
      <trkpt lat="45.85655" lon="4.69771">
        <ele>195</ele>
        <time>2018-03-07T09:59:10Z</time>
      </trkpt>
      <trkpt lat="45.85655" lon="4.69764">
        <ele>195</ele>
        <time>2018-03-07T09:59:11Z</time>
      </trkpt>
      <trkpt lat="45.85653" lon="4.69752">
        <ele>195</ele>
        <time>2018-03-07T09:59:13Z</time>
      </trkpt>
      <trkpt lat="45.85653" lon="4.69745">
        <ele>195</ele>
        <time>2018-03-07T09:59:14Z</time>
      </trkpt>
      <trkpt lat="45.85652" lon="4.69735">
        <ele>195</ele>
        <time>2018-03-07T09:59:16Z</time>
      </trkpt>
      <trkpt lat="45.85651" lon="4.69729">
        <ele>195</ele>
        <time>2018-03-07T09:59:17Z</time>
      </trkpt>
      <trkpt lat="45.85649" lon="4.69718">
        <ele>196</ele>
        <time>2018-03-07T09:59:19Z</time>
      </trkpt>
      <trkpt lat="45.85649" lon="4.69712">
        <ele>196</ele>
        <time>2018-03-07T09:59:20Z</time>
      </trkpt>
      <trkpt lat="45.85648" lon="4.69704">
        <ele>196</ele>
        <time>2018-03-07T09:59:21Z</time>
      </trkpt>
      <trkpt lat="45.85647" lon="4.69697">
        <ele>196</ele>
        <time>2018-03-07T09:59:22Z</time>
      </trkpt>
      <trkpt lat="45.85647" lon="4.6969">
        <ele>196</ele>
        <time>2018-03-07T09:59:23Z</time>
      </trkpt>
      <trkpt lat="45.85646" lon="4.69683">
        <ele>196</ele>
        <time>2018-03-07T09:59:24Z</time>
      </trkpt>
      <trkpt lat="45.85646" lon="4.69675">
        <ele>196</ele>
        <time>2018-03-07T09:59:25Z</time>
      </trkpt>
      <trkpt lat="45.85645" lon="4.69668">
        <ele>196</ele>
        <time>2018-03-07T09:59:26Z</time>
      </trkpt>
      <trkpt lat="45.85643" lon="4.69656">
        <ele>197</ele>
        <time>2018-03-07T09:59:28Z</time>
      </trkpt>
      <trkpt lat="45.85643" lon="4.6965">
        <ele>197</ele>
        <time>2018-03-07T09:59:29Z</time>
      </trkpt>
      <trkpt lat="45.85643" lon="4.69644">
        <ele>197</ele>
        <time>2018-03-07T09:59:30Z</time>
      </trkpt>
      <trkpt lat="45.85642" lon="4.69637">
        <ele>197</ele>
        <time>2018-03-07T09:59:31Z</time>
      </trkpt>
      <trkpt lat="45.85641" lon="4.69629">
        <ele>197</ele>
        <time>2018-03-07T09:59:32Z</time>
      </trkpt>
      <trkpt lat="45.8564" lon="4.69624">
        <ele>197</ele>
        <time>2018-03-07T09:59:33Z</time>
      </trkpt>
      <trkpt lat="45.85639" lon="4.69611">
        <ele>197</ele>
        <time>2018-03-07T09:59:35Z</time>
      </trkpt>
      <trkpt lat="45.85636" lon="4.69602">
        <ele>197</ele>
        <time>2018-03-07T09:59:36Z</time>
      </trkpt>
      <trkpt lat="45.85636" lon="4.69595">
        <ele>197</ele>
        <time>2018-03-07T09:59:37Z</time>
      </trkpt>
      <trkpt lat="45.85636" lon="4.69588">
        <ele>197</ele>
        <time>2018-03-07T09:59:38Z</time>
      </trkpt>
      <trkpt lat="45.85636" lon="4.69582">
        <ele>198</ele>
        <time>2018-03-07T09:59:39Z</time>
      </trkpt>
      <trkpt lat="45.85634" lon="4.69576">
        <ele>198</ele>
        <time>2018-03-07T09:59:40Z</time>
      </trkpt>
      <trkpt lat="45.85635" lon="4.69569">
        <ele>198</ele>
        <time>2018-03-07T09:59:41Z</time>
      </trkpt>
      <trkpt lat="45.85634" lon="4.69562">
        <ele>198</ele>
        <time>2018-03-07T09:59:42Z</time>
      </trkpt>
      <trkpt lat="45.85633" lon="4.69554">
        <ele>198</ele>
        <time>2018-03-07T09:59:43Z</time>
      </trkpt>
      <trkpt lat="45.85632" lon="4.69547">
        <ele>198</ele>
        <time>2018-03-07T09:59:44Z</time>
      </trkpt>
      <trkpt lat="45.85631" lon="4.69541">
        <ele>198</ele>
        <time>2018-03-07T09:59:45Z</time>
      </trkpt>
      <trkpt lat="45.85632" lon="4.69533">
        <ele>198</ele>
        <time>2018-03-07T09:59:46Z</time>
      </trkpt>
      <trkpt lat="45.85631" lon="4.69521">
        <ele>198</ele>
        <time>2018-03-07T09:59:48Z</time>
      </trkpt>
      <trkpt lat="45.8563" lon="4.69515">
        <ele>198</ele>
        <time>2018-03-07T09:59:49Z</time>
      </trkpt>
      <trkpt lat="45.85629" lon="4.69508">
        <ele>198</ele>
        <time>2018-03-07T09:59:50Z</time>
      </trkpt>
      <trkpt lat="45.85629" lon="4.69501">
        <ele>198</ele>
        <time>2018-03-07T09:59:51Z</time>
      </trkpt>
      <trkpt lat="45.85626" lon="4.69494">
        <ele>198</ele>
        <time>2018-03-07T09:59:52Z</time>
      </trkpt>
      <trkpt lat="45.85624" lon="4.69489">
        <ele>198</ele>
        <time>2018-03-07T09:59:53Z</time>
      </trkpt>
      <trkpt lat="45.85625" lon="4.69482">
        <ele>198</ele>
        <time>2018-03-07T09:59:54Z</time>
      </trkpt>
      <trkpt lat="45.85625" lon="4.69474">
        <ele>198</ele>
        <time>2018-03-07T09:59:55Z</time>
      </trkpt>
      <trkpt lat="45.85624" lon="4.69467">
        <ele>198</ele>
        <time>2018-03-07T09:59:56Z</time>
      </trkpt>
      <trkpt lat="45.85624" lon="4.69461">
        <ele>198</ele>
        <time>2018-03-07T09:59:57Z</time>
      </trkpt>
      <trkpt lat="45.85622" lon="4.69449">
        <ele>198</ele>
        <time>2018-03-07T09:59:59Z</time>
      </trkpt>
      <trkpt lat="45.85622" lon="4.69441">
        <ele>198</ele>
        <time>2018-03-07T10:00:00Z</time>
      </trkpt>
      <trkpt lat="45.8562" lon="4.6943">
        <ele>198</ele>
        <time>2018-03-07T10:00:02Z</time>
      </trkpt>
      <trkpt lat="45.8562" lon="4.69424">
        <ele>198</ele>
        <time>2018-03-07T10:00:03Z</time>
      </trkpt>
      <trkpt lat="45.85619" lon="4.69418">
        <ele>198</ele>
        <time>2018-03-07T10:00:04Z</time>
      </trkpt>
      <trkpt lat="45.85619" lon="4.69411">
        <ele>198</ele>
        <time>2018-03-07T10:00:05Z</time>
      </trkpt>
      <trkpt lat="45.85618" lon="4.69404">
        <ele>198</ele>
        <time>2018-03-07T10:00:06Z</time>
      </trkpt>
      <trkpt lat="45.85618" lon="4.69398">
        <ele>198</ele>
        <time>2018-03-07T10:00:07Z</time>
      </trkpt>
      <trkpt lat="45.85617" lon="4.69386">
        <ele>198</ele>
        <time>2018-03-07T10:00:09Z</time>
      </trkpt>
      <trkpt lat="45.85617" lon="4.69379">
        <ele>198</ele>
        <time>2018-03-07T10:00:10Z</time>
      </trkpt>
      <trkpt lat="45.85616" lon="4.69373">
        <ele>198</ele>
        <time>2018-03-07T10:00:11Z</time>
      </trkpt>
      <trkpt lat="45.85615" lon="4.69365">
        <ele>198</ele>
        <time>2018-03-07T10:00:12Z</time>
      </trkpt>
      <trkpt lat="45.85614" lon="4.69353">
        <ele>198</ele>
        <time>2018-03-07T10:00:14Z</time>
      </trkpt>
      <trkpt lat="45.85614" lon="4.69347">
        <ele>198</ele>
        <time>2018-03-07T10:00:15Z</time>
      </trkpt>
      <trkpt lat="45.85613" lon="4.6934">
        <ele>198</ele>
        <time>2018-03-07T10:00:16Z</time>
      </trkpt>
      <trkpt lat="45.85612" lon="4.69334">
        <ele>198</ele>
        <time>2018-03-07T10:00:17Z</time>
      </trkpt>
      <trkpt lat="45.85611" lon="4.69322">
        <ele>198</ele>
        <time>2018-03-07T10:00:19Z</time>
      </trkpt>
      <trkpt lat="45.85611" lon="4.69315">
        <ele>198</ele>
        <time>2018-03-07T10:00:20Z</time>
      </trkpt>
      <trkpt lat="45.85609" lon="4.69303">
        <ele>198</ele>
        <time>2018-03-07T10:00:22Z</time>
      </trkpt>
      <trkpt lat="45.85607" lon="4.69296">
        <ele>198</ele>
        <time>2018-03-07T10:00:23Z</time>
      </trkpt>
      <trkpt lat="45.85607" lon="4.69284">
        <ele>198</ele>
        <time>2018-03-07T10:00:25Z</time>
      </trkpt>
      <trkpt lat="45.85607" lon="4.69278">
        <ele>198</ele>
        <time>2018-03-07T10:00:26Z</time>
      </trkpt>
      <trkpt lat="45.85608" lon="4.69266">
        <ele>198</ele>
        <time>2018-03-07T10:00:28Z</time>
      </trkpt>
      <trkpt lat="45.85606" lon="4.6926">
        <ele>198</ele>
        <time>2018-03-07T10:00:29Z</time>
      </trkpt>
      <trkpt lat="45.85605" lon="4.69247">
        <ele>199</ele>
        <time>2018-03-07T10:00:31Z</time>
      </trkpt>
      <trkpt lat="45.85603" lon="4.69242">
        <ele>199</ele>
        <time>2018-03-07T10:00:32Z</time>
      </trkpt>
      <trkpt lat="45.85601" lon="4.69231">
        <ele>199</ele>
        <time>2018-03-07T10:00:34Z</time>
      </trkpt>
      <trkpt lat="45.85599" lon="4.69226">
        <ele>199</ele>
        <time>2018-03-07T10:00:35Z</time>
      </trkpt>
      <trkpt lat="45.85599" lon="4.69218">
        <ele>199</ele>
        <time>2018-03-07T10:00:36Z</time>
      </trkpt>
      <trkpt lat="45.85599" lon="4.69211">
        <ele>199</ele>
        <time>2018-03-07T10:00:37Z</time>
      </trkpt>
      <trkpt lat="45.85599" lon="4.69204">
        <ele>199</ele>
        <time>2018-03-07T10:00:38Z</time>
      </trkpt>
      <trkpt lat="45.85598" lon="4.69197">
        <ele>199</ele>
        <time>2018-03-07T10:00:39Z</time>
      </trkpt>
      <trkpt lat="45.85598" lon="4.69191">
        <ele>199</ele>
        <time>2018-03-07T10:00:40Z</time>
      </trkpt>
      <trkpt lat="45.85597" lon="4.69183">
        <ele>199</ele>
        <time>2018-03-07T10:00:41Z</time>
      </trkpt>
      <trkpt lat="45.85597" lon="4.69176">
        <ele>199</ele>
        <time>2018-03-07T10:00:42Z</time>
      </trkpt>
      <trkpt lat="45.85596" lon="4.69169">
        <ele>199</ele>
        <time>2018-03-07T10:00:43Z</time>
      </trkpt>
      <trkpt lat="45.85596" lon="4.69163">
        <ele>199</ele>
        <time>2018-03-07T10:00:44Z</time>
      </trkpt>
      <trkpt lat="45.85595" lon="4.69156">
        <ele>199</ele>
        <time>2018-03-07T10:00:45Z</time>
      </trkpt>
      <trkpt lat="45.85594" lon="4.69148">
        <ele>199</ele>
        <time>2018-03-07T10:00:46Z</time>
      </trkpt>
      <trkpt lat="45.85593" lon="4.69141">
        <ele>199</ele>
        <time>2018-03-07T10:00:47Z</time>
      </trkpt>
      <trkpt lat="45.85593" lon="4.69134">
        <ele>199</ele>
        <time>2018-03-07T10:00:48Z</time>
      </trkpt>
      <trkpt lat="45.85593" lon="4.69128">
        <ele>199</ele>
        <time>2018-03-07T10:00:49Z</time>
      </trkpt>
      <trkpt lat="45.85592" lon="4.69121">
        <ele>198</ele>
        <time>2018-03-07T10:00:50Z</time>
      </trkpt>
      <trkpt lat="45.85591" lon="4.69114">
        <ele>199</ele>
        <time>2018-03-07T10:00:51Z</time>
      </trkpt>
      <trkpt lat="45.8559" lon="4.69107">
        <ele>199</ele>
        <time>2018-03-07T10:00:52Z</time>
      </trkpt>
      <trkpt lat="45.85589" lon="4.69101">
        <ele>199</ele>
        <time>2018-03-07T10:00:53Z</time>
      </trkpt>
      <trkpt lat="45.85588" lon="4.69094">
        <ele>199</ele>
        <time>2018-03-07T10:00:54Z</time>
      </trkpt>
      <trkpt lat="45.85588" lon="4.69088">
        <ele>199</ele>
        <time>2018-03-07T10:00:55Z</time>
      </trkpt>
      <trkpt lat="45.85589" lon="4.69081">
        <ele>199</ele>
        <time>2018-03-07T10:00:56Z</time>
      </trkpt>
      <trkpt lat="45.85588" lon="4.69074">
        <ele>199</ele>
        <time>2018-03-07T10:00:57Z</time>
      </trkpt>
      <trkpt lat="45.85587" lon="4.69065">
        <ele>199</ele>
        <time>2018-03-07T10:00:58Z</time>
      </trkpt>
      <trkpt lat="45.85586" lon="4.69056">
        <ele>199</ele>
        <time>2018-03-07T10:00:59Z</time>
      </trkpt>
      <trkpt lat="45.85585" lon="4.69048">
        <ele>199</ele>
        <time>2018-03-07T10:01:00Z</time>
      </trkpt>
      <trkpt lat="45.85584" lon="4.69041">
        <ele>199</ele>
        <time>2018-03-07T10:01:01Z</time>
      </trkpt>
      <trkpt lat="45.85584" lon="4.69034">
        <ele>199</ele>
        <time>2018-03-07T10:01:02Z</time>
      </trkpt>
      <trkpt lat="45.85584" lon="4.69027">
        <ele>199</ele>
        <time>2018-03-07T10:01:03Z</time>
      </trkpt>
      <trkpt lat="45.85583" lon="4.69021">
        <ele>200</ele>
        <time>2018-03-07T10:01:04Z</time>
      </trkpt>
      <trkpt lat="45.85583" lon="4.69014">
        <ele>200</ele>
        <time>2018-03-07T10:01:05Z</time>
      </trkpt>
      <trkpt lat="45.85582" lon="4.69006">
        <ele>200</ele>
        <time>2018-03-07T10:01:06Z</time>
      </trkpt>
      <trkpt lat="45.85581" lon="4.68999">
        <ele>200</ele>
        <time>2018-03-07T10:01:07Z</time>
      </trkpt>
      <trkpt lat="45.85581" lon="4.68992">
        <ele>200</ele>
        <time>2018-03-07T10:01:08Z</time>
      </trkpt>
      <trkpt lat="45.85582" lon="4.68984">
        <ele>200</ele>
        <time>2018-03-07T10:01:09Z</time>
      </trkpt>
      <trkpt lat="45.85581" lon="4.68976">
        <ele>200</ele>
        <time>2018-03-07T10:01:10Z</time>
      </trkpt>
      <trkpt lat="45.85581" lon="4.68969">
        <ele>200</ele>
        <time>2018-03-07T10:01:11Z</time>
      </trkpt>
      <trkpt lat="45.85578" lon="4.68962">
        <ele>200</ele>
        <time>2018-03-07T10:01:12Z</time>
      </trkpt>
      <trkpt lat="45.85577" lon="4.68955">
        <ele>200</ele>
        <time>2018-03-07T10:01:13Z</time>
      </trkpt>
      <trkpt lat="45.85577" lon="4.68947">
        <ele>200</ele>
        <time>2018-03-07T10:01:14Z</time>
      </trkpt>
      <trkpt lat="45.85577" lon="4.6894">
        <ele>200</ele>
        <time>2018-03-07T10:01:15Z</time>
      </trkpt>
      <trkpt lat="45.85577" lon="4.68934">
        <ele>200</ele>
        <time>2018-03-07T10:01:16Z</time>
      </trkpt>
      <trkpt lat="45.85576" lon="4.68927">
        <ele>200</ele>
        <time>2018-03-07T10:01:17Z</time>
      </trkpt>
      <trkpt lat="45.85575" lon="4.6892">
        <ele>200</ele>
        <time>2018-03-07T10:01:18Z</time>
      </trkpt>
      <trkpt lat="45.85575" lon="4.68912">
        <ele>200</ele>
        <time>2018-03-07T10:01:19Z</time>
      </trkpt>
      <trkpt lat="45.85574" lon="4.68899">
        <ele>200</ele>
        <time>2018-03-07T10:01:21Z</time>
      </trkpt>
      <trkpt lat="45.85572" lon="4.68892">
        <ele>200</ele>
        <time>2018-03-07T10:01:22Z</time>
      </trkpt>
      <trkpt lat="45.85572" lon="4.68885">
        <ele>200</ele>
        <time>2018-03-07T10:01:23Z</time>
      </trkpt>
      <trkpt lat="45.85571" lon="4.68879">
        <ele>200</ele>
        <time>2018-03-07T10:01:24Z</time>
      </trkpt>
      <trkpt lat="45.85571" lon="4.68871">
        <ele>200</ele>
        <time>2018-03-07T10:01:25Z</time>
      </trkpt>
      <trkpt lat="45.85569" lon="4.68864">
        <ele>200</ele>
        <time>2018-03-07T10:01:26Z</time>
      </trkpt>
      <trkpt lat="45.85567" lon="4.68852">
        <ele>200</ele>
        <time>2018-03-07T10:01:28Z</time>
      </trkpt>
      <trkpt lat="45.85564" lon="4.68847">
        <ele>200</ele>
        <time>2018-03-07T10:01:29Z</time>
      </trkpt>
      <trkpt lat="45.85564" lon="4.68839">
        <ele>200</ele>
        <time>2018-03-07T10:01:30Z</time>
      </trkpt>
      <trkpt lat="45.85565" lon="4.68832">
        <ele>200</ele>
        <time>2018-03-07T10:01:31Z</time>
      </trkpt>
      <trkpt lat="45.85559" lon="4.6883">
        <ele>200</ele>
        <time>2018-03-07T10:01:32Z</time>
      </trkpt>
      <trkpt lat="45.85558" lon="4.68822">
        <ele>200</ele>
        <time>2018-03-07T10:01:33Z</time>
      </trkpt>
      <trkpt lat="45.8556" lon="4.68815">
        <ele>200</ele>
        <time>2018-03-07T10:01:34Z</time>
      </trkpt>
      <trkpt lat="45.8556" lon="4.68808">
        <ele>200</ele>
        <time>2018-03-07T10:01:35Z</time>
      </trkpt>
      <trkpt lat="45.85559" lon="4.68795">
        <ele>200</ele>
        <time>2018-03-07T10:01:37Z</time>
      </trkpt>
      <trkpt lat="45.85559" lon="4.68789">
        <ele>200</ele>
        <time>2018-03-07T10:01:38Z</time>
      </trkpt>
      <trkpt lat="45.85558" lon="4.68776">
        <ele>200</ele>
        <time>2018-03-07T10:01:40Z</time>
      </trkpt>
      <trkpt lat="45.85559" lon="4.68769">
        <ele>200</ele>
        <time>2018-03-07T10:01:41Z</time>
      </trkpt>
      <trkpt lat="45.85559" lon="4.68762">
        <ele>200</ele>
        <time>2018-03-07T10:01:42Z</time>
      </trkpt>
      <trkpt lat="45.85559" lon="4.68756">
        <ele>200</ele>
        <time>2018-03-07T10:01:43Z</time>
      </trkpt>
      <trkpt lat="45.8556" lon="4.68747">
        <ele>200</ele>
        <time>2018-03-07T10:01:44Z</time>
      </trkpt>
      <trkpt lat="45.8556" lon="4.6874">
        <ele>200</ele>
        <time>2018-03-07T10:01:45Z</time>
      </trkpt>
      <trkpt lat="45.85559" lon="4.68733">
        <ele>200</ele>
        <time>2018-03-07T10:01:46Z</time>
      </trkpt>
      <trkpt lat="45.85559" lon="4.68725">
        <ele>200</ele>
        <time>2018-03-07T10:01:47Z</time>
      </trkpt>
      <trkpt lat="45.85558" lon="4.68717">
        <ele>200</ele>
        <time>2018-03-07T10:01:48Z</time>
      </trkpt>
      <trkpt lat="45.85556" lon="4.6871">
        <ele>200</ele>
        <time>2018-03-07T10:01:49Z</time>
      </trkpt>
      <trkpt lat="45.85555" lon="4.68702">
        <ele>200</ele>
        <time>2018-03-07T10:01:50Z</time>
      </trkpt>
      <trkpt lat="45.85553" lon="4.68696">
        <ele>200</ele>
        <time>2018-03-07T10:01:51Z</time>
      </trkpt>
      <trkpt lat="45.85553" lon="4.68688">
        <ele>200</ele>
        <time>2018-03-07T10:01:52Z</time>
      </trkpt>
      <trkpt lat="45.85552" lon="4.68681">
        <ele>200</ele>
        <time>2018-03-07T10:01:53Z</time>
      </trkpt>
      <trkpt lat="45.85551" lon="4.68674">
        <ele>200</ele>
        <time>2018-03-07T10:01:54Z</time>
      </trkpt>
      <trkpt lat="45.8555" lon="4.68666">
        <ele>200</ele>
        <time>2018-03-07T10:01:55Z</time>
      </trkpt>
      <trkpt lat="45.85548" lon="4.68661">
        <ele>200</ele>
        <time>2018-03-07T10:01:56Z</time>
      </trkpt>
      <trkpt lat="45.85547" lon="4.68654">
        <ele>201</ele>
        <time>2018-03-07T10:01:57Z</time>
      </trkpt>
      <trkpt lat="45.85548" lon="4.68644">
        <ele>201</ele>
        <time>2018-03-07T10:01:58Z</time>
      </trkpt>
      <trkpt lat="45.85549" lon="4.68636">
        <ele>201</ele>
        <time>2018-03-07T10:01:59Z</time>
      </trkpt>
      <trkpt lat="45.85548" lon="4.68628">
        <ele>201</ele>
        <time>2018-03-07T10:02:00Z</time>
      </trkpt>
      <trkpt lat="45.85547" lon="4.68622">
        <ele>201</ele>
        <time>2018-03-07T10:02:01Z</time>
      </trkpt>
      <trkpt lat="45.85546" lon="4.68613">
        <ele>201</ele>
        <time>2018-03-07T10:02:02Z</time>
      </trkpt>
      <trkpt lat="45.85546" lon="4.68606">
        <ele>201</ele>
        <time>2018-03-07T10:02:03Z</time>
      </trkpt>
      <trkpt lat="45.85545" lon="4.686">
        <ele>201</ele>
        <time>2018-03-07T10:02:04Z</time>
      </trkpt>
      <trkpt lat="45.85544" lon="4.68593">
        <ele>201</ele>
        <time>2018-03-07T10:02:05Z</time>
      </trkpt>
      <trkpt lat="45.85541" lon="4.68587">
        <ele>201</ele>
        <time>2018-03-07T10:02:06Z</time>
      </trkpt>
      <trkpt lat="45.8554" lon="4.68578">
        <ele>201</ele>
        <time>2018-03-07T10:02:07Z</time>
      </trkpt>
      <trkpt lat="45.8554" lon="4.68571">
        <ele>201</ele>
        <time>2018-03-07T10:02:08Z</time>
      </trkpt>
      <trkpt lat="45.8554" lon="4.68563">
        <ele>201</ele>
        <time>2018-03-07T10:02:09Z</time>
      </trkpt>
      <trkpt lat="45.85538" lon="4.68555">
        <ele>201</ele>
        <time>2018-03-07T10:02:10Z</time>
      </trkpt>
      <trkpt lat="45.85537" lon="4.68547">
        <ele>201</ele>
        <time>2018-03-07T10:02:11Z</time>
      </trkpt>
      <trkpt lat="45.85536" lon="4.68539">
        <ele>201</ele>
        <time>2018-03-07T10:02:12Z</time>
      </trkpt>
      <trkpt lat="45.85536" lon="4.68531">
        <ele>201</ele>
        <time>2018-03-07T10:02:13Z</time>
      </trkpt>
      <trkpt lat="45.85535" lon="4.68523">
        <ele>201</ele>
        <time>2018-03-07T10:02:14Z</time>
      </trkpt>
      <trkpt lat="45.85536" lon="4.68516">
        <ele>201</ele>
        <time>2018-03-07T10:02:15Z</time>
      </trkpt>
      <trkpt lat="45.85535" lon="4.68509">
        <ele>201</ele>
        <time>2018-03-07T10:02:16Z</time>
      </trkpt>
      <trkpt lat="45.85535" lon="4.68503">
        <ele>201</ele>
        <time>2018-03-07T10:02:17Z</time>
      </trkpt>
      <trkpt lat="45.85534" lon="4.68494">
        <ele>200</ele>
        <time>2018-03-07T10:02:18Z</time>
      </trkpt>
      <trkpt lat="45.85534" lon="4.68487">
        <ele>200</ele>
        <time>2018-03-07T10:02:19Z</time>
      </trkpt>
      <trkpt lat="45.85535" lon="4.6848">
        <ele>200</ele>
        <time>2018-03-07T10:02:20Z</time>
      </trkpt>
      <trkpt lat="45.85534" lon="4.68473">
        <ele>200</ele>
        <time>2018-03-07T10:02:21Z</time>
      </trkpt>
      <trkpt lat="45.85534" lon="4.68462">
        <ele>200</ele>
        <time>2018-03-07T10:02:23Z</time>
      </trkpt>
      <trkpt lat="45.85532" lon="4.68452">
        <ele>200</ele>
        <time>2018-03-07T10:02:24Z</time>
      </trkpt>
      <trkpt lat="45.85529" lon="4.68444">
        <ele>200</ele>
        <time>2018-03-07T10:02:25Z</time>
      </trkpt>
      <trkpt lat="45.85529" lon="4.68437">
        <ele>200</ele>
        <time>2018-03-07T10:02:26Z</time>
      </trkpt>
      <trkpt lat="45.85529" lon="4.6843">
        <ele>200</ele>
        <time>2018-03-07T10:02:27Z</time>
      </trkpt>
      <trkpt lat="45.85528" lon="4.68421">
        <ele>200</ele>
        <time>2018-03-07T10:02:28Z</time>
      </trkpt>
      <trkpt lat="45.85528" lon="4.68413">
        <ele>200</ele>
        <time>2018-03-07T10:02:29Z</time>
      </trkpt>
      <trkpt lat="45.85527" lon="4.68405">
        <ele>200</ele>
        <time>2018-03-07T10:02:30Z</time>
      </trkpt>
      <trkpt lat="45.85526" lon="4.68397">
        <ele>200</ele>
        <time>2018-03-07T10:02:31Z</time>
      </trkpt>
      <trkpt lat="45.85526" lon="4.68389">
        <ele>200</ele>
        <time>2018-03-07T10:02:32Z</time>
      </trkpt>
      <trkpt lat="45.85525" lon="4.6838">
        <ele>201</ele>
        <time>2018-03-07T10:02:33Z</time>
      </trkpt>
      <trkpt lat="45.85525" lon="4.68372">
        <ele>201</ele>
        <time>2018-03-07T10:02:34Z</time>
      </trkpt>
      <trkpt lat="45.85524" lon="4.68363">
        <ele>201</ele>
        <time>2018-03-07T10:02:35Z</time>
      </trkpt>
      <trkpt lat="45.85523" lon="4.68354">
        <ele>201</ele>
        <time>2018-03-07T10:02:36Z</time>
      </trkpt>
      <trkpt lat="45.85522" lon="4.68346">
        <ele>201</ele>
        <time>2018-03-07T10:02:37Z</time>
      </trkpt>
      <trkpt lat="45.85522" lon="4.68339">
        <ele>201</ele>
        <time>2018-03-07T10:02:38Z</time>
      </trkpt>
      <trkpt lat="45.85522" lon="4.68332">
        <ele>202</ele>
        <time>2018-03-07T10:02:39Z</time>
      </trkpt>
      <trkpt lat="45.85521" lon="4.68325">
        <ele>202</ele>
        <time>2018-03-07T10:02:40Z</time>
      </trkpt>
      <trkpt lat="45.8552" lon="4.68317">
        <ele>202</ele>
        <time>2018-03-07T10:02:41Z</time>
      </trkpt>
      <trkpt lat="45.8552" lon="4.68309">
        <ele>202</ele>
        <time>2018-03-07T10:02:42Z</time>
      </trkpt>
      <trkpt lat="45.85519" lon="4.68301">
        <ele>202</ele>
        <time>2018-03-07T10:02:43Z</time>
      </trkpt>
      <trkpt lat="45.85519" lon="4.68293">
        <ele>202</ele>
        <time>2018-03-07T10:02:44Z</time>
      </trkpt>
      <trkpt lat="45.85519" lon="4.68285">
        <ele>202</ele>
        <time>2018-03-07T10:02:45Z</time>
      </trkpt>
      <trkpt lat="45.85518" lon="4.68277">
        <ele>202</ele>
        <time>2018-03-07T10:02:46Z</time>
      </trkpt>
      <trkpt lat="45.85519" lon="4.68269">
        <ele>202</ele>
        <time>2018-03-07T10:02:47Z</time>
      </trkpt>
      <trkpt lat="45.85519" lon="4.68262">
        <ele>202</ele>
        <time>2018-03-07T10:02:48Z</time>
      </trkpt>
      <trkpt lat="45.85518" lon="4.68255">
        <ele>202</ele>
        <time>2018-03-07T10:02:49Z</time>
      </trkpt>
      <trkpt lat="45.85518" lon="4.68248">
        <ele>203</ele>
        <time>2018-03-07T10:02:50Z</time>
      </trkpt>
      <trkpt lat="45.85517" lon="4.68241">
        <ele>203</ele>
        <time>2018-03-07T10:02:51Z</time>
      </trkpt>
      <trkpt lat="45.85515" lon="4.68234">
        <ele>203</ele>
        <time>2018-03-07T10:02:52Z</time>
      </trkpt>
      <trkpt lat="45.85513" lon="4.68227">
        <ele>203</ele>
        <time>2018-03-07T10:02:53Z</time>
      </trkpt>
      <trkpt lat="45.85513" lon="4.68219">
        <ele>203</ele>
        <time>2018-03-07T10:02:54Z</time>
      </trkpt>
      <trkpt lat="45.85512" lon="4.68207">
        <ele>203</ele>
        <time>2018-03-07T10:02:56Z</time>
      </trkpt>
      <trkpt lat="45.8551" lon="4.682">
        <ele>203</ele>
        <time>2018-03-07T10:02:57Z</time>
      </trkpt>
      <trkpt lat="45.8551" lon="4.68192">
        <ele>203</ele>
        <time>2018-03-07T10:02:58Z</time>
      </trkpt>
      <trkpt lat="45.85508" lon="4.68184">
        <ele>203</ele>
        <time>2018-03-07T10:02:59Z</time>
      </trkpt>
      <trkpt lat="45.85508" lon="4.68171">
        <ele>204</ele>
        <time>2018-03-07T10:03:01Z</time>
      </trkpt>
      <trkpt lat="45.85509" lon="4.68164">
        <ele>204</ele>
        <time>2018-03-07T10:03:02Z</time>
      </trkpt>
      <trkpt lat="45.85506" lon="4.68158">
        <ele>204</ele>
        <time>2018-03-07T10:03:03Z</time>
      </trkpt>
      <trkpt lat="45.85507" lon="4.6815">
        <ele>203</ele>
        <time>2018-03-07T10:03:04Z</time>
      </trkpt>
      <trkpt lat="45.85505" lon="4.68143">
        <ele>203</ele>
        <time>2018-03-07T10:03:05Z</time>
      </trkpt>
      <trkpt lat="45.85504" lon="4.68137">
        <ele>203</ele>
        <time>2018-03-07T10:03:06Z</time>
      </trkpt>
      <trkpt lat="45.85504" lon="4.6813">
        <ele>203</ele>
        <time>2018-03-07T10:03:07Z</time>
      </trkpt>
      <trkpt lat="45.85503" lon="4.68123">
        <ele>203</ele>
        <time>2018-03-07T10:03:08Z</time>
      </trkpt>
      <trkpt lat="45.85501" lon="4.68117">
        <ele>203</ele>
        <time>2018-03-07T10:03:09Z</time>
      </trkpt>
      <trkpt lat="45.85502" lon="4.68109">
        <ele>203</ele>
        <time>2018-03-07T10:03:10Z</time>
      </trkpt>
      <trkpt lat="45.85502" lon="4.68102">
        <ele>203</ele>
        <time>2018-03-07T10:03:11Z</time>
      </trkpt>
      <trkpt lat="45.855" lon="4.68094">
        <ele>204</ele>
        <time>2018-03-07T10:03:12Z</time>
      </trkpt>
      <trkpt lat="45.85499" lon="4.68087">
        <ele>204</ele>
        <time>2018-03-07T10:03:13Z</time>
      </trkpt>
      <trkpt lat="45.85498" lon="4.6808">
        <ele>204</ele>
        <time>2018-03-07T10:03:14Z</time>
      </trkpt>
      <trkpt lat="45.85497" lon="4.68068">
        <ele>205</ele>
        <time>2018-03-07T10:03:16Z</time>
      </trkpt>
      <trkpt lat="45.85495" lon="4.68062">
        <ele>206</ele>
        <time>2018-03-07T10:03:17Z</time>
      </trkpt>
      <trkpt lat="45.85495" lon="4.68049">
        <ele>206</ele>
        <time>2018-03-07T10:03:19Z</time>
      </trkpt>
      <trkpt lat="45.85494" lon="4.68047">
        <ele>206</ele>
        <time>2018-03-07T10:03:20Z</time>
      </trkpt>
      <trkpt lat="45.85493" lon="4.68044">
        <ele>206</ele>
        <time>2018-03-07T10:03:21Z</time>
      </trkpt>
      <trkpt lat="45.85493" lon="4.68032">
        <ele>207</ele>
        <time>2018-03-07T10:03:22Z</time>
      </trkpt>
      <trkpt lat="45.85494" lon="4.68024">
        <ele>207</ele>
        <time>2018-03-07T10:03:23Z</time>
      </trkpt>
      <trkpt lat="45.85494" lon="4.68017">
        <ele>207</ele>
        <time>2018-03-07T10:03:24Z</time>
      </trkpt>
      <trkpt lat="45.85497" lon="4.6801">
        <ele>206</ele>
        <time>2018-03-07T10:03:25Z</time>
      </trkpt>
      <trkpt lat="45.855" lon="4.68004">
        <ele>206</ele>
        <time>2018-03-07T10:03:26Z</time>
      </trkpt>
      <trkpt lat="45.85503" lon="4.67996">
        <ele>206</ele>
        <time>2018-03-07T10:03:27Z</time>
      </trkpt>
      <trkpt lat="45.85507" lon="4.6799">
        <ele>206</ele>
        <time>2018-03-07T10:03:28Z</time>
      </trkpt>
      <trkpt lat="45.85512" lon="4.67985">
        <ele>206</ele>
        <time>2018-03-07T10:03:29Z</time>
      </trkpt>
      <trkpt lat="45.85516" lon="4.6798">
        <ele>206</ele>
        <time>2018-03-07T10:03:30Z</time>
      </trkpt>
      <trkpt lat="45.8552" lon="4.67976">
        <ele>206</ele>
        <time>2018-03-07T10:03:31Z</time>
      </trkpt>
      <trkpt lat="45.85524" lon="4.67971">
        <ele>206</ele>
        <time>2018-03-07T10:03:32Z</time>
      </trkpt>
      <trkpt lat="45.85529" lon="4.67964">
        <ele>206</ele>
        <time>2018-03-07T10:03:33Z</time>
      </trkpt>
      <trkpt lat="45.85534" lon="4.67961">
        <ele>205</ele>
        <time>2018-03-07T10:03:34Z</time>
      </trkpt>
      <trkpt lat="45.85539" lon="4.67956">
        <ele>205</ele>
        <time>2018-03-07T10:03:35Z</time>
      </trkpt>
      <trkpt lat="45.85543" lon="4.67953">
        <ele>205</ele>
        <time>2018-03-07T10:03:36Z</time>
      </trkpt>
      <trkpt lat="45.85547" lon="4.67948">
        <ele>205</ele>
        <time>2018-03-07T10:03:37Z</time>
      </trkpt>
      <trkpt lat="45.8555" lon="4.67944">
        <ele>205</ele>
        <time>2018-03-07T10:03:38Z</time>
      </trkpt>
      <trkpt lat="45.85557" lon="4.67936">
        <ele>205</ele>
        <time>2018-03-07T10:03:40Z</time>
      </trkpt>
      <trkpt lat="45.8556" lon="4.67933">
        <ele>205</ele>
        <time>2018-03-07T10:03:41Z</time>
      </trkpt>
      <trkpt lat="45.85565" lon="4.67929">
        <ele>205</ele>
        <time>2018-03-07T10:03:42Z</time>
      </trkpt>
      <trkpt lat="45.85569" lon="4.67928">
        <ele>205</ele>
        <time>2018-03-07T10:03:43Z</time>
      </trkpt>
      <trkpt lat="45.85574" lon="4.67923">
        <ele>204</ele>
        <time>2018-03-07T10:03:45Z</time>
      </trkpt>
      <trkpt lat="45.85575" lon="4.67917">
        <ele>205</ele>
        <time>2018-03-07T10:03:46Z</time>
      </trkpt>
      <trkpt lat="45.85573" lon="4.67904">
        <ele>206</ele>
        <time>2018-03-07T10:03:48Z</time>
      </trkpt>
      <trkpt lat="45.85572" lon="4.67897">
        <ele>206</ele>
        <time>2018-03-07T10:03:49Z</time>
      </trkpt>
      <trkpt lat="45.85573" lon="4.6789">
        <ele>206</ele>
        <time>2018-03-07T10:03:50Z</time>
      </trkpt>
      <trkpt lat="45.85573" lon="4.67881">
        <ele>206</ele>
        <time>2018-03-07T10:03:51Z</time>
      </trkpt>
      <trkpt lat="45.85573" lon="4.67873">
        <ele>207</ele>
        <time>2018-03-07T10:03:52Z</time>
      </trkpt>
      <trkpt lat="45.85574" lon="4.67865">
        <ele>207</ele>
        <time>2018-03-07T10:03:53Z</time>
      </trkpt>
      <trkpt lat="45.85575" lon="4.67859">
        <ele>206</ele>
        <time>2018-03-07T10:03:54Z</time>
      </trkpt>
      <trkpt lat="45.85576" lon="4.6785">
        <ele>206</ele>
        <time>2018-03-07T10:03:55Z</time>
      </trkpt>
      <trkpt lat="45.85577" lon="4.67843">
        <ele>206</ele>
        <time>2018-03-07T10:03:56Z</time>
      </trkpt>
      <trkpt lat="45.8558" lon="4.67835">
        <ele>205</ele>
        <time>2018-03-07T10:03:57Z</time>
      </trkpt>
      <trkpt lat="45.85581" lon="4.6783">
        <ele>205</ele>
        <time>2018-03-07T10:03:58Z</time>
      </trkpt>
      <trkpt lat="45.85581" lon="4.67821">
        <ele>206</ele>
        <time>2018-03-07T10:03:59Z</time>
      </trkpt>
      <trkpt lat="45.85582" lon="4.67813">
        <ele>206</ele>
        <time>2018-03-07T10:04:00Z</time>
      </trkpt>
      <trkpt lat="45.85582" lon="4.67805">
        <ele>206</ele>
        <time>2018-03-07T10:04:01Z</time>
      </trkpt>
      <trkpt lat="45.85584" lon="4.67796">
        <ele>209</ele>
        <time>2018-03-07T10:04:02Z</time>
      </trkpt>
      <trkpt lat="45.85585" lon="4.6779">
        <ele>209</ele>
        <time>2018-03-07T10:04:03Z</time>
      </trkpt>
      <trkpt lat="45.85586" lon="4.67784">
        <ele>209</ele>
        <time>2018-03-07T10:04:04Z</time>
      </trkpt>
      <trkpt lat="45.8559" lon="4.67778">
        <ele>209</ele>
        <time>2018-03-07T10:04:05Z</time>
      </trkpt>
      <trkpt lat="45.85593" lon="4.67771">
        <ele>209</ele>
        <time>2018-03-07T10:04:06Z</time>
      </trkpt>
      <trkpt lat="45.85595" lon="4.67766">
        <ele>208</ele>
        <time>2018-03-07T10:04:07Z</time>
      </trkpt>
      <trkpt lat="45.85598" lon="4.6776">
        <ele>208</ele>
        <time>2018-03-07T10:04:08Z</time>
      </trkpt>
      <trkpt lat="45.85601" lon="4.67754">
        <ele>208</ele>
        <time>2018-03-07T10:04:09Z</time>
      </trkpt>
      <trkpt lat="45.85604" lon="4.67747">
        <ele>207</ele>
        <time>2018-03-07T10:04:10Z</time>
      </trkpt>
      <trkpt lat="45.85608" lon="4.6774">
        <ele>208</ele>
        <time>2018-03-07T10:04:11Z</time>
      </trkpt>
      <trkpt lat="45.85612" lon="4.67733">
        <ele>208</ele>
        <time>2018-03-07T10:04:12Z</time>
      </trkpt>
      <trkpt lat="45.85617" lon="4.67725">
        <ele>209</ele>
        <time>2018-03-07T10:04:13Z</time>
      </trkpt>
      <trkpt lat="45.8562" lon="4.67719">
        <ele>209</ele>
        <time>2018-03-07T10:04:14Z</time>
      </trkpt>
      <trkpt lat="45.85623" lon="4.67715">
        <ele>209</ele>
        <time>2018-03-07T10:04:15Z</time>
      </trkpt>
      <trkpt lat="45.85626" lon="4.67709">
        <ele>209</ele>
        <time>2018-03-07T10:04:16Z</time>
      </trkpt>
      <trkpt lat="45.85631" lon="4.67705">
        <ele>209</ele>
        <time>2018-03-07T10:04:17Z</time>
      </trkpt>
      <trkpt lat="45.85635" lon="4.677">
        <ele>209</ele>
        <time>2018-03-07T10:04:18Z</time>
      </trkpt>
      <trkpt lat="45.8564" lon="4.67694">
        <ele>209</ele>
        <time>2018-03-07T10:04:19Z</time>
      </trkpt>
      <trkpt lat="45.85644" lon="4.6769">
        <ele>209</ele>
        <time>2018-03-07T10:04:20Z</time>
      </trkpt>
      <trkpt lat="45.85649" lon="4.67686">
        <ele>209</ele>
        <time>2018-03-07T10:04:21Z</time>
      </trkpt>
      <trkpt lat="45.85655" lon="4.67681">
        <ele>209</ele>
        <time>2018-03-07T10:04:22Z</time>
      </trkpt>
      <trkpt lat="45.85659" lon="4.67676">
        <ele>209</ele>
        <time>2018-03-07T10:04:23Z</time>
      </trkpt>
      <trkpt lat="45.85664" lon="4.67673">
        <ele>209</ele>
        <time>2018-03-07T10:04:24Z</time>
      </trkpt>
      <trkpt lat="45.85669" lon="4.67671">
        <ele>211</ele>
        <time>2018-03-07T10:04:25Z</time>
      </trkpt>
      <trkpt lat="45.85674" lon="4.67667">
        <ele>212</ele>
        <time>2018-03-07T10:04:26Z</time>
      </trkpt>
      <trkpt lat="45.8568" lon="4.67662">
        <ele>210</ele>
        <time>2018-03-07T10:04:27Z</time>
      </trkpt>
      <trkpt lat="45.85684" lon="4.67659">
        <ele>210</ele>
        <time>2018-03-07T10:04:28Z</time>
      </trkpt>
      <trkpt lat="45.8569" lon="4.67655">
        <ele>211</ele>
        <time>2018-03-07T10:04:29Z</time>
      </trkpt>
      <trkpt lat="45.85696" lon="4.67652">
        <ele>211</ele>
        <time>2018-03-07T10:04:30Z</time>
      </trkpt>
      <trkpt lat="45.85701" lon="4.67648">
        <ele>211</ele>
        <time>2018-03-07T10:04:31Z</time>
      </trkpt>
      <trkpt lat="45.85705" lon="4.67646">
        <ele>211</ele>
        <time>2018-03-07T10:04:32Z</time>
      </trkpt>
      <trkpt lat="45.8571" lon="4.67643">
        <ele>212</ele>
        <time>2018-03-07T10:04:33Z</time>
      </trkpt>
      <trkpt lat="45.85714" lon="4.67639">
        <ele>212</ele>
        <time>2018-03-07T10:04:34Z</time>
      </trkpt>
      <trkpt lat="45.85718" lon="4.67636">
        <ele>212</ele>
        <time>2018-03-07T10:04:35Z</time>
      </trkpt>
      <trkpt lat="45.85723" lon="4.67633">
        <ele>212</ele>
        <time>2018-03-07T10:04:36Z</time>
      </trkpt>
      <trkpt lat="45.85728" lon="4.67627">
        <ele>211</ele>
        <time>2018-03-07T10:04:37Z</time>
      </trkpt>
      <trkpt lat="45.85735" lon="4.67619">
        <ele>211</ele>
        <time>2018-03-07T10:04:39Z</time>
      </trkpt>
      <trkpt lat="45.8574" lon="4.67613">
        <ele>210</ele>
        <time>2018-03-07T10:04:40Z</time>
      </trkpt>
      <trkpt lat="45.85746" lon="4.67609">
        <ele>210</ele>
        <time>2018-03-07T10:04:41Z</time>
      </trkpt>
      <trkpt lat="45.85751" lon="4.67607">
        <ele>216</ele>
        <time>2018-03-07T10:04:42Z</time>
      </trkpt>
      <trkpt lat="45.85755" lon="4.67605">
        <ele>216</ele>
        <time>2018-03-07T10:04:43Z</time>
      </trkpt>
      <trkpt lat="45.85759" lon="4.676">
        <ele>215</ele>
        <time>2018-03-07T10:04:44Z</time>
      </trkpt>
      <trkpt lat="45.85762" lon="4.67597">
        <ele>214</ele>
        <time>2018-03-07T10:04:45Z</time>
      </trkpt>
      <trkpt lat="45.85768" lon="4.67594">
        <ele>215</ele>
        <time>2018-03-07T10:04:46Z</time>
      </trkpt>
      <trkpt lat="45.85773" lon="4.67592">
        <ele>216</ele>
        <time>2018-03-07T10:04:47Z</time>
      </trkpt>
      <trkpt lat="45.85778" lon="4.67586">
        <ele>217</ele>
        <time>2018-03-07T10:04:48Z</time>
      </trkpt>
      <trkpt lat="45.85783" lon="4.67582">
        <ele>210</ele>
        <time>2018-03-07T10:04:49Z</time>
      </trkpt>
      <trkpt lat="45.85788" lon="4.67576">
        <ele>210</ele>
        <time>2018-03-07T10:04:50Z</time>
      </trkpt>
      <trkpt lat="45.85793" lon="4.6757">
        <ele>211</ele>
        <time>2018-03-07T10:04:51Z</time>
      </trkpt>
      <trkpt lat="45.85796" lon="4.67566">
        <ele>211</ele>
        <time>2018-03-07T10:04:52Z</time>
      </trkpt>
      <trkpt lat="45.85803" lon="4.6756">
        <ele>211</ele>
        <time>2018-03-07T10:04:53Z</time>
      </trkpt>
      <trkpt lat="45.85807" lon="4.67553">
        <ele>211</ele>
        <time>2018-03-07T10:04:54Z</time>
      </trkpt>
      <trkpt lat="45.8581" lon="4.67547">
        <ele>211</ele>
        <time>2018-03-07T10:04:55Z</time>
      </trkpt>
      <trkpt lat="45.85814" lon="4.67541">
        <ele>210</ele>
        <time>2018-03-07T10:04:56Z</time>
      </trkpt>
      <trkpt lat="45.8582" lon="4.67537">
        <ele>210</ele>
        <time>2018-03-07T10:04:57Z</time>
      </trkpt>
      <trkpt lat="45.85824" lon="4.67531">
        <ele>210</ele>
        <time>2018-03-07T10:04:58Z</time>
      </trkpt>
      <trkpt lat="45.85829" lon="4.67521">
        <ele>209</ele>
        <time>2018-03-07T10:05:00Z</time>
      </trkpt>
      <trkpt lat="45.85832" lon="4.67515">
        <ele>208</ele>
        <time>2018-03-07T10:05:01Z</time>
      </trkpt>
      <trkpt lat="45.85834" lon="4.67505">
        <ele>210</ele>
        <time>2018-03-07T10:05:02Z</time>
      </trkpt>
      <trkpt lat="45.85835" lon="4.67497">
        <ele>207</ele>
        <time>2018-03-07T10:05:03Z</time>
      </trkpt>
      <trkpt lat="45.8584" lon="4.67494">
        <ele>209</ele>
        <time>2018-03-07T10:05:05Z</time>
      </trkpt>
      <trkpt lat="45.85841" lon="4.67487">
        <ele>210</ele>
        <time>2018-03-07T10:05:06Z</time>
      </trkpt>
      <trkpt lat="45.85842" lon="4.67479">
        <ele>211</ele>
        <time>2018-03-07T10:05:07Z</time>
      </trkpt>
      <trkpt lat="45.85844" lon="4.67474">
        <ele>212</ele>
        <time>2018-03-07T10:05:08Z</time>
      </trkpt>
      <trkpt lat="45.85848" lon="4.67463">
        <ele>212</ele>
        <time>2018-03-07T10:05:10Z</time>
      </trkpt>
      <trkpt lat="45.8585" lon="4.67455">
        <ele>212</ele>
        <time>2018-03-07T10:05:11Z</time>
      </trkpt>
      <trkpt lat="45.85853" lon="4.6745">
        <ele>212</ele>
        <time>2018-03-07T10:05:12Z</time>
      </trkpt>
      <trkpt lat="45.85854" lon="4.67444">
        <ele>212</ele>
        <time>2018-03-07T10:05:13Z</time>
      </trkpt>
      <trkpt lat="45.85854" lon="4.67436">
        <ele>211</ele>
        <time>2018-03-07T10:05:14Z</time>
      </trkpt>
      <trkpt lat="45.8586" lon="4.67428">
        <ele>211</ele>
        <time>2018-03-07T10:05:15Z</time>
      </trkpt>
      <trkpt lat="45.85862" lon="4.67421">
        <ele>211</ele>
        <time>2018-03-07T10:05:16Z</time>
      </trkpt>
      <trkpt lat="45.85863" lon="4.67413">
        <ele>208</ele>
        <time>2018-03-07T10:05:17Z</time>
      </trkpt>
      <trkpt lat="45.85864" lon="4.67405">
        <ele>208</ele>
        <time>2018-03-07T10:05:18Z</time>
      </trkpt>
      <trkpt lat="45.85864" lon="4.67397">
        <ele>209</ele>
        <time>2018-03-07T10:05:19Z</time>
      </trkpt>
      <trkpt lat="45.85867" lon="4.67388">
        <ele>209</ele>
        <time>2018-03-07T10:05:20Z</time>
      </trkpt>
      <trkpt lat="45.85867" lon="4.67379">
        <ele>209</ele>
        <time>2018-03-07T10:05:21Z</time>
      </trkpt>
      <trkpt lat="45.85868" lon="4.6737">
        <ele>209</ele>
        <time>2018-03-07T10:05:22Z</time>
      </trkpt>
      <trkpt lat="45.85868" lon="4.67363">
        <ele>208</ele>
        <time>2018-03-07T10:05:23Z</time>
      </trkpt>
      <trkpt lat="45.85868" lon="4.67361">
        <ele>208</ele>
        <time>2018-03-07T10:05:24Z</time>
      </trkpt>
      <trkpt lat="45.8587" lon="4.67347">
        <ele>208</ele>
        <time>2018-03-07T10:05:25Z</time>
      </trkpt>
      <trkpt lat="45.85871" lon="4.67337">
        <ele>208</ele>
        <time>2018-03-07T10:05:26Z</time>
      </trkpt>
      <trkpt lat="45.85871" lon="4.67328">
        <ele>205</ele>
        <time>2018-03-07T10:05:27Z</time>
      </trkpt>
      <trkpt lat="45.85872" lon="4.67319">
        <ele>205</ele>
        <time>2018-03-07T10:05:28Z</time>
      </trkpt>
      <trkpt lat="45.85871" lon="4.6731">
        <ele>205</ele>
        <time>2018-03-07T10:05:29Z</time>
      </trkpt>
      <trkpt lat="45.85872" lon="4.673">
        <ele>205</ele>
        <time>2018-03-07T10:05:30Z</time>
      </trkpt>
      <trkpt lat="45.85874" lon="4.67291">
        <ele>205</ele>
        <time>2018-03-07T10:05:31Z</time>
      </trkpt>
      <trkpt lat="45.85875" lon="4.67281">
        <ele>205</ele>
        <time>2018-03-07T10:05:32Z</time>
      </trkpt>
      <trkpt lat="45.85877" lon="4.67269">
        <ele>205</ele>
        <time>2018-03-07T10:05:33Z</time>
      </trkpt>
      <trkpt lat="45.85878" lon="4.67259">
        <ele>205</ele>
        <time>2018-03-07T10:05:34Z</time>
      </trkpt>
      <trkpt lat="45.85878" lon="4.67251">
        <ele>205</ele>
        <time>2018-03-07T10:05:35Z</time>
      </trkpt>
      <trkpt lat="45.85878" lon="4.67243">
        <ele>204</ele>
        <time>2018-03-07T10:05:36Z</time>
      </trkpt>
      <trkpt lat="45.85878" lon="4.67236">
        <ele>204</ele>
        <time>2018-03-07T10:05:37Z</time>
      </trkpt>
      <trkpt lat="45.8588" lon="4.67227">
        <ele>204</ele>
        <time>2018-03-07T10:05:38Z</time>
      </trkpt>
      <trkpt lat="45.85881" lon="4.67219">
        <ele>204</ele>
        <time>2018-03-07T10:05:39Z</time>
      </trkpt>
      <trkpt lat="45.85884" lon="4.67208">
        <ele>204</ele>
        <time>2018-03-07T10:05:41Z</time>
      </trkpt>
      <trkpt lat="45.85884" lon="4.67198">
        <ele>204</ele>
        <time>2018-03-07T10:05:42Z</time>
      </trkpt>
      <trkpt lat="45.85885" lon="4.6719">
        <ele>204</ele>
        <time>2018-03-07T10:05:43Z</time>
      </trkpt>
      <trkpt lat="45.85886" lon="4.67184">
        <ele>204</ele>
        <time>2018-03-07T10:05:44Z</time>
      </trkpt>
      <trkpt lat="45.85887" lon="4.67174">
        <ele>204</ele>
        <time>2018-03-07T10:05:45Z</time>
      </trkpt>
      <trkpt lat="45.85888" lon="4.67166">
        <ele>204</ele>
        <time>2018-03-07T10:05:46Z</time>
      </trkpt>
      <trkpt lat="45.85888" lon="4.67159">
        <ele>204</ele>
        <time>2018-03-07T10:05:47Z</time>
      </trkpt>
      <trkpt lat="45.85889" lon="4.67151">
        <ele>204</ele>
        <time>2018-03-07T10:05:48Z</time>
      </trkpt>
      <trkpt lat="45.85889" lon="4.67143">
        <ele>204</ele>
        <time>2018-03-07T10:05:49Z</time>
      </trkpt>
      <trkpt lat="45.8589" lon="4.67135">
        <ele>204</ele>
        <time>2018-03-07T10:05:50Z</time>
      </trkpt>
      <trkpt lat="45.85891" lon="4.67127">
        <ele>204</ele>
        <time>2018-03-07T10:05:51Z</time>
      </trkpt>
      <trkpt lat="45.85893" lon="4.6712">
        <ele>204</ele>
        <time>2018-03-07T10:05:52Z</time>
      </trkpt>
      <trkpt lat="45.85894" lon="4.67112">
        <ele>204</ele>
        <time>2018-03-07T10:05:53Z</time>
      </trkpt>
      <trkpt lat="45.85895" lon="4.67104">
        <ele>204</ele>
        <time>2018-03-07T10:05:54Z</time>
      </trkpt>
      <trkpt lat="45.85896" lon="4.67096">
        <ele>204</ele>
        <time>2018-03-07T10:05:55Z</time>
      </trkpt>
      <trkpt lat="45.85897" lon="4.67088">
        <ele>204</ele>
        <time>2018-03-07T10:05:56Z</time>
      </trkpt>
      <trkpt lat="45.85898" lon="4.67081">
        <ele>204</ele>
        <time>2018-03-07T10:05:57Z</time>
      </trkpt>
      <trkpt lat="45.859" lon="4.67074">
        <ele>205</ele>
        <time>2018-03-07T10:05:58Z</time>
      </trkpt>
      <trkpt lat="45.85902" lon="4.67065">
        <ele>205</ele>
        <time>2018-03-07T10:05:59Z</time>
      </trkpt>
      <trkpt lat="45.85901" lon="4.67059">
        <ele>205</ele>
        <time>2018-03-07T10:06:00Z</time>
      </trkpt>
      <trkpt lat="45.85903" lon="4.67051">
        <ele>205</ele>
        <time>2018-03-07T10:06:01Z</time>
      </trkpt>
      <trkpt lat="45.85904" lon="4.67042">
        <ele>205</ele>
        <time>2018-03-07T10:06:02Z</time>
      </trkpt>
      <trkpt lat="45.85906" lon="4.67034">
        <ele>205</ele>
        <time>2018-03-07T10:06:03Z</time>
      </trkpt>
      <trkpt lat="45.85907" lon="4.67028">
        <ele>205</ele>
        <time>2018-03-07T10:06:04Z</time>
      </trkpt>
      <trkpt lat="45.85909" lon="4.67016">
        <ele>205</ele>
        <time>2018-03-07T10:06:06Z</time>
      </trkpt>
      <trkpt lat="45.85911" lon="4.67009">
        <ele>206</ele>
        <time>2018-03-07T10:06:07Z</time>
      </trkpt>
      <trkpt lat="45.85913" lon="4.66999">
        <ele>206</ele>
        <time>2018-03-07T10:06:09Z</time>
      </trkpt>
      <trkpt lat="45.85916" lon="4.66995">
        <ele>206</ele>
        <time>2018-03-07T10:06:10Z</time>
      </trkpt>
      <trkpt lat="45.8592" lon="4.66986">
        <ele>208</ele>
        <time>2018-03-07T10:06:12Z</time>
      </trkpt>
      <trkpt lat="45.85922" lon="4.6698">
        <ele>208</ele>
        <time>2018-03-07T10:06:13Z</time>
      </trkpt>
      <trkpt lat="45.85925" lon="4.66968">
        <ele>208</ele>
        <time>2018-03-07T10:06:15Z</time>
      </trkpt>
      <trkpt lat="45.85924" lon="4.6696">
        <ele>209</ele>
        <time>2018-03-07T10:06:16Z</time>
      </trkpt>
      <trkpt lat="45.85923" lon="4.66952">
        <ele>209</ele>
        <time>2018-03-07T10:06:17Z</time>
      </trkpt>
      <trkpt lat="45.85921" lon="4.66944">
        <ele>209</ele>
        <time>2018-03-07T10:06:18Z</time>
      </trkpt>
      <trkpt lat="45.8592" lon="4.66937">
        <ele>208</ele>
        <time>2018-03-07T10:06:19Z</time>
      </trkpt>
      <trkpt lat="45.85921" lon="4.66928">
        <ele>208</ele>
        <time>2018-03-07T10:06:20Z</time>
      </trkpt>
      <trkpt lat="45.85923" lon="4.6692">
        <ele>208</ele>
        <time>2018-03-07T10:06:21Z</time>
      </trkpt>
      <trkpt lat="45.85925" lon="4.66913">
        <ele>208</ele>
        <time>2018-03-07T10:06:22Z</time>
      </trkpt>
      <trkpt lat="45.85927" lon="4.66906">
        <ele>209</ele>
        <time>2018-03-07T10:06:23Z</time>
      </trkpt>
      <trkpt lat="45.85929" lon="4.66899">
        <ele>209</ele>
        <time>2018-03-07T10:06:24Z</time>
      </trkpt>
      <trkpt lat="45.8593" lon="4.66893">
        <ele>209</ele>
        <time>2018-03-07T10:06:25Z</time>
      </trkpt>
      <trkpt lat="45.85931" lon="4.66886">
        <ele>210</ele>
        <time>2018-03-07T10:06:26Z</time>
      </trkpt>
      <trkpt lat="45.85932" lon="4.66879">
        <ele>210</ele>
        <time>2018-03-07T10:06:27Z</time>
      </trkpt>
      <trkpt lat="45.85934" lon="4.66873">
        <ele>210</ele>
        <time>2018-03-07T10:06:28Z</time>
      </trkpt>
      <trkpt lat="45.85935" lon="4.66867">
        <ele>210</ele>
        <time>2018-03-07T10:06:29Z</time>
      </trkpt>
      <trkpt lat="45.85937" lon="4.66861">
        <ele>210</ele>
        <time>2018-03-07T10:06:30Z</time>
      </trkpt>
      <trkpt lat="45.85939" lon="4.66854">
        <ele>210</ele>
        <time>2018-03-07T10:06:31Z</time>
      </trkpt>
      <trkpt lat="45.85941" lon="4.66847">
        <ele>210</ele>
        <time>2018-03-07T10:06:32Z</time>
      </trkpt>
      <trkpt lat="45.85942" lon="4.66841">
        <ele>210</ele>
        <time>2018-03-07T10:06:33Z</time>
      </trkpt>
      <trkpt lat="45.85944" lon="4.66834">
        <ele>210</ele>
        <time>2018-03-07T10:06:34Z</time>
      </trkpt>
      <trkpt lat="45.85946" lon="4.66827">
        <ele>212</ele>
        <time>2018-03-07T10:06:35Z</time>
      </trkpt>
      <trkpt lat="45.85948" lon="4.66821">
        <ele>212</ele>
        <time>2018-03-07T10:06:36Z</time>
      </trkpt>
      <trkpt lat="45.8595" lon="4.66816">
        <ele>212</ele>
        <time>2018-03-07T10:06:37Z</time>
      </trkpt>
      <trkpt lat="45.85953" lon="4.6681">
        <ele>213</ele>
        <time>2018-03-07T10:06:38Z</time>
      </trkpt>
      <trkpt lat="45.85956" lon="4.66801">
        <ele>213</ele>
        <time>2018-03-07T10:06:39Z</time>
      </trkpt>
      <trkpt lat="45.85958" lon="4.66795">
        <ele>213</ele>
        <time>2018-03-07T10:06:40Z</time>
      </trkpt>
      <trkpt lat="45.85961" lon="4.66788">
        <ele>213</ele>
        <time>2018-03-07T10:06:41Z</time>
      </trkpt>
      <trkpt lat="45.85963" lon="4.66783">
        <ele>214</ele>
        <time>2018-03-07T10:06:42Z</time>
      </trkpt>
      <trkpt lat="45.85966" lon="4.66778">
        <ele>214</ele>
        <time>2018-03-07T10:06:43Z</time>
      </trkpt>
      <trkpt lat="45.85968" lon="4.66771">
        <ele>214</ele>
        <time>2018-03-07T10:06:44Z</time>
      </trkpt>
      <trkpt lat="45.85972" lon="4.66762">
        <ele>214</ele>
        <time>2018-03-07T10:06:46Z</time>
      </trkpt>
      <trkpt lat="45.85975" lon="4.66752">
        <ele>215</ele>
        <time>2018-03-07T10:06:47Z</time>
      </trkpt>
      <trkpt lat="45.85978" lon="4.6674">
        <ele>216</ele>
        <time>2018-03-07T10:06:49Z</time>
      </trkpt>
      <trkpt lat="45.8598" lon="4.66734">
        <ele>216</ele>
        <time>2018-03-07T10:06:50Z</time>
      </trkpt>
      <trkpt lat="45.85983" lon="4.66723">
        <ele>215</ele>
        <time>2018-03-07T10:06:52Z</time>
      </trkpt>
      <trkpt lat="45.85986" lon="4.66717">
        <ele>215</ele>
        <time>2018-03-07T10:06:53Z</time>
      </trkpt>
      <trkpt lat="45.85988" lon="4.6671">
        <ele>215</ele>
        <time>2018-03-07T10:06:54Z</time>
      </trkpt>
      <trkpt lat="45.85991" lon="4.66705">
        <ele>215</ele>
        <time>2018-03-07T10:06:55Z</time>
      </trkpt>
      <trkpt lat="45.85994" lon="4.66699">
        <ele>215</ele>
        <time>2018-03-07T10:06:56Z</time>
      </trkpt>
      <trkpt lat="45.85998" lon="4.66693">
        <ele>214</ele>
        <time>2018-03-07T10:06:57Z</time>
      </trkpt>
      <trkpt lat="45.86001" lon="4.66688">
        <ele>217</ele>
        <time>2018-03-07T10:06:58Z</time>
      </trkpt>
      <trkpt lat="45.86005" lon="4.66685">
        <ele>217</ele>
        <time>2018-03-07T10:06:59Z</time>
      </trkpt>
      <trkpt lat="45.86008" lon="4.66681">
        <ele>216</ele>
        <time>2018-03-07T10:07:00Z</time>
      </trkpt>
      <trkpt lat="45.86011" lon="4.66676">
        <ele>216</ele>
        <time>2018-03-07T10:07:01Z</time>
      </trkpt>
      <trkpt lat="45.86015" lon="4.6667">
        <ele>216</ele>
        <time>2018-03-07T10:07:02Z</time>
      </trkpt>
      <trkpt lat="45.86019" lon="4.66666">
        <ele>213</ele>
        <time>2018-03-07T10:07:03Z</time>
      </trkpt>
      <trkpt lat="45.86026" lon="4.66658">
        <ele>213</ele>
        <time>2018-03-07T10:07:05Z</time>
      </trkpt>
      <trkpt lat="45.86026" lon="4.66657">
        <ele>213</ele>
        <time>2018-03-07T10:07:06Z</time>
      </trkpt>
      <trkpt lat="45.86027" lon="4.66656">
        <ele>213</ele>
        <time>2018-03-07T10:07:07Z</time>
      </trkpt>
      <trkpt lat="45.86036" lon="4.66646">
        <ele>214</ele>
        <time>2018-03-07T10:07:08Z</time>
      </trkpt>
      <trkpt lat="45.86043" lon="4.6664">
        <ele>214</ele>
        <time>2018-03-07T10:07:10Z</time>
      </trkpt>
      <trkpt lat="45.86047" lon="4.66635">
        <ele>214</ele>
        <time>2018-03-07T10:07:11Z</time>
      </trkpt>
      <trkpt lat="45.86051" lon="4.66631">
        <ele>214</ele>
        <time>2018-03-07T10:07:12Z</time>
      </trkpt>
      <trkpt lat="45.86055" lon="4.66627">
        <ele>214</ele>
        <time>2018-03-07T10:07:13Z</time>
      </trkpt>
      <trkpt lat="45.86058" lon="4.66623">
        <ele>214</ele>
        <time>2018-03-07T10:07:14Z</time>
      </trkpt>
      <trkpt lat="45.86063" lon="4.66619">
        <ele>214</ele>
        <time>2018-03-07T10:07:15Z</time>
      </trkpt>
      <trkpt lat="45.86068" lon="4.66617">
        <ele>214</ele>
        <time>2018-03-07T10:07:16Z</time>
      </trkpt>
      <trkpt lat="45.86073" lon="4.66615">
        <ele>213</ele>
        <time>2018-03-07T10:07:17Z</time>
      </trkpt>
      <trkpt lat="45.86078" lon="4.66612">
        <ele>213</ele>
        <time>2018-03-07T10:07:18Z</time>
      </trkpt>
      <trkpt lat="45.86084" lon="4.66608">
        <ele>219</ele>
        <time>2018-03-07T10:07:19Z</time>
      </trkpt>
      <trkpt lat="45.86088" lon="4.66605">
        <ele>218</ele>
        <time>2018-03-07T10:07:20Z</time>
      </trkpt>
      <trkpt lat="45.86092" lon="4.66603">
        <ele>218</ele>
        <time>2018-03-07T10:07:21Z</time>
      </trkpt>
      <trkpt lat="45.86098" lon="4.66598">
        <ele>218</ele>
        <time>2018-03-07T10:07:24Z</time>
      </trkpt>
      <trkpt lat="45.86112" lon="4.66586">
        <ele>219</ele>
        <time>2018-03-07T10:07:25Z</time>
      </trkpt>
      <trkpt lat="45.86119" lon="4.6658">
        <ele>213</ele>
        <time>2018-03-07T10:07:26Z</time>
      </trkpt>
      <trkpt lat="45.86124" lon="4.66575">
        <ele>214</ele>
        <time>2018-03-07T10:07:27Z</time>
      </trkpt>
      <trkpt lat="45.86127" lon="4.66572">
        <ele>214</ele>
        <time>2018-03-07T10:07:28Z</time>
      </trkpt>
      <trkpt lat="45.86132" lon="4.66568">
        <ele>214</ele>
        <time>2018-03-07T10:07:29Z</time>
      </trkpt>
      <trkpt lat="45.8614" lon="4.66565">
        <ele>215</ele>
        <time>2018-03-07T10:07:30Z</time>
      </trkpt>
      <trkpt lat="45.86144" lon="4.66559">
        <ele>215</ele>
        <time>2018-03-07T10:07:31Z</time>
      </trkpt>
      <trkpt lat="45.8615" lon="4.66549">
        <ele>214</ele>
        <time>2018-03-07T10:07:32Z</time>
      </trkpt>
      <trkpt lat="45.86156" lon="4.66544">
        <ele>214</ele>
        <time>2018-03-07T10:07:33Z</time>
      </trkpt>
      <trkpt lat="45.86162" lon="4.66537">
        <ele>213</ele>
        <time>2018-03-07T10:07:34Z</time>
      </trkpt>
      <trkpt lat="45.86167" lon="4.66531">
        <ele>218</ele>
        <time>2018-03-07T10:07:35Z</time>
      </trkpt>
      <trkpt lat="45.8617" lon="4.66524">
        <ele>217</ele>
        <time>2018-03-07T10:07:36Z</time>
      </trkpt>
      <trkpt lat="45.86175" lon="4.66516">
        <ele>216</ele>
        <time>2018-03-07T10:07:37Z</time>
      </trkpt>
      <trkpt lat="45.86179" lon="4.66508">
        <ele>215</ele>
        <time>2018-03-07T10:07:38Z</time>
      </trkpt>
      <trkpt lat="45.86182" lon="4.665">
        <ele>215</ele>
        <time>2018-03-07T10:07:39Z</time>
      </trkpt>
      <trkpt lat="45.86186" lon="4.66492">
        <ele>212</ele>
        <time>2018-03-07T10:07:40Z</time>
      </trkpt>
      <trkpt lat="45.8619" lon="4.66485">
        <ele>212</ele>
        <time>2018-03-07T10:07:41Z</time>
      </trkpt>
      <trkpt lat="45.86195" lon="4.66477">
        <ele>213</ele>
        <time>2018-03-07T10:07:42Z</time>
      </trkpt>
      <trkpt lat="45.86199" lon="4.66469">
        <ele>213</ele>
        <time>2018-03-07T10:07:43Z</time>
      </trkpt>
      <trkpt lat="45.86205" lon="4.66464">
        <ele>213</ele>
        <time>2018-03-07T10:07:44Z</time>
      </trkpt>
      <trkpt lat="45.86209" lon="4.66456">
        <ele>213</ele>
        <time>2018-03-07T10:07:45Z</time>
      </trkpt>
      <trkpt lat="45.86213" lon="4.66449">
        <ele>213</ele>
        <time>2018-03-07T10:07:46Z</time>
      </trkpt>
      <trkpt lat="45.86218" lon="4.66443">
        <ele>213</ele>
        <time>2018-03-07T10:07:47Z</time>
      </trkpt>
      <trkpt lat="45.86221" lon="4.66436">
        <ele>213</ele>
        <time>2018-03-07T10:07:48Z</time>
      </trkpt>
      <trkpt lat="45.86224" lon="4.6643">
        <ele>213</ele>
        <time>2018-03-07T10:07:49Z</time>
      </trkpt>
      <trkpt lat="45.86228" lon="4.66423">
        <ele>213</ele>
        <time>2018-03-07T10:07:50Z</time>
      </trkpt>
      <trkpt lat="45.86232" lon="4.66415">
        <ele>213</ele>
        <time>2018-03-07T10:07:51Z</time>
      </trkpt>
      <trkpt lat="45.86236" lon="4.66408">
        <ele>213</ele>
        <time>2018-03-07T10:07:52Z</time>
      </trkpt>
      <trkpt lat="45.86239" lon="4.66403">
        <ele>213</ele>
        <time>2018-03-07T10:07:53Z</time>
      </trkpt>
      <trkpt lat="45.86241" lon="4.66395">
        <ele>212</ele>
        <time>2018-03-07T10:07:54Z</time>
      </trkpt>
      <trkpt lat="45.86244" lon="4.66388">
        <ele>212</ele>
        <time>2018-03-07T10:07:55Z</time>
      </trkpt>
      <trkpt lat="45.86245" lon="4.66381">
        <ele>212</ele>
        <time>2018-03-07T10:07:56Z</time>
      </trkpt>
      <trkpt lat="45.8625" lon="4.66375">
        <ele>212</ele>
        <time>2018-03-07T10:07:57Z</time>
      </trkpt>
      <trkpt lat="45.86253" lon="4.66368">
        <ele>216</ele>
        <time>2018-03-07T10:07:58Z</time>
      </trkpt>
      <trkpt lat="45.86258" lon="4.66363">
        <ele>216</ele>
        <time>2018-03-07T10:07:59Z</time>
      </trkpt>
      <trkpt lat="45.86262" lon="4.66357">
        <ele>215</ele>
        <time>2018-03-07T10:08:00Z</time>
      </trkpt>
      <trkpt lat="45.86265" lon="4.66351">
        <ele>215</ele>
        <time>2018-03-07T10:08:01Z</time>
      </trkpt>
      <trkpt lat="45.86268" lon="4.66346">
        <ele>215</ele>
        <time>2018-03-07T10:08:02Z</time>
      </trkpt>
      <trkpt lat="45.86272" lon="4.66339">
        <ele>215</ele>
        <time>2018-03-07T10:08:03Z</time>
      </trkpt>
      <trkpt lat="45.86275" lon="4.66333">
        <ele>213</ele>
        <time>2018-03-07T10:08:04Z</time>
      </trkpt>
      <trkpt lat="45.86279" lon="4.66328">
        <ele>214</ele>
        <time>2018-03-07T10:08:05Z</time>
      </trkpt>
      <trkpt lat="45.86283" lon="4.66322">
        <ele>214</ele>
        <time>2018-03-07T10:08:06Z</time>
      </trkpt>
      <trkpt lat="45.86288" lon="4.66317">
        <ele>214</ele>
        <time>2018-03-07T10:08:07Z</time>
      </trkpt>
      <trkpt lat="45.86292" lon="4.66311">
        <ele>214</ele>
        <time>2018-03-07T10:08:08Z</time>
      </trkpt>
      <trkpt lat="45.86296" lon="4.66305">
        <ele>214</ele>
        <time>2018-03-07T10:08:09Z</time>
      </trkpt>
      <trkpt lat="45.86301" lon="4.66299">
        <ele>214</ele>
        <time>2018-03-07T10:08:10Z</time>
      </trkpt>
      <trkpt lat="45.86306" lon="4.66295">
        <ele>214</ele>
        <time>2018-03-07T10:08:11Z</time>
      </trkpt>
      <trkpt lat="45.8631" lon="4.6629">
        <ele>214</ele>
        <time>2018-03-07T10:08:12Z</time>
      </trkpt>
      <trkpt lat="45.86315" lon="4.66286">
        <ele>214</ele>
        <time>2018-03-07T10:08:13Z</time>
      </trkpt>
      <trkpt lat="45.8632" lon="4.66282">
        <ele>214</ele>
        <time>2018-03-07T10:08:14Z</time>
      </trkpt>
      <trkpt lat="45.86324" lon="4.66278">
        <ele>214</ele>
        <time>2018-03-07T10:08:15Z</time>
      </trkpt>
      <trkpt lat="45.8633" lon="4.66274">
        <ele>214</ele>
        <time>2018-03-07T10:08:16Z</time>
      </trkpt>
      <trkpt lat="45.86335" lon="4.66269">
        <ele>217</ele>
        <time>2018-03-07T10:08:17Z</time>
      </trkpt>
      <trkpt lat="45.86339" lon="4.66266">
        <ele>217</ele>
        <time>2018-03-07T10:08:18Z</time>
      </trkpt>
      <trkpt lat="45.86344" lon="4.66259">
        <ele>216</ele>
        <time>2018-03-07T10:08:19Z</time>
      </trkpt>
      <trkpt lat="45.86348" lon="4.66256">
        <ele>217</ele>
        <time>2018-03-07T10:08:20Z</time>
      </trkpt>
      <trkpt lat="45.8635" lon="4.66255">
        <ele>217</ele>
        <time>2018-03-07T10:08:21Z</time>
      </trkpt>
      <trkpt lat="45.86357" lon="4.66251">
        <ele>218</ele>
        <time>2018-03-07T10:08:22Z</time>
      </trkpt>
      <trkpt lat="45.86362" lon="4.66247">
        <ele>213</ele>
        <time>2018-03-07T10:08:23Z</time>
      </trkpt>
      <trkpt lat="45.86367" lon="4.66243">
        <ele>213</ele>
        <time>2018-03-07T10:08:24Z</time>
      </trkpt>
      <trkpt lat="45.86371" lon="4.66239">
        <ele>213</ele>
        <time>2018-03-07T10:08:25Z</time>
      </trkpt>
      <trkpt lat="45.86376" lon="4.66237">
        <ele>214</ele>
        <time>2018-03-07T10:08:26Z</time>
      </trkpt>
      <trkpt lat="45.86382" lon="4.66233">
        <ele>214</ele>
        <time>2018-03-07T10:08:27Z</time>
      </trkpt>
      <trkpt lat="45.86387" lon="4.66232">
        <ele>214</ele>
        <time>2018-03-07T10:08:28Z</time>
      </trkpt>
      <trkpt lat="45.86392" lon="4.6623">
        <ele>214</ele>
        <time>2018-03-07T10:08:29Z</time>
      </trkpt>
      <trkpt lat="45.86395" lon="4.66227">
        <ele>214</ele>
        <time>2018-03-07T10:08:30Z</time>
      </trkpt>
      <trkpt lat="45.864" lon="4.66224">
        <ele>214</ele>
        <time>2018-03-07T10:08:31Z</time>
      </trkpt>
      <trkpt lat="45.86405" lon="4.66222">
        <ele>214</ele>
        <time>2018-03-07T10:08:32Z</time>
      </trkpt>
      <trkpt lat="45.8641" lon="4.66219">
        <ele>214</ele>
        <time>2018-03-07T10:08:33Z</time>
      </trkpt>
      <trkpt lat="45.86415" lon="4.66217">
        <ele>214</ele>
        <time>2018-03-07T10:08:34Z</time>
      </trkpt>
      <trkpt lat="45.8642" lon="4.66215">
        <ele>217</ele>
        <time>2018-03-07T10:08:35Z</time>
      </trkpt>
      <trkpt lat="45.86424" lon="4.6621">
        <ele>217</ele>
        <time>2018-03-07T10:08:36Z</time>
      </trkpt>
      <trkpt lat="45.86429" lon="4.66206">
        <ele>216</ele>
        <time>2018-03-07T10:08:37Z</time>
      </trkpt>
      <trkpt lat="45.86434" lon="4.66204">
        <ele>216</ele>
        <time>2018-03-07T10:08:38Z</time>
      </trkpt>
      <trkpt lat="45.86442" lon="4.66201">
        <ele>216</ele>
        <time>2018-03-07T10:08:40Z</time>
      </trkpt>
      <trkpt lat="45.86446" lon="4.66199">
        <ele>216</ele>
        <time>2018-03-07T10:08:41Z</time>
      </trkpt>
      <trkpt lat="45.86453" lon="4.66201">
        <ele>217</ele>
        <time>2018-03-07T10:08:42Z</time>
      </trkpt>
      <trkpt lat="45.86459" lon="4.66199">
        <ele>217</ele>
        <time>2018-03-07T10:08:43Z</time>
      </trkpt>
      <trkpt lat="45.86465" lon="4.66196">
        <ele>217</ele>
        <time>2018-03-07T10:08:44Z</time>
      </trkpt>
      <trkpt lat="45.86471" lon="4.66195">
        <ele>217</ele>
        <time>2018-03-07T10:08:45Z</time>
      </trkpt>
      <trkpt lat="45.86476" lon="4.66195">
        <ele>217</ele>
        <time>2018-03-07T10:08:46Z</time>
      </trkpt>
      <trkpt lat="45.8648" lon="4.66192">
        <ele>217</ele>
        <time>2018-03-07T10:08:47Z</time>
      </trkpt>
      <trkpt lat="45.86484" lon="4.66189">
        <ele>217</ele>
        <time>2018-03-07T10:08:48Z</time>
      </trkpt>
      <trkpt lat="45.86489" lon="4.66189">
        <ele>217</ele>
        <time>2018-03-07T10:08:49Z</time>
      </trkpt>
      <trkpt lat="45.86493" lon="4.66187">
        <ele>217</ele>
        <time>2018-03-07T10:08:50Z</time>
      </trkpt>
      <trkpt lat="45.86497" lon="4.66183">
        <ele>216</ele>
        <time>2018-03-07T10:08:51Z</time>
      </trkpt>
      <trkpt lat="45.86504" lon="4.66181">
        <ele>220</ele>
        <time>2018-03-07T10:08:53Z</time>
      </trkpt>
      <trkpt lat="45.86507" lon="4.66175">
        <ele>219</ele>
        <time>2018-03-07T10:08:54Z</time>
      </trkpt>
      <trkpt lat="45.8651" lon="4.66168">
        <ele>219</ele>
        <time>2018-03-07T10:08:55Z</time>
      </trkpt>
      <trkpt lat="45.86517" lon="4.66171">
        <ele>221</ele>
        <time>2018-03-07T10:08:56Z</time>
      </trkpt>
      <trkpt lat="45.86522" lon="4.6617">
        <ele>222</ele>
        <time>2018-03-07T10:08:57Z</time>
      </trkpt>
      <trkpt lat="45.86527" lon="4.66167">
        <ele>223</ele>
        <time>2018-03-07T10:08:58Z</time>
      </trkpt>
      <trkpt lat="45.86531" lon="4.66165">
        <ele>216</ele>
        <time>2018-03-07T10:08:59Z</time>
      </trkpt>
      <trkpt lat="45.86536" lon="4.6616">
        <ele>217</ele>
        <time>2018-03-07T10:09:00Z</time>
      </trkpt>
      <trkpt lat="45.86543" lon="4.66156">
        <ele>217</ele>
        <time>2018-03-07T10:09:02Z</time>
      </trkpt>
      <trkpt lat="45.86547" lon="4.66152">
        <ele>217</ele>
        <time>2018-03-07T10:09:03Z</time>
      </trkpt>
      <trkpt lat="45.86551" lon="4.66148">
        <ele>217</ele>
        <time>2018-03-07T10:09:04Z</time>
      </trkpt>
      <trkpt lat="45.86557" lon="4.66145">
        <ele>218</ele>
        <time>2018-03-07T10:09:05Z</time>
      </trkpt>
      <trkpt lat="45.86561" lon="4.66142">
        <ele>218</ele>
        <time>2018-03-07T10:09:06Z</time>
      </trkpt>
      <trkpt lat="45.86565" lon="4.66139">
        <ele>218</ele>
        <time>2018-03-07T10:09:07Z</time>
      </trkpt>
      <trkpt lat="45.8657" lon="4.66134">
        <ele>217</ele>
        <time>2018-03-07T10:09:08Z</time>
      </trkpt>
      <trkpt lat="45.86575" lon="4.6613">
        <ele>217</ele>
        <time>2018-03-07T10:09:09Z</time>
      </trkpt>
      <trkpt lat="45.86583" lon="4.66128">
        <ele>217</ele>
        <time>2018-03-07T10:09:10Z</time>
      </trkpt>
      <trkpt lat="45.86588" lon="4.66123">
        <ele>223</ele>
        <time>2018-03-07T10:09:11Z</time>
      </trkpt>
      <trkpt lat="45.86592" lon="4.6612">
        <ele>223</ele>
        <time>2018-03-07T10:09:12Z</time>
      </trkpt>
      <trkpt lat="45.86597" lon="4.66116">
        <ele>222</ele>
        <time>2018-03-07T10:09:13Z</time>
      </trkpt>
      <trkpt lat="45.86603" lon="4.66111">
        <ele>222</ele>
        <time>2018-03-07T10:09:14Z</time>
      </trkpt>
      <trkpt lat="45.86607" lon="4.66109">
        <ele>222</ele>
        <time>2018-03-07T10:09:15Z</time>
      </trkpt>
      <trkpt lat="45.86611" lon="4.66106">
        <ele>222</ele>
        <time>2018-03-07T10:09:16Z</time>
      </trkpt>
      <trkpt lat="45.86616" lon="4.66103">
        <ele>222</ele>
        <time>2018-03-07T10:09:17Z</time>
      </trkpt>
      <trkpt lat="45.86624" lon="4.661">
        <ele>223</ele>
        <time>2018-03-07T10:09:19Z</time>
      </trkpt>
      <trkpt lat="45.86628" lon="4.66098">
        <ele>223</ele>
        <time>2018-03-07T10:09:20Z</time>
      </trkpt>
      <trkpt lat="45.86632" lon="4.66096">
        <ele>223</ele>
        <time>2018-03-07T10:09:21Z</time>
      </trkpt>
      <trkpt lat="45.86637" lon="4.66094">
        <ele>223</ele>
        <time>2018-03-07T10:09:22Z</time>
      </trkpt>
      <trkpt lat="45.86642" lon="4.66092">
        <ele>223</ele>
        <time>2018-03-07T10:09:23Z</time>
      </trkpt>
      <trkpt lat="45.86649" lon="4.66087">
        <ele>222</ele>
        <time>2018-03-07T10:09:24Z</time>
      </trkpt>
      <trkpt lat="45.86654" lon="4.66086">
        <ele>222</ele>
        <time>2018-03-07T10:09:25Z</time>
      </trkpt>
      <trkpt lat="45.8666" lon="4.66083">
        <ele>217</ele>
        <time>2018-03-07T10:09:26Z</time>
      </trkpt>
      <trkpt lat="45.86666" lon="4.66081">
        <ele>218</ele>
        <time>2018-03-07T10:09:27Z</time>
      </trkpt>
      <trkpt lat="45.8667" lon="4.6608">
        <ele>220</ele>
        <time>2018-03-07T10:09:28Z</time>
      </trkpt>
      <trkpt lat="45.86674" lon="4.66079">
        <ele>220</ele>
        <time>2018-03-07T10:09:29Z</time>
      </trkpt>
      <trkpt lat="45.86679" lon="4.66075">
        <ele>220</ele>
        <time>2018-03-07T10:09:30Z</time>
      </trkpt>
      <trkpt lat="45.86686" lon="4.66071">
        <ele>221</ele>
        <time>2018-03-07T10:09:32Z</time>
      </trkpt>
      <trkpt lat="45.86692" lon="4.66071">
        <ele>222</ele>
        <time>2018-03-07T10:09:33Z</time>
      </trkpt>
      <trkpt lat="45.86696" lon="4.66069">
        <ele>222</ele>
        <time>2018-03-07T10:09:34Z</time>
      </trkpt>
      <trkpt lat="45.86702" lon="4.66068">
        <ele>223</ele>
        <time>2018-03-07T10:09:35Z</time>
      </trkpt>
      <trkpt lat="45.86707" lon="4.66064">
        <ele>223</ele>
        <time>2018-03-07T10:09:36Z</time>
      </trkpt>
      <trkpt lat="45.86712" lon="4.6606">
        <ele>223</ele>
        <time>2018-03-07T10:09:37Z</time>
      </trkpt>
      <trkpt lat="45.86716" lon="4.66058">
        <ele>224</ele>
        <time>2018-03-07T10:09:38Z</time>
      </trkpt>
      <trkpt lat="45.86721" lon="4.66056">
        <ele>224</ele>
        <time>2018-03-07T10:09:39Z</time>
      </trkpt>
      <trkpt lat="45.86725" lon="4.66052">
        <ele>224</ele>
        <time>2018-03-07T10:09:40Z</time>
      </trkpt>
      <trkpt lat="45.86729" lon="4.66048">
        <ele>224</ele>
        <time>2018-03-07T10:09:41Z</time>
      </trkpt>
      <trkpt lat="45.8673" lon="4.66048">
        <ele>224</ele>
        <time>2018-03-07T10:09:42Z</time>
      </trkpt>
      <trkpt lat="45.86738" lon="4.66043">
        <ele>224</ele>
        <time>2018-03-07T10:09:43Z</time>
      </trkpt>
      <trkpt lat="45.86743" lon="4.66037">
        <ele>223</ele>
        <time>2018-03-07T10:09:44Z</time>
      </trkpt>
      <trkpt lat="45.86749" lon="4.66032">
        <ele>222</ele>
        <time>2018-03-07T10:09:45Z</time>
      </trkpt>
      <trkpt lat="45.86753" lon="4.66029">
        <ele>231</ele>
        <time>2018-03-07T10:09:46Z</time>
      </trkpt>
      <trkpt lat="45.86757" lon="4.66026">
        <ele>230</ele>
        <time>2018-03-07T10:09:47Z</time>
      </trkpt>
      <trkpt lat="45.86762" lon="4.6602">
        <ele>229</ele>
        <time>2018-03-07T10:09:48Z</time>
      </trkpt>
      <trkpt lat="45.86767" lon="4.66015">
        <ele>229</ele>
        <time>2018-03-07T10:09:49Z</time>
      </trkpt>
      <trkpt lat="45.86767" lon="4.66009">
        <ele>228</ele>
        <time>2018-03-07T10:09:50Z</time>
      </trkpt>
      <trkpt lat="45.86772" lon="4.66002">
        <ele>228</ele>
        <time>2018-03-07T10:09:51Z</time>
      </trkpt>
      <trkpt lat="45.86777" lon="4.65996">
        <ele>221</ele>
        <time>2018-03-07T10:09:52Z</time>
      </trkpt>
      <trkpt lat="45.8678" lon="4.65991">
        <ele>221</ele>
        <time>2018-03-07T10:09:53Z</time>
      </trkpt>
      <trkpt lat="45.86785" lon="4.65985">
        <ele>222</ele>
        <time>2018-03-07T10:09:54Z</time>
      </trkpt>
      <trkpt lat="45.86788" lon="4.65981">
        <ele>222</ele>
        <time>2018-03-07T10:09:55Z</time>
      </trkpt>
      <trkpt lat="45.86792" lon="4.65976">
        <ele>222</ele>
        <time>2018-03-07T10:09:56Z</time>
      </trkpt>
      <trkpt lat="45.86795" lon="4.65971">
        <ele>222</ele>
        <time>2018-03-07T10:09:57Z</time>
      </trkpt>
      <trkpt lat="45.86799" lon="4.65967">
        <ele>222</ele>
        <time>2018-03-07T10:09:58Z</time>
      </trkpt>
      <trkpt lat="45.86803" lon="4.65962">
        <ele>222</ele>
        <time>2018-03-07T10:09:59Z</time>
      </trkpt>
      <trkpt lat="45.86809" lon="4.65953">
        <ele>222</ele>
        <time>2018-03-07T10:10:01Z</time>
      </trkpt>
      <trkpt lat="45.86812" lon="4.65947">
        <ele>222</ele>
        <time>2018-03-07T10:10:02Z</time>
      </trkpt>
      <trkpt lat="45.86815" lon="4.65941">
        <ele>222</ele>
        <time>2018-03-07T10:10:03Z</time>
      </trkpt>
      <trkpt lat="45.86818" lon="4.65936">
        <ele>222</ele>
        <time>2018-03-07T10:10:04Z</time>
      </trkpt>
      <trkpt lat="45.86821" lon="4.65931">
        <ele>221</ele>
        <time>2018-03-07T10:10:05Z</time>
      </trkpt>
      <trkpt lat="45.86824" lon="4.65925">
        <ele>221</ele>
        <time>2018-03-07T10:10:06Z</time>
      </trkpt>
      <trkpt lat="45.86827" lon="4.6592">
        <ele>221</ele>
        <time>2018-03-07T10:10:07Z</time>
      </trkpt>
      <trkpt lat="45.8683" lon="4.65913">
        <ele>220</ele>
        <time>2018-03-07T10:10:08Z</time>
      </trkpt>
      <trkpt lat="45.86834" lon="4.65907">
        <ele>224</ele>
        <time>2018-03-07T10:10:09Z</time>
      </trkpt>
      <trkpt lat="45.86837" lon="4.65901">
        <ele>225</ele>
        <time>2018-03-07T10:10:10Z</time>
      </trkpt>
      <trkpt lat="45.8684" lon="4.65894">
        <ele>225</ele>
        <time>2018-03-07T10:10:11Z</time>
      </trkpt>
      <trkpt lat="45.86844" lon="4.65888">
        <ele>226</ele>
        <time>2018-03-07T10:10:12Z</time>
      </trkpt>
      <trkpt lat="45.86847" lon="4.65883">
        <ele>226</ele>
        <time>2018-03-07T10:10:13Z</time>
      </trkpt>
      <trkpt lat="45.8685" lon="4.65877">
        <ele>226</ele>
        <time>2018-03-07T10:10:14Z</time>
      </trkpt>
      <trkpt lat="45.86854" lon="4.65867">
        <ele>226</ele>
        <time>2018-03-07T10:10:16Z</time>
      </trkpt>
      <trkpt lat="45.86857" lon="4.65862">
        <ele>226</ele>
        <time>2018-03-07T10:10:17Z</time>
      </trkpt>
      <trkpt lat="45.8686" lon="4.65855">
        <ele>225</ele>
        <time>2018-03-07T10:10:18Z</time>
      </trkpt>
      <trkpt lat="45.86863" lon="4.65847">
        <ele>225</ele>
        <time>2018-03-07T10:10:19Z</time>
      </trkpt>
      <trkpt lat="45.86864" lon="4.65841">
        <ele>225</ele>
        <time>2018-03-07T10:10:20Z</time>
      </trkpt>
      <trkpt lat="45.86866" lon="4.65835">
        <ele>225</ele>
        <time>2018-03-07T10:10:21Z</time>
      </trkpt>
      <trkpt lat="45.86868" lon="4.65827">
        <ele>221</ele>
        <time>2018-03-07T10:10:22Z</time>
      </trkpt>
      <trkpt lat="45.86872" lon="4.65817">
        <ele>222</ele>
        <time>2018-03-07T10:10:23Z</time>
      </trkpt>
      <trkpt lat="45.86874" lon="4.6581">
        <ele>222</ele>
        <time>2018-03-07T10:10:24Z</time>
      </trkpt>
      <trkpt lat="45.86875" lon="4.65802">
        <ele>222</ele>
        <time>2018-03-07T10:10:25Z</time>
      </trkpt>
      <trkpt lat="45.86878" lon="4.65794">
        <ele>222</ele>
        <time>2018-03-07T10:10:26Z</time>
      </trkpt>
      <trkpt lat="45.86879" lon="4.65788">
        <ele>222</ele>
        <time>2018-03-07T10:10:27Z</time>
      </trkpt>
      <trkpt lat="45.8688" lon="4.65782">
        <ele>222</ele>
        <time>2018-03-07T10:10:28Z</time>
      </trkpt>
      <trkpt lat="45.86883" lon="4.65774">
        <ele>223</ele>
        <time>2018-03-07T10:10:29Z</time>
      </trkpt>
      <trkpt lat="45.86884" lon="4.65766">
        <ele>223</ele>
        <time>2018-03-07T10:10:30Z</time>
      </trkpt>
      <trkpt lat="45.86884" lon="4.65759">
        <ele>223</ele>
        <time>2018-03-07T10:10:31Z</time>
      </trkpt>
      <trkpt lat="45.86885" lon="4.65755">
        <ele>223</ele>
        <time>2018-03-07T10:10:32Z</time>
      </trkpt>
      <trkpt lat="45.86887" lon="4.65747">
        <ele>223</ele>
        <time>2018-03-07T10:10:33Z</time>
      </trkpt>
      <trkpt lat="45.86888" lon="4.65738">
        <ele>223</ele>
        <time>2018-03-07T10:10:34Z</time>
      </trkpt>
      <trkpt lat="45.86889" lon="4.65732">
        <ele>223</ele>
        <time>2018-03-07T10:10:35Z</time>
      </trkpt>
      <trkpt lat="45.86889" lon="4.65725">
        <ele>223</ele>
        <time>2018-03-07T10:10:36Z</time>
      </trkpt>
      <trkpt lat="45.86888" lon="4.65718">
        <ele>222</ele>
        <time>2018-03-07T10:10:37Z</time>
      </trkpt>
      <trkpt lat="45.86888" lon="4.65711">
        <ele>222</ele>
        <time>2018-03-07T10:10:38Z</time>
      </trkpt>
      <trkpt lat="45.86889" lon="4.65705">
        <ele>223</ele>
        <time>2018-03-07T10:10:39Z</time>
      </trkpt>
      <trkpt lat="45.86888" lon="4.65699">
        <ele>223</ele>
        <time>2018-03-07T10:10:40Z</time>
      </trkpt>
      <trkpt lat="45.86887" lon="4.65691">
        <ele>223</ele>
        <time>2018-03-07T10:10:41Z</time>
      </trkpt>
      <trkpt lat="45.86888" lon="4.65683">
        <ele>223</ele>
        <time>2018-03-07T10:10:42Z</time>
      </trkpt>
      <trkpt lat="45.86888" lon="4.65675">
        <ele>223</ele>
        <time>2018-03-07T10:10:43Z</time>
      </trkpt>
      <trkpt lat="45.86889" lon="4.65668">
        <ele>224</ele>
        <time>2018-03-07T10:10:44Z</time>
      </trkpt>
      <trkpt lat="45.86888" lon="4.65659">
        <ele>223</ele>
        <time>2018-03-07T10:10:45Z</time>
      </trkpt>
      <trkpt lat="45.8689" lon="4.65651">
        <ele>223</ele>
        <time>2018-03-07T10:10:46Z</time>
      </trkpt>
      <trkpt lat="45.86891" lon="4.65642">
        <ele>223</ele>
        <time>2018-03-07T10:10:47Z</time>
      </trkpt>
      <trkpt lat="45.86893" lon="4.65634">
        <ele>223</ele>
        <time>2018-03-07T10:10:48Z</time>
      </trkpt>
      <trkpt lat="45.86894" lon="4.65626">
        <ele>222</ele>
        <time>2018-03-07T10:10:49Z</time>
      </trkpt>
      <trkpt lat="45.86895" lon="4.65617">
        <ele>222</ele>
        <time>2018-03-07T10:10:50Z</time>
      </trkpt>
      <trkpt lat="45.86897" lon="4.65608">
        <ele>223</ele>
        <time>2018-03-07T10:10:51Z</time>
      </trkpt>
      <trkpt lat="45.86899" lon="4.65599">
        <ele>223</ele>
        <time>2018-03-07T10:10:52Z</time>
      </trkpt>
      <trkpt lat="45.86901" lon="4.65589">
        <ele>223</ele>
        <time>2018-03-07T10:10:53Z</time>
      </trkpt>
      <trkpt lat="45.86904" lon="4.6558">
        <ele>222</ele>
        <time>2018-03-07T10:10:54Z</time>
      </trkpt>
      <trkpt lat="45.86906" lon="4.65572">
        <ele>222</ele>
        <time>2018-03-07T10:10:55Z</time>
      </trkpt>
      <trkpt lat="45.86909" lon="4.65564">
        <ele>221</ele>
        <time>2018-03-07T10:10:56Z</time>
      </trkpt>
      <trkpt lat="45.86911" lon="4.65554">
        <ele>220</ele>
        <time>2018-03-07T10:10:57Z</time>
      </trkpt>
      <trkpt lat="45.86914" lon="4.65547">
        <ele>219</ele>
        <time>2018-03-07T10:10:58Z</time>
      </trkpt>
      <trkpt lat="45.86918" lon="4.65538">
        <ele>229</ele>
        <time>2018-03-07T10:10:59Z</time>
      </trkpt>
      <trkpt lat="45.86922" lon="4.65531">
        <ele>228</ele>
        <time>2018-03-07T10:11:00Z</time>
      </trkpt>
      <trkpt lat="45.86925" lon="4.65522">
        <ele>227</ele>
        <time>2018-03-07T10:11:01Z</time>
      </trkpt>
      <trkpt lat="45.86928" lon="4.65514">
        <ele>226</ele>
        <time>2018-03-07T10:11:02Z</time>
      </trkpt>
      <trkpt lat="45.86933" lon="4.65507">
        <ele>226</ele>
        <time>2018-03-07T10:11:03Z</time>
      </trkpt>
      <trkpt lat="45.86936" lon="4.655">
        <ele>226</ele>
        <time>2018-03-07T10:11:04Z</time>
      </trkpt>
      <trkpt lat="45.86939" lon="4.65493">
        <ele>221</ele>
        <time>2018-03-07T10:11:05Z</time>
      </trkpt>
      <trkpt lat="45.86942" lon="4.65486">
        <ele>222</ele>
        <time>2018-03-07T10:11:06Z</time>
      </trkpt>
      <trkpt lat="45.86945" lon="4.6548">
        <ele>222</ele>
        <time>2018-03-07T10:11:07Z</time>
      </trkpt>
      <trkpt lat="45.8695" lon="4.65472">
        <ele>222</ele>
        <time>2018-03-07T10:11:08Z</time>
      </trkpt>
      <trkpt lat="45.86955" lon="4.65466">
        <ele>222</ele>
        <time>2018-03-07T10:11:09Z</time>
      </trkpt>
      <trkpt lat="45.86959" lon="4.6546">
        <ele>222</ele>
        <time>2018-03-07T10:11:10Z</time>
      </trkpt>
      <trkpt lat="45.86965" lon="4.65454">
        <ele>222</ele>
        <time>2018-03-07T10:11:11Z</time>
      </trkpt>
      <trkpt lat="45.8697" lon="4.65445">
        <ele>222</ele>
        <time>2018-03-07T10:11:12Z</time>
      </trkpt>
      <trkpt lat="45.86975" lon="4.65439">
        <ele>222</ele>
        <time>2018-03-07T10:11:13Z</time>
      </trkpt>
      <trkpt lat="45.86978" lon="4.65433">
        <ele>222</ele>
        <time>2018-03-07T10:11:14Z</time>
      </trkpt>
      <trkpt lat="45.86983" lon="4.65427">
        <ele>222</ele>
        <time>2018-03-07T10:11:15Z</time>
      </trkpt>
      <trkpt lat="45.86988" lon="4.65421">
        <ele>221</ele>
        <time>2018-03-07T10:11:16Z</time>
      </trkpt>
      <trkpt lat="45.86993" lon="4.65417">
        <ele>221</ele>
        <time>2018-03-07T10:11:17Z</time>
      </trkpt>
      <trkpt lat="45.87" lon="4.6541">
        <ele>219</ele>
        <time>2018-03-07T10:11:18Z</time>
      </trkpt>
      <trkpt lat="45.87005" lon="4.65404">
        <ele>222</ele>
        <time>2018-03-07T10:11:19Z</time>
      </trkpt>
      <trkpt lat="45.8701" lon="4.65399">
        <ele>223</ele>
        <time>2018-03-07T10:11:20Z</time>
      </trkpt>
      <trkpt lat="45.87015" lon="4.65394">
        <ele>223</ele>
        <time>2018-03-07T10:11:21Z</time>
      </trkpt>
      <trkpt lat="45.87019" lon="4.65389">
        <ele>223</ele>
        <time>2018-03-07T10:11:22Z</time>
      </trkpt>
      <trkpt lat="45.87025" lon="4.65384">
        <ele>224</ele>
        <time>2018-03-07T10:11:23Z</time>
      </trkpt>
      <trkpt lat="45.87029" lon="4.65377">
        <ele>224</ele>
        <time>2018-03-07T10:11:24Z</time>
      </trkpt>
      <trkpt lat="45.87033" lon="4.65369">
        <ele>223</ele>
        <time>2018-03-07T10:11:25Z</time>
      </trkpt>
      <trkpt lat="45.87038" lon="4.65362">
        <ele>223</ele>
        <time>2018-03-07T10:11:26Z</time>
      </trkpt>
      <trkpt lat="45.87042" lon="4.65356">
        <ele>223</ele>
        <time>2018-03-07T10:11:27Z</time>
      </trkpt>
      <trkpt lat="45.87046" lon="4.65348">
        <ele>223</ele>
        <time>2018-03-07T10:11:28Z</time>
      </trkpt>
      <trkpt lat="45.87049" lon="4.65341">
        <ele>223</ele>
        <time>2018-03-07T10:11:29Z</time>
      </trkpt>
      <trkpt lat="45.87053" lon="4.65335">
        <ele>223</ele>
        <time>2018-03-07T10:11:30Z</time>
      </trkpt>
      <trkpt lat="45.87057" lon="4.65327">
        <ele>218</ele>
        <time>2018-03-07T10:11:31Z</time>
      </trkpt>
      <trkpt lat="45.87061" lon="4.65319">
        <ele>218</ele>
        <time>2018-03-07T10:11:32Z</time>
      </trkpt>
      <trkpt lat="45.87063" lon="4.65312">
        <ele>218</ele>
        <time>2018-03-07T10:11:33Z</time>
      </trkpt>
      <trkpt lat="45.87066" lon="4.65304">
        <ele>217</ele>
        <time>2018-03-07T10:11:34Z</time>
      </trkpt>
      <trkpt lat="45.8707" lon="4.65297">
        <ele>217</ele>
        <time>2018-03-07T10:11:35Z</time>
      </trkpt>
      <trkpt lat="45.87074" lon="4.65288">
        <ele>216</ele>
        <time>2018-03-07T10:11:36Z</time>
      </trkpt>
      <trkpt lat="45.87076" lon="4.6528">
        <ele>215</ele>
        <time>2018-03-07T10:11:37Z</time>
      </trkpt>
      <trkpt lat="45.8708" lon="4.65272">
        <ele>215</ele>
        <time>2018-03-07T10:11:38Z</time>
      </trkpt>
      <trkpt lat="45.87084" lon="4.65266">
        <ele>222</ele>
        <time>2018-03-07T10:11:39Z</time>
      </trkpt>
      <trkpt lat="45.87088" lon="4.65258">
        <ele>219</ele>
        <time>2018-03-07T10:11:40Z</time>
      </trkpt>
      <trkpt lat="45.8709" lon="4.6525">
        <ele>215</ele>
        <time>2018-03-07T10:11:41Z</time>
      </trkpt>
      <trkpt lat="45.87097" lon="4.65241">
        <ele>217</ele>
        <time>2018-03-07T10:11:42Z</time>
      </trkpt>
      <trkpt lat="45.871" lon="4.65233">
        <ele>218</ele>
        <time>2018-03-07T10:11:43Z</time>
      </trkpt>
      <trkpt lat="45.87105" lon="4.65228">
        <ele>219</ele>
        <time>2018-03-07T10:11:44Z</time>
      </trkpt>
      <trkpt lat="45.87109" lon="4.6522">
        <ele>219</ele>
        <time>2018-03-07T10:11:45Z</time>
      </trkpt>
      <trkpt lat="45.87113" lon="4.65215">
        <ele>219</ele>
        <time>2018-03-07T10:11:46Z</time>
      </trkpt>
      <trkpt lat="45.87118" lon="4.65209">
        <ele>220</ele>
        <time>2018-03-07T10:11:47Z</time>
      </trkpt>
      <trkpt lat="45.87123" lon="4.65201">
        <ele>220</ele>
        <time>2018-03-07T10:11:48Z</time>
      </trkpt>
      <trkpt lat="45.87128" lon="4.65194">
        <ele>220</ele>
        <time>2018-03-07T10:11:49Z</time>
      </trkpt>
      <trkpt lat="45.87133" lon="4.65189">
        <ele>220</ele>
        <time>2018-03-07T10:11:50Z</time>
      </trkpt>
      <trkpt lat="45.87138" lon="4.65184">
        <ele>220</ele>
        <time>2018-03-07T10:11:51Z</time>
      </trkpt>
      <trkpt lat="45.87144" lon="4.65178">
        <ele>220</ele>
        <time>2018-03-07T10:11:52Z</time>
      </trkpt>
      <trkpt lat="45.87151" lon="4.65174">
        <ele>220</ele>
        <time>2018-03-07T10:11:53Z</time>
      </trkpt>
      <trkpt lat="45.87155" lon="4.65168">
        <ele>220</ele>
        <time>2018-03-07T10:11:54Z</time>
      </trkpt>
      <trkpt lat="45.87161" lon="4.65162">
        <ele>218</ele>
        <time>2018-03-07T10:11:55Z</time>
      </trkpt>
      <trkpt lat="45.87167" lon="4.65157">
        <ele>221</ele>
        <time>2018-03-07T10:11:56Z</time>
      </trkpt>
      <trkpt lat="45.87172" lon="4.65149">
        <ele>221</ele>
        <time>2018-03-07T10:11:57Z</time>
      </trkpt>
      <trkpt lat="45.87178" lon="4.65143">
        <ele>221</ele>
        <time>2018-03-07T10:11:58Z</time>
      </trkpt>
      <trkpt lat="45.87184" lon="4.65138">
        <ele>221</ele>
        <time>2018-03-07T10:11:59Z</time>
      </trkpt>
      <trkpt lat="45.87188" lon="4.65132">
        <ele>221</ele>
        <time>2018-03-07T10:12:00Z</time>
      </trkpt>
      <trkpt lat="45.87193" lon="4.65124">
        <ele>221</ele>
        <time>2018-03-07T10:12:01Z</time>
      </trkpt>
      <trkpt lat="45.87197" lon="4.65116">
        <ele>220</ele>
        <time>2018-03-07T10:12:02Z</time>
      </trkpt>
      <trkpt lat="45.87203" lon="4.65116">
        <ele>221</ele>
        <time>2018-03-07T10:12:03Z</time>
      </trkpt>
      <trkpt lat="45.87209" lon="4.65114">
        <ele>221</ele>
        <time>2018-03-07T10:12:04Z</time>
      </trkpt>
      <trkpt lat="45.87215" lon="4.65112">
        <ele>221</ele>
        <time>2018-03-07T10:12:05Z</time>
      </trkpt>
      <trkpt lat="45.8722" lon="4.65108">
        <ele>221</ele>
        <time>2018-03-07T10:12:06Z</time>
      </trkpt>
      <trkpt lat="45.87225" lon="4.65103">
        <ele>221</ele>
        <time>2018-03-07T10:12:07Z</time>
      </trkpt>
      <trkpt lat="45.87229" lon="4.65097">
        <ele>220</ele>
        <time>2018-03-07T10:12:08Z</time>
      </trkpt>
      <trkpt lat="45.87235" lon="4.65094">
        <ele>220</ele>
        <time>2018-03-07T10:12:09Z</time>
      </trkpt>
      <trkpt lat="45.87241" lon="4.65089">
        <ele>219</ele>
        <time>2018-03-07T10:12:10Z</time>
      </trkpt>
      <trkpt lat="45.87246" lon="4.65084">
        <ele>219</ele>
        <time>2018-03-07T10:12:11Z</time>
      </trkpt>
      <trkpt lat="45.8725" lon="4.6508">
        <ele>217</ele>
        <time>2018-03-07T10:12:12Z</time>
      </trkpt>
      <trkpt lat="45.87256" lon="4.65076">
        <ele>219</ele>
        <time>2018-03-07T10:12:13Z</time>
      </trkpt>
      <trkpt lat="45.87261" lon="4.65072">
        <ele>219</ele>
        <time>2018-03-07T10:12:14Z</time>
      </trkpt>
      <trkpt lat="45.87265" lon="4.65067">
        <ele>219</ele>
        <time>2018-03-07T10:12:15Z</time>
      </trkpt>
      <trkpt lat="45.8727" lon="4.65062">
        <ele>219</ele>
        <time>2018-03-07T10:12:16Z</time>
      </trkpt>
      <trkpt lat="45.87274" lon="4.65058">
        <ele>219</ele>
        <time>2018-03-07T10:12:17Z</time>
      </trkpt>
      <trkpt lat="45.87278" lon="4.65055">
        <ele>220</ele>
        <time>2018-03-07T10:12:18Z</time>
      </trkpt>
      <trkpt lat="45.87282" lon="4.65049">
        <ele>220</ele>
        <time>2018-03-07T10:12:19Z</time>
      </trkpt>
      <trkpt lat="45.87287" lon="4.65043">
        <ele>220</ele>
        <time>2018-03-07T10:12:20Z</time>
      </trkpt>
      <trkpt lat="45.87291" lon="4.65038">
        <ele>219</ele>
        <time>2018-03-07T10:12:21Z</time>
      </trkpt>
      <trkpt lat="45.87295" lon="4.65033">
        <ele>219</ele>
        <time>2018-03-07T10:12:22Z</time>
      </trkpt>
      <trkpt lat="45.87299" lon="4.65028">
        <ele>219</ele>
        <time>2018-03-07T10:12:23Z</time>
      </trkpt>
      <trkpt lat="45.87303" lon="4.65021">
        <ele>219</ele>
        <time>2018-03-07T10:12:24Z</time>
      </trkpt>
      <trkpt lat="45.87306" lon="4.65013">
        <ele>219</ele>
        <time>2018-03-07T10:12:25Z</time>
      </trkpt>
      <trkpt lat="45.8731" lon="4.65006">
        <ele>219</ele>
        <time>2018-03-07T10:12:26Z</time>
      </trkpt>
      <trkpt lat="45.87314" lon="4.65001">
        <ele>219</ele>
        <time>2018-03-07T10:12:27Z</time>
      </trkpt>
      <trkpt lat="45.87318" lon="4.64993">
        <ele>215</ele>
        <time>2018-03-07T10:12:28Z</time>
      </trkpt>
      <trkpt lat="45.87322" lon="4.64987">
        <ele>215</ele>
        <time>2018-03-07T10:12:29Z</time>
      </trkpt>
      <trkpt lat="45.87325" lon="4.64979">
        <ele>215</ele>
        <time>2018-03-07T10:12:30Z</time>
      </trkpt>
      <trkpt lat="45.87329" lon="4.64972">
        <ele>214</ele>
        <time>2018-03-07T10:12:31Z</time>
      </trkpt>
      <trkpt lat="45.87333" lon="4.64965">
        <ele>214</ele>
        <time>2018-03-07T10:12:32Z</time>
      </trkpt>
      <trkpt lat="45.87336" lon="4.64959">
        <ele>218</ele>
        <time>2018-03-07T10:12:33Z</time>
      </trkpt>
      <trkpt lat="45.87338" lon="4.64952">
        <ele>218</ele>
        <time>2018-03-07T10:12:34Z</time>
      </trkpt>
      <trkpt lat="45.87341" lon="4.64946">
        <ele>217</ele>
        <time>2018-03-07T10:12:35Z</time>
      </trkpt>
      <trkpt lat="45.87346" lon="4.6494">
        <ele>217</ele>
        <time>2018-03-07T10:12:36Z</time>
      </trkpt>
      <trkpt lat="45.8735" lon="4.64934">
        <ele>217</ele>
        <time>2018-03-07T10:12:37Z</time>
      </trkpt>
      <trkpt lat="45.87352" lon="4.64927">
        <ele>216</ele>
        <time>2018-03-07T10:12:38Z</time>
      </trkpt>
      <trkpt lat="45.87357" lon="4.64918">
        <ele>217</ele>
        <time>2018-03-07T10:12:39Z</time>
      </trkpt>
      <trkpt lat="45.87361" lon="4.64911">
        <ele>214</ele>
        <time>2018-03-07T10:12:40Z</time>
      </trkpt>
      <trkpt lat="45.87366" lon="4.64905">
        <ele>214</ele>
        <time>2018-03-07T10:12:41Z</time>
      </trkpt>
      <trkpt lat="45.8737" lon="4.64898">
        <ele>215</ele>
        <time>2018-03-07T10:12:42Z</time>
      </trkpt>
      <trkpt lat="45.87376" lon="4.64891">
        <ele>215</ele>
        <time>2018-03-07T10:12:43Z</time>
      </trkpt>
      <trkpt lat="45.87381" lon="4.64885">
        <ele>215</ele>
        <time>2018-03-07T10:12:44Z</time>
      </trkpt>
      <trkpt lat="45.87385" lon="4.64879">
        <ele>215</ele>
        <time>2018-03-07T10:12:45Z</time>
      </trkpt>
      <trkpt lat="45.87388" lon="4.64874">
        <ele>215</ele>
        <time>2018-03-07T10:12:46Z</time>
      </trkpt>
      <trkpt lat="45.87396" lon="4.64867">
        <ele>215</ele>
        <time>2018-03-07T10:12:47Z</time>
      </trkpt>
      <trkpt lat="45.87401" lon="4.64863">
        <ele>215</ele>
        <time>2018-03-07T10:12:48Z</time>
      </trkpt>
      <trkpt lat="45.87405" lon="4.64856">
        <ele>215</ele>
        <time>2018-03-07T10:12:49Z</time>
      </trkpt>
      <trkpt lat="45.8741" lon="4.64849">
        <ele>215</ele>
        <time>2018-03-07T10:12:50Z</time>
      </trkpt>
      <trkpt lat="45.87415" lon="4.64843">
        <ele>215</ele>
        <time>2018-03-07T10:12:51Z</time>
      </trkpt>
      <trkpt lat="45.87419" lon="4.64838">
        <ele>216</ele>
        <time>2018-03-07T10:12:52Z</time>
      </trkpt>
      <trkpt lat="45.87424" lon="4.6483">
        <ele>215</ele>
        <time>2018-03-07T10:12:53Z</time>
      </trkpt>
      <trkpt lat="45.87431" lon="4.64823">
        <ele>215</ele>
        <time>2018-03-07T10:12:54Z</time>
      </trkpt>
      <trkpt lat="45.87435" lon="4.64818">
        <ele>215</ele>
        <time>2018-03-07T10:12:55Z</time>
      </trkpt>
      <trkpt lat="45.8744" lon="4.64811">
        <ele>214</ele>
        <time>2018-03-07T10:12:56Z</time>
      </trkpt>
      <trkpt lat="45.87445" lon="4.64805">
        <ele>214</ele>
        <time>2018-03-07T10:12:57Z</time>
      </trkpt>
      <trkpt lat="45.87449" lon="4.64799">
        <ele>214</ele>
        <time>2018-03-07T10:12:58Z</time>
      </trkpt>
      <trkpt lat="45.87455" lon="4.64794">
        <ele>214</ele>
        <time>2018-03-07T10:12:59Z</time>
      </trkpt>
      <trkpt lat="45.87459" lon="4.64788">
        <ele>214</ele>
        <time>2018-03-07T10:13:00Z</time>
      </trkpt>
      <trkpt lat="45.87465" lon="4.64782">
        <ele>214</ele>
        <time>2018-03-07T10:13:01Z</time>
      </trkpt>
      <trkpt lat="45.87469" lon="4.64773">
        <ele>214</ele>
        <time>2018-03-07T10:13:02Z</time>
      </trkpt>
      <trkpt lat="45.87473" lon="4.64766">
        <ele>214</ele>
        <time>2018-03-07T10:13:03Z</time>
      </trkpt>
      <trkpt lat="45.87477" lon="4.64761">
        <ele>214</ele>
        <time>2018-03-07T10:13:04Z</time>
      </trkpt>
      <trkpt lat="45.87482" lon="4.64755">
        <ele>214</ele>
        <time>2018-03-07T10:13:05Z</time>
      </trkpt>
      <trkpt lat="45.87486" lon="4.64749">
        <ele>213</ele>
        <time>2018-03-07T10:13:06Z</time>
      </trkpt>
      <trkpt lat="45.8749" lon="4.64744">
        <ele>213</ele>
        <time>2018-03-07T10:13:07Z</time>
      </trkpt>
      <trkpt lat="45.87494" lon="4.64739">
        <ele>213</ele>
        <time>2018-03-07T10:13:08Z</time>
      </trkpt>
      <trkpt lat="45.87499" lon="4.64734">
        <ele>213</ele>
        <time>2018-03-07T10:13:09Z</time>
      </trkpt>
      <trkpt lat="45.87504" lon="4.64728">
        <ele>213</ele>
        <time>2018-03-07T10:13:10Z</time>
      </trkpt>
      <trkpt lat="45.87508" lon="4.64722">
        <ele>213</ele>
        <time>2018-03-07T10:13:11Z</time>
      </trkpt>
      <trkpt lat="45.87511" lon="4.64715">
        <ele>213</ele>
        <time>2018-03-07T10:13:12Z</time>
      </trkpt>
      <trkpt lat="45.87515" lon="4.64709">
        <ele>212</ele>
        <time>2018-03-07T10:13:13Z</time>
      </trkpt>
      <trkpt lat="45.87519" lon="4.64703">
        <ele>212</ele>
        <time>2018-03-07T10:13:14Z</time>
      </trkpt>
      <trkpt lat="45.87523" lon="4.64697">
        <ele>212</ele>
        <time>2018-03-07T10:13:15Z</time>
      </trkpt>
      <trkpt lat="45.87527" lon="4.6469">
        <ele>212</ele>
        <time>2018-03-07T10:13:16Z</time>
      </trkpt>
      <trkpt lat="45.87531" lon="4.64686">
        <ele>212</ele>
        <time>2018-03-07T10:13:17Z</time>
      </trkpt>
      <trkpt lat="45.87534" lon="4.6468">
        <ele>212</ele>
        <time>2018-03-07T10:13:18Z</time>
      </trkpt>
      <trkpt lat="45.87539" lon="4.64675">
        <ele>212</ele>
        <time>2018-03-07T10:13:19Z</time>
      </trkpt>
      <trkpt lat="45.87543" lon="4.6467">
        <ele>212</ele>
        <time>2018-03-07T10:13:20Z</time>
      </trkpt>
      <trkpt lat="45.87547" lon="4.64665">
        <ele>212</ele>
        <time>2018-03-07T10:13:21Z</time>
      </trkpt>
      <trkpt lat="45.87551" lon="4.6466">
        <ele>212</ele>
        <time>2018-03-07T10:13:22Z</time>
      </trkpt>
      <trkpt lat="45.87555" lon="4.64654">
        <ele>212</ele>
        <time>2018-03-07T10:13:23Z</time>
      </trkpt>
      <trkpt lat="45.87559" lon="4.6465">
        <ele>212</ele>
        <time>2018-03-07T10:13:24Z</time>
      </trkpt>
      <trkpt lat="45.87563" lon="4.64645">
        <ele>212</ele>
        <time>2018-03-07T10:13:25Z</time>
      </trkpt>
      <trkpt lat="45.87567" lon="4.64641">
        <ele>212</ele>
        <time>2018-03-07T10:13:26Z</time>
      </trkpt>
      <trkpt lat="45.8757" lon="4.64637">
        <ele>212</ele>
        <time>2018-03-07T10:13:27Z</time>
      </trkpt>
      <trkpt lat="45.87573" lon="4.64631">
        <ele>212</ele>
        <time>2018-03-07T10:13:28Z</time>
      </trkpt>
      <trkpt lat="45.87577" lon="4.64625">
        <ele>212</ele>
        <time>2018-03-07T10:13:29Z</time>
      </trkpt>
      <trkpt lat="45.8758" lon="4.64621">
        <ele>212</ele>
        <time>2018-03-07T10:13:30Z</time>
      </trkpt>
      <trkpt lat="45.87584" lon="4.64616">
        <ele>212</ele>
        <time>2018-03-07T10:13:31Z</time>
      </trkpt>
      <trkpt lat="45.87589" lon="4.64612">
        <ele>212</ele>
        <time>2018-03-07T10:13:32Z</time>
      </trkpt>
      <trkpt lat="45.87593" lon="4.64608">
        <ele>212</ele>
        <time>2018-03-07T10:13:33Z</time>
      </trkpt>
      <trkpt lat="45.87596" lon="4.64604">
        <ele>212</ele>
        <time>2018-03-07T10:13:34Z</time>
      </trkpt>
      <trkpt lat="45.87601" lon="4.64599">
        <ele>212</ele>
        <time>2018-03-07T10:13:35Z</time>
      </trkpt>
      <trkpt lat="45.87605" lon="4.64592">
        <ele>212</ele>
        <time>2018-03-07T10:13:36Z</time>
      </trkpt>
      <trkpt lat="45.8761" lon="4.64587">
        <ele>212</ele>
        <time>2018-03-07T10:13:37Z</time>
      </trkpt>
      <trkpt lat="45.87613" lon="4.64581">
        <ele>212</ele>
        <time>2018-03-07T10:13:38Z</time>
      </trkpt>
      <trkpt lat="45.87617" lon="4.64577">
        <ele>212</ele>
        <time>2018-03-07T10:13:39Z</time>
      </trkpt>
      <trkpt lat="45.87621" lon="4.64572">
        <ele>212</ele>
        <time>2018-03-07T10:13:40Z</time>
      </trkpt>
      <trkpt lat="45.87625" lon="4.64567">
        <ele>212</ele>
        <time>2018-03-07T10:13:41Z</time>
      </trkpt>
      <trkpt lat="45.87629" lon="4.6456">
        <ele>212</ele>
        <time>2018-03-07T10:13:42Z</time>
      </trkpt>
      <trkpt lat="45.87633" lon="4.64554">
        <ele>212</ele>
        <time>2018-03-07T10:13:43Z</time>
      </trkpt>
      <trkpt lat="45.87637" lon="4.64549">
        <ele>212</ele>
        <time>2018-03-07T10:13:44Z</time>
      </trkpt>
      <trkpt lat="45.87641" lon="4.64543">
        <ele>212</ele>
        <time>2018-03-07T10:13:45Z</time>
      </trkpt>
      <trkpt lat="45.87645" lon="4.64538">
        <ele>213</ele>
        <time>2018-03-07T10:13:46Z</time>
      </trkpt>
      <trkpt lat="45.87649" lon="4.64534">
        <ele>213</ele>
        <time>2018-03-07T10:13:47Z</time>
      </trkpt>
      <trkpt lat="45.87653" lon="4.64528">
        <ele>213</ele>
        <time>2018-03-07T10:13:48Z</time>
      </trkpt>
      <trkpt lat="45.87657" lon="4.64524">
        <ele>213</ele>
        <time>2018-03-07T10:13:49Z</time>
      </trkpt>
      <trkpt lat="45.87663" lon="4.64516">
        <ele>213</ele>
        <time>2018-03-07T10:13:51Z</time>
      </trkpt>
      <trkpt lat="45.87666" lon="4.64512">
        <ele>213</ele>
        <time>2018-03-07T10:13:52Z</time>
      </trkpt>
      <trkpt lat="45.87669" lon="4.64508">
        <ele>214</ele>
        <time>2018-03-07T10:13:53Z</time>
      </trkpt>
      <trkpt lat="45.87673" lon="4.64503">
        <ele>214</ele>
        <time>2018-03-07T10:13:54Z</time>
      </trkpt>
      <trkpt lat="45.87679" lon="4.64496">
        <ele>214</ele>
        <time>2018-03-07T10:13:56Z</time>
      </trkpt>
      <trkpt lat="45.87681" lon="4.64494">
        <ele>214</ele>
        <time>2018-03-07T10:13:57Z</time>
      </trkpt>
      <trkpt lat="45.87689" lon="4.64492">
        <ele>214</ele>
        <time>2018-03-07T10:13:59Z</time>
      </trkpt>
      <trkpt lat="45.87691" lon="4.64494">
        <ele>214</ele>
        <time>2018-03-07T10:14:00Z</time>
      </trkpt>
      <trkpt lat="45.87692" lon="4.64497">
        <ele>214</ele>
        <time>2018-03-07T10:14:01Z</time>
      </trkpt>
      <trkpt lat="45.87696" lon="4.64505">
        <ele>215</ele>
        <time>2018-03-07T10:14:02Z</time>
      </trkpt>
      <trkpt lat="45.877" lon="4.64512">
        <ele>215</ele>
        <time>2018-03-07T10:14:05Z</time>
      </trkpt>
      <trkpt lat="45.87705" lon="4.64521">
        <ele>216</ele>
        <time>2018-03-07T10:14:06Z</time>
      </trkpt>
      <trkpt lat="45.87711" lon="4.6453">
        <ele>216</ele>
        <time>2018-03-07T10:14:08Z</time>
      </trkpt>
      <trkpt lat="45.87712" lon="4.64531">
        <ele>216</ele>
        <time>2018-03-07T10:14:09Z</time>
      </trkpt>
      <trkpt lat="45.87718" lon="4.64541">
        <ele>216</ele>
        <time>2018-03-07T10:14:14Z</time>
      </trkpt>
      <trkpt lat="45.8772" lon="4.64543">
        <ele>216</ele>
        <time>2018-03-07T10:14:15Z</time>
      </trkpt>
      <trkpt lat="45.87724" lon="4.64553">
        <ele>216</ele>
        <time>2018-03-07T10:14:16Z</time>
      </trkpt>
      <trkpt lat="45.87724" lon="4.64556">
        <ele>216</ele>
        <time>2018-03-07T10:14:17Z</time>
      </trkpt>
      <trkpt lat="45.87724" lon="4.64567">
        <ele>217</ele>
        <time>2018-03-07T10:14:20Z</time>
      </trkpt>
      <trkpt lat="45.87724" lon="4.64579">
        <ele>217</ele>
        <time>2018-03-07T10:14:21Z</time>
      </trkpt>
      <trkpt lat="45.87722" lon="4.64589">
        <ele>217</ele>
        <time>2018-03-07T10:14:25Z</time>
      </trkpt>
      <trkpt lat="45.87721" lon="4.64603">
        <ele>217</ele>
        <time>2018-03-07T10:14:26Z</time>
      </trkpt>
      <trkpt lat="45.87721" lon="4.64608">
        <ele>217</ele>
        <time>2018-03-07T10:14:27Z</time>
      </trkpt>
      <trkpt lat="45.87724" lon="4.64615">
        <ele>217</ele>
        <time>2018-03-07T10:14:28Z</time>
      </trkpt>
      <trkpt lat="45.87726" lon="4.6462">
        <ele>217</ele>
        <time>2018-03-07T10:14:30Z</time>
      </trkpt>
      <trkpt lat="45.87725" lon="4.64633">
        <ele>217</ele>
        <time>2018-03-07T10:14:31Z</time>
      </trkpt>
      <trkpt lat="45.87725" lon="4.64644">
        <ele>217</ele>
        <time>2018-03-07T10:14:33Z</time>
      </trkpt>
      <trkpt lat="45.87727" lon="4.6465">
        <ele>217</ele>
        <time>2018-03-07T10:14:34Z</time>
      </trkpt>
      <trkpt lat="45.87725" lon="4.64656">
        <ele>217</ele>
        <time>2018-03-07T10:14:35Z</time>
      </trkpt>
      <trkpt lat="45.87725" lon="4.64665">
        <ele>217</ele>
        <time>2018-03-07T10:14:36Z</time>
      </trkpt>
      <trkpt lat="45.87725" lon="4.64672">
        <ele>216</ele>
        <time>2018-03-07T10:14:37Z</time>
      </trkpt>
      <trkpt lat="45.87725" lon="4.6468">
        <ele>216</ele>
        <time>2018-03-07T10:14:38Z</time>
      </trkpt>
      <trkpt lat="45.87725" lon="4.64686">
        <ele>216</ele>
        <time>2018-03-07T10:14:39Z</time>
      </trkpt>
      <trkpt lat="45.87724" lon="4.64694">
        <ele>215</ele>
        <time>2018-03-07T10:14:40Z</time>
      </trkpt>
      <trkpt lat="45.87724" lon="4.64702">
        <ele>215</ele>
        <time>2018-03-07T10:14:41Z</time>
      </trkpt>
      <trkpt lat="45.87723" lon="4.64708">
        <ele>215</ele>
        <time>2018-03-07T10:14:42Z</time>
      </trkpt>
      <trkpt lat="45.87724" lon="4.64716">
        <ele>215</ele>
        <time>2018-03-07T10:14:43Z</time>
      </trkpt>
      <trkpt lat="45.87727" lon="4.64724">
        <ele>215</ele>
        <time>2018-03-07T10:14:44Z</time>
      </trkpt>
      <trkpt lat="45.87727" lon="4.64736">
        <ele>214</ele>
        <time>2018-03-07T10:14:46Z</time>
      </trkpt>
      <trkpt lat="45.8773" lon="4.64742">
        <ele>214</ele>
        <time>2018-03-07T10:14:47Z</time>
      </trkpt>
      <trkpt lat="45.87731" lon="4.64752">
        <ele>213</ele>
        <time>2018-03-07T10:14:49Z</time>
      </trkpt>
      <trkpt lat="45.87732" lon="4.64757">
        <ele>213</ele>
        <time>2018-03-07T10:14:50Z</time>
      </trkpt>
      <trkpt lat="45.87735" lon="4.64769">
        <ele>213</ele>
        <time>2018-03-07T10:14:52Z</time>
      </trkpt>
      <trkpt lat="45.87737" lon="4.64774">
        <ele>213</ele>
        <time>2018-03-07T10:14:53Z</time>
      </trkpt>
      <trkpt lat="45.87739" lon="4.64784">
        <ele>213</ele>
        <time>2018-03-07T10:14:55Z</time>
      </trkpt>
      <trkpt lat="45.87741" lon="4.64789">
        <ele>213</ele>
        <time>2018-03-07T10:14:56Z</time>
      </trkpt>
      <trkpt lat="45.87746" lon="4.64798">
        <ele>214</ele>
        <time>2018-03-07T10:14:59Z</time>
      </trkpt>
      <trkpt lat="45.87748" lon="4.64801">
        <ele>214</ele>
        <time>2018-03-07T10:15:00Z</time>
      </trkpt>
      <trkpt lat="45.87754" lon="4.64811">
        <ele>214</ele>
        <time>2018-03-07T10:15:03Z</time>
      </trkpt>
      <trkpt lat="45.87756" lon="4.64814">
        <ele>214</ele>
        <time>2018-03-07T10:15:04Z</time>
      </trkpt>
      <trkpt lat="45.87762" lon="4.64821">
        <ele>214</ele>
        <time>2018-03-07T10:15:07Z</time>
      </trkpt>
      <trkpt lat="45.87764" lon="4.64824">
        <ele>214</ele>
        <time>2018-03-07T10:15:08Z</time>
      </trkpt>
      <trkpt lat="45.87769" lon="4.64831">
        <ele>214</ele>
        <time>2018-03-07T10:15:10Z</time>
      </trkpt>
      <trkpt lat="45.87771" lon="4.64835">
        <ele>216</ele>
        <time>2018-03-07T10:15:11Z</time>
      </trkpt>
      <trkpt lat="45.87775" lon="4.64842">
        <ele>217</ele>
        <time>2018-03-07T10:15:13Z</time>
      </trkpt>
      <trkpt lat="45.87777" lon="4.64846">
        <ele>217</ele>
        <time>2018-03-07T10:15:14Z</time>
      </trkpt>
      <trkpt lat="45.87782" lon="4.64852">
        <ele>217</ele>
        <time>2018-03-07T10:15:16Z</time>
      </trkpt>
      <trkpt lat="45.87784" lon="4.64855">
        <ele>218</ele>
        <time>2018-03-07T10:15:17Z</time>
      </trkpt>
      <trkpt lat="45.87789" lon="4.64863">
        <ele>218</ele>
        <time>2018-03-07T10:15:20Z</time>
      </trkpt>
      <trkpt lat="45.87791" lon="4.64865">
        <ele>218</ele>
        <time>2018-03-07T10:15:21Z</time>
      </trkpt>
      <trkpt lat="45.87794" lon="4.64873">
        <ele>218</ele>
        <time>2018-03-07T10:15:24Z</time>
      </trkpt>
      <trkpt lat="45.87795" lon="4.64877">
        <ele>219</ele>
        <time>2018-03-07T10:15:25Z</time>
      </trkpt>
      <trkpt lat="45.87799" lon="4.64888">
        <ele>219</ele>
        <time>2018-03-07T10:15:28Z</time>
      </trkpt>
      <trkpt lat="45.878" lon="4.64892">
        <ele>219</ele>
        <time>2018-03-07T10:15:29Z</time>
      </trkpt>
      <trkpt lat="45.87804" lon="4.64902">
        <ele>220</ele>
        <time>2018-03-07T10:15:32Z</time>
      </trkpt>
      <trkpt lat="45.87805" lon="4.64905">
        <ele>220</ele>
        <time>2018-03-07T10:15:33Z</time>
      </trkpt>
      <trkpt lat="45.8781" lon="4.64915">
        <ele>220</ele>
        <time>2018-03-07T10:15:36Z</time>
      </trkpt>
      <trkpt lat="45.87811" lon="4.64918">
        <ele>224</ele>
        <time>2018-03-07T10:15:37Z</time>
      </trkpt>
      <trkpt lat="45.87816" lon="4.64927">
        <ele>224</ele>
        <time>2018-03-07T10:15:40Z</time>
      </trkpt>
      <trkpt lat="45.87817" lon="4.64929">
        <ele>224</ele>
        <time>2018-03-07T10:15:41Z</time>
      </trkpt>
      <trkpt lat="45.87822" lon="4.6494">
        <ele>225</ele>
        <time>2018-03-07T10:15:45Z</time>
      </trkpt>
      <trkpt lat="45.87824" lon="4.64942">
        <ele>225</ele>
        <time>2018-03-07T10:15:46Z</time>
      </trkpt>
      <trkpt lat="45.87831" lon="4.64948">
        <ele>225</ele>
        <time>2018-03-07T10:15:50Z</time>
      </trkpt>
      <trkpt lat="45.87833" lon="4.64949">
        <ele>225</ele>
        <time>2018-03-07T10:15:51Z</time>
      </trkpt>
      <trkpt lat="45.87839" lon="4.64955">
        <ele>228</ele>
        <time>2018-03-07T10:15:55Z</time>
      </trkpt>
      <trkpt lat="45.8784" lon="4.64956">
        <ele>228</ele>
        <time>2018-03-07T10:15:56Z</time>
      </trkpt>
      <trkpt lat="45.87847" lon="4.64961">
        <ele>228</ele>
        <time>2018-03-07T10:16:00Z</time>
      </trkpt>
      <trkpt lat="45.87848" lon="4.64962">
        <ele>228</ele>
        <time>2018-03-07T10:16:01Z</time>
      </trkpt>
      <trkpt lat="45.87855" lon="4.64967">
        <ele>229</ele>
        <time>2018-03-07T10:16:05Z</time>
      </trkpt>
      <trkpt lat="45.87857" lon="4.64968">
        <ele>229</ele>
        <time>2018-03-07T10:16:06Z</time>
      </trkpt>
      <trkpt lat="45.87864" lon="4.64974">
        <ele>229</ele>
        <time>2018-03-07T10:16:11Z</time>
      </trkpt>
      <trkpt lat="45.87866" lon="4.64975">
        <ele>229</ele>
        <time>2018-03-07T10:16:12Z</time>
      </trkpt>
      <trkpt lat="45.87874" lon="4.6498">
        <ele>230</ele>
        <time>2018-03-07T10:16:17Z</time>
      </trkpt>
      <trkpt lat="45.87875" lon="4.64981">
        <ele>230</ele>
        <time>2018-03-07T10:16:18Z</time>
      </trkpt>
      <trkpt lat="45.87884" lon="4.64983">
        <ele>231</ele>
        <time>2018-03-07T10:16:23Z</time>
      </trkpt>
      <trkpt lat="45.87885" lon="4.64983">
        <ele>231</ele>
        <time>2018-03-07T10:16:24Z</time>
      </trkpt>
      <trkpt lat="45.87893" lon="4.64985">
        <ele>232</ele>
        <time>2018-03-07T10:16:28Z</time>
      </trkpt>
      <trkpt lat="45.87894" lon="4.64985">
        <ele>232</ele>
        <time>2018-03-07T10:16:29Z</time>
      </trkpt>
      <trkpt lat="45.87903" lon="4.64987">
        <ele>233</ele>
        <time>2018-03-07T10:16:34Z</time>
      </trkpt>
      <trkpt lat="45.87905" lon="4.64987">
        <ele>233</ele>
        <time>2018-03-07T10:16:35Z</time>
      </trkpt>
      <trkpt lat="45.87914" lon="4.64986">
        <ele>234</ele>
        <time>2018-03-07T10:16:40Z</time>
      </trkpt>
      <trkpt lat="45.87916" lon="4.64986">
        <ele>234</ele>
        <time>2018-03-07T10:16:41Z</time>
      </trkpt>
      <trkpt lat="45.87924" lon="4.64985">
        <ele>237</ele>
        <time>2018-03-07T10:16:45Z</time>
      </trkpt>
      <trkpt lat="45.87926" lon="4.64985">
        <ele>237</ele>
        <time>2018-03-07T10:16:46Z</time>
      </trkpt>
      <trkpt lat="45.87934" lon="4.64981">
        <ele>237</ele>
        <time>2018-03-07T10:16:51Z</time>
      </trkpt>
      <trkpt lat="45.87935" lon="4.64979">
        <ele>237</ele>
        <time>2018-03-07T10:16:52Z</time>
      </trkpt>
      <trkpt lat="45.87943" lon="4.64975">
        <ele>237</ele>
        <time>2018-03-07T10:16:56Z</time>
      </trkpt>
      <trkpt lat="45.87945" lon="4.64974">
        <ele>237</ele>
        <time>2018-03-07T10:16:57Z</time>
      </trkpt>
      <trkpt lat="45.87953" lon="4.6497">
        <ele>237</ele>
        <time>2018-03-07T10:17:01Z</time>
      </trkpt>
      <trkpt lat="45.87955" lon="4.64969">
        <ele>238</ele>
        <time>2018-03-07T10:17:02Z</time>
      </trkpt>
      <trkpt lat="45.87963" lon="4.64962">
        <ele>238</ele>
        <time>2018-03-07T10:17:06Z</time>
      </trkpt>
      <trkpt lat="45.87965" lon="4.6496">
        <ele>238</ele>
        <time>2018-03-07T10:17:07Z</time>
      </trkpt>
      <trkpt lat="45.87972" lon="4.64953">
        <ele>237</ele>
        <time>2018-03-07T10:17:11Z</time>
      </trkpt>
      <trkpt lat="45.87974" lon="4.64952">
        <ele>237</ele>
        <time>2018-03-07T10:17:12Z</time>
      </trkpt>
      <trkpt lat="45.87981" lon="4.64945">
        <ele>237</ele>
        <time>2018-03-07T10:17:17Z</time>
      </trkpt>
      <trkpt lat="45.87983" lon="4.64944">
        <ele>237</ele>
        <time>2018-03-07T10:17:18Z</time>
      </trkpt>
      <trkpt lat="45.8799" lon="4.64938">
        <ele>237</ele>
        <time>2018-03-07T10:17:23Z</time>
      </trkpt>
      <trkpt lat="45.87991" lon="4.64937">
        <ele>237</ele>
        <time>2018-03-07T10:17:24Z</time>
      </trkpt>
      <trkpt lat="45.87998" lon="4.64933">
        <ele>236</ele>
        <time>2018-03-07T10:17:30Z</time>
      </trkpt>
      <trkpt lat="45.88" lon="4.64932">
        <ele>236</ele>
        <time>2018-03-07T10:17:31Z</time>
      </trkpt>
      <trkpt lat="45.88006" lon="4.64926">
        <ele>241</ele>
        <time>2018-03-07T10:17:35Z</time>
      </trkpt>
      <trkpt lat="45.88007" lon="4.64924">
        <ele>241</ele>
        <time>2018-03-07T10:17:36Z</time>
      </trkpt>
      <trkpt lat="45.88014" lon="4.64916">
        <ele>237</ele>
        <time>2018-03-07T10:17:41Z</time>
      </trkpt>
      <trkpt lat="45.88015" lon="4.64914">
        <ele>237</ele>
        <time>2018-03-07T10:17:42Z</time>
      </trkpt>
      <trkpt lat="45.88022" lon="4.6491">
        <ele>237</ele>
        <time>2018-03-07T10:17:45Z</time>
      </trkpt>
      <trkpt lat="45.88025" lon="4.64909">
        <ele>238</ele>
        <time>2018-03-07T10:17:46Z</time>
      </trkpt>
      <trkpt lat="45.88033" lon="4.64904">
        <ele>238</ele>
        <time>2018-03-07T10:17:50Z</time>
      </trkpt>
      <trkpt lat="45.88034" lon="4.64902">
        <ele>239</ele>
        <time>2018-03-07T10:17:51Z</time>
      </trkpt>
      <trkpt lat="45.88037" lon="4.64899">
        <ele>239</ele>
        <time>2018-03-07T10:17:56Z</time>
      </trkpt>
      <trkpt lat="45.88041" lon="4.64895">
        <ele>239</ele>
        <time>2018-03-07T10:17:57Z</time>
      </trkpt>
      <trkpt lat="45.88048" lon="4.64888">
        <ele>239</ele>
        <time>2018-03-07T10:18:04Z</time>
      </trkpt>
      <trkpt lat="45.88049" lon="4.64887">
        <ele>239</ele>
        <time>2018-03-07T10:18:05Z</time>
      </trkpt>
      <trkpt lat="45.88056" lon="4.64881">
        <ele>239</ele>
        <time>2018-03-07T10:18:09Z</time>
      </trkpt>
      <trkpt lat="45.88058" lon="4.64879">
        <ele>240</ele>
        <time>2018-03-07T10:18:10Z</time>
      </trkpt>
      <trkpt lat="45.88065" lon="4.64873">
        <ele>239</ele>
        <time>2018-03-07T10:18:14Z</time>
      </trkpt>
      <trkpt lat="45.88066" lon="4.64871">
        <ele>239</ele>
        <time>2018-03-07T10:18:15Z</time>
      </trkpt>
      <trkpt lat="45.88072" lon="4.64867">
        <ele>239</ele>
        <time>2018-03-07T10:18:18Z</time>
      </trkpt>
      <trkpt lat="45.88075" lon="4.64865">
        <ele>239</ele>
        <time>2018-03-07T10:18:19Z</time>
      </trkpt>
      <trkpt lat="45.88082" lon="4.64862">
        <ele>239</ele>
        <time>2018-03-07T10:18:22Z</time>
      </trkpt>
      <trkpt lat="45.88084" lon="4.64861">
        <ele>245</ele>
        <time>2018-03-07T10:18:23Z</time>
      </trkpt>
      <trkpt lat="45.88091" lon="4.64857">
        <ele>245</ele>
        <time>2018-03-07T10:18:27Z</time>
      </trkpt>
      <trkpt lat="45.88093" lon="4.64856">
        <ele>245</ele>
        <time>2018-03-07T10:18:28Z</time>
      </trkpt>
      <trkpt lat="45.88101" lon="4.64856">
        <ele>245</ele>
        <time>2018-03-07T10:18:33Z</time>
      </trkpt>
      <trkpt lat="45.88103" lon="4.64856">
        <ele>246</ele>
        <time>2018-03-07T10:18:34Z</time>
      </trkpt>
      <trkpt lat="45.88112" lon="4.64854">
        <ele>246</ele>
        <time>2018-03-07T10:18:39Z</time>
      </trkpt>
      <trkpt lat="45.88114" lon="4.64853">
        <ele>246</ele>
        <time>2018-03-07T10:18:40Z</time>
      </trkpt>
      <trkpt lat="45.88122" lon="4.64851">
        <ele>247</ele>
        <time>2018-03-07T10:18:45Z</time>
      </trkpt>
      <trkpt lat="45.88123" lon="4.64851">
        <ele>247</ele>
        <time>2018-03-07T10:18:46Z</time>
      </trkpt>
      <trkpt lat="45.88132" lon="4.64849">
        <ele>247</ele>
        <time>2018-03-07T10:18:51Z</time>
      </trkpt>
      <trkpt lat="45.88134" lon="4.64849">
        <ele>247</ele>
        <time>2018-03-07T10:18:52Z</time>
      </trkpt>
      <trkpt lat="45.88141" lon="4.64846">
        <ele>247</ele>
        <time>2018-03-07T10:18:56Z</time>
      </trkpt>
      <trkpt lat="45.88142" lon="4.64846">
        <ele>247</ele>
        <time>2018-03-07T10:18:57Z</time>
      </trkpt>
      <trkpt lat="45.88151" lon="4.64843">
        <ele>247</ele>
        <time>2018-03-07T10:19:02Z</time>
      </trkpt>
      <trkpt lat="45.88153" lon="4.64843">
        <ele>247</ele>
        <time>2018-03-07T10:19:03Z</time>
      </trkpt>
      <trkpt lat="45.88161" lon="4.64841">
        <ele>246</ele>
        <time>2018-03-07T10:19:07Z</time>
      </trkpt>
      <trkpt lat="45.88163" lon="4.64841">
        <ele>246</ele>
        <time>2018-03-07T10:19:08Z</time>
      </trkpt>
      <trkpt lat="45.8817" lon="4.64839">
        <ele>248</ele>
        <time>2018-03-07T10:19:12Z</time>
      </trkpt>
      <trkpt lat="45.88172" lon="4.64838">
        <ele>248</ele>
        <time>2018-03-07T10:19:13Z</time>
      </trkpt>
      <trkpt lat="45.88181" lon="4.64837">
        <ele>251</ele>
        <time>2018-03-07T10:19:17Z</time>
      </trkpt>
      <trkpt lat="45.88183" lon="4.64836">
        <ele>251</ele>
        <time>2018-03-07T10:19:18Z</time>
      </trkpt>
      <trkpt lat="45.8819" lon="4.64833">
        <ele>245</ele>
        <time>2018-03-07T10:19:22Z</time>
      </trkpt>
      <trkpt lat="45.88192" lon="4.64832">
        <ele>245</ele>
        <time>2018-03-07T10:19:23Z</time>
      </trkpt>
      <trkpt lat="45.882" lon="4.6483">
        <ele>245</ele>
        <time>2018-03-07T10:19:28Z</time>
      </trkpt>
      <trkpt lat="45.88202" lon="4.6483">
        <ele>245</ele>
        <time>2018-03-07T10:19:29Z</time>
      </trkpt>
      <trkpt lat="45.88211" lon="4.64831">
        <ele>246</ele>
        <time>2018-03-07T10:19:34Z</time>
      </trkpt>
      <trkpt lat="45.88212" lon="4.64831">
        <ele>247</ele>
        <time>2018-03-07T10:19:35Z</time>
      </trkpt>
      <trkpt lat="45.8822" lon="4.6483">
        <ele>248</ele>
        <time>2018-03-07T10:19:41Z</time>
      </trkpt>
      <trkpt lat="45.88222" lon="4.64829">
        <ele>248</ele>
        <time>2018-03-07T10:19:42Z</time>
      </trkpt>
      <trkpt lat="45.8823" lon="4.64827">
        <ele>249</ele>
        <time>2018-03-07T10:19:48Z</time>
      </trkpt>
      <trkpt lat="45.88232" lon="4.64827">
        <ele>250</ele>
        <time>2018-03-07T10:19:49Z</time>
      </trkpt>
      <trkpt lat="45.8824" lon="4.64824">
        <ele>251</ele>
        <time>2018-03-07T10:19:56Z</time>
      </trkpt>
      <trkpt lat="45.88241" lon="4.64823">
        <ele>251</ele>
        <time>2018-03-07T10:19:57Z</time>
      </trkpt>
      <trkpt lat="45.88249" lon="4.64819">
        <ele>251</ele>
        <time>2018-03-07T10:20:04Z</time>
      </trkpt>
      <trkpt lat="45.8825" lon="4.64818">
        <ele>257</ele>
        <time>2018-03-07T10:20:05Z</time>
      </trkpt>
      <trkpt lat="45.88257" lon="4.64813">
        <ele>257</ele>
        <time>2018-03-07T10:20:10Z</time>
      </trkpt>
      <trkpt lat="45.88259" lon="4.64812">
        <ele>257</ele>
        <time>2018-03-07T10:20:11Z</time>
      </trkpt>
      <trkpt lat="45.88267" lon="4.64809">
        <ele>257</ele>
        <time>2018-03-07T10:20:16Z</time>
      </trkpt>
      <trkpt lat="45.88269" lon="4.64808">
        <ele>257</ele>
        <time>2018-03-07T10:20:17Z</time>
      </trkpt>
      <trkpt lat="45.88278" lon="4.64805">
        <ele>257</ele>
        <time>2018-03-07T10:20:23Z</time>
      </trkpt>
      <trkpt lat="45.88279" lon="4.64804">
        <ele>257</ele>
        <time>2018-03-07T10:20:24Z</time>
      </trkpt>
      <trkpt lat="45.88287" lon="4.64802">
        <ele>258</ele>
        <time>2018-03-07T10:20:29Z</time>
      </trkpt>
      <trkpt lat="45.88289" lon="4.64802">
        <ele>258</ele>
        <time>2018-03-07T10:20:30Z</time>
      </trkpt>
      <trkpt lat="45.88296" lon="4.64801">
        <ele>259</ele>
        <time>2018-03-07T10:20:34Z</time>
      </trkpt>
      <trkpt lat="45.88298" lon="4.64801">
        <ele>259</ele>
        <time>2018-03-07T10:20:35Z</time>
      </trkpt>
      <trkpt lat="45.88307" lon="4.64799">
        <ele>259</ele>
        <time>2018-03-07T10:20:40Z</time>
      </trkpt>
      <trkpt lat="45.88308" lon="4.64799">
        <ele>259</ele>
        <time>2018-03-07T10:20:41Z</time>
      </trkpt>
      <trkpt lat="45.88316" lon="4.64796">
        <ele>260</ele>
        <time>2018-03-07T10:20:48Z</time>
      </trkpt>
      <trkpt lat="45.88318" lon="4.64795">
        <ele>260</ele>
        <time>2018-03-07T10:20:49Z</time>
      </trkpt>
      <trkpt lat="45.88325" lon="4.64793">
        <ele>260</ele>
        <time>2018-03-07T10:20:53Z</time>
      </trkpt>
      <trkpt lat="45.88327" lon="4.64793">
        <ele>260</ele>
        <time>2018-03-07T10:20:54Z</time>
      </trkpt>
      <trkpt lat="45.88335" lon="4.64791">
        <ele>266</ele>
        <time>2018-03-07T10:20:59Z</time>
      </trkpt>
      <trkpt lat="45.88337" lon="4.64791">
        <ele>266</ele>
        <time>2018-03-07T10:21:00Z</time>
      </trkpt>
      <trkpt lat="45.88344" lon="4.64789">
        <ele>266</ele>
        <time>2018-03-07T10:21:04Z</time>
      </trkpt>
      <trkpt lat="45.88346" lon="4.64788">
        <ele>266</ele>
        <time>2018-03-07T10:21:05Z</time>
      </trkpt>
      <trkpt lat="45.88354" lon="4.64786">
        <ele>266</ele>
        <time>2018-03-07T10:21:10Z</time>
      </trkpt>
      <trkpt lat="45.88356" lon="4.64786">
        <ele>266</ele>
        <time>2018-03-07T10:21:11Z</time>
      </trkpt>
      <trkpt lat="45.88363" lon="4.64783">
        <ele>266</ele>
        <time>2018-03-07T10:21:16Z</time>
      </trkpt>
      <trkpt lat="45.88365" lon="4.64782">
        <ele>266</ele>
        <time>2018-03-07T10:21:17Z</time>
      </trkpt>
      <trkpt lat="45.88372" lon="4.6478">
        <ele>266</ele>
        <time>2018-03-07T10:21:21Z</time>
      </trkpt>
      <trkpt lat="45.88374" lon="4.6478">
        <ele>266</ele>
        <time>2018-03-07T10:21:22Z</time>
      </trkpt>
      <trkpt lat="45.88382" lon="4.6478">
        <ele>267</ele>
        <time>2018-03-07T10:21:27Z</time>
      </trkpt>
      <trkpt lat="45.88384" lon="4.6478">
        <ele>267</ele>
        <time>2018-03-07T10:21:28Z</time>
      </trkpt>
      <trkpt lat="45.88392" lon="4.64779">
        <ele>267</ele>
        <time>2018-03-07T10:21:33Z</time>
      </trkpt>
      <trkpt lat="45.88394" lon="4.64779">
        <ele>267</ele>
        <time>2018-03-07T10:21:34Z</time>
      </trkpt>
      <trkpt lat="45.88403" lon="4.64777">
        <ele>267</ele>
        <time>2018-03-07T10:21:40Z</time>
      </trkpt>
      <trkpt lat="45.88404" lon="4.64778">
        <ele>267</ele>
        <time>2018-03-07T10:21:41Z</time>
      </trkpt>
      <trkpt lat="45.88412" lon="4.6478">
        <ele>267</ele>
        <time>2018-03-07T10:21:46Z</time>
      </trkpt>
      <trkpt lat="45.88414" lon="4.6478">
        <ele>267</ele>
        <time>2018-03-07T10:21:47Z</time>
      </trkpt>
      <trkpt lat="45.88422" lon="4.64778">
        <ele>270</ele>
        <time>2018-03-07T10:21:52Z</time>
      </trkpt>
      <trkpt lat="45.88424" lon="4.64778">
        <ele>270</ele>
        <time>2018-03-07T10:21:53Z</time>
      </trkpt>
      <trkpt lat="45.88432" lon="4.64774">
        <ele>270</ele>
        <time>2018-03-07T10:21:59Z</time>
      </trkpt>
      <trkpt lat="45.88434" lon="4.64775">
        <ele>270</ele>
        <time>2018-03-07T10:22:00Z</time>
      </trkpt>
      <trkpt lat="45.88442" lon="4.64773">
        <ele>270</ele>
        <time>2018-03-07T10:22:06Z</time>
      </trkpt>
      <trkpt lat="45.88444" lon="4.64773">
        <ele>270</ele>
        <time>2018-03-07T10:22:07Z</time>
      </trkpt>
      <trkpt lat="45.88452" lon="4.64772">
        <ele>270</ele>
        <time>2018-03-07T10:22:12Z</time>
      </trkpt>
      <trkpt lat="45.88453" lon="4.64772">
        <ele>270</ele>
        <time>2018-03-07T10:22:13Z</time>
      </trkpt>
      <trkpt lat="45.88462" lon="4.6477">
        <ele>271</ele>
        <time>2018-03-07T10:22:18Z</time>
      </trkpt>
      <trkpt lat="45.88463" lon="4.6477">
        <ele>271</ele>
        <time>2018-03-07T10:22:19Z</time>
      </trkpt>
      <trkpt lat="45.88471" lon="4.6477">
        <ele>271</ele>
        <time>2018-03-07T10:22:24Z</time>
      </trkpt>
      <trkpt lat="45.88473" lon="4.6477">
        <ele>271</ele>
        <time>2018-03-07T10:22:25Z</time>
      </trkpt>
      <trkpt lat="45.88481" lon="4.64769">
        <ele>270</ele>
        <time>2018-03-07T10:22:29Z</time>
      </trkpt>
      <trkpt lat="45.88483" lon="4.64769">
        <ele>270</ele>
        <time>2018-03-07T10:22:30Z</time>
      </trkpt>
      <trkpt lat="45.88492" lon="4.64768">
        <ele>270</ele>
        <time>2018-03-07T10:22:34Z</time>
      </trkpt>
      <trkpt lat="45.88494" lon="4.64768">
        <ele>270</ele>
        <time>2018-03-07T10:22:35Z</time>
      </trkpt>
      <trkpt lat="45.88502" lon="4.64766">
        <ele>270</ele>
        <time>2018-03-07T10:22:39Z</time>
      </trkpt>
      <trkpt lat="45.88504" lon="4.64766">
        <ele>270</ele>
        <time>2018-03-07T10:22:40Z</time>
      </trkpt>
      <trkpt lat="45.88513" lon="4.64765">
        <ele>270</ele>
        <time>2018-03-07T10:22:44Z</time>
      </trkpt>
      <trkpt lat="45.88515" lon="4.64765">
        <ele>270</ele>
        <time>2018-03-07T10:22:45Z</time>
      </trkpt>
      <trkpt lat="45.88523" lon="4.64768">
        <ele>270</ele>
        <time>2018-03-07T10:22:49Z</time>
      </trkpt>
      <trkpt lat="45.88524" lon="4.64768">
        <ele>270</ele>
        <time>2018-03-07T10:22:50Z</time>
      </trkpt>
      <trkpt lat="45.88532" lon="4.64774">
        <ele>271</ele>
        <time>2018-03-07T10:22:55Z</time>
      </trkpt>
      <trkpt lat="45.88533" lon="4.64775">
        <ele>271</ele>
        <time>2018-03-07T10:22:56Z</time>
      </trkpt>
      <trkpt lat="45.88539" lon="4.64782">
        <ele>271</ele>
        <time>2018-03-07T10:23:01Z</time>
      </trkpt>
      <trkpt lat="45.88541" lon="4.64784">
        <ele>271</ele>
        <time>2018-03-07T10:23:02Z</time>
      </trkpt>
      <trkpt lat="45.88545" lon="4.64793">
        <ele>272</ele>
        <time>2018-03-07T10:23:06Z</time>
      </trkpt>
      <trkpt lat="45.88546" lon="4.64795">
        <ele>272</ele>
        <time>2018-03-07T10:23:07Z</time>
      </trkpt>
      <trkpt lat="45.88549" lon="4.64807">
        <ele>272</ele>
        <time>2018-03-07T10:23:12Z</time>
      </trkpt>
      <trkpt lat="45.88549" lon="4.64809">
        <ele>272</ele>
        <time>2018-03-07T10:23:13Z</time>
      </trkpt>
      <trkpt lat="45.88551" lon="4.64819">
        <ele>273</ele>
        <time>2018-03-07T10:23:18Z</time>
      </trkpt>
      <trkpt lat="45.88552" lon="4.64821">
        <ele>273</ele>
        <time>2018-03-07T10:23:19Z</time>
      </trkpt>
      <trkpt lat="45.88552" lon="4.64832">
        <ele>273</ele>
        <time>2018-03-07T10:23:24Z</time>
      </trkpt>
      <trkpt lat="45.88552" lon="4.64835">
        <ele>276</ele>
        <time>2018-03-07T10:23:25Z</time>
      </trkpt>
      <trkpt lat="45.88551" lon="4.64847">
        <ele>276</ele>
        <time>2018-03-07T10:23:30Z</time>
      </trkpt>
      <trkpt lat="45.8855" lon="4.6485">
        <ele>276</ele>
        <time>2018-03-07T10:23:31Z</time>
      </trkpt>
      <trkpt lat="45.88551" lon="4.64861">
        <ele>276</ele>
        <time>2018-03-07T10:23:36Z</time>
      </trkpt>
      <trkpt lat="45.88551" lon="4.64863">
        <ele>276</ele>
        <time>2018-03-07T10:23:37Z</time>
      </trkpt>
      <trkpt lat="45.88547" lon="4.64875">
        <ele>277</ele>
        <time>2018-03-07T10:23:44Z</time>
      </trkpt>
      <trkpt lat="45.88546" lon="4.64876">
        <ele>277</ele>
        <time>2018-03-07T10:23:45Z</time>
      </trkpt>
      <trkpt lat="45.88544" lon="4.64887">
        <ele>277</ele>
        <time>2018-03-07T10:23:51Z</time>
      </trkpt>
      <trkpt lat="45.88544" lon="4.64889">
        <ele>277</ele>
        <time>2018-03-07T10:23:52Z</time>
      </trkpt>
      <trkpt lat="45.88544" lon="4.649">
        <ele>277</ele>
        <time>2018-03-07T10:23:57Z</time>
      </trkpt>
      <trkpt lat="45.88543" lon="4.64903">
        <ele>277</ele>
        <time>2018-03-07T10:23:58Z</time>
      </trkpt>
      <trkpt lat="45.88541" lon="4.64913">
        <ele>278</ele>
        <time>2018-03-07T10:24:03Z</time>
      </trkpt>
      <trkpt lat="45.88541" lon="4.64915">
        <ele>278</ele>
        <time>2018-03-07T10:24:04Z</time>
      </trkpt>
      <trkpt lat="45.88538" lon="4.64926">
        <ele>280</ele>
        <time>2018-03-07T10:24:09Z</time>
      </trkpt>
      <trkpt lat="45.88538" lon="4.64928">
        <ele>280</ele>
        <time>2018-03-07T10:24:10Z</time>
      </trkpt>
      <trkpt lat="45.88535" lon="4.6494">
        <ele>281</ele>
        <time>2018-03-07T10:24:15Z</time>
      </trkpt>
      <trkpt lat="45.88534" lon="4.64943">
        <ele>281</ele>
        <time>2018-03-07T10:24:16Z</time>
      </trkpt>
      <trkpt lat="45.88534" lon="4.64955">
        <ele>281</ele>
        <time>2018-03-07T10:24:21Z</time>
      </trkpt>
      <trkpt lat="45.88533" lon="4.64958">
        <ele>281</ele>
        <time>2018-03-07T10:24:22Z</time>
      </trkpt>
      <trkpt lat="45.88531" lon="4.64969">
        <ele>281</ele>
        <time>2018-03-07T10:24:27Z</time>
      </trkpt>
      <trkpt lat="45.8853" lon="4.64971">
        <ele>282</ele>
        <time>2018-03-07T10:24:28Z</time>
      </trkpt>
      <trkpt lat="45.88528" lon="4.64983">
        <ele>282</ele>
        <time>2018-03-07T10:24:33Z</time>
      </trkpt>
      <trkpt lat="45.88528" lon="4.64985">
        <ele>283</ele>
        <time>2018-03-07T10:24:34Z</time>
      </trkpt>
      <trkpt lat="45.88527" lon="4.64998">
        <ele>283</ele>
        <time>2018-03-07T10:24:39Z</time>
      </trkpt>
      <trkpt lat="45.88527" lon="4.65">
        <ele>285</ele>
        <time>2018-03-07T10:24:40Z</time>
      </trkpt>
      <trkpt lat="45.88523" lon="4.65012">
        <ele>285</ele>
        <time>2018-03-07T10:24:46Z</time>
      </trkpt>
      <trkpt lat="45.88522" lon="4.65014">
        <ele>285</ele>
        <time>2018-03-07T10:24:47Z</time>
      </trkpt>
      <trkpt lat="45.8852" lon="4.65026">
        <ele>285</ele>
        <time>2018-03-07T10:24:52Z</time>
      </trkpt>
      <trkpt lat="45.88519" lon="4.65028">
        <ele>285</ele>
        <time>2018-03-07T10:24:53Z</time>
      </trkpt>
      <trkpt lat="45.88517" lon="4.65038">
        <ele>285</ele>
        <time>2018-03-07T10:24:57Z</time>
      </trkpt>
      <trkpt lat="45.88516" lon="4.6504">
        <ele>285</ele>
        <time>2018-03-07T10:24:58Z</time>
      </trkpt>
      <trkpt lat="45.88513" lon="4.65051">
        <ele>286</ele>
        <time>2018-03-07T10:25:02Z</time>
      </trkpt>
      <trkpt lat="45.88513" lon="4.65053">
        <ele>286</ele>
        <time>2018-03-07T10:25:03Z</time>
      </trkpt>
      <trkpt lat="45.8851" lon="4.65065">
        <ele>287</ele>
        <time>2018-03-07T10:25:08Z</time>
      </trkpt>
      <trkpt lat="45.88509" lon="4.65067">
        <ele>287</ele>
        <time>2018-03-07T10:25:09Z</time>
      </trkpt>
      <trkpt lat="45.88506" lon="4.65077">
        <ele>288</ele>
        <time>2018-03-07T10:25:14Z</time>
      </trkpt>
      <trkpt lat="45.88506" lon="4.65079">
        <ele>288</ele>
        <time>2018-03-07T10:25:15Z</time>
      </trkpt>
      <trkpt lat="45.885" lon="4.65089">
        <ele>289</ele>
        <time>2018-03-07T10:25:20Z</time>
      </trkpt>
      <trkpt lat="45.88499" lon="4.65091">
        <ele>291</ele>
        <time>2018-03-07T10:25:21Z</time>
      </trkpt>
      <trkpt lat="45.88493" lon="4.651">
        <ele>292</ele>
        <time>2018-03-07T10:25:26Z</time>
      </trkpt>
      <trkpt lat="45.88492" lon="4.65101">
        <ele>292</ele>
        <time>2018-03-07T10:25:27Z</time>
      </trkpt>
      <trkpt lat="45.88486" lon="4.6511">
        <ele>293</ele>
        <time>2018-03-07T10:25:32Z</time>
      </trkpt>
      <trkpt lat="45.88485" lon="4.65111">
        <ele>293</ele>
        <time>2018-03-07T10:25:33Z</time>
      </trkpt>
      <trkpt lat="45.8848" lon="4.6512">
        <ele>293</ele>
        <time>2018-03-07T10:25:38Z</time>
      </trkpt>
      <trkpt lat="45.8848" lon="4.65122">
        <ele>293</ele>
        <time>2018-03-07T10:25:39Z</time>
      </trkpt>
      <trkpt lat="45.88474" lon="4.6513">
        <ele>294</ele>
        <time>2018-03-07T10:25:44Z</time>
      </trkpt>
      <trkpt lat="45.88472" lon="4.65131">
        <ele>294</ele>
        <time>2018-03-07T10:25:45Z</time>
      </trkpt>
      <trkpt lat="45.88465" lon="4.65137">
        <ele>294</ele>
        <time>2018-03-07T10:25:50Z</time>
      </trkpt>
      <trkpt lat="45.88464" lon="4.65138">
        <ele>294</ele>
        <time>2018-03-07T10:25:51Z</time>
      </trkpt>
      <trkpt lat="45.88458" lon="4.65148">
        <ele>295</ele>
        <time>2018-03-07T10:25:57Z</time>
      </trkpt>
      <trkpt lat="45.88457" lon="4.65149">
        <ele>295</ele>
        <time>2018-03-07T10:25:58Z</time>
      </trkpt>
      <trkpt lat="45.88451" lon="4.65156">
        <ele>295</ele>
        <time>2018-03-07T10:26:03Z</time>
      </trkpt>
      <trkpt lat="45.88449" lon="4.65157">
        <ele>295</ele>
        <time>2018-03-07T10:26:04Z</time>
      </trkpt>
      <trkpt lat="45.88442" lon="4.65161">
        <ele>296</ele>
        <time>2018-03-07T10:26:08Z</time>
      </trkpt>
      <trkpt lat="45.8844" lon="4.65162">
        <ele>296</ele>
        <time>2018-03-07T10:26:09Z</time>
      </trkpt>
      <trkpt lat="45.88433" lon="4.65168">
        <ele>298</ele>
        <time>2018-03-07T10:26:13Z</time>
      </trkpt>
      <trkpt lat="45.88432" lon="4.65169">
        <ele>298</ele>
        <time>2018-03-07T10:26:14Z</time>
      </trkpt>
      <trkpt lat="45.88425" lon="4.65176">
        <ele>298</ele>
        <time>2018-03-07T10:26:19Z</time>
      </trkpt>
      <trkpt lat="45.88424" lon="4.65177">
        <ele>298</ele>
        <time>2018-03-07T10:26:20Z</time>
      </trkpt>
      <trkpt lat="45.88418" lon="4.65186">
        <ele>298</ele>
        <time>2018-03-07T10:26:26Z</time>
      </trkpt>
      <trkpt lat="45.88417" lon="4.65188">
        <ele>298</ele>
        <time>2018-03-07T10:26:27Z</time>
      </trkpt>
      <trkpt lat="45.88409" lon="4.65194">
        <ele>299</ele>
        <time>2018-03-07T10:26:33Z</time>
      </trkpt>
      <trkpt lat="45.88408" lon="4.65194">
        <ele>299</ele>
        <time>2018-03-07T10:26:34Z</time>
      </trkpt>
      <trkpt lat="45.88402" lon="4.65202">
        <ele>300</ele>
        <time>2018-03-07T10:26:39Z</time>
      </trkpt>
      <trkpt lat="45.884" lon="4.65204">
        <ele>300</ele>
        <time>2018-03-07T10:26:40Z</time>
      </trkpt>
      <trkpt lat="45.88395" lon="4.65211">
        <ele>300</ele>
        <time>2018-03-07T10:26:44Z</time>
      </trkpt>
      <trkpt lat="45.88394" lon="4.65213">
        <ele>300</ele>
        <time>2018-03-07T10:26:45Z</time>
      </trkpt>
      <trkpt lat="45.88387" lon="4.6522">
        <ele>300</ele>
        <time>2018-03-07T10:26:50Z</time>
      </trkpt>
      <trkpt lat="45.88386" lon="4.65222">
        <ele>300</ele>
        <time>2018-03-07T10:26:51Z</time>
      </trkpt>
      <trkpt lat="45.88379" lon="4.6523">
        <ele>300</ele>
        <time>2018-03-07T10:26:56Z</time>
      </trkpt>
      <trkpt lat="45.88377" lon="4.65232">
        <ele>300</ele>
        <time>2018-03-07T10:26:57Z</time>
      </trkpt>
      <trkpt lat="45.88371" lon="4.65239">
        <ele>300</ele>
        <time>2018-03-07T10:27:01Z</time>
      </trkpt>
      <trkpt lat="45.88369" lon="4.65241">
        <ele>300</ele>
        <time>2018-03-07T10:27:02Z</time>
      </trkpt>
      <trkpt lat="45.88362" lon="4.65248">
        <ele>300</ele>
        <time>2018-03-07T10:27:07Z</time>
      </trkpt>
      <trkpt lat="45.8836" lon="4.65249">
        <ele>300</ele>
        <time>2018-03-07T10:27:08Z</time>
      </trkpt>
      <trkpt lat="45.88354" lon="4.65254">
        <ele>301</ele>
        <time>2018-03-07T10:27:12Z</time>
      </trkpt>
      <trkpt lat="45.88352" lon="4.65256">
        <ele>301</ele>
        <time>2018-03-07T10:27:13Z</time>
      </trkpt>
      <trkpt lat="45.88345" lon="4.65262">
        <ele>301</ele>
        <time>2018-03-07T10:27:17Z</time>
      </trkpt>
      <trkpt lat="45.88344" lon="4.65264">
        <ele>301</ele>
        <time>2018-03-07T10:27:18Z</time>
      </trkpt>
      <trkpt lat="45.88338" lon="4.65271">
        <ele>301</ele>
        <time>2018-03-07T10:27:22Z</time>
      </trkpt>
      <trkpt lat="45.88336" lon="4.65272">
        <ele>302</ele>
        <time>2018-03-07T10:27:23Z</time>
      </trkpt>
      <trkpt lat="45.88331" lon="4.65279">
        <ele>304</ele>
        <time>2018-03-07T10:27:27Z</time>
      </trkpt>
      <trkpt lat="45.88329" lon="4.65281">
        <ele>304</ele>
        <time>2018-03-07T10:27:28Z</time>
      </trkpt>
      <trkpt lat="45.88325" lon="4.65291">
        <ele>304</ele>
        <time>2018-03-07T10:27:33Z</time>
      </trkpt>
      <trkpt lat="45.88324" lon="4.65293">
        <ele>304</ele>
        <time>2018-03-07T10:27:34Z</time>
      </trkpt>
      <trkpt lat="45.88318" lon="4.65302">
        <ele>305</ele>
        <time>2018-03-07T10:27:39Z</time>
      </trkpt>
      <trkpt lat="45.88317" lon="4.65304">
        <ele>305</ele>
        <time>2018-03-07T10:27:40Z</time>
      </trkpt>
      <trkpt lat="45.88313" lon="4.65313">
        <ele>305</ele>
        <time>2018-03-07T10:27:44Z</time>
      </trkpt>
      <trkpt lat="45.88311" lon="4.65315">
        <ele>305</ele>
        <time>2018-03-07T10:27:45Z</time>
      </trkpt>
      <trkpt lat="45.88307" lon="4.65324">
        <ele>305</ele>
        <time>2018-03-07T10:27:49Z</time>
      </trkpt>
      <trkpt lat="45.88306" lon="4.65326">
        <ele>305</ele>
        <time>2018-03-07T10:27:50Z</time>
      </trkpt>
      <trkpt lat="45.88301" lon="4.65335">
        <ele>307</ele>
        <time>2018-03-07T10:27:55Z</time>
      </trkpt>
      <trkpt lat="45.883" lon="4.65337">
        <ele>307</ele>
        <time>2018-03-07T10:27:56Z</time>
      </trkpt>
      <trkpt lat="45.88297" lon="4.65348">
        <ele>307</ele>
        <time>2018-03-07T10:28:01Z</time>
      </trkpt>
      <trkpt lat="45.88297" lon="4.6535">
        <ele>307</ele>
        <time>2018-03-07T10:28:02Z</time>
      </trkpt>
      <trkpt lat="45.88293" lon="4.6536">
        <ele>308</ele>
        <time>2018-03-07T10:28:07Z</time>
      </trkpt>
      <trkpt lat="45.88291" lon="4.65362">
        <ele>308</ele>
        <time>2018-03-07T10:28:08Z</time>
      </trkpt>
      <trkpt lat="45.88287" lon="4.65372">
        <ele>308</ele>
        <time>2018-03-07T10:28:13Z</time>
      </trkpt>
      <trkpt lat="45.88286" lon="4.65374">
        <ele>308</ele>
        <time>2018-03-07T10:28:14Z</time>
      </trkpt>
      <trkpt lat="45.88284" lon="4.65386">
        <ele>308</ele>
        <time>2018-03-07T10:28:19Z</time>
      </trkpt>
      <trkpt lat="45.88283" lon="4.65388">
        <ele>308</ele>
        <time>2018-03-07T10:28:20Z</time>
      </trkpt>
      <trkpt lat="45.8828" lon="4.65399">
        <ele>308</ele>
        <time>2018-03-07T10:28:25Z</time>
      </trkpt>
      <trkpt lat="45.88279" lon="4.65402">
        <ele>309</ele>
        <time>2018-03-07T10:28:26Z</time>
      </trkpt>
      <trkpt lat="45.88275" lon="4.65412">
        <ele>309</ele>
        <time>2018-03-07T10:28:31Z</time>
      </trkpt>
      <trkpt lat="45.88274" lon="4.65414">
        <ele>309</ele>
        <time>2018-03-07T10:28:32Z</time>
      </trkpt>
      <trkpt lat="45.88269" lon="4.65423">
        <ele>311</ele>
        <time>2018-03-07T10:28:37Z</time>
      </trkpt>
      <trkpt lat="45.88268" lon="4.65425">
        <ele>311</ele>
        <time>2018-03-07T10:28:38Z</time>
      </trkpt>
      <trkpt lat="45.88265" lon="4.65434">
        <ele>311</ele>
        <time>2018-03-07T10:28:43Z</time>
      </trkpt>
      <trkpt lat="45.88264" lon="4.65436">
        <ele>311</ele>
        <time>2018-03-07T10:28:44Z</time>
      </trkpt>
      <trkpt lat="45.88261" lon="4.65447">
        <ele>311</ele>
        <time>2018-03-07T10:28:50Z</time>
      </trkpt>
      <trkpt lat="45.88261" lon="4.65449">
        <ele>311</ele>
        <time>2018-03-07T10:28:51Z</time>
      </trkpt>
      <trkpt lat="45.88257" lon="4.65459">
        <ele>311</ele>
        <time>2018-03-07T10:28:56Z</time>
      </trkpt>
      <trkpt lat="45.88257" lon="4.65461">
        <ele>311</ele>
        <time>2018-03-07T10:28:57Z</time>
      </trkpt>
      <trkpt lat="45.88254" lon="4.65473">
        <ele>312</ele>
        <time>2018-03-07T10:29:02Z</time>
      </trkpt>
      <trkpt lat="45.88254" lon="4.65475">
        <ele>312</ele>
        <time>2018-03-07T10:29:03Z</time>
      </trkpt>
      <trkpt lat="45.8825" lon="4.65486">
        <ele>313</ele>
        <time>2018-03-07T10:29:08Z</time>
      </trkpt>
      <trkpt lat="45.8825" lon="4.65488">
        <ele>316</ele>
        <time>2018-03-07T10:29:09Z</time>
      </trkpt>
      <trkpt lat="45.88246" lon="4.65499">
        <ele>315</ele>
        <time>2018-03-07T10:29:14Z</time>
      </trkpt>
      <trkpt lat="45.88245" lon="4.65501">
        <ele>316</ele>
        <time>2018-03-07T10:29:15Z</time>
      </trkpt>
      <trkpt lat="45.88242" lon="4.65512">
        <ele>317</ele>
        <time>2018-03-07T10:29:20Z</time>
      </trkpt>
      <trkpt lat="45.88241" lon="4.65514">
        <ele>318</ele>
        <time>2018-03-07T10:29:21Z</time>
      </trkpt>
      <trkpt lat="45.88237" lon="4.65523">
        <ele>319</ele>
        <time>2018-03-07T10:29:26Z</time>
      </trkpt>
      <trkpt lat="45.88237" lon="4.65525">
        <ele>319</ele>
        <time>2018-03-07T10:29:27Z</time>
      </trkpt>
      <trkpt lat="45.88232" lon="4.65535">
        <ele>319</ele>
        <time>2018-03-07T10:29:32Z</time>
      </trkpt>
      <trkpt lat="45.88231" lon="4.65538">
        <ele>320</ele>
        <time>2018-03-07T10:29:33Z</time>
      </trkpt>
      <trkpt lat="45.88227" lon="4.65549">
        <ele>320</ele>
        <time>2018-03-07T10:29:38Z</time>
      </trkpt>
      <trkpt lat="45.88227" lon="4.65551">
        <ele>320</ele>
        <time>2018-03-07T10:29:39Z</time>
      </trkpt>
      <trkpt lat="45.88223" lon="4.65561">
        <ele>320</ele>
        <time>2018-03-07T10:29:43Z</time>
      </trkpt>
      <trkpt lat="45.88222" lon="4.65564">
        <ele>320</ele>
        <time>2018-03-07T10:29:44Z</time>
      </trkpt>
      <trkpt lat="45.88219" lon="4.65573">
        <ele>320</ele>
        <time>2018-03-07T10:29:48Z</time>
      </trkpt>
      <trkpt lat="45.88219" lon="4.65575">
        <ele>320</ele>
        <time>2018-03-07T10:29:49Z</time>
      </trkpt>
      <trkpt lat="45.88216" lon="4.65586">
        <ele>321</ele>
        <time>2018-03-07T10:29:54Z</time>
      </trkpt>
      <trkpt lat="45.88215" lon="4.65588">
        <ele>321</ele>
        <time>2018-03-07T10:29:55Z</time>
      </trkpt>
      <trkpt lat="45.88211" lon="4.65598">
        <ele>321</ele>
        <time>2018-03-07T10:30:00Z</time>
      </trkpt>
      <trkpt lat="45.8821" lon="4.656">
        <ele>321</ele>
        <time>2018-03-07T10:30:01Z</time>
      </trkpt>
      <trkpt lat="45.88208" lon="4.65611">
        <ele>321</ele>
        <time>2018-03-07T10:30:06Z</time>
      </trkpt>
      <trkpt lat="45.88207" lon="4.65613">
        <ele>321</ele>
        <time>2018-03-07T10:30:07Z</time>
      </trkpt>
      <trkpt lat="45.88204" lon="4.65624">
        <ele>321</ele>
        <time>2018-03-07T10:30:12Z</time>
      </trkpt>
      <trkpt lat="45.88203" lon="4.65626">
        <ele>321</ele>
        <time>2018-03-07T10:30:13Z</time>
      </trkpt>
      <trkpt lat="45.88199" lon="4.65637">
        <ele>321</ele>
        <time>2018-03-07T10:30:18Z</time>
      </trkpt>
      <trkpt lat="45.88199" lon="4.6564">
        <ele>321</ele>
        <time>2018-03-07T10:30:19Z</time>
      </trkpt>
      <trkpt lat="45.88194" lon="4.6565">
        <ele>322</ele>
        <time>2018-03-07T10:30:24Z</time>
      </trkpt>
      <trkpt lat="45.88193" lon="4.65652">
        <ele>322</ele>
        <time>2018-03-07T10:30:25Z</time>
      </trkpt>
      <trkpt lat="45.88189" lon="4.65661">
        <ele>322</ele>
        <time>2018-03-07T10:30:30Z</time>
      </trkpt>
      <trkpt lat="45.88188" lon="4.65663">
        <ele>322</ele>
        <time>2018-03-07T10:30:31Z</time>
      </trkpt>
      <trkpt lat="45.88183" lon="4.65672">
        <ele>322</ele>
        <time>2018-03-07T10:30:36Z</time>
      </trkpt>
      <trkpt lat="45.88182" lon="4.65674">
        <ele>322</ele>
        <time>2018-03-07T10:30:37Z</time>
      </trkpt>
      <trkpt lat="45.88178" lon="4.65683">
        <ele>322</ele>
        <time>2018-03-07T10:30:42Z</time>
      </trkpt>
      <trkpt lat="45.88177" lon="4.65686">
        <ele>322</ele>
        <time>2018-03-07T10:30:43Z</time>
      </trkpt>
      <trkpt lat="45.88173" lon="4.65695">
        <ele>322</ele>
        <time>2018-03-07T10:30:48Z</time>
      </trkpt>
      <trkpt lat="45.88171" lon="4.65697">
        <ele>322</ele>
        <time>2018-03-07T10:30:49Z</time>
      </trkpt>
      <trkpt lat="45.88164" lon="4.65703">
        <ele>331</ele>
        <time>2018-03-07T10:30:54Z</time>
      </trkpt>
      <trkpt lat="45.88163" lon="4.65704">
        <ele>331</ele>
        <time>2018-03-07T10:30:55Z</time>
      </trkpt>
      <trkpt lat="45.88157" lon="4.65713">
        <ele>331</ele>
        <time>2018-03-07T10:31:00Z</time>
      </trkpt>
      <trkpt lat="45.88156" lon="4.65714">
        <ele>331</ele>
        <time>2018-03-07T10:31:01Z</time>
      </trkpt>
      <trkpt lat="45.88151" lon="4.65723">
        <ele>331</ele>
        <time>2018-03-07T10:31:06Z</time>
      </trkpt>
      <trkpt lat="45.8815" lon="4.65725">
        <ele>331</ele>
        <time>2018-03-07T10:31:07Z</time>
      </trkpt>
      <trkpt lat="45.88145" lon="4.65733">
        <ele>331</ele>
        <time>2018-03-07T10:31:11Z</time>
      </trkpt>
      <trkpt lat="45.88143" lon="4.65735">
        <ele>331</ele>
        <time>2018-03-07T10:31:12Z</time>
      </trkpt>
      <trkpt lat="45.88137" lon="4.65743">
        <ele>332</ele>
        <time>2018-03-07T10:31:16Z</time>
      </trkpt>
      <trkpt lat="45.88135" lon="4.65745">
        <ele>332</ele>
        <time>2018-03-07T10:31:17Z</time>
      </trkpt>
      <trkpt lat="45.8813" lon="4.65752">
        <ele>332</ele>
        <time>2018-03-07T10:31:21Z</time>
      </trkpt>
      <trkpt lat="45.88129" lon="4.65754">
        <ele>332</ele>
        <time>2018-03-07T10:31:22Z</time>
      </trkpt>
      <trkpt lat="45.88123" lon="4.6576">
        <ele>333</ele>
        <time>2018-03-07T10:31:27Z</time>
      </trkpt>
      <trkpt lat="45.88121" lon="4.65762">
        <ele>333</ele>
        <time>2018-03-07T10:31:28Z</time>
      </trkpt>
      <trkpt lat="45.88114" lon="4.6577">
        <ele>334</ele>
        <time>2018-03-07T10:31:33Z</time>
      </trkpt>
      <trkpt lat="45.88113" lon="4.65772">
        <ele>334</ele>
        <time>2018-03-07T10:31:34Z</time>
      </trkpt>
      <trkpt lat="45.88108" lon="4.65779">
        <ele>334</ele>
        <time>2018-03-07T10:31:38Z</time>
      </trkpt>
      <trkpt lat="45.88106" lon="4.65781">
        <ele>334</ele>
        <time>2018-03-07T10:31:39Z</time>
      </trkpt>
      <trkpt lat="45.881" lon="4.65789">
        <ele>334</ele>
        <time>2018-03-07T10:31:43Z</time>
      </trkpt>
      <trkpt lat="45.88099" lon="4.65791">
        <ele>334</ele>
        <time>2018-03-07T10:31:44Z</time>
      </trkpt>
      <trkpt lat="45.88092" lon="4.65798">
        <ele>334</ele>
        <time>2018-03-07T10:31:48Z</time>
      </trkpt>
      <trkpt lat="45.8809" lon="4.65799">
        <ele>334</ele>
        <time>2018-03-07T10:31:49Z</time>
      </trkpt>
      <trkpt lat="45.88082" lon="4.65803">
        <ele>341</ele>
        <time>2018-03-07T10:31:54Z</time>
      </trkpt>
      <trkpt lat="45.8808" lon="4.65804">
        <ele>341</ele>
        <time>2018-03-07T10:31:55Z</time>
      </trkpt>
      <trkpt lat="45.88073" lon="4.6581">
        <ele>340</ele>
        <time>2018-03-07T10:32:00Z</time>
      </trkpt>
      <trkpt lat="45.88072" lon="4.65812">
        <ele>340</ele>
        <time>2018-03-07T10:32:01Z</time>
      </trkpt>
      <trkpt lat="45.88066" lon="4.65817">
        <ele>340</ele>
        <time>2018-03-07T10:32:05Z</time>
      </trkpt>
      <trkpt lat="45.88064" lon="4.65819">
        <ele>340</ele>
        <time>2018-03-07T10:32:06Z</time>
      </trkpt>
      <trkpt lat="45.88056" lon="4.65822">
        <ele>341</ele>
        <time>2018-03-07T10:32:10Z</time>
      </trkpt>
      <trkpt lat="45.88054" lon="4.65823">
        <ele>341</ele>
        <time>2018-03-07T10:32:11Z</time>
      </trkpt>
      <trkpt lat="45.88046" lon="4.65827">
        <ele>342</ele>
        <time>2018-03-07T10:32:15Z</time>
      </trkpt>
      <trkpt lat="45.88044" lon="4.65828">
        <ele>342</ele>
        <time>2018-03-07T10:32:16Z</time>
      </trkpt>
      <trkpt lat="45.88036" lon="4.65833">
        <ele>343</ele>
        <time>2018-03-07T10:32:20Z</time>
      </trkpt>
      <trkpt lat="45.88034" lon="4.65834">
        <ele>338</ele>
        <time>2018-03-07T10:32:21Z</time>
      </trkpt>
      <trkpt lat="45.88027" lon="4.65839">
        <ele>339</ele>
        <time>2018-03-07T10:32:25Z</time>
      </trkpt>
      <trkpt lat="45.88024" lon="4.6584">
        <ele>339</ele>
        <time>2018-03-07T10:32:26Z</time>
      </trkpt>
      <trkpt lat="45.88017" lon="4.65844">
        <ele>340</ele>
        <time>2018-03-07T10:32:29Z</time>
      </trkpt>
      <trkpt lat="45.88015" lon="4.65845">
        <ele>340</ele>
        <time>2018-03-07T10:32:30Z</time>
      </trkpt>
      <trkpt lat="45.88008" lon="4.65851">
        <ele>340</ele>
        <time>2018-03-07T10:32:34Z</time>
      </trkpt>
      <trkpt lat="45.88006" lon="4.65852">
        <ele>340</ele>
        <time>2018-03-07T10:32:35Z</time>
      </trkpt>
      <trkpt lat="45.87998" lon="4.65859">
        <ele>344</ele>
        <time>2018-03-07T10:32:39Z</time>
      </trkpt>
      <trkpt lat="45.87996" lon="4.6586">
        <ele>344</ele>
        <time>2018-03-07T10:32:40Z</time>
      </trkpt>
      <trkpt lat="45.87989" lon="4.65867">
        <ele>343</ele>
        <time>2018-03-07T10:32:44Z</time>
      </trkpt>
      <trkpt lat="45.87987" lon="4.6587">
        <ele>343</ele>
        <time>2018-03-07T10:32:45Z</time>
      </trkpt>
      <trkpt lat="45.87981" lon="4.65878">
        <ele>343</ele>
        <time>2018-03-07T10:32:48Z</time>
      </trkpt>
      <trkpt lat="45.87979" lon="4.65881">
        <ele>343</ele>
        <time>2018-03-07T10:32:49Z</time>
      </trkpt>
      <trkpt lat="45.87973" lon="4.65887">
        <ele>343</ele>
        <time>2018-03-07T10:32:52Z</time>
      </trkpt>
      <trkpt lat="45.87971" lon="4.65889">
        <ele>343</ele>
        <time>2018-03-07T10:32:53Z</time>
      </trkpt>
      <trkpt lat="45.87965" lon="4.65896">
        <ele>343</ele>
        <time>2018-03-07T10:32:56Z</time>
      </trkpt>
      <trkpt lat="45.87963" lon="4.65899">
        <ele>343</ele>
        <time>2018-03-07T10:32:57Z</time>
      </trkpt>
      <trkpt lat="45.87957" lon="4.65906">
        <ele>343</ele>
        <time>2018-03-07T10:33:00Z</time>
      </trkpt>
      <trkpt lat="45.87955" lon="4.65909">
        <ele>343</ele>
        <time>2018-03-07T10:33:01Z</time>
      </trkpt>
      <trkpt lat="45.8795" lon="4.65917">
        <ele>343</ele>
        <time>2018-03-07T10:33:04Z</time>
      </trkpt>
      <trkpt lat="45.87948" lon="4.65919">
        <ele>341</ele>
        <time>2018-03-07T10:33:05Z</time>
      </trkpt>
      <trkpt lat="45.87944" lon="4.65927">
        <ele>341</ele>
        <time>2018-03-07T10:33:08Z</time>
      </trkpt>
      <trkpt lat="45.87943" lon="4.6593">
        <ele>341</ele>
        <time>2018-03-07T10:33:09Z</time>
      </trkpt>
      <trkpt lat="45.87939" lon="4.65941">
        <ele>341</ele>
        <time>2018-03-07T10:33:13Z</time>
      </trkpt>
      <trkpt lat="45.87938" lon="4.65943">
        <ele>341</ele>
        <time>2018-03-07T10:33:14Z</time>
      </trkpt>
      <trkpt lat="45.87934" lon="4.65953">
        <ele>341</ele>
        <time>2018-03-07T10:33:18Z</time>
      </trkpt>
      <trkpt lat="45.87934" lon="4.65955">
        <ele>341</ele>
        <time>2018-03-07T10:33:19Z</time>
      </trkpt>
      <trkpt lat="45.87932" lon="4.65967">
        <ele>341</ele>
        <time>2018-03-07T10:33:24Z</time>
      </trkpt>
      <trkpt lat="45.87932" lon="4.65969">
        <ele>341</ele>
        <time>2018-03-07T10:33:25Z</time>
      </trkpt>
      <trkpt lat="45.8793" lon="4.6598">
        <ele>341</ele>
        <time>2018-03-07T10:33:29Z</time>
      </trkpt>
      <trkpt lat="45.87929" lon="4.65983">
        <ele>341</ele>
        <time>2018-03-07T10:33:30Z</time>
      </trkpt>
      <trkpt lat="45.87928" lon="4.65993">
        <ele>342</ele>
        <time>2018-03-07T10:33:34Z</time>
      </trkpt>
      <trkpt lat="45.87928" lon="4.65996">
        <ele>342</ele>
        <time>2018-03-07T10:33:35Z</time>
      </trkpt>
      <trkpt lat="45.87926" lon="4.66007">
        <ele>342</ele>
        <time>2018-03-07T10:33:39Z</time>
      </trkpt>
      <trkpt lat="45.87925" lon="4.6601">
        <ele>342</ele>
        <time>2018-03-07T10:33:40Z</time>
      </trkpt>
      <trkpt lat="45.87925" lon="4.66022">
        <ele>342</ele>
        <time>2018-03-07T10:33:45Z</time>
      </trkpt>
      <trkpt lat="45.87925" lon="4.66024">
        <ele>342</ele>
        <time>2018-03-07T10:33:46Z</time>
      </trkpt>
      <trkpt lat="45.87925" lon="4.66035">
        <ele>342</ele>
        <time>2018-03-07T10:33:50Z</time>
      </trkpt>
      <trkpt lat="45.87925" lon="4.66038">
        <ele>342</ele>
        <time>2018-03-07T10:33:51Z</time>
      </trkpt>
      <trkpt lat="45.87924" lon="4.6605">
        <ele>342</ele>
        <time>2018-03-07T10:33:55Z</time>
      </trkpt>
      <trkpt lat="45.87924" lon="4.66053">
        <ele>342</ele>
        <time>2018-03-07T10:33:56Z</time>
      </trkpt>
      <trkpt lat="45.87924" lon="4.66064">
        <ele>343</ele>
        <time>2018-03-07T10:34:00Z</time>
      </trkpt>
      <trkpt lat="45.87924" lon="4.66067">
        <ele>343</ele>
        <time>2018-03-07T10:34:01Z</time>
      </trkpt>
      <trkpt lat="45.87925" lon="4.66078">
        <ele>343</ele>
        <time>2018-03-07T10:34:05Z</time>
      </trkpt>
      <trkpt lat="45.87926" lon="4.66081">
        <ele>343</ele>
        <time>2018-03-07T10:34:06Z</time>
      </trkpt>
      <trkpt lat="45.87926" lon="4.66092">
        <ele>345</ele>
        <time>2018-03-07T10:34:11Z</time>
      </trkpt>
      <trkpt lat="45.87926" lon="4.66095">
        <ele>346</ele>
        <time>2018-03-07T10:34:12Z</time>
      </trkpt>
      <trkpt lat="45.87926" lon="4.66105">
        <ele>346</ele>
        <time>2018-03-07T10:34:17Z</time>
      </trkpt>
      <trkpt lat="45.87926" lon="4.66108">
        <ele>347</ele>
        <time>2018-03-07T10:34:18Z</time>
      </trkpt>
      <trkpt lat="45.87924" lon="4.66119">
        <ele>347</ele>
        <time>2018-03-07T10:34:23Z</time>
      </trkpt>
      <trkpt lat="45.87923" lon="4.66121">
        <ele>347</ele>
        <time>2018-03-07T10:34:24Z</time>
      </trkpt>
      <trkpt lat="45.87925" lon="4.66133">
        <ele>348</ele>
        <time>2018-03-07T10:34:31Z</time>
      </trkpt>
      <trkpt lat="45.87926" lon="4.66134">
        <ele>349</ele>
        <time>2018-03-07T10:34:32Z</time>
      </trkpt>
      <trkpt lat="45.87934" lon="4.66138">
        <ele>349</ele>
        <time>2018-03-07T10:34:36Z</time>
      </trkpt>
      <trkpt lat="45.87936" lon="4.66139">
        <ele>349</ele>
        <time>2018-03-07T10:34:37Z</time>
      </trkpt>
      <trkpt lat="45.87945" lon="4.6614">
        <ele>349</ele>
        <time>2018-03-07T10:34:41Z</time>
      </trkpt>
      <trkpt lat="45.87947" lon="4.66141">
        <ele>349</ele>
        <time>2018-03-07T10:34:42Z</time>
      </trkpt>
      <trkpt lat="45.87955" lon="4.66141">
        <ele>348</ele>
        <time>2018-03-07T10:34:45Z</time>
      </trkpt>
      <trkpt lat="45.87958" lon="4.66141">
        <ele>348</ele>
        <time>2018-03-07T10:34:46Z</time>
      </trkpt>
      <trkpt lat="45.87966" lon="4.66141">
        <ele>348</ele>
        <time>2018-03-07T10:34:49Z</time>
      </trkpt>
      <trkpt lat="45.87969" lon="4.66142">
        <ele>348</ele>
        <time>2018-03-07T10:34:50Z</time>
      </trkpt>
      <trkpt lat="45.87978" lon="4.66142">
        <ele>348</ele>
        <time>2018-03-07T10:34:53Z</time>
      </trkpt>
      <trkpt lat="45.8798" lon="4.66142">
        <ele>348</ele>
        <time>2018-03-07T10:34:54Z</time>
      </trkpt>
      <trkpt lat="45.87988" lon="4.66142">
        <ele>348</ele>
        <time>2018-03-07T10:34:57Z</time>
      </trkpt>
      <trkpt lat="45.87991" lon="4.66142">
        <ele>348</ele>
        <time>2018-03-07T10:34:58Z</time>
      </trkpt>
      <trkpt lat="45.87998" lon="4.66141">
        <ele>348</ele>
        <time>2018-03-07T10:35:00Z</time>
      </trkpt>
      <trkpt lat="45.88001" lon="4.66141">
        <ele>348</ele>
        <time>2018-03-07T10:35:01Z</time>
      </trkpt>
      <trkpt lat="45.88008" lon="4.6614">
        <ele>348</ele>
        <time>2018-03-07T10:35:03Z</time>
      </trkpt>
      <trkpt lat="45.88011" lon="4.6614">
        <ele>348</ele>
        <time>2018-03-07T10:35:04Z</time>
      </trkpt>
      <trkpt lat="45.88018" lon="4.66139">
        <ele>348</ele>
        <time>2018-03-07T10:35:06Z</time>
      </trkpt>
      <trkpt lat="45.88021" lon="4.66139">
        <ele>348</ele>
        <time>2018-03-07T10:35:07Z</time>
      </trkpt>
      <trkpt lat="45.88027" lon="4.66139">
        <ele>348</ele>
        <time>2018-03-07T10:35:09Z</time>
      </trkpt>
      <trkpt lat="45.88037" lon="4.66138">
        <ele>347</ele>
        <time>2018-03-07T10:35:10Z</time>
      </trkpt>
      <trkpt lat="45.88045" lon="4.66138">
        <ele>347</ele>
        <time>2018-03-07T10:35:12Z</time>
      </trkpt>
      <trkpt lat="45.88049" lon="4.66137">
        <ele>347</ele>
        <time>2018-03-07T10:35:13Z</time>
      </trkpt>
      <trkpt lat="45.88056" lon="4.66136">
        <ele>348</ele>
        <time>2018-03-07T10:35:15Z</time>
      </trkpt>
      <trkpt lat="45.88058" lon="4.66136">
        <ele>348</ele>
        <time>2018-03-07T10:35:16Z</time>
      </trkpt>
      <trkpt lat="45.88065" lon="4.66135">
        <ele>348</ele>
        <time>2018-03-07T10:35:19Z</time>
      </trkpt>
      <trkpt lat="45.88068" lon="4.66135">
        <ele>348</ele>
        <time>2018-03-07T10:35:20Z</time>
      </trkpt>
      <trkpt lat="45.88076" lon="4.66134">
        <ele>348</ele>
        <time>2018-03-07T10:35:23Z</time>
      </trkpt>
      <trkpt lat="45.88079" lon="4.66134">
        <ele>348</ele>
        <time>2018-03-07T10:35:24Z</time>
      </trkpt>
      <trkpt lat="45.88085" lon="4.66133">
        <ele>348</ele>
        <time>2018-03-07T10:35:26Z</time>
      </trkpt>
      <trkpt lat="45.88095" lon="4.66131">
        <ele>348</ele>
        <time>2018-03-07T10:35:27Z</time>
      </trkpt>
      <trkpt lat="45.88103" lon="4.6613">
        <ele>348</ele>
        <time>2018-03-07T10:35:29Z</time>
      </trkpt>
      <trkpt lat="45.88105" lon="4.6613">
        <ele>348</ele>
        <time>2018-03-07T10:35:30Z</time>
      </trkpt>
      <trkpt lat="45.88112" lon="4.6613">
        <ele>348</ele>
        <time>2018-03-07T10:35:33Z</time>
      </trkpt>
      <trkpt lat="45.88114" lon="4.6613">
        <ele>348</ele>
        <time>2018-03-07T10:35:34Z</time>
      </trkpt>
      <trkpt lat="45.88123" lon="4.66129">
        <ele>348</ele>
        <time>2018-03-07T10:35:37Z</time>
      </trkpt>
      <trkpt lat="45.88132" lon="4.66128">
        <ele>349</ele>
        <time>2018-03-07T10:35:38Z</time>
      </trkpt>
      <trkpt lat="45.88139" lon="4.66129">
        <ele>349</ele>
        <time>2018-03-07T10:35:40Z</time>
      </trkpt>
      <trkpt lat="45.88143" lon="4.66129">
        <ele>349</ele>
        <time>2018-03-07T10:35:41Z</time>
      </trkpt>
      <trkpt lat="45.88151" lon="4.66129">
        <ele>349</ele>
        <time>2018-03-07T10:35:43Z</time>
      </trkpt>
      <trkpt lat="45.88154" lon="4.66128">
        <ele>349</ele>
        <time>2018-03-07T10:35:44Z</time>
      </trkpt>
      <trkpt lat="45.88161" lon="4.66127">
        <ele>349</ele>
        <time>2018-03-07T10:35:47Z</time>
      </trkpt>
      <trkpt lat="45.88164" lon="4.66127">
        <ele>349</ele>
        <time>2018-03-07T10:35:48Z</time>
      </trkpt>
      <trkpt lat="45.88173" lon="4.66126">
        <ele>349</ele>
        <time>2018-03-07T10:35:51Z</time>
      </trkpt>
      <trkpt lat="45.88176" lon="4.66126">
        <ele>349</ele>
        <time>2018-03-07T10:35:52Z</time>
      </trkpt>
      <trkpt lat="45.88185" lon="4.66127">
        <ele>349</ele>
        <time>2018-03-07T10:35:55Z</time>
      </trkpt>
      <trkpt lat="45.88188" lon="4.66127">
        <ele>349</ele>
        <time>2018-03-07T10:35:56Z</time>
      </trkpt>
      <trkpt lat="45.88197" lon="4.66129">
        <ele>350</ele>
        <time>2018-03-07T10:35:59Z</time>
      </trkpt>
      <trkpt lat="45.882" lon="4.66129">
        <ele>350</ele>
        <time>2018-03-07T10:36:00Z</time>
      </trkpt>
      <trkpt lat="45.88208" lon="4.6613">
        <ele>350</ele>
        <time>2018-03-07T10:36:03Z</time>
      </trkpt>
      <trkpt lat="45.88211" lon="4.6613">
        <ele>350</ele>
        <time>2018-03-07T10:36:04Z</time>
      </trkpt>
      <trkpt lat="45.8822" lon="4.66131">
        <ele>350</ele>
        <time>2018-03-07T10:36:07Z</time>
      </trkpt>
      <trkpt lat="45.88222" lon="4.66131">
        <ele>350</ele>
        <time>2018-03-07T10:36:08Z</time>
      </trkpt>
      <trkpt lat="45.88231" lon="4.66132">
        <ele>350</ele>
        <time>2018-03-07T10:36:11Z</time>
      </trkpt>
      <trkpt lat="45.88234" lon="4.66132">
        <ele>350</ele>
        <time>2018-03-07T10:36:12Z</time>
      </trkpt>
      <trkpt lat="45.88242" lon="4.66134">
        <ele>350</ele>
        <time>2018-03-07T10:36:15Z</time>
      </trkpt>
      <trkpt lat="45.88244" lon="4.66134">
        <ele>350</ele>
        <time>2018-03-07T10:36:16Z</time>
      </trkpt>
      <trkpt lat="45.88252" lon="4.66135">
        <ele>352</ele>
        <time>2018-03-07T10:36:19Z</time>
      </trkpt>
      <trkpt lat="45.88255" lon="4.66135">
        <ele>352</ele>
        <time>2018-03-07T10:36:20Z</time>
      </trkpt>
      <trkpt lat="45.88263" lon="4.66136">
        <ele>352</ele>
        <time>2018-03-07T10:36:23Z</time>
      </trkpt>
      <trkpt lat="45.88266" lon="4.66136">
        <ele>352</ele>
        <time>2018-03-07T10:36:24Z</time>
      </trkpt>
      <trkpt lat="45.88274" lon="4.66136">
        <ele>352</ele>
        <time>2018-03-07T10:36:27Z</time>
      </trkpt>
      <trkpt lat="45.88277" lon="4.66137">
        <ele>352</ele>
        <time>2018-03-07T10:36:28Z</time>
      </trkpt>
      <trkpt lat="45.88284" lon="4.66137">
        <ele>352</ele>
        <time>2018-03-07T10:36:31Z</time>
      </trkpt>
      <trkpt lat="45.88287" lon="4.66137">
        <ele>352</ele>
        <time>2018-03-07T10:36:32Z</time>
      </trkpt>
      <trkpt lat="45.88294" lon="4.66137">
        <ele>352</ele>
        <time>2018-03-07T10:36:35Z</time>
      </trkpt>
      <trkpt lat="45.88297" lon="4.66137">
        <ele>353</ele>
        <time>2018-03-07T10:36:36Z</time>
      </trkpt>
      <trkpt lat="45.88305" lon="4.66137">
        <ele>353</ele>
        <time>2018-03-07T10:36:39Z</time>
      </trkpt>
      <trkpt lat="45.88307" lon="4.66137">
        <ele>353</ele>
        <time>2018-03-07T10:36:40Z</time>
      </trkpt>
      <trkpt lat="45.88315" lon="4.66138">
        <ele>353</ele>
        <time>2018-03-07T10:36:43Z</time>
      </trkpt>
      <trkpt lat="45.88317" lon="4.66138">
        <ele>353</ele>
        <time>2018-03-07T10:36:44Z</time>
      </trkpt>
      <trkpt lat="45.88326" lon="4.66139">
        <ele>354</ele>
        <time>2018-03-07T10:36:48Z</time>
      </trkpt>
      <trkpt lat="45.88328" lon="4.66139">
        <ele>354</ele>
        <time>2018-03-07T10:36:49Z</time>
      </trkpt>
      <trkpt lat="45.88337" lon="4.66141">
        <ele>357</ele>
        <time>2018-03-07T10:36:53Z</time>
      </trkpt>
      <trkpt lat="45.88339" lon="4.66141">
        <ele>357</ele>
        <time>2018-03-07T10:36:54Z</time>
      </trkpt>
      <trkpt lat="45.88347" lon="4.66141">
        <ele>357</ele>
        <time>2018-03-07T10:36:58Z</time>
      </trkpt>
      <trkpt lat="45.88349" lon="4.66141">
        <ele>357</ele>
        <time>2018-03-07T10:36:59Z</time>
      </trkpt>
      <trkpt lat="45.88356" lon="4.66142">
        <ele>357</ele>
        <time>2018-03-07T10:37:03Z</time>
      </trkpt>
      <trkpt lat="45.88358" lon="4.66142">
        <ele>357</ele>
        <time>2018-03-07T10:37:04Z</time>
      </trkpt>
      <trkpt lat="45.88365" lon="4.66143">
        <ele>357</ele>
        <time>2018-03-07T10:37:08Z</time>
      </trkpt>
      <trkpt lat="45.88367" lon="4.66142">
        <ele>357</ele>
        <time>2018-03-07T10:37:09Z</time>
      </trkpt>
      <trkpt lat="45.88375" lon="4.66141">
        <ele>357</ele>
        <time>2018-03-07T10:37:13Z</time>
      </trkpt>
      <trkpt lat="45.88377" lon="4.66141">
        <ele>357</ele>
        <time>2018-03-07T10:37:14Z</time>
      </trkpt>
      <trkpt lat="45.88384" lon="4.66139">
        <ele>357</ele>
        <time>2018-03-07T10:37:18Z</time>
      </trkpt>
      <trkpt lat="45.88386" lon="4.66138">
        <ele>357</ele>
        <time>2018-03-07T10:37:19Z</time>
      </trkpt>
      <trkpt lat="45.88394" lon="4.66138">
        <ele>357</ele>
        <time>2018-03-07T10:37:23Z</time>
      </trkpt>
      <trkpt lat="45.88396" lon="4.66138">
        <ele>357</ele>
        <time>2018-03-07T10:37:24Z</time>
      </trkpt>
      <trkpt lat="45.88405" lon="4.66138">
        <ele>358</ele>
        <time>2018-03-07T10:37:29Z</time>
      </trkpt>
      <trkpt lat="45.88406" lon="4.66139">
        <ele>358</ele>
        <time>2018-03-07T10:37:30Z</time>
      </trkpt>
      <trkpt lat="45.88414" lon="4.66142">
        <ele>359</ele>
        <time>2018-03-07T10:37:35Z</time>
      </trkpt>
      <trkpt lat="45.88416" lon="4.66143">
        <ele>359</ele>
        <time>2018-03-07T10:37:36Z</time>
      </trkpt>
      <trkpt lat="45.88423" lon="4.66144">
        <ele>361</ele>
        <time>2018-03-07T10:37:41Z</time>
      </trkpt>
      <trkpt lat="45.88425" lon="4.66145">
        <ele>361</ele>
        <time>2018-03-07T10:37:42Z</time>
      </trkpt>
      <trkpt lat="45.88432" lon="4.66146">
        <ele>361</ele>
        <time>2018-03-07T10:37:47Z</time>
      </trkpt>
      <trkpt lat="45.88434" lon="4.66146">
        <ele>361</ele>
        <time>2018-03-07T10:37:48Z</time>
      </trkpt>
      <trkpt lat="45.88442" lon="4.66147">
        <ele>361</ele>
        <time>2018-03-07T10:37:53Z</time>
      </trkpt>
      <trkpt lat="45.88444" lon="4.66147">
        <ele>361</ele>
        <time>2018-03-07T10:37:54Z</time>
      </trkpt>
      <trkpt lat="45.88451" lon="4.66147">
        <ele>361</ele>
        <time>2018-03-07T10:37:59Z</time>
      </trkpt>
      <trkpt lat="45.88453" lon="4.66147">
        <ele>361</ele>
        <time>2018-03-07T10:38:00Z</time>
      </trkpt>
      <trkpt lat="45.8846" lon="4.66148">
        <ele>361</ele>
        <time>2018-03-07T10:38:05Z</time>
      </trkpt>
      <trkpt lat="45.88462" lon="4.66148">
        <ele>361</ele>
        <time>2018-03-07T10:38:06Z</time>
      </trkpt>
      <trkpt lat="45.88471" lon="4.66151">
        <ele>362</ele>
        <time>2018-03-07T10:38:11Z</time>
      </trkpt>
      <trkpt lat="45.88472" lon="4.66152">
        <ele>362</ele>
        <time>2018-03-07T10:38:12Z</time>
      </trkpt>
      <trkpt lat="45.8848" lon="4.66157">
        <ele>363</ele>
        <time>2018-03-07T10:38:18Z</time>
      </trkpt>
      <trkpt lat="45.88481" lon="4.66158">
        <ele>363</ele>
        <time>2018-03-07T10:38:19Z</time>
      </trkpt>
      <trkpt lat="45.88488" lon="4.66165">
        <ele>364</ele>
        <time>2018-03-07T10:38:25Z</time>
      </trkpt>
      <trkpt lat="45.88489" lon="4.66166">
        <ele>365</ele>
        <time>2018-03-07T10:38:26Z</time>
      </trkpt>
      <trkpt lat="45.88496" lon="4.66172">
        <ele>368</ele>
        <time>2018-03-07T10:38:31Z</time>
      </trkpt>
      <trkpt lat="45.88498" lon="4.66173">
        <ele>368</ele>
        <time>2018-03-07T10:38:32Z</time>
      </trkpt>
      <trkpt lat="45.88505" lon="4.66179">
        <ele>368</ele>
        <time>2018-03-07T10:38:37Z</time>
      </trkpt>
      <trkpt lat="45.88506" lon="4.66181">
        <ele>369</ele>
        <time>2018-03-07T10:38:38Z</time>
      </trkpt>
      <trkpt lat="45.88514" lon="4.66187">
        <ele>369</ele>
        <time>2018-03-07T10:38:43Z</time>
      </trkpt>
      <trkpt lat="45.88515" lon="4.66187">
        <ele>369</ele>
        <time>2018-03-07T10:38:44Z</time>
      </trkpt>
      <trkpt lat="45.88523" lon="4.6619">
        <ele>369</ele>
        <time>2018-03-07T10:38:49Z</time>
      </trkpt>
      <trkpt lat="45.88524" lon="4.6619">
        <ele>369</ele>
        <time>2018-03-07T10:38:50Z</time>
      </trkpt>
      <trkpt lat="45.88531" lon="4.66195">
        <ele>370</ele>
        <time>2018-03-07T10:38:54Z</time>
      </trkpt>
      <trkpt lat="45.88533" lon="4.66196">
        <ele>370</ele>
        <time>2018-03-07T10:38:55Z</time>
      </trkpt>
      <trkpt lat="45.88539" lon="4.66202">
        <ele>370</ele>
        <time>2018-03-07T10:38:59Z</time>
      </trkpt>
      <trkpt lat="45.8854" lon="4.66204">
        <ele>370</ele>
        <time>2018-03-07T10:39:00Z</time>
      </trkpt>
      <trkpt lat="45.88546" lon="4.66212">
        <ele>370</ele>
        <time>2018-03-07T10:39:04Z</time>
      </trkpt>
      <trkpt lat="45.88547" lon="4.66214">
        <ele>370</ele>
        <time>2018-03-07T10:39:05Z</time>
      </trkpt>
      <trkpt lat="45.88553" lon="4.6622">
        <ele>370</ele>
        <time>2018-03-07T10:39:09Z</time>
      </trkpt>
      <trkpt lat="45.88554" lon="4.66222">
        <ele>370</ele>
        <time>2018-03-07T10:39:10Z</time>
      </trkpt>
      <trkpt lat="45.8856" lon="4.66228">
        <ele>370</ele>
        <time>2018-03-07T10:39:14Z</time>
      </trkpt>
      <trkpt lat="45.88562" lon="4.66229">
        <ele>370</ele>
        <time>2018-03-07T10:39:15Z</time>
      </trkpt>
      <trkpt lat="45.88568" lon="4.66235">
        <ele>371</ele>
        <time>2018-03-07T10:39:19Z</time>
      </trkpt>
      <trkpt lat="45.8857" lon="4.66237">
        <ele>371</ele>
        <time>2018-03-07T10:39:20Z</time>
      </trkpt>
      <trkpt lat="45.88576" lon="4.66245">
        <ele>371</ele>
        <time>2018-03-07T10:39:25Z</time>
      </trkpt>
      <trkpt lat="45.88577" lon="4.66247">
        <ele>371</ele>
        <time>2018-03-07T10:39:26Z</time>
      </trkpt>
      <trkpt lat="45.88582" lon="4.66256">
        <ele>373</ele>
        <time>2018-03-07T10:39:30Z</time>
      </trkpt>
      <trkpt lat="45.88584" lon="4.66258">
        <ele>371</ele>
        <time>2018-03-07T10:39:31Z</time>
      </trkpt>
      <trkpt lat="45.88589" lon="4.66268">
        <ele>372</ele>
        <time>2018-03-07T10:39:35Z</time>
      </trkpt>
      <trkpt lat="45.8859" lon="4.6627">
        <ele>372</ele>
        <time>2018-03-07T10:39:36Z</time>
      </trkpt>
      <trkpt lat="45.88596" lon="4.66278">
        <ele>372</ele>
        <time>2018-03-07T10:39:40Z</time>
      </trkpt>
      <trkpt lat="45.88597" lon="4.6628">
        <ele>372</ele>
        <time>2018-03-07T10:39:41Z</time>
      </trkpt>
      <trkpt lat="45.88602" lon="4.6629">
        <ele>373</ele>
        <time>2018-03-07T10:39:45Z</time>
      </trkpt>
      <trkpt lat="45.88603" lon="4.66292">
        <ele>373</ele>
        <time>2018-03-07T10:39:46Z</time>
      </trkpt>
      <trkpt lat="45.88608" lon="4.66302">
        <ele>374</ele>
        <time>2018-03-07T10:39:50Z</time>
      </trkpt>
      <trkpt lat="45.88609" lon="4.66304">
        <ele>374</ele>
        <time>2018-03-07T10:39:51Z</time>
      </trkpt>
      <trkpt lat="45.88616" lon="4.66313">
        <ele>374</ele>
        <time>2018-03-07T10:39:55Z</time>
      </trkpt>
      <trkpt lat="45.88617" lon="4.66315">
        <ele>374</ele>
        <time>2018-03-07T10:39:56Z</time>
      </trkpt>
      <trkpt lat="45.88621" lon="4.66323">
        <ele>374</ele>
        <time>2018-03-07T10:39:59Z</time>
      </trkpt>
      <trkpt lat="45.88622" lon="4.66326">
        <ele>374</ele>
        <time>2018-03-07T10:40:00Z</time>
      </trkpt>
      <trkpt lat="45.88626" lon="4.66334">
        <ele>380</ele>
        <time>2018-03-07T10:40:03Z</time>
      </trkpt>
      <trkpt lat="45.88628" lon="4.66337">
        <ele>380</ele>
        <time>2018-03-07T10:40:04Z</time>
      </trkpt>
      <trkpt lat="45.88633" lon="4.66345">
        <ele>380</ele>
        <time>2018-03-07T10:40:07Z</time>
      </trkpt>
      <trkpt lat="45.88634" lon="4.66347">
        <ele>380</ele>
        <time>2018-03-07T10:40:08Z</time>
      </trkpt>
      <trkpt lat="45.8864" lon="4.66355">
        <ele>380</ele>
        <time>2018-03-07T10:40:11Z</time>
      </trkpt>
      <trkpt lat="45.88641" lon="4.66358">
        <ele>380</ele>
        <time>2018-03-07T10:40:12Z</time>
      </trkpt>
      <trkpt lat="45.88645" lon="4.66366">
        <ele>380</ele>
        <time>2018-03-07T10:40:15Z</time>
      </trkpt>
      <trkpt lat="45.88647" lon="4.6637">
        <ele>381</ele>
        <time>2018-03-07T10:40:16Z</time>
      </trkpt>
      <trkpt lat="45.88651" lon="4.66379">
        <ele>381</ele>
        <time>2018-03-07T10:40:19Z</time>
      </trkpt>
      <trkpt lat="45.88652" lon="4.66382">
        <ele>381</ele>
        <time>2018-03-07T10:40:20Z</time>
      </trkpt>
      <trkpt lat="45.88658" lon="4.6639">
        <ele>382</ele>
        <time>2018-03-07T10:40:24Z</time>
      </trkpt>
      <trkpt lat="45.8866" lon="4.66392">
        <ele>382</ele>
        <time>2018-03-07T10:40:25Z</time>
      </trkpt>
      <trkpt lat="45.88667" lon="4.66399">
        <ele>379</ele>
        <time>2018-03-07T10:40:29Z</time>
      </trkpt>
      <trkpt lat="45.88669" lon="4.66401">
        <ele>379</ele>
        <time>2018-03-07T10:40:30Z</time>
      </trkpt>
      <trkpt lat="45.88676" lon="4.66408">
        <ele>380</ele>
        <time>2018-03-07T10:40:34Z</time>
      </trkpt>
      <trkpt lat="45.88678" lon="4.6641">
        <ele>380</ele>
        <time>2018-03-07T10:40:35Z</time>
      </trkpt>
      <trkpt lat="45.88685" lon="4.66415">
        <ele>379</ele>
        <time>2018-03-07T10:40:39Z</time>
      </trkpt>
      <trkpt lat="45.88687" lon="4.66417">
        <ele>379</ele>
        <time>2018-03-07T10:40:40Z</time>
      </trkpt>
      <trkpt lat="45.88694" lon="4.66421">
        <ele>384</ele>
        <time>2018-03-07T10:40:44Z</time>
      </trkpt>
      <trkpt lat="45.88696" lon="4.66423">
        <ele>384</ele>
        <time>2018-03-07T10:40:45Z</time>
      </trkpt>
      <trkpt lat="45.88703" lon="4.66428">
        <ele>384</ele>
        <time>2018-03-07T10:40:49Z</time>
      </trkpt>
      <trkpt lat="45.88705" lon="4.6643">
        <ele>384</ele>
        <time>2018-03-07T10:40:50Z</time>
      </trkpt>
      <trkpt lat="45.88712" lon="4.66435">
        <ele>384</ele>
        <time>2018-03-07T10:40:54Z</time>
      </trkpt>
      <trkpt lat="45.88714" lon="4.66437">
        <ele>383</ele>
        <time>2018-03-07T10:40:55Z</time>
      </trkpt>
      <trkpt lat="45.88722" lon="4.66444">
        <ele>384</ele>
        <time>2018-03-07T10:40:59Z</time>
      </trkpt>
      <trkpt lat="45.88724" lon="4.66446">
        <ele>384</ele>
        <time>2018-03-07T10:41:00Z</time>
      </trkpt>
      <trkpt lat="45.88729" lon="4.66451">
        <ele>384</ele>
        <time>2018-03-07T10:41:03Z</time>
      </trkpt>
      <trkpt lat="45.88731" lon="4.66453">
        <ele>384</ele>
        <time>2018-03-07T10:41:04Z</time>
      </trkpt>
      <trkpt lat="45.88737" lon="4.66462">
        <ele>384</ele>
        <time>2018-03-07T10:41:08Z</time>
      </trkpt>
      <trkpt lat="45.88738" lon="4.66464">
        <ele>384</ele>
        <time>2018-03-07T10:41:09Z</time>
      </trkpt>
      <trkpt lat="45.88744" lon="4.66471">
        <ele>385</ele>
        <time>2018-03-07T10:41:13Z</time>
      </trkpt>
      <trkpt lat="45.88745" lon="4.66473">
        <ele>385</ele>
        <time>2018-03-07T10:41:14Z</time>
      </trkpt>
      <trkpt lat="45.8875" lon="4.66482">
        <ele>384</ele>
        <time>2018-03-07T10:41:18Z</time>
      </trkpt>
      <trkpt lat="45.88752" lon="4.66484">
        <ele>384</ele>
        <time>2018-03-07T10:41:19Z</time>
      </trkpt>
      <trkpt lat="45.88757" lon="4.66491">
        <ele>385</ele>
        <time>2018-03-07T10:41:23Z</time>
      </trkpt>
      <trkpt lat="45.88758" lon="4.66494">
        <ele>385</ele>
        <time>2018-03-07T10:41:24Z</time>
      </trkpt>
      <trkpt lat="45.88762" lon="4.66502">
        <ele>389</ele>
        <time>2018-03-07T10:41:28Z</time>
      </trkpt>
      <trkpt lat="45.88764" lon="4.66504">
        <ele>389</ele>
        <time>2018-03-07T10:41:29Z</time>
      </trkpt>
      <trkpt lat="45.8877" lon="4.66511">
        <ele>390</ele>
        <time>2018-03-07T10:41:34Z</time>
      </trkpt>
      <trkpt lat="45.88771" lon="4.66512">
        <ele>390</ele>
        <time>2018-03-07T10:41:35Z</time>
      </trkpt>
      <trkpt lat="45.88778" lon="4.6652">
        <ele>390</ele>
        <time>2018-03-07T10:41:41Z</time>
      </trkpt>
      <trkpt lat="45.88779" lon="4.66521">
        <ele>390</ele>
        <time>2018-03-07T10:41:42Z</time>
      </trkpt>
      <trkpt lat="45.88786" lon="4.66527">
        <ele>391</ele>
        <time>2018-03-07T10:41:47Z</time>
      </trkpt>
      <trkpt lat="45.88787" lon="4.66529">
        <ele>391</ele>
        <time>2018-03-07T10:41:48Z</time>
      </trkpt>
      <trkpt lat="45.88793" lon="4.66535">
        <ele>391</ele>
        <time>2018-03-07T10:41:53Z</time>
      </trkpt>
      <trkpt lat="45.88795" lon="4.66536">
        <ele>391</ele>
        <time>2018-03-07T10:41:54Z</time>
      </trkpt>
      <trkpt lat="45.88803" lon="4.6654">
        <ele>391</ele>
        <time>2018-03-07T10:41:59Z</time>
      </trkpt>
      <trkpt lat="45.88804" lon="4.66541">
        <ele>391</ele>
        <time>2018-03-07T10:42:00Z</time>
      </trkpt>
      <trkpt lat="45.88811" lon="4.66546">
        <ele>392</ele>
        <time>2018-03-07T10:42:05Z</time>
      </trkpt>
      <trkpt lat="45.88813" lon="4.66548">
        <ele>392</ele>
        <time>2018-03-07T10:42:06Z</time>
      </trkpt>
      <trkpt lat="45.88819" lon="4.66554">
        <ele>393</ele>
        <time>2018-03-07T10:42:11Z</time>
      </trkpt>
      <trkpt lat="45.8882" lon="4.66555">
        <ele>393</ele>
        <time>2018-03-07T10:42:12Z</time>
      </trkpt>
      <trkpt lat="45.88828" lon="4.66559">
        <ele>393</ele>
        <time>2018-03-07T10:42:17Z</time>
      </trkpt>
      <trkpt lat="45.88829" lon="4.66559">
        <ele>393</ele>
        <time>2018-03-07T10:42:18Z</time>
      </trkpt>
      <trkpt lat="45.88837" lon="4.66563">
        <ele>392</ele>
        <time>2018-03-07T10:42:23Z</time>
      </trkpt>
      <trkpt lat="45.88838" lon="4.66564">
        <ele>392</ele>
        <time>2018-03-07T10:42:24Z</time>
      </trkpt>
      <trkpt lat="45.88846" lon="4.66569">
        <ele>393</ele>
        <time>2018-03-07T10:42:29Z</time>
      </trkpt>
      <trkpt lat="45.88847" lon="4.6657">
        <ele>393</ele>
        <time>2018-03-07T10:42:30Z</time>
      </trkpt>
      <trkpt lat="45.88854" lon="4.66575">
        <ele>392</ele>
        <time>2018-03-07T10:42:35Z</time>
      </trkpt>
      <trkpt lat="45.88856" lon="4.66576">
        <ele>392</ele>
        <time>2018-03-07T10:42:36Z</time>
      </trkpt>
      <trkpt lat="45.88862" lon="4.66583">
        <ele>392</ele>
        <time>2018-03-07T10:42:41Z</time>
      </trkpt>
      <trkpt lat="45.88863" lon="4.66584">
        <ele>399</ele>
        <time>2018-03-07T10:42:42Z</time>
      </trkpt>
      <trkpt lat="45.88869" lon="4.66591">
        <ele>399</ele>
        <time>2018-03-07T10:42:47Z</time>
      </trkpt>
      <trkpt lat="45.8887" lon="4.66592">
        <ele>399</ele>
        <time>2018-03-07T10:42:48Z</time>
      </trkpt>
      <trkpt lat="45.88877" lon="4.66599">
        <ele>400</ele>
        <time>2018-03-07T10:42:53Z</time>
      </trkpt>
      <trkpt lat="45.88877" lon="4.666">
        <ele>400</ele>
        <time>2018-03-07T10:42:54Z</time>
      </trkpt>
      <trkpt lat="45.88882" lon="4.6661">
        <ele>400</ele>
        <time>2018-03-07T10:42:59Z</time>
      </trkpt>
      <trkpt lat="45.88883" lon="4.66612">
        <ele>400</ele>
        <time>2018-03-07T10:43:00Z</time>
      </trkpt>
      <trkpt lat="45.88889" lon="4.66619">
        <ele>401</ele>
        <time>2018-03-07T10:43:07Z</time>
      </trkpt>
      <trkpt lat="45.8889" lon="4.6662">
        <ele>401</ele>
        <time>2018-03-07T10:43:08Z</time>
      </trkpt>
      <trkpt lat="45.88895" lon="4.6663">
        <ele>401</ele>
        <time>2018-03-07T10:43:14Z</time>
      </trkpt>
      <trkpt lat="45.88896" lon="4.66632">
        <ele>401</ele>
        <time>2018-03-07T10:43:15Z</time>
      </trkpt>
      <trkpt lat="45.88902" lon="4.66639">
        <ele>402</ele>
        <time>2018-03-07T10:43:21Z</time>
      </trkpt>
      <trkpt lat="45.88903" lon="4.66641">
        <ele>402</ele>
        <time>2018-03-07T10:43:22Z</time>
      </trkpt>
      <trkpt lat="45.88909" lon="4.66649">
        <ele>403</ele>
        <time>2018-03-07T10:43:27Z</time>
      </trkpt>
      <trkpt lat="45.88911" lon="4.6665">
        <ele>403</ele>
        <time>2018-03-07T10:43:28Z</time>
      </trkpt>
      <trkpt lat="45.88917" lon="4.66658">
        <ele>404</ele>
        <time>2018-03-07T10:43:32Z</time>
      </trkpt>
      <trkpt lat="45.88919" lon="4.6666">
        <ele>404</ele>
        <time>2018-03-07T10:43:33Z</time>
      </trkpt>
      <trkpt lat="45.88924" lon="4.66667">
        <ele>407</ele>
        <time>2018-03-07T10:43:37Z</time>
      </trkpt>
      <trkpt lat="45.88926" lon="4.66668">
        <ele>407</ele>
        <time>2018-03-07T10:43:38Z</time>
      </trkpt>
      <trkpt lat="45.88934" lon="4.66675">
        <ele>408</ele>
        <time>2018-03-07T10:43:42Z</time>
      </trkpt>
      <trkpt lat="45.88935" lon="4.66676">
        <ele>408</ele>
        <time>2018-03-07T10:43:43Z</time>
      </trkpt>
      <trkpt lat="45.88943" lon="4.66683">
        <ele>408</ele>
        <time>2018-03-07T10:43:47Z</time>
      </trkpt>
      <trkpt lat="45.88945" lon="4.66685">
        <ele>409</ele>
        <time>2018-03-07T10:43:48Z</time>
      </trkpt>
      <trkpt lat="45.88951" lon="4.66692">
        <ele>409</ele>
        <time>2018-03-07T10:43:52Z</time>
      </trkpt>
      <trkpt lat="45.88953" lon="4.66693">
        <ele>409</ele>
        <time>2018-03-07T10:43:53Z</time>
      </trkpt>
      <trkpt lat="45.88961" lon="4.66698">
        <ele>409</ele>
        <time>2018-03-07T10:43:57Z</time>
      </trkpt>
      <trkpt lat="45.88963" lon="4.66699">
        <ele>409</ele>
        <time>2018-03-07T10:43:58Z</time>
      </trkpt>
      <trkpt lat="45.88971" lon="4.66702">
        <ele>409</ele>
        <time>2018-03-07T10:44:02Z</time>
      </trkpt>
      <trkpt lat="45.88973" lon="4.66703">
        <ele>409</ele>
        <time>2018-03-07T10:44:03Z</time>
      </trkpt>
      <trkpt lat="45.8898" lon="4.66707">
        <ele>409</ele>
        <time>2018-03-07T10:44:06Z</time>
      </trkpt>
      <trkpt lat="45.88982" lon="4.66708">
        <ele>409</ele>
        <time>2018-03-07T10:44:07Z</time>
      </trkpt>
      <trkpt lat="45.88989" lon="4.66708">
        <ele>409</ele>
        <time>2018-03-07T10:44:10Z</time>
      </trkpt>
      <trkpt lat="45.88991" lon="4.66709">
        <ele>409</ele>
        <time>2018-03-07T10:44:11Z</time>
      </trkpt>
      <trkpt lat="45.89" lon="4.66711">
        <ele>410</ele>
        <time>2018-03-07T10:44:15Z</time>
      </trkpt>
      <trkpt lat="45.89002" lon="4.66712">
        <ele>407</ele>
        <time>2018-03-07T10:44:16Z</time>
      </trkpt>
      <trkpt lat="45.8901" lon="4.66715">
        <ele>407</ele>
        <time>2018-03-07T10:44:20Z</time>
      </trkpt>
      <trkpt lat="45.89011" lon="4.66715">
        <ele>407</ele>
        <time>2018-03-07T10:44:21Z</time>
      </trkpt>
      <trkpt lat="45.89019" lon="4.66718">
        <ele>407</ele>
        <time>2018-03-07T10:44:25Z</time>
      </trkpt>
      <trkpt lat="45.89021" lon="4.66719">
        <ele>407</ele>
        <time>2018-03-07T10:44:26Z</time>
      </trkpt>
      <trkpt lat="45.89028" lon="4.66722">
        <ele>407</ele>
        <time>2018-03-07T10:44:29Z</time>
      </trkpt>
      <trkpt lat="45.89031" lon="4.66723">
        <ele>407</ele>
        <time>2018-03-07T10:44:30Z</time>
      </trkpt>
      <trkpt lat="45.89039" lon="4.66729">
        <ele>407</ele>
        <time>2018-03-07T10:44:33Z</time>
      </trkpt>
      <trkpt lat="45.89041" lon="4.66731">
        <ele>407</ele>
        <time>2018-03-07T10:44:34Z</time>
      </trkpt>
      <trkpt lat="45.89047" lon="4.66736">
        <ele>407</ele>
        <time>2018-03-07T10:44:37Z</time>
      </trkpt>
      <trkpt lat="45.89049" lon="4.66738">
        <ele>407</ele>
        <time>2018-03-07T10:44:38Z</time>
      </trkpt>
      <trkpt lat="45.89057" lon="4.66743">
        <ele>407</ele>
        <time>2018-03-07T10:44:42Z</time>
      </trkpt>
      <trkpt lat="45.89059" lon="4.66745">
        <ele>407</ele>
        <time>2018-03-07T10:44:43Z</time>
      </trkpt>
      <trkpt lat="45.89068" lon="4.66753">
        <ele>411</ele>
        <time>2018-03-07T10:44:44Z</time>
      </trkpt>
      <trkpt lat="45.89074" lon="4.66761">
        <ele>411</ele>
        <time>2018-03-07T10:44:50Z</time>
      </trkpt>
      <trkpt lat="45.89075" lon="4.66762">
        <ele>411</ele>
        <time>2018-03-07T10:44:51Z</time>
      </trkpt>
      <trkpt lat="45.89083" lon="4.66767">
        <ele>411</ele>
        <time>2018-03-07T10:44:56Z</time>
      </trkpt>
      <trkpt lat="45.89085" lon="4.66767">
        <ele>409</ele>
        <time>2018-03-07T10:44:57Z</time>
      </trkpt>
      <trkpt lat="45.8909" lon="4.66769">
        <ele>409</ele>
        <time>2018-03-07T10:45:00Z</time>
      </trkpt>
      <trkpt lat="45.89097" lon="4.66774">
        <ele>410</ele>
        <time>2018-03-07T10:45:01Z</time>
      </trkpt>
      <trkpt lat="45.89103" lon="4.66782">
        <ele>410</ele>
        <time>2018-03-07T10:45:06Z</time>
      </trkpt>
      <trkpt lat="45.89105" lon="4.66784">
        <ele>410</ele>
        <time>2018-03-07T10:45:07Z</time>
      </trkpt>
      <trkpt lat="45.89111" lon="4.66791">
        <ele>410</ele>
        <time>2018-03-07T10:45:12Z</time>
      </trkpt>
      <trkpt lat="45.89113" lon="4.66792">
        <ele>410</ele>
        <time>2018-03-07T10:45:13Z</time>
      </trkpt>
      <trkpt lat="45.8912" lon="4.66797">
        <ele>410</ele>
        <time>2018-03-07T10:45:16Z</time>
      </trkpt>
      <trkpt lat="45.89121" lon="4.66799">
        <ele>410</ele>
        <time>2018-03-07T10:45:17Z</time>
      </trkpt>
      <trkpt lat="45.89125" lon="4.66809">
        <ele>411</ele>
        <time>2018-03-07T10:45:21Z</time>
      </trkpt>
      <trkpt lat="45.89125" lon="4.66811">
        <ele>411</ele>
        <time>2018-03-07T10:45:22Z</time>
      </trkpt>
      <trkpt lat="45.89123" lon="4.66824">
        <ele>411</ele>
        <time>2018-03-07T10:46:01Z</time>
      </trkpt>
      <trkpt lat="45.89123" lon="4.66824">
        <ele>411</ele>
        <time>2018-03-07T10:46:02Z</time>
      </trkpt>
      <trkpt lat="45.89113" lon="4.66822">
        <ele>412</ele>
        <time>2018-03-07T11:00:33.233Z</time>
      </trkpt>
      <trkpt lat="45.89121" lon="4.66825">
        <ele>411</ele>
        <time>2018-03-07T11:00:50Z</time>
      </trkpt>
      <trkpt lat="45.89121" lon="4.66825">
        <ele>411</ele>
        <time>2018-03-07T11:00:51Z</time>
      </trkpt>
      <trkpt lat="45.89121" lon="4.66826">
        <ele>411</ele>
        <time>2018-03-07T11:00:52Z</time>
      </trkpt>
      <trkpt lat="45.89123" lon="4.66838">
        <ele>414</ele>
        <time>2018-03-07T11:01:16Z</time>
      </trkpt>
      <trkpt lat="45.89124" lon="4.66838">
        <ele>414</ele>
        <time>2018-03-07T11:01:17Z</time>
      </trkpt>
      <trkpt lat="45.89128" lon="4.6683">
        <ele>411</ele>
        <time>2018-03-07T11:01:24Z</time>
      </trkpt>
      <trkpt lat="45.8913" lon="4.66828">
        <ele>411</ele>
        <time>2018-03-07T11:01:25Z</time>
      </trkpt>
      <trkpt lat="45.89139" lon="4.66829">
        <ele>411</ele>
        <time>2018-03-07T11:01:28Z</time>
      </trkpt>
      <trkpt lat="45.89142" lon="4.6683">
        <ele>412</ele>
        <time>2018-03-07T11:01:29Z</time>
      </trkpt>
      <trkpt lat="45.8915" lon="4.66834">
        <ele>414</ele>
        <time>2018-03-07T11:01:30Z</time>
      </trkpt>
      <trkpt lat="45.89158" lon="4.66841">
        <ele>414</ele>
        <time>2018-03-07T11:01:33Z</time>
      </trkpt>
      <trkpt lat="45.89159" lon="4.66842">
        <ele>414</ele>
        <time>2018-03-07T11:01:34Z</time>
      </trkpt>
      <trkpt lat="45.89157" lon="4.66854">
        <ele>414</ele>
        <time>2018-03-07T11:01:39Z</time>
      </trkpt>
      <trkpt lat="45.89157" lon="4.66856">
        <ele>414</ele>
        <time>2018-03-07T11:01:40Z</time>
      </trkpt>
      <trkpt lat="45.89155" lon="4.66865">
        <ele>414</ele>
        <time>2018-03-07T11:01:43Z</time>
      </trkpt>
      <trkpt lat="45.89155" lon="4.66869">
        <ele>414</ele>
        <time>2018-03-07T11:01:44Z</time>
      </trkpt>
      <trkpt lat="45.89155" lon="4.66878">
        <ele>414</ele>
        <time>2018-03-07T11:01:46Z</time>
      </trkpt>
      <trkpt lat="45.89155" lon="4.66882">
        <ele>414</ele>
        <time>2018-03-07T11:01:47Z</time>
      </trkpt>
      <trkpt lat="45.89156" lon="4.66891">
        <ele>414</ele>
        <time>2018-03-07T11:01:49Z</time>
      </trkpt>
      <trkpt lat="45.89157" lon="4.66896">
        <ele>414</ele>
        <time>2018-03-07T11:01:50Z</time>
      </trkpt>
      <trkpt lat="45.89159" lon="4.66904">
        <ele>415</ele>
        <time>2018-03-07T11:01:52Z</time>
      </trkpt>
      <trkpt lat="45.8916" lon="4.66908">
        <ele>415</ele>
        <time>2018-03-07T11:01:53Z</time>
      </trkpt>
      <trkpt lat="45.89164" lon="4.66921">
        <ele>414</ele>
        <time>2018-03-07T11:01:54Z</time>
      </trkpt>
      <trkpt lat="45.89166" lon="4.66932">
        <ele>413</ele>
        <time>2018-03-07T11:01:56Z</time>
      </trkpt>
      <trkpt lat="45.89167" lon="4.66937">
        <ele>415</ele>
        <time>2018-03-07T11:01:57Z</time>
      </trkpt>
      <trkpt lat="45.89169" lon="4.66945">
        <ele>415</ele>
        <time>2018-03-07T11:01:59Z</time>
      </trkpt>
      <trkpt lat="45.89171" lon="4.66952">
        <ele>415</ele>
        <time>2018-03-07T11:02:00Z</time>
      </trkpt>
      <trkpt lat="45.89174" lon="4.66963">
        <ele>415</ele>
        <time>2018-03-07T11:02:02Z</time>
      </trkpt>
      <trkpt lat="45.89175" lon="4.66969">
        <ele>415</ele>
        <time>2018-03-07T11:02:03Z</time>
      </trkpt>
      <trkpt lat="45.89178" lon="4.6698">
        <ele>414</ele>
        <time>2018-03-07T11:02:05Z</time>
      </trkpt>
      <trkpt lat="45.89179" lon="4.66985">
        <ele>414</ele>
        <time>2018-03-07T11:02:06Z</time>
      </trkpt>
      <trkpt lat="45.89182" lon="4.66997">
        <ele>414</ele>
        <time>2018-03-07T11:02:08Z</time>
      </trkpt>
      <trkpt lat="45.89183" lon="4.67002">
        <ele>412</ele>
        <time>2018-03-07T11:02:09Z</time>
      </trkpt>
      <trkpt lat="45.89186" lon="4.67014">
        <ele>412</ele>
        <time>2018-03-07T11:02:11Z</time>
      </trkpt>
      <trkpt lat="45.89188" lon="4.67019">
        <ele>413</ele>
        <time>2018-03-07T11:02:12Z</time>
      </trkpt>
      <trkpt lat="45.89192" lon="4.6703">
        <ele>413</ele>
        <time>2018-03-07T11:02:14Z</time>
      </trkpt>
      <trkpt lat="45.89194" lon="4.67036">
        <ele>413</ele>
        <time>2018-03-07T11:02:15Z</time>
      </trkpt>
      <trkpt lat="45.89198" lon="4.67048">
        <ele>412</ele>
        <time>2018-03-07T11:02:17Z</time>
      </trkpt>
      <trkpt lat="45.892" lon="4.67053">
        <ele>412</ele>
        <time>2018-03-07T11:02:18Z</time>
      </trkpt>
      <trkpt lat="45.89204" lon="4.67064">
        <ele>412</ele>
        <time>2018-03-07T11:02:20Z</time>
      </trkpt>
      <trkpt lat="45.89205" lon="4.67069">
        <ele>412</ele>
        <time>2018-03-07T11:02:21Z</time>
      </trkpt>
      <trkpt lat="45.89208" lon="4.67075">
        <ele>412</ele>
        <time>2018-03-07T11:02:22Z</time>
      </trkpt>
      <trkpt lat="45.8921" lon="4.67081">
        <ele>413</ele>
        <time>2018-03-07T11:02:23Z</time>
      </trkpt>
      <trkpt lat="45.89213" lon="4.67087">
        <ele>410</ele>
        <time>2018-03-07T11:02:24Z</time>
      </trkpt>
      <trkpt lat="45.89216" lon="4.67093">
        <ele>411</ele>
        <time>2018-03-07T11:02:25Z</time>
      </trkpt>
      <trkpt lat="45.89219" lon="4.67099">
        <ele>411</ele>
        <time>2018-03-07T11:02:26Z</time>
      </trkpt>
      <trkpt lat="45.89222" lon="4.67104">
        <ele>411</ele>
        <time>2018-03-07T11:02:27Z</time>
      </trkpt>
      <trkpt lat="45.89226" lon="4.67115">
        <ele>411</ele>
        <time>2018-03-07T11:02:29Z</time>
      </trkpt>
      <trkpt lat="45.89229" lon="4.6712">
        <ele>411</ele>
        <time>2018-03-07T11:02:30Z</time>
      </trkpt>
      <trkpt lat="45.89234" lon="4.6713">
        <ele>411</ele>
        <time>2018-03-07T11:02:32Z</time>
      </trkpt>
      <trkpt lat="45.89237" lon="4.67137">
        <ele>411</ele>
        <time>2018-03-07T11:02:33Z</time>
      </trkpt>
      <trkpt lat="45.89239" lon="4.67142">
        <ele>411</ele>
        <time>2018-03-07T11:02:34Z</time>
      </trkpt>
      <trkpt lat="45.89242" lon="4.67147">
        <ele>411</ele>
        <time>2018-03-07T11:02:35Z</time>
      </trkpt>
      <trkpt lat="45.89245" lon="4.67152">
        <ele>412</ele>
        <time>2018-03-07T11:02:36Z</time>
      </trkpt>
      <trkpt lat="45.89249" lon="4.67156">
        <ele>412</ele>
        <time>2018-03-07T11:02:37Z</time>
      </trkpt>
      <trkpt lat="45.89253" lon="4.67161">
        <ele>414</ele>
        <time>2018-03-07T11:02:38Z</time>
      </trkpt>
      <trkpt lat="45.89256" lon="4.67164">
        <ele>414</ele>
        <time>2018-03-07T11:02:39Z</time>
      </trkpt>
      <trkpt lat="45.89259" lon="4.67168">
        <ele>412</ele>
        <time>2018-03-07T11:02:40Z</time>
      </trkpt>
      <trkpt lat="45.89263" lon="4.67171">
        <ele>412</ele>
        <time>2018-03-07T11:02:41Z</time>
      </trkpt>
      <trkpt lat="45.89268" lon="4.67177">
        <ele>412</ele>
        <time>2018-03-07T11:02:42Z</time>
      </trkpt>
      <trkpt lat="45.89272" lon="4.67181">
        <ele>412</ele>
        <time>2018-03-07T11:02:43Z</time>
      </trkpt>
      <trkpt lat="45.89277" lon="4.67184">
        <ele>412</ele>
        <time>2018-03-07T11:02:44Z</time>
      </trkpt>
      <trkpt lat="45.89282" lon="4.67188">
        <ele>412</ele>
        <time>2018-03-07T11:02:45Z</time>
      </trkpt>
      <trkpt lat="45.89286" lon="4.67191">
        <ele>412</ele>
        <time>2018-03-07T11:02:46Z</time>
      </trkpt>
      <trkpt lat="45.89291" lon="4.67194">
        <ele>412</ele>
        <time>2018-03-07T11:02:47Z</time>
      </trkpt>
      <trkpt lat="45.89296" lon="4.67199">
        <ele>412</ele>
        <time>2018-03-07T11:02:48Z</time>
      </trkpt>
      <trkpt lat="45.89301" lon="4.67202">
        <ele>412</ele>
        <time>2018-03-07T11:02:49Z</time>
      </trkpt>
      <trkpt lat="45.89306" lon="4.67205">
        <ele>412</ele>
        <time>2018-03-07T11:02:50Z</time>
      </trkpt>
      <trkpt lat="45.89312" lon="4.67207">
        <ele>412</ele>
        <time>2018-03-07T11:02:51Z</time>
      </trkpt>
      <trkpt lat="45.89317" lon="4.6721">
        <ele>411</ele>
        <time>2018-03-07T11:02:52Z</time>
      </trkpt>
      <trkpt lat="45.89322" lon="4.67213">
        <ele>411</ele>
        <time>2018-03-07T11:02:53Z</time>
      </trkpt>
      <trkpt lat="45.89327" lon="4.67214">
        <ele>411</ele>
        <time>2018-03-07T11:02:54Z</time>
      </trkpt>
      <trkpt lat="45.89332" lon="4.67215">
        <ele>411</ele>
        <time>2018-03-07T11:02:55Z</time>
      </trkpt>
      <trkpt lat="45.89337" lon="4.67217">
        <ele>415</ele>
        <time>2018-03-07T11:02:56Z</time>
      </trkpt>
      <trkpt lat="45.89343" lon="4.67219">
        <ele>415</ele>
        <time>2018-03-07T11:02:57Z</time>
      </trkpt>
      <trkpt lat="45.89348" lon="4.67223">
        <ele>415</ele>
        <time>2018-03-07T11:02:58Z</time>
      </trkpt>
      <trkpt lat="45.89352" lon="4.67229">
        <ele>415</ele>
        <time>2018-03-07T11:02:59Z</time>
      </trkpt>
      <trkpt lat="45.89357" lon="4.67234">
        <ele>415</ele>
        <time>2018-03-07T11:03:00Z</time>
      </trkpt>
      <trkpt lat="45.89361" lon="4.6724">
        <ele>415</ele>
        <time>2018-03-07T11:03:01Z</time>
      </trkpt>
      <trkpt lat="45.89365" lon="4.67246">
        <ele>415</ele>
        <time>2018-03-07T11:03:02Z</time>
      </trkpt>
      <trkpt lat="45.89369" lon="4.67252">
        <ele>409</ele>
        <time>2018-03-07T11:03:03Z</time>
      </trkpt>
      <trkpt lat="45.89373" lon="4.6726">
        <ele>409</ele>
        <time>2018-03-07T11:03:04Z</time>
      </trkpt>
      <trkpt lat="45.89376" lon="4.67269">
        <ele>409</ele>
        <time>2018-03-07T11:03:05Z</time>
      </trkpt>
      <trkpt lat="45.8938" lon="4.67275">
        <ele>409</ele>
        <time>2018-03-07T11:03:06Z</time>
      </trkpt>
      <trkpt lat="45.89384" lon="4.67282">
        <ele>409</ele>
        <time>2018-03-07T11:03:07Z</time>
      </trkpt>
      <trkpt lat="45.89388" lon="4.67291">
        <ele>408</ele>
        <time>2018-03-07T11:03:08Z</time>
      </trkpt>
      <trkpt lat="45.89393" lon="4.67298">
        <ele>408</ele>
        <time>2018-03-07T11:03:09Z</time>
      </trkpt>
      <trkpt lat="45.89397" lon="4.67303">
        <ele>408</ele>
        <time>2018-03-07T11:03:10Z</time>
      </trkpt>
      <trkpt lat="45.89402" lon="4.6731">
        <ele>408</ele>
        <time>2018-03-07T11:03:11Z</time>
      </trkpt>
      <trkpt lat="45.89406" lon="4.67316">
        <ele>407</ele>
        <time>2018-03-07T11:03:12Z</time>
      </trkpt>
      <trkpt lat="45.89411" lon="4.67322">
        <ele>407</ele>
        <time>2018-03-07T11:03:13Z</time>
      </trkpt>
      <trkpt lat="45.89416" lon="4.67329">
        <ele>407</ele>
        <time>2018-03-07T11:03:14Z</time>
      </trkpt>
      <trkpt lat="45.89422" lon="4.67334">
        <ele>407</ele>
        <time>2018-03-07T11:03:15Z</time>
      </trkpt>
      <trkpt lat="45.89428" lon="4.67342">
        <ele>407</ele>
        <time>2018-03-07T11:03:16Z</time>
      </trkpt>
      <trkpt lat="45.89436" lon="4.67347">
        <ele>407</ele>
        <time>2018-03-07T11:03:17Z</time>
      </trkpt>
      <trkpt lat="45.89442" lon="4.67354">
        <ele>407</ele>
        <time>2018-03-07T11:03:18Z</time>
      </trkpt>
      <trkpt lat="45.89447" lon="4.6736">
        <ele>407</ele>
        <time>2018-03-07T11:03:19Z</time>
      </trkpt>
      <trkpt lat="45.89454" lon="4.67367">
        <ele>407</ele>
        <time>2018-03-07T11:03:20Z</time>
      </trkpt>
      <trkpt lat="45.8946" lon="4.67374">
        <ele>407</ele>
        <time>2018-03-07T11:03:21Z</time>
      </trkpt>
      <trkpt lat="45.89467" lon="4.6738">
        <ele>407</ele>
        <time>2018-03-07T11:03:22Z</time>
      </trkpt>
      <trkpt lat="45.89473" lon="4.67385">
        <ele>407</ele>
        <time>2018-03-07T11:03:23Z</time>
      </trkpt>
      <trkpt lat="45.8948" lon="4.6739">
        <ele>407</ele>
        <time>2018-03-07T11:03:24Z</time>
      </trkpt>
      <trkpt lat="45.89486" lon="4.67395">
        <ele>406</ele>
        <time>2018-03-07T11:03:25Z</time>
      </trkpt>
      <trkpt lat="45.89493" lon="4.674">
        <ele>406</ele>
        <time>2018-03-07T11:03:26Z</time>
      </trkpt>
      <trkpt lat="45.895" lon="4.67405">
        <ele>405</ele>
        <time>2018-03-07T11:03:27Z</time>
      </trkpt>
      <trkpt lat="45.89506" lon="4.6741">
        <ele>407</ele>
        <time>2018-03-07T11:03:28Z</time>
      </trkpt>
      <trkpt lat="45.89513" lon="4.67416">
        <ele>407</ele>
        <time>2018-03-07T11:03:29Z</time>
      </trkpt>
      <trkpt lat="45.8952" lon="4.6742">
        <ele>402</ele>
        <time>2018-03-07T11:03:30Z</time>
      </trkpt>
      <trkpt lat="45.89527" lon="4.67424">
        <ele>402</ele>
        <time>2018-03-07T11:03:31Z</time>
      </trkpt>
      <trkpt lat="45.89534" lon="4.67427">
        <ele>402</ele>
        <time>2018-03-07T11:03:32Z</time>
      </trkpt>
      <trkpt lat="45.89542" lon="4.67431">
        <ele>402</ele>
        <time>2018-03-07T11:03:33Z</time>
      </trkpt>
      <trkpt lat="45.89549" lon="4.67432">
        <ele>402</ele>
        <time>2018-03-07T11:03:34Z</time>
      </trkpt>
      <trkpt lat="45.89556" lon="4.67434">
        <ele>403</ele>
        <time>2018-03-07T11:03:35Z</time>
      </trkpt>
      <trkpt lat="45.89563" lon="4.67436">
        <ele>403</ele>
        <time>2018-03-07T11:03:36Z</time>
      </trkpt>
      <trkpt lat="45.8957" lon="4.6744">
        <ele>403</ele>
        <time>2018-03-07T11:03:37Z</time>
      </trkpt>
      <trkpt lat="45.89579" lon="4.67444">
        <ele>403</ele>
        <time>2018-03-07T11:03:38Z</time>
      </trkpt>
      <trkpt lat="45.89586" lon="4.67446">
        <ele>404</ele>
        <time>2018-03-07T11:03:39Z</time>
      </trkpt>
      <trkpt lat="45.89593" lon="4.67449">
        <ele>404</ele>
        <time>2018-03-07T11:03:40Z</time>
      </trkpt>
      <trkpt lat="45.89601" lon="4.67452">
        <ele>404</ele>
        <time>2018-03-07T11:03:41Z</time>
      </trkpt>
      <trkpt lat="45.89609" lon="4.67455">
        <ele>403</ele>
        <time>2018-03-07T11:03:42Z</time>
      </trkpt>
      <trkpt lat="45.89617" lon="4.67458">
        <ele>403</ele>
        <time>2018-03-07T11:03:43Z</time>
      </trkpt>
      <trkpt lat="45.89624" lon="4.6746">
        <ele>403</ele>
        <time>2018-03-07T11:03:44Z</time>
      </trkpt>
      <trkpt lat="45.89632" lon="4.67462">
        <ele>403</ele>
        <time>2018-03-07T11:03:45Z</time>
      </trkpt>
      <trkpt lat="45.89639" lon="4.67465">
        <ele>403</ele>
        <time>2018-03-07T11:03:46Z</time>
      </trkpt>
      <trkpt lat="45.89646" lon="4.67468">
        <ele>403</ele>
        <time>2018-03-07T11:03:47Z</time>
      </trkpt>
      <trkpt lat="45.89654" lon="4.6747">
        <ele>403</ele>
        <time>2018-03-07T11:03:48Z</time>
      </trkpt>
      <trkpt lat="45.89663" lon="4.67475">
        <ele>402</ele>
        <time>2018-03-07T11:03:49Z</time>
      </trkpt>
      <trkpt lat="45.89672" lon="4.67479">
        <ele>402</ele>
        <time>2018-03-07T11:03:50Z</time>
      </trkpt>
      <trkpt lat="45.8968" lon="4.67482">
        <ele>402</ele>
        <time>2018-03-07T11:03:51Z</time>
      </trkpt>
      <trkpt lat="45.89687" lon="4.67484">
        <ele>402</ele>
        <time>2018-03-07T11:03:52Z</time>
      </trkpt>
      <trkpt lat="45.89696" lon="4.67488">
        <ele>402</ele>
        <time>2018-03-07T11:03:53Z</time>
      </trkpt>
      <trkpt lat="45.89705" lon="4.67491">
        <ele>402</ele>
        <time>2018-03-07T11:03:54Z</time>
      </trkpt>
      <trkpt lat="45.89713" lon="4.67494">
        <ele>402</ele>
        <time>2018-03-07T11:03:55Z</time>
      </trkpt>
      <trkpt lat="45.89721" lon="4.67496">
        <ele>402</ele>
        <time>2018-03-07T11:03:56Z</time>
      </trkpt>
      <trkpt lat="45.89729" lon="4.67497">
        <ele>401</ele>
        <time>2018-03-07T11:03:57Z</time>
      </trkpt>
      <trkpt lat="45.89738" lon="4.67498">
        <ele>401</ele>
        <time>2018-03-07T11:03:58Z</time>
      </trkpt>
      <trkpt lat="45.89747" lon="4.675">
        <ele>400</ele>
        <time>2018-03-07T11:03:59Z</time>
      </trkpt>
      <trkpt lat="45.89756" lon="4.67499">
        <ele>399</ele>
        <time>2018-03-07T11:04:00Z</time>
      </trkpt>
      <trkpt lat="45.89765" lon="4.67498">
        <ele>399</ele>
        <time>2018-03-07T11:04:01Z</time>
      </trkpt>
      <trkpt lat="45.89774" lon="4.67496">
        <ele>399</ele>
        <time>2018-03-07T11:04:02Z</time>
      </trkpt>
      <trkpt lat="45.89783" lon="4.67493">
        <ele>399</ele>
        <time>2018-03-07T11:04:03Z</time>
      </trkpt>
      <trkpt lat="45.89791" lon="4.67489">
        <ele>399</ele>
        <time>2018-03-07T11:04:04Z</time>
      </trkpt>
      <trkpt lat="45.89799" lon="4.6748">
        <ele>399</ele>
        <time>2018-03-07T11:04:05Z</time>
      </trkpt>
      <trkpt lat="45.89806" lon="4.67471">
        <ele>399</ele>
        <time>2018-03-07T11:04:06Z</time>
      </trkpt>
      <trkpt lat="45.89814" lon="4.67458">
        <ele>399</ele>
        <time>2018-03-07T11:04:07Z</time>
      </trkpt>
      <trkpt lat="45.89818" lon="4.67445">
        <ele>399</ele>
        <time>2018-03-07T11:04:08Z</time>
      </trkpt>
      <trkpt lat="45.89821" lon="4.67433">
        <ele>398</ele>
        <time>2018-03-07T11:04:09Z</time>
      </trkpt>
      <trkpt lat="45.89824" lon="4.6742">
        <ele>398</ele>
        <time>2018-03-07T11:04:10Z</time>
      </trkpt>
      <trkpt lat="45.89826" lon="4.67408">
        <ele>400</ele>
        <time>2018-03-07T11:04:11Z</time>
      </trkpt>
      <trkpt lat="45.89831" lon="4.67396">
        <ele>402</ele>
        <time>2018-03-07T11:04:12Z</time>
      </trkpt>
      <trkpt lat="45.89836" lon="4.67384">
        <ele>398</ele>
        <time>2018-03-07T11:04:13Z</time>
      </trkpt>
      <trkpt lat="45.89841" lon="4.67375">
        <ele>398</ele>
        <time>2018-03-07T11:04:14Z</time>
      </trkpt>
      <trkpt lat="45.89847" lon="4.67366">
        <ele>399</ele>
        <time>2018-03-07T11:04:15Z</time>
      </trkpt>
      <trkpt lat="45.89853" lon="4.67357">
        <ele>399</ele>
        <time>2018-03-07T11:04:16Z</time>
      </trkpt>
      <trkpt lat="45.8986" lon="4.67351">
        <ele>399</ele>
        <time>2018-03-07T11:04:17Z</time>
      </trkpt>
      <trkpt lat="45.89869" lon="4.67345">
        <ele>399</ele>
        <time>2018-03-07T11:04:18Z</time>
      </trkpt>
      <trkpt lat="45.89874" lon="4.67345">
        <ele>399</ele>
        <time>2018-03-07T11:04:19Z</time>
      </trkpt>
      <trkpt lat="45.89882" lon="4.67341">
        <ele>399</ele>
        <time>2018-03-07T11:04:20Z</time>
      </trkpt>
      <trkpt lat="45.89891" lon="4.67344">
        <ele>398</ele>
        <time>2018-03-07T11:04:21Z</time>
      </trkpt>
      <trkpt lat="45.89901" lon="4.67348">
        <ele>398</ele>
        <time>2018-03-07T11:04:22Z</time>
      </trkpt>
      <trkpt lat="45.8991" lon="4.67349">
        <ele>399</ele>
        <time>2018-03-07T11:04:23Z</time>
      </trkpt>
      <trkpt lat="45.89919" lon="4.67352">
        <ele>397</ele>
        <time>2018-03-07T11:04:24Z</time>
      </trkpt>
      <trkpt lat="45.8993" lon="4.67356">
        <ele>396</ele>
        <time>2018-03-07T11:04:25Z</time>
      </trkpt>
      <trkpt lat="45.89938" lon="4.67358">
        <ele>395</ele>
        <time>2018-03-07T11:04:26Z</time>
      </trkpt>
      <trkpt lat="45.89946" lon="4.6736">
        <ele>395</ele>
        <time>2018-03-07T11:04:27Z</time>
      </trkpt>
      <trkpt lat="45.89955" lon="4.67363">
        <ele>395</ele>
        <time>2018-03-07T11:04:28Z</time>
      </trkpt>
      <trkpt lat="45.89964" lon="4.67366">
        <ele>395</ele>
        <time>2018-03-07T11:04:29Z</time>
      </trkpt>
      <trkpt lat="45.89974" lon="4.67368">
        <ele>395</ele>
        <time>2018-03-07T11:04:30Z</time>
      </trkpt>
      <trkpt lat="45.89984" lon="4.67372">
        <ele>394</ele>
        <time>2018-03-07T11:04:31Z</time>
      </trkpt>
      <trkpt lat="45.89994" lon="4.67376">
        <ele>394</ele>
        <time>2018-03-07T11:04:32Z</time>
      </trkpt>
      <trkpt lat="45.90002" lon="4.67383">
        <ele>396</ele>
        <time>2018-03-07T11:04:33Z</time>
      </trkpt>
      <trkpt lat="45.90011" lon="4.67389">
        <ele>395</ele>
        <time>2018-03-07T11:04:34Z</time>
      </trkpt>
      <trkpt lat="45.90019" lon="4.67396">
        <ele>394</ele>
        <time>2018-03-07T11:04:35Z</time>
      </trkpt>
      <trkpt lat="45.90027" lon="4.67404">
        <ele>394</ele>
        <time>2018-03-07T11:04:36Z</time>
      </trkpt>
      <trkpt lat="45.90035" lon="4.67412">
        <ele>395</ele>
        <time>2018-03-07T11:04:37Z</time>
      </trkpt>
      <trkpt lat="45.90042" lon="4.67419">
        <ele>385</ele>
        <time>2018-03-07T11:04:38Z</time>
      </trkpt>
      <trkpt lat="45.9005" lon="4.67427">
        <ele>385</ele>
        <time>2018-03-07T11:04:39Z</time>
      </trkpt>
      <trkpt lat="45.90057" lon="4.67436">
        <ele>385</ele>
        <time>2018-03-07T11:04:40Z</time>
      </trkpt>
      <trkpt lat="45.90064" lon="4.67443">
        <ele>385</ele>
        <time>2018-03-07T11:04:41Z</time>
      </trkpt>
      <trkpt lat="45.90072" lon="4.67451">
        <ele>384</ele>
        <time>2018-03-07T11:04:42Z</time>
      </trkpt>
      <trkpt lat="45.90079" lon="4.67459">
        <ele>383</ele>
        <time>2018-03-07T11:04:43Z</time>
      </trkpt>
      <trkpt lat="45.90086" lon="4.67467">
        <ele>387</ele>
        <time>2018-03-07T11:04:44Z</time>
      </trkpt>
      <trkpt lat="45.90093" lon="4.67476">
        <ele>385</ele>
        <time>2018-03-07T11:04:45Z</time>
      </trkpt>
      <trkpt lat="45.90101" lon="4.67484">
        <ele>385</ele>
        <time>2018-03-07T11:04:46Z</time>
      </trkpt>
      <trkpt lat="45.90108" lon="4.67494">
        <ele>385</ele>
        <time>2018-03-07T11:04:47Z</time>
      </trkpt>
      <trkpt lat="45.90114" lon="4.67504">
        <ele>377</ele>
        <time>2018-03-07T11:04:48Z</time>
      </trkpt>
      <trkpt lat="45.9012" lon="4.67513">
        <ele>378</ele>
        <time>2018-03-07T11:04:49Z</time>
      </trkpt>
      <trkpt lat="45.90125" lon="4.67524">
        <ele>378</ele>
        <time>2018-03-07T11:04:50Z</time>
      </trkpt>
      <trkpt lat="45.9013" lon="4.67535">
        <ele>377</ele>
        <time>2018-03-07T11:04:51Z</time>
      </trkpt>
      <trkpt lat="45.90135" lon="4.67546">
        <ele>377</ele>
        <time>2018-03-07T11:04:52Z</time>
      </trkpt>
      <trkpt lat="45.90141" lon="4.67556">
        <ele>377</ele>
        <time>2018-03-07T11:04:53Z</time>
      </trkpt>
      <trkpt lat="45.90147" lon="4.67566">
        <ele>376</ele>
        <time>2018-03-07T11:04:54Z</time>
      </trkpt>
      <trkpt lat="45.90153" lon="4.67576">
        <ele>376</ele>
        <time>2018-03-07T11:04:55Z</time>
      </trkpt>
      <trkpt lat="45.9016" lon="4.67585">
        <ele>374</ele>
        <time>2018-03-07T11:04:56Z</time>
      </trkpt>
      <trkpt lat="45.90167" lon="4.67594">
        <ele>376</ele>
        <time>2018-03-07T11:04:57Z</time>
      </trkpt>
      <trkpt lat="45.90174" lon="4.67603">
        <ele>376</ele>
        <time>2018-03-07T11:04:58Z</time>
      </trkpt>
      <trkpt lat="45.90181" lon="4.67611">
        <ele>376</ele>
        <time>2018-03-07T11:04:59Z</time>
      </trkpt>
      <trkpt lat="45.90188" lon="4.67619">
        <ele>376</ele>
        <time>2018-03-07T11:05:00Z</time>
      </trkpt>
      <trkpt lat="45.90196" lon="4.67628">
        <ele>375</ele>
        <time>2018-03-07T11:05:01Z</time>
      </trkpt>
      <trkpt lat="45.90204" lon="4.67636">
        <ele>375</ele>
        <time>2018-03-07T11:05:02Z</time>
      </trkpt>
      <trkpt lat="45.90211" lon="4.67645">
        <ele>375</ele>
        <time>2018-03-07T11:05:03Z</time>
      </trkpt>
      <trkpt lat="45.90218" lon="4.67653">
        <ele>375</ele>
        <time>2018-03-07T11:05:04Z</time>
      </trkpt>
      <trkpt lat="45.90225" lon="4.67661">
        <ele>375</ele>
        <time>2018-03-07T11:05:05Z</time>
      </trkpt>
      <trkpt lat="45.90233" lon="4.67668">
        <ele>373</ele>
        <time>2018-03-07T11:05:06Z</time>
      </trkpt>
      <trkpt lat="45.90241" lon="4.67674">
        <ele>373</ele>
        <time>2018-03-07T11:05:07Z</time>
      </trkpt>
      <trkpt lat="45.90248" lon="4.67679">
        <ele>373</ele>
        <time>2018-03-07T11:05:08Z</time>
      </trkpt>
      <trkpt lat="45.90256" lon="4.67682">
        <ele>374</ele>
        <time>2018-03-07T11:05:09Z</time>
      </trkpt>
      <trkpt lat="45.90264" lon="4.67686">
        <ele>374</ele>
        <time>2018-03-07T11:05:10Z</time>
      </trkpt>
      <trkpt lat="45.90271" lon="4.67689">
        <ele>374</ele>
        <time>2018-03-07T11:05:11Z</time>
      </trkpt>
      <trkpt lat="45.90279" lon="4.67692">
        <ele>374</ele>
        <time>2018-03-07T11:05:12Z</time>
      </trkpt>
      <trkpt lat="45.90287" lon="4.67695">
        <ele>374</ele>
        <time>2018-03-07T11:05:13Z</time>
      </trkpt>
      <trkpt lat="45.90295" lon="4.67698">
        <ele>374</ele>
        <time>2018-03-07T11:05:14Z</time>
      </trkpt>
      <trkpt lat="45.90303" lon="4.677">
        <ele>374</ele>
        <time>2018-03-07T11:05:15Z</time>
      </trkpt>
      <trkpt lat="45.90312" lon="4.67704">
        <ele>374</ele>
        <time>2018-03-07T11:05:16Z</time>
      </trkpt>
      <trkpt lat="45.9032" lon="4.67707">
        <ele>374</ele>
        <time>2018-03-07T11:05:17Z</time>
      </trkpt>
      <trkpt lat="45.90329" lon="4.67709">
        <ele>373</ele>
        <time>2018-03-07T11:05:18Z</time>
      </trkpt>
      <trkpt lat="45.90338" lon="4.67712">
        <ele>372</ele>
        <time>2018-03-07T11:05:19Z</time>
      </trkpt>
      <trkpt lat="45.90347" lon="4.67716">
        <ele>371</ele>
        <time>2018-03-07T11:05:20Z</time>
      </trkpt>
      <trkpt lat="45.90356" lon="4.67719">
        <ele>371</ele>
        <time>2018-03-07T11:05:21Z</time>
      </trkpt>
      <trkpt lat="45.90365" lon="4.67722">
        <ele>371</ele>
        <time>2018-03-07T11:05:22Z</time>
      </trkpt>
      <trkpt lat="45.90375" lon="4.67726">
        <ele>370</ele>
        <time>2018-03-07T11:05:23Z</time>
      </trkpt>
      <trkpt lat="45.90384" lon="4.6773">
        <ele>370</ele>
        <time>2018-03-07T11:05:24Z</time>
      </trkpt>
      <trkpt lat="45.90393" lon="4.67734">
        <ele>369</ele>
        <time>2018-03-07T11:05:25Z</time>
      </trkpt>
      <trkpt lat="45.90402" lon="4.67737">
        <ele>368</ele>
        <time>2018-03-07T11:05:26Z</time>
      </trkpt>
      <trkpt lat="45.90412" lon="4.6774">
        <ele>367</ele>
        <time>2018-03-07T11:05:27Z</time>
      </trkpt>
      <trkpt lat="45.90422" lon="4.67744">
        <ele>366</ele>
        <time>2018-03-07T11:05:28Z</time>
      </trkpt>
      <trkpt lat="45.90431" lon="4.67748">
        <ele>366</ele>
        <time>2018-03-07T11:05:29Z</time>
      </trkpt>
      <trkpt lat="45.9044" lon="4.67751">
        <ele>364</ele>
        <time>2018-03-07T11:05:30Z</time>
      </trkpt>
      <trkpt lat="45.90449" lon="4.67753">
        <ele>364</ele>
        <time>2018-03-07T11:05:31Z</time>
      </trkpt>
      <trkpt lat="45.90459" lon="4.67758">
        <ele>364</ele>
        <time>2018-03-07T11:05:32Z</time>
      </trkpt>
      <trkpt lat="45.90468" lon="4.67761">
        <ele>364</ele>
        <time>2018-03-07T11:05:33Z</time>
      </trkpt>
      <trkpt lat="45.90477" lon="4.67765">
        <ele>364</ele>
        <time>2018-03-07T11:05:34Z</time>
      </trkpt>
      <trkpt lat="45.90487" lon="4.67769">
        <ele>364</ele>
        <time>2018-03-07T11:05:35Z</time>
      </trkpt>
      <trkpt lat="45.90496" lon="4.67773">
        <ele>364</ele>
        <time>2018-03-07T11:05:36Z</time>
      </trkpt>
      <trkpt lat="45.90505" lon="4.67776">
        <ele>364</ele>
        <time>2018-03-07T11:05:37Z</time>
      </trkpt>
      <trkpt lat="45.90514" lon="4.67779">
        <ele>365</ele>
        <time>2018-03-07T11:05:38Z</time>
      </trkpt>
      <trkpt lat="45.90523" lon="4.67782">
        <ele>365</ele>
        <time>2018-03-07T11:05:39Z</time>
      </trkpt>
      <trkpt lat="45.90531" lon="4.67785">
        <ele>365</ele>
        <time>2018-03-07T11:05:40Z</time>
      </trkpt>
      <trkpt lat="45.90539" lon="4.67789">
        <ele>365</ele>
        <time>2018-03-07T11:05:41Z</time>
      </trkpt>
      <trkpt lat="45.90547" lon="4.67792">
        <ele>365</ele>
        <time>2018-03-07T11:05:42Z</time>
      </trkpt>
      <trkpt lat="45.90555" lon="4.67795">
        <ele>365</ele>
        <time>2018-03-07T11:05:43Z</time>
      </trkpt>
      <trkpt lat="45.90563" lon="4.67796">
        <ele>365</ele>
        <time>2018-03-07T11:05:44Z</time>
      </trkpt>
      <trkpt lat="45.9057" lon="4.67797">
        <ele>365</ele>
        <time>2018-03-07T11:05:45Z</time>
      </trkpt>
      <trkpt lat="45.90577" lon="4.67797">
        <ele>366</ele>
        <time>2018-03-07T11:05:46Z</time>
      </trkpt>
      <trkpt lat="45.90584" lon="4.67798">
        <ele>367</ele>
        <time>2018-03-07T11:05:47Z</time>
      </trkpt>
      <trkpt lat="45.90591" lon="4.67797">
        <ele>367</ele>
        <time>2018-03-07T11:05:48Z</time>
      </trkpt>
      <trkpt lat="45.90598" lon="4.67798">
        <ele>367</ele>
        <time>2018-03-07T11:05:49Z</time>
      </trkpt>
      <trkpt lat="45.90605" lon="4.67799">
        <ele>367</ele>
        <time>2018-03-07T11:05:50Z</time>
      </trkpt>
      <trkpt lat="45.90611" lon="4.678">
        <ele>367</ele>
        <time>2018-03-07T11:05:51Z</time>
      </trkpt>
      <trkpt lat="45.90617" lon="4.678">
        <ele>367</ele>
        <time>2018-03-07T11:05:52Z</time>
      </trkpt>
      <trkpt lat="45.90623" lon="4.678">
        <ele>367</ele>
        <time>2018-03-07T11:05:53Z</time>
      </trkpt>
      <trkpt lat="45.90628" lon="4.678">
        <ele>367</ele>
        <time>2018-03-07T11:05:54Z</time>
      </trkpt>
      <trkpt lat="45.90633" lon="4.678">
        <ele>367</ele>
        <time>2018-03-07T11:05:55Z</time>
      </trkpt>
      <trkpt lat="45.90639" lon="4.678">
        <ele>367</ele>
        <time>2018-03-07T11:05:56Z</time>
      </trkpt>
      <trkpt lat="45.90644" lon="4.678">
        <ele>368</ele>
        <time>2018-03-07T11:05:57Z</time>
      </trkpt>
      <trkpt lat="45.90649" lon="4.678">
        <ele>368</ele>
        <time>2018-03-07T11:05:58Z</time>
      </trkpt>
      <trkpt lat="45.90653" lon="4.67801">
        <ele>368</ele>
        <time>2018-03-07T11:05:59Z</time>
      </trkpt>
      <trkpt lat="45.90658" lon="4.67801">
        <ele>368</ele>
        <time>2018-03-07T11:06:00Z</time>
      </trkpt>
      <trkpt lat="45.90667" lon="4.67802">
        <ele>368</ele>
        <time>2018-03-07T11:06:02Z</time>
      </trkpt>
      <trkpt lat="45.90671" lon="4.67803">
        <ele>368</ele>
        <time>2018-03-07T11:06:03Z</time>
      </trkpt>
      <trkpt lat="45.90676" lon="4.67805">
        <ele>368</ele>
        <time>2018-03-07T11:06:04Z</time>
      </trkpt>
      <trkpt lat="45.9068" lon="4.67807">
        <ele>368</ele>
        <time>2018-03-07T11:06:05Z</time>
      </trkpt>
      <trkpt lat="45.90688" lon="4.67808">
        <ele>368</ele>
        <time>2018-03-07T11:06:07Z</time>
      </trkpt>
      <trkpt lat="45.90693" lon="4.67809">
        <ele>368</ele>
        <time>2018-03-07T11:06:08Z</time>
      </trkpt>
      <trkpt lat="45.90701" lon="4.67811">
        <ele>368</ele>
        <time>2018-03-07T11:06:10Z</time>
      </trkpt>
      <trkpt lat="45.90705" lon="4.67812">
        <ele>368</ele>
        <time>2018-03-07T11:06:11Z</time>
      </trkpt>
      <trkpt lat="45.90713" lon="4.67815">
        <ele>369</ele>
        <time>2018-03-07T11:06:13Z</time>
      </trkpt>
      <trkpt lat="45.90717" lon="4.67817">
        <ele>369</ele>
        <time>2018-03-07T11:06:14Z</time>
      </trkpt>
      <trkpt lat="45.90724" lon="4.6782">
        <ele>369</ele>
        <time>2018-03-07T11:06:16Z</time>
      </trkpt>
      <trkpt lat="45.90728" lon="4.67821">
        <ele>369</ele>
        <time>2018-03-07T11:06:17Z</time>
      </trkpt>
      <trkpt lat="45.90736" lon="4.67824">
        <ele>369</ele>
        <time>2018-03-07T11:06:19Z</time>
      </trkpt>
      <trkpt lat="45.9074" lon="4.67825">
        <ele>370</ele>
        <time>2018-03-07T11:06:20Z</time>
      </trkpt>
      <trkpt lat="45.90748" lon="4.67828">
        <ele>370</ele>
        <time>2018-03-07T11:06:22Z</time>
      </trkpt>
      <trkpt lat="45.90752" lon="4.67829">
        <ele>370</ele>
        <time>2018-03-07T11:06:23Z</time>
      </trkpt>
      <trkpt lat="45.9076" lon="4.67832">
        <ele>370</ele>
        <time>2018-03-07T11:06:25Z</time>
      </trkpt>
      <trkpt lat="45.90764" lon="4.67832">
        <ele>369</ele>
        <time>2018-03-07T11:06:26Z</time>
      </trkpt>
      <trkpt lat="45.90772" lon="4.67835">
        <ele>371</ele>
        <time>2018-03-07T11:06:28Z</time>
      </trkpt>
      <trkpt lat="45.90776" lon="4.67837">
        <ele>371</ele>
        <time>2018-03-07T11:06:29Z</time>
      </trkpt>
      <trkpt lat="45.90784" lon="4.67839">
        <ele>371</ele>
        <time>2018-03-07T11:06:31Z</time>
      </trkpt>
      <trkpt lat="45.90787" lon="4.6784">
        <ele>371</ele>
        <time>2018-03-07T11:06:32Z</time>
      </trkpt>
      <trkpt lat="45.90795" lon="4.67843">
        <ele>371</ele>
        <time>2018-03-07T11:06:34Z</time>
      </trkpt>
      <trkpt lat="45.90799" lon="4.67845">
        <ele>371</ele>
        <time>2018-03-07T11:06:35Z</time>
      </trkpt>
      <trkpt lat="45.90808" lon="4.67849">
        <ele>371</ele>
        <time>2018-03-07T11:06:37Z</time>
      </trkpt>
      <trkpt lat="45.90812" lon="4.67851">
        <ele>371</ele>
        <time>2018-03-07T11:06:38Z</time>
      </trkpt>
      <trkpt lat="45.90816" lon="4.67852">
        <ele>371</ele>
        <time>2018-03-07T11:06:39Z</time>
      </trkpt>
      <trkpt lat="45.90821" lon="4.67854">
        <ele>371</ele>
        <time>2018-03-07T11:06:40Z</time>
      </trkpt>
      <trkpt lat="45.90825" lon="4.67855">
        <ele>371</ele>
        <time>2018-03-07T11:06:41Z</time>
      </trkpt>
      <trkpt lat="45.90829" lon="4.67856">
        <ele>371</ele>
        <time>2018-03-07T11:06:42Z</time>
      </trkpt>
      <trkpt lat="45.90834" lon="4.67857">
        <ele>370</ele>
        <time>2018-03-07T11:06:43Z</time>
      </trkpt>
      <trkpt lat="45.90839" lon="4.67859">
        <ele>370</ele>
        <time>2018-03-07T11:06:44Z</time>
      </trkpt>
      <trkpt lat="45.90844" lon="4.6786">
        <ele>370</ele>
        <time>2018-03-07T11:06:45Z</time>
      </trkpt>
      <trkpt lat="45.90848" lon="4.67862">
        <ele>370</ele>
        <time>2018-03-07T11:06:46Z</time>
      </trkpt>
      <trkpt lat="45.90853" lon="4.67863">
        <ele>370</ele>
        <time>2018-03-07T11:06:47Z</time>
      </trkpt>
      <trkpt lat="45.90858" lon="4.67865">
        <ele>370</ele>
        <time>2018-03-07T11:06:48Z</time>
      </trkpt>
      <trkpt lat="45.90863" lon="4.67866">
        <ele>370</ele>
        <time>2018-03-07T11:06:49Z</time>
      </trkpt>
      <trkpt lat="45.90868" lon="4.67868">
        <ele>370</ele>
        <time>2018-03-07T11:06:50Z</time>
      </trkpt>
      <trkpt lat="45.90872" lon="4.6787">
        <ele>370</ele>
        <time>2018-03-07T11:06:51Z</time>
      </trkpt>
      <trkpt lat="45.90877" lon="4.67871">
        <ele>370</ele>
        <time>2018-03-07T11:06:52Z</time>
      </trkpt>
      <trkpt lat="45.90882" lon="4.67873">
        <ele>370</ele>
        <time>2018-03-07T11:06:53Z</time>
      </trkpt>
      <trkpt lat="45.90887" lon="4.67875">
        <ele>370</ele>
        <time>2018-03-07T11:06:54Z</time>
      </trkpt>
      <trkpt lat="45.90891" lon="4.67877">
        <ele>370</ele>
        <time>2018-03-07T11:06:55Z</time>
      </trkpt>
      <trkpt lat="45.90896" lon="4.6788">
        <ele>370</ele>
        <time>2018-03-07T11:06:56Z</time>
      </trkpt>
      <trkpt lat="45.90901" lon="4.67881">
        <ele>370</ele>
        <time>2018-03-07T11:06:57Z</time>
      </trkpt>
      <trkpt lat="45.90905" lon="4.67883">
        <ele>370</ele>
        <time>2018-03-07T11:06:58Z</time>
      </trkpt>
      <trkpt lat="45.9091" lon="4.67885">
        <ele>370</ele>
        <time>2018-03-07T11:06:59Z</time>
      </trkpt>
      <trkpt lat="45.90914" lon="4.67887">
        <ele>370</ele>
        <time>2018-03-07T11:07:00Z</time>
      </trkpt>
      <trkpt lat="45.90918" lon="4.67889">
        <ele>370</ele>
        <time>2018-03-07T11:07:01Z</time>
      </trkpt>
      <trkpt lat="45.90923" lon="4.67891">
        <ele>370</ele>
        <time>2018-03-07T11:07:02Z</time>
      </trkpt>
      <trkpt lat="45.90931" lon="4.67895">
        <ele>370</ele>
        <time>2018-03-07T11:07:04Z</time>
      </trkpt>
      <trkpt lat="45.90935" lon="4.67897">
        <ele>370</ele>
        <time>2018-03-07T11:07:05Z</time>
      </trkpt>
      <trkpt lat="45.90943" lon="4.67899">
        <ele>370</ele>
        <time>2018-03-07T11:07:07Z</time>
      </trkpt>
      <trkpt lat="45.90947" lon="4.67901">
        <ele>370</ele>
        <time>2018-03-07T11:07:08Z</time>
      </trkpt>
      <trkpt lat="45.90955" lon="4.67904">
        <ele>370</ele>
        <time>2018-03-07T11:07:10Z</time>
      </trkpt>
      <trkpt lat="45.90959" lon="4.67906">
        <ele>370</ele>
        <time>2018-03-07T11:07:11Z</time>
      </trkpt>
      <trkpt lat="45.90967" lon="4.67909">
        <ele>370</ele>
        <time>2018-03-07T11:07:13Z</time>
      </trkpt>
      <trkpt lat="45.90971" lon="4.67911">
        <ele>370</ele>
        <time>2018-03-07T11:07:14Z</time>
      </trkpt>
      <trkpt lat="45.90976" lon="4.67913">
        <ele>370</ele>
        <time>2018-03-07T11:07:16Z</time>
      </trkpt>
      <trkpt lat="45.90982" lon="4.67916">
        <ele>371</ele>
        <time>2018-03-07T11:07:17Z</time>
      </trkpt>
      <trkpt lat="45.90989" lon="4.67919">
        <ele>372</ele>
        <time>2018-03-07T11:07:19Z</time>
      </trkpt>
      <trkpt lat="45.90993" lon="4.67922">
        <ele>372</ele>
        <time>2018-03-07T11:07:20Z</time>
      </trkpt>
      <trkpt lat="45.91" lon="4.67925">
        <ele>373</ele>
        <time>2018-03-07T11:07:22Z</time>
      </trkpt>
      <trkpt lat="45.91004" lon="4.67927">
        <ele>373</ele>
        <time>2018-03-07T11:07:23Z</time>
      </trkpt>
      <trkpt lat="45.91011" lon="4.67931">
        <ele>373</ele>
        <time>2018-03-07T11:07:25Z</time>
      </trkpt>
      <trkpt lat="45.91015" lon="4.67933">
        <ele>373</ele>
        <time>2018-03-07T11:07:26Z</time>
      </trkpt>
      <trkpt lat="45.9102" lon="4.67936">
        <ele>374</ele>
        <time>2018-03-07T11:07:28Z</time>
      </trkpt>
      <trkpt lat="45.91025" lon="4.67939">
        <ele>374</ele>
        <time>2018-03-07T11:07:29Z</time>
      </trkpt>
      <trkpt lat="45.91032" lon="4.67941">
        <ele>374</ele>
        <time>2018-03-07T11:07:32Z</time>
      </trkpt>
      <trkpt lat="45.91034" lon="4.67942">
        <ele>374</ele>
        <time>2018-03-07T11:07:33Z</time>
      </trkpt>
      <trkpt lat="45.9104" lon="4.67945">
        <ele>374</ele>
        <time>2018-03-07T11:07:35Z</time>
      </trkpt>
      <trkpt lat="45.91043" lon="4.67946">
        <ele>374</ele>
        <time>2018-03-07T11:07:36Z</time>
      </trkpt>
      <trkpt lat="45.91049" lon="4.67949">
        <ele>375</ele>
        <time>2018-03-07T11:07:38Z</time>
      </trkpt>
      <trkpt lat="45.91052" lon="4.6795">
        <ele>375</ele>
        <time>2018-03-07T11:07:39Z</time>
      </trkpt>
      <trkpt lat="45.91059" lon="4.67952">
        <ele>375</ele>
        <time>2018-03-07T11:07:41Z</time>
      </trkpt>
      <trkpt lat="45.91062" lon="4.67953">
        <ele>375</ele>
        <time>2018-03-07T11:07:42Z</time>
      </trkpt>
      <trkpt lat="45.91068" lon="4.67954">
        <ele>375</ele>
        <time>2018-03-07T11:07:44Z</time>
      </trkpt>
      <trkpt lat="45.91071" lon="4.67954">
        <ele>375</ele>
        <time>2018-03-07T11:07:45Z</time>
      </trkpt>
      <trkpt lat="45.91078" lon="4.67955">
        <ele>375</ele>
        <time>2018-03-07T11:07:47Z</time>
      </trkpt>
      <trkpt lat="45.91081" lon="4.67956">
        <ele>375</ele>
        <time>2018-03-07T11:07:48Z</time>
      </trkpt>
      <trkpt lat="45.91087" lon="4.67958">
        <ele>376</ele>
        <time>2018-03-07T11:07:50Z</time>
      </trkpt>
      <trkpt lat="45.9109" lon="4.67959">
        <ele>377</ele>
        <time>2018-03-07T11:07:51Z</time>
      </trkpt>
      <trkpt lat="45.91096" lon="4.67961">
        <ele>377</ele>
        <time>2018-03-07T11:07:53Z</time>
      </trkpt>
      <trkpt lat="45.91099" lon="4.67962">
        <ele>377</ele>
        <time>2018-03-07T11:07:54Z</time>
      </trkpt>
      <trkpt lat="45.91105" lon="4.67964">
        <ele>377</ele>
        <time>2018-03-07T11:07:56Z</time>
      </trkpt>
      <trkpt lat="45.91108" lon="4.67965">
        <ele>377</ele>
        <time>2018-03-07T11:07:57Z</time>
      </trkpt>
      <trkpt lat="45.91117" lon="4.67968">
        <ele>377</ele>
        <time>2018-03-07T11:08:00Z</time>
      </trkpt>
      <trkpt lat="45.91119" lon="4.67969">
        <ele>377</ele>
        <time>2018-03-07T11:08:01Z</time>
      </trkpt>
      <trkpt lat="45.91128" lon="4.67971">
        <ele>377</ele>
        <time>2018-03-07T11:08:04Z</time>
      </trkpt>
      <trkpt lat="45.9113" lon="4.67973">
        <ele>377</ele>
        <time>2018-03-07T11:08:05Z</time>
      </trkpt>
      <trkpt lat="45.91139" lon="4.67977">
        <ele>378</ele>
        <time>2018-03-07T11:08:08Z</time>
      </trkpt>
      <trkpt lat="45.91141" lon="4.67978">
        <ele>378</ele>
        <time>2018-03-07T11:08:09Z</time>
      </trkpt>
      <trkpt lat="45.9115" lon="4.67982">
        <ele>378</ele>
        <time>2018-03-07T11:08:12Z</time>
      </trkpt>
      <trkpt lat="45.91152" lon="4.67983">
        <ele>378</ele>
        <time>2018-03-07T11:08:13Z</time>
      </trkpt>
      <trkpt lat="45.91161" lon="4.67987">
        <ele>379</ele>
        <time>2018-03-07T11:08:16Z</time>
      </trkpt>
      <trkpt lat="45.91164" lon="4.67989">
        <ele>379</ele>
        <time>2018-03-07T11:08:17Z</time>
      </trkpt>
      <trkpt lat="45.91169" lon="4.67992">
        <ele>380</ele>
        <time>2018-03-07T11:08:19Z</time>
      </trkpt>
      <trkpt lat="45.91172" lon="4.67994">
        <ele>380</ele>
        <time>2018-03-07T11:08:20Z</time>
      </trkpt>
      <trkpt lat="45.9118" lon="4.67999">
        <ele>380</ele>
        <time>2018-03-07T11:08:23Z</time>
      </trkpt>
      <trkpt lat="45.91182" lon="4.68001">
        <ele>382</ele>
        <time>2018-03-07T11:08:24Z</time>
      </trkpt>
      <trkpt lat="45.91191" lon="4.68005">
        <ele>382</ele>
        <time>2018-03-07T11:08:27Z</time>
      </trkpt>
      <trkpt lat="45.91193" lon="4.68007">
        <ele>383</ele>
        <time>2018-03-07T11:08:28Z</time>
      </trkpt>
      <trkpt lat="45.91202" lon="4.6801">
        <ele>383</ele>
        <time>2018-03-07T11:08:31Z</time>
      </trkpt>
      <trkpt lat="45.91205" lon="4.68012">
        <ele>383</ele>
        <time>2018-03-07T11:08:32Z</time>
      </trkpt>
      <trkpt lat="45.9121" lon="4.68015">
        <ele>383</ele>
        <time>2018-03-07T11:08:34Z</time>
      </trkpt>
      <trkpt lat="45.91213" lon="4.68016">
        <ele>383</ele>
        <time>2018-03-07T11:08:35Z</time>
      </trkpt>
      <trkpt lat="45.91219" lon="4.68018">
        <ele>384</ele>
        <time>2018-03-07T11:08:37Z</time>
      </trkpt>
      <trkpt lat="45.91222" lon="4.68019">
        <ele>384</ele>
        <time>2018-03-07T11:08:38Z</time>
      </trkpt>
      <trkpt lat="45.91229" lon="4.68022">
        <ele>384</ele>
        <time>2018-03-07T11:08:40Z</time>
      </trkpt>
      <trkpt lat="45.91232" lon="4.68023">
        <ele>384</ele>
        <time>2018-03-07T11:08:41Z</time>
      </trkpt>
      <trkpt lat="45.9124" lon="4.68027">
        <ele>384</ele>
        <time>2018-03-07T11:08:44Z</time>
      </trkpt>
      <trkpt lat="45.91243" lon="4.68029">
        <ele>384</ele>
        <time>2018-03-07T11:08:45Z</time>
      </trkpt>
      <trkpt lat="45.91249" lon="4.68032">
        <ele>384</ele>
        <time>2018-03-07T11:08:47Z</time>
      </trkpt>
      <trkpt lat="45.91252" lon="4.68034">
        <ele>385</ele>
        <time>2018-03-07T11:08:48Z</time>
      </trkpt>
      <trkpt lat="45.91259" lon="4.68037">
        <ele>385</ele>
        <time>2018-03-07T11:08:50Z</time>
      </trkpt>
      <trkpt lat="45.91262" lon="4.68038">
        <ele>385</ele>
        <time>2018-03-07T11:08:51Z</time>
      </trkpt>
      <trkpt lat="45.91268" lon="4.68042">
        <ele>385</ele>
        <time>2018-03-07T11:08:53Z</time>
      </trkpt>
      <trkpt lat="45.91271" lon="4.68043">
        <ele>385</ele>
        <time>2018-03-07T11:08:54Z</time>
      </trkpt>
      <trkpt lat="45.91278" lon="4.68047">
        <ele>385</ele>
        <time>2018-03-07T11:08:56Z</time>
      </trkpt>
      <trkpt lat="45.91281" lon="4.68048">
        <ele>385</ele>
        <time>2018-03-07T11:08:57Z</time>
      </trkpt>
      <trkpt lat="45.9129" lon="4.68054">
        <ele>385</ele>
        <time>2018-03-07T11:08:58Z</time>
      </trkpt>
      <trkpt lat="45.91297" lon="4.68057">
        <ele>385</ele>
        <time>2018-03-07T11:09:00Z</time>
      </trkpt>
      <trkpt lat="45.91301" lon="4.68058">
        <ele>385</ele>
        <time>2018-03-07T11:09:01Z</time>
      </trkpt>
      <trkpt lat="45.91308" lon="4.68061">
        <ele>385</ele>
        <time>2018-03-07T11:09:04Z</time>
      </trkpt>
      <trkpt lat="45.9131" lon="4.68063">
        <ele>385</ele>
        <time>2018-03-07T11:09:05Z</time>
      </trkpt>
      <trkpt lat="45.91312" lon="4.68064">
        <ele>385</ele>
        <time>2018-03-07T11:09:06Z</time>
      </trkpt>
      <trkpt lat="45.9132" lon="4.68067">
        <ele>385</ele>
        <time>2018-03-07T11:09:07Z</time>
      </trkpt>
      <trkpt lat="45.91327" lon="4.6807">
        <ele>385</ele>
        <time>2018-03-07T11:09:09Z</time>
      </trkpt>
      <trkpt lat="45.91331" lon="4.68071">
        <ele>385</ele>
        <time>2018-03-07T11:09:10Z</time>
      </trkpt>
      <trkpt lat="45.91338" lon="4.68074">
        <ele>385</ele>
        <time>2018-03-07T11:09:12Z</time>
      </trkpt>
      <trkpt lat="45.91342" lon="4.68076">
        <ele>385</ele>
        <time>2018-03-07T11:09:13Z</time>
      </trkpt>
      <trkpt lat="45.91349" lon="4.68079">
        <ele>385</ele>
        <time>2018-03-07T11:09:15Z</time>
      </trkpt>
      <trkpt lat="45.91353" lon="4.68079">
        <ele>385</ele>
        <time>2018-03-07T11:09:16Z</time>
      </trkpt>
      <trkpt lat="45.91361" lon="4.68081">
        <ele>385</ele>
        <time>2018-03-07T11:09:18Z</time>
      </trkpt>
      <trkpt lat="45.91365" lon="4.68083">
        <ele>385</ele>
        <time>2018-03-07T11:09:19Z</time>
      </trkpt>
      <trkpt lat="45.91369" lon="4.68084">
        <ele>386</ele>
        <time>2018-03-07T11:09:20Z</time>
      </trkpt>
      <trkpt lat="45.91374" lon="4.68086">
        <ele>386</ele>
        <time>2018-03-07T11:09:21Z</time>
      </trkpt>
      <trkpt lat="45.91378" lon="4.68086">
        <ele>386</ele>
        <time>2018-03-07T11:09:22Z</time>
      </trkpt>
      <trkpt lat="45.91383" lon="4.68086">
        <ele>386</ele>
        <time>2018-03-07T11:09:23Z</time>
      </trkpt>
      <trkpt lat="45.9139" lon="4.68086">
        <ele>386</ele>
        <time>2018-03-07T11:09:25Z</time>
      </trkpt>
      <trkpt lat="45.91394" lon="4.68086">
        <ele>386</ele>
        <time>2018-03-07T11:09:26Z</time>
      </trkpt>
      <trkpt lat="45.91402" lon="4.68086">
        <ele>386</ele>
        <time>2018-03-07T11:09:28Z</time>
      </trkpt>
      <trkpt lat="45.91407" lon="4.68085">
        <ele>386</ele>
        <time>2018-03-07T11:09:29Z</time>
      </trkpt>
      <trkpt lat="45.91416" lon="4.68084">
        <ele>386</ele>
        <time>2018-03-07T11:09:31Z</time>
      </trkpt>
      <trkpt lat="45.9142" lon="4.68083">
        <ele>386</ele>
        <time>2018-03-07T11:09:32Z</time>
      </trkpt>
      <trkpt lat="45.91428" lon="4.68084">
        <ele>385</ele>
        <time>2018-03-07T11:09:34Z</time>
      </trkpt>
      <trkpt lat="45.91433" lon="4.68085">
        <ele>385</ele>
        <time>2018-03-07T11:09:35Z</time>
      </trkpt>
      <trkpt lat="45.91438" lon="4.68086">
        <ele>385</ele>
        <time>2018-03-07T11:09:36Z</time>
      </trkpt>
      <trkpt lat="45.91443" lon="4.68087">
        <ele>385</ele>
        <time>2018-03-07T11:09:37Z</time>
      </trkpt>
      <trkpt lat="45.91448" lon="4.68089">
        <ele>384</ele>
        <time>2018-03-07T11:09:38Z</time>
      </trkpt>
      <trkpt lat="45.91453" lon="4.68091">
        <ele>384</ele>
        <time>2018-03-07T11:09:39Z</time>
      </trkpt>
      <trkpt lat="45.91459" lon="4.68093">
        <ele>384</ele>
        <time>2018-03-07T11:09:40Z</time>
      </trkpt>
      <trkpt lat="45.91465" lon="4.68095">
        <ele>384</ele>
        <time>2018-03-07T11:09:41Z</time>
      </trkpt>
      <trkpt lat="45.9147" lon="4.681">
        <ele>384</ele>
        <time>2018-03-07T11:09:42Z</time>
      </trkpt>
      <trkpt lat="45.91476" lon="4.68103">
        <ele>383</ele>
        <time>2018-03-07T11:09:43Z</time>
      </trkpt>
      <trkpt lat="45.91482" lon="4.68106">
        <ele>383</ele>
        <time>2018-03-07T11:09:44Z</time>
      </trkpt>
      <trkpt lat="45.91487" lon="4.6811">
        <ele>383</ele>
        <time>2018-03-07T11:09:45Z</time>
      </trkpt>
      <trkpt lat="45.91493" lon="4.68114">
        <ele>383</ele>
        <time>2018-03-07T11:09:46Z</time>
      </trkpt>
      <trkpt lat="45.91499" lon="4.68118">
        <ele>383</ele>
        <time>2018-03-07T11:09:47Z</time>
      </trkpt>
      <trkpt lat="45.91505" lon="4.68123">
        <ele>380</ele>
        <time>2018-03-07T11:09:48Z</time>
      </trkpt>
      <trkpt lat="45.91512" lon="4.68127">
        <ele>380</ele>
        <time>2018-03-07T11:09:49Z</time>
      </trkpt>
      <trkpt lat="45.91519" lon="4.6813">
        <ele>380</ele>
        <time>2018-03-07T11:09:50Z</time>
      </trkpt>
      <trkpt lat="45.91526" lon="4.68133">
        <ele>379</ele>
        <time>2018-03-07T11:09:51Z</time>
      </trkpt>
      <trkpt lat="45.91533" lon="4.68137">
        <ele>379</ele>
        <time>2018-03-07T11:09:52Z</time>
      </trkpt>
      <trkpt lat="45.9154" lon="4.68141">
        <ele>379</ele>
        <time>2018-03-07T11:09:53Z</time>
      </trkpt>
      <trkpt lat="45.91548" lon="4.68144">
        <ele>379</ele>
        <time>2018-03-07T11:09:54Z</time>
      </trkpt>
      <trkpt lat="45.91555" lon="4.68148">
        <ele>379</ele>
        <time>2018-03-07T11:09:55Z</time>
      </trkpt>
      <trkpt lat="45.91564" lon="4.68153">
        <ele>378</ele>
        <time>2018-03-07T11:09:56Z</time>
      </trkpt>
      <trkpt lat="45.91572" lon="4.68157">
        <ele>378</ele>
        <time>2018-03-07T11:09:57Z</time>
      </trkpt>
      <trkpt lat="45.9158" lon="4.68162">
        <ele>378</ele>
        <time>2018-03-07T11:09:58Z</time>
      </trkpt>
      <trkpt lat="45.91588" lon="4.68167">
        <ele>377</ele>
        <time>2018-03-07T11:09:59Z</time>
      </trkpt>
      <trkpt lat="45.91596" lon="4.68173">
        <ele>377</ele>
        <time>2018-03-07T11:10:00Z</time>
      </trkpt>
      <trkpt lat="45.91604" lon="4.68178">
        <ele>376</ele>
        <time>2018-03-07T11:10:01Z</time>
      </trkpt>
      <trkpt lat="45.91612" lon="4.68185">
        <ele>375</ele>
        <time>2018-03-07T11:10:02Z</time>
      </trkpt>
      <trkpt lat="45.9162" lon="4.68192">
        <ele>375</ele>
        <time>2018-03-07T11:10:03Z</time>
      </trkpt>
      <trkpt lat="45.91629" lon="4.68199">
        <ele>375</ele>
        <time>2018-03-07T11:10:04Z</time>
      </trkpt>
      <trkpt lat="45.91638" lon="4.68204">
        <ele>374</ele>
        <time>2018-03-07T11:10:05Z</time>
      </trkpt>
      <trkpt lat="45.91646" lon="4.68211">
        <ele>374</ele>
        <time>2018-03-07T11:10:06Z</time>
      </trkpt>
      <trkpt lat="45.91655" lon="4.68217">
        <ele>374</ele>
        <time>2018-03-07T11:10:07Z</time>
      </trkpt>
      <trkpt lat="45.91664" lon="4.68222">
        <ele>374</ele>
        <time>2018-03-07T11:10:08Z</time>
      </trkpt>
      <trkpt lat="45.91672" lon="4.68228">
        <ele>371</ele>
        <time>2018-03-07T11:10:09Z</time>
      </trkpt>
      <trkpt lat="45.91682" lon="4.68233">
        <ele>371</ele>
        <time>2018-03-07T11:10:10Z</time>
      </trkpt>
      <trkpt lat="45.9169" lon="4.68238">
        <ele>371</ele>
        <time>2018-03-07T11:10:11Z</time>
      </trkpt>
      <trkpt lat="45.91697" lon="4.68244">
        <ele>371</ele>
        <time>2018-03-07T11:10:12Z</time>
      </trkpt>
      <trkpt lat="45.91705" lon="4.68248">
        <ele>370</ele>
        <time>2018-03-07T11:10:13Z</time>
      </trkpt>
      <trkpt lat="45.91713" lon="4.68252">
        <ele>373</ele>
        <time>2018-03-07T11:10:14Z</time>
      </trkpt>
      <trkpt lat="45.91721" lon="4.68254">
        <ele>372</ele>
        <time>2018-03-07T11:10:15Z</time>
      </trkpt>
      <trkpt lat="45.91729" lon="4.68257">
        <ele>372</ele>
        <time>2018-03-07T11:10:16Z</time>
      </trkpt>
      <trkpt lat="45.91736" lon="4.68259">
        <ele>372</ele>
        <time>2018-03-07T11:10:17Z</time>
      </trkpt>
      <trkpt lat="45.91744" lon="4.6826">
        <ele>371</ele>
        <time>2018-03-07T11:10:18Z</time>
      </trkpt>
      <trkpt lat="45.91751" lon="4.68262">
        <ele>371</ele>
        <time>2018-03-07T11:10:19Z</time>
      </trkpt>
      <trkpt lat="45.91757" lon="4.68263">
        <ele>371</ele>
        <time>2018-03-07T11:10:20Z</time>
      </trkpt>
      <trkpt lat="45.91764" lon="4.68265">
        <ele>372</ele>
        <time>2018-03-07T11:10:21Z</time>
      </trkpt>
      <trkpt lat="45.91769" lon="4.68267">
        <ele>372</ele>
        <time>2018-03-07T11:10:22Z</time>
      </trkpt>
      <trkpt lat="45.91775" lon="4.68268">
        <ele>372</ele>
        <time>2018-03-07T11:10:23Z</time>
      </trkpt>
      <trkpt lat="45.9178" lon="4.6827">
        <ele>372</ele>
        <time>2018-03-07T11:10:24Z</time>
      </trkpt>
      <trkpt lat="45.91785" lon="4.6827">
        <ele>372</ele>
        <time>2018-03-07T11:10:25Z</time>
      </trkpt>
      <trkpt lat="45.9179" lon="4.68271">
        <ele>372</ele>
        <time>2018-03-07T11:10:26Z</time>
      </trkpt>
      <trkpt lat="45.91794" lon="4.68272">
        <ele>372</ele>
        <time>2018-03-07T11:10:27Z</time>
      </trkpt>
      <trkpt lat="45.91799" lon="4.68273">
        <ele>372</ele>
        <time>2018-03-07T11:10:28Z</time>
      </trkpt>
      <trkpt lat="45.91803" lon="4.68275">
        <ele>372</ele>
        <time>2018-03-07T11:10:29Z</time>
      </trkpt>
      <trkpt lat="45.91811" lon="4.68278">
        <ele>372</ele>
        <time>2018-03-07T11:10:31Z</time>
      </trkpt>
      <trkpt lat="45.91815" lon="4.68278">
        <ele>372</ele>
        <time>2018-03-07T11:10:32Z</time>
      </trkpt>
      <trkpt lat="45.91823" lon="4.68276">
        <ele>372</ele>
        <time>2018-03-07T11:10:34Z</time>
      </trkpt>
      <trkpt lat="45.91827" lon="4.68276">
        <ele>372</ele>
        <time>2018-03-07T11:10:35Z</time>
      </trkpt>
      <trkpt lat="45.91835" lon="4.68279">
        <ele>374</ele>
        <time>2018-03-07T11:10:37Z</time>
      </trkpt>
      <trkpt lat="45.9184" lon="4.68279">
        <ele>374</ele>
        <time>2018-03-07T11:10:38Z</time>
      </trkpt>
      <trkpt lat="45.91848" lon="4.68282">
        <ele>374</ele>
        <time>2018-03-07T11:10:40Z</time>
      </trkpt>
      <trkpt lat="45.91852" lon="4.68285">
        <ele>375</ele>
        <time>2018-03-07T11:10:41Z</time>
      </trkpt>
      <trkpt lat="45.9186" lon="4.68286">
        <ele>375</ele>
        <time>2018-03-07T11:10:43Z</time>
      </trkpt>
      <trkpt lat="45.91864" lon="4.68287">
        <ele>375</ele>
        <time>2018-03-07T11:10:44Z</time>
      </trkpt>
      <trkpt lat="45.91871" lon="4.68288">
        <ele>375</ele>
        <time>2018-03-07T11:10:46Z</time>
      </trkpt>
      <trkpt lat="45.91875" lon="4.68288">
        <ele>376</ele>
        <time>2018-03-07T11:10:47Z</time>
      </trkpt>
      <trkpt lat="45.91882" lon="4.68289">
        <ele>376</ele>
        <time>2018-03-07T11:10:50Z</time>
      </trkpt>
      <trkpt lat="45.91885" lon="4.68289">
        <ele>376</ele>
        <time>2018-03-07T11:10:51Z</time>
      </trkpt>
      <trkpt lat="45.91891" lon="4.6829">
        <ele>376</ele>
        <time>2018-03-07T11:10:53Z</time>
      </trkpt>
      <trkpt lat="45.91894" lon="4.68291">
        <ele>376</ele>
        <time>2018-03-07T11:10:54Z</time>
      </trkpt>
      <trkpt lat="45.91901" lon="4.68291">
        <ele>376</ele>
        <time>2018-03-07T11:10:56Z</time>
      </trkpt>
      <trkpt lat="45.91904" lon="4.68291">
        <ele>376</ele>
        <time>2018-03-07T11:10:57Z</time>
      </trkpt>
      <trkpt lat="45.91913" lon="4.68292">
        <ele>377</ele>
        <time>2018-03-07T11:11:00Z</time>
      </trkpt>
      <trkpt lat="45.91917" lon="4.68293">
        <ele>379</ele>
        <time>2018-03-07T11:11:01Z</time>
      </trkpt>
      <trkpt lat="45.91923" lon="4.68295">
        <ele>379</ele>
        <time>2018-03-07T11:11:03Z</time>
      </trkpt>
      <trkpt lat="45.91926" lon="4.68296">
        <ele>379</ele>
        <time>2018-03-07T11:11:04Z</time>
      </trkpt>
      <trkpt lat="45.91933" lon="4.68298">
        <ele>379</ele>
        <time>2018-03-07T11:11:06Z</time>
      </trkpt>
      <trkpt lat="45.91936" lon="4.68298">
        <ele>379</ele>
        <time>2018-03-07T11:11:07Z</time>
      </trkpt>
      <trkpt lat="45.91944" lon="4.68301">
        <ele>379</ele>
        <time>2018-03-07T11:11:10Z</time>
      </trkpt>
      <trkpt lat="45.91947" lon="4.68301">
        <ele>379</ele>
        <time>2018-03-07T11:11:11Z</time>
      </trkpt>
      <trkpt lat="45.91953" lon="4.68303">
        <ele>379</ele>
        <time>2018-03-07T11:11:13Z</time>
      </trkpt>
      <trkpt lat="45.91957" lon="4.68303">
        <ele>379</ele>
        <time>2018-03-07T11:11:14Z</time>
      </trkpt>
      <trkpt lat="45.91963" lon="4.68305">
        <ele>380</ele>
        <time>2018-03-07T11:11:16Z</time>
      </trkpt>
      <trkpt lat="45.91966" lon="4.68306">
        <ele>380</ele>
        <time>2018-03-07T11:11:17Z</time>
      </trkpt>
      <trkpt lat="45.91972" lon="4.68308">
        <ele>380</ele>
        <time>2018-03-07T11:11:19Z</time>
      </trkpt>
      <trkpt lat="45.91975" lon="4.68308">
        <ele>380</ele>
        <time>2018-03-07T11:11:20Z</time>
      </trkpt>
      <trkpt lat="45.91983" lon="4.6831">
        <ele>380</ele>
        <time>2018-03-07T11:11:23Z</time>
      </trkpt>
      <trkpt lat="45.91986" lon="4.68311">
        <ele>380</ele>
        <time>2018-03-07T11:11:24Z</time>
      </trkpt>
      <trkpt lat="45.91995" lon="4.68314">
        <ele>381</ele>
        <time>2018-03-07T11:11:27Z</time>
      </trkpt>
      <trkpt lat="45.91998" lon="4.68315">
        <ele>381</ele>
        <time>2018-03-07T11:11:28Z</time>
      </trkpt>
      <trkpt lat="45.92005" lon="4.68317">
        <ele>381</ele>
        <time>2018-03-07T11:11:30Z</time>
      </trkpt>
      <trkpt lat="45.92008" lon="4.68318">
        <ele>381</ele>
        <time>2018-03-07T11:11:31Z</time>
      </trkpt>
      <trkpt lat="45.92015" lon="4.68318">
        <ele>380</ele>
        <time>2018-03-07T11:11:33Z</time>
      </trkpt>
      <trkpt lat="45.92025" lon="4.68319">
        <ele>380</ele>
        <time>2018-03-07T11:11:34Z</time>
      </trkpt>
      <trkpt lat="45.92032" lon="4.6832">
        <ele>380</ele>
        <time>2018-03-07T11:11:36Z</time>
      </trkpt>
      <trkpt lat="45.92037" lon="4.68318">
        <ele>380</ele>
        <time>2018-03-07T11:11:37Z</time>
      </trkpt>
      <trkpt lat="45.92045" lon="4.68321">
        <ele>380</ele>
        <time>2018-03-07T11:11:39Z</time>
      </trkpt>
      <trkpt lat="45.92049" lon="4.68322">
        <ele>380</ele>
        <time>2018-03-07T11:11:40Z</time>
      </trkpt>
      <trkpt lat="45.92058" lon="4.68324">
        <ele>380</ele>
        <time>2018-03-07T11:11:42Z</time>
      </trkpt>
      <trkpt lat="45.92063" lon="4.68325">
        <ele>380</ele>
        <time>2018-03-07T11:11:43Z</time>
      </trkpt>
      <trkpt lat="45.92067" lon="4.68326">
        <ele>380</ele>
        <time>2018-03-07T11:11:44Z</time>
      </trkpt>
      <trkpt lat="45.92071" lon="4.68327">
        <ele>380</ele>
        <time>2018-03-07T11:11:45Z</time>
      </trkpt>
      <trkpt lat="45.9208" lon="4.6833">
        <ele>381</ele>
        <time>2018-03-07T11:11:47Z</time>
      </trkpt>
      <trkpt lat="45.92085" lon="4.68332">
        <ele>382</ele>
        <time>2018-03-07T11:11:48Z</time>
      </trkpt>
      <trkpt lat="45.92092" lon="4.68335">
        <ele>382</ele>
        <time>2018-03-07T11:11:50Z</time>
      </trkpt>
      <trkpt lat="45.92097" lon="4.68337">
        <ele>383</ele>
        <time>2018-03-07T11:11:51Z</time>
      </trkpt>
      <trkpt lat="45.92105" lon="4.68342">
        <ele>383</ele>
        <time>2018-03-07T11:11:53Z</time>
      </trkpt>
      <trkpt lat="45.92109" lon="4.68345">
        <ele>383</ele>
        <time>2018-03-07T11:11:54Z</time>
      </trkpt>
      <trkpt lat="45.92117" lon="4.68349">
        <ele>383</ele>
        <time>2018-03-07T11:11:56Z</time>
      </trkpt>
      <trkpt lat="45.9212" lon="4.68352">
        <ele>383</ele>
        <time>2018-03-07T11:11:57Z</time>
      </trkpt>
      <trkpt lat="45.92128" lon="4.68358">
        <ele>383</ele>
        <time>2018-03-07T11:11:59Z</time>
      </trkpt>
      <trkpt lat="45.92132" lon="4.68361">
        <ele>383</ele>
        <time>2018-03-07T11:12:00Z</time>
      </trkpt>
      <trkpt lat="45.92139" lon="4.68368">
        <ele>383</ele>
        <time>2018-03-07T11:12:02Z</time>
      </trkpt>
      <trkpt lat="45.92143" lon="4.68371">
        <ele>383</ele>
        <time>2018-03-07T11:12:03Z</time>
      </trkpt>
      <trkpt lat="45.92149" lon="4.68378">
        <ele>384</ele>
        <time>2018-03-07T11:12:05Z</time>
      </trkpt>
      <trkpt lat="45.92153" lon="4.68382">
        <ele>384</ele>
        <time>2018-03-07T11:12:06Z</time>
      </trkpt>
      <trkpt lat="45.92159" lon="4.68388">
        <ele>384</ele>
        <time>2018-03-07T11:12:08Z</time>
      </trkpt>
      <trkpt lat="45.92162" lon="4.68392">
        <ele>384</ele>
        <time>2018-03-07T11:12:09Z</time>
      </trkpt>
      <trkpt lat="45.92169" lon="4.684">
        <ele>384</ele>
        <time>2018-03-07T11:12:11Z</time>
      </trkpt>
      <trkpt lat="45.92172" lon="4.68404">
        <ele>384</ele>
        <time>2018-03-07T11:12:12Z</time>
      </trkpt>
      <trkpt lat="45.92178" lon="4.68413">
        <ele>384</ele>
        <time>2018-03-07T11:12:14Z</time>
      </trkpt>
      <trkpt lat="45.92181" lon="4.68417">
        <ele>386</ele>
        <time>2018-03-07T11:12:15Z</time>
      </trkpt>
      <trkpt lat="45.92187" lon="4.68424">
        <ele>386</ele>
        <time>2018-03-07T11:12:17Z</time>
      </trkpt>
      <trkpt lat="45.92192" lon="4.68427">
        <ele>386</ele>
        <time>2018-03-07T11:12:18Z</time>
      </trkpt>
      <trkpt lat="45.92196" lon="4.68429">
        <ele>386</ele>
        <time>2018-03-07T11:12:19Z</time>
      </trkpt>
      <trkpt lat="45.922" lon="4.68431">
        <ele>386</ele>
        <time>2018-03-07T11:12:20Z</time>
      </trkpt>
      <trkpt lat="45.92209" lon="4.68434">
        <ele>386</ele>
        <time>2018-03-07T11:12:22Z</time>
      </trkpt>
      <trkpt lat="45.92212" lon="4.68436">
        <ele>386</ele>
        <time>2018-03-07T11:12:23Z</time>
      </trkpt>
      <trkpt lat="45.9222" lon="4.68443">
        <ele>386</ele>
        <time>2018-03-07T11:12:25Z</time>
      </trkpt>
      <trkpt lat="45.92223" lon="4.68448">
        <ele>386</ele>
        <time>2018-03-07T11:12:26Z</time>
      </trkpt>
      <trkpt lat="45.92228" lon="4.68452">
        <ele>386</ele>
        <time>2018-03-07T11:12:27Z</time>
      </trkpt>
      <trkpt lat="45.92232" lon="4.68456">
        <ele>386</ele>
        <time>2018-03-07T11:12:28Z</time>
      </trkpt>
      <trkpt lat="45.92236" lon="4.68459">
        <ele>386</ele>
        <time>2018-03-07T11:12:29Z</time>
      </trkpt>
      <trkpt lat="45.9224" lon="4.68463">
        <ele>386</ele>
        <time>2018-03-07T11:12:30Z</time>
      </trkpt>
      <trkpt lat="45.92244" lon="4.68467">
        <ele>386</ele>
        <time>2018-03-07T11:12:31Z</time>
      </trkpt>
      <trkpt lat="45.92248" lon="4.6847">
        <ele>386</ele>
        <time>2018-03-07T11:12:32Z</time>
      </trkpt>
      <trkpt lat="45.92255" lon="4.68477">
        <ele>384</ele>
        <time>2018-03-07T11:12:34Z</time>
      </trkpt>
      <trkpt lat="45.92259" lon="4.6848">
        <ele>384</ele>
        <time>2018-03-07T11:12:35Z</time>
      </trkpt>
      <trkpt lat="45.92263" lon="4.68484">
        <ele>384</ele>
        <time>2018-03-07T11:12:36Z</time>
      </trkpt>
      <trkpt lat="45.92267" lon="4.68487">
        <ele>384</ele>
        <time>2018-03-07T11:12:37Z</time>
      </trkpt>
      <trkpt lat="45.92271" lon="4.68493">
        <ele>384</ele>
        <time>2018-03-07T11:12:38Z</time>
      </trkpt>
      <trkpt lat="45.92274" lon="4.68496">
        <ele>384</ele>
        <time>2018-03-07T11:12:39Z</time>
      </trkpt>
      <trkpt lat="45.92278" lon="4.685">
        <ele>387</ele>
        <time>2018-03-07T11:12:40Z</time>
      </trkpt>
      <trkpt lat="45.92281" lon="4.68504">
        <ele>387</ele>
        <time>2018-03-07T11:12:41Z</time>
      </trkpt>
      <trkpt lat="45.92285" lon="4.68508">
        <ele>387</ele>
        <time>2018-03-07T11:12:42Z</time>
      </trkpt>
      <trkpt lat="45.92289" lon="4.68513">
        <ele>387</ele>
        <time>2018-03-07T11:12:43Z</time>
      </trkpt>
      <trkpt lat="45.92293" lon="4.68517">
        <ele>387</ele>
        <time>2018-03-07T11:12:44Z</time>
      </trkpt>
      <trkpt lat="45.92298" lon="4.68519">
        <ele>387</ele>
        <time>2018-03-07T11:12:45Z</time>
      </trkpt>
      <trkpt lat="45.92302" lon="4.68523">
        <ele>387</ele>
        <time>2018-03-07T11:12:46Z</time>
      </trkpt>
      <trkpt lat="45.92305" lon="4.68527">
        <ele>387</ele>
        <time>2018-03-07T11:12:47Z</time>
      </trkpt>
      <trkpt lat="45.92312" lon="4.68533">
        <ele>387</ele>
        <time>2018-03-07T11:12:49Z</time>
      </trkpt>
      <trkpt lat="45.92316" lon="4.68537">
        <ele>388</ele>
        <time>2018-03-07T11:12:50Z</time>
      </trkpt>
      <trkpt lat="45.92321" lon="4.6854">
        <ele>388</ele>
        <time>2018-03-07T11:12:51Z</time>
      </trkpt>
      <trkpt lat="45.92326" lon="4.68546">
        <ele>388</ele>
        <time>2018-03-07T11:12:52Z</time>
      </trkpt>
      <trkpt lat="45.92332" lon="4.68552">
        <ele>389</ele>
        <time>2018-03-07T11:12:54Z</time>
      </trkpt>
      <trkpt lat="45.92335" lon="4.68555">
        <ele>385</ele>
        <time>2018-03-07T11:12:55Z</time>
      </trkpt>
      <trkpt lat="45.9234" lon="4.68557">
        <ele>386</ele>
        <time>2018-03-07T11:12:56Z</time>
      </trkpt>
      <trkpt lat="45.92344" lon="4.6856">
        <ele>386</ele>
        <time>2018-03-07T11:12:57Z</time>
      </trkpt>
      <trkpt lat="45.92348" lon="4.68563">
        <ele>386</ele>
        <time>2018-03-07T11:12:58Z</time>
      </trkpt>
      <trkpt lat="45.92352" lon="4.68566">
        <ele>386</ele>
        <time>2018-03-07T11:12:59Z</time>
      </trkpt>
      <trkpt lat="45.92356" lon="4.6857">
        <ele>385</ele>
        <time>2018-03-07T11:13:00Z</time>
      </trkpt>
      <trkpt lat="45.92361" lon="4.68573">
        <ele>385</ele>
        <time>2018-03-07T11:13:01Z</time>
      </trkpt>
      <trkpt lat="45.92366" lon="4.68576">
        <ele>385</ele>
        <time>2018-03-07T11:13:02Z</time>
      </trkpt>
      <trkpt lat="45.92371" lon="4.68579">
        <ele>384</ele>
        <time>2018-03-07T11:13:03Z</time>
      </trkpt>
      <trkpt lat="45.92376" lon="4.68581">
        <ele>384</ele>
        <time>2018-03-07T11:13:04Z</time>
      </trkpt>
      <trkpt lat="45.92381" lon="4.68583">
        <ele>384</ele>
        <time>2018-03-07T11:13:05Z</time>
      </trkpt>
      <trkpt lat="45.92386" lon="4.68586">
        <ele>387</ele>
        <time>2018-03-07T11:13:06Z</time>
      </trkpt>
      <trkpt lat="45.92391" lon="4.6859">
        <ele>386</ele>
        <time>2018-03-07T11:13:07Z</time>
      </trkpt>
      <trkpt lat="45.92395" lon="4.68592">
        <ele>386</ele>
        <time>2018-03-07T11:13:08Z</time>
      </trkpt>
      <trkpt lat="45.92401" lon="4.68594">
        <ele>385</ele>
        <time>2018-03-07T11:13:09Z</time>
      </trkpt>
      <trkpt lat="45.92406" lon="4.68597">
        <ele>385</ele>
        <time>2018-03-07T11:13:10Z</time>
      </trkpt>
      <trkpt lat="45.92412" lon="4.686">
        <ele>385</ele>
        <time>2018-03-07T11:13:11Z</time>
      </trkpt>
      <trkpt lat="45.92418" lon="4.68603">
        <ele>381</ele>
        <time>2018-03-07T11:13:12Z</time>
      </trkpt>
      <trkpt lat="45.92425" lon="4.68606">
        <ele>381</ele>
        <time>2018-03-07T11:13:13Z</time>
      </trkpt>
      <trkpt lat="45.92431" lon="4.68609">
        <ele>381</ele>
        <time>2018-03-07T11:13:14Z</time>
      </trkpt>
      <trkpt lat="45.92437" lon="4.68613">
        <ele>381</ele>
        <time>2018-03-07T11:13:15Z</time>
      </trkpt>
      <trkpt lat="45.92443" lon="4.68617">
        <ele>381</ele>
        <time>2018-03-07T11:13:16Z</time>
      </trkpt>
      <trkpt lat="45.92451" lon="4.6862">
        <ele>380</ele>
        <time>2018-03-07T11:13:17Z</time>
      </trkpt>
      <trkpt lat="45.92458" lon="4.68624">
        <ele>380</ele>
        <time>2018-03-07T11:13:18Z</time>
      </trkpt>
      <trkpt lat="45.92465" lon="4.68628">
        <ele>380</ele>
        <time>2018-03-07T11:13:19Z</time>
      </trkpt>
      <trkpt lat="45.92473" lon="4.68631">
        <ele>379</ele>
        <time>2018-03-07T11:13:20Z</time>
      </trkpt>
      <trkpt lat="45.9248" lon="4.68633">
        <ele>379</ele>
        <time>2018-03-07T11:13:21Z</time>
      </trkpt>
      <trkpt lat="45.92486" lon="4.68636">
        <ele>379</ele>
        <time>2018-03-07T11:13:22Z</time>
      </trkpt>
      <trkpt lat="45.92493" lon="4.68639">
        <ele>379</ele>
        <time>2018-03-07T11:13:23Z</time>
      </trkpt>
      <trkpt lat="45.92499" lon="4.6864">
        <ele>379</ele>
        <time>2018-03-07T11:13:24Z</time>
      </trkpt>
      <trkpt lat="45.92507" lon="4.68642">
        <ele>375</ele>
        <time>2018-03-07T11:13:25Z</time>
      </trkpt>
      <trkpt lat="45.92513" lon="4.68644">
        <ele>375</ele>
        <time>2018-03-07T11:13:26Z</time>
      </trkpt>
      <trkpt lat="45.9252" lon="4.68645">
        <ele>375</ele>
        <time>2018-03-07T11:13:27Z</time>
      </trkpt>
      <trkpt lat="45.92527" lon="4.68647">
        <ele>375</ele>
        <time>2018-03-07T11:13:28Z</time>
      </trkpt>
      <trkpt lat="45.92534" lon="4.68648">
        <ele>375</ele>
        <time>2018-03-07T11:13:29Z</time>
      </trkpt>
      <trkpt lat="45.9254" lon="4.6865">
        <ele>374</ele>
        <time>2018-03-07T11:13:30Z</time>
      </trkpt>
      <trkpt lat="45.92546" lon="4.68651">
        <ele>374</ele>
        <time>2018-03-07T11:13:31Z</time>
      </trkpt>
      <trkpt lat="45.92552" lon="4.68652">
        <ele>374</ele>
        <time>2018-03-07T11:13:32Z</time>
      </trkpt>
      <trkpt lat="45.92557" lon="4.68652">
        <ele>374</ele>
        <time>2018-03-07T11:13:33Z</time>
      </trkpt>
      <trkpt lat="45.92566" lon="4.6865">
        <ele>374</ele>
        <time>2018-03-07T11:13:35Z</time>
      </trkpt>
      <trkpt lat="45.9257" lon="4.68647">
        <ele>374</ele>
        <time>2018-03-07T11:13:36Z</time>
      </trkpt>
      <trkpt lat="45.92578" lon="4.68643">
        <ele>373</ele>
        <time>2018-03-07T11:13:39Z</time>
      </trkpt>
      <trkpt lat="45.9258" lon="4.68642">
        <ele>373</ele>
        <time>2018-03-07T11:13:40Z</time>
      </trkpt>
      <trkpt lat="45.92587" lon="4.68636">
        <ele>370</ele>
        <time>2018-03-07T11:13:48Z</time>
      </trkpt>
      <trkpt lat="45.92587" lon="4.68635">
        <ele>370</ele>
        <time>2018-03-07T11:13:49Z</time>
      </trkpt>
      <trkpt lat="45.92595" lon="4.6863">
        <ele>370</ele>
        <time>2018-03-07T11:14:07Z</time>
      </trkpt>
      <trkpt lat="45.92597" lon="4.68629">
        <ele>369</ele>
        <time>2018-03-07T11:14:08Z</time>
      </trkpt>
      <trkpt lat="45.92605" lon="4.68627">
        <ele>369</ele>
        <time>2018-03-07T11:14:12Z</time>
      </trkpt>
      <trkpt lat="45.92606" lon="4.68627">
        <ele>369</ele>
        <time>2018-03-07T11:14:13Z</time>
      </trkpt>
      <trkpt lat="45.92607" lon="4.68627">
        <ele>369</ele>
        <time>2018-03-07T11:14:14Z</time>
      </trkpt>
      <trkpt lat="45.92608" lon="4.68627">
        <ele>369</ele>
        <time>2018-03-07T11:14:15Z</time>
      </trkpt>
      <trkpt lat="45.92616" lon="4.68626">
        <ele>369</ele>
        <time>2018-03-07T11:14:21Z</time>
      </trkpt>
      <trkpt lat="45.92624" lon="4.68623">
        <ele>368</ele>
        <time>2018-03-07T11:14:22Z</time>
      </trkpt>
      <trkpt lat="45.9263" lon="4.68622">
        <ele>368</ele>
        <time>2018-03-07T11:14:24Z</time>
      </trkpt>
      <trkpt lat="45.92634" lon="4.68621">
        <ele>368</ele>
        <time>2018-03-07T11:14:25Z</time>
      </trkpt>
      <trkpt lat="45.92638" lon="4.68616">
        <ele>368</ele>
        <time>2018-03-07T11:14:26Z</time>
      </trkpt>
      <trkpt lat="45.92643" lon="4.68614">
        <ele>367</ele>
        <time>2018-03-07T11:14:27Z</time>
      </trkpt>
      <trkpt lat="45.92651" lon="4.6861">
        <ele>367</ele>
        <time>2018-03-07T11:14:29Z</time>
      </trkpt>
      <trkpt lat="45.92655" lon="4.68607">
        <ele>367</ele>
        <time>2018-03-07T11:14:30Z</time>
      </trkpt>
      <trkpt lat="45.9266" lon="4.68605">
        <ele>367</ele>
        <time>2018-03-07T11:14:31Z</time>
      </trkpt>
      <trkpt lat="45.92665" lon="4.68603">
        <ele>367</ele>
        <time>2018-03-07T11:14:32Z</time>
      </trkpt>
      <trkpt lat="45.92671" lon="4.68601">
        <ele>364</ele>
        <time>2018-03-07T11:14:33Z</time>
      </trkpt>
      <trkpt lat="45.92676" lon="4.68597">
        <ele>364</ele>
        <time>2018-03-07T11:14:34Z</time>
      </trkpt>
      <trkpt lat="45.92682" lon="4.68596">
        <ele>364</ele>
        <time>2018-03-07T11:14:35Z</time>
      </trkpt>
      <trkpt lat="45.92688" lon="4.68593">
        <ele>364</ele>
        <time>2018-03-07T11:14:36Z</time>
      </trkpt>
      <trkpt lat="45.92693" lon="4.68591">
        <ele>364</ele>
        <time>2018-03-07T11:14:37Z</time>
      </trkpt>
      <trkpt lat="45.92698" lon="4.68588">
        <ele>364</ele>
        <time>2018-03-07T11:14:38Z</time>
      </trkpt>
      <trkpt lat="45.92704" lon="4.68586">
        <ele>364</ele>
        <time>2018-03-07T11:14:39Z</time>
      </trkpt>
      <trkpt lat="45.9271" lon="4.68585">
        <ele>364</ele>
        <time>2018-03-07T11:14:40Z</time>
      </trkpt>
      <trkpt lat="45.92715" lon="4.68583">
        <ele>366</ele>
        <time>2018-03-07T11:14:41Z</time>
      </trkpt>
      <trkpt lat="45.92722" lon="4.6858">
        <ele>366</ele>
        <time>2018-03-07T11:14:42Z</time>
      </trkpt>
      <trkpt lat="45.92728" lon="4.68578">
        <ele>366</ele>
        <time>2018-03-07T11:14:43Z</time>
      </trkpt>
      <trkpt lat="45.92734" lon="4.68575">
        <ele>366</ele>
        <time>2018-03-07T11:14:44Z</time>
      </trkpt>
      <trkpt lat="45.9274" lon="4.68574">
        <ele>366</ele>
        <time>2018-03-07T11:14:45Z</time>
      </trkpt>
      <trkpt lat="45.92746" lon="4.68573">
        <ele>366</ele>
        <time>2018-03-07T11:14:46Z</time>
      </trkpt>
      <trkpt lat="45.92753" lon="4.68572">
        <ele>366</ele>
        <time>2018-03-07T11:14:47Z</time>
      </trkpt>
      <trkpt lat="45.92759" lon="4.68572">
        <ele>365</ele>
        <time>2018-03-07T11:14:48Z</time>
      </trkpt>
      <trkpt lat="45.92765" lon="4.68572">
        <ele>365</ele>
        <time>2018-03-07T11:14:49Z</time>
      </trkpt>
      <trkpt lat="45.92771" lon="4.68571">
        <ele>365</ele>
        <time>2018-03-07T11:14:50Z</time>
      </trkpt>
      <trkpt lat="45.92778" lon="4.68572">
        <ele>365</ele>
        <time>2018-03-07T11:14:51Z</time>
      </trkpt>
      <trkpt lat="45.92785" lon="4.68573">
        <ele>365</ele>
        <time>2018-03-07T11:14:52Z</time>
      </trkpt>
      <trkpt lat="45.92793" lon="4.68574">
        <ele>364</ele>
        <time>2018-03-07T11:14:53Z</time>
      </trkpt>
      <trkpt lat="45.928" lon="4.68575">
        <ele>364</ele>
        <time>2018-03-07T11:14:54Z</time>
      </trkpt>
      <trkpt lat="45.92808" lon="4.68577">
        <ele>363</ele>
        <time>2018-03-07T11:14:55Z</time>
      </trkpt>
      <trkpt lat="45.92814" lon="4.68579">
        <ele>363</ele>
        <time>2018-03-07T11:14:56Z</time>
      </trkpt>
      <trkpt lat="45.92822" lon="4.6858">
        <ele>362</ele>
        <time>2018-03-07T11:14:57Z</time>
      </trkpt>
      <trkpt lat="45.92829" lon="4.68582">
        <ele>362</ele>
        <time>2018-03-07T11:14:58Z</time>
      </trkpt>
      <trkpt lat="45.92836" lon="4.68584">
        <ele>361</ele>
        <time>2018-03-07T11:14:59Z</time>
      </trkpt>
      <trkpt lat="45.92843" lon="4.68585">
        <ele>360</ele>
        <time>2018-03-07T11:15:00Z</time>
      </trkpt>
      <trkpt lat="45.92851" lon="4.68587">
        <ele>359</ele>
        <time>2018-03-07T11:15:01Z</time>
      </trkpt>
      <trkpt lat="45.92859" lon="4.6859">
        <ele>359</ele>
        <time>2018-03-07T11:15:02Z</time>
      </trkpt>
      <trkpt lat="45.92867" lon="4.68591">
        <ele>359</ele>
        <time>2018-03-07T11:15:03Z</time>
      </trkpt>
      <trkpt lat="45.92875" lon="4.68592">
        <ele>359</ele>
        <time>2018-03-07T11:15:04Z</time>
      </trkpt>
      <trkpt lat="45.92882" lon="4.68593">
        <ele>358</ele>
        <time>2018-03-07T11:15:05Z</time>
      </trkpt>
      <trkpt lat="45.9289" lon="4.68593">
        <ele>358</ele>
        <time>2018-03-07T11:15:06Z</time>
      </trkpt>
      <trkpt lat="45.92898" lon="4.68595">
        <ele>358</ele>
        <time>2018-03-07T11:15:07Z</time>
      </trkpt>
      <trkpt lat="45.92906" lon="4.68598">
        <ele>358</ele>
        <time>2018-03-07T11:15:08Z</time>
      </trkpt>
      <trkpt lat="45.92914" lon="4.68599">
        <ele>358</ele>
        <time>2018-03-07T11:15:09Z</time>
      </trkpt>
      <trkpt lat="45.92923" lon="4.686">
        <ele>359</ele>
        <time>2018-03-07T11:15:10Z</time>
      </trkpt>
      <trkpt lat="45.9293" lon="4.686">
        <ele>358</ele>
        <time>2018-03-07T11:15:11Z</time>
      </trkpt>
      <trkpt lat="45.92939" lon="4.68602">
        <ele>358</ele>
        <time>2018-03-07T11:15:12Z</time>
      </trkpt>
      <trkpt lat="45.92947" lon="4.68604">
        <ele>358</ele>
        <time>2018-03-07T11:15:13Z</time>
      </trkpt>
      <trkpt lat="45.92955" lon="4.68606">
        <ele>358</ele>
        <time>2018-03-07T11:15:14Z</time>
      </trkpt>
      <trkpt lat="45.92963" lon="4.68608">
        <ele>358</ele>
        <time>2018-03-07T11:15:15Z</time>
      </trkpt>
      <trkpt lat="45.92972" lon="4.68609">
        <ele>358</ele>
        <time>2018-03-07T11:15:16Z</time>
      </trkpt>
      <trkpt lat="45.9298" lon="4.68611">
        <ele>358</ele>
        <time>2018-03-07T11:15:17Z</time>
      </trkpt>
      <trkpt lat="45.92988" lon="4.68612">
        <ele>358</ele>
        <time>2018-03-07T11:15:18Z</time>
      </trkpt>
      <trkpt lat="45.92996" lon="4.68612">
        <ele>358</ele>
        <time>2018-03-07T11:15:19Z</time>
      </trkpt>
      <trkpt lat="45.93005" lon="4.68614">
        <ele>356</ele>
        <time>2018-03-07T11:15:20Z</time>
      </trkpt>
      <trkpt lat="45.93013" lon="4.68615">
        <ele>356</ele>
        <time>2018-03-07T11:15:21Z</time>
      </trkpt>
      <trkpt lat="45.93022" lon="4.68617">
        <ele>356</ele>
        <time>2018-03-07T11:15:22Z</time>
      </trkpt>
      <trkpt lat="45.93031" lon="4.68619">
        <ele>355</ele>
        <time>2018-03-07T11:15:23Z</time>
      </trkpt>
      <trkpt lat="45.93039" lon="4.68621">
        <ele>355</ele>
        <time>2018-03-07T11:15:24Z</time>
      </trkpt>
      <trkpt lat="45.93048" lon="4.68623">
        <ele>355</ele>
        <time>2018-03-07T11:15:25Z</time>
      </trkpt>
      <trkpt lat="45.93056" lon="4.68625">
        <ele>354</ele>
        <time>2018-03-07T11:15:26Z</time>
      </trkpt>
      <trkpt lat="45.93065" lon="4.68627">
        <ele>354</ele>
        <time>2018-03-07T11:15:27Z</time>
      </trkpt>
      <trkpt lat="45.93074" lon="4.68628">
        <ele>354</ele>
        <time>2018-03-07T11:15:28Z</time>
      </trkpt>
      <trkpt lat="45.93084" lon="4.68631">
        <ele>349</ele>
        <time>2018-03-07T11:15:29Z</time>
      </trkpt>
      <trkpt lat="45.93093" lon="4.68632">
        <ele>349</ele>
        <time>2018-03-07T11:15:30Z</time>
      </trkpt>
      <trkpt lat="45.93102" lon="4.68634">
        <ele>349</ele>
        <time>2018-03-07T11:15:31Z</time>
      </trkpt>
      <trkpt lat="45.93113" lon="4.68637">
        <ele>348</ele>
        <time>2018-03-07T11:15:32Z</time>
      </trkpt>
      <trkpt lat="45.93123" lon="4.68639">
        <ele>348</ele>
        <time>2018-03-07T11:15:33Z</time>
      </trkpt>
      <trkpt lat="45.93133" lon="4.68642">
        <ele>348</ele>
        <time>2018-03-07T11:15:34Z</time>
      </trkpt>
      <trkpt lat="45.93143" lon="4.68644">
        <ele>347</ele>
        <time>2018-03-07T11:15:35Z</time>
      </trkpt>
      <trkpt lat="45.93154" lon="4.68645">
        <ele>347</ele>
        <time>2018-03-07T11:15:36Z</time>
      </trkpt>
      <trkpt lat="45.93164" lon="4.68648">
        <ele>347</ele>
        <time>2018-03-07T11:15:37Z</time>
      </trkpt>
      <trkpt lat="45.93175" lon="4.68652">
        <ele>345</ele>
        <time>2018-03-07T11:15:38Z</time>
      </trkpt>
      <trkpt lat="45.93186" lon="4.68654">
        <ele>345</ele>
        <time>2018-03-07T11:15:39Z</time>
      </trkpt>
      <trkpt lat="45.93197" lon="4.68656">
        <ele>345</ele>
        <time>2018-03-07T11:15:40Z</time>
      </trkpt>
      <trkpt lat="45.93207" lon="4.68658">
        <ele>344</ele>
        <time>2018-03-07T11:15:41Z</time>
      </trkpt>
      <trkpt lat="45.93217" lon="4.68662">
        <ele>344</ele>
        <time>2018-03-07T11:15:42Z</time>
      </trkpt>
      <trkpt lat="45.93227" lon="4.68667">
        <ele>345</ele>
        <time>2018-03-07T11:15:43Z</time>
      </trkpt>
      <trkpt lat="45.93235" lon="4.68671">
        <ele>345</ele>
        <time>2018-03-07T11:15:44Z</time>
      </trkpt>
      <trkpt lat="45.93245" lon="4.68674">
        <ele>344</ele>
        <time>2018-03-07T11:15:45Z</time>
      </trkpt>
      <trkpt lat="45.93255" lon="4.68677">
        <ele>344</ele>
        <time>2018-03-07T11:15:46Z</time>
      </trkpt>
      <trkpt lat="45.93264" lon="4.6868">
        <ele>344</ele>
        <time>2018-03-07T11:15:47Z</time>
      </trkpt>
      <trkpt lat="45.93274" lon="4.68683">
        <ele>344</ele>
        <time>2018-03-07T11:15:48Z</time>
      </trkpt>
      <trkpt lat="45.93283" lon="4.68684">
        <ele>344</ele>
        <time>2018-03-07T11:15:49Z</time>
      </trkpt>
      <trkpt lat="45.93293" lon="4.68686">
        <ele>344</ele>
        <time>2018-03-07T11:15:50Z</time>
      </trkpt>
      <trkpt lat="45.93301" lon="4.68689">
        <ele>344</ele>
        <time>2018-03-07T11:15:51Z</time>
      </trkpt>
      <trkpt lat="45.93309" lon="4.68692">
        <ele>344</ele>
        <time>2018-03-07T11:15:52Z</time>
      </trkpt>
      <trkpt lat="45.93318" lon="4.68694">
        <ele>344</ele>
        <time>2018-03-07T11:15:53Z</time>
      </trkpt>
      <trkpt lat="45.93328" lon="4.68694">
        <ele>344</ele>
        <time>2018-03-07T11:15:54Z</time>
      </trkpt>
      <trkpt lat="45.93336" lon="4.68695">
        <ele>344</ele>
        <time>2018-03-07T11:15:55Z</time>
      </trkpt>
      <trkpt lat="45.93344" lon="4.68699">
        <ele>344</ele>
        <time>2018-03-07T11:15:56Z</time>
      </trkpt>
      <trkpt lat="45.93353" lon="4.68701">
        <ele>344</ele>
        <time>2018-03-07T11:15:57Z</time>
      </trkpt>
      <trkpt lat="45.93362" lon="4.68704">
        <ele>344</ele>
        <time>2018-03-07T11:15:58Z</time>
      </trkpt>
      <trkpt lat="45.93371" lon="4.68706">
        <ele>344</ele>
        <time>2018-03-07T11:15:59Z</time>
      </trkpt>
      <trkpt lat="45.93378" lon="4.68708">
        <ele>344</ele>
        <time>2018-03-07T11:16:00Z</time>
      </trkpt>
      <trkpt lat="45.93386" lon="4.68709">
        <ele>343</ele>
        <time>2018-03-07T11:16:01Z</time>
      </trkpt>
      <trkpt lat="45.93394" lon="4.68712">
        <ele>343</ele>
        <time>2018-03-07T11:16:02Z</time>
      </trkpt>
      <trkpt lat="45.93402" lon="4.68714">
        <ele>343</ele>
        <time>2018-03-07T11:16:03Z</time>
      </trkpt>
      <trkpt lat="45.9341" lon="4.68716">
        <ele>343</ele>
        <time>2018-03-07T11:16:04Z</time>
      </trkpt>
      <trkpt lat="45.93418" lon="4.68718">
        <ele>343</ele>
        <time>2018-03-07T11:16:05Z</time>
      </trkpt>
      <trkpt lat="45.93426" lon="4.68719">
        <ele>343</ele>
        <time>2018-03-07T11:16:06Z</time>
      </trkpt>
      <trkpt lat="45.93433" lon="4.6872">
        <ele>343</ele>
        <time>2018-03-07T11:16:07Z</time>
      </trkpt>
      <trkpt lat="45.93441" lon="4.68721">
        <ele>343</ele>
        <time>2018-03-07T11:16:08Z</time>
      </trkpt>
      <trkpt lat="45.93449" lon="4.68722">
        <ele>342</ele>
        <time>2018-03-07T11:16:09Z</time>
      </trkpt>
      <trkpt lat="45.93457" lon="4.68724">
        <ele>342</ele>
        <time>2018-03-07T11:16:10Z</time>
      </trkpt>
      <trkpt lat="45.93464" lon="4.68725">
        <ele>342</ele>
        <time>2018-03-07T11:16:11Z</time>
      </trkpt>
      <trkpt lat="45.93472" lon="4.68727">
        <ele>342</ele>
        <time>2018-03-07T11:16:12Z</time>
      </trkpt>
      <trkpt lat="45.93479" lon="4.68729">
        <ele>342</ele>
        <time>2018-03-07T11:16:13Z</time>
      </trkpt>
      <trkpt lat="45.93487" lon="4.6873">
        <ele>342</ele>
        <time>2018-03-07T11:16:14Z</time>
      </trkpt>
      <trkpt lat="45.93495" lon="4.68732">
        <ele>342</ele>
        <time>2018-03-07T11:16:15Z</time>
      </trkpt>
      <trkpt lat="45.93503" lon="4.68734">
        <ele>342</ele>
        <time>2018-03-07T11:16:16Z</time>
      </trkpt>
      <trkpt lat="45.9351" lon="4.68734">
        <ele>342</ele>
        <time>2018-03-07T11:16:17Z</time>
      </trkpt>
      <trkpt lat="45.93516" lon="4.68736">
        <ele>342</ele>
        <time>2018-03-07T11:16:18Z</time>
      </trkpt>
      <trkpt lat="45.93523" lon="4.68737">
        <ele>342</ele>
        <time>2018-03-07T11:16:19Z</time>
      </trkpt>
      <trkpt lat="45.93529" lon="4.68739">
        <ele>342</ele>
        <time>2018-03-07T11:16:20Z</time>
      </trkpt>
      <trkpt lat="45.93535" lon="4.68741">
        <ele>342</ele>
        <time>2018-03-07T11:16:21Z</time>
      </trkpt>
      <trkpt lat="45.93542" lon="4.68741">
        <ele>342</ele>
        <time>2018-03-07T11:16:22Z</time>
      </trkpt>
      <trkpt lat="45.93549" lon="4.68743">
        <ele>342</ele>
        <time>2018-03-07T11:16:23Z</time>
      </trkpt>
      <trkpt lat="45.93556" lon="4.68744">
        <ele>342</ele>
        <time>2018-03-07T11:16:24Z</time>
      </trkpt>
      <trkpt lat="45.93562" lon="4.68746">
        <ele>343</ele>
        <time>2018-03-07T11:16:25Z</time>
      </trkpt>
      <trkpt lat="45.93569" lon="4.68747">
        <ele>343</ele>
        <time>2018-03-07T11:16:26Z</time>
      </trkpt>
      <trkpt lat="45.93576" lon="4.68749">
        <ele>343</ele>
        <time>2018-03-07T11:16:27Z</time>
      </trkpt>
      <trkpt lat="45.93583" lon="4.68751">
        <ele>344</ele>
        <time>2018-03-07T11:16:28Z</time>
      </trkpt>
      <trkpt lat="45.93589" lon="4.68753">
        <ele>344</ele>
        <time>2018-03-07T11:16:29Z</time>
      </trkpt>
      <trkpt lat="45.93596" lon="4.68755">
        <ele>344</ele>
        <time>2018-03-07T11:16:30Z</time>
      </trkpt>
      <trkpt lat="45.93602" lon="4.68757">
        <ele>344</ele>
        <time>2018-03-07T11:16:31Z</time>
      </trkpt>
      <trkpt lat="45.93608" lon="4.68759">
        <ele>344</ele>
        <time>2018-03-07T11:16:32Z</time>
      </trkpt>
      <trkpt lat="45.93615" lon="4.6876">
        <ele>343</ele>
        <time>2018-03-07T11:16:33Z</time>
      </trkpt>
      <trkpt lat="45.93621" lon="4.68761">
        <ele>343</ele>
        <time>2018-03-07T11:16:34Z</time>
      </trkpt>
      <trkpt lat="45.93627" lon="4.68763">
        <ele>343</ele>
        <time>2018-03-07T11:16:35Z</time>
      </trkpt>
      <trkpt lat="45.93633" lon="4.68765">
        <ele>343</ele>
        <time>2018-03-07T11:16:36Z</time>
      </trkpt>
      <trkpt lat="45.93639" lon="4.68768">
        <ele>343</ele>
        <time>2018-03-07T11:16:37Z</time>
      </trkpt>
      <trkpt lat="45.93645" lon="4.68772">
        <ele>343</ele>
        <time>2018-03-07T11:16:38Z</time>
      </trkpt>
      <trkpt lat="45.93651" lon="4.68774">
        <ele>343</ele>
        <time>2018-03-07T11:16:39Z</time>
      </trkpt>
      <trkpt lat="45.93657" lon="4.68775">
        <ele>343</ele>
        <time>2018-03-07T11:16:40Z</time>
      </trkpt>
      <trkpt lat="45.93663" lon="4.68776">
        <ele>343</ele>
        <time>2018-03-07T11:16:41Z</time>
      </trkpt>
      <trkpt lat="45.9367" lon="4.68777">
        <ele>342</ele>
        <time>2018-03-07T11:16:42Z</time>
      </trkpt>
      <trkpt lat="45.93677" lon="4.68779">
        <ele>342</ele>
        <time>2018-03-07T11:16:43Z</time>
      </trkpt>
      <trkpt lat="45.93683" lon="4.68779">
        <ele>342</ele>
        <time>2018-03-07T11:16:44Z</time>
      </trkpt>
      <trkpt lat="45.93688" lon="4.6878">
        <ele>342</ele>
        <time>2018-03-07T11:16:45Z</time>
      </trkpt>
      <trkpt lat="45.93694" lon="4.68782">
        <ele>342</ele>
        <time>2018-03-07T11:16:46Z</time>
      </trkpt>
      <trkpt lat="45.937" lon="4.68783">
        <ele>342</ele>
        <time>2018-03-07T11:16:47Z</time>
      </trkpt>
      <trkpt lat="45.93706" lon="4.68784">
        <ele>342</ele>
        <time>2018-03-07T11:16:48Z</time>
      </trkpt>
      <trkpt lat="45.93712" lon="4.68786">
        <ele>342</ele>
        <time>2018-03-07T11:16:49Z</time>
      </trkpt>
      <trkpt lat="45.93718" lon="4.68788">
        <ele>342</ele>
        <time>2018-03-07T11:16:50Z</time>
      </trkpt>
      <trkpt lat="45.93724" lon="4.68789">
        <ele>342</ele>
        <time>2018-03-07T11:16:51Z</time>
      </trkpt>
      <trkpt lat="45.9373" lon="4.68792">
        <ele>342</ele>
        <time>2018-03-07T11:16:52Z</time>
      </trkpt>
      <trkpt lat="45.93736" lon="4.68793">
        <ele>342</ele>
        <time>2018-03-07T11:16:53Z</time>
      </trkpt>
      <trkpt lat="45.93742" lon="4.68796">
        <ele>342</ele>
        <time>2018-03-07T11:16:54Z</time>
      </trkpt>
      <trkpt lat="45.93749" lon="4.68797">
        <ele>342</ele>
        <time>2018-03-07T11:16:55Z</time>
      </trkpt>
      <trkpt lat="45.93755" lon="4.68799">
        <ele>341</ele>
        <time>2018-03-07T11:16:56Z</time>
      </trkpt>
      <trkpt lat="45.93762" lon="4.68801">
        <ele>341</ele>
        <time>2018-03-07T11:16:57Z</time>
      </trkpt>
      <trkpt lat="45.93769" lon="4.68803">
        <ele>341</ele>
        <time>2018-03-07T11:16:58Z</time>
      </trkpt>
      <trkpt lat="45.93776" lon="4.68806">
        <ele>341</ele>
        <time>2018-03-07T11:16:59Z</time>
      </trkpt>
      <trkpt lat="45.93782" lon="4.68809">
        <ele>341</ele>
        <time>2018-03-07T11:17:00Z</time>
      </trkpt>
      <trkpt lat="45.93788" lon="4.68813">
        <ele>341</ele>
        <time>2018-03-07T11:17:01Z</time>
      </trkpt>
      <trkpt lat="45.93795" lon="4.68816">
        <ele>341</ele>
        <time>2018-03-07T11:17:02Z</time>
      </trkpt>
      <trkpt lat="45.93801" lon="4.68819">
        <ele>341</ele>
        <time>2018-03-07T11:17:03Z</time>
      </trkpt>
      <trkpt lat="45.93806" lon="4.68822">
        <ele>341</ele>
        <time>2018-03-07T11:17:04Z</time>
      </trkpt>
      <trkpt lat="45.93811" lon="4.68824">
        <ele>341</ele>
        <time>2018-03-07T11:17:05Z</time>
      </trkpt>
      <trkpt lat="45.93817" lon="4.68827">
        <ele>341</ele>
        <time>2018-03-07T11:17:06Z</time>
      </trkpt>
      <trkpt lat="45.93823" lon="4.68831">
        <ele>342</ele>
        <time>2018-03-07T11:17:07Z</time>
      </trkpt>
      <trkpt lat="45.93829" lon="4.68836">
        <ele>342</ele>
        <time>2018-03-07T11:17:08Z</time>
      </trkpt>
      <trkpt lat="45.93835" lon="4.6884">
        <ele>342</ele>
        <time>2018-03-07T11:17:09Z</time>
      </trkpt>
      <trkpt lat="45.93841" lon="4.68843">
        <ele>342</ele>
        <time>2018-03-07T11:17:10Z</time>
      </trkpt>
      <trkpt lat="45.93848" lon="4.68847">
        <ele>342</ele>
        <time>2018-03-07T11:17:11Z</time>
      </trkpt>
      <trkpt lat="45.93853" lon="4.68852">
        <ele>342</ele>
        <time>2018-03-07T11:17:12Z</time>
      </trkpt>
      <trkpt lat="45.93858" lon="4.68857">
        <ele>342</ele>
        <time>2018-03-07T11:17:13Z</time>
      </trkpt>
      <trkpt lat="45.93864" lon="4.6886">
        <ele>342</ele>
        <time>2018-03-07T11:17:14Z</time>
      </trkpt>
      <trkpt lat="45.93868" lon="4.68864">
        <ele>342</ele>
        <time>2018-03-07T11:17:15Z</time>
      </trkpt>
      <trkpt lat="45.93873" lon="4.68868">
        <ele>342</ele>
        <time>2018-03-07T11:17:16Z</time>
      </trkpt>
      <trkpt lat="45.93878" lon="4.68872">
        <ele>343</ele>
        <time>2018-03-07T11:17:17Z</time>
      </trkpt>
      <trkpt lat="45.93883" lon="4.68875">
        <ele>342</ele>
        <time>2018-03-07T11:17:18Z</time>
      </trkpt>
      <trkpt lat="45.93889" lon="4.68877">
        <ele>342</ele>
        <time>2018-03-07T11:17:19Z</time>
      </trkpt>
      <trkpt lat="45.93894" lon="4.6888">
        <ele>342</ele>
        <time>2018-03-07T11:17:20Z</time>
      </trkpt>
      <trkpt lat="45.93898" lon="4.68882">
        <ele>342</ele>
        <time>2018-03-07T11:17:21Z</time>
      </trkpt>
      <trkpt lat="45.93904" lon="4.68884">
        <ele>342</ele>
        <time>2018-03-07T11:17:22Z</time>
      </trkpt>
      <trkpt lat="45.93909" lon="4.68887">
        <ele>342</ele>
        <time>2018-03-07T11:17:23Z</time>
      </trkpt>
      <trkpt lat="45.93915" lon="4.68889">
        <ele>342</ele>
        <time>2018-03-07T11:17:24Z</time>
      </trkpt>
      <trkpt lat="45.93919" lon="4.6889">
        <ele>342</ele>
        <time>2018-03-07T11:17:25Z</time>
      </trkpt>
      <trkpt lat="45.93924" lon="4.6889">
        <ele>342</ele>
        <time>2018-03-07T11:17:26Z</time>
      </trkpt>
      <trkpt lat="45.9393" lon="4.68892">
        <ele>342</ele>
        <time>2018-03-07T11:17:27Z</time>
      </trkpt>
      <trkpt lat="45.93936" lon="4.68893">
        <ele>342</ele>
        <time>2018-03-07T11:17:28Z</time>
      </trkpt>
      <trkpt lat="45.93941" lon="4.68893">
        <ele>342</ele>
        <time>2018-03-07T11:17:29Z</time>
      </trkpt>
      <trkpt lat="45.93946" lon="4.68895">
        <ele>342</ele>
        <time>2018-03-07T11:17:30Z</time>
      </trkpt>
      <trkpt lat="45.93951" lon="4.68897">
        <ele>342</ele>
        <time>2018-03-07T11:17:31Z</time>
      </trkpt>
      <trkpt lat="45.93957" lon="4.68901">
        <ele>342</ele>
        <time>2018-03-07T11:17:32Z</time>
      </trkpt>
      <trkpt lat="45.93963" lon="4.68903">
        <ele>342</ele>
        <time>2018-03-07T11:17:33Z</time>
      </trkpt>
      <trkpt lat="45.93969" lon="4.68905">
        <ele>342</ele>
        <time>2018-03-07T11:17:34Z</time>
      </trkpt>
      <trkpt lat="45.93975" lon="4.68908">
        <ele>342</ele>
        <time>2018-03-07T11:17:35Z</time>
      </trkpt>
      <trkpt lat="45.93981" lon="4.6891">
        <ele>342</ele>
        <time>2018-03-07T11:17:36Z</time>
      </trkpt>
      <trkpt lat="45.93985" lon="4.68912">
        <ele>342</ele>
        <time>2018-03-07T11:17:37Z</time>
      </trkpt>
      <trkpt lat="45.93991" lon="4.68914">
        <ele>342</ele>
        <time>2018-03-07T11:17:38Z</time>
      </trkpt>
      <trkpt lat="45.93996" lon="4.68916">
        <ele>342</ele>
        <time>2018-03-07T11:17:39Z</time>
      </trkpt>
      <trkpt lat="45.94002" lon="4.68918">
        <ele>342</ele>
        <time>2018-03-07T11:17:40Z</time>
      </trkpt>
      <trkpt lat="45.94008" lon="4.6892">
        <ele>342</ele>
        <time>2018-03-07T11:17:41Z</time>
      </trkpt>
      <trkpt lat="45.94014" lon="4.68923">
        <ele>342</ele>
        <time>2018-03-07T11:17:42Z</time>
      </trkpt>
      <trkpt lat="45.9402" lon="4.68926">
        <ele>341</ele>
        <time>2018-03-07T11:17:43Z</time>
      </trkpt>
      <trkpt lat="45.94026" lon="4.68928">
        <ele>341</ele>
        <time>2018-03-07T11:17:44Z</time>
      </trkpt>
      <trkpt lat="45.94032" lon="4.6893">
        <ele>341</ele>
        <time>2018-03-07T11:17:45Z</time>
      </trkpt>
      <trkpt lat="45.94038" lon="4.68932">
        <ele>341</ele>
        <time>2018-03-07T11:17:46Z</time>
      </trkpt>
      <trkpt lat="45.94045" lon="4.68936">
        <ele>341</ele>
        <time>2018-03-07T11:17:47Z</time>
      </trkpt>
      <trkpt lat="45.9405" lon="4.68939">
        <ele>341</ele>
        <time>2018-03-07T11:17:48Z</time>
      </trkpt>
      <trkpt lat="45.94055" lon="4.68943">
        <ele>341</ele>
        <time>2018-03-07T11:17:49Z</time>
      </trkpt>
      <trkpt lat="45.94061" lon="4.68947">
        <ele>341</ele>
        <time>2018-03-07T11:17:50Z</time>
      </trkpt>
      <trkpt lat="45.94066" lon="4.68951">
        <ele>341</ele>
        <time>2018-03-07T11:17:51Z</time>
      </trkpt>
      <trkpt lat="45.94072" lon="4.68953">
        <ele>341</ele>
        <time>2018-03-07T11:17:52Z</time>
      </trkpt>
      <trkpt lat="45.94078" lon="4.68954">
        <ele>341</ele>
        <time>2018-03-07T11:17:53Z</time>
      </trkpt>
      <trkpt lat="45.94084" lon="4.68954">
        <ele>340</ele>
        <time>2018-03-07T11:17:54Z</time>
      </trkpt>
      <trkpt lat="45.9409" lon="4.68954">
        <ele>340</ele>
        <time>2018-03-07T11:17:55Z</time>
      </trkpt>
      <trkpt lat="45.94097" lon="4.68954">
        <ele>340</ele>
        <time>2018-03-07T11:17:56Z</time>
      </trkpt>
      <trkpt lat="45.94103" lon="4.68956">
        <ele>340</ele>
        <time>2018-03-07T11:17:57Z</time>
      </trkpt>
      <trkpt lat="45.9411" lon="4.68958">
        <ele>340</ele>
        <time>2018-03-07T11:17:58Z</time>
      </trkpt>
      <trkpt lat="45.94116" lon="4.68959">
        <ele>340</ele>
        <time>2018-03-07T11:17:59Z</time>
      </trkpt>
      <trkpt lat="45.94123" lon="4.6896">
        <ele>340</ele>
        <time>2018-03-07T11:18:00Z</time>
      </trkpt>
      <trkpt lat="45.9413" lon="4.68963">
        <ele>340</ele>
        <time>2018-03-07T11:18:01Z</time>
      </trkpt>
      <trkpt lat="45.94137" lon="4.68966">
        <ele>340</ele>
        <time>2018-03-07T11:18:02Z</time>
      </trkpt>
      <trkpt lat="45.94143" lon="4.68967">
        <ele>340</ele>
        <time>2018-03-07T11:18:03Z</time>
      </trkpt>
      <trkpt lat="45.9415" lon="4.68969">
        <ele>340</ele>
        <time>2018-03-07T11:18:04Z</time>
      </trkpt>
      <trkpt lat="45.94156" lon="4.68971">
        <ele>340</ele>
        <time>2018-03-07T11:18:05Z</time>
      </trkpt>
      <trkpt lat="45.94162" lon="4.68973">
        <ele>340</ele>
        <time>2018-03-07T11:18:06Z</time>
      </trkpt>
      <trkpt lat="45.94169" lon="4.68975">
        <ele>339</ele>
        <time>2018-03-07T11:18:07Z</time>
      </trkpt>
      <trkpt lat="45.94175" lon="4.68977">
        <ele>339</ele>
        <time>2018-03-07T11:18:08Z</time>
      </trkpt>
      <trkpt lat="45.94182" lon="4.68979">
        <ele>338</ele>
        <time>2018-03-07T11:18:09Z</time>
      </trkpt>
      <trkpt lat="45.94189" lon="4.68981">
        <ele>338</ele>
        <time>2018-03-07T11:18:10Z</time>
      </trkpt>
      <trkpt lat="45.94195" lon="4.68983">
        <ele>338</ele>
        <time>2018-03-07T11:18:11Z</time>
      </trkpt>
      <trkpt lat="45.94201" lon="4.68985">
        <ele>338</ele>
        <time>2018-03-07T11:18:12Z</time>
      </trkpt>
      <trkpt lat="45.94208" lon="4.68985">
        <ele>338</ele>
        <time>2018-03-07T11:18:13Z</time>
      </trkpt>
      <trkpt lat="45.94215" lon="4.68987">
        <ele>338</ele>
        <time>2018-03-07T11:18:14Z</time>
      </trkpt>
      <trkpt lat="45.94222" lon="4.68989">
        <ele>338</ele>
        <time>2018-03-07T11:18:15Z</time>
      </trkpt>
      <trkpt lat="45.94228" lon="4.68991">
        <ele>338</ele>
        <time>2018-03-07T11:18:16Z</time>
      </trkpt>
      <trkpt lat="45.94235" lon="4.68993">
        <ele>338</ele>
        <time>2018-03-07T11:18:17Z</time>
      </trkpt>
      <trkpt lat="45.94242" lon="4.68994">
        <ele>338</ele>
        <time>2018-03-07T11:18:18Z</time>
      </trkpt>
      <trkpt lat="45.94248" lon="4.68995">
        <ele>338</ele>
        <time>2018-03-07T11:18:19Z</time>
      </trkpt>
      <trkpt lat="45.94255" lon="4.68996">
        <ele>338</ele>
        <time>2018-03-07T11:18:20Z</time>
      </trkpt>
      <trkpt lat="45.94261" lon="4.68995">
        <ele>337</ele>
        <time>2018-03-07T11:18:21Z</time>
      </trkpt>
      <trkpt lat="45.94268" lon="4.68997">
        <ele>337</ele>
        <time>2018-03-07T11:18:22Z</time>
      </trkpt>
      <trkpt lat="45.94273" lon="4.68998">
        <ele>337</ele>
        <time>2018-03-07T11:18:23Z</time>
      </trkpt>
      <trkpt lat="45.9428" lon="4.68998">
        <ele>337</ele>
        <time>2018-03-07T11:18:24Z</time>
      </trkpt>
      <trkpt lat="45.94286" lon="4.69">
        <ele>337</ele>
        <time>2018-03-07T11:18:25Z</time>
      </trkpt>
      <trkpt lat="45.94292" lon="4.69002">
        <ele>337</ele>
        <time>2018-03-07T11:18:26Z</time>
      </trkpt>
      <trkpt lat="45.94299" lon="4.69003">
        <ele>337</ele>
        <time>2018-03-07T11:18:27Z</time>
      </trkpt>
      <trkpt lat="45.94305" lon="4.69004">
        <ele>337</ele>
        <time>2018-03-07T11:18:28Z</time>
      </trkpt>
      <trkpt lat="45.94311" lon="4.69004">
        <ele>337</ele>
        <time>2018-03-07T11:18:29Z</time>
      </trkpt>
      <trkpt lat="45.94317" lon="4.69005">
        <ele>337</ele>
        <time>2018-03-07T11:18:30Z</time>
      </trkpt>
      <trkpt lat="45.94323" lon="4.69005">
        <ele>337</ele>
        <time>2018-03-07T11:18:31Z</time>
      </trkpt>
      <trkpt lat="45.9433" lon="4.69005">
        <ele>337</ele>
        <time>2018-03-07T11:18:32Z</time>
      </trkpt>
      <trkpt lat="45.94336" lon="4.69006">
        <ele>337</ele>
        <time>2018-03-07T11:18:33Z</time>
      </trkpt>
      <trkpt lat="45.94341" lon="4.69007">
        <ele>337</ele>
        <time>2018-03-07T11:18:34Z</time>
      </trkpt>
      <trkpt lat="45.94347" lon="4.69007">
        <ele>338</ele>
        <time>2018-03-07T11:18:35Z</time>
      </trkpt>
      <trkpt lat="45.94353" lon="4.69006">
        <ele>338</ele>
        <time>2018-03-07T11:18:36Z</time>
      </trkpt>
      <trkpt lat="45.94358" lon="4.69006">
        <ele>338</ele>
        <time>2018-03-07T11:18:37Z</time>
      </trkpt>
      <trkpt lat="45.94364" lon="4.69004">
        <ele>338</ele>
        <time>2018-03-07T11:18:38Z</time>
      </trkpt>
      <trkpt lat="45.94371" lon="4.69005">
        <ele>338</ele>
        <time>2018-03-07T11:18:39Z</time>
      </trkpt>
      <trkpt lat="45.94377" lon="4.69006">
        <ele>338</ele>
        <time>2018-03-07T11:18:40Z</time>
      </trkpt>
      <trkpt lat="45.94383" lon="4.69007">
        <ele>338</ele>
        <time>2018-03-07T11:18:41Z</time>
      </trkpt>
      <trkpt lat="45.94389" lon="4.69007">
        <ele>338</ele>
        <time>2018-03-07T11:18:42Z</time>
      </trkpt>
      <trkpt lat="45.94394" lon="4.69005">
        <ele>338</ele>
        <time>2018-03-07T11:18:43Z</time>
      </trkpt>
      <trkpt lat="45.94399" lon="4.69008">
        <ele>339</ele>
        <time>2018-03-07T11:18:44Z</time>
      </trkpt>
      <trkpt lat="45.94403" lon="4.69008">
        <ele>339</ele>
        <time>2018-03-07T11:18:45Z</time>
      </trkpt>
      <trkpt lat="45.94408" lon="4.69007">
        <ele>339</ele>
        <time>2018-03-07T11:18:46Z</time>
      </trkpt>
      <trkpt lat="45.94414" lon="4.69006">
        <ele>339</ele>
        <time>2018-03-07T11:18:47Z</time>
      </trkpt>
      <trkpt lat="45.94422" lon="4.69006">
        <ele>339</ele>
        <time>2018-03-07T11:18:49Z</time>
      </trkpt>
      <trkpt lat="45.94428" lon="4.69007">
        <ele>340</ele>
        <time>2018-03-07T11:18:50Z</time>
      </trkpt>
      <trkpt lat="45.94432" lon="4.69007">
        <ele>340</ele>
        <time>2018-03-07T11:18:51Z</time>
      </trkpt>
      <trkpt lat="45.94438" lon="4.69007">
        <ele>340</ele>
        <time>2018-03-07T11:18:52Z</time>
      </trkpt>
      <trkpt lat="45.94446" lon="4.69012">
        <ele>340</ele>
        <time>2018-03-07T11:18:54Z</time>
      </trkpt>
      <trkpt lat="45.9445" lon="4.69011">
        <ele>340</ele>
        <time>2018-03-07T11:18:55Z</time>
      </trkpt>
      <trkpt lat="45.94456" lon="4.69014">
        <ele>340</ele>
        <time>2018-03-07T11:18:56Z</time>
      </trkpt>
      <trkpt lat="45.94461" lon="4.69013">
        <ele>341</ele>
        <time>2018-03-07T11:18:57Z</time>
      </trkpt>
      <trkpt lat="45.94466" lon="4.69013">
        <ele>341</ele>
        <time>2018-03-07T11:18:58Z</time>
      </trkpt>
      <trkpt lat="45.94471" lon="4.69013">
        <ele>341</ele>
        <time>2018-03-07T11:18:59Z</time>
      </trkpt>
      <trkpt lat="45.94475" lon="4.69014">
        <ele>341</ele>
        <time>2018-03-07T11:19:00Z</time>
      </trkpt>
      <trkpt lat="45.94481" lon="4.69016">
        <ele>341</ele>
        <time>2018-03-07T11:19:01Z</time>
      </trkpt>
      <trkpt lat="45.94486" lon="4.69017">
        <ele>341</ele>
        <time>2018-03-07T11:19:02Z</time>
      </trkpt>
      <trkpt lat="45.94491" lon="4.69017">
        <ele>341</ele>
        <time>2018-03-07T11:19:03Z</time>
      </trkpt>
      <trkpt lat="45.94499" lon="4.69018">
        <ele>341</ele>
        <time>2018-03-07T11:19:05Z</time>
      </trkpt>
      <trkpt lat="45.94504" lon="4.69019">
        <ele>342</ele>
        <time>2018-03-07T11:19:06Z</time>
      </trkpt>
      <trkpt lat="45.94509" lon="4.69019">
        <ele>342</ele>
        <time>2018-03-07T11:19:07Z</time>
      </trkpt>
      <trkpt lat="45.94513" lon="4.6902">
        <ele>342</ele>
        <time>2018-03-07T11:19:08Z</time>
      </trkpt>
      <trkpt lat="45.94518" lon="4.69023">
        <ele>342</ele>
        <time>2018-03-07T11:19:09Z</time>
      </trkpt>
      <trkpt lat="45.94522" lon="4.69023">
        <ele>342</ele>
        <time>2018-03-07T11:19:10Z</time>
      </trkpt>
      <trkpt lat="45.94531" lon="4.69025">
        <ele>342</ele>
        <time>2018-03-07T11:19:12Z</time>
      </trkpt>
      <trkpt lat="45.94535" lon="4.69026">
        <ele>342</ele>
        <time>2018-03-07T11:19:13Z</time>
      </trkpt>
      <trkpt lat="45.9454" lon="4.69027">
        <ele>342</ele>
        <time>2018-03-07T11:19:14Z</time>
      </trkpt>
      <trkpt lat="45.94545" lon="4.69028">
        <ele>342</ele>
        <time>2018-03-07T11:19:15Z</time>
      </trkpt>
      <trkpt lat="45.94553" lon="4.6903">
        <ele>342</ele>
        <time>2018-03-07T11:19:17Z</time>
      </trkpt>
      <trkpt lat="45.94558" lon="4.69031">
        <ele>342</ele>
        <time>2018-03-07T11:19:18Z</time>
      </trkpt>
      <trkpt lat="45.94566" lon="4.69033">
        <ele>342</ele>
        <time>2018-03-07T11:19:20Z</time>
      </trkpt>
      <trkpt lat="45.94572" lon="4.69036">
        <ele>342</ele>
        <time>2018-03-07T11:19:21Z</time>
      </trkpt>
      <trkpt lat="45.94577" lon="4.69037">
        <ele>342</ele>
        <time>2018-03-07T11:19:22Z</time>
      </trkpt>
      <trkpt lat="45.94582" lon="4.69039">
        <ele>342</ele>
        <time>2018-03-07T11:19:23Z</time>
      </trkpt>
      <trkpt lat="45.9459" lon="4.69042">
        <ele>342</ele>
        <time>2018-03-07T11:19:25Z</time>
      </trkpt>
      <trkpt lat="45.94595" lon="4.69044">
        <ele>342</ele>
        <time>2018-03-07T11:19:26Z</time>
      </trkpt>
      <trkpt lat="45.94603" lon="4.69045">
        <ele>342</ele>
        <time>2018-03-07T11:19:28Z</time>
      </trkpt>
      <trkpt lat="45.94607" lon="4.69046">
        <ele>342</ele>
        <time>2018-03-07T11:19:29Z</time>
      </trkpt>
      <trkpt lat="45.94612" lon="4.69047">
        <ele>342</ele>
        <time>2018-03-07T11:19:30Z</time>
      </trkpt>
      <trkpt lat="45.94616" lon="4.6905">
        <ele>342</ele>
        <time>2018-03-07T11:19:31Z</time>
      </trkpt>
      <trkpt lat="45.94625" lon="4.69053">
        <ele>342</ele>
        <time>2018-03-07T11:19:33Z</time>
      </trkpt>
      <trkpt lat="45.94629" lon="4.69055">
        <ele>342</ele>
        <time>2018-03-07T11:19:34Z</time>
      </trkpt>
      <trkpt lat="45.94637" lon="4.69057">
        <ele>342</ele>
        <time>2018-03-07T11:19:36Z</time>
      </trkpt>
      <trkpt lat="45.94641" lon="4.69058">
        <ele>342</ele>
        <time>2018-03-07T11:19:37Z</time>
      </trkpt>
      <trkpt lat="45.94646" lon="4.6906">
        <ele>342</ele>
        <time>2018-03-07T11:19:38Z</time>
      </trkpt>
      <trkpt lat="45.9465" lon="4.69061">
        <ele>342</ele>
        <time>2018-03-07T11:19:39Z</time>
      </trkpt>
      <trkpt lat="45.94655" lon="4.69063">
        <ele>342</ele>
        <time>2018-03-07T11:19:40Z</time>
      </trkpt>
      <trkpt lat="45.94659" lon="4.69064">
        <ele>342</ele>
        <time>2018-03-07T11:19:41Z</time>
      </trkpt>
      <trkpt lat="45.94664" lon="4.69065">
        <ele>342</ele>
        <time>2018-03-07T11:19:42Z</time>
      </trkpt>
      <trkpt lat="45.94669" lon="4.69068">
        <ele>342</ele>
        <time>2018-03-07T11:19:43Z</time>
      </trkpt>
      <trkpt lat="45.94674" lon="4.69069">
        <ele>342</ele>
        <time>2018-03-07T11:19:44Z</time>
      </trkpt>
      <trkpt lat="45.9468" lon="4.69072">
        <ele>342</ele>
        <time>2018-03-07T11:19:45Z</time>
      </trkpt>
      <trkpt lat="45.94685" lon="4.69074">
        <ele>342</ele>
        <time>2018-03-07T11:19:46Z</time>
      </trkpt>
      <trkpt lat="45.9469" lon="4.69077">
        <ele>342</ele>
        <time>2018-03-07T11:19:47Z</time>
      </trkpt>
      <trkpt lat="45.94696" lon="4.69079">
        <ele>342</ele>
        <time>2018-03-07T11:19:48Z</time>
      </trkpt>
      <trkpt lat="45.947" lon="4.6908">
        <ele>342</ele>
        <time>2018-03-07T11:19:49Z</time>
      </trkpt>
      <trkpt lat="45.94705" lon="4.69082">
        <ele>342</ele>
        <time>2018-03-07T11:19:50Z</time>
      </trkpt>
      <trkpt lat="45.9471" lon="4.69082">
        <ele>343</ele>
        <time>2018-03-07T11:19:51Z</time>
      </trkpt>
      <trkpt lat="45.94715" lon="4.69083">
        <ele>343</ele>
        <time>2018-03-07T11:19:52Z</time>
      </trkpt>
      <trkpt lat="45.94724" lon="4.69089">
        <ele>344</ele>
        <time>2018-03-07T11:19:53Z</time>
      </trkpt>
      <trkpt lat="45.94729" lon="4.6909">
        <ele>344</ele>
        <time>2018-03-07T11:19:54Z</time>
      </trkpt>
      <trkpt lat="45.94733" lon="4.69091">
        <ele>344</ele>
        <time>2018-03-07T11:19:55Z</time>
      </trkpt>
      <trkpt lat="45.94739" lon="4.69093">
        <ele>344</ele>
        <time>2018-03-07T11:19:56Z</time>
      </trkpt>
      <trkpt lat="45.94744" lon="4.69096">
        <ele>344</ele>
        <time>2018-03-07T11:19:57Z</time>
      </trkpt>
      <trkpt lat="45.94753" lon="4.69098">
        <ele>345</ele>
        <time>2018-03-07T11:19:59Z</time>
      </trkpt>
      <trkpt lat="45.94758" lon="4.69099">
        <ele>345</ele>
        <time>2018-03-07T11:20:00Z</time>
      </trkpt>
      <trkpt lat="45.94763" lon="4.691">
        <ele>344</ele>
        <time>2018-03-07T11:20:01Z</time>
      </trkpt>
      <trkpt lat="45.94768" lon="4.69102">
        <ele>344</ele>
        <time>2018-03-07T11:20:02Z</time>
      </trkpt>
      <trkpt lat="45.94773" lon="4.69103">
        <ele>344</ele>
        <time>2018-03-07T11:20:03Z</time>
      </trkpt>
      <trkpt lat="45.94778" lon="4.69105">
        <ele>344</ele>
        <time>2018-03-07T11:20:04Z</time>
      </trkpt>
      <trkpt lat="45.94784" lon="4.69108">
        <ele>344</ele>
        <time>2018-03-07T11:20:05Z</time>
      </trkpt>
      <trkpt lat="45.94789" lon="4.6911">
        <ele>344</ele>
        <time>2018-03-07T11:20:06Z</time>
      </trkpt>
      <trkpt lat="45.94794" lon="4.69113">
        <ele>344</ele>
        <time>2018-03-07T11:20:07Z</time>
      </trkpt>
      <trkpt lat="45.94799" lon="4.69114">
        <ele>344</ele>
        <time>2018-03-07T11:20:08Z</time>
      </trkpt>
      <trkpt lat="45.94804" lon="4.69114">
        <ele>344</ele>
        <time>2018-03-07T11:20:09Z</time>
      </trkpt>
      <trkpt lat="45.9481" lon="4.69118">
        <ele>344</ele>
        <time>2018-03-07T11:20:10Z</time>
      </trkpt>
      <trkpt lat="45.94817" lon="4.69119">
        <ele>344</ele>
        <time>2018-03-07T11:20:11Z</time>
      </trkpt>
      <trkpt lat="45.94825" lon="4.69123">
        <ele>344</ele>
        <time>2018-03-07T11:20:12Z</time>
      </trkpt>
      <trkpt lat="45.9483" lon="4.69125">
        <ele>344</ele>
        <time>2018-03-07T11:20:13Z</time>
      </trkpt>
      <trkpt lat="45.94836" lon="4.69127">
        <ele>342</ele>
        <time>2018-03-07T11:20:14Z</time>
      </trkpt>
      <trkpt lat="45.94841" lon="4.69129">
        <ele>342</ele>
        <time>2018-03-07T11:20:15Z</time>
      </trkpt>
      <trkpt lat="45.94848" lon="4.69133">
        <ele>342</ele>
        <time>2018-03-07T11:20:16Z</time>
      </trkpt>
      <trkpt lat="45.94854" lon="4.69134">
        <ele>342</ele>
        <time>2018-03-07T11:20:17Z</time>
      </trkpt>
      <trkpt lat="45.9486" lon="4.69136">
        <ele>342</ele>
        <time>2018-03-07T11:20:18Z</time>
      </trkpt>
      <trkpt lat="45.94866" lon="4.6914">
        <ele>342</ele>
        <time>2018-03-07T11:20:19Z</time>
      </trkpt>
      <trkpt lat="45.94872" lon="4.69143">
        <ele>342</ele>
        <time>2018-03-07T11:20:20Z</time>
      </trkpt>
      <trkpt lat="45.94877" lon="4.69145">
        <ele>342</ele>
        <time>2018-03-07T11:20:21Z</time>
      </trkpt>
      <trkpt lat="45.94883" lon="4.69147">
        <ele>342</ele>
        <time>2018-03-07T11:20:22Z</time>
      </trkpt>
      <trkpt lat="45.94889" lon="4.6915">
        <ele>342</ele>
        <time>2018-03-07T11:20:23Z</time>
      </trkpt>
      <trkpt lat="45.94893" lon="4.69149">
        <ele>342</ele>
        <time>2018-03-07T11:20:24Z</time>
      </trkpt>
      <trkpt lat="45.94899" lon="4.69152">
        <ele>342</ele>
        <time>2018-03-07T11:20:25Z</time>
      </trkpt>
      <trkpt lat="45.94904" lon="4.69153">
        <ele>342</ele>
        <time>2018-03-07T11:20:26Z</time>
      </trkpt>
      <trkpt lat="45.94911" lon="4.69157">
        <ele>342</ele>
        <time>2018-03-07T11:20:27Z</time>
      </trkpt>
      <trkpt lat="45.94919" lon="4.69162">
        <ele>341</ele>
        <time>2018-03-07T11:20:28Z</time>
      </trkpt>
      <trkpt lat="45.94925" lon="4.69166">
        <ele>341</ele>
        <time>2018-03-07T11:20:29Z</time>
      </trkpt>
      <trkpt lat="45.94931" lon="4.6917">
        <ele>341</ele>
        <time>2018-03-07T11:20:30Z</time>
      </trkpt>
      <trkpt lat="45.94938" lon="4.69174">
        <ele>341</ele>
        <time>2018-03-07T11:20:31Z</time>
      </trkpt>
      <trkpt lat="45.94944" lon="4.69179">
        <ele>341</ele>
        <time>2018-03-07T11:20:32Z</time>
      </trkpt>
      <trkpt lat="45.94951" lon="4.69183">
        <ele>340</ele>
        <time>2018-03-07T11:20:33Z</time>
      </trkpt>
      <trkpt lat="45.94958" lon="4.69188">
        <ele>340</ele>
        <time>2018-03-07T11:20:34Z</time>
      </trkpt>
      <trkpt lat="45.94966" lon="4.69194">
        <ele>340</ele>
        <time>2018-03-07T11:20:35Z</time>
      </trkpt>
      <trkpt lat="45.94973" lon="4.692">
        <ele>340</ele>
        <time>2018-03-07T11:20:36Z</time>
      </trkpt>
      <trkpt lat="45.9498" lon="4.69207">
        <ele>340</ele>
        <time>2018-03-07T11:20:37Z</time>
      </trkpt>
      <trkpt lat="45.94987" lon="4.69213">
        <ele>340</ele>
        <time>2018-03-07T11:20:38Z</time>
      </trkpt>
      <trkpt lat="45.94997" lon="4.69216">
        <ele>340</ele>
        <time>2018-03-07T11:20:39Z</time>
      </trkpt>
      <trkpt lat="45.95005" lon="4.69219">
        <ele>337</ele>
        <time>2018-03-07T11:20:40Z</time>
      </trkpt>
      <trkpt lat="45.95014" lon="4.69224">
        <ele>337</ele>
        <time>2018-03-07T11:20:41Z</time>
      </trkpt>
      <trkpt lat="45.95022" lon="4.69229">
        <ele>337</ele>
        <time>2018-03-07T11:20:42Z</time>
      </trkpt>
      <trkpt lat="45.95031" lon="4.69236">
        <ele>337</ele>
        <time>2018-03-07T11:20:43Z</time>
      </trkpt>
      <trkpt lat="45.95039" lon="4.69243">
        <ele>336</ele>
        <time>2018-03-07T11:20:44Z</time>
      </trkpt>
      <trkpt lat="45.95047" lon="4.6925">
        <ele>337</ele>
        <time>2018-03-07T11:20:45Z</time>
      </trkpt>
      <trkpt lat="45.95054" lon="4.69259">
        <ele>336</ele>
        <time>2018-03-07T11:20:46Z</time>
      </trkpt>
      <trkpt lat="45.95063" lon="4.69266">
        <ele>336</ele>
        <time>2018-03-07T11:20:47Z</time>
      </trkpt>
      <trkpt lat="45.95069" lon="4.69275">
        <ele>336</ele>
        <time>2018-03-07T11:20:48Z</time>
      </trkpt>
      <trkpt lat="45.95077" lon="4.69282">
        <ele>336</ele>
        <time>2018-03-07T11:20:49Z</time>
      </trkpt>
      <trkpt lat="45.95085" lon="4.69289">
        <ele>334</ele>
        <time>2018-03-07T11:20:50Z</time>
      </trkpt>
      <trkpt lat="45.95092" lon="4.69297">
        <ele>334</ele>
        <time>2018-03-07T11:20:51Z</time>
      </trkpt>
      <trkpt lat="45.95098" lon="4.69304">
        <ele>334</ele>
        <time>2018-03-07T11:20:52Z</time>
      </trkpt>
      <trkpt lat="45.95105" lon="4.69312">
        <ele>334</ele>
        <time>2018-03-07T11:20:53Z</time>
      </trkpt>
      <trkpt lat="45.95113" lon="4.69321">
        <ele>334</ele>
        <time>2018-03-07T11:20:54Z</time>
      </trkpt>
      <trkpt lat="45.95119" lon="4.69328">
        <ele>334</ele>
        <time>2018-03-07T11:20:55Z</time>
      </trkpt>
      <trkpt lat="45.95125" lon="4.69336">
        <ele>336</ele>
        <time>2018-03-07T11:20:56Z</time>
      </trkpt>
      <trkpt lat="45.9513" lon="4.69342">
        <ele>337</ele>
        <time>2018-03-07T11:20:57Z</time>
      </trkpt>
      <trkpt lat="45.95137" lon="4.69348">
        <ele>337</ele>
        <time>2018-03-07T11:20:58Z</time>
      </trkpt>
      <trkpt lat="45.95142" lon="4.69354">
        <ele>337</ele>
        <time>2018-03-07T11:20:59Z</time>
      </trkpt>
      <trkpt lat="45.95148" lon="4.6936">
        <ele>337</ele>
        <time>2018-03-07T11:21:00Z</time>
      </trkpt>
      <trkpt lat="45.95153" lon="4.69365">
        <ele>337</ele>
        <time>2018-03-07T11:21:01Z</time>
      </trkpt>
      <trkpt lat="45.95161" lon="4.69371">
        <ele>337</ele>
        <time>2018-03-07T11:21:02Z</time>
      </trkpt>
      <trkpt lat="45.95167" lon="4.69376">
        <ele>337</ele>
        <time>2018-03-07T11:21:03Z</time>
      </trkpt>
      <trkpt lat="45.95173" lon="4.69382">
        <ele>337</ele>
        <time>2018-03-07T11:21:04Z</time>
      </trkpt>
      <trkpt lat="45.95178" lon="4.69387">
        <ele>337</ele>
        <time>2018-03-07T11:21:05Z</time>
      </trkpt>
      <trkpt lat="45.95184" lon="4.69392">
        <ele>337</ele>
        <time>2018-03-07T11:21:06Z</time>
      </trkpt>
      <trkpt lat="45.95189" lon="4.69395">
        <ele>337</ele>
        <time>2018-03-07T11:21:07Z</time>
      </trkpt>
      <trkpt lat="45.95194" lon="4.69398">
        <ele>337</ele>
        <time>2018-03-07T11:21:08Z</time>
      </trkpt>
      <trkpt lat="45.95199" lon="4.69402">
        <ele>337</ele>
        <time>2018-03-07T11:21:09Z</time>
      </trkpt>
      <trkpt lat="45.95205" lon="4.69405">
        <ele>337</ele>
        <time>2018-03-07T11:21:10Z</time>
      </trkpt>
      <trkpt lat="45.95209" lon="4.69409">
        <ele>337</ele>
        <time>2018-03-07T11:21:11Z</time>
      </trkpt>
      <trkpt lat="45.95214" lon="4.69411">
        <ele>337</ele>
        <time>2018-03-07T11:21:12Z</time>
      </trkpt>
      <trkpt lat="45.9522" lon="4.69414">
        <ele>337</ele>
        <time>2018-03-07T11:21:13Z</time>
      </trkpt>
      <trkpt lat="45.95225" lon="4.69417">
        <ele>340</ele>
        <time>2018-03-07T11:21:14Z</time>
      </trkpt>
      <trkpt lat="45.95231" lon="4.69417">
        <ele>339</ele>
        <time>2018-03-07T11:21:15Z</time>
      </trkpt>
      <trkpt lat="45.95235" lon="4.6942">
        <ele>339</ele>
        <time>2018-03-07T11:21:16Z</time>
      </trkpt>
      <trkpt lat="45.95241" lon="4.69423">
        <ele>339</ele>
        <time>2018-03-07T11:21:17Z</time>
      </trkpt>
      <trkpt lat="45.95246" lon="4.69426">
        <ele>339</ele>
        <time>2018-03-07T11:21:18Z</time>
      </trkpt>
      <trkpt lat="45.9525" lon="4.69428">
        <ele>338</ele>
        <time>2018-03-07T11:21:19Z</time>
      </trkpt>
      <trkpt lat="45.95255" lon="4.69431">
        <ele>338</ele>
        <time>2018-03-07T11:21:20Z</time>
      </trkpt>
      <trkpt lat="45.95261" lon="4.69434">
        <ele>338</ele>
        <time>2018-03-07T11:21:21Z</time>
      </trkpt>
      <trkpt lat="45.95267" lon="4.69436">
        <ele>338</ele>
        <time>2018-03-07T11:21:22Z</time>
      </trkpt>
      <trkpt lat="45.95273" lon="4.69438">
        <ele>338</ele>
        <time>2018-03-07T11:21:23Z</time>
      </trkpt>
      <trkpt lat="45.95278" lon="4.69441">
        <ele>338</ele>
        <time>2018-03-07T11:21:24Z</time>
      </trkpt>
      <trkpt lat="45.95284" lon="4.69444">
        <ele>338</ele>
        <time>2018-03-07T11:21:25Z</time>
      </trkpt>
      <trkpt lat="45.95289" lon="4.69447">
        <ele>338</ele>
        <time>2018-03-07T11:21:26Z</time>
      </trkpt>
      <trkpt lat="45.95295" lon="4.69449">
        <ele>338</ele>
        <time>2018-03-07T11:21:27Z</time>
      </trkpt>
      <trkpt lat="45.953" lon="4.6945">
        <ele>338</ele>
        <time>2018-03-07T11:21:28Z</time>
      </trkpt>
      <trkpt lat="45.95305" lon="4.69453">
        <ele>338</ele>
        <time>2018-03-07T11:21:29Z</time>
      </trkpt>
      <trkpt lat="45.9531" lon="4.69455">
        <ele>338</ele>
        <time>2018-03-07T11:21:30Z</time>
      </trkpt>
      <trkpt lat="45.95316" lon="4.69457">
        <ele>338</ele>
        <time>2018-03-07T11:21:31Z</time>
      </trkpt>
      <trkpt lat="45.95322" lon="4.69461">
        <ele>338</ele>
        <time>2018-03-07T11:21:32Z</time>
      </trkpt>
      <trkpt lat="45.95327" lon="4.69464">
        <ele>338</ele>
        <time>2018-03-07T11:21:33Z</time>
      </trkpt>
      <trkpt lat="45.95333" lon="4.69467">
        <ele>339</ele>
        <time>2018-03-07T11:21:34Z</time>
      </trkpt>
      <trkpt lat="45.95338" lon="4.69469">
        <ele>337</ele>
        <time>2018-03-07T11:21:35Z</time>
      </trkpt>
      <trkpt lat="45.95344" lon="4.69472">
        <ele>337</ele>
        <time>2018-03-07T11:21:36Z</time>
      </trkpt>
      <trkpt lat="45.95349" lon="4.69476">
        <ele>337</ele>
        <time>2018-03-07T11:21:37Z</time>
      </trkpt>
      <trkpt lat="45.95353" lon="4.6948">
        <ele>337</ele>
        <time>2018-03-07T11:21:38Z</time>
      </trkpt>
      <trkpt lat="45.95358" lon="4.69485">
        <ele>337</ele>
        <time>2018-03-07T11:21:39Z</time>
      </trkpt>
      <trkpt lat="45.95364" lon="4.69489">
        <ele>337</ele>
        <time>2018-03-07T11:21:40Z</time>
      </trkpt>
      <trkpt lat="45.9537" lon="4.69493">
        <ele>337</ele>
        <time>2018-03-07T11:21:41Z</time>
      </trkpt>
      <trkpt lat="45.95376" lon="4.69497">
        <ele>337</ele>
        <time>2018-03-07T11:21:42Z</time>
      </trkpt>
      <trkpt lat="45.95381" lon="4.69501">
        <ele>340</ele>
        <time>2018-03-07T11:21:43Z</time>
      </trkpt>
      <trkpt lat="45.95387" lon="4.69502">
        <ele>340</ele>
        <time>2018-03-07T11:21:44Z</time>
      </trkpt>
      <trkpt lat="45.95392" lon="4.69509">
        <ele>339</ele>
        <time>2018-03-07T11:21:45Z</time>
      </trkpt>
      <trkpt lat="45.95397" lon="4.69513">
        <ele>339</ele>
        <time>2018-03-07T11:21:46Z</time>
      </trkpt>
      <trkpt lat="45.95404" lon="4.69518">
        <ele>339</ele>
        <time>2018-03-07T11:21:47Z</time>
      </trkpt>
      <trkpt lat="45.95409" lon="4.6952">
        <ele>339</ele>
        <time>2018-03-07T11:21:48Z</time>
      </trkpt>
      <trkpt lat="45.95417" lon="4.69525">
        <ele>337</ele>
        <time>2018-03-07T11:21:49Z</time>
      </trkpt>
      <trkpt lat="45.95424" lon="4.69528">
        <ele>337</ele>
        <time>2018-03-07T11:21:50Z</time>
      </trkpt>
      <trkpt lat="45.9543" lon="4.69531">
        <ele>337</ele>
        <time>2018-03-07T11:21:51Z</time>
      </trkpt>
      <trkpt lat="45.95438" lon="4.69538">
        <ele>337</ele>
        <time>2018-03-07T11:21:52Z</time>
      </trkpt>
      <trkpt lat="45.95445" lon="4.69541">
        <ele>337</ele>
        <time>2018-03-07T11:21:53Z</time>
      </trkpt>
      <trkpt lat="45.95452" lon="4.69544">
        <ele>337</ele>
        <time>2018-03-07T11:21:54Z</time>
      </trkpt>
      <trkpt lat="45.95459" lon="4.69549">
        <ele>337</ele>
        <time>2018-03-07T11:21:55Z</time>
      </trkpt>
      <trkpt lat="45.95467" lon="4.69553">
        <ele>337</ele>
        <time>2018-03-07T11:21:56Z</time>
      </trkpt>
      <trkpt lat="45.95473" lon="4.69558">
        <ele>337</ele>
        <time>2018-03-07T11:21:57Z</time>
      </trkpt>
      <trkpt lat="45.9548" lon="4.69561">
        <ele>337</ele>
        <time>2018-03-07T11:21:58Z</time>
      </trkpt>
      <trkpt lat="45.95489" lon="4.69564">
        <ele>337</ele>
        <time>2018-03-07T11:21:59Z</time>
      </trkpt>
      <trkpt lat="45.95497" lon="4.69567">
        <ele>337</ele>
        <time>2018-03-07T11:22:00Z</time>
      </trkpt>
      <trkpt lat="45.95505" lon="4.6957">
        <ele>334</ele>
        <time>2018-03-07T11:22:01Z</time>
      </trkpt>
      <trkpt lat="45.95513" lon="4.69574">
        <ele>334</ele>
        <time>2018-03-07T11:22:02Z</time>
      </trkpt>
      <trkpt lat="45.95521" lon="4.69578">
        <ele>333</ele>
        <time>2018-03-07T11:22:03Z</time>
      </trkpt>
      <trkpt lat="45.95529" lon="4.6958">
        <ele>333</ele>
        <time>2018-03-07T11:22:04Z</time>
      </trkpt>
      <trkpt lat="45.95538" lon="4.69584">
        <ele>332</ele>
        <time>2018-03-07T11:22:05Z</time>
      </trkpt>
      <trkpt lat="45.95548" lon="4.69588">
        <ele>331</ele>
        <time>2018-03-07T11:22:06Z</time>
      </trkpt>
      <trkpt lat="45.95557" lon="4.69591">
        <ele>331</ele>
        <time>2018-03-07T11:22:07Z</time>
      </trkpt>
      <trkpt lat="45.95566" lon="4.69596">
        <ele>330</ele>
        <time>2018-03-07T11:22:08Z</time>
      </trkpt>
      <trkpt lat="45.95575" lon="4.696">
        <ele>330</ele>
        <time>2018-03-07T11:22:09Z</time>
      </trkpt>
      <trkpt lat="45.95584" lon="4.69603">
        <ele>328</ele>
        <time>2018-03-07T11:22:10Z</time>
      </trkpt>
      <trkpt lat="45.95592" lon="4.69606">
        <ele>328</ele>
        <time>2018-03-07T11:22:11Z</time>
      </trkpt>
      <trkpt lat="45.95599" lon="4.6961">
        <ele>328</ele>
        <time>2018-03-07T11:22:12Z</time>
      </trkpt>
      <trkpt lat="45.95608" lon="4.69614">
        <ele>328</ele>
        <time>2018-03-07T11:22:13Z</time>
      </trkpt>
      <trkpt lat="45.95616" lon="4.69618">
        <ele>328</ele>
        <time>2018-03-07T11:22:14Z</time>
      </trkpt>
      <trkpt lat="45.95625" lon="4.69622">
        <ele>328</ele>
        <time>2018-03-07T11:22:15Z</time>
      </trkpt>
      <trkpt lat="45.95634" lon="4.69625">
        <ele>328</ele>
        <time>2018-03-07T11:22:16Z</time>
      </trkpt>
      <trkpt lat="45.95643" lon="4.69628">
        <ele>328</ele>
        <time>2018-03-07T11:22:17Z</time>
      </trkpt>
      <trkpt lat="45.95651" lon="4.69632">
        <ele>328</ele>
        <time>2018-03-07T11:22:18Z</time>
      </trkpt>
      <trkpt lat="45.95659" lon="4.69634">
        <ele>327</ele>
        <time>2018-03-07T11:22:19Z</time>
      </trkpt>
      <trkpt lat="45.95667" lon="4.69637">
        <ele>327</ele>
        <time>2018-03-07T11:22:20Z</time>
      </trkpt>
      <trkpt lat="45.95674" lon="4.69639">
        <ele>326</ele>
        <time>2018-03-07T11:22:21Z</time>
      </trkpt>
      <trkpt lat="45.95683" lon="4.69643">
        <ele>326</ele>
        <time>2018-03-07T11:22:22Z</time>
      </trkpt>
      <trkpt lat="45.95691" lon="4.69647">
        <ele>326</ele>
        <time>2018-03-07T11:22:23Z</time>
      </trkpt>
      <trkpt lat="45.95698" lon="4.6965">
        <ele>326</ele>
        <time>2018-03-07T11:22:24Z</time>
      </trkpt>
      <trkpt lat="45.95706" lon="4.69653">
        <ele>326</ele>
        <time>2018-03-07T11:22:25Z</time>
      </trkpt>
      <trkpt lat="45.95713" lon="4.69656">
        <ele>326</ele>
        <time>2018-03-07T11:22:26Z</time>
      </trkpt>
      <trkpt lat="45.9572" lon="4.69659">
        <ele>326</ele>
        <time>2018-03-07T11:22:27Z</time>
      </trkpt>
      <trkpt lat="45.95727" lon="4.69662">
        <ele>326</ele>
        <time>2018-03-07T11:22:28Z</time>
      </trkpt>
      <trkpt lat="45.95735" lon="4.69665">
        <ele>326</ele>
        <time>2018-03-07T11:22:29Z</time>
      </trkpt>
      <trkpt lat="45.95743" lon="4.69669">
        <ele>326</ele>
        <time>2018-03-07T11:22:30Z</time>
      </trkpt>
      <trkpt lat="45.9575" lon="4.69673">
        <ele>326</ele>
        <time>2018-03-07T11:22:31Z</time>
      </trkpt>
      <trkpt lat="45.95758" lon="4.69676">
        <ele>326</ele>
        <time>2018-03-07T11:22:32Z</time>
      </trkpt>
      <trkpt lat="45.95764" lon="4.69679">
        <ele>326</ele>
        <time>2018-03-07T11:22:33Z</time>
      </trkpt>
      <trkpt lat="45.9577" lon="4.69682">
        <ele>326</ele>
        <time>2018-03-07T11:22:34Z</time>
      </trkpt>
      <trkpt lat="45.95777" lon="4.69686">
        <ele>326</ele>
        <time>2018-03-07T11:22:35Z</time>
      </trkpt>
      <trkpt lat="45.95782" lon="4.6969">
        <ele>326</ele>
        <time>2018-03-07T11:22:36Z</time>
      </trkpt>
      <trkpt lat="45.95788" lon="4.69695">
        <ele>326</ele>
        <time>2018-03-07T11:22:37Z</time>
      </trkpt>
      <trkpt lat="45.95793" lon="4.697">
        <ele>326</ele>
        <time>2018-03-07T11:22:38Z</time>
      </trkpt>
      <trkpt lat="45.95798" lon="4.69706">
        <ele>326</ele>
        <time>2018-03-07T11:22:39Z</time>
      </trkpt>
      <trkpt lat="45.95804" lon="4.69712">
        <ele>326</ele>
        <time>2018-03-07T11:22:40Z</time>
      </trkpt>
      <trkpt lat="45.95808" lon="4.69721">
        <ele>326</ele>
        <time>2018-03-07T11:22:41Z</time>
      </trkpt>
      <trkpt lat="45.95811" lon="4.69728">
        <ele>326</ele>
        <time>2018-03-07T11:22:42Z</time>
      </trkpt>
      <trkpt lat="45.95814" lon="4.69735">
        <ele>327</ele>
        <time>2018-03-07T11:22:43Z</time>
      </trkpt>
      <trkpt lat="45.95818" lon="4.69741">
        <ele>327</ele>
        <time>2018-03-07T11:22:44Z</time>
      </trkpt>
      <trkpt lat="45.95821" lon="4.69747">
        <ele>327</ele>
        <time>2018-03-07T11:22:45Z</time>
      </trkpt>
      <trkpt lat="45.95825" lon="4.69753">
        <ele>327</ele>
        <time>2018-03-07T11:22:46Z</time>
      </trkpt>
      <trkpt lat="45.95829" lon="4.6976">
        <ele>328</ele>
        <time>2018-03-07T11:22:47Z</time>
      </trkpt>
      <trkpt lat="45.95832" lon="4.69766">
        <ele>328</ele>
        <time>2018-03-07T11:22:48Z</time>
      </trkpt>
      <trkpt lat="45.95836" lon="4.69772">
        <ele>327</ele>
        <time>2018-03-07T11:22:49Z</time>
      </trkpt>
      <trkpt lat="45.95842" lon="4.69778">
        <ele>327</ele>
        <time>2018-03-07T11:22:50Z</time>
      </trkpt>
      <trkpt lat="45.95845" lon="4.69785">
        <ele>327</ele>
        <time>2018-03-07T11:22:51Z</time>
      </trkpt>
      <trkpt lat="45.95848" lon="4.69791">
        <ele>327</ele>
        <time>2018-03-07T11:22:52Z</time>
      </trkpt>
      <trkpt lat="45.95853" lon="4.69799">
        <ele>327</ele>
        <time>2018-03-07T11:22:53Z</time>
      </trkpt>
      <trkpt lat="45.95857" lon="4.69806">
        <ele>327</ele>
        <time>2018-03-07T11:22:54Z</time>
      </trkpt>
      <trkpt lat="45.95859" lon="4.69813">
        <ele>327</ele>
        <time>2018-03-07T11:22:55Z</time>
      </trkpt>
      <trkpt lat="45.95862" lon="4.69819">
        <ele>328</ele>
        <time>2018-03-07T11:22:56Z</time>
      </trkpt>
      <trkpt lat="45.95865" lon="4.69826">
        <ele>328</ele>
        <time>2018-03-07T11:22:57Z</time>
      </trkpt>
      <trkpt lat="45.95867" lon="4.69833">
        <ele>328</ele>
        <time>2018-03-07T11:22:58Z</time>
      </trkpt>
      <trkpt lat="45.9587" lon="4.69839">
        <ele>329</ele>
        <time>2018-03-07T11:22:59Z</time>
      </trkpt>
      <trkpt lat="45.95871" lon="4.69847">
        <ele>329</ele>
        <time>2018-03-07T11:23:00Z</time>
      </trkpt>
      <trkpt lat="45.95873" lon="4.69854">
        <ele>329</ele>
        <time>2018-03-07T11:23:01Z</time>
      </trkpt>
      <trkpt lat="45.95875" lon="4.69862">
        <ele>329</ele>
        <time>2018-03-07T11:23:02Z</time>
      </trkpt>
      <trkpt lat="45.95877" lon="4.69869">
        <ele>329</ele>
        <time>2018-03-07T11:23:03Z</time>
      </trkpt>
      <trkpt lat="45.95879" lon="4.69877">
        <ele>329</ele>
        <time>2018-03-07T11:23:04Z</time>
      </trkpt>
      <trkpt lat="45.95881" lon="4.69884">
        <ele>329</ele>
        <time>2018-03-07T11:23:05Z</time>
      </trkpt>
      <trkpt lat="45.95883" lon="4.69892">
        <ele>329</ele>
        <time>2018-03-07T11:23:06Z</time>
      </trkpt>
      <trkpt lat="45.95883" lon="4.69899">
        <ele>329</ele>
        <time>2018-03-07T11:23:07Z</time>
      </trkpt>
      <trkpt lat="45.95885" lon="4.69907">
        <ele>329</ele>
        <time>2018-03-07T11:23:08Z</time>
      </trkpt>
      <trkpt lat="45.95887" lon="4.69914">
        <ele>329</ele>
        <time>2018-03-07T11:23:09Z</time>
      </trkpt>
      <trkpt lat="45.9589" lon="4.69923">
        <ele>328</ele>
        <time>2018-03-07T11:23:10Z</time>
      </trkpt>
      <trkpt lat="45.95893" lon="4.69931">
        <ele>328</ele>
        <time>2018-03-07T11:23:11Z</time>
      </trkpt>
      <trkpt lat="45.95894" lon="4.69939">
        <ele>328</ele>
        <time>2018-03-07T11:23:12Z</time>
      </trkpt>
      <trkpt lat="45.95896" lon="4.69947">
        <ele>328</ele>
        <time>2018-03-07T11:23:13Z</time>
      </trkpt>
      <trkpt lat="45.95898" lon="4.69955">
        <ele>328</ele>
        <time>2018-03-07T11:23:14Z</time>
      </trkpt>
      <trkpt lat="45.95899" lon="4.69962">
        <ele>328</ele>
        <time>2018-03-07T11:23:15Z</time>
      </trkpt>
      <trkpt lat="45.95901" lon="4.69971">
        <ele>328</ele>
        <time>2018-03-07T11:23:16Z</time>
      </trkpt>
      <trkpt lat="45.95903" lon="4.69979">
        <ele>328</ele>
        <time>2018-03-07T11:23:17Z</time>
      </trkpt>
      <trkpt lat="45.95905" lon="4.69988">
        <ele>328</ele>
        <time>2018-03-07T11:23:18Z</time>
      </trkpt>
      <trkpt lat="45.95908" lon="4.69994">
        <ele>328</ele>
        <time>2018-03-07T11:23:19Z</time>
      </trkpt>
      <trkpt lat="45.95911" lon="4.70003">
        <ele>328</ele>
        <time>2018-03-07T11:23:20Z</time>
      </trkpt>
      <trkpt lat="45.95914" lon="4.7001">
        <ele>328</ele>
        <time>2018-03-07T11:23:21Z</time>
      </trkpt>
      <trkpt lat="45.95918" lon="4.70017">
        <ele>328</ele>
        <time>2018-03-07T11:23:22Z</time>
      </trkpt>
      <trkpt lat="45.95921" lon="4.70024">
        <ele>328</ele>
        <time>2018-03-07T11:23:23Z</time>
      </trkpt>
      <trkpt lat="45.95924" lon="4.7003">
        <ele>328</ele>
        <time>2018-03-07T11:23:24Z</time>
      </trkpt>
      <trkpt lat="45.95926" lon="4.70037">
        <ele>328</ele>
        <time>2018-03-07T11:23:25Z</time>
      </trkpt>
      <trkpt lat="45.95931" lon="4.70044">
        <ele>328</ele>
        <time>2018-03-07T11:23:26Z</time>
      </trkpt>
      <trkpt lat="45.95935" lon="4.70049">
        <ele>328</ele>
        <time>2018-03-07T11:23:27Z</time>
      </trkpt>
      <trkpt lat="45.95939" lon="4.70056">
        <ele>328</ele>
        <time>2018-03-07T11:23:28Z</time>
      </trkpt>
      <trkpt lat="45.95942" lon="4.70063">
        <ele>328</ele>
        <time>2018-03-07T11:23:29Z</time>
      </trkpt>
      <trkpt lat="45.95945" lon="4.70068">
        <ele>328</ele>
        <time>2018-03-07T11:23:30Z</time>
      </trkpt>
      <trkpt lat="45.95949" lon="4.70073">
        <ele>328</ele>
        <time>2018-03-07T11:23:31Z</time>
      </trkpt>
      <trkpt lat="45.95954" lon="4.70079">
        <ele>328</ele>
        <time>2018-03-07T11:23:32Z</time>
      </trkpt>
      <trkpt lat="45.9596" lon="4.70084">
        <ele>328</ele>
        <time>2018-03-07T11:23:33Z</time>
      </trkpt>
      <trkpt lat="45.95966" lon="4.70089">
        <ele>328</ele>
        <time>2018-03-07T11:23:34Z</time>
      </trkpt>
      <trkpt lat="45.95968" lon="4.7009">
        <ele>328</ele>
        <time>2018-03-07T11:23:35Z</time>
      </trkpt>
      <trkpt lat="45.95973" lon="4.70095">
        <ele>328</ele>
        <time>2018-03-07T11:23:36Z</time>
      </trkpt>
      <trkpt lat="45.95981" lon="4.701">
        <ele>328</ele>
        <time>2018-03-07T11:23:37Z</time>
      </trkpt>
      <trkpt lat="45.95985" lon="4.70107">
        <ele>328</ele>
        <time>2018-03-07T11:23:38Z</time>
      </trkpt>
      <trkpt lat="45.95991" lon="4.70113">
        <ele>328</ele>
        <time>2018-03-07T11:23:39Z</time>
      </trkpt>
      <trkpt lat="45.95996" lon="4.70117">
        <ele>328</ele>
        <time>2018-03-07T11:23:40Z</time>
      </trkpt>
      <trkpt lat="45.96001" lon="4.70121">
        <ele>328</ele>
        <time>2018-03-07T11:23:41Z</time>
      </trkpt>
      <trkpt lat="45.96006" lon="4.70126">
        <ele>328</ele>
        <time>2018-03-07T11:23:42Z</time>
      </trkpt>
      <trkpt lat="45.96011" lon="4.70131">
        <ele>328</ele>
        <time>2018-03-07T11:23:43Z</time>
      </trkpt>
      <trkpt lat="45.96016" lon="4.70136">
        <ele>328</ele>
        <time>2018-03-07T11:23:44Z</time>
      </trkpt>
      <trkpt lat="45.96021" lon="4.7014">
        <ele>329</ele>
        <time>2018-03-07T11:23:45Z</time>
      </trkpt>
      <trkpt lat="45.96026" lon="4.70146">
        <ele>329</ele>
        <time>2018-03-07T11:23:46Z</time>
      </trkpt>
      <trkpt lat="45.96031" lon="4.7015">
        <ele>329</ele>
        <time>2018-03-07T11:23:47Z</time>
      </trkpt>
      <trkpt lat="45.96036" lon="4.70155">
        <ele>329</ele>
        <time>2018-03-07T11:23:48Z</time>
      </trkpt>
      <trkpt lat="45.96042" lon="4.70159">
        <ele>329</ele>
        <time>2018-03-07T11:23:49Z</time>
      </trkpt>
      <trkpt lat="45.96047" lon="4.70164">
        <ele>328</ele>
        <time>2018-03-07T11:23:50Z</time>
      </trkpt>
      <trkpt lat="45.96052" lon="4.7017">
        <ele>327</ele>
        <time>2018-03-07T11:23:51Z</time>
      </trkpt>
      <trkpt lat="45.96058" lon="4.70176">
        <ele>327</ele>
        <time>2018-03-07T11:23:52Z</time>
      </trkpt>
      <trkpt lat="45.96064" lon="4.70181">
        <ele>327</ele>
        <time>2018-03-07T11:23:53Z</time>
      </trkpt>
      <trkpt lat="45.9607" lon="4.70185">
        <ele>327</ele>
        <time>2018-03-07T11:23:54Z</time>
      </trkpt>
      <trkpt lat="45.96075" lon="4.70191">
        <ele>327</ele>
        <time>2018-03-07T11:23:55Z</time>
      </trkpt>
      <trkpt lat="45.96081" lon="4.70196">
        <ele>327</ele>
        <time>2018-03-07T11:23:56Z</time>
      </trkpt>
      <trkpt lat="45.96087" lon="4.70202">
        <ele>327</ele>
        <time>2018-03-07T11:23:57Z</time>
      </trkpt>
      <trkpt lat="45.96094" lon="4.70208">
        <ele>327</ele>
        <time>2018-03-07T11:23:58Z</time>
      </trkpt>
      <trkpt lat="45.961" lon="4.70212">
        <ele>327</ele>
        <time>2018-03-07T11:23:59Z</time>
      </trkpt>
      <trkpt lat="45.96106" lon="4.70218">
        <ele>327</ele>
        <time>2018-03-07T11:24:00Z</time>
      </trkpt>
      <trkpt lat="45.96112" lon="4.70224">
        <ele>327</ele>
        <time>2018-03-07T11:24:01Z</time>
      </trkpt>
      <trkpt lat="45.96119" lon="4.7023">
        <ele>327</ele>
        <time>2018-03-07T11:24:02Z</time>
      </trkpt>
      <trkpt lat="45.96126" lon="4.70236">
        <ele>327</ele>
        <time>2018-03-07T11:24:03Z</time>
      </trkpt>
      <trkpt lat="45.96132" lon="4.70242">
        <ele>327</ele>
        <time>2018-03-07T11:24:04Z</time>
      </trkpt>
      <trkpt lat="45.96138" lon="4.70249">
        <ele>327</ele>
        <time>2018-03-07T11:24:05Z</time>
      </trkpt>
      <trkpt lat="45.96145" lon="4.70255">
        <ele>324</ele>
        <time>2018-03-07T11:24:06Z</time>
      </trkpt>
      <trkpt lat="45.96151" lon="4.70262">
        <ele>324</ele>
        <time>2018-03-07T11:24:07Z</time>
      </trkpt>
      <trkpt lat="45.96157" lon="4.70268">
        <ele>324</ele>
        <time>2018-03-07T11:24:08Z</time>
      </trkpt>
      <trkpt lat="45.96163" lon="4.70276">
        <ele>324</ele>
        <time>2018-03-07T11:24:09Z</time>
      </trkpt>
      <trkpt lat="45.96169" lon="4.70283">
        <ele>326</ele>
        <time>2018-03-07T11:24:10Z</time>
      </trkpt>
      <trkpt lat="45.96175" lon="4.7029">
        <ele>326</ele>
        <time>2018-03-07T11:24:11Z</time>
      </trkpt>
      <trkpt lat="45.9618" lon="4.70297">
        <ele>326</ele>
        <time>2018-03-07T11:24:12Z</time>
      </trkpt>
      <trkpt lat="45.96186" lon="4.70306">
        <ele>325</ele>
        <time>2018-03-07T11:24:13Z</time>
      </trkpt>
      <trkpt lat="45.96191" lon="4.70314">
        <ele>325</ele>
        <time>2018-03-07T11:24:14Z</time>
      </trkpt>
      <trkpt lat="45.96197" lon="4.70323">
        <ele>325</ele>
        <time>2018-03-07T11:24:15Z</time>
      </trkpt>
      <trkpt lat="45.96202" lon="4.70331">
        <ele>326</ele>
        <time>2018-03-07T11:24:16Z</time>
      </trkpt>
      <trkpt lat="45.96209" lon="4.7034">
        <ele>321</ele>
        <time>2018-03-07T11:24:17Z</time>
      </trkpt>
      <trkpt lat="45.96214" lon="4.70347">
        <ele>321</ele>
        <time>2018-03-07T11:24:18Z</time>
      </trkpt>
      <trkpt lat="45.96219" lon="4.70357">
        <ele>321</ele>
        <time>2018-03-07T11:24:19Z</time>
      </trkpt>
      <trkpt lat="45.96225" lon="4.70366">
        <ele>321</ele>
        <time>2018-03-07T11:24:20Z</time>
      </trkpt>
      <trkpt lat="45.9623" lon="4.70375">
        <ele>321</ele>
        <time>2018-03-07T11:24:21Z</time>
      </trkpt>
      <trkpt lat="45.96236" lon="4.70384">
        <ele>320</ele>
        <time>2018-03-07T11:24:22Z</time>
      </trkpt>
      <trkpt lat="45.96242" lon="4.70394">
        <ele>320</ele>
        <time>2018-03-07T11:24:23Z</time>
      </trkpt>
      <trkpt lat="45.96247" lon="4.70401">
        <ele>320</ele>
        <time>2018-03-07T11:24:24Z</time>
      </trkpt>
      <trkpt lat="45.96254" lon="4.70411">
        <ele>322</ele>
        <time>2018-03-07T11:24:25Z</time>
      </trkpt>
      <trkpt lat="45.96261" lon="4.7042">
        <ele>320</ele>
        <time>2018-03-07T11:24:26Z</time>
      </trkpt>
      <trkpt lat="45.96267" lon="4.70429">
        <ele>321</ele>
        <time>2018-03-07T11:24:27Z</time>
      </trkpt>
      <trkpt lat="45.96273" lon="4.70438">
        <ele>321</ele>
        <time>2018-03-07T11:24:28Z</time>
      </trkpt>
      <trkpt lat="45.9628" lon="4.70448">
        <ele>321</ele>
        <time>2018-03-07T11:24:29Z</time>
      </trkpt>
      <trkpt lat="45.96286" lon="4.70457">
        <ele>321</ele>
        <time>2018-03-07T11:24:30Z</time>
      </trkpt>
      <trkpt lat="45.96293" lon="4.70469">
        <ele>320</ele>
        <time>2018-03-07T11:24:31Z</time>
      </trkpt>
      <trkpt lat="45.96299" lon="4.70478">
        <ele>320</ele>
        <time>2018-03-07T11:24:32Z</time>
      </trkpt>
      <trkpt lat="45.96306" lon="4.70488">
        <ele>320</ele>
        <time>2018-03-07T11:24:33Z</time>
      </trkpt>
      <trkpt lat="45.96312" lon="4.70496">
        <ele>320</ele>
        <time>2018-03-07T11:24:34Z</time>
      </trkpt>
      <trkpt lat="45.96319" lon="4.70505">
        <ele>317</ele>
        <time>2018-03-07T11:24:35Z</time>
      </trkpt>
      <trkpt lat="45.96326" lon="4.70513">
        <ele>316</ele>
        <time>2018-03-07T11:24:36Z</time>
      </trkpt>
      <trkpt lat="45.96332" lon="4.70522">
        <ele>316</ele>
        <time>2018-03-07T11:24:37Z</time>
      </trkpt>
      <trkpt lat="45.9634" lon="4.7053">
        <ele>319</ele>
        <time>2018-03-07T11:24:38Z</time>
      </trkpt>
      <trkpt lat="45.96348" lon="4.70539">
        <ele>319</ele>
        <time>2018-03-07T11:24:39Z</time>
      </trkpt>
      <trkpt lat="45.96355" lon="4.70547">
        <ele>318</ele>
        <time>2018-03-07T11:24:40Z</time>
      </trkpt>
      <trkpt lat="45.96361" lon="4.70557">
        <ele>318</ele>
        <time>2018-03-07T11:24:41Z</time>
      </trkpt>
      <trkpt lat="45.96368" lon="4.70567">
        <ele>318</ele>
        <time>2018-03-07T11:24:42Z</time>
      </trkpt>
      <trkpt lat="45.96377" lon="4.70576">
        <ele>318</ele>
        <time>2018-03-07T11:24:43Z</time>
      </trkpt>
      <trkpt lat="45.96383" lon="4.70587">
        <ele>312</ele>
        <time>2018-03-07T11:24:44Z</time>
      </trkpt>
      <trkpt lat="45.96389" lon="4.70595">
        <ele>312</ele>
        <time>2018-03-07T11:24:45Z</time>
      </trkpt>
      <trkpt lat="45.96396" lon="4.70604">
        <ele>312</ele>
        <time>2018-03-07T11:24:46Z</time>
      </trkpt>
      <trkpt lat="45.96403" lon="4.70612">
        <ele>312</ele>
        <time>2018-03-07T11:24:47Z</time>
      </trkpt>
      <trkpt lat="45.96412" lon="4.70623">
        <ele>311</ele>
        <time>2018-03-07T11:24:48Z</time>
      </trkpt>
      <trkpt lat="45.9642" lon="4.70632">
        <ele>313</ele>
        <time>2018-03-07T11:24:49Z</time>
      </trkpt>
      <trkpt lat="45.96428" lon="4.70641">
        <ele>312</ele>
        <time>2018-03-07T11:24:50Z</time>
      </trkpt>
      <trkpt lat="45.96435" lon="4.70649">
        <ele>312</ele>
        <time>2018-03-07T11:24:51Z</time>
      </trkpt>
      <trkpt lat="45.96444" lon="4.70659">
        <ele>312</ele>
        <time>2018-03-07T11:24:52Z</time>
      </trkpt>
      <trkpt lat="45.96452" lon="4.70667">
        <ele>305</ele>
        <time>2018-03-07T11:24:53Z</time>
      </trkpt>
      <trkpt lat="45.96461" lon="4.70675">
        <ele>305</ele>
        <time>2018-03-07T11:24:54Z</time>
      </trkpt>
      <trkpt lat="45.9647" lon="4.70684">
        <ele>305</ele>
        <time>2018-03-07T11:24:55Z</time>
      </trkpt>
      <trkpt lat="45.96479" lon="4.70693">
        <ele>305</ele>
        <time>2018-03-07T11:24:56Z</time>
      </trkpt>
      <trkpt lat="45.96489" lon="4.70703">
        <ele>304</ele>
        <time>2018-03-07T11:24:57Z</time>
      </trkpt>
      <trkpt lat="45.96499" lon="4.7071">
        <ele>304</ele>
        <time>2018-03-07T11:24:58Z</time>
      </trkpt>
      <trkpt lat="45.96509" lon="4.70717">
        <ele>305</ele>
        <time>2018-03-07T11:24:59Z</time>
      </trkpt>
      <trkpt lat="45.96518" lon="4.70725">
        <ele>305</ele>
        <time>2018-03-07T11:25:00Z</time>
      </trkpt>
      <trkpt lat="45.96528" lon="4.70732">
        <ele>305</ele>
        <time>2018-03-07T11:25:01Z</time>
      </trkpt>
      <trkpt lat="45.96538" lon="4.7074">
        <ele>305</ele>
        <time>2018-03-07T11:25:02Z</time>
      </trkpt>
      <trkpt lat="45.96548" lon="4.70749">
        <ele>305</ele>
        <time>2018-03-07T11:25:03Z</time>
      </trkpt>
      <trkpt lat="45.96558" lon="4.70757">
        <ele>299</ele>
        <time>2018-03-07T11:25:04Z</time>
      </trkpt>
      <trkpt lat="45.96569" lon="4.70764">
        <ele>299</ele>
        <time>2018-03-07T11:25:05Z</time>
      </trkpt>
      <trkpt lat="45.96579" lon="4.70772">
        <ele>299</ele>
        <time>2018-03-07T11:25:06Z</time>
      </trkpt>
      <trkpt lat="45.96591" lon="4.7078">
        <ele>299</ele>
        <time>2018-03-07T11:25:07Z</time>
      </trkpt>
      <trkpt lat="45.96602" lon="4.70787">
        <ele>299</ele>
        <time>2018-03-07T11:25:08Z</time>
      </trkpt>
      <trkpt lat="45.96613" lon="4.70795">
        <ele>298</ele>
        <time>2018-03-07T11:25:09Z</time>
      </trkpt>
      <trkpt lat="45.96624" lon="4.70803">
        <ele>298</ele>
        <time>2018-03-07T11:25:10Z</time>
      </trkpt>
      <trkpt lat="45.96636" lon="4.70811">
        <ele>297</ele>
        <time>2018-03-07T11:25:11Z</time>
      </trkpt>
      <trkpt lat="45.96648" lon="4.70819">
        <ele>297</ele>
        <time>2018-03-07T11:25:12Z</time>
      </trkpt>
      <trkpt lat="45.96659" lon="4.70826">
        <ele>296</ele>
        <time>2018-03-07T11:25:13Z</time>
      </trkpt>
      <trkpt lat="45.96671" lon="4.70833">
        <ele>296</ele>
        <time>2018-03-07T11:25:14Z</time>
      </trkpt>
      <trkpt lat="45.96683" lon="4.70841">
        <ele>292</ele>
        <time>2018-03-07T11:25:15Z</time>
      </trkpt>
      <trkpt lat="45.96695" lon="4.70849">
        <ele>290</ele>
        <time>2018-03-07T11:25:16Z</time>
      </trkpt>
      <trkpt lat="45.96706" lon="4.70857">
        <ele>290</ele>
        <time>2018-03-07T11:25:17Z</time>
      </trkpt>
      <trkpt lat="45.96717" lon="4.70865">
        <ele>289</ele>
        <time>2018-03-07T11:25:18Z</time>
      </trkpt>
      <trkpt lat="45.96728" lon="4.70872">
        <ele>289</ele>
        <time>2018-03-07T11:25:19Z</time>
      </trkpt>
      <trkpt lat="45.96739" lon="4.70879">
        <ele>288</ele>
        <time>2018-03-07T11:25:20Z</time>
      </trkpt>
      <trkpt lat="45.96749" lon="4.70886">
        <ele>287</ele>
        <time>2018-03-07T11:25:21Z</time>
      </trkpt>
      <trkpt lat="45.9676" lon="4.70894">
        <ele>288</ele>
        <time>2018-03-07T11:25:22Z</time>
      </trkpt>
      <trkpt lat="45.96771" lon="4.709">
        <ele>288</ele>
        <time>2018-03-07T11:25:23Z</time>
      </trkpt>
      <trkpt lat="45.96782" lon="4.70907">
        <ele>288</ele>
        <time>2018-03-07T11:25:24Z</time>
      </trkpt>
      <trkpt lat="45.96793" lon="4.70915">
        <ele>288</ele>
        <time>2018-03-07T11:25:25Z</time>
      </trkpt>
      <trkpt lat="45.96804" lon="4.70921">
        <ele>280</ele>
        <time>2018-03-07T11:25:26Z</time>
      </trkpt>
      <trkpt lat="45.96815" lon="4.70928">
        <ele>281</ele>
        <time>2018-03-07T11:25:27Z</time>
      </trkpt>
      <trkpt lat="45.96826" lon="4.70934">
        <ele>281</ele>
        <time>2018-03-07T11:25:28Z</time>
      </trkpt>
      <trkpt lat="45.96837" lon="4.70941">
        <ele>281</ele>
        <time>2018-03-07T11:25:29Z</time>
      </trkpt>
      <trkpt lat="45.96847" lon="4.70948">
        <ele>280</ele>
        <time>2018-03-07T11:25:30Z</time>
      </trkpt>
      <trkpt lat="45.96858" lon="4.70955">
        <ele>280</ele>
        <time>2018-03-07T11:25:31Z</time>
      </trkpt>
      <trkpt lat="45.96868" lon="4.7096">
        <ele>279</ele>
        <time>2018-03-07T11:25:32Z</time>
      </trkpt>
      <trkpt lat="45.9688" lon="4.70966">
        <ele>279</ele>
        <time>2018-03-07T11:25:33Z</time>
      </trkpt>
      <trkpt lat="45.96891" lon="4.7097">
        <ele>278</ele>
        <time>2018-03-07T11:25:34Z</time>
      </trkpt>
      <trkpt lat="45.96902" lon="4.70973">
        <ele>278</ele>
        <time>2018-03-07T11:25:35Z</time>
      </trkpt>
      <trkpt lat="45.96914" lon="4.70976">
        <ele>277</ele>
        <time>2018-03-07T11:25:36Z</time>
      </trkpt>
      <trkpt lat="45.96926" lon="4.7098">
        <ele>275</ele>
        <time>2018-03-07T11:25:37Z</time>
      </trkpt>
      <trkpt lat="45.96937" lon="4.70983">
        <ele>275</ele>
        <time>2018-03-07T11:25:38Z</time>
      </trkpt>
      <trkpt lat="45.96948" lon="4.70984">
        <ele>275</ele>
        <time>2018-03-07T11:25:39Z</time>
      </trkpt>
      <trkpt lat="45.96959" lon="4.70987">
        <ele>274</ele>
        <time>2018-03-07T11:25:40Z</time>
      </trkpt>
      <trkpt lat="45.96971" lon="4.70987">
        <ele>274</ele>
        <time>2018-03-07T11:25:41Z</time>
      </trkpt>
      <trkpt lat="45.96983" lon="4.70988">
        <ele>273</ele>
        <time>2018-03-07T11:25:42Z</time>
      </trkpt>
      <trkpt lat="45.96995" lon="4.70988">
        <ele>271</ele>
        <time>2018-03-07T11:25:43Z</time>
      </trkpt>
      <trkpt lat="45.97006" lon="4.70989">
        <ele>269</ele>
        <time>2018-03-07T11:25:44Z</time>
      </trkpt>
      <trkpt lat="45.97018" lon="4.70988">
        <ele>269</ele>
        <time>2018-03-07T11:25:45Z</time>
      </trkpt>
      <trkpt lat="45.9703" lon="4.70987">
        <ele>269</ele>
        <time>2018-03-07T11:25:46Z</time>
      </trkpt>
      <trkpt lat="45.97041" lon="4.70988">
        <ele>269</ele>
        <time>2018-03-07T11:25:47Z</time>
      </trkpt>
      <trkpt lat="45.97052" lon="4.70987">
        <ele>269</ele>
        <time>2018-03-07T11:25:48Z</time>
      </trkpt>
      <trkpt lat="45.97063" lon="4.70986">
        <ele>268</ele>
        <time>2018-03-07T11:25:49Z</time>
      </trkpt>
      <trkpt lat="45.97075" lon="4.70983">
        <ele>267</ele>
        <time>2018-03-07T11:25:50Z</time>
      </trkpt>
      <trkpt lat="45.97086" lon="4.70979">
        <ele>264</ele>
        <time>2018-03-07T11:25:51Z</time>
      </trkpt>
      <trkpt lat="45.97097" lon="4.70976">
        <ele>264</ele>
        <time>2018-03-07T11:25:52Z</time>
      </trkpt>
      <trkpt lat="45.97109" lon="4.70973">
        <ele>264</ele>
        <time>2018-03-07T11:25:53Z</time>
      </trkpt>
      <trkpt lat="45.9712" lon="4.70968">
        <ele>264</ele>
        <time>2018-03-07T11:25:54Z</time>
      </trkpt>
      <trkpt lat="45.97131" lon="4.70962">
        <ele>264</ele>
        <time>2018-03-07T11:25:55Z</time>
      </trkpt>
      <trkpt lat="45.97141" lon="4.70959">
        <ele>263</ele>
        <time>2018-03-07T11:25:56Z</time>
      </trkpt>
      <trkpt lat="45.9715" lon="4.70952">
        <ele>263</ele>
        <time>2018-03-07T11:25:57Z</time>
      </trkpt>
      <trkpt lat="45.97159" lon="4.70948">
        <ele>263</ele>
        <time>2018-03-07T11:25:58Z</time>
      </trkpt>
      <trkpt lat="45.97168" lon="4.70945">
        <ele>258</ele>
        <time>2018-03-07T11:25:59Z</time>
      </trkpt>
      <trkpt lat="45.97177" lon="4.70939">
        <ele>258</ele>
        <time>2018-03-07T11:26:00Z</time>
      </trkpt>
      <trkpt lat="45.97185" lon="4.70934">
        <ele>258</ele>
        <time>2018-03-07T11:26:01Z</time>
      </trkpt>
      <trkpt lat="45.97193" lon="4.70928">
        <ele>258</ele>
        <time>2018-03-07T11:26:02Z</time>
      </trkpt>
      <trkpt lat="45.97201" lon="4.70922">
        <ele>257</ele>
        <time>2018-03-07T11:26:03Z</time>
      </trkpt>
      <trkpt lat="45.97209" lon="4.70915">
        <ele>260</ele>
        <time>2018-03-07T11:26:04Z</time>
      </trkpt>
      <trkpt lat="45.97216" lon="4.70905">
        <ele>259</ele>
        <time>2018-03-07T11:26:05Z</time>
      </trkpt>
      <trkpt lat="45.97224" lon="4.70899">
        <ele>259</ele>
        <time>2018-03-07T11:26:06Z</time>
      </trkpt>
      <trkpt lat="45.97231" lon="4.7089">
        <ele>259</ele>
        <time>2018-03-07T11:26:07Z</time>
      </trkpt>
      <trkpt lat="45.97239" lon="4.70879">
        <ele>259</ele>
        <time>2018-03-07T11:26:08Z</time>
      </trkpt>
      <trkpt lat="45.97246" lon="4.70869">
        <ele>259</ele>
        <time>2018-03-07T11:26:09Z</time>
      </trkpt>
      <trkpt lat="45.97253" lon="4.70858">
        <ele>253</ele>
        <time>2018-03-07T11:26:10Z</time>
      </trkpt>
      <trkpt lat="45.9726" lon="4.70848">
        <ele>254</ele>
        <time>2018-03-07T11:26:11Z</time>
      </trkpt>
      <trkpt lat="45.97267" lon="4.70838">
        <ele>254</ele>
        <time>2018-03-07T11:26:12Z</time>
      </trkpt>
      <trkpt lat="45.97275" lon="4.7083">
        <ele>255</ele>
        <time>2018-03-07T11:26:13Z</time>
      </trkpt>
      <trkpt lat="45.97282" lon="4.70819">
        <ele>254</ele>
        <time>2018-03-07T11:26:14Z</time>
      </trkpt>
      <trkpt lat="45.97289" lon="4.7081">
        <ele>254</ele>
        <time>2018-03-07T11:26:15Z</time>
      </trkpt>
      <trkpt lat="45.97296" lon="4.70802">
        <ele>253</ele>
        <time>2018-03-07T11:26:16Z</time>
      </trkpt>
      <trkpt lat="45.97303" lon="4.70793">
        <ele>253</ele>
        <time>2018-03-07T11:26:17Z</time>
      </trkpt>
      <trkpt lat="45.9731" lon="4.70786">
        <ele>253</ele>
        <time>2018-03-07T11:26:18Z</time>
      </trkpt>
      <trkpt lat="45.97318" lon="4.70778">
        <ele>252</ele>
        <time>2018-03-07T11:26:19Z</time>
      </trkpt>
      <trkpt lat="45.97326" lon="4.70771">
        <ele>252</ele>
        <time>2018-03-07T11:26:20Z</time>
      </trkpt>
      <trkpt lat="45.97335" lon="4.70766">
        <ele>247</ele>
        <time>2018-03-07T11:26:21Z</time>
      </trkpt>
      <trkpt lat="45.97344" lon="4.70762">
        <ele>246</ele>
        <time>2018-03-07T11:26:22Z</time>
      </trkpt>
      <trkpt lat="45.97354" lon="4.70755">
        <ele>246</ele>
        <time>2018-03-07T11:26:23Z</time>
      </trkpt>
      <trkpt lat="45.97364" lon="4.70752">
        <ele>245</ele>
        <time>2018-03-07T11:26:24Z</time>
      </trkpt>
      <trkpt lat="45.97373" lon="4.70748">
        <ele>244</ele>
        <time>2018-03-07T11:26:25Z</time>
      </trkpt>
      <trkpt lat="45.97383" lon="4.70746">
        <ele>244</ele>
        <time>2018-03-07T11:26:26Z</time>
      </trkpt>
      <trkpt lat="45.97394" lon="4.70745">
        <ele>243</ele>
        <time>2018-03-07T11:26:27Z</time>
      </trkpt>
      <trkpt lat="45.97404" lon="4.70745">
        <ele>242</ele>
        <time>2018-03-07T11:26:28Z</time>
      </trkpt>
      <trkpt lat="45.97414" lon="4.70746">
        <ele>241</ele>
        <time>2018-03-07T11:26:29Z</time>
      </trkpt>
      <trkpt lat="45.97423" lon="4.70747">
        <ele>240</ele>
        <time>2018-03-07T11:26:30Z</time>
      </trkpt>
      <trkpt lat="45.97433" lon="4.70749">
        <ele>239</ele>
        <time>2018-03-07T11:26:31Z</time>
      </trkpt>
      <trkpt lat="45.97442" lon="4.70751">
        <ele>238</ele>
        <time>2018-03-07T11:26:32Z</time>
      </trkpt>
      <trkpt lat="45.97451" lon="4.70751">
        <ele>238</ele>
        <time>2018-03-07T11:26:33Z</time>
      </trkpt>
      <trkpt lat="45.97459" lon="4.70751">
        <ele>237</ele>
        <time>2018-03-07T11:26:34Z</time>
      </trkpt>
      <trkpt lat="45.97467" lon="4.7075">
        <ele>237</ele>
        <time>2018-03-07T11:26:35Z</time>
      </trkpt>
      <trkpt lat="45.97474" lon="4.70748">
        <ele>237</ele>
        <time>2018-03-07T11:26:36Z</time>
      </trkpt>
      <trkpt lat="45.97481" lon="4.70744">
        <ele>237</ele>
        <time>2018-03-07T11:26:37Z</time>
      </trkpt>
      <trkpt lat="45.97488" lon="4.70741">
        <ele>237</ele>
        <time>2018-03-07T11:26:38Z</time>
      </trkpt>
      <trkpt lat="45.97495" lon="4.70739">
        <ele>237</ele>
        <time>2018-03-07T11:26:39Z</time>
      </trkpt>
      <trkpt lat="45.97503" lon="4.70737">
        <ele>235</ele>
        <time>2018-03-07T11:26:40Z</time>
      </trkpt>
      <trkpt lat="45.9751" lon="4.70735">
        <ele>235</ele>
        <time>2018-03-07T11:26:41Z</time>
      </trkpt>
      <trkpt lat="45.97518" lon="4.70733">
        <ele>234</ele>
        <time>2018-03-07T11:26:42Z</time>
      </trkpt>
      <trkpt lat="45.97526" lon="4.70732">
        <ele>234</ele>
        <time>2018-03-07T11:26:43Z</time>
      </trkpt>
      <trkpt lat="45.97535" lon="4.70732">
        <ele>234</ele>
        <time>2018-03-07T11:26:44Z</time>
      </trkpt>
      <trkpt lat="45.97544" lon="4.7073">
        <ele>233</ele>
        <time>2018-03-07T11:26:45Z</time>
      </trkpt>
      <trkpt lat="45.97552" lon="4.70728">
        <ele>233</ele>
        <time>2018-03-07T11:26:46Z</time>
      </trkpt>
      <trkpt lat="45.9756" lon="4.70726">
        <ele>233</ele>
        <time>2018-03-07T11:26:47Z</time>
      </trkpt>
      <trkpt lat="45.97568" lon="4.70724">
        <ele>233</ele>
        <time>2018-03-07T11:26:48Z</time>
      </trkpt>
      <trkpt lat="45.97575" lon="4.70723">
        <ele>233</ele>
        <time>2018-03-07T11:26:49Z</time>
      </trkpt>
      <trkpt lat="45.97584" lon="4.70724">
        <ele>229</ele>
        <time>2018-03-07T11:26:50Z</time>
      </trkpt>
      <trkpt lat="45.97591" lon="4.70724">
        <ele>229</ele>
        <time>2018-03-07T11:26:51Z</time>
      </trkpt>
      <trkpt lat="45.97599" lon="4.70726">
        <ele>229</ele>
        <time>2018-03-07T11:26:52Z</time>
      </trkpt>
      <trkpt lat="45.97606" lon="4.70728">
        <ele>229</ele>
        <time>2018-03-07T11:26:53Z</time>
      </trkpt>
      <trkpt lat="45.97615" lon="4.70731">
        <ele>228</ele>
        <time>2018-03-07T11:26:54Z</time>
      </trkpt>
      <trkpt lat="45.97622" lon="4.70734">
        <ele>228</ele>
        <time>2018-03-07T11:26:55Z</time>
      </trkpt>
      <trkpt lat="45.97631" lon="4.70738">
        <ele>228</ele>
        <time>2018-03-07T11:26:56Z</time>
      </trkpt>
      <trkpt lat="45.9764" lon="4.70741">
        <ele>227</ele>
        <time>2018-03-07T11:26:57Z</time>
      </trkpt>
      <trkpt lat="45.97648" lon="4.70744">
        <ele>226</ele>
        <time>2018-03-07T11:26:58Z</time>
      </trkpt>
      <trkpt lat="45.97657" lon="4.70748">
        <ele>225</ele>
        <time>2018-03-07T11:26:59Z</time>
      </trkpt>
      <trkpt lat="45.97666" lon="4.70751">
        <ele>224</ele>
        <time>2018-03-07T11:27:00Z</time>
      </trkpt>
      <trkpt lat="45.97675" lon="4.70754">
        <ele>224</ele>
        <time>2018-03-07T11:27:01Z</time>
      </trkpt>
      <trkpt lat="45.97684" lon="4.70757">
        <ele>223</ele>
        <time>2018-03-07T11:27:02Z</time>
      </trkpt>
      <trkpt lat="45.97693" lon="4.70761">
        <ele>223</ele>
        <time>2018-03-07T11:27:03Z</time>
      </trkpt>
      <trkpt lat="45.97702" lon="4.70764">
        <ele>223</ele>
        <time>2018-03-07T11:27:04Z</time>
      </trkpt>
      <trkpt lat="45.9771" lon="4.70767">
        <ele>223</ele>
        <time>2018-03-07T11:27:05Z</time>
      </trkpt>
      <trkpt lat="45.97719" lon="4.70769">
        <ele>222</ele>
        <time>2018-03-07T11:27:06Z</time>
      </trkpt>
      <trkpt lat="45.97728" lon="4.70772">
        <ele>222</ele>
        <time>2018-03-07T11:27:07Z</time>
      </trkpt>
      <trkpt lat="45.97737" lon="4.70776">
        <ele>222</ele>
        <time>2018-03-07T11:27:08Z</time>
      </trkpt>
      <trkpt lat="45.97745" lon="4.70779">
        <ele>222</ele>
        <time>2018-03-07T11:27:09Z</time>
      </trkpt>
      <trkpt lat="45.97752" lon="4.70782">
        <ele>221</ele>
        <time>2018-03-07T11:27:10Z</time>
      </trkpt>
      <trkpt lat="45.97759" lon="4.70784">
        <ele>221</ele>
        <time>2018-03-07T11:27:11Z</time>
      </trkpt>
      <trkpt lat="45.97765" lon="4.70785">
        <ele>221</ele>
        <time>2018-03-07T11:27:12Z</time>
      </trkpt>
      <trkpt lat="45.97771" lon="4.70787">
        <ele>221</ele>
        <time>2018-03-07T11:27:13Z</time>
      </trkpt>
      <trkpt lat="45.97778" lon="4.70789">
        <ele>221</ele>
        <time>2018-03-07T11:27:14Z</time>
      </trkpt>
      <trkpt lat="45.97784" lon="4.70793">
        <ele>221</ele>
        <time>2018-03-07T11:27:15Z</time>
      </trkpt>
      <trkpt lat="45.9779" lon="4.70796">
        <ele>221</ele>
        <time>2018-03-07T11:27:16Z</time>
      </trkpt>
      <trkpt lat="45.97795" lon="4.70802">
        <ele>221</ele>
        <time>2018-03-07T11:27:17Z</time>
      </trkpt>
      <trkpt lat="45.97802" lon="4.70808">
        <ele>221</ele>
        <time>2018-03-07T11:27:18Z</time>
      </trkpt>
      <trkpt lat="45.97806" lon="4.70814">
        <ele>221</ele>
        <time>2018-03-07T11:27:19Z</time>
      </trkpt>
      <trkpt lat="45.9781" lon="4.70821">
        <ele>221</ele>
        <time>2018-03-07T11:27:20Z</time>
      </trkpt>
      <trkpt lat="45.97813" lon="4.70829">
        <ele>221</ele>
        <time>2018-03-07T11:27:21Z</time>
      </trkpt>
      <trkpt lat="45.97817" lon="4.70838">
        <ele>221</ele>
        <time>2018-03-07T11:27:22Z</time>
      </trkpt>
      <trkpt lat="45.97819" lon="4.70847">
        <ele>220</ele>
        <time>2018-03-07T11:27:23Z</time>
      </trkpt>
      <trkpt lat="45.9782" lon="4.70856">
        <ele>220</ele>
        <time>2018-03-07T11:27:24Z</time>
      </trkpt>
      <trkpt lat="45.97821" lon="4.70866">
        <ele>220</ele>
        <time>2018-03-07T11:27:25Z</time>
      </trkpt>
      <trkpt lat="45.97822" lon="4.70876">
        <ele>220</ele>
        <time>2018-03-07T11:27:26Z</time>
      </trkpt>
      <trkpt lat="45.97822" lon="4.70886">
        <ele>220</ele>
        <time>2018-03-07T11:27:27Z</time>
      </trkpt>
      <trkpt lat="45.97823" lon="4.70896">
        <ele>220</ele>
        <time>2018-03-07T11:27:28Z</time>
      </trkpt>
      <trkpt lat="45.97823" lon="4.70908">
        <ele>219</ele>
        <time>2018-03-07T11:27:29Z</time>
      </trkpt>
      <trkpt lat="45.97821" lon="4.70919">
        <ele>219</ele>
        <time>2018-03-07T11:27:30Z</time>
      </trkpt>
      <trkpt lat="45.97823" lon="4.70929">
        <ele>219</ele>
        <time>2018-03-07T11:27:31Z</time>
      </trkpt>
      <trkpt lat="45.97824" lon="4.7094">
        <ele>218</ele>
        <time>2018-03-07T11:27:32Z</time>
      </trkpt>
      <trkpt lat="45.97827" lon="4.70951">
        <ele>218</ele>
        <time>2018-03-07T11:27:33Z</time>
      </trkpt>
      <trkpt lat="45.9783" lon="4.7096">
        <ele>218</ele>
        <time>2018-03-07T11:27:34Z</time>
      </trkpt>
      <trkpt lat="45.97832" lon="4.70971">
        <ele>218</ele>
        <time>2018-03-07T11:27:35Z</time>
      </trkpt>
      <trkpt lat="45.97834" lon="4.70983">
        <ele>217</ele>
        <time>2018-03-07T11:27:36Z</time>
      </trkpt>
      <trkpt lat="45.97836" lon="4.70996">
        <ele>216</ele>
        <time>2018-03-07T11:27:37Z</time>
      </trkpt>
      <trkpt lat="45.97837" lon="4.71008">
        <ele>216</ele>
        <time>2018-03-07T11:27:38Z</time>
      </trkpt>
      <trkpt lat="45.97838" lon="4.71019">
        <ele>216</ele>
        <time>2018-03-07T11:27:39Z</time>
      </trkpt>
      <trkpt lat="45.97839" lon="4.71029">
        <ele>216</ele>
        <time>2018-03-07T11:27:40Z</time>
      </trkpt>
      <trkpt lat="45.9784" lon="4.71037">
        <ele>216</ele>
        <time>2018-03-07T11:27:41Z</time>
      </trkpt>
      <trkpt lat="45.97839" lon="4.71046">
        <ele>215</ele>
        <time>2018-03-07T11:27:42Z</time>
      </trkpt>
      <trkpt lat="45.9784" lon="4.71054">
        <ele>215</ele>
        <time>2018-03-07T11:27:43Z</time>
      </trkpt>
      <trkpt lat="45.97842" lon="4.71063">
        <ele>215</ele>
        <time>2018-03-07T11:27:44Z</time>
      </trkpt>
      <trkpt lat="45.97842" lon="4.7107">
        <ele>215</ele>
        <time>2018-03-07T11:27:45Z</time>
      </trkpt>
      <trkpt lat="45.97843" lon="4.71079">
        <ele>215</ele>
        <time>2018-03-07T11:27:46Z</time>
      </trkpt>
      <trkpt lat="45.97845" lon="4.71088">
        <ele>213</ele>
        <time>2018-03-07T11:27:47Z</time>
      </trkpt>
      <trkpt lat="45.97847" lon="4.71099">
        <ele>213</ele>
        <time>2018-03-07T11:27:48Z</time>
      </trkpt>
      <trkpt lat="45.97848" lon="4.71108">
        <ele>213</ele>
        <time>2018-03-07T11:27:49Z</time>
      </trkpt>
      <trkpt lat="45.97849" lon="4.7112">
        <ele>213</ele>
        <time>2018-03-07T11:27:50Z</time>
      </trkpt>
      <trkpt lat="45.9785" lon="4.71131">
        <ele>212</ele>
        <time>2018-03-07T11:27:51Z</time>
      </trkpt>
      <trkpt lat="45.97852" lon="4.71142">
        <ele>212</ele>
        <time>2018-03-07T11:27:52Z</time>
      </trkpt>
      <trkpt lat="45.97853" lon="4.71155">
        <ele>212</ele>
        <time>2018-03-07T11:27:53Z</time>
      </trkpt>
      <trkpt lat="45.97853" lon="4.71166">
        <ele>212</ele>
        <time>2018-03-07T11:27:54Z</time>
      </trkpt>
      <trkpt lat="45.97853" lon="4.71177">
        <ele>209</ele>
        <time>2018-03-07T11:27:55Z</time>
      </trkpt>
      <trkpt lat="45.97854" lon="4.7119">
        <ele>209</ele>
        <time>2018-03-07T11:27:56Z</time>
      </trkpt>
      <trkpt lat="45.97852" lon="4.71201">
        <ele>209</ele>
        <time>2018-03-07T11:27:57Z</time>
      </trkpt>
      <trkpt lat="45.97851" lon="4.71214">
        <ele>208</ele>
        <time>2018-03-07T11:27:58Z</time>
      </trkpt>
      <trkpt lat="45.97851" lon="4.71226">
        <ele>208</ele>
        <time>2018-03-07T11:27:59Z</time>
      </trkpt>
      <trkpt lat="45.9785" lon="4.71241">
        <ele>208</ele>
        <time>2018-03-07T11:28:00Z</time>
      </trkpt>
      <trkpt lat="45.97851" lon="4.71253">
        <ele>207</ele>
        <time>2018-03-07T11:28:01Z</time>
      </trkpt>
      <trkpt lat="45.9785" lon="4.71266">
        <ele>206</ele>
        <time>2018-03-07T11:28:02Z</time>
      </trkpt>
      <trkpt lat="45.97849" lon="4.71278">
        <ele>206</ele>
        <time>2018-03-07T11:28:03Z</time>
      </trkpt>
      <trkpt lat="45.97849" lon="4.7129">
        <ele>206</ele>
        <time>2018-03-07T11:28:04Z</time>
      </trkpt>
      <trkpt lat="45.97849" lon="4.71303">
        <ele>206</ele>
        <time>2018-03-07T11:28:05Z</time>
      </trkpt>
      <trkpt lat="45.9785" lon="4.71316">
        <ele>205</ele>
        <time>2018-03-07T11:28:06Z</time>
      </trkpt>
      <trkpt lat="45.97851" lon="4.71328">
        <ele>205</ele>
        <time>2018-03-07T11:28:07Z</time>
      </trkpt>
      <trkpt lat="45.97852" lon="4.71339">
        <ele>204</ele>
        <time>2018-03-07T11:28:08Z</time>
      </trkpt>
      <trkpt lat="45.97851" lon="4.71351">
        <ele>204</ele>
        <time>2018-03-07T11:28:09Z</time>
      </trkpt>
      <trkpt lat="45.9785" lon="4.71362">
        <ele>204</ele>
        <time>2018-03-07T11:28:10Z</time>
      </trkpt>
      <trkpt lat="45.9785" lon="4.71373">
        <ele>203</ele>
        <time>2018-03-07T11:28:11Z</time>
      </trkpt>
      <trkpt lat="45.9785" lon="4.71385">
        <ele>203</ele>
        <time>2018-03-07T11:28:12Z</time>
      </trkpt>
      <trkpt lat="45.97852" lon="4.71394">
        <ele>203</ele>
        <time>2018-03-07T11:28:13Z</time>
      </trkpt>
      <trkpt lat="45.97853" lon="4.71402">
        <ele>203</ele>
        <time>2018-03-07T11:28:14Z</time>
      </trkpt>
      <trkpt lat="45.97855" lon="4.71411">
        <ele>203</ele>
        <time>2018-03-07T11:28:15Z</time>
      </trkpt>
      <trkpt lat="45.97855" lon="4.7142">
        <ele>202</ele>
        <time>2018-03-07T11:28:16Z</time>
      </trkpt>
      <trkpt lat="45.97856" lon="4.7143">
        <ele>201</ele>
        <time>2018-03-07T11:28:17Z</time>
      </trkpt>
      <trkpt lat="45.97858" lon="4.71439">
        <ele>201</ele>
        <time>2018-03-07T11:28:18Z</time>
      </trkpt>
      <trkpt lat="45.9786" lon="4.71449">
        <ele>201</ele>
        <time>2018-03-07T11:28:19Z</time>
      </trkpt>
      <trkpt lat="45.97863" lon="4.71457">
        <ele>201</ele>
        <time>2018-03-07T11:28:20Z</time>
      </trkpt>
      <trkpt lat="45.97865" lon="4.71467">
        <ele>201</ele>
        <time>2018-03-07T11:28:21Z</time>
      </trkpt>
      <trkpt lat="45.97865" lon="4.71475">
        <ele>201</ele>
        <time>2018-03-07T11:28:22Z</time>
      </trkpt>
      <trkpt lat="45.97867" lon="4.71485">
        <ele>201</ele>
        <time>2018-03-07T11:28:23Z</time>
      </trkpt>
      <trkpt lat="45.97869" lon="4.71494">
        <ele>201</ele>
        <time>2018-03-07T11:28:24Z</time>
      </trkpt>
      <trkpt lat="45.9787" lon="4.71504">
        <ele>199</ele>
        <time>2018-03-07T11:28:25Z</time>
      </trkpt>
      <trkpt lat="45.97871" lon="4.71516">
        <ele>199</ele>
        <time>2018-03-07T11:28:26Z</time>
      </trkpt>
      <trkpt lat="45.97872" lon="4.71525">
        <ele>199</ele>
        <time>2018-03-07T11:28:27Z</time>
      </trkpt>
      <trkpt lat="45.97874" lon="4.71535">
        <ele>199</ele>
        <time>2018-03-07T11:28:28Z</time>
      </trkpt>
      <trkpt lat="45.97875" lon="4.71545">
        <ele>199</ele>
        <time>2018-03-07T11:28:29Z</time>
      </trkpt>
      <trkpt lat="45.97877" lon="4.71554">
        <ele>199</ele>
        <time>2018-03-07T11:28:30Z</time>
      </trkpt>
      <trkpt lat="45.97878" lon="4.71563">
        <ele>198</ele>
        <time>2018-03-07T11:28:31Z</time>
      </trkpt>
      <trkpt lat="45.97879" lon="4.71574">
        <ele>198</ele>
        <time>2018-03-07T11:28:32Z</time>
      </trkpt>
      <trkpt lat="45.97879" lon="4.71583">
        <ele>198</ele>
        <time>2018-03-07T11:28:33Z</time>
      </trkpt>
      <trkpt lat="45.9788" lon="4.71592">
        <ele>197</ele>
        <time>2018-03-07T11:28:34Z</time>
      </trkpt>
      <trkpt lat="45.9788" lon="4.71601">
        <ele>197</ele>
        <time>2018-03-07T11:28:35Z</time>
      </trkpt>
      <trkpt lat="45.97881" lon="4.7161">
        <ele>197</ele>
        <time>2018-03-07T11:28:36Z</time>
      </trkpt>
      <trkpt lat="45.97881" lon="4.71619">
        <ele>197</ele>
        <time>2018-03-07T11:28:37Z</time>
      </trkpt>
      <trkpt lat="45.97881" lon="4.71628">
        <ele>197</ele>
        <time>2018-03-07T11:28:38Z</time>
      </trkpt>
      <trkpt lat="45.9788" lon="4.71638">
        <ele>197</ele>
        <time>2018-03-07T11:28:39Z</time>
      </trkpt>
      <trkpt lat="45.97878" lon="4.71646">
        <ele>197</ele>
        <time>2018-03-07T11:28:40Z</time>
      </trkpt>
      <trkpt lat="45.97877" lon="4.71654">
        <ele>197</ele>
        <time>2018-03-07T11:28:41Z</time>
      </trkpt>
      <trkpt lat="45.97878" lon="4.71662">
        <ele>197</ele>
        <time>2018-03-07T11:28:42Z</time>
      </trkpt>
      <trkpt lat="45.97875" lon="4.71671">
        <ele>196</ele>
        <time>2018-03-07T11:28:44Z</time>
      </trkpt>
      <trkpt lat="45.97874" lon="4.71674">
        <ele>196</ele>
        <time>2018-03-07T11:28:45Z</time>
      </trkpt>
      <trkpt lat="45.97872" lon="4.71683">
        <ele>196</ele>
        <time>2018-03-07T11:28:48Z</time>
      </trkpt>
      <trkpt lat="45.97871" lon="4.71686">
        <ele>196</ele>
        <time>2018-03-07T11:28:49Z</time>
      </trkpt>
      <trkpt lat="45.97866" lon="4.71696">
        <ele>196</ele>
        <time>2018-03-07T11:29:00Z</time>
      </trkpt>
      <trkpt lat="45.97866" lon="4.71698">
        <ele>196</ele>
        <time>2018-03-07T11:29:01Z</time>
      </trkpt>
      <trkpt lat="45.97863" lon="4.71707">
        <ele>196</ele>
        <time>2018-03-07T11:29:05Z</time>
      </trkpt>
      <trkpt lat="45.97862" lon="4.7171">
        <ele>196</ele>
        <time>2018-03-07T11:29:06Z</time>
      </trkpt>
      <trkpt lat="45.97857" lon="4.7172">
        <ele>196</ele>
        <time>2018-03-07T11:29:09Z</time>
      </trkpt>
      <trkpt lat="45.97855" lon="4.71724">
        <ele>196</ele>
        <time>2018-03-07T11:29:10Z</time>
      </trkpt>
      <trkpt lat="45.97854" lon="4.71728">
        <ele>196</ele>
        <time>2018-03-07T11:29:11Z</time>
      </trkpt>
      <trkpt lat="45.97848" lon="4.71738">
        <ele>196</ele>
        <time>2018-03-07T11:29:12Z</time>
      </trkpt>
      <trkpt lat="45.97844" lon="4.71741">
        <ele>195</ele>
        <time>2018-03-07T11:29:13Z</time>
      </trkpt>
      <trkpt lat="45.97839" lon="4.7174">
        <ele>195</ele>
        <time>2018-03-07T11:29:14Z</time>
      </trkpt>
      <trkpt lat="45.97834" lon="4.71741">
        <ele>195</ele>
        <time>2018-03-07T11:29:15Z</time>
      </trkpt>
      <trkpt lat="45.97829" lon="4.71741">
        <ele>195</ele>
        <time>2018-03-07T11:29:16Z</time>
      </trkpt>
      <trkpt lat="45.97825" lon="4.71742">
        <ele>196</ele>
        <time>2018-03-07T11:29:17Z</time>
      </trkpt>
      <trkpt lat="45.97819" lon="4.71742">
        <ele>196</ele>
        <time>2018-03-07T11:29:18Z</time>
      </trkpt>
      <trkpt lat="45.97814" lon="4.7174">
        <ele>196</ele>
        <time>2018-03-07T11:29:19Z</time>
      </trkpt>
      <trkpt lat="45.97809" lon="4.71739">
        <ele>196</ele>
        <time>2018-03-07T11:29:20Z</time>
      </trkpt>
      <trkpt lat="45.97804" lon="4.71738">
        <ele>196</ele>
        <time>2018-03-07T11:29:21Z</time>
      </trkpt>
      <trkpt lat="45.97798" lon="4.71738">
        <ele>196</ele>
        <time>2018-03-07T11:29:22Z</time>
      </trkpt>
      <trkpt lat="45.97793" lon="4.71738">
        <ele>196</ele>
        <time>2018-03-07T11:29:23Z</time>
      </trkpt>
      <trkpt lat="45.97788" lon="4.71738">
        <ele>196</ele>
        <time>2018-03-07T11:29:24Z</time>
      </trkpt>
      <trkpt lat="45.9778" lon="4.71734">
        <ele>196</ele>
        <time>2018-03-07T11:29:26Z</time>
      </trkpt>
      <trkpt lat="45.97775" lon="4.71733">
        <ele>196</ele>
        <time>2018-03-07T11:29:27Z</time>
      </trkpt>
      <trkpt lat="45.97769" lon="4.71733">
        <ele>196</ele>
        <time>2018-03-07T11:29:28Z</time>
      </trkpt>
      <trkpt lat="45.97764" lon="4.71733">
        <ele>196</ele>
        <time>2018-03-07T11:29:29Z</time>
      </trkpt>
      <trkpt lat="45.97759" lon="4.71732">
        <ele>196</ele>
        <time>2018-03-07T11:29:30Z</time>
      </trkpt>
      <trkpt lat="45.97754" lon="4.71732">
        <ele>196</ele>
        <time>2018-03-07T11:29:31Z</time>
      </trkpt>
      <trkpt lat="45.97749" lon="4.71731">
        <ele>196</ele>
        <time>2018-03-07T11:29:32Z</time>
      </trkpt>
      <trkpt lat="45.97745" lon="4.71731">
        <ele>196</ele>
        <time>2018-03-07T11:29:33Z</time>
      </trkpt>
      <trkpt lat="45.97736" lon="4.71729">
        <ele>196</ele>
        <time>2018-03-07T11:29:35Z</time>
      </trkpt>
      <trkpt lat="45.97731" lon="4.71727">
        <ele>196</ele>
        <time>2018-03-07T11:29:36Z</time>
      </trkpt>
      <trkpt lat="45.97725" lon="4.71728">
        <ele>196</ele>
        <time>2018-03-07T11:29:37Z</time>
      </trkpt>
      <trkpt lat="45.9772" lon="4.71728">
        <ele>196</ele>
        <time>2018-03-07T11:29:38Z</time>
      </trkpt>
      <trkpt lat="45.97715" lon="4.71728">
        <ele>196</ele>
        <time>2018-03-07T11:29:39Z</time>
      </trkpt>
      <trkpt lat="45.9771" lon="4.71728">
        <ele>196</ele>
        <time>2018-03-07T11:29:40Z</time>
      </trkpt>
      <trkpt lat="45.97705" lon="4.71728">
        <ele>196</ele>
        <time>2018-03-07T11:29:41Z</time>
      </trkpt>
      <trkpt lat="45.97701" lon="4.71727">
        <ele>196</ele>
        <time>2018-03-07T11:29:42Z</time>
      </trkpt>
      <trkpt lat="45.97695" lon="4.71727">
        <ele>196</ele>
        <time>2018-03-07T11:29:43Z</time>
      </trkpt>
      <trkpt lat="45.97691" lon="4.71726">
        <ele>196</ele>
        <time>2018-03-07T11:29:44Z</time>
      </trkpt>
      <trkpt lat="45.97686" lon="4.71726">
        <ele>196</ele>
        <time>2018-03-07T11:29:45Z</time>
      </trkpt>
      <trkpt lat="45.97681" lon="4.71725">
        <ele>196</ele>
        <time>2018-03-07T11:29:46Z</time>
      </trkpt>
      <trkpt lat="45.97676" lon="4.71725">
        <ele>196</ele>
        <time>2018-03-07T11:29:47Z</time>
      </trkpt>
      <trkpt lat="45.97671" lon="4.71724">
        <ele>196</ele>
        <time>2018-03-07T11:29:48Z</time>
      </trkpt>
      <trkpt lat="45.97666" lon="4.71722">
        <ele>196</ele>
        <time>2018-03-07T11:29:49Z</time>
      </trkpt>
      <trkpt lat="45.97661" lon="4.71721">
        <ele>196</ele>
        <time>2018-03-07T11:29:50Z</time>
      </trkpt>
      <trkpt lat="45.97655" lon="4.71722">
        <ele>196</ele>
        <time>2018-03-07T11:29:51Z</time>
      </trkpt>
      <trkpt lat="45.9765" lon="4.71721">
        <ele>196</ele>
        <time>2018-03-07T11:29:52Z</time>
      </trkpt>
      <trkpt lat="45.97643" lon="4.7172">
        <ele>196</ele>
        <time>2018-03-07T11:29:54Z</time>
      </trkpt>
      <trkpt lat="45.97637" lon="4.71715">
        <ele>197</ele>
        <time>2018-03-07T11:29:55Z</time>
      </trkpt>
      <trkpt lat="45.97631" lon="4.71711">
        <ele>197</ele>
        <time>2018-03-07T11:29:57Z</time>
      </trkpt>
      <trkpt lat="45.97629" lon="4.71709">
        <ele>197</ele>
        <time>2018-03-07T11:29:58Z</time>
      </trkpt>
      <trkpt lat="45.97622" lon="4.71705">
        <ele>197</ele>
        <time>2018-03-07T11:29:59Z</time>
      </trkpt>
      <trkpt lat="45.97618" lon="4.71706">
        <ele>197</ele>
        <time>2018-03-07T11:30:00Z</time>
      </trkpt>
      <trkpt lat="45.97614" lon="4.71707">
        <ele>197</ele>
        <time>2018-03-07T11:30:01Z</time>
      </trkpt>
      <trkpt lat="45.97609" lon="4.71709">
        <ele>197</ele>
        <time>2018-03-07T11:30:02Z</time>
      </trkpt>
      <trkpt lat="45.97602" lon="4.71712">
        <ele>197</ele>
        <time>2018-03-07T11:30:03Z</time>
      </trkpt>
      <trkpt lat="45.97598" lon="4.71714">
        <ele>197</ele>
        <time>2018-03-07T11:30:04Z</time>
      </trkpt>
      <trkpt lat="45.97593" lon="4.71716">
        <ele>197</ele>
        <time>2018-03-07T11:30:05Z</time>
      </trkpt>
      <trkpt lat="45.97587" lon="4.71719">
        <ele>197</ele>
        <time>2018-03-07T11:30:06Z</time>
      </trkpt>
      <trkpt lat="45.97581" lon="4.7172">
        <ele>198</ele>
        <time>2018-03-07T11:30:07Z</time>
      </trkpt>
      <trkpt lat="45.97577" lon="4.71719">
        <ele>198</ele>
        <time>2018-03-07T11:30:08Z</time>
      </trkpt>
      <trkpt lat="45.97572" lon="4.71719">
        <ele>198</ele>
        <time>2018-03-07T11:30:09Z</time>
      </trkpt>
      <trkpt lat="45.97567" lon="4.71717">
        <ele>198</ele>
        <time>2018-03-07T11:30:10Z</time>
      </trkpt>
      <trkpt lat="45.97562" lon="4.71716">
        <ele>198</ele>
        <time>2018-03-07T11:30:11Z</time>
      </trkpt>
      <trkpt lat="45.97557" lon="4.71717">
        <ele>198</ele>
        <time>2018-03-07T11:30:12Z</time>
      </trkpt>
      <trkpt lat="45.97552" lon="4.71717">
        <ele>198</ele>
        <time>2018-03-07T11:30:13Z</time>
      </trkpt>
      <trkpt lat="45.97546" lon="4.71717">
        <ele>198</ele>
        <time>2018-03-07T11:30:14Z</time>
      </trkpt>
      <trkpt lat="45.97542" lon="4.71716">
        <ele>198</ele>
        <time>2018-03-07T11:30:15Z</time>
      </trkpt>
      <trkpt lat="45.97536" lon="4.71716">
        <ele>198</ele>
        <time>2018-03-07T11:30:16Z</time>
      </trkpt>
      <trkpt lat="45.97529" lon="4.71715">
        <ele>198</ele>
        <time>2018-03-07T11:30:18Z</time>
      </trkpt>
      <trkpt lat="45.97526" lon="4.71713">
        <ele>198</ele>
        <time>2018-03-07T11:30:19Z</time>
      </trkpt>
      <trkpt lat="45.97517" lon="4.71712">
        <ele>199</ele>
        <time>2018-03-07T11:30:21Z</time>
      </trkpt>
      <trkpt lat="45.97512" lon="4.71711">
        <ele>199</ele>
        <time>2018-03-07T11:30:22Z</time>
      </trkpt>
      <trkpt lat="45.97506" lon="4.71711">
        <ele>199</ele>
        <time>2018-03-07T11:30:23Z</time>
      </trkpt>
      <trkpt lat="45.97498" lon="4.71711">
        <ele>198</ele>
        <time>2018-03-07T11:30:24Z</time>
      </trkpt>
      <trkpt lat="45.97493" lon="4.7171">
        <ele>198</ele>
        <time>2018-03-07T11:30:25Z</time>
      </trkpt>
      <trkpt lat="45.97489" lon="4.7171">
        <ele>198</ele>
        <time>2018-03-07T11:30:26Z</time>
      </trkpt>
      <trkpt lat="45.97483" lon="4.71709">
        <ele>198</ele>
        <time>2018-03-07T11:30:27Z</time>
      </trkpt>
      <trkpt lat="45.97476" lon="4.71708">
        <ele>198</ele>
        <time>2018-03-07T11:30:28Z</time>
      </trkpt>
      <trkpt lat="45.97471" lon="4.71708">
        <ele>198</ele>
        <time>2018-03-07T11:30:29Z</time>
      </trkpt>
      <trkpt lat="45.97465" lon="4.71708">
        <ele>197</ele>
        <time>2018-03-07T11:30:30Z</time>
      </trkpt>
      <trkpt lat="45.9746" lon="4.71708">
        <ele>197</ele>
        <time>2018-03-07T11:30:31Z</time>
      </trkpt>
      <trkpt lat="45.97453" lon="4.71705">
        <ele>197</ele>
        <time>2018-03-07T11:30:32Z</time>
      </trkpt>
      <trkpt lat="45.97448" lon="4.71705">
        <ele>197</ele>
        <time>2018-03-07T11:30:33Z</time>
      </trkpt>
      <trkpt lat="45.97442" lon="4.71706">
        <ele>197</ele>
        <time>2018-03-07T11:30:34Z</time>
      </trkpt>
      <trkpt lat="45.97437" lon="4.71706">
        <ele>197</ele>
        <time>2018-03-07T11:30:35Z</time>
      </trkpt>
      <trkpt lat="45.97432" lon="4.71704">
        <ele>197</ele>
        <time>2018-03-07T11:30:36Z</time>
      </trkpt>
      <trkpt lat="45.97425" lon="4.71704">
        <ele>197</ele>
        <time>2018-03-07T11:30:37Z</time>
      </trkpt>
      <trkpt lat="45.9742" lon="4.71703">
        <ele>197</ele>
        <time>2018-03-07T11:30:38Z</time>
      </trkpt>
      <trkpt lat="45.97414" lon="4.71704">
        <ele>195</ele>
        <time>2018-03-07T11:30:39Z</time>
      </trkpt>
      <trkpt lat="45.97409" lon="4.71703">
        <ele>195</ele>
        <time>2018-03-07T11:30:40Z</time>
      </trkpt>
      <trkpt lat="45.97402" lon="4.71703">
        <ele>195</ele>
        <time>2018-03-07T11:30:41Z</time>
      </trkpt>
      <trkpt lat="45.97396" lon="4.71703">
        <ele>195</ele>
        <time>2018-03-07T11:30:42Z</time>
      </trkpt>
      <trkpt lat="45.9739" lon="4.71703">
        <ele>195</ele>
        <time>2018-03-07T11:30:43Z</time>
      </trkpt>
      <trkpt lat="45.97385" lon="4.71702">
        <ele>195</ele>
        <time>2018-03-07T11:30:44Z</time>
      </trkpt>
      <trkpt lat="45.9738" lon="4.71701">
        <ele>195</ele>
        <time>2018-03-07T11:30:45Z</time>
      </trkpt>
      <trkpt lat="45.97373" lon="4.71701">
        <ele>195</ele>
        <time>2018-03-07T11:30:46Z</time>
      </trkpt>
      <trkpt lat="45.97366" lon="4.71702">
        <ele>195</ele>
        <time>2018-03-07T11:30:47Z</time>
      </trkpt>
      <trkpt lat="45.9736" lon="4.71702">
        <ele>195</ele>
        <time>2018-03-07T11:30:48Z</time>
      </trkpt>
      <trkpt lat="45.97353" lon="4.71703">
        <ele>195</ele>
        <time>2018-03-07T11:30:49Z</time>
      </trkpt>
      <trkpt lat="45.97348" lon="4.71702">
        <ele>195</ele>
        <time>2018-03-07T11:30:50Z</time>
      </trkpt>
      <trkpt lat="45.97339" lon="4.71701">
        <ele>196</ele>
        <time>2018-03-07T11:30:52Z</time>
      </trkpt>
      <trkpt lat="45.97333" lon="4.71701">
        <ele>196</ele>
        <time>2018-03-07T11:30:53Z</time>
      </trkpt>
      <trkpt lat="45.97328" lon="4.71701">
        <ele>196</ele>
        <time>2018-03-07T11:30:54Z</time>
      </trkpt>
      <trkpt lat="45.97322" lon="4.71699">
        <ele>196</ele>
        <time>2018-03-07T11:30:55Z</time>
      </trkpt>
      <trkpt lat="45.97318" lon="4.71696">
        <ele>196</ele>
        <time>2018-03-07T11:30:56Z</time>
      </trkpt>
      <trkpt lat="45.97314" lon="4.71691">
        <ele>196</ele>
        <time>2018-03-07T11:30:57Z</time>
      </trkpt>
      <trkpt lat="45.97308" lon="4.71685">
        <ele>197</ele>
        <time>2018-03-07T11:30:58Z</time>
      </trkpt>
      <trkpt lat="45.97303" lon="4.71686">
        <ele>197</ele>
        <time>2018-03-07T11:30:59Z</time>
      </trkpt>
      <trkpt lat="45.97294" lon="4.7169">
        <ele>197</ele>
        <time>2018-03-07T11:31:01Z</time>
      </trkpt>
      <trkpt lat="45.97289" lon="4.71694">
        <ele>197</ele>
        <time>2018-03-07T11:31:02Z</time>
      </trkpt>
      <trkpt lat="45.97284" lon="4.71697">
        <ele>197</ele>
        <time>2018-03-07T11:31:03Z</time>
      </trkpt>
      <trkpt lat="45.97279" lon="4.71699">
        <ele>197</ele>
        <time>2018-03-07T11:31:04Z</time>
      </trkpt>
      <trkpt lat="45.97275" lon="4.71699">
        <ele>197</ele>
        <time>2018-03-07T11:31:05Z</time>
      </trkpt>
      <trkpt lat="45.97269" lon="4.71698">
        <ele>197</ele>
        <time>2018-03-07T11:31:06Z</time>
      </trkpt>
      <trkpt lat="45.97263" lon="4.71695">
        <ele>197</ele>
        <time>2018-03-07T11:31:07Z</time>
      </trkpt>
      <trkpt lat="45.97257" lon="4.71694">
        <ele>197</ele>
        <time>2018-03-07T11:31:08Z</time>
      </trkpt>
      <trkpt lat="45.97252" lon="4.71693">
        <ele>197</ele>
        <time>2018-03-07T11:31:09Z</time>
      </trkpt>
      <trkpt lat="45.97247" lon="4.71691">
        <ele>197</ele>
        <time>2018-03-07T11:31:10Z</time>
      </trkpt>
      <trkpt lat="45.97241" lon="4.71691">
        <ele>197</ele>
        <time>2018-03-07T11:31:11Z</time>
      </trkpt>
      <trkpt lat="45.97235" lon="4.71691">
        <ele>197</ele>
        <time>2018-03-07T11:31:12Z</time>
      </trkpt>
      <trkpt lat="45.97229" lon="4.7169">
        <ele>197</ele>
        <time>2018-03-07T11:31:13Z</time>
      </trkpt>
      <trkpt lat="45.97223" lon="4.71689">
        <ele>197</ele>
        <time>2018-03-07T11:31:14Z</time>
      </trkpt>
      <trkpt lat="45.97216" lon="4.71689">
        <ele>197</ele>
        <time>2018-03-07T11:31:15Z</time>
      </trkpt>
      <trkpt lat="45.97213" lon="4.71688">
        <ele>197</ele>
        <time>2018-03-07T11:31:16Z</time>
      </trkpt>
      <trkpt lat="45.97208" lon="4.71685">
        <ele>197</ele>
        <time>2018-03-07T11:31:17Z</time>
      </trkpt>
      <trkpt lat="45.97201" lon="4.71685">
        <ele>197</ele>
        <time>2018-03-07T11:31:18Z</time>
      </trkpt>
      <trkpt lat="45.97195" lon="4.71685">
        <ele>197</ele>
        <time>2018-03-07T11:31:19Z</time>
      </trkpt>
      <trkpt lat="45.9719" lon="4.71685">
        <ele>197</ele>
        <time>2018-03-07T11:31:20Z</time>
      </trkpt>
      <trkpt lat="45.97183" lon="4.71686">
        <ele>197</ele>
        <time>2018-03-07T11:31:21Z</time>
      </trkpt>
      <trkpt lat="45.97177" lon="4.71683">
        <ele>197</ele>
        <time>2018-03-07T11:31:22Z</time>
      </trkpt>
      <trkpt lat="45.9717" lon="4.71684">
        <ele>197</ele>
        <time>2018-03-07T11:31:23Z</time>
      </trkpt>
      <trkpt lat="45.97162" lon="4.7168">
        <ele>196</ele>
        <time>2018-03-07T11:31:24Z</time>
      </trkpt>
      <trkpt lat="45.97156" lon="4.7168">
        <ele>196</ele>
        <time>2018-03-07T11:31:25Z</time>
      </trkpt>
      <trkpt lat="45.97149" lon="4.7168">
        <ele>196</ele>
        <time>2018-03-07T11:31:26Z</time>
      </trkpt>
      <trkpt lat="45.97143" lon="4.71678">
        <ele>195</ele>
        <time>2018-03-07T11:31:27Z</time>
      </trkpt>
      <trkpt lat="45.97138" lon="4.71679">
        <ele>195</ele>
        <time>2018-03-07T11:31:28Z</time>
      </trkpt>
      <trkpt lat="45.97132" lon="4.7168">
        <ele>195</ele>
        <time>2018-03-07T11:31:29Z</time>
      </trkpt>
      <trkpt lat="45.97125" lon="4.7168">
        <ele>195</ele>
        <time>2018-03-07T11:31:30Z</time>
      </trkpt>
      <trkpt lat="45.97119" lon="4.71679">
        <ele>195</ele>
        <time>2018-03-07T11:31:31Z</time>
      </trkpt>
      <trkpt lat="45.97113" lon="4.71678">
        <ele>195</ele>
        <time>2018-03-07T11:31:32Z</time>
      </trkpt>
      <trkpt lat="45.97106" lon="4.71677">
        <ele>195</ele>
        <time>2018-03-07T11:31:33Z</time>
      </trkpt>
      <trkpt lat="45.971" lon="4.71677">
        <ele>195</ele>
        <time>2018-03-07T11:31:34Z</time>
      </trkpt>
      <trkpt lat="45.97094" lon="4.71675">
        <ele>195</ele>
        <time>2018-03-07T11:31:35Z</time>
      </trkpt>
      <trkpt lat="45.97089" lon="4.71676">
        <ele>195</ele>
        <time>2018-03-07T11:31:36Z</time>
      </trkpt>
      <trkpt lat="45.97084" lon="4.71675">
        <ele>195</ele>
        <time>2018-03-07T11:31:37Z</time>
      </trkpt>
      <trkpt lat="45.97077" lon="4.71675">
        <ele>194</ele>
        <time>2018-03-07T11:31:38Z</time>
      </trkpt>
      <trkpt lat="45.97071" lon="4.71674">
        <ele>194</ele>
        <time>2018-03-07T11:31:39Z</time>
      </trkpt>
      <trkpt lat="45.97064" lon="4.71672">
        <ele>193</ele>
        <time>2018-03-07T11:31:40Z</time>
      </trkpt>
      <trkpt lat="45.97057" lon="4.71671">
        <ele>193</ele>
        <time>2018-03-07T11:31:41Z</time>
      </trkpt>
      <trkpt lat="45.97051" lon="4.7167">
        <ele>193</ele>
        <time>2018-03-07T11:31:42Z</time>
      </trkpt>
      <trkpt lat="45.97044" lon="4.7167">
        <ele>193</ele>
        <time>2018-03-07T11:31:43Z</time>
      </trkpt>
      <trkpt lat="45.97037" lon="4.7167">
        <ele>193</ele>
        <time>2018-03-07T11:31:44Z</time>
      </trkpt>
      <trkpt lat="45.97031" lon="4.71671">
        <ele>193</ele>
        <time>2018-03-07T11:31:45Z</time>
      </trkpt>
      <trkpt lat="45.97024" lon="4.71669">
        <ele>193</ele>
        <time>2018-03-07T11:31:46Z</time>
      </trkpt>
      <trkpt lat="45.97018" lon="4.71669">
        <ele>193</ele>
        <time>2018-03-07T11:31:47Z</time>
      </trkpt>
      <trkpt lat="45.97012" lon="4.71669">
        <ele>193</ele>
        <time>2018-03-07T11:31:48Z</time>
      </trkpt>
      <trkpt lat="45.97006" lon="4.71669">
        <ele>194</ele>
        <time>2018-03-07T11:31:49Z</time>
      </trkpt>
      <trkpt lat="45.96997" lon="4.7167">
        <ele>193</ele>
        <time>2018-03-07T11:31:50Z</time>
      </trkpt>
      <trkpt lat="45.96989" lon="4.7167">
        <ele>193</ele>
        <time>2018-03-07T11:31:51Z</time>
      </trkpt>
      <trkpt lat="45.96981" lon="4.71669">
        <ele>192</ele>
        <time>2018-03-07T11:31:52Z</time>
      </trkpt>
      <trkpt lat="45.96972" lon="4.71669">
        <ele>192</ele>
        <time>2018-03-07T11:31:53Z</time>
      </trkpt>
      <trkpt lat="45.96967" lon="4.71669">
        <ele>192</ele>
        <time>2018-03-07T11:31:54Z</time>
      </trkpt>
      <trkpt lat="45.9696" lon="4.71669">
        <ele>192</ele>
        <time>2018-03-07T11:31:55Z</time>
      </trkpt>
      <trkpt lat="45.96954" lon="4.71669">
        <ele>192</ele>
        <time>2018-03-07T11:31:56Z</time>
      </trkpt>
      <trkpt lat="45.96948" lon="4.71668">
        <ele>192</ele>
        <time>2018-03-07T11:31:57Z</time>
      </trkpt>
      <trkpt lat="45.96943" lon="4.71665">
        <ele>195</ele>
        <time>2018-03-07T11:31:58Z</time>
      </trkpt>
      <trkpt lat="45.96936" lon="4.71665">
        <ele>195</ele>
        <time>2018-03-07T11:31:59Z</time>
      </trkpt>
      <trkpt lat="45.96929" lon="4.71665">
        <ele>195</ele>
        <time>2018-03-07T11:32:00Z</time>
      </trkpt>
      <trkpt lat="45.96923" lon="4.71665">
        <ele>195</ele>
        <time>2018-03-07T11:32:01Z</time>
      </trkpt>
      <trkpt lat="45.96916" lon="4.71665">
        <ele>195</ele>
        <time>2018-03-07T11:32:02Z</time>
      </trkpt>
      <trkpt lat="45.9691" lon="4.71664">
        <ele>195</ele>
        <time>2018-03-07T11:32:03Z</time>
      </trkpt>
      <trkpt lat="45.96902" lon="4.71664">
        <ele>195</ele>
        <time>2018-03-07T11:32:04Z</time>
      </trkpt>
      <trkpt lat="45.96894" lon="4.71664">
        <ele>195</ele>
        <time>2018-03-07T11:32:05Z</time>
      </trkpt>
      <trkpt lat="45.96887" lon="4.71664">
        <ele>195</ele>
        <time>2018-03-07T11:32:06Z</time>
      </trkpt>
      <trkpt lat="45.96879" lon="4.71662">
        <ele>195</ele>
        <time>2018-03-07T11:32:07Z</time>
      </trkpt>
      <trkpt lat="45.96874" lon="4.71661">
        <ele>195</ele>
        <time>2018-03-07T11:32:08Z</time>
      </trkpt>
      <trkpt lat="45.96868" lon="4.7166">
        <ele>195</ele>
        <time>2018-03-07T11:32:09Z</time>
      </trkpt>
      <trkpt lat="45.96862" lon="4.7166">
        <ele>195</ele>
        <time>2018-03-07T11:32:10Z</time>
      </trkpt>
      <trkpt lat="45.96856" lon="4.71659">
        <ele>194</ele>
        <time>2018-03-07T11:32:11Z</time>
      </trkpt>
      <trkpt lat="45.96849" lon="4.71657">
        <ele>194</ele>
        <time>2018-03-07T11:32:12Z</time>
      </trkpt>
      <trkpt lat="45.96841" lon="4.71656">
        <ele>194</ele>
        <time>2018-03-07T11:32:13Z</time>
      </trkpt>
      <trkpt lat="45.96835" lon="4.71655">
        <ele>193</ele>
        <time>2018-03-07T11:32:14Z</time>
      </trkpt>
      <trkpt lat="45.96829" lon="4.71655">
        <ele>193</ele>
        <time>2018-03-07T11:32:15Z</time>
      </trkpt>
      <trkpt lat="45.96826" lon="4.71652">
        <ele>193</ele>
        <time>2018-03-07T11:32:16Z</time>
      </trkpt>
      <trkpt lat="45.96818" lon="4.71652">
        <ele>193</ele>
        <time>2018-03-07T11:32:17Z</time>
      </trkpt>
      <trkpt lat="45.96811" lon="4.71652">
        <ele>193</ele>
        <time>2018-03-07T11:32:18Z</time>
      </trkpt>
      <trkpt lat="45.96804" lon="4.71648">
        <ele>193</ele>
        <time>2018-03-07T11:32:19Z</time>
      </trkpt>
      <trkpt lat="45.96797" lon="4.71646">
        <ele>193</ele>
        <time>2018-03-07T11:32:20Z</time>
      </trkpt>
      <trkpt lat="45.96791" lon="4.71645">
        <ele>193</ele>
        <time>2018-03-07T11:32:21Z</time>
      </trkpt>
      <trkpt lat="45.96784" lon="4.71645">
        <ele>192</ele>
        <time>2018-03-07T11:32:22Z</time>
      </trkpt>
      <trkpt lat="45.96779" lon="4.71644">
        <ele>192</ele>
        <time>2018-03-07T11:32:23Z</time>
      </trkpt>
      <trkpt lat="45.9677" lon="4.71643">
        <ele>192</ele>
        <time>2018-03-07T11:32:24Z</time>
      </trkpt>
      <trkpt lat="45.96764" lon="4.71642">
        <ele>192</ele>
        <time>2018-03-07T11:32:25Z</time>
      </trkpt>
      <trkpt lat="45.96757" lon="4.71641">
        <ele>192</ele>
        <time>2018-03-07T11:32:26Z</time>
      </trkpt>
      <trkpt lat="45.96749" lon="4.71641">
        <ele>190</ele>
        <time>2018-03-07T11:32:27Z</time>
      </trkpt>
      <trkpt lat="45.96743" lon="4.7164">
        <ele>190</ele>
        <time>2018-03-07T11:32:28Z</time>
      </trkpt>
      <trkpt lat="45.96737" lon="4.7164">
        <ele>190</ele>
        <time>2018-03-07T11:32:29Z</time>
      </trkpt>
      <trkpt lat="45.9673" lon="4.7164">
        <ele>190</ele>
        <time>2018-03-07T11:32:30Z</time>
      </trkpt>
      <trkpt lat="45.96724" lon="4.71639">
        <ele>190</ele>
        <time>2018-03-07T11:32:31Z</time>
      </trkpt>
      <trkpt lat="45.96717" lon="4.71638">
        <ele>190</ele>
        <time>2018-03-07T11:32:32Z</time>
      </trkpt>
      <trkpt lat="45.96711" lon="4.71636">
        <ele>190</ele>
        <time>2018-03-07T11:32:33Z</time>
      </trkpt>
      <trkpt lat="45.96705" lon="4.71635">
        <ele>190</ele>
        <time>2018-03-07T11:32:34Z</time>
      </trkpt>
      <trkpt lat="45.96699" lon="4.71634">
        <ele>190</ele>
        <time>2018-03-07T11:32:35Z</time>
      </trkpt>
      <trkpt lat="45.96693" lon="4.71633">
        <ele>190</ele>
        <time>2018-03-07T11:32:36Z</time>
      </trkpt>
      <trkpt lat="45.96686" lon="4.71633">
        <ele>190</ele>
        <time>2018-03-07T11:32:37Z</time>
      </trkpt>
      <trkpt lat="45.9668" lon="4.71634">
        <ele>190</ele>
        <time>2018-03-07T11:32:38Z</time>
      </trkpt>
      <trkpt lat="45.96673" lon="4.71634">
        <ele>190</ele>
        <time>2018-03-07T11:32:39Z</time>
      </trkpt>
      <trkpt lat="45.9667" lon="4.71632">
        <ele>190</ele>
        <time>2018-03-07T11:32:40Z</time>
      </trkpt>
      <trkpt lat="45.96664" lon="4.7163">
        <ele>188</ele>
        <time>2018-03-07T11:32:41Z</time>
      </trkpt>
      <trkpt lat="45.96657" lon="4.71629">
        <ele>188</ele>
        <time>2018-03-07T11:32:42Z</time>
      </trkpt>
      <trkpt lat="45.96649" lon="4.7163">
        <ele>188</ele>
        <time>2018-03-07T11:32:43Z</time>
      </trkpt>
      <trkpt lat="45.96644" lon="4.71629">
        <ele>188</ele>
        <time>2018-03-07T11:32:44Z</time>
      </trkpt>
      <trkpt lat="45.96638" lon="4.71629">
        <ele>188</ele>
        <time>2018-03-07T11:32:45Z</time>
      </trkpt>
      <trkpt lat="45.96631" lon="4.71628">
        <ele>188</ele>
        <time>2018-03-07T11:32:46Z</time>
      </trkpt>
      <trkpt lat="45.96624" lon="4.71627">
        <ele>188</ele>
        <time>2018-03-07T11:32:47Z</time>
      </trkpt>
      <trkpt lat="45.96616" lon="4.71626">
        <ele>188</ele>
        <time>2018-03-07T11:32:48Z</time>
      </trkpt>
      <trkpt lat="45.96609" lon="4.71624">
        <ele>187</ele>
        <time>2018-03-07T11:32:49Z</time>
      </trkpt>
      <trkpt lat="45.96602" lon="4.71623">
        <ele>187</ele>
        <time>2018-03-07T11:32:50Z</time>
      </trkpt>
      <trkpt lat="45.96596" lon="4.71622">
        <ele>187</ele>
        <time>2018-03-07T11:32:51Z</time>
      </trkpt>
      <trkpt lat="45.96588" lon="4.71621">
        <ele>187</ele>
        <time>2018-03-07T11:32:52Z</time>
      </trkpt>
      <trkpt lat="45.96582" lon="4.7162">
        <ele>185</ele>
        <time>2018-03-07T11:32:53Z</time>
      </trkpt>
      <trkpt lat="45.96575" lon="4.7162">
        <ele>185</ele>
        <time>2018-03-07T11:32:54Z</time>
      </trkpt>
      <trkpt lat="45.9657" lon="4.71618">
        <ele>185</ele>
        <time>2018-03-07T11:32:55Z</time>
      </trkpt>
      <trkpt lat="45.96564" lon="4.71618">
        <ele>185</ele>
        <time>2018-03-07T11:32:56Z</time>
      </trkpt>
      <trkpt lat="45.96558" lon="4.71617">
        <ele>185</ele>
        <time>2018-03-07T11:32:57Z</time>
      </trkpt>
      <trkpt lat="45.96554" lon="4.71615">
        <ele>185</ele>
        <time>2018-03-07T11:32:58Z</time>
      </trkpt>
      <trkpt lat="45.96548" lon="4.71612">
        <ele>185</ele>
        <time>2018-03-07T11:32:59Z</time>
      </trkpt>
      <trkpt lat="45.96543" lon="4.71608">
        <ele>185</ele>
        <time>2018-03-07T11:33:00Z</time>
      </trkpt>
      <trkpt lat="45.9654" lon="4.71602">
        <ele>185</ele>
        <time>2018-03-07T11:33:01Z</time>
      </trkpt>
      <trkpt lat="45.96535" lon="4.71596">
        <ele>185</ele>
        <time>2018-03-07T11:33:02Z</time>
      </trkpt>
      <trkpt lat="45.96529" lon="4.71593">
        <ele>185</ele>
        <time>2018-03-07T11:33:03Z</time>
      </trkpt>
      <trkpt lat="45.96524" lon="4.71592">
        <ele>185</ele>
        <time>2018-03-07T11:33:04Z</time>
      </trkpt>
      <trkpt lat="45.96515" lon="4.71594">
        <ele>185</ele>
        <time>2018-03-07T11:33:05Z</time>
      </trkpt>
      <trkpt lat="45.96508" lon="4.71596">
        <ele>185</ele>
        <time>2018-03-07T11:33:06Z</time>
      </trkpt>
      <trkpt lat="45.96501" lon="4.71599">
        <ele>185</ele>
        <time>2018-03-07T11:33:07Z</time>
      </trkpt>
      <trkpt lat="45.96495" lon="4.716">
        <ele>184</ele>
        <time>2018-03-07T11:33:08Z</time>
      </trkpt>
      <trkpt lat="45.9649" lon="4.71601">
        <ele>184</ele>
        <time>2018-03-07T11:33:09Z</time>
      </trkpt>
      <trkpt lat="45.96484" lon="4.71599">
        <ele>184</ele>
        <time>2018-03-07T11:33:10Z</time>
      </trkpt>
      <trkpt lat="45.96478" lon="4.71599">
        <ele>183</ele>
        <time>2018-03-07T11:33:11Z</time>
      </trkpt>
      <trkpt lat="45.96472" lon="4.71598">
        <ele>183</ele>
        <time>2018-03-07T11:33:12Z</time>
      </trkpt>
      <trkpt lat="45.96467" lon="4.71597">
        <ele>183</ele>
        <time>2018-03-07T11:33:13Z</time>
      </trkpt>
      <trkpt lat="45.96461" lon="4.71597">
        <ele>183</ele>
        <time>2018-03-07T11:33:14Z</time>
      </trkpt>
      <trkpt lat="45.96456" lon="4.71596">
        <ele>183</ele>
        <time>2018-03-07T11:33:15Z</time>
      </trkpt>
      <trkpt lat="45.96449" lon="4.71596">
        <ele>183</ele>
        <time>2018-03-07T11:33:16Z</time>
      </trkpt>
      <trkpt lat="45.96444" lon="4.71595">
        <ele>183</ele>
        <time>2018-03-07T11:33:17Z</time>
      </trkpt>
      <trkpt lat="45.96439" lon="4.71592">
        <ele>184</ele>
        <time>2018-03-07T11:33:18Z</time>
      </trkpt>
      <trkpt lat="45.96433" lon="4.71592">
        <ele>184</ele>
        <time>2018-03-07T11:33:19Z</time>
      </trkpt>
      <trkpt lat="45.96426" lon="4.7159">
        <ele>184</ele>
        <time>2018-03-07T11:33:20Z</time>
      </trkpt>
      <trkpt lat="45.96419" lon="4.71589">
        <ele>184</ele>
        <time>2018-03-07T11:33:21Z</time>
      </trkpt>
      <trkpt lat="45.96413" lon="4.71589">
        <ele>184</ele>
        <time>2018-03-07T11:33:22Z</time>
      </trkpt>
      <trkpt lat="45.96408" lon="4.71589">
        <ele>184</ele>
        <time>2018-03-07T11:33:23Z</time>
      </trkpt>
      <trkpt lat="45.96402" lon="4.71588">
        <ele>183</ele>
        <time>2018-03-07T11:33:24Z</time>
      </trkpt>
      <trkpt lat="45.96396" lon="4.71586">
        <ele>183</ele>
        <time>2018-03-07T11:33:25Z</time>
      </trkpt>
      <trkpt lat="45.96391" lon="4.71585">
        <ele>183</ele>
        <time>2018-03-07T11:33:26Z</time>
      </trkpt>
      <trkpt lat="45.96384" lon="4.71583">
        <ele>186</ele>
        <time>2018-03-07T11:33:27Z</time>
      </trkpt>
      <trkpt lat="45.96379" lon="4.71581">
        <ele>186</ele>
        <time>2018-03-07T11:33:28Z</time>
      </trkpt>
      <trkpt lat="45.96373" lon="4.71581">
        <ele>186</ele>
        <time>2018-03-07T11:33:29Z</time>
      </trkpt>
      <trkpt lat="45.96367" lon="4.7158">
        <ele>186</ele>
        <time>2018-03-07T11:33:30Z</time>
      </trkpt>
      <trkpt lat="45.96361" lon="4.7158">
        <ele>185</ele>
        <time>2018-03-07T11:33:31Z</time>
      </trkpt>
      <trkpt lat="45.96355" lon="4.71579">
        <ele>185</ele>
        <time>2018-03-07T11:33:32Z</time>
      </trkpt>
      <trkpt lat="45.9635" lon="4.71578">
        <ele>185</ele>
        <time>2018-03-07T11:33:33Z</time>
      </trkpt>
      <trkpt lat="45.96344" lon="4.71577">
        <ele>184</ele>
        <time>2018-03-07T11:33:34Z</time>
      </trkpt>
      <trkpt lat="45.96338" lon="4.71575">
        <ele>184</ele>
        <time>2018-03-07T11:33:35Z</time>
      </trkpt>
      <trkpt lat="45.96333" lon="4.71574">
        <ele>184</ele>
        <time>2018-03-07T11:33:36Z</time>
      </trkpt>
      <trkpt lat="45.96326" lon="4.71572">
        <ele>184</ele>
        <time>2018-03-07T11:33:37Z</time>
      </trkpt>
      <trkpt lat="45.9632" lon="4.71571">
        <ele>184</ele>
        <time>2018-03-07T11:33:38Z</time>
      </trkpt>
      <trkpt lat="45.96314" lon="4.71571">
        <ele>184</ele>
        <time>2018-03-07T11:33:39Z</time>
      </trkpt>
      <trkpt lat="45.96308" lon="4.7157">
        <ele>184</ele>
        <time>2018-03-07T11:33:40Z</time>
      </trkpt>
      <trkpt lat="45.96302" lon="4.7157">
        <ele>184</ele>
        <time>2018-03-07T11:33:41Z</time>
      </trkpt>
      <trkpt lat="45.96296" lon="4.71569">
        <ele>184</ele>
        <time>2018-03-07T11:33:42Z</time>
      </trkpt>
      <trkpt lat="45.9629" lon="4.71569">
        <ele>184</ele>
        <time>2018-03-07T11:33:43Z</time>
      </trkpt>
      <trkpt lat="45.96283" lon="4.71568">
        <ele>184</ele>
        <time>2018-03-07T11:33:44Z</time>
      </trkpt>
      <trkpt lat="45.96277" lon="4.71568">
        <ele>184</ele>
        <time>2018-03-07T11:33:45Z</time>
      </trkpt>
      <trkpt lat="45.9627" lon="4.71567">
        <ele>184</ele>
        <time>2018-03-07T11:33:46Z</time>
      </trkpt>
      <trkpt lat="45.96265" lon="4.71564">
        <ele>184</ele>
        <time>2018-03-07T11:33:47Z</time>
      </trkpt>
      <trkpt lat="45.96259" lon="4.71563">
        <ele>184</ele>
        <time>2018-03-07T11:33:48Z</time>
      </trkpt>
      <trkpt lat="45.96253" lon="4.71564">
        <ele>183</ele>
        <time>2018-03-07T11:33:49Z</time>
      </trkpt>
      <trkpt lat="45.96248" lon="4.71562">
        <ele>183</ele>
        <time>2018-03-07T11:33:50Z</time>
      </trkpt>
      <trkpt lat="45.96242" lon="4.71561">
        <ele>183</ele>
        <time>2018-03-07T11:33:51Z</time>
      </trkpt>
      <trkpt lat="45.96235" lon="4.7156">
        <ele>183</ele>
        <time>2018-03-07T11:33:52Z</time>
      </trkpt>
      <trkpt lat="45.9623" lon="4.71559">
        <ele>183</ele>
        <time>2018-03-07T11:33:53Z</time>
      </trkpt>
      <trkpt lat="45.96222" lon="4.71557">
        <ele>184</ele>
        <time>2018-03-07T11:33:55Z</time>
      </trkpt>
      <trkpt lat="45.96217" lon="4.71555">
        <ele>184</ele>
        <time>2018-03-07T11:33:56Z</time>
      </trkpt>
      <trkpt lat="45.96212" lon="4.71555">
        <ele>184</ele>
        <time>2018-03-07T11:33:57Z</time>
      </trkpt>
      <trkpt lat="45.96207" lon="4.71554">
        <ele>184</ele>
        <time>2018-03-07T11:33:58Z</time>
      </trkpt>
      <trkpt lat="45.96202" lon="4.71554">
        <ele>184</ele>
        <time>2018-03-07T11:33:59Z</time>
      </trkpt>
      <trkpt lat="45.96197" lon="4.71553">
        <ele>184</ele>
        <time>2018-03-07T11:34:00Z</time>
      </trkpt>
      <trkpt lat="45.9619" lon="4.71551">
        <ele>184</ele>
        <time>2018-03-07T11:34:01Z</time>
      </trkpt>
      <trkpt lat="45.96186" lon="4.7155">
        <ele>184</ele>
        <time>2018-03-07T11:34:02Z</time>
      </trkpt>
      <trkpt lat="45.96181" lon="4.71549">
        <ele>184</ele>
        <time>2018-03-07T11:34:03Z</time>
      </trkpt>
      <trkpt lat="45.96176" lon="4.71548">
        <ele>184</ele>
        <time>2018-03-07T11:34:04Z</time>
      </trkpt>
      <trkpt lat="45.9617" lon="4.71548">
        <ele>184</ele>
        <time>2018-03-07T11:34:05Z</time>
      </trkpt>
      <trkpt lat="45.96165" lon="4.71547">
        <ele>184</ele>
        <time>2018-03-07T11:34:06Z</time>
      </trkpt>
      <trkpt lat="45.96159" lon="4.71546">
        <ele>184</ele>
        <time>2018-03-07T11:34:07Z</time>
      </trkpt>
      <trkpt lat="45.96153" lon="4.71545">
        <ele>184</ele>
        <time>2018-03-07T11:34:08Z</time>
      </trkpt>
      <trkpt lat="45.96148" lon="4.71545">
        <ele>184</ele>
        <time>2018-03-07T11:34:09Z</time>
      </trkpt>
      <trkpt lat="45.96143" lon="4.71544">
        <ele>184</ele>
        <time>2018-03-07T11:34:10Z</time>
      </trkpt>
      <trkpt lat="45.96139" lon="4.71541">
        <ele>185</ele>
        <time>2018-03-07T11:34:11Z</time>
      </trkpt>
      <trkpt lat="45.96133" lon="4.7154">
        <ele>185</ele>
        <time>2018-03-07T11:34:12Z</time>
      </trkpt>
      <trkpt lat="45.96127" lon="4.71539">
        <ele>185</ele>
        <time>2018-03-07T11:34:13Z</time>
      </trkpt>
      <trkpt lat="45.96123" lon="4.71539">
        <ele>185</ele>
        <time>2018-03-07T11:34:14Z</time>
      </trkpt>
      <trkpt lat="45.96118" lon="4.71537">
        <ele>185</ele>
        <time>2018-03-07T11:34:15Z</time>
      </trkpt>
      <trkpt lat="45.96113" lon="4.71537">
        <ele>185</ele>
        <time>2018-03-07T11:34:16Z</time>
      </trkpt>
      <trkpt lat="45.96108" lon="4.71537">
        <ele>185</ele>
        <time>2018-03-07T11:34:17Z</time>
      </trkpt>
      <trkpt lat="45.96103" lon="4.71535">
        <ele>185</ele>
        <time>2018-03-07T11:34:18Z</time>
      </trkpt>
      <trkpt lat="45.96098" lon="4.71533">
        <ele>185</ele>
        <time>2018-03-07T11:34:19Z</time>
      </trkpt>
      <trkpt lat="45.96093" lon="4.71532">
        <ele>185</ele>
        <time>2018-03-07T11:34:20Z</time>
      </trkpt>
      <trkpt lat="45.96088" lon="4.71532">
        <ele>186</ele>
        <time>2018-03-07T11:34:21Z</time>
      </trkpt>
      <trkpt lat="45.96082" lon="4.71531">
        <ele>186</ele>
        <time>2018-03-07T11:34:22Z</time>
      </trkpt>
      <trkpt lat="45.96074" lon="4.7153">
        <ele>186</ele>
        <time>2018-03-07T11:34:24Z</time>
      </trkpt>
      <trkpt lat="45.96069" lon="4.71529">
        <ele>186</ele>
        <time>2018-03-07T11:34:25Z</time>
      </trkpt>
      <trkpt lat="45.9606" lon="4.71526">
        <ele>186</ele>
        <time>2018-03-07T11:34:27Z</time>
      </trkpt>
      <trkpt lat="45.96055" lon="4.71525">
        <ele>186</ele>
        <time>2018-03-07T11:34:28Z</time>
      </trkpt>
      <trkpt lat="45.96048" lon="4.71525">
        <ele>186</ele>
        <time>2018-03-07T11:34:30Z</time>
      </trkpt>
      <trkpt lat="45.96044" lon="4.71524">
        <ele>186</ele>
        <time>2018-03-07T11:34:31Z</time>
      </trkpt>
      <trkpt lat="45.96037" lon="4.71522">
        <ele>186</ele>
        <time>2018-03-07T11:34:33Z</time>
      </trkpt>
      <trkpt lat="45.96031" lon="4.71522">
        <ele>186</ele>
        <time>2018-03-07T11:34:34Z</time>
      </trkpt>
      <trkpt lat="45.96023" lon="4.7152">
        <ele>186</ele>
        <time>2018-03-07T11:34:36Z</time>
      </trkpt>
      <trkpt lat="45.96018" lon="4.7152">
        <ele>186</ele>
        <time>2018-03-07T11:34:37Z</time>
      </trkpt>
      <trkpt lat="45.96011" lon="4.71518">
        <ele>186</ele>
        <time>2018-03-07T11:34:39Z</time>
      </trkpt>
      <trkpt lat="45.96007" lon="4.71517">
        <ele>186</ele>
        <time>2018-03-07T11:34:40Z</time>
      </trkpt>
      <trkpt lat="45.96001" lon="4.71513">
        <ele>187</ele>
        <time>2018-03-07T11:34:42Z</time>
      </trkpt>
      <trkpt lat="45.95997" lon="4.71509">
        <ele>186</ele>
        <time>2018-03-07T11:34:43Z</time>
      </trkpt>
      <trkpt lat="45.95992" lon="4.71506">
        <ele>186</ele>
        <time>2018-03-07T11:34:44Z</time>
      </trkpt>
      <trkpt lat="45.95988" lon="4.71506">
        <ele>186</ele>
        <time>2018-03-07T11:34:45Z</time>
      </trkpt>
      <trkpt lat="45.95984" lon="4.71504">
        <ele>186</ele>
        <time>2018-03-07T11:34:46Z</time>
      </trkpt>
      <trkpt lat="45.95977" lon="4.71504">
        <ele>185</ele>
        <time>2018-03-07T11:34:47Z</time>
      </trkpt>
      <trkpt lat="45.95972" lon="4.71507">
        <ele>185</ele>
        <time>2018-03-07T11:34:48Z</time>
      </trkpt>
      <trkpt lat="45.95968" lon="4.71511">
        <ele>185</ele>
        <time>2018-03-07T11:34:49Z</time>
      </trkpt>
      <trkpt lat="45.95963" lon="4.71513">
        <ele>184</ele>
        <time>2018-03-07T11:34:50Z</time>
      </trkpt>
      <trkpt lat="45.95958" lon="4.71514">
        <ele>184</ele>
        <time>2018-03-07T11:34:51Z</time>
      </trkpt>
      <trkpt lat="45.95952" lon="4.71515">
        <ele>184</ele>
        <time>2018-03-07T11:34:52Z</time>
      </trkpt>
      <trkpt lat="45.95947" lon="4.71515">
        <ele>184</ele>
        <time>2018-03-07T11:34:53Z</time>
      </trkpt>
      <trkpt lat="45.95941" lon="4.71515">
        <ele>184</ele>
        <time>2018-03-07T11:34:54Z</time>
      </trkpt>
      <trkpt lat="45.95935" lon="4.71515">
        <ele>184</ele>
        <time>2018-03-07T11:34:55Z</time>
      </trkpt>
      <trkpt lat="45.95928" lon="4.71515">
        <ele>184</ele>
        <time>2018-03-07T11:34:56Z</time>
      </trkpt>
      <trkpt lat="45.95923" lon="4.71515">
        <ele>184</ele>
        <time>2018-03-07T11:34:57Z</time>
      </trkpt>
      <trkpt lat="45.95916" lon="4.71515">
        <ele>183</ele>
        <time>2018-03-07T11:34:58Z</time>
      </trkpt>
      <trkpt lat="45.95909" lon="4.71515">
        <ele>183</ele>
        <time>2018-03-07T11:34:59Z</time>
      </trkpt>
      <trkpt lat="45.95902" lon="4.71515">
        <ele>183</ele>
        <time>2018-03-07T11:35:00Z</time>
      </trkpt>
      <trkpt lat="45.95895" lon="4.71513">
        <ele>183</ele>
        <time>2018-03-07T11:35:01Z</time>
      </trkpt>
      <trkpt lat="45.95889" lon="4.71513">
        <ele>182</ele>
        <time>2018-03-07T11:35:02Z</time>
      </trkpt>
      <trkpt lat="45.95882" lon="4.71513">
        <ele>182</ele>
        <time>2018-03-07T11:35:03Z</time>
      </trkpt>
      <trkpt lat="45.95876" lon="4.71514">
        <ele>182</ele>
        <time>2018-03-07T11:35:04Z</time>
      </trkpt>
      <trkpt lat="45.9587" lon="4.71513">
        <ele>182</ele>
        <time>2018-03-07T11:35:05Z</time>
      </trkpt>
      <trkpt lat="45.95864" lon="4.71511">
        <ele>182</ele>
        <time>2018-03-07T11:35:06Z</time>
      </trkpt>
      <trkpt lat="45.95857" lon="4.71513">
        <ele>182</ele>
        <time>2018-03-07T11:35:07Z</time>
      </trkpt>
      <trkpt lat="45.95852" lon="4.71513">
        <ele>182</ele>
        <time>2018-03-07T11:35:08Z</time>
      </trkpt>
      <trkpt lat="45.95845" lon="4.71514">
        <ele>183</ele>
        <time>2018-03-07T11:35:09Z</time>
      </trkpt>
      <trkpt lat="45.95839" lon="4.71514">
        <ele>183</ele>
        <time>2018-03-07T11:35:10Z</time>
      </trkpt>
      <trkpt lat="45.95834" lon="4.71513">
        <ele>183</ele>
        <time>2018-03-07T11:35:11Z</time>
      </trkpt>
      <trkpt lat="45.95828" lon="4.71513">
        <ele>182</ele>
        <time>2018-03-07T11:35:12Z</time>
      </trkpt>
      <trkpt lat="45.95821" lon="4.71512">
        <ele>182</ele>
        <time>2018-03-07T11:35:13Z</time>
      </trkpt>
      <trkpt lat="45.95815" lon="4.71512">
        <ele>182</ele>
        <time>2018-03-07T11:35:14Z</time>
      </trkpt>
      <trkpt lat="45.95809" lon="4.71512">
        <ele>182</ele>
        <time>2018-03-07T11:35:15Z</time>
      </trkpt>
      <trkpt lat="45.95803" lon="4.71512">
        <ele>181</ele>
        <time>2018-03-07T11:35:16Z</time>
      </trkpt>
      <trkpt lat="45.95798" lon="4.7151">
        <ele>181</ele>
        <time>2018-03-07T11:35:17Z</time>
      </trkpt>
      <trkpt lat="45.95792" lon="4.7151">
        <ele>181</ele>
        <time>2018-03-07T11:35:18Z</time>
      </trkpt>
      <trkpt lat="45.95786" lon="4.71509">
        <ele>181</ele>
        <time>2018-03-07T11:35:19Z</time>
      </trkpt>
      <trkpt lat="45.9578" lon="4.71509">
        <ele>181</ele>
        <time>2018-03-07T11:35:20Z</time>
      </trkpt>
      <trkpt lat="45.95775" lon="4.71509">
        <ele>181</ele>
        <time>2018-03-07T11:35:21Z</time>
      </trkpt>
      <trkpt lat="45.95768" lon="4.71509">
        <ele>181</ele>
        <time>2018-03-07T11:35:22Z</time>
      </trkpt>
      <trkpt lat="45.95763" lon="4.71509">
        <ele>181</ele>
        <time>2018-03-07T11:35:23Z</time>
      </trkpt>
      <trkpt lat="45.95756" lon="4.71509">
        <ele>181</ele>
        <time>2018-03-07T11:35:24Z</time>
      </trkpt>
      <trkpt lat="45.9575" lon="4.71508">
        <ele>181</ele>
        <time>2018-03-07T11:35:25Z</time>
      </trkpt>
      <trkpt lat="45.95744" lon="4.71508">
        <ele>181</ele>
        <time>2018-03-07T11:35:26Z</time>
      </trkpt>
      <trkpt lat="45.95739" lon="4.71506">
        <ele>181</ele>
        <time>2018-03-07T11:35:27Z</time>
      </trkpt>
      <trkpt lat="45.95732" lon="4.71505">
        <ele>181</ele>
        <time>2018-03-07T11:35:28Z</time>
      </trkpt>
      <trkpt lat="45.95726" lon="4.71505">
        <ele>181</ele>
        <time>2018-03-07T11:35:29Z</time>
      </trkpt>
      <trkpt lat="45.95721" lon="4.71505">
        <ele>180</ele>
        <time>2018-03-07T11:35:30Z</time>
      </trkpt>
      <trkpt lat="45.95714" lon="4.71505">
        <ele>180</ele>
        <time>2018-03-07T11:35:31Z</time>
      </trkpt>
      <trkpt lat="45.95708" lon="4.71505">
        <ele>180</ele>
        <time>2018-03-07T11:35:32Z</time>
      </trkpt>
      <trkpt lat="45.95702" lon="4.71506">
        <ele>180</ele>
        <time>2018-03-07T11:35:33Z</time>
      </trkpt>
      <trkpt lat="45.95696" lon="4.71506">
        <ele>180</ele>
        <time>2018-03-07T11:35:34Z</time>
      </trkpt>
      <trkpt lat="45.95691" lon="4.71506">
        <ele>181</ele>
        <time>2018-03-07T11:35:35Z</time>
      </trkpt>
      <trkpt lat="45.95684" lon="4.71505">
        <ele>181</ele>
        <time>2018-03-07T11:35:36Z</time>
      </trkpt>
      <trkpt lat="45.95677" lon="4.71502">
        <ele>181</ele>
        <time>2018-03-07T11:35:37Z</time>
      </trkpt>
      <trkpt lat="45.95671" lon="4.71502">
        <ele>182</ele>
        <time>2018-03-07T11:35:38Z</time>
      </trkpt>
      <trkpt lat="45.95664" lon="4.71503">
        <ele>181</ele>
        <time>2018-03-07T11:35:39Z</time>
      </trkpt>
      <trkpt lat="45.95659" lon="4.71502">
        <ele>181</ele>
        <time>2018-03-07T11:35:40Z</time>
      </trkpt>
      <trkpt lat="45.95653" lon="4.71502">
        <ele>181</ele>
        <time>2018-03-07T11:35:41Z</time>
      </trkpt>
      <trkpt lat="45.95646" lon="4.71502">
        <ele>180</ele>
        <time>2018-03-07T11:35:42Z</time>
      </trkpt>
      <trkpt lat="45.9564" lon="4.71501">
        <ele>180</ele>
        <time>2018-03-07T11:35:43Z</time>
      </trkpt>
      <trkpt lat="45.95634" lon="4.715">
        <ele>180</ele>
        <time>2018-03-07T11:35:44Z</time>
      </trkpt>
      <trkpt lat="45.95628" lon="4.715">
        <ele>182</ele>
        <time>2018-03-07T11:35:45Z</time>
      </trkpt>
      <trkpt lat="45.95621" lon="4.71499">
        <ele>181</ele>
        <time>2018-03-07T11:35:46Z</time>
      </trkpt>
      <trkpt lat="45.95616" lon="4.71499">
        <ele>181</ele>
        <time>2018-03-07T11:35:47Z</time>
      </trkpt>
      <trkpt lat="45.9561" lon="4.71499">
        <ele>181</ele>
        <time>2018-03-07T11:35:48Z</time>
      </trkpt>
      <trkpt lat="45.95605" lon="4.71498">
        <ele>181</ele>
        <time>2018-03-07T11:35:49Z</time>
      </trkpt>
      <trkpt lat="45.956" lon="4.71498">
        <ele>181</ele>
        <time>2018-03-07T11:35:50Z</time>
      </trkpt>
      <trkpt lat="45.95595" lon="4.71498">
        <ele>181</ele>
        <time>2018-03-07T11:35:51Z</time>
      </trkpt>
      <trkpt lat="45.95589" lon="4.71495">
        <ele>180</ele>
        <time>2018-03-07T11:35:52Z</time>
      </trkpt>
      <trkpt lat="45.95583" lon="4.71495">
        <ele>180</ele>
        <time>2018-03-07T11:35:53Z</time>
      </trkpt>
      <trkpt lat="45.95577" lon="4.71495">
        <ele>180</ele>
        <time>2018-03-07T11:35:54Z</time>
      </trkpt>
      <trkpt lat="45.9557" lon="4.71495">
        <ele>180</ele>
        <time>2018-03-07T11:35:55Z</time>
      </trkpt>
      <trkpt lat="45.95564" lon="4.71495">
        <ele>179</ele>
        <time>2018-03-07T11:35:56Z</time>
      </trkpt>
      <trkpt lat="45.95558" lon="4.71494">
        <ele>179</ele>
        <time>2018-03-07T11:35:57Z</time>
      </trkpt>
      <trkpt lat="45.95553" lon="4.71493">
        <ele>179</ele>
        <time>2018-03-07T11:35:58Z</time>
      </trkpt>
      <trkpt lat="45.95547" lon="4.71493">
        <ele>179</ele>
        <time>2018-03-07T11:35:59Z</time>
      </trkpt>
      <trkpt lat="45.95541" lon="4.71493">
        <ele>179</ele>
        <time>2018-03-07T11:36:00Z</time>
      </trkpt>
      <trkpt lat="45.95535" lon="4.71493">
        <ele>179</ele>
        <time>2018-03-07T11:36:01Z</time>
      </trkpt>
      <trkpt lat="45.95529" lon="4.71494">
        <ele>178</ele>
        <time>2018-03-07T11:36:02Z</time>
      </trkpt>
      <trkpt lat="45.95523" lon="4.71494">
        <ele>178</ele>
        <time>2018-03-07T11:36:03Z</time>
      </trkpt>
      <trkpt lat="45.95517" lon="4.71494">
        <ele>178</ele>
        <time>2018-03-07T11:36:04Z</time>
      </trkpt>
      <trkpt lat="45.95511" lon="4.71493">
        <ele>178</ele>
        <time>2018-03-07T11:36:05Z</time>
      </trkpt>
      <trkpt lat="45.95504" lon="4.71493">
        <ele>178</ele>
        <time>2018-03-07T11:36:06Z</time>
      </trkpt>
      <trkpt lat="45.95498" lon="4.71493">
        <ele>177</ele>
        <time>2018-03-07T11:36:07Z</time>
      </trkpt>
      <trkpt lat="45.95492" lon="4.71493">
        <ele>177</ele>
        <time>2018-03-07T11:36:08Z</time>
      </trkpt>
      <trkpt lat="45.95484" lon="4.71494">
        <ele>177</ele>
        <time>2018-03-07T11:36:09Z</time>
      </trkpt>
      <trkpt lat="45.95475" lon="4.71492">
        <ele>176</ele>
        <time>2018-03-07T11:36:10Z</time>
      </trkpt>
      <trkpt lat="45.95469" lon="4.71493">
        <ele>176</ele>
        <time>2018-03-07T11:36:11Z</time>
      </trkpt>
      <trkpt lat="45.95462" lon="4.71492">
        <ele>176</ele>
        <time>2018-03-07T11:36:12Z</time>
      </trkpt>
      <trkpt lat="45.95457" lon="4.71491">
        <ele>176</ele>
        <time>2018-03-07T11:36:13Z</time>
      </trkpt>
      <trkpt lat="45.95451" lon="4.7149">
        <ele>176</ele>
        <time>2018-03-07T11:36:14Z</time>
      </trkpt>
      <trkpt lat="45.95444" lon="4.71491">
        <ele>176</ele>
        <time>2018-03-07T11:36:15Z</time>
      </trkpt>
      <trkpt lat="45.95437" lon="4.71491">
        <ele>175</ele>
        <time>2018-03-07T11:36:16Z</time>
      </trkpt>
      <trkpt lat="45.95432" lon="4.71491">
        <ele>175</ele>
        <time>2018-03-07T11:36:17Z</time>
      </trkpt>
      <trkpt lat="45.95426" lon="4.71491">
        <ele>175</ele>
        <time>2018-03-07T11:36:18Z</time>
      </trkpt>
      <trkpt lat="45.9542" lon="4.71491">
        <ele>175</ele>
        <time>2018-03-07T11:36:19Z</time>
      </trkpt>
      <trkpt lat="45.95413" lon="4.7149">
        <ele>174</ele>
        <time>2018-03-07T11:36:20Z</time>
      </trkpt>
      <trkpt lat="45.95407" lon="4.71489">
        <ele>175</ele>
        <time>2018-03-07T11:36:21Z</time>
      </trkpt>
      <trkpt lat="45.95401" lon="4.71489">
        <ele>175</ele>
        <time>2018-03-07T11:36:22Z</time>
      </trkpt>
      <trkpt lat="45.95395" lon="4.71487">
        <ele>175</ele>
        <time>2018-03-07T11:36:23Z</time>
      </trkpt>
      <trkpt lat="45.95389" lon="4.71487">
        <ele>175</ele>
        <time>2018-03-07T11:36:24Z</time>
      </trkpt>
      <trkpt lat="45.95382" lon="4.71486">
        <ele>175</ele>
        <time>2018-03-07T11:36:25Z</time>
      </trkpt>
      <trkpt lat="45.95376" lon="4.71486">
        <ele>175</ele>
        <time>2018-03-07T11:36:26Z</time>
      </trkpt>
      <trkpt lat="45.9537" lon="4.71486">
        <ele>175</ele>
        <time>2018-03-07T11:36:27Z</time>
      </trkpt>
      <trkpt lat="45.95364" lon="4.71484">
        <ele>175</ele>
        <time>2018-03-07T11:36:28Z</time>
      </trkpt>
      <trkpt lat="45.95357" lon="4.71484">
        <ele>175</ele>
        <time>2018-03-07T11:36:29Z</time>
      </trkpt>
      <trkpt lat="45.95351" lon="4.71481">
        <ele>175</ele>
        <time>2018-03-07T11:36:30Z</time>
      </trkpt>
      <trkpt lat="45.95344" lon="4.71481">
        <ele>175</ele>
        <time>2018-03-07T11:36:31Z</time>
      </trkpt>
      <trkpt lat="45.95338" lon="4.71481">
        <ele>175</ele>
        <time>2018-03-07T11:36:32Z</time>
      </trkpt>
      <trkpt lat="45.95331" lon="4.71479">
        <ele>175</ele>
        <time>2018-03-07T11:36:33Z</time>
      </trkpt>
      <trkpt lat="45.95324" lon="4.71478">
        <ele>175</ele>
        <time>2018-03-07T11:36:34Z</time>
      </trkpt>
      <trkpt lat="45.95318" lon="4.71478">
        <ele>175</ele>
        <time>2018-03-07T11:36:35Z</time>
      </trkpt>
      <trkpt lat="45.95311" lon="4.71478">
        <ele>175</ele>
        <time>2018-03-07T11:36:36Z</time>
      </trkpt>
      <trkpt lat="45.95305" lon="4.71478">
        <ele>175</ele>
        <time>2018-03-07T11:36:37Z</time>
      </trkpt>
      <trkpt lat="45.95299" lon="4.71478">
        <ele>176</ele>
        <time>2018-03-07T11:36:38Z</time>
      </trkpt>
      <trkpt lat="45.95292" lon="4.71478">
        <ele>176</ele>
        <time>2018-03-07T11:36:39Z</time>
      </trkpt>
      <trkpt lat="45.95285" lon="4.71477">
        <ele>176</ele>
        <time>2018-03-07T11:36:40Z</time>
      </trkpt>
      <trkpt lat="45.9528" lon="4.71476">
        <ele>176</ele>
        <time>2018-03-07T11:36:41Z</time>
      </trkpt>
      <trkpt lat="45.95275" lon="4.71475">
        <ele>176</ele>
        <time>2018-03-07T11:36:42Z</time>
      </trkpt>
      <trkpt lat="45.95269" lon="4.71475">
        <ele>176</ele>
        <time>2018-03-07T11:36:43Z</time>
      </trkpt>
      <trkpt lat="45.95263" lon="4.71474">
        <ele>176</ele>
        <time>2018-03-07T11:36:44Z</time>
      </trkpt>
      <trkpt lat="45.95257" lon="4.71475">
        <ele>176</ele>
        <time>2018-03-07T11:36:45Z</time>
      </trkpt>
      <trkpt lat="45.95251" lon="4.71475">
        <ele>176</ele>
        <time>2018-03-07T11:36:46Z</time>
      </trkpt>
      <trkpt lat="45.95244" lon="4.71476">
        <ele>177</ele>
        <time>2018-03-07T11:36:47Z</time>
      </trkpt>
      <trkpt lat="45.95239" lon="4.71475">
        <ele>177</ele>
        <time>2018-03-07T11:36:48Z</time>
      </trkpt>
      <trkpt lat="45.95234" lon="4.71476">
        <ele>177</ele>
        <time>2018-03-07T11:36:49Z</time>
      </trkpt>
      <trkpt lat="45.95229" lon="4.71476">
        <ele>177</ele>
        <time>2018-03-07T11:36:50Z</time>
      </trkpt>
      <trkpt lat="45.95224" lon="4.71476">
        <ele>177</ele>
        <time>2018-03-07T11:36:51Z</time>
      </trkpt>
      <trkpt lat="45.95218" lon="4.71475">
        <ele>177</ele>
        <time>2018-03-07T11:36:52Z</time>
      </trkpt>
      <trkpt lat="45.95211" lon="4.71476">
        <ele>177</ele>
        <time>2018-03-07T11:36:53Z</time>
      </trkpt>
      <trkpt lat="45.95205" lon="4.71474">
        <ele>177</ele>
        <time>2018-03-07T11:36:54Z</time>
      </trkpt>
      <trkpt lat="45.95201" lon="4.71474">
        <ele>177</ele>
        <time>2018-03-07T11:36:55Z</time>
      </trkpt>
      <trkpt lat="45.95192" lon="4.71473">
        <ele>177</ele>
        <time>2018-03-07T11:36:57Z</time>
      </trkpt>
      <trkpt lat="45.95186" lon="4.71473">
        <ele>177</ele>
        <time>2018-03-07T11:36:58Z</time>
      </trkpt>
      <trkpt lat="45.95177" lon="4.71473">
        <ele>177</ele>
        <time>2018-03-07T11:37:00Z</time>
      </trkpt>
      <trkpt lat="45.95172" lon="4.71473">
        <ele>177</ele>
        <time>2018-03-07T11:37:01Z</time>
      </trkpt>
      <trkpt lat="45.95167" lon="4.71472">
        <ele>177</ele>
        <time>2018-03-07T11:37:02Z</time>
      </trkpt>
      <trkpt lat="45.95161" lon="4.71469">
        <ele>178</ele>
        <time>2018-03-07T11:37:03Z</time>
      </trkpt>
      <trkpt lat="45.95156" lon="4.71466">
        <ele>178</ele>
        <time>2018-03-07T11:37:04Z</time>
      </trkpt>
      <trkpt lat="45.95151" lon="4.71466">
        <ele>178</ele>
        <time>2018-03-07T11:37:05Z</time>
      </trkpt>
      <trkpt lat="45.95146" lon="4.71466">
        <ele>178</ele>
        <time>2018-03-07T11:37:06Z</time>
      </trkpt>
      <trkpt lat="45.95141" lon="4.71466">
        <ele>178</ele>
        <time>2018-03-07T11:37:07Z</time>
      </trkpt>
      <trkpt lat="45.95133" lon="4.71467">
        <ele>178</ele>
        <time>2018-03-07T11:37:09Z</time>
      </trkpt>
      <trkpt lat="45.95127" lon="4.71466">
        <ele>178</ele>
        <time>2018-03-07T11:37:10Z</time>
      </trkpt>
      <trkpt lat="45.95121" lon="4.71464">
        <ele>179</ele>
        <time>2018-03-07T11:37:12Z</time>
      </trkpt>
      <trkpt lat="45.95117" lon="4.71463">
        <ele>179</ele>
        <time>2018-03-07T11:37:13Z</time>
      </trkpt>
      <trkpt lat="45.95112" lon="4.71463">
        <ele>179</ele>
        <time>2018-03-07T11:37:14Z</time>
      </trkpt>
      <trkpt lat="45.95108" lon="4.71463">
        <ele>179</ele>
        <time>2018-03-07T11:37:15Z</time>
      </trkpt>
      <trkpt lat="45.95103" lon="4.71463">
        <ele>179</ele>
        <time>2018-03-07T11:37:16Z</time>
      </trkpt>
      <trkpt lat="45.95098" lon="4.71463">
        <ele>179</ele>
        <time>2018-03-07T11:37:17Z</time>
      </trkpt>
      <trkpt lat="45.95094" lon="4.71462">
        <ele>179</ele>
        <time>2018-03-07T11:37:18Z</time>
      </trkpt>
      <trkpt lat="45.95089" lon="4.71462">
        <ele>179</ele>
        <time>2018-03-07T11:37:19Z</time>
      </trkpt>
      <trkpt lat="45.95085" lon="4.71463">
        <ele>179</ele>
        <time>2018-03-07T11:37:20Z</time>
      </trkpt>
      <trkpt lat="45.9508" lon="4.71463">
        <ele>181</ele>
        <time>2018-03-07T11:37:21Z</time>
      </trkpt>
      <trkpt lat="45.95072" lon="4.7146">
        <ele>181</ele>
        <time>2018-03-07T11:37:23Z</time>
      </trkpt>
      <trkpt lat="45.95068" lon="4.71459">
        <ele>181</ele>
        <time>2018-03-07T11:37:24Z</time>
      </trkpt>
      <trkpt lat="45.95061" lon="4.71459">
        <ele>181</ele>
        <time>2018-03-07T11:37:26Z</time>
      </trkpt>
      <trkpt lat="45.95059" lon="4.71459">
        <ele>181</ele>
        <time>2018-03-07T11:37:27Z</time>
      </trkpt>
      <trkpt lat="45.95051" lon="4.7146">
        <ele>182</ele>
        <time>2018-03-07T11:37:30Z</time>
      </trkpt>
      <trkpt lat="45.95048" lon="4.7146">
        <ele>182</ele>
        <time>2018-03-07T11:37:31Z</time>
      </trkpt>
      <trkpt lat="45.9504" lon="4.71459">
        <ele>182</ele>
        <time>2018-03-07T11:37:34Z</time>
      </trkpt>
      <trkpt lat="45.95037" lon="4.71459">
        <ele>182</ele>
        <time>2018-03-07T11:37:35Z</time>
      </trkpt>
      <trkpt lat="45.95028" lon="4.71458">
        <ele>182</ele>
        <time>2018-03-07T11:37:38Z</time>
      </trkpt>
      <trkpt lat="45.95025" lon="4.71457">
        <ele>182</ele>
        <time>2018-03-07T11:37:39Z</time>
      </trkpt>
      <trkpt lat="45.95015" lon="4.71456">
        <ele>182</ele>
        <time>2018-03-07T11:37:40Z</time>
      </trkpt>
      <trkpt lat="45.95009" lon="4.71455">
        <ele>183</ele>
        <time>2018-03-07T11:37:42Z</time>
      </trkpt>
      <trkpt lat="45.95004" lon="4.71455">
        <ele>183</ele>
        <time>2018-03-07T11:37:43Z</time>
      </trkpt>
      <trkpt lat="45.94997" lon="4.71452">
        <ele>184</ele>
        <time>2018-03-07T11:37:45Z</time>
      </trkpt>
      <trkpt lat="45.94993" lon="4.71449">
        <ele>184</ele>
        <time>2018-03-07T11:37:46Z</time>
      </trkpt>
      <trkpt lat="45.94988" lon="4.71442">
        <ele>184</ele>
        <time>2018-03-07T11:37:48Z</time>
      </trkpt>
      <trkpt lat="45.94986" lon="4.71437">
        <ele>185</ele>
        <time>2018-03-07T11:37:49Z</time>
      </trkpt>
      <trkpt lat="45.9498" lon="4.71429">
        <ele>185</ele>
        <time>2018-03-07T11:37:51Z</time>
      </trkpt>
      <trkpt lat="45.94975" lon="4.71428">
        <ele>185</ele>
        <time>2018-03-07T11:37:52Z</time>
      </trkpt>
      <trkpt lat="45.94972" lon="4.71428">
        <ele>185</ele>
        <time>2018-03-07T11:37:54Z</time>
      </trkpt>
      <trkpt lat="45.94963" lon="4.71429">
        <ele>185</ele>
        <time>2018-03-07T11:37:55Z</time>
      </trkpt>
      <trkpt lat="45.94956" lon="4.71436">
        <ele>184</ele>
        <time>2018-03-07T11:37:57Z</time>
      </trkpt>
      <trkpt lat="45.94952" lon="4.7144">
        <ele>184</ele>
        <time>2018-03-07T11:37:58Z</time>
      </trkpt>
      <trkpt lat="45.94948" lon="4.71444">
        <ele>184</ele>
        <time>2018-03-07T11:38:00Z</time>
      </trkpt>
      <trkpt lat="45.94943" lon="4.71448">
        <ele>184</ele>
        <time>2018-03-07T11:38:01Z</time>
      </trkpt>
      <trkpt lat="45.94938" lon="4.7145">
        <ele>184</ele>
        <time>2018-03-07T11:38:02Z</time>
      </trkpt>
      <trkpt lat="45.94932" lon="4.71451">
        <ele>184</ele>
        <time>2018-03-07T11:38:03Z</time>
      </trkpt>
      <trkpt lat="45.94927" lon="4.71451">
        <ele>184</ele>
        <time>2018-03-07T11:38:04Z</time>
      </trkpt>
      <trkpt lat="45.94922" lon="4.71451">
        <ele>184</ele>
        <time>2018-03-07T11:38:05Z</time>
      </trkpt>
      <trkpt lat="45.94917" lon="4.71451">
        <ele>184</ele>
        <time>2018-03-07T11:38:06Z</time>
      </trkpt>
      <trkpt lat="45.94912" lon="4.7145">
        <ele>184</ele>
        <time>2018-03-07T11:38:07Z</time>
      </trkpt>
      <trkpt lat="45.94907" lon="4.7145">
        <ele>184</ele>
        <time>2018-03-07T11:38:08Z</time>
      </trkpt>
      <trkpt lat="45.94903" lon="4.7145">
        <ele>184</ele>
        <time>2018-03-07T11:38:09Z</time>
      </trkpt>
      <trkpt lat="45.94894" lon="4.7145">
        <ele>184</ele>
        <time>2018-03-07T11:38:11Z</time>
      </trkpt>
      <trkpt lat="45.94888" lon="4.71449">
        <ele>184</ele>
        <time>2018-03-07T11:38:12Z</time>
      </trkpt>
      <trkpt lat="45.94883" lon="4.71449">
        <ele>184</ele>
        <time>2018-03-07T11:38:13Z</time>
      </trkpt>
      <trkpt lat="45.94879" lon="4.71448">
        <ele>184</ele>
        <time>2018-03-07T11:38:14Z</time>
      </trkpt>
      <trkpt lat="45.94874" lon="4.71447">
        <ele>184</ele>
        <time>2018-03-07T11:38:15Z</time>
      </trkpt>
      <trkpt lat="45.94868" lon="4.71447">
        <ele>184</ele>
        <time>2018-03-07T11:38:16Z</time>
      </trkpt>
      <trkpt lat="45.94864" lon="4.71447">
        <ele>184</ele>
        <time>2018-03-07T11:38:17Z</time>
      </trkpt>
      <trkpt lat="45.94858" lon="4.71447">
        <ele>184</ele>
        <time>2018-03-07T11:38:18Z</time>
      </trkpt>
      <trkpt lat="45.94853" lon="4.71447">
        <ele>184</ele>
        <time>2018-03-07T11:38:19Z</time>
      </trkpt>
      <trkpt lat="45.94848" lon="4.71448">
        <ele>184</ele>
        <time>2018-03-07T11:38:20Z</time>
      </trkpt>
      <trkpt lat="45.94843" lon="4.71447">
        <ele>184</ele>
        <time>2018-03-07T11:38:21Z</time>
      </trkpt>
      <trkpt lat="45.94838" lon="4.71446">
        <ele>184</ele>
        <time>2018-03-07T11:38:22Z</time>
      </trkpt>
      <trkpt lat="45.94833" lon="4.71446">
        <ele>184</ele>
        <time>2018-03-07T11:38:23Z</time>
      </trkpt>
      <trkpt lat="45.94828" lon="4.71446">
        <ele>184</ele>
        <time>2018-03-07T11:38:24Z</time>
      </trkpt>
      <trkpt lat="45.94823" lon="4.71447">
        <ele>184</ele>
        <time>2018-03-07T11:38:25Z</time>
      </trkpt>
      <trkpt lat="45.94818" lon="4.71447">
        <ele>184</ele>
        <time>2018-03-07T11:38:26Z</time>
      </trkpt>
      <trkpt lat="45.94814" lon="4.71446">
        <ele>184</ele>
        <time>2018-03-07T11:38:27Z</time>
      </trkpt>
      <trkpt lat="45.94809" lon="4.71446">
        <ele>184</ele>
        <time>2018-03-07T11:38:28Z</time>
      </trkpt>
      <trkpt lat="45.94803" lon="4.71444">
        <ele>184</ele>
        <time>2018-03-07T11:38:29Z</time>
      </trkpt>
      <trkpt lat="45.94797" lon="4.71441">
        <ele>184</ele>
        <time>2018-03-07T11:38:30Z</time>
      </trkpt>
      <trkpt lat="45.94792" lon="4.71441">
        <ele>184</ele>
        <time>2018-03-07T11:38:31Z</time>
      </trkpt>
      <trkpt lat="45.94787" lon="4.7144">
        <ele>184</ele>
        <time>2018-03-07T11:38:32Z</time>
      </trkpt>
      <trkpt lat="45.94782" lon="4.71439">
        <ele>184</ele>
        <time>2018-03-07T11:38:33Z</time>
      </trkpt>
      <trkpt lat="45.94777" lon="4.71439">
        <ele>184</ele>
        <time>2018-03-07T11:38:34Z</time>
      </trkpt>
      <trkpt lat="45.9477" lon="4.71439">
        <ele>184</ele>
        <time>2018-03-07T11:38:36Z</time>
      </trkpt>
      <trkpt lat="45.94763" lon="4.7144">
        <ele>184</ele>
        <time>2018-03-07T11:38:37Z</time>
      </trkpt>
      <trkpt lat="45.94755" lon="4.7144">
        <ele>184</ele>
        <time>2018-03-07T11:38:39Z</time>
      </trkpt>
      <trkpt lat="45.9475" lon="4.7144">
        <ele>183</ele>
        <time>2018-03-07T11:38:40Z</time>
      </trkpt>
      <trkpt lat="45.94741" lon="4.71437">
        <ele>183</ele>
        <time>2018-03-07T11:38:42Z</time>
      </trkpt>
      <trkpt lat="45.94737" lon="4.71436">
        <ele>183</ele>
        <time>2018-03-07T11:38:43Z</time>
      </trkpt>
      <trkpt lat="45.94729" lon="4.71434">
        <ele>183</ele>
        <time>2018-03-07T11:38:44Z</time>
      </trkpt>
      <trkpt lat="45.94724" lon="4.71434">
        <ele>183</ele>
        <time>2018-03-07T11:38:45Z</time>
      </trkpt>
      <trkpt lat="45.94719" lon="4.71434">
        <ele>183</ele>
        <time>2018-03-07T11:38:46Z</time>
      </trkpt>
      <trkpt lat="45.94714" lon="4.71433">
        <ele>183</ele>
        <time>2018-03-07T11:38:47Z</time>
      </trkpt>
      <trkpt lat="45.94705" lon="4.71433">
        <ele>182</ele>
        <time>2018-03-07T11:38:49Z</time>
      </trkpt>
      <trkpt lat="45.94699" lon="4.71433">
        <ele>182</ele>
        <time>2018-03-07T11:38:50Z</time>
      </trkpt>
      <trkpt lat="45.94694" lon="4.71434">
        <ele>182</ele>
        <time>2018-03-07T11:38:51Z</time>
      </trkpt>
      <trkpt lat="45.94689" lon="4.71433">
        <ele>182</ele>
        <time>2018-03-07T11:38:52Z</time>
      </trkpt>
      <trkpt lat="45.94684" lon="4.71433">
        <ele>182</ele>
        <time>2018-03-07T11:38:53Z</time>
      </trkpt>
      <trkpt lat="45.94679" lon="4.71435">
        <ele>182</ele>
        <time>2018-03-07T11:38:54Z</time>
      </trkpt>
      <trkpt lat="45.94675" lon="4.71436">
        <ele>182</ele>
        <time>2018-03-07T11:38:55Z</time>
      </trkpt>
      <trkpt lat="45.94669" lon="4.71436">
        <ele>183</ele>
        <time>2018-03-07T11:38:56Z</time>
      </trkpt>
      <trkpt lat="45.94664" lon="4.71435">
        <ele>182</ele>
        <time>2018-03-07T11:38:57Z</time>
      </trkpt>
      <trkpt lat="45.94658" lon="4.71435">
        <ele>182</ele>
        <time>2018-03-07T11:38:58Z</time>
      </trkpt>
      <trkpt lat="45.94654" lon="4.71434">
        <ele>182</ele>
        <time>2018-03-07T11:38:59Z</time>
      </trkpt>
      <trkpt lat="45.94649" lon="4.71434">
        <ele>182</ele>
        <time>2018-03-07T11:39:00Z</time>
      </trkpt>
      <trkpt lat="45.94644" lon="4.71434">
        <ele>182</ele>
        <time>2018-03-07T11:39:01Z</time>
      </trkpt>
      <trkpt lat="45.94639" lon="4.71435">
        <ele>182</ele>
        <time>2018-03-07T11:39:02Z</time>
      </trkpt>
      <trkpt lat="45.94633" lon="4.71434">
        <ele>182</ele>
        <time>2018-03-07T11:39:03Z</time>
      </trkpt>
      <trkpt lat="45.94627" lon="4.71434">
        <ele>182</ele>
        <time>2018-03-07T11:39:04Z</time>
      </trkpt>
      <trkpt lat="45.94622" lon="4.71434">
        <ele>182</ele>
        <time>2018-03-07T11:39:05Z</time>
      </trkpt>
      <trkpt lat="45.94616" lon="4.71434">
        <ele>182</ele>
        <time>2018-03-07T11:39:06Z</time>
      </trkpt>
      <trkpt lat="45.9461" lon="4.71434">
        <ele>182</ele>
        <time>2018-03-07T11:39:07Z</time>
      </trkpt>
      <trkpt lat="45.94605" lon="4.71434">
        <ele>182</ele>
        <time>2018-03-07T11:39:08Z</time>
      </trkpt>
      <trkpt lat="45.946" lon="4.71433">
        <ele>182</ele>
        <time>2018-03-07T11:39:09Z</time>
      </trkpt>
      <trkpt lat="45.94595" lon="4.71433">
        <ele>182</ele>
        <time>2018-03-07T11:39:10Z</time>
      </trkpt>
      <trkpt lat="45.94588" lon="4.71433">
        <ele>183</ele>
        <time>2018-03-07T11:39:11Z</time>
      </trkpt>
      <trkpt lat="45.94585" lon="4.71432">
        <ele>183</ele>
        <time>2018-03-07T11:39:12Z</time>
      </trkpt>
      <trkpt lat="45.9458" lon="4.71432">
        <ele>183</ele>
        <time>2018-03-07T11:39:13Z</time>
      </trkpt>
      <trkpt lat="45.94574" lon="4.71432">
        <ele>182</ele>
        <time>2018-03-07T11:39:14Z</time>
      </trkpt>
      <trkpt lat="45.94569" lon="4.71433">
        <ele>182</ele>
        <time>2018-03-07T11:39:15Z</time>
      </trkpt>
      <trkpt lat="45.94562" lon="4.71435">
        <ele>182</ele>
        <time>2018-03-07T11:39:16Z</time>
      </trkpt>
      <trkpt lat="45.94555" lon="4.71436">
        <ele>181</ele>
        <time>2018-03-07T11:39:17Z</time>
      </trkpt>
      <trkpt lat="45.94549" lon="4.71439">
        <ele>181</ele>
        <time>2018-03-07T11:39:18Z</time>
      </trkpt>
      <trkpt lat="45.94544" lon="4.71441">
        <ele>181</ele>
        <time>2018-03-07T11:39:19Z</time>
      </trkpt>
      <trkpt lat="45.94539" lon="4.71444">
        <ele>181</ele>
        <time>2018-03-07T11:39:20Z</time>
      </trkpt>
      <trkpt lat="45.94533" lon="4.71446">
        <ele>180</ele>
        <time>2018-03-07T11:39:21Z</time>
      </trkpt>
      <trkpt lat="45.94525" lon="4.71448">
        <ele>180</ele>
        <time>2018-03-07T11:39:22Z</time>
      </trkpt>
      <trkpt lat="45.94518" lon="4.71451">
        <ele>180</ele>
        <time>2018-03-07T11:39:23Z</time>
      </trkpt>
      <trkpt lat="45.94511" lon="4.71454">
        <ele>180</ele>
        <time>2018-03-07T11:39:24Z</time>
      </trkpt>
      <trkpt lat="45.94504" lon="4.71457">
        <ele>180</ele>
        <time>2018-03-07T11:39:25Z</time>
      </trkpt>
      <trkpt lat="45.94498" lon="4.7146">
        <ele>179</ele>
        <time>2018-03-07T11:39:26Z</time>
      </trkpt>
      <trkpt lat="45.9449" lon="4.71461">
        <ele>179</ele>
        <time>2018-03-07T11:39:27Z</time>
      </trkpt>
      <trkpt lat="45.94483" lon="4.71462">
        <ele>179</ele>
        <time>2018-03-07T11:39:28Z</time>
      </trkpt>
      <trkpt lat="45.94477" lon="4.71465">
        <ele>179</ele>
        <time>2018-03-07T11:39:29Z</time>
      </trkpt>
      <trkpt lat="45.94471" lon="4.71469">
        <ele>179</ele>
        <time>2018-03-07T11:39:30Z</time>
      </trkpt>
      <trkpt lat="45.94465" lon="4.71472">
        <ele>179</ele>
        <time>2018-03-07T11:39:31Z</time>
      </trkpt>
      <trkpt lat="45.94458" lon="4.71475">
        <ele>179</ele>
        <time>2018-03-07T11:39:32Z</time>
      </trkpt>
      <trkpt lat="45.9445" lon="4.71477">
        <ele>179</ele>
        <time>2018-03-07T11:39:33Z</time>
      </trkpt>
      <trkpt lat="45.94444" lon="4.7148">
        <ele>179</ele>
        <time>2018-03-07T11:39:34Z</time>
      </trkpt>
      <trkpt lat="45.94437" lon="4.71482">
        <ele>179</ele>
        <time>2018-03-07T11:39:35Z</time>
      </trkpt>
      <trkpt lat="45.94431" lon="4.71485">
        <ele>178</ele>
        <time>2018-03-07T11:39:36Z</time>
      </trkpt>
      <trkpt lat="45.94423" lon="4.71487">
        <ele>178</ele>
        <time>2018-03-07T11:39:37Z</time>
      </trkpt>
      <trkpt lat="45.94416" lon="4.71491">
        <ele>178</ele>
        <time>2018-03-07T11:39:38Z</time>
      </trkpt>
      <trkpt lat="45.94409" lon="4.71493">
        <ele>178</ele>
        <time>2018-03-07T11:39:39Z</time>
      </trkpt>
      <trkpt lat="45.94401" lon="4.71498">
        <ele>178</ele>
        <time>2018-03-07T11:39:40Z</time>
      </trkpt>
      <trkpt lat="45.94394" lon="4.715">
        <ele>177</ele>
        <time>2018-03-07T11:39:41Z</time>
      </trkpt>
      <trkpt lat="45.94387" lon="4.71503">
        <ele>177</ele>
        <time>2018-03-07T11:39:42Z</time>
      </trkpt>
      <trkpt lat="45.94381" lon="4.71505">
        <ele>177</ele>
        <time>2018-03-07T11:39:43Z</time>
      </trkpt>
      <trkpt lat="45.94375" lon="4.71508">
        <ele>177</ele>
        <time>2018-03-07T11:39:44Z</time>
      </trkpt>
      <trkpt lat="45.9437" lon="4.7151">
        <ele>176</ele>
        <time>2018-03-07T11:39:45Z</time>
      </trkpt>
      <trkpt lat="45.94363" lon="4.71513">
        <ele>176</ele>
        <time>2018-03-07T11:39:46Z</time>
      </trkpt>
      <trkpt lat="45.94356" lon="4.71515">
        <ele>176</ele>
        <time>2018-03-07T11:39:47Z</time>
      </trkpt>
      <trkpt lat="45.9435" lon="4.71518">
        <ele>176</ele>
        <time>2018-03-07T11:39:48Z</time>
      </trkpt>
      <trkpt lat="45.94344" lon="4.7152">
        <ele>176</ele>
        <time>2018-03-07T11:39:49Z</time>
      </trkpt>
      <trkpt lat="45.94337" lon="4.71522">
        <ele>176</ele>
        <time>2018-03-07T11:39:50Z</time>
      </trkpt>
      <trkpt lat="45.94331" lon="4.71526">
        <ele>176</ele>
        <time>2018-03-07T11:39:51Z</time>
      </trkpt>
      <trkpt lat="45.94324" lon="4.7153">
        <ele>176</ele>
        <time>2018-03-07T11:39:52Z</time>
      </trkpt>
      <trkpt lat="45.94319" lon="4.71532">
        <ele>175</ele>
        <time>2018-03-07T11:39:53Z</time>
      </trkpt>
      <trkpt lat="45.94315" lon="4.71537">
        <ele>175</ele>
        <time>2018-03-07T11:39:54Z</time>
      </trkpt>
      <trkpt lat="45.94307" lon="4.71541">
        <ele>175</ele>
        <time>2018-03-07T11:39:55Z</time>
      </trkpt>
      <trkpt lat="45.94299" lon="4.71543">
        <ele>175</ele>
        <time>2018-03-07T11:39:56Z</time>
      </trkpt>
      <trkpt lat="45.94293" lon="4.71547">
        <ele>175</ele>
        <time>2018-03-07T11:39:57Z</time>
      </trkpt>
      <trkpt lat="45.94287" lon="4.71548">
        <ele>175</ele>
        <time>2018-03-07T11:39:58Z</time>
      </trkpt>
      <trkpt lat="45.94281" lon="4.71551">
        <ele>175</ele>
        <time>2018-03-07T11:39:59Z</time>
      </trkpt>
      <trkpt lat="45.94273" lon="4.71553">
        <ele>175</ele>
        <time>2018-03-07T11:40:00Z</time>
      </trkpt>
      <trkpt lat="45.94266" lon="4.71556">
        <ele>175</ele>
        <time>2018-03-07T11:40:01Z</time>
      </trkpt>
      <trkpt lat="45.94258" lon="4.71558">
        <ele>175</ele>
        <time>2018-03-07T11:40:02Z</time>
      </trkpt>
      <trkpt lat="45.94252" lon="4.71559">
        <ele>175</ele>
        <time>2018-03-07T11:40:03Z</time>
      </trkpt>
      <trkpt lat="45.94247" lon="4.7156">
        <ele>174</ele>
        <time>2018-03-07T11:40:04Z</time>
      </trkpt>
      <trkpt lat="45.94242" lon="4.71562">
        <ele>174</ele>
        <time>2018-03-07T11:40:05Z</time>
      </trkpt>
      <trkpt lat="45.94236" lon="4.71565">
        <ele>174</ele>
        <time>2018-03-07T11:40:06Z</time>
      </trkpt>
      <trkpt lat="45.94229" lon="4.71568">
        <ele>174</ele>
        <time>2018-03-07T11:40:07Z</time>
      </trkpt>
      <trkpt lat="45.94223" lon="4.7157">
        <ele>174</ele>
        <time>2018-03-07T11:40:08Z</time>
      </trkpt>
      <trkpt lat="45.94217" lon="4.71571">
        <ele>174</ele>
        <time>2018-03-07T11:40:09Z</time>
      </trkpt>
      <trkpt lat="45.94212" lon="4.71573">
        <ele>174</ele>
        <time>2018-03-07T11:40:10Z</time>
      </trkpt>
      <trkpt lat="45.94207" lon="4.71577">
        <ele>174</ele>
        <time>2018-03-07T11:40:11Z</time>
      </trkpt>
      <trkpt lat="45.94202" lon="4.71579">
        <ele>174</ele>
        <time>2018-03-07T11:40:12Z</time>
      </trkpt>
      <trkpt lat="45.94196" lon="4.71582">
        <ele>174</ele>
        <time>2018-03-07T11:40:13Z</time>
      </trkpt>
      <trkpt lat="45.94191" lon="4.71585">
        <ele>173</ele>
        <time>2018-03-07T11:40:14Z</time>
      </trkpt>
      <trkpt lat="45.94186" lon="4.71587">
        <ele>173</ele>
        <time>2018-03-07T11:40:15Z</time>
      </trkpt>
      <trkpt lat="45.9418" lon="4.71588">
        <ele>173</ele>
        <time>2018-03-07T11:40:16Z</time>
      </trkpt>
      <trkpt lat="45.94172" lon="4.71589">
        <ele>174</ele>
        <time>2018-03-07T11:40:17Z</time>
      </trkpt>
      <trkpt lat="45.94166" lon="4.71589">
        <ele>174</ele>
        <time>2018-03-07T11:40:18Z</time>
      </trkpt>
      <trkpt lat="45.9416" lon="4.71592">
        <ele>174</ele>
        <time>2018-03-07T11:40:19Z</time>
      </trkpt>
      <trkpt lat="45.94154" lon="4.71594">
        <ele>173</ele>
        <time>2018-03-07T11:40:20Z</time>
      </trkpt>
      <trkpt lat="45.94149" lon="4.71596">
        <ele>173</ele>
        <time>2018-03-07T11:40:21Z</time>
      </trkpt>
      <trkpt lat="45.94144" lon="4.71598">
        <ele>173</ele>
        <time>2018-03-07T11:40:22Z</time>
      </trkpt>
      <trkpt lat="45.94138" lon="4.716">
        <ele>173</ele>
        <time>2018-03-07T11:40:23Z</time>
      </trkpt>
      <trkpt lat="45.94133" lon="4.71602">
        <ele>173</ele>
        <time>2018-03-07T11:40:24Z</time>
      </trkpt>
      <trkpt lat="45.94129" lon="4.71605">
        <ele>173</ele>
        <time>2018-03-07T11:40:25Z</time>
      </trkpt>
      <trkpt lat="45.94123" lon="4.71607">
        <ele>173</ele>
        <time>2018-03-07T11:40:26Z</time>
      </trkpt>
      <trkpt lat="45.94118" lon="4.71609">
        <ele>173</ele>
        <time>2018-03-07T11:40:27Z</time>
      </trkpt>
      <trkpt lat="45.94112" lon="4.71611">
        <ele>173</ele>
        <time>2018-03-07T11:40:28Z</time>
      </trkpt>
      <trkpt lat="45.94107" lon="4.71612">
        <ele>173</ele>
        <time>2018-03-07T11:40:29Z</time>
      </trkpt>
      <trkpt lat="45.941" lon="4.71616">
        <ele>173</ele>
        <time>2018-03-07T11:40:30Z</time>
      </trkpt>
      <trkpt lat="45.94094" lon="4.71619">
        <ele>173</ele>
        <time>2018-03-07T11:40:31Z</time>
      </trkpt>
      <trkpt lat="45.94089" lon="4.71621">
        <ele>173</ele>
        <time>2018-03-07T11:40:32Z</time>
      </trkpt>
      <trkpt lat="45.94084" lon="4.71623">
        <ele>173</ele>
        <time>2018-03-07T11:40:33Z</time>
      </trkpt>
      <trkpt lat="45.94078" lon="4.71626">
        <ele>174</ele>
        <time>2018-03-07T11:40:34Z</time>
      </trkpt>
      <trkpt lat="45.94072" lon="4.71629">
        <ele>174</ele>
        <time>2018-03-07T11:40:35Z</time>
      </trkpt>
      <trkpt lat="45.94066" lon="4.71631">
        <ele>174</ele>
        <time>2018-03-07T11:40:36Z</time>
      </trkpt>
      <trkpt lat="45.9406" lon="4.71632">
        <ele>174</ele>
        <time>2018-03-07T11:40:37Z</time>
      </trkpt>
      <trkpt lat="45.94054" lon="4.71635">
        <ele>174</ele>
        <time>2018-03-07T11:40:38Z</time>
      </trkpt>
      <trkpt lat="45.94049" lon="4.71637">
        <ele>175</ele>
        <time>2018-03-07T11:40:39Z</time>
      </trkpt>
      <trkpt lat="45.94043" lon="4.71638">
        <ele>175</ele>
        <time>2018-03-07T11:40:40Z</time>
      </trkpt>
      <trkpt lat="45.94039" lon="4.71639">
        <ele>175</ele>
        <time>2018-03-07T11:40:41Z</time>
      </trkpt>
      <trkpt lat="45.94034" lon="4.71642">
        <ele>175</ele>
        <time>2018-03-07T11:40:42Z</time>
      </trkpt>
      <trkpt lat="45.94029" lon="4.71644">
        <ele>175</ele>
        <time>2018-03-07T11:40:43Z</time>
      </trkpt>
      <trkpt lat="45.94024" lon="4.71647">
        <ele>175</ele>
        <time>2018-03-07T11:40:44Z</time>
      </trkpt>
      <trkpt lat="45.94019" lon="4.71649">
        <ele>176</ele>
        <time>2018-03-07T11:40:45Z</time>
      </trkpt>
      <trkpt lat="45.94015" lon="4.71652">
        <ele>176</ele>
        <time>2018-03-07T11:40:46Z</time>
      </trkpt>
      <trkpt lat="45.9401" lon="4.71654">
        <ele>176</ele>
        <time>2018-03-07T11:40:47Z</time>
      </trkpt>
      <trkpt lat="45.94006" lon="4.71657">
        <ele>176</ele>
        <time>2018-03-07T11:40:48Z</time>
      </trkpt>
      <trkpt lat="45.94001" lon="4.71659">
        <ele>176</ele>
        <time>2018-03-07T11:40:49Z</time>
      </trkpt>
      <trkpt lat="45.93996" lon="4.71661">
        <ele>177</ele>
        <time>2018-03-07T11:40:50Z</time>
      </trkpt>
      <trkpt lat="45.93991" lon="4.71662">
        <ele>177</ele>
        <time>2018-03-07T11:40:51Z</time>
      </trkpt>
      <trkpt lat="45.93986" lon="4.71662">
        <ele>177</ele>
        <time>2018-03-07T11:40:52Z</time>
      </trkpt>
      <trkpt lat="45.93981" lon="4.71662">
        <ele>177</ele>
        <time>2018-03-07T11:40:53Z</time>
      </trkpt>
      <trkpt lat="45.93976" lon="4.71662">
        <ele>177</ele>
        <time>2018-03-07T11:40:54Z</time>
      </trkpt>
      <trkpt lat="45.93968" lon="4.71666">
        <ele>177</ele>
        <time>2018-03-07T11:40:56Z</time>
      </trkpt>
      <trkpt lat="45.93963" lon="4.71668">
        <ele>175</ele>
        <time>2018-03-07T11:40:57Z</time>
      </trkpt>
      <trkpt lat="45.93958" lon="4.7167">
        <ele>175</ele>
        <time>2018-03-07T11:40:58Z</time>
      </trkpt>
      <trkpt lat="45.93953" lon="4.71672">
        <ele>175</ele>
        <time>2018-03-07T11:40:59Z</time>
      </trkpt>
      <trkpt lat="45.93946" lon="4.71674">
        <ele>175</ele>
        <time>2018-03-07T11:41:00Z</time>
      </trkpt>
      <trkpt lat="45.9394" lon="4.71676">
        <ele>175</ele>
        <time>2018-03-07T11:41:01Z</time>
      </trkpt>
      <trkpt lat="45.93934" lon="4.71676">
        <ele>175</ele>
        <time>2018-03-07T11:41:02Z</time>
      </trkpt>
      <trkpt lat="45.9393" lon="4.7168">
        <ele>175</ele>
        <time>2018-03-07T11:41:03Z</time>
      </trkpt>
      <trkpt lat="45.93925" lon="4.71681">
        <ele>175</ele>
        <time>2018-03-07T11:41:04Z</time>
      </trkpt>
      <trkpt lat="45.93921" lon="4.71683">
        <ele>175</ele>
        <time>2018-03-07T11:41:05Z</time>
      </trkpt>
      <trkpt lat="45.93915" lon="4.71686">
        <ele>174</ele>
        <time>2018-03-07T11:41:06Z</time>
      </trkpt>
      <trkpt lat="45.9391" lon="4.71688">
        <ele>174</ele>
        <time>2018-03-07T11:41:07Z</time>
      </trkpt>
      <trkpt lat="45.93904" lon="4.7169">
        <ele>174</ele>
        <time>2018-03-07T11:41:08Z</time>
      </trkpt>
      <trkpt lat="45.93899" lon="4.71694">
        <ele>174</ele>
        <time>2018-03-07T11:41:09Z</time>
      </trkpt>
      <trkpt lat="45.9389" lon="4.71697">
        <ele>174</ele>
        <time>2018-03-07T11:41:11Z</time>
      </trkpt>
      <trkpt lat="45.93886" lon="4.71699">
        <ele>174</ele>
        <time>2018-03-07T11:41:12Z</time>
      </trkpt>
      <trkpt lat="45.93878" lon="4.71701">
        <ele>174</ele>
        <time>2018-03-07T11:41:14Z</time>
      </trkpt>
      <trkpt lat="45.93873" lon="4.71704">
        <ele>174</ele>
        <time>2018-03-07T11:41:15Z</time>
      </trkpt>
      <trkpt lat="45.93865" lon="4.71708">
        <ele>174</ele>
        <time>2018-03-07T11:41:17Z</time>
      </trkpt>
      <trkpt lat="45.9386" lon="4.7171">
        <ele>174</ele>
        <time>2018-03-07T11:41:18Z</time>
      </trkpt>
      <trkpt lat="45.93852" lon="4.71713">
        <ele>174</ele>
        <time>2018-03-07T11:41:20Z</time>
      </trkpt>
      <trkpt lat="45.93847" lon="4.71715">
        <ele>174</ele>
        <time>2018-03-07T11:41:21Z</time>
      </trkpt>
      <trkpt lat="45.93842" lon="4.71717">
        <ele>174</ele>
        <time>2018-03-07T11:41:22Z</time>
      </trkpt>
      <trkpt lat="45.93837" lon="4.71719">
        <ele>175</ele>
        <time>2018-03-07T11:41:23Z</time>
      </trkpt>
      <trkpt lat="45.93833" lon="4.71721">
        <ele>175</ele>
        <time>2018-03-07T11:41:24Z</time>
      </trkpt>
      <trkpt lat="45.93828" lon="4.71722">
        <ele>175</ele>
        <time>2018-03-07T11:41:25Z</time>
      </trkpt>
      <trkpt lat="45.93822" lon="4.71723">
        <ele>175</ele>
        <time>2018-03-07T11:41:26Z</time>
      </trkpt>
      <trkpt lat="45.93817" lon="4.71725">
        <ele>175</ele>
        <time>2018-03-07T11:41:27Z</time>
      </trkpt>
      <trkpt lat="45.93812" lon="4.71728">
        <ele>175</ele>
        <time>2018-03-07T11:41:28Z</time>
      </trkpt>
      <trkpt lat="45.93808" lon="4.7173">
        <ele>175</ele>
        <time>2018-03-07T11:41:29Z</time>
      </trkpt>
      <trkpt lat="45.93803" lon="4.71732">
        <ele>175</ele>
        <time>2018-03-07T11:41:30Z</time>
      </trkpt>
      <trkpt lat="45.93798" lon="4.71734">
        <ele>175</ele>
        <time>2018-03-07T11:41:31Z</time>
      </trkpt>
      <trkpt lat="45.93789" lon="4.71737">
        <ele>175</ele>
        <time>2018-03-07T11:41:33Z</time>
      </trkpt>
      <trkpt lat="45.93784" lon="4.71738">
        <ele>175</ele>
        <time>2018-03-07T11:41:34Z</time>
      </trkpt>
      <trkpt lat="45.93776" lon="4.71742">
        <ele>175</ele>
        <time>2018-03-07T11:41:36Z</time>
      </trkpt>
      <trkpt lat="45.93772" lon="4.71742">
        <ele>175</ele>
        <time>2018-03-07T11:41:37Z</time>
      </trkpt>
      <trkpt lat="45.93768" lon="4.71744">
        <ele>175</ele>
        <time>2018-03-07T11:41:38Z</time>
      </trkpt>
      <trkpt lat="45.93762" lon="4.71746">
        <ele>175</ele>
        <time>2018-03-07T11:41:39Z</time>
      </trkpt>
      <trkpt lat="45.93757" lon="4.71748">
        <ele>175</ele>
        <time>2018-03-07T11:41:40Z</time>
      </trkpt>
      <trkpt lat="45.93752" lon="4.7175">
        <ele>175</ele>
        <time>2018-03-07T11:41:41Z</time>
      </trkpt>
      <trkpt lat="45.93744" lon="4.71754">
        <ele>175</ele>
        <time>2018-03-07T11:41:43Z</time>
      </trkpt>
      <trkpt lat="45.93739" lon="4.71756">
        <ele>176</ele>
        <time>2018-03-07T11:41:44Z</time>
      </trkpt>
      <trkpt lat="45.93732" lon="4.71762">
        <ele>176</ele>
        <time>2018-03-07T11:41:46Z</time>
      </trkpt>
      <trkpt lat="45.93729" lon="4.71763">
        <ele>176</ele>
        <time>2018-03-07T11:41:47Z</time>
      </trkpt>
      <trkpt lat="45.93724" lon="4.71767">
        <ele>176</ele>
        <time>2018-03-07T11:41:48Z</time>
      </trkpt>
      <trkpt lat="45.9372" lon="4.71772">
        <ele>176</ele>
        <time>2018-03-07T11:41:49Z</time>
      </trkpt>
      <trkpt lat="45.93718" lon="4.71783">
        <ele>176</ele>
        <time>2018-03-07T11:41:51Z</time>
      </trkpt>
      <trkpt lat="45.93712" lon="4.71784">
        <ele>176</ele>
        <time>2018-03-07T11:41:52Z</time>
      </trkpt>
      <trkpt lat="45.93708" lon="4.71791">
        <ele>176</ele>
        <time>2018-03-07T11:41:53Z</time>
      </trkpt>
      <trkpt lat="45.93705" lon="4.71795">
        <ele>176</ele>
        <time>2018-03-07T11:41:54Z</time>
      </trkpt>
      <trkpt lat="45.937" lon="4.71805">
        <ele>176</ele>
        <time>2018-03-07T11:41:55Z</time>
      </trkpt>
      <trkpt lat="45.93698" lon="4.71809">
        <ele>176</ele>
        <time>2018-03-07T11:41:56Z</time>
      </trkpt>
      <trkpt lat="45.93697" lon="4.71811">
        <ele>176</ele>
        <time>2018-03-07T11:41:57Z</time>
      </trkpt>
      <trkpt lat="45.9369" lon="4.71822">
        <ele>176</ele>
        <time>2018-03-07T11:41:58Z</time>
      </trkpt>
      <trkpt lat="45.93687" lon="4.71828">
        <ele>177</ele>
        <time>2018-03-07T11:41:59Z</time>
      </trkpt>
      <trkpt lat="45.93685" lon="4.71835">
        <ele>176</ele>
        <time>2018-03-07T11:42:00Z</time>
      </trkpt>
      <trkpt lat="45.93685" lon="4.71845">
        <ele>176</ele>
        <time>2018-03-07T11:42:01Z</time>
      </trkpt>
      <trkpt lat="45.93684" lon="4.7185">
        <ele>175</ele>
        <time>2018-03-07T11:42:02Z</time>
      </trkpt>
      <trkpt lat="45.93681" lon="4.71856">
        <ele>175</ele>
        <time>2018-03-07T11:42:03Z</time>
      </trkpt>
      <trkpt lat="45.9368" lon="4.71862">
        <ele>175</ele>
        <time>2018-03-07T11:42:04Z</time>
      </trkpt>
      <trkpt lat="45.93679" lon="4.71868">
        <ele>175</ele>
        <time>2018-03-07T11:42:07Z</time>
      </trkpt>
      <trkpt lat="45.93674" lon="4.71879">
        <ele>175</ele>
        <time>2018-03-07T11:42:08Z</time>
      </trkpt>
      <trkpt lat="45.93674" lon="4.71891">
        <ele>175</ele>
        <time>2018-03-07T11:42:12Z</time>
      </trkpt>
      <trkpt lat="45.93674" lon="4.71895">
        <ele>175</ele>
        <time>2018-03-07T11:42:13Z</time>
      </trkpt>
      <trkpt lat="45.93671" lon="4.71905">
        <ele>175</ele>
        <time>2018-03-07T11:42:16Z</time>
      </trkpt>
      <trkpt lat="45.9367" lon="4.71908">
        <ele>175</ele>
        <time>2018-03-07T11:42:17Z</time>
      </trkpt>
      <trkpt lat="45.93667" lon="4.71919">
        <ele>175</ele>
        <time>2018-03-07T11:42:18Z</time>
      </trkpt>
      <trkpt lat="45.93665" lon="4.71925">
        <ele>175</ele>
        <time>2018-03-07T11:42:19Z</time>
      </trkpt>
      <trkpt lat="45.93661" lon="4.71935">
        <ele>175</ele>
        <time>2018-03-07T11:42:21Z</time>
      </trkpt>
      <trkpt lat="45.93658" lon="4.71941">
        <ele>175</ele>
        <time>2018-03-07T11:42:22Z</time>
      </trkpt>
      <trkpt lat="45.93654" lon="4.71948">
        <ele>175</ele>
        <time>2018-03-07T11:42:23Z</time>
      </trkpt>
      <trkpt lat="45.93651" lon="4.71954">
        <ele>175</ele>
        <time>2018-03-07T11:42:24Z</time>
      </trkpt>
      <trkpt lat="45.93648" lon="4.7196">
        <ele>175</ele>
        <time>2018-03-07T11:42:25Z</time>
      </trkpt>
      <trkpt lat="45.93646" lon="4.71967">
        <ele>175</ele>
        <time>2018-03-07T11:42:26Z</time>
      </trkpt>
      <trkpt lat="45.93645" lon="4.71973">
        <ele>175</ele>
        <time>2018-03-07T11:42:27Z</time>
      </trkpt>
      <trkpt lat="45.93642" lon="4.7198">
        <ele>175</ele>
        <time>2018-03-07T11:42:28Z</time>
      </trkpt>
      <trkpt lat="45.9364" lon="4.71986">
        <ele>175</ele>
        <time>2018-03-07T11:42:29Z</time>
      </trkpt>
      <trkpt lat="45.93639" lon="4.71992">
        <ele>175</ele>
        <time>2018-03-07T11:42:30Z</time>
      </trkpt>
      <trkpt lat="45.93636" lon="4.71998">
        <ele>175</ele>
        <time>2018-03-07T11:42:31Z</time>
      </trkpt>
      <trkpt lat="45.93634" lon="4.72004">
        <ele>174</ele>
        <time>2018-03-07T11:42:32Z</time>
      </trkpt>
      <trkpt lat="45.93629" lon="4.72011">
        <ele>175</ele>
        <time>2018-03-07T11:42:33Z</time>
      </trkpt>
      <trkpt lat="45.93626" lon="4.72017">
        <ele>175</ele>
        <time>2018-03-07T11:42:34Z</time>
      </trkpt>
      <trkpt lat="45.93622" lon="4.72026">
        <ele>175</ele>
        <time>2018-03-07T11:42:35Z</time>
      </trkpt>
      <trkpt lat="45.93618" lon="4.72033">
        <ele>175</ele>
        <time>2018-03-07T11:42:36Z</time>
      </trkpt>
      <trkpt lat="45.93617" lon="4.72038">
        <ele>175</ele>
        <time>2018-03-07T11:42:37Z</time>
      </trkpt>
      <trkpt lat="45.93614" lon="4.72045">
        <ele>175</ele>
        <time>2018-03-07T11:42:38Z</time>
      </trkpt>
      <trkpt lat="45.93611" lon="4.72053">
        <ele>175</ele>
        <time>2018-03-07T11:42:39Z</time>
      </trkpt>
      <trkpt lat="45.93608" lon="4.72058">
        <ele>175</ele>
        <time>2018-03-07T11:42:40Z</time>
      </trkpt>
      <trkpt lat="45.93605" lon="4.72065">
        <ele>175</ele>
        <time>2018-03-07T11:42:41Z</time>
      </trkpt>
      <trkpt lat="45.93601" lon="4.72071">
        <ele>175</ele>
        <time>2018-03-07T11:42:42Z</time>
      </trkpt>
      <trkpt lat="45.93599" lon="4.72078">
        <ele>175</ele>
        <time>2018-03-07T11:42:43Z</time>
      </trkpt>
      <trkpt lat="45.93597" lon="4.72083">
        <ele>175</ele>
        <time>2018-03-07T11:42:44Z</time>
      </trkpt>
      <trkpt lat="45.93595" lon="4.72088">
        <ele>175</ele>
        <time>2018-03-07T11:42:45Z</time>
      </trkpt>
      <trkpt lat="45.93591" lon="4.72095">
        <ele>175</ele>
        <time>2018-03-07T11:42:46Z</time>
      </trkpt>
      <trkpt lat="45.93589" lon="4.72105">
        <ele>174</ele>
        <time>2018-03-07T11:42:48Z</time>
      </trkpt>
      <trkpt lat="45.93588" lon="4.72111">
        <ele>174</ele>
        <time>2018-03-07T11:42:49Z</time>
      </trkpt>
      <trkpt lat="45.93582" lon="4.72121">
        <ele>175</ele>
        <time>2018-03-07T11:42:51Z</time>
      </trkpt>
      <trkpt lat="45.93583" lon="4.72123">
        <ele>175</ele>
        <time>2018-03-07T11:42:52Z</time>
      </trkpt>
      <trkpt lat="45.93582" lon="4.72124">
        <ele>175</ele>
        <time>2018-03-07T11:42:53Z</time>
      </trkpt>
      <trkpt lat="45.93578" lon="4.72136">
        <ele>174</ele>
        <time>2018-03-07T11:42:54Z</time>
      </trkpt>
      <trkpt lat="45.93577" lon="4.72142">
        <ele>174</ele>
        <time>2018-03-07T11:42:55Z</time>
      </trkpt>
      <trkpt lat="45.93574" lon="4.7215">
        <ele>174</ele>
        <time>2018-03-07T11:42:56Z</time>
      </trkpt>
      <trkpt lat="45.93574" lon="4.72158">
        <ele>174</ele>
        <time>2018-03-07T11:42:57Z</time>
      </trkpt>
      <trkpt lat="45.93569" lon="4.72167">
        <ele>173</ele>
        <time>2018-03-07T11:42:58Z</time>
      </trkpt>
      <trkpt lat="45.93565" lon="4.72174">
        <ele>173</ele>
        <time>2018-03-07T11:42:59Z</time>
      </trkpt>
      <trkpt lat="45.93563" lon="4.7218">
        <ele>173</ele>
        <time>2018-03-07T11:43:00Z</time>
      </trkpt>
      <trkpt lat="45.93561" lon="4.72187">
        <ele>173</ele>
        <time>2018-03-07T11:43:01Z</time>
      </trkpt>
      <trkpt lat="45.93556" lon="4.72193">
        <ele>173</ele>
        <time>2018-03-07T11:43:02Z</time>
      </trkpt>
      <trkpt lat="45.93551" lon="4.72203">
        <ele>173</ele>
        <time>2018-03-07T11:43:04Z</time>
      </trkpt>
      <trkpt lat="45.93546" lon="4.72216">
        <ele>172</ele>
        <time>2018-03-07T11:43:05Z</time>
      </trkpt>
      <trkpt lat="45.93546" lon="4.72225">
        <ele>172</ele>
        <time>2018-03-07T11:43:06Z</time>
      </trkpt>
      <trkpt lat="45.93544" lon="4.72233">
        <ele>172</ele>
        <time>2018-03-07T11:43:07Z</time>
      </trkpt>
      <trkpt lat="45.9354" lon="4.72243">
        <ele>172</ele>
        <time>2018-03-07T11:43:09Z</time>
      </trkpt>
      <trkpt lat="45.93537" lon="4.7225">
        <ele>172</ele>
        <time>2018-03-07T11:43:10Z</time>
      </trkpt>
      <trkpt lat="45.93534" lon="4.72255">
        <ele>172</ele>
        <time>2018-03-07T11:43:11Z</time>
      </trkpt>
      <trkpt lat="45.93532" lon="4.72261">
        <ele>172</ele>
        <time>2018-03-07T11:43:12Z</time>
      </trkpt>
      <trkpt lat="45.9353" lon="4.72265">
        <ele>172</ele>
        <time>2018-03-07T11:43:13Z</time>
      </trkpt>
      <trkpt lat="45.93527" lon="4.72272">
        <ele>172</ele>
        <time>2018-03-07T11:43:14Z</time>
      </trkpt>
      <trkpt lat="45.93524" lon="4.72278">
        <ele>172</ele>
        <time>2018-03-07T11:43:15Z</time>
      </trkpt>
      <trkpt lat="45.93521" lon="4.72284">
        <ele>172</ele>
        <time>2018-03-07T11:43:16Z</time>
      </trkpt>
      <trkpt lat="45.93519" lon="4.7229">
        <ele>172</ele>
        <time>2018-03-07T11:43:17Z</time>
      </trkpt>
      <trkpt lat="45.93515" lon="4.72297">
        <ele>172</ele>
        <time>2018-03-07T11:43:18Z</time>
      </trkpt>
      <trkpt lat="45.93513" lon="4.72301">
        <ele>172</ele>
        <time>2018-03-07T11:43:19Z</time>
      </trkpt>
      <trkpt lat="45.93508" lon="4.72308">
        <ele>173</ele>
        <time>2018-03-07T11:43:20Z</time>
      </trkpt>
      <trkpt lat="45.93505" lon="4.72312">
        <ele>173</ele>
        <time>2018-03-07T11:43:21Z</time>
      </trkpt>
      <trkpt lat="45.93501" lon="4.72317">
        <ele>173</ele>
        <time>2018-03-07T11:43:22Z</time>
      </trkpt>
      <trkpt lat="45.93496" lon="4.72324">
        <ele>173</ele>
        <time>2018-03-07T11:43:23Z</time>
      </trkpt>
      <trkpt lat="45.93491" lon="4.7233">
        <ele>173</ele>
        <time>2018-03-07T11:43:24Z</time>
      </trkpt>
      <trkpt lat="45.93487" lon="4.72336">
        <ele>173</ele>
        <time>2018-03-07T11:43:25Z</time>
      </trkpt>
      <trkpt lat="45.93483" lon="4.72342">
        <ele>173</ele>
        <time>2018-03-07T11:43:26Z</time>
      </trkpt>
      <trkpt lat="45.93479" lon="4.72347">
        <ele>173</ele>
        <time>2018-03-07T11:43:27Z</time>
      </trkpt>
      <trkpt lat="45.93474" lon="4.72353">
        <ele>173</ele>
        <time>2018-03-07T11:43:28Z</time>
      </trkpt>
      <trkpt lat="45.93471" lon="4.72357">
        <ele>173</ele>
        <time>2018-03-07T11:43:29Z</time>
      </trkpt>
      <trkpt lat="45.93467" lon="4.72363">
        <ele>173</ele>
        <time>2018-03-07T11:43:30Z</time>
      </trkpt>
      <trkpt lat="45.9346" lon="4.7237">
        <ele>173</ele>
        <time>2018-03-07T11:43:31Z</time>
      </trkpt>
      <trkpt lat="45.93456" lon="4.72375">
        <ele>173</ele>
        <time>2018-03-07T11:43:32Z</time>
      </trkpt>
      <trkpt lat="45.93452" lon="4.7238">
        <ele>173</ele>
        <time>2018-03-07T11:43:33Z</time>
      </trkpt>
      <trkpt lat="45.93447" lon="4.72385">
        <ele>173</ele>
        <time>2018-03-07T11:43:34Z</time>
      </trkpt>
      <trkpt lat="45.93441" lon="4.72389">
        <ele>173</ele>
        <time>2018-03-07T11:43:35Z</time>
      </trkpt>
      <trkpt lat="45.93434" lon="4.72392">
        <ele>173</ele>
        <time>2018-03-07T11:43:36Z</time>
      </trkpt>
      <trkpt lat="45.93428" lon="4.72395">
        <ele>174</ele>
        <time>2018-03-07T11:43:37Z</time>
      </trkpt>
      <trkpt lat="45.93421" lon="4.72402">
        <ele>174</ele>
        <time>2018-03-07T11:43:40Z</time>
      </trkpt>
      <trkpt lat="45.93419" lon="4.72404">
        <ele>174</ele>
        <time>2018-03-07T11:43:41Z</time>
      </trkpt>
      <trkpt lat="45.93414" lon="4.72411">
        <ele>174</ele>
        <time>2018-03-07T11:43:42Z</time>
      </trkpt>
      <trkpt lat="45.9341" lon="4.72412">
        <ele>174</ele>
        <time>2018-03-07T11:43:43Z</time>
      </trkpt>
      <trkpt lat="45.93405" lon="4.72411">
        <ele>174</ele>
        <time>2018-03-07T11:43:44Z</time>
      </trkpt>
      <trkpt lat="45.93399" lon="4.72409">
        <ele>174</ele>
        <time>2018-03-07T11:43:45Z</time>
      </trkpt>
      <trkpt lat="45.93394" lon="4.72408">
        <ele>174</ele>
        <time>2018-03-07T11:43:46Z</time>
      </trkpt>
      <trkpt lat="45.93389" lon="4.72409">
        <ele>174</ele>
        <time>2018-03-07T11:43:47Z</time>
      </trkpt>
      <trkpt lat="45.93383" lon="4.72417">
        <ele>173</ele>
        <time>2018-03-07T11:43:49Z</time>
      </trkpt>
      <trkpt lat="45.93382" lon="4.72424">
        <ele>173</ele>
        <time>2018-03-07T11:43:50Z</time>
      </trkpt>
      <trkpt lat="45.93384" lon="4.72431">
        <ele>173</ele>
        <time>2018-03-07T11:43:51Z</time>
      </trkpt>
      <trkpt lat="45.93387" lon="4.72437">
        <ele>173</ele>
        <time>2018-03-07T11:43:52Z</time>
      </trkpt>
      <trkpt lat="45.93389" lon="4.72445">
        <ele>173</ele>
        <time>2018-03-07T11:43:53Z</time>
      </trkpt>
      <trkpt lat="45.93391" lon="4.72452">
        <ele>173</ele>
        <time>2018-03-07T11:43:54Z</time>
      </trkpt>
      <trkpt lat="45.9339" lon="4.7246">
        <ele>173</ele>
        <time>2018-03-07T11:43:55Z</time>
      </trkpt>
      <trkpt lat="45.93388" lon="4.72465">
        <ele>173</ele>
        <time>2018-03-07T11:43:56Z</time>
      </trkpt>
      <trkpt lat="45.93382" lon="4.72475">
        <ele>173</ele>
        <time>2018-03-07T11:43:58Z</time>
      </trkpt>
      <trkpt lat="45.93378" lon="4.7248">
        <ele>173</ele>
        <time>2018-03-07T11:43:59Z</time>
      </trkpt>
      <trkpt lat="45.93373" lon="4.72485">
        <ele>173</ele>
        <time>2018-03-07T11:44:00Z</time>
      </trkpt>
      <trkpt lat="45.9337" lon="4.72488">
        <ele>173</ele>
        <time>2018-03-07T11:44:01Z</time>
      </trkpt>
      <trkpt lat="45.93365" lon="4.72492">
        <ele>173</ele>
        <time>2018-03-07T11:44:02Z</time>
      </trkpt>
      <trkpt lat="45.93361" lon="4.72496">
        <ele>173</ele>
        <time>2018-03-07T11:44:03Z</time>
      </trkpt>
      <trkpt lat="45.93356" lon="4.72501">
        <ele>172</ele>
        <time>2018-03-07T11:44:04Z</time>
      </trkpt>
      <trkpt lat="45.93352" lon="4.72505">
        <ele>172</ele>
        <time>2018-03-07T11:44:05Z</time>
      </trkpt>
      <trkpt lat="45.9335" lon="4.72508">
        <ele>172</ele>
        <time>2018-03-07T11:44:06Z</time>
      </trkpt>
      <trkpt lat="45.93345" lon="4.72514">
        <ele>172</ele>
        <time>2018-03-07T11:44:07Z</time>
      </trkpt>
      <trkpt lat="45.93341" lon="4.72523">
        <ele>172</ele>
        <time>2018-03-07T11:44:09Z</time>
      </trkpt>
      <trkpt lat="45.93332" lon="4.7253">
        <ele>172</ele>
        <time>2018-03-07T11:44:10Z</time>
      </trkpt>
      <trkpt lat="45.93328" lon="4.72536">
        <ele>172</ele>
        <time>2018-03-07T11:44:11Z</time>
      </trkpt>
      <trkpt lat="45.93324" lon="4.72542">
        <ele>172</ele>
        <time>2018-03-07T11:44:12Z</time>
      </trkpt>
      <trkpt lat="45.9332" lon="4.72546">
        <ele>172</ele>
        <time>2018-03-07T11:44:13Z</time>
      </trkpt>
      <trkpt lat="45.93316" lon="4.72551">
        <ele>172</ele>
        <time>2018-03-07T11:44:14Z</time>
      </trkpt>
      <trkpt lat="45.93313" lon="4.72556">
        <ele>172</ele>
        <time>2018-03-07T11:44:15Z</time>
      </trkpt>
      <trkpt lat="45.93309" lon="4.72561">
        <ele>171</ele>
        <time>2018-03-07T11:44:16Z</time>
      </trkpt>
      <trkpt lat="45.93303" lon="4.72564">
        <ele>172</ele>
        <time>2018-03-07T11:44:17Z</time>
      </trkpt>
      <trkpt lat="45.93299" lon="4.72568">
        <ele>171</ele>
        <time>2018-03-07T11:44:18Z</time>
      </trkpt>
      <trkpt lat="45.93296" lon="4.72573">
        <ele>171</ele>
        <time>2018-03-07T11:44:19Z</time>
      </trkpt>
      <trkpt lat="45.93292" lon="4.72577">
        <ele>171</ele>
        <time>2018-03-07T11:44:20Z</time>
      </trkpt>
      <trkpt lat="45.93288" lon="4.72583">
        <ele>171</ele>
        <time>2018-03-07T11:44:21Z</time>
      </trkpt>
      <trkpt lat="45.93284" lon="4.72587">
        <ele>170</ele>
        <time>2018-03-07T11:44:22Z</time>
      </trkpt>
      <trkpt lat="45.9328" lon="4.72592">
        <ele>170</ele>
        <time>2018-03-07T11:44:23Z</time>
      </trkpt>
      <trkpt lat="45.93275" lon="4.72596">
        <ele>170</ele>
        <time>2018-03-07T11:44:24Z</time>
      </trkpt>
      <trkpt lat="45.93271" lon="4.72601">
        <ele>170</ele>
        <time>2018-03-07T11:44:25Z</time>
      </trkpt>
      <trkpt lat="45.93267" lon="4.72606">
        <ele>170</ele>
        <time>2018-03-07T11:44:26Z</time>
      </trkpt>
      <trkpt lat="45.93263" lon="4.72611">
        <ele>170</ele>
        <time>2018-03-07T11:44:27Z</time>
      </trkpt>
      <trkpt lat="45.93258" lon="4.72615">
        <ele>170</ele>
        <time>2018-03-07T11:44:28Z</time>
      </trkpt>
      <trkpt lat="45.93255" lon="4.72621">
        <ele>170</ele>
        <time>2018-03-07T11:44:29Z</time>
      </trkpt>
      <trkpt lat="45.93252" lon="4.72627">
        <ele>170</ele>
        <time>2018-03-07T11:44:30Z</time>
      </trkpt>
      <trkpt lat="45.93248" lon="4.72632">
        <ele>170</ele>
        <time>2018-03-07T11:44:31Z</time>
      </trkpt>
      <trkpt lat="45.93244" lon="4.72637">
        <ele>170</ele>
        <time>2018-03-07T11:44:32Z</time>
      </trkpt>
      <trkpt lat="45.9324" lon="4.72641">
        <ele>170</ele>
        <time>2018-03-07T11:44:33Z</time>
      </trkpt>
      <trkpt lat="45.93235" lon="4.72646">
        <ele>170</ele>
        <time>2018-03-07T11:44:34Z</time>
      </trkpt>
      <trkpt lat="45.93231" lon="4.72652">
        <ele>170</ele>
        <time>2018-03-07T11:44:35Z</time>
      </trkpt>
      <trkpt lat="45.93226" lon="4.72658">
        <ele>170</ele>
        <time>2018-03-07T11:44:36Z</time>
      </trkpt>
      <trkpt lat="45.93221" lon="4.72663">
        <ele>170</ele>
        <time>2018-03-07T11:44:37Z</time>
      </trkpt>
      <trkpt lat="45.93218" lon="4.72668">
        <ele>169</ele>
        <time>2018-03-07T11:44:38Z</time>
      </trkpt>
      <trkpt lat="45.93213" lon="4.72673">
        <ele>169</ele>
        <time>2018-03-07T11:44:39Z</time>
      </trkpt>
      <trkpt lat="45.93206" lon="4.72678">
        <ele>169</ele>
        <time>2018-03-07T11:44:40Z</time>
      </trkpt>
      <trkpt lat="45.93201" lon="4.72683">
        <ele>169</ele>
        <time>2018-03-07T11:44:41Z</time>
      </trkpt>
      <trkpt lat="45.93196" lon="4.72689">
        <ele>169</ele>
        <time>2018-03-07T11:44:42Z</time>
      </trkpt>
      <trkpt lat="45.93193" lon="4.72695">
        <ele>169</ele>
        <time>2018-03-07T11:44:43Z</time>
      </trkpt>
      <trkpt lat="45.93188" lon="4.727">
        <ele>169</ele>
        <time>2018-03-07T11:44:44Z</time>
      </trkpt>
      <trkpt lat="45.93184" lon="4.72704">
        <ele>169</ele>
        <time>2018-03-07T11:44:45Z</time>
      </trkpt>
      <trkpt lat="45.9318" lon="4.72708">
        <ele>169</ele>
        <time>2018-03-07T11:44:46Z</time>
      </trkpt>
      <trkpt lat="45.93176" lon="4.72712">
        <ele>169</ele>
        <time>2018-03-07T11:44:47Z</time>
      </trkpt>
      <trkpt lat="45.93172" lon="4.72717">
        <ele>170</ele>
        <time>2018-03-07T11:44:48Z</time>
      </trkpt>
      <trkpt lat="45.93168" lon="4.72722">
        <ele>170</ele>
        <time>2018-03-07T11:44:49Z</time>
      </trkpt>
      <trkpt lat="45.93163" lon="4.72727">
        <ele>170</ele>
        <time>2018-03-07T11:44:50Z</time>
      </trkpt>
      <trkpt lat="45.93159" lon="4.72732">
        <ele>170</ele>
        <time>2018-03-07T11:44:51Z</time>
      </trkpt>
      <trkpt lat="45.93156" lon="4.72738">
        <ele>170</ele>
        <time>2018-03-07T11:44:52Z</time>
      </trkpt>
      <trkpt lat="45.93151" lon="4.72742">
        <ele>170</ele>
        <time>2018-03-07T11:44:53Z</time>
      </trkpt>
      <trkpt lat="45.93146" lon="4.72746">
        <ele>170</ele>
        <time>2018-03-07T11:44:54Z</time>
      </trkpt>
      <trkpt lat="45.93141" lon="4.72751">
        <ele>171</ele>
        <time>2018-03-07T11:44:55Z</time>
      </trkpt>
      <trkpt lat="45.93137" lon="4.72756">
        <ele>171</ele>
        <time>2018-03-07T11:44:56Z</time>
      </trkpt>
      <trkpt lat="45.93132" lon="4.72762">
        <ele>171</ele>
        <time>2018-03-07T11:44:57Z</time>
      </trkpt>
      <trkpt lat="45.93128" lon="4.72766">
        <ele>171</ele>
        <time>2018-03-07T11:44:58Z</time>
      </trkpt>
      <trkpt lat="45.93125" lon="4.72773">
        <ele>171</ele>
        <time>2018-03-07T11:44:59Z</time>
      </trkpt>
      <trkpt lat="45.9312" lon="4.72778">
        <ele>171</ele>
        <time>2018-03-07T11:45:00Z</time>
      </trkpt>
      <trkpt lat="45.93116" lon="4.72784">
        <ele>171</ele>
        <time>2018-03-07T11:45:01Z</time>
      </trkpt>
      <trkpt lat="45.93111" lon="4.72789">
        <ele>171</ele>
        <time>2018-03-07T11:45:02Z</time>
      </trkpt>
      <trkpt lat="45.93107" lon="4.72795">
        <ele>171</ele>
        <time>2018-03-07T11:45:03Z</time>
      </trkpt>
      <trkpt lat="45.93103" lon="4.728">
        <ele>171</ele>
        <time>2018-03-07T11:45:04Z</time>
      </trkpt>
      <trkpt lat="45.93097" lon="4.72805">
        <ele>171</ele>
        <time>2018-03-07T11:45:05Z</time>
      </trkpt>
      <trkpt lat="45.93092" lon="4.72811">
        <ele>172</ele>
        <time>2018-03-07T11:45:06Z</time>
      </trkpt>
      <trkpt lat="45.93089" lon="4.72815">
        <ele>172</ele>
        <time>2018-03-07T11:45:07Z</time>
      </trkpt>
      <trkpt lat="45.93085" lon="4.7282">
        <ele>172</ele>
        <time>2018-03-07T11:45:08Z</time>
      </trkpt>
      <trkpt lat="45.93079" lon="4.72827">
        <ele>173</ele>
        <time>2018-03-07T11:45:09Z</time>
      </trkpt>
      <trkpt lat="45.93053" lon="4.72852">
        <ele>172</ele>
        <time>2018-03-07T11:45:14Z</time>
      </trkpt>
      <trkpt lat="45.93049" lon="4.7286">
        <ele>172</ele>
        <time>2018-03-07T11:45:15Z</time>
      </trkpt>
      <trkpt lat="45.93044" lon="4.72861">
        <ele>172</ele>
        <time>2018-03-07T11:45:16Z</time>
      </trkpt>
      <trkpt lat="45.93039" lon="4.72867">
        <ele>172</ele>
        <time>2018-03-07T11:45:17Z</time>
      </trkpt>
      <trkpt lat="45.93034" lon="4.72874">
        <ele>172</ele>
        <time>2018-03-07T11:45:18Z</time>
      </trkpt>
      <trkpt lat="45.9303" lon="4.7288">
        <ele>172</ele>
        <time>2018-03-07T11:45:19Z</time>
      </trkpt>
      <trkpt lat="45.93026" lon="4.72885">
        <ele>172</ele>
        <time>2018-03-07T11:45:20Z</time>
      </trkpt>
      <trkpt lat="45.93021" lon="4.72891">
        <ele>172</ele>
        <time>2018-03-07T11:45:21Z</time>
      </trkpt>
      <trkpt lat="45.93017" lon="4.72897">
        <ele>172</ele>
        <time>2018-03-07T11:45:22Z</time>
      </trkpt>
      <trkpt lat="45.93013" lon="4.72901">
        <ele>172</ele>
        <time>2018-03-07T11:45:23Z</time>
      </trkpt>
      <trkpt lat="45.93008" lon="4.72906">
        <ele>171</ele>
        <time>2018-03-07T11:45:24Z</time>
      </trkpt>
      <trkpt lat="45.93004" lon="4.7291">
        <ele>171</ele>
        <time>2018-03-07T11:45:25Z</time>
      </trkpt>
      <trkpt lat="45.93" lon="4.72915">
        <ele>171</ele>
        <time>2018-03-07T11:45:26Z</time>
      </trkpt>
      <trkpt lat="45.92995" lon="4.72919">
        <ele>171</ele>
        <time>2018-03-07T11:45:27Z</time>
      </trkpt>
      <trkpt lat="45.92992" lon="4.72924">
        <ele>171</ele>
        <time>2018-03-07T11:45:28Z</time>
      </trkpt>
      <trkpt lat="45.92987" lon="4.7293">
        <ele>171</ele>
        <time>2018-03-07T11:45:29Z</time>
      </trkpt>
      <trkpt lat="45.92983" lon="4.72936">
        <ele>171</ele>
        <time>2018-03-07T11:45:30Z</time>
      </trkpt>
      <trkpt lat="45.9298" lon="4.72941">
        <ele>171</ele>
        <time>2018-03-07T11:45:31Z</time>
      </trkpt>
      <trkpt lat="45.92974" lon="4.72946">
        <ele>171</ele>
        <time>2018-03-07T11:45:32Z</time>
      </trkpt>
      <trkpt lat="45.9297" lon="4.72951">
        <ele>171</ele>
        <time>2018-03-07T11:45:33Z</time>
      </trkpt>
      <trkpt lat="45.92966" lon="4.72955">
        <ele>171</ele>
        <time>2018-03-07T11:45:34Z</time>
      </trkpt>
      <trkpt lat="45.92962" lon="4.7296">
        <ele>171</ele>
        <time>2018-03-07T11:45:35Z</time>
      </trkpt>
      <trkpt lat="45.92959" lon="4.72964">
        <ele>171</ele>
        <time>2018-03-07T11:45:36Z</time>
      </trkpt>
      <trkpt lat="45.92956" lon="4.72968">
        <ele>171</ele>
        <time>2018-03-07T11:45:37Z</time>
      </trkpt>
      <trkpt lat="45.9295" lon="4.72972">
        <ele>171</ele>
        <time>2018-03-07T11:45:38Z</time>
      </trkpt>
      <trkpt lat="45.92947" lon="4.72978">
        <ele>171</ele>
        <time>2018-03-07T11:45:39Z</time>
      </trkpt>
      <trkpt lat="45.92944" lon="4.72982">
        <ele>171</ele>
        <time>2018-03-07T11:45:40Z</time>
      </trkpt>
      <trkpt lat="45.92939" lon="4.72991">
        <ele>171</ele>
        <time>2018-03-07T11:45:42Z</time>
      </trkpt>
      <trkpt lat="45.92933" lon="4.72996">
        <ele>172</ele>
        <time>2018-03-07T11:45:43Z</time>
      </trkpt>
      <trkpt lat="45.92926" lon="4.73004">
        <ele>172</ele>
        <time>2018-03-07T11:45:45Z</time>
      </trkpt>
      <trkpt lat="45.92923" lon="4.73008">
        <ele>172</ele>
        <time>2018-03-07T11:45:46Z</time>
      </trkpt>
      <trkpt lat="45.92919" lon="4.73014">
        <ele>172</ele>
        <time>2018-03-07T11:45:47Z</time>
      </trkpt>
      <trkpt lat="45.92917" lon="4.73019">
        <ele>172</ele>
        <time>2018-03-07T11:45:48Z</time>
      </trkpt>
      <trkpt lat="45.92913" lon="4.73024">
        <ele>172</ele>
        <time>2018-03-07T11:45:49Z</time>
      </trkpt>
      <trkpt lat="45.9291" lon="4.73029">
        <ele>172</ele>
        <time>2018-03-07T11:45:50Z</time>
      </trkpt>
      <trkpt lat="45.92904" lon="4.73038">
        <ele>172</ele>
        <time>2018-03-07T11:45:52Z</time>
      </trkpt>
      <trkpt lat="45.929" lon="4.73043">
        <ele>172</ele>
        <time>2018-03-07T11:45:53Z</time>
      </trkpt>
      <trkpt lat="45.92896" lon="4.73046">
        <ele>172</ele>
        <time>2018-03-07T11:45:54Z</time>
      </trkpt>
      <trkpt lat="45.92893" lon="4.73053">
        <ele>172</ele>
        <time>2018-03-07T11:45:55Z</time>
      </trkpt>
      <trkpt lat="45.92889" lon="4.73058">
        <ele>172</ele>
        <time>2018-03-07T11:45:56Z</time>
      </trkpt>
      <trkpt lat="45.92885" lon="4.73063">
        <ele>172</ele>
        <time>2018-03-07T11:45:57Z</time>
      </trkpt>
      <trkpt lat="45.92881" lon="4.73068">
        <ele>172</ele>
        <time>2018-03-07T11:45:58Z</time>
      </trkpt>
      <trkpt lat="45.92878" lon="4.73073">
        <ele>172</ele>
        <time>2018-03-07T11:45:59Z</time>
      </trkpt>
      <trkpt lat="45.92874" lon="4.73077">
        <ele>172</ele>
        <time>2018-03-07T11:46:00Z</time>
      </trkpt>
      <trkpt lat="45.9287" lon="4.73082">
        <ele>172</ele>
        <time>2018-03-07T11:46:01Z</time>
      </trkpt>
      <trkpt lat="45.92865" lon="4.7309">
        <ele>172</ele>
        <time>2018-03-07T11:46:03Z</time>
      </trkpt>
      <trkpt lat="45.92862" lon="4.73093">
        <ele>171</ele>
        <time>2018-03-07T11:46:04Z</time>
      </trkpt>
      <trkpt lat="45.92855" lon="4.73094">
        <ele>171</ele>
        <time>2018-03-07T11:46:07Z</time>
      </trkpt>
      <trkpt lat="45.92851" lon="4.73089">
        <ele>171</ele>
        <time>2018-03-07T11:46:08Z</time>
      </trkpt>
      <trkpt lat="45.9285" lon="4.73078">
        <ele>171</ele>
        <time>2018-03-07T11:46:10Z</time>
      </trkpt>
      <trkpt lat="45.92849" lon="4.7307">
        <ele>171</ele>
        <time>2018-03-07T11:46:11Z</time>
      </trkpt>
      <trkpt lat="45.92848" lon="4.73064">
        <ele>171</ele>
        <time>2018-03-07T11:46:12Z</time>
      </trkpt>
      <trkpt lat="45.92847" lon="4.73055">
        <ele>171</ele>
        <time>2018-03-07T11:46:13Z</time>
      </trkpt>
      <trkpt lat="45.92848" lon="4.73047">
        <ele>171</ele>
        <time>2018-03-07T11:46:14Z</time>
      </trkpt>
      <trkpt lat="45.92847" lon="4.73041">
        <ele>171</ele>
        <time>2018-03-07T11:46:15Z</time>
      </trkpt>
      <trkpt lat="45.92846" lon="4.73035">
        <ele>171</ele>
        <time>2018-03-07T11:46:16Z</time>
      </trkpt>
      <trkpt lat="45.92845" lon="4.73028">
        <ele>171</ele>
        <time>2018-03-07T11:46:17Z</time>
      </trkpt>
      <trkpt lat="45.92843" lon="4.73017">
        <ele>171</ele>
        <time>2018-03-07T11:46:19Z</time>
      </trkpt>
      <trkpt lat="45.92841" lon="4.73011">
        <ele>171</ele>
        <time>2018-03-07T11:46:20Z</time>
      </trkpt>
      <trkpt lat="45.9284" lon="4.73004">
        <ele>170</ele>
        <time>2018-03-07T11:46:21Z</time>
      </trkpt>
      <trkpt lat="45.92839" lon="4.72998">
        <ele>170</ele>
        <time>2018-03-07T11:46:22Z</time>
      </trkpt>
      <trkpt lat="45.92838" lon="4.72992">
        <ele>170</ele>
        <time>2018-03-07T11:46:23Z</time>
      </trkpt>
      <trkpt lat="45.92836" lon="4.72985">
        <ele>171</ele>
        <time>2018-03-07T11:46:24Z</time>
      </trkpt>
      <trkpt lat="45.92835" lon="4.72979">
        <ele>171</ele>
        <time>2018-03-07T11:46:25Z</time>
      </trkpt>
      <trkpt lat="45.92833" lon="4.72972">
        <ele>171</ele>
        <time>2018-03-07T11:46:26Z</time>
      </trkpt>
      <trkpt lat="45.92832" lon="4.7296">
        <ele>170</ele>
        <time>2018-03-07T11:46:28Z</time>
      </trkpt>
      <trkpt lat="45.92831" lon="4.72953">
        <ele>170</ele>
        <time>2018-03-07T11:46:29Z</time>
      </trkpt>
      <trkpt lat="45.9283" lon="4.72946">
        <ele>170</ele>
        <time>2018-03-07T11:46:30Z</time>
      </trkpt>
      <trkpt lat="45.92829" lon="4.72941">
        <ele>170</ele>
        <time>2018-03-07T11:46:31Z</time>
      </trkpt>
      <trkpt lat="45.92828" lon="4.72929">
        <ele>170</ele>
        <time>2018-03-07T11:46:33Z</time>
      </trkpt>
      <trkpt lat="45.92827" lon="4.72924">
        <ele>170</ele>
        <time>2018-03-07T11:46:34Z</time>
      </trkpt>
      <trkpt lat="45.92826" lon="4.72912">
        <ele>170</ele>
        <time>2018-03-07T11:46:36Z</time>
      </trkpt>
      <trkpt lat="45.92825" lon="4.72905">
        <ele>170</ele>
        <time>2018-03-07T11:46:37Z</time>
      </trkpt>
      <trkpt lat="45.92824" lon="4.72898">
        <ele>170</ele>
        <time>2018-03-07T11:46:38Z</time>
      </trkpt>
      <trkpt lat="45.92824" lon="4.72891">
        <ele>170</ele>
        <time>2018-03-07T11:46:39Z</time>
      </trkpt>
      <trkpt lat="45.92821" lon="4.72879">
        <ele>170</ele>
        <time>2018-03-07T11:46:41Z</time>
      </trkpt>
      <trkpt lat="45.9282" lon="4.72873">
        <ele>170</ele>
        <time>2018-03-07T11:46:42Z</time>
      </trkpt>
      <trkpt lat="45.92817" lon="4.72861">
        <ele>170</ele>
        <time>2018-03-07T11:46:44Z</time>
      </trkpt>
      <trkpt lat="45.92816" lon="4.72855">
        <ele>170</ele>
        <time>2018-03-07T11:46:45Z</time>
      </trkpt>
      <trkpt lat="45.92814" lon="4.72843">
        <ele>170</ele>
        <time>2018-03-07T11:46:47Z</time>
      </trkpt>
      <trkpt lat="45.92813" lon="4.72836">
        <ele>170</ele>
        <time>2018-03-07T11:46:48Z</time>
      </trkpt>
      <trkpt lat="45.92812" lon="4.7283">
        <ele>171</ele>
        <time>2018-03-07T11:46:49Z</time>
      </trkpt>
      <trkpt lat="45.9281" lon="4.72824">
        <ele>171</ele>
        <time>2018-03-07T11:46:50Z</time>
      </trkpt>
      <trkpt lat="45.92809" lon="4.72816">
        <ele>171</ele>
        <time>2018-03-07T11:46:51Z</time>
      </trkpt>
      <trkpt lat="45.92808" lon="4.72809">
        <ele>171</ele>
        <time>2018-03-07T11:46:52Z</time>
      </trkpt>
      <trkpt lat="45.92807" lon="4.72803">
        <ele>171</ele>
        <time>2018-03-07T11:46:53Z</time>
      </trkpt>
      <trkpt lat="45.92806" lon="4.72796">
        <ele>171</ele>
        <time>2018-03-07T11:46:54Z</time>
      </trkpt>
      <trkpt lat="45.92804" lon="4.72785">
        <ele>171</ele>
        <time>2018-03-07T11:46:56Z</time>
      </trkpt>
      <trkpt lat="45.928" lon="4.72781">
        <ele>171</ele>
        <time>2018-03-07T11:46:57Z</time>
      </trkpt>
      <trkpt lat="45.92793" lon="4.72781">
        <ele>171</ele>
        <time>2018-03-07T11:46:59Z</time>
      </trkpt>
      <trkpt lat="45.92788" lon="4.72783">
        <ele>171</ele>
        <time>2018-03-07T11:47:00Z</time>
      </trkpt>
      <trkpt lat="45.92781" lon="4.72791">
        <ele>170</ele>
        <time>2018-03-07T11:47:02Z</time>
      </trkpt>
      <trkpt lat="45.92777" lon="4.72793">
        <ele>170</ele>
        <time>2018-03-07T11:47:03Z</time>
      </trkpt>
      <trkpt lat="45.92773" lon="4.72796">
        <ele>170</ele>
        <time>2018-03-07T11:47:04Z</time>
      </trkpt>
      <trkpt lat="45.92769" lon="4.72799">
        <ele>170</ele>
        <time>2018-03-07T11:47:05Z</time>
      </trkpt>
      <trkpt lat="45.92764" lon="4.72801">
        <ele>170</ele>
        <time>2018-03-07T11:47:06Z</time>
      </trkpt>
      <trkpt lat="45.9276" lon="4.72804">
        <ele>170</ele>
        <time>2018-03-07T11:47:07Z</time>
      </trkpt>
      <trkpt lat="45.92753" lon="4.72809">
        <ele>170</ele>
        <time>2018-03-07T11:47:09Z</time>
      </trkpt>
      <trkpt lat="45.92748" lon="4.72812">
        <ele>170</ele>
        <time>2018-03-07T11:47:10Z</time>
      </trkpt>
      <trkpt lat="45.92745" lon="4.72814">
        <ele>170</ele>
        <time>2018-03-07T11:47:11Z</time>
      </trkpt>
      <trkpt lat="45.92736" lon="4.72817">
        <ele>170</ele>
        <time>2018-03-07T11:47:12Z</time>
      </trkpt>
      <trkpt lat="45.9273" lon="4.72824">
        <ele>170</ele>
        <time>2018-03-07T11:47:14Z</time>
      </trkpt>
      <trkpt lat="45.92725" lon="4.72827">
        <ele>170</ele>
        <time>2018-03-07T11:47:15Z</time>
      </trkpt>
      <trkpt lat="45.92719" lon="4.72833">
        <ele>170</ele>
        <time>2018-03-07T11:47:17Z</time>
      </trkpt>
      <trkpt lat="45.92714" lon="4.72836">
        <ele>169</ele>
        <time>2018-03-07T11:47:18Z</time>
      </trkpt>
      <trkpt lat="45.92711" lon="4.72841">
        <ele>169</ele>
        <time>2018-03-07T11:47:19Z</time>
      </trkpt>
      <trkpt lat="45.92707" lon="4.72844">
        <ele>169</ele>
        <time>2018-03-07T11:47:20Z</time>
      </trkpt>
      <trkpt lat="45.92703" lon="4.72846">
        <ele>169</ele>
        <time>2018-03-07T11:47:21Z</time>
      </trkpt>
      <trkpt lat="45.92699" lon="4.7285">
        <ele>169</ele>
        <time>2018-03-07T11:47:22Z</time>
      </trkpt>
      <trkpt lat="45.92695" lon="4.72853">
        <ele>169</ele>
        <time>2018-03-07T11:47:23Z</time>
      </trkpt>
      <trkpt lat="45.9269" lon="4.72857">
        <ele>169</ele>
        <time>2018-03-07T11:47:24Z</time>
      </trkpt>
      <trkpt lat="45.92686" lon="4.72861">
        <ele>169</ele>
        <time>2018-03-07T11:47:25Z</time>
      </trkpt>
      <trkpt lat="45.92682" lon="4.72864">
        <ele>169</ele>
        <time>2018-03-07T11:47:26Z</time>
      </trkpt>
      <trkpt lat="45.92674" lon="4.7287">
        <ele>169</ele>
        <time>2018-03-07T11:47:28Z</time>
      </trkpt>
      <trkpt lat="45.92672" lon="4.72872">
        <ele>169</ele>
        <time>2018-03-07T11:47:29Z</time>
      </trkpt>
      <trkpt lat="45.92664" lon="4.72878">
        <ele>169</ele>
        <time>2018-03-07T11:47:31Z</time>
      </trkpt>
      <trkpt lat="45.92661" lon="4.72881">
        <ele>169</ele>
        <time>2018-03-07T11:47:32Z</time>
      </trkpt>
      <trkpt lat="45.92653" lon="4.72887">
        <ele>169</ele>
        <time>2018-03-07T11:47:34Z</time>
      </trkpt>
      <trkpt lat="45.92649" lon="4.72891">
        <ele>169</ele>
        <time>2018-03-07T11:47:35Z</time>
      </trkpt>
      <trkpt lat="45.92641" lon="4.72897">
        <ele>169</ele>
        <time>2018-03-07T11:47:37Z</time>
      </trkpt>
      <trkpt lat="45.92637" lon="4.729">
        <ele>169</ele>
        <time>2018-03-07T11:47:38Z</time>
      </trkpt>
      <trkpt lat="45.92633" lon="4.72904">
        <ele>169</ele>
        <time>2018-03-07T11:47:39Z</time>
      </trkpt>
      <trkpt lat="45.92629" lon="4.72907">
        <ele>169</ele>
        <time>2018-03-07T11:47:40Z</time>
      </trkpt>
      <trkpt lat="45.92625" lon="4.72911">
        <ele>169</ele>
        <time>2018-03-07T11:47:41Z</time>
      </trkpt>
      <trkpt lat="45.92621" lon="4.72915">
        <ele>169</ele>
        <time>2018-03-07T11:47:42Z</time>
      </trkpt>
      <trkpt lat="45.92616" lon="4.72918">
        <ele>169</ele>
        <time>2018-03-07T11:47:43Z</time>
      </trkpt>
      <trkpt lat="45.92612" lon="4.72922">
        <ele>169</ele>
        <time>2018-03-07T11:47:44Z</time>
      </trkpt>
      <trkpt lat="45.92608" lon="4.72926">
        <ele>169</ele>
        <time>2018-03-07T11:47:45Z</time>
      </trkpt>
      <trkpt lat="45.92604" lon="4.72932">
        <ele>169</ele>
        <time>2018-03-07T11:47:46Z</time>
      </trkpt>
      <trkpt lat="45.926" lon="4.72937">
        <ele>169</ele>
        <time>2018-03-07T11:47:47Z</time>
      </trkpt>
      <trkpt lat="45.92597" lon="4.72943">
        <ele>169</ele>
        <time>2018-03-07T11:47:48Z</time>
      </trkpt>
      <trkpt lat="45.92593" lon="4.72948">
        <ele>169</ele>
        <time>2018-03-07T11:47:49Z</time>
      </trkpt>
      <trkpt lat="45.92589" lon="4.72953">
        <ele>169</ele>
        <time>2018-03-07T11:47:50Z</time>
      </trkpt>
      <trkpt lat="45.92584" lon="4.72958">
        <ele>169</ele>
        <time>2018-03-07T11:47:51Z</time>
      </trkpt>
      <trkpt lat="45.92581" lon="4.72962">
        <ele>169</ele>
        <time>2018-03-07T11:47:52Z</time>
      </trkpt>
      <trkpt lat="45.92577" lon="4.72966">
        <ele>169</ele>
        <time>2018-03-07T11:47:53Z</time>
      </trkpt>
      <trkpt lat="45.92574" lon="4.72971">
        <ele>169</ele>
        <time>2018-03-07T11:47:54Z</time>
      </trkpt>
      <trkpt lat="45.92569" lon="4.72976">
        <ele>169</ele>
        <time>2018-03-07T11:47:55Z</time>
      </trkpt>
      <trkpt lat="45.92565" lon="4.7298">
        <ele>169</ele>
        <time>2018-03-07T11:47:56Z</time>
      </trkpt>
      <trkpt lat="45.9256" lon="4.72984">
        <ele>169</ele>
        <time>2018-03-07T11:47:57Z</time>
      </trkpt>
      <trkpt lat="45.92556" lon="4.72987">
        <ele>169</ele>
        <time>2018-03-07T11:47:58Z</time>
      </trkpt>
      <trkpt lat="45.92553" lon="4.72991">
        <ele>169</ele>
        <time>2018-03-07T11:47:59Z</time>
      </trkpt>
      <trkpt lat="45.92549" lon="4.72995">
        <ele>169</ele>
        <time>2018-03-07T11:48:00Z</time>
      </trkpt>
      <trkpt lat="45.92544" lon="4.73">
        <ele>169</ele>
        <time>2018-03-07T11:48:01Z</time>
      </trkpt>
      <trkpt lat="45.9254" lon="4.73004">
        <ele>169</ele>
        <time>2018-03-07T11:48:02Z</time>
      </trkpt>
      <trkpt lat="45.92536" lon="4.73008">
        <ele>169</ele>
        <time>2018-03-07T11:48:03Z</time>
      </trkpt>
      <trkpt lat="45.92531" lon="4.73012">
        <ele>169</ele>
        <time>2018-03-07T11:48:04Z</time>
      </trkpt>
      <trkpt lat="45.92527" lon="4.73015">
        <ele>169</ele>
        <time>2018-03-07T11:48:05Z</time>
      </trkpt>
      <trkpt lat="45.92522" lon="4.73018">
        <ele>169</ele>
        <time>2018-03-07T11:48:06Z</time>
      </trkpt>
      <trkpt lat="45.92519" lon="4.73022">
        <ele>169</ele>
        <time>2018-03-07T11:48:07Z</time>
      </trkpt>
      <trkpt lat="45.92515" lon="4.73026">
        <ele>169</ele>
        <time>2018-03-07T11:48:08Z</time>
      </trkpt>
      <trkpt lat="45.9251" lon="4.73029">
        <ele>169</ele>
        <time>2018-03-07T11:48:09Z</time>
      </trkpt>
      <trkpt lat="45.92506" lon="4.73033">
        <ele>169</ele>
        <time>2018-03-07T11:48:10Z</time>
      </trkpt>
      <trkpt lat="45.92502" lon="4.73038">
        <ele>169</ele>
        <time>2018-03-07T11:48:11Z</time>
      </trkpt>
      <trkpt lat="45.92498" lon="4.73042">
        <ele>170</ele>
        <time>2018-03-07T11:48:12Z</time>
      </trkpt>
      <trkpt lat="45.92493" lon="4.73046">
        <ele>170</ele>
        <time>2018-03-07T11:48:13Z</time>
      </trkpt>
      <trkpt lat="45.92488" lon="4.7305">
        <ele>170</ele>
        <time>2018-03-07T11:48:14Z</time>
      </trkpt>
      <trkpt lat="45.92483" lon="4.73055">
        <ele>170</ele>
        <time>2018-03-07T11:48:15Z</time>
      </trkpt>
      <trkpt lat="45.92479" lon="4.73059">
        <ele>170</ele>
        <time>2018-03-07T11:48:16Z</time>
      </trkpt>
      <trkpt lat="45.92473" lon="4.73064">
        <ele>170</ele>
        <time>2018-03-07T11:48:17Z</time>
      </trkpt>
      <trkpt lat="45.92468" lon="4.73068">
        <ele>170</ele>
        <time>2018-03-07T11:48:18Z</time>
      </trkpt>
      <trkpt lat="45.92464" lon="4.73072">
        <ele>170</ele>
        <time>2018-03-07T11:48:19Z</time>
      </trkpt>
      <trkpt lat="45.92459" lon="4.73077">
        <ele>170</ele>
        <time>2018-03-07T11:48:20Z</time>
      </trkpt>
      <trkpt lat="45.92454" lon="4.7308">
        <ele>170</ele>
        <time>2018-03-07T11:48:21Z</time>
      </trkpt>
      <trkpt lat="45.9245" lon="4.73085">
        <ele>170</ele>
        <time>2018-03-07T11:48:22Z</time>
      </trkpt>
      <trkpt lat="45.92445" lon="4.73088">
        <ele>170</ele>
        <time>2018-03-07T11:48:23Z</time>
      </trkpt>
      <trkpt lat="45.92441" lon="4.73092">
        <ele>170</ele>
        <time>2018-03-07T11:48:24Z</time>
      </trkpt>
      <trkpt lat="45.92436" lon="4.73097">
        <ele>171</ele>
        <time>2018-03-07T11:48:25Z</time>
      </trkpt>
      <trkpt lat="45.92431" lon="4.73101">
        <ele>171</ele>
        <time>2018-03-07T11:48:26Z</time>
      </trkpt>
      <trkpt lat="45.92427" lon="4.73103">
        <ele>171</ele>
        <time>2018-03-07T11:48:27Z</time>
      </trkpt>
      <trkpt lat="45.92423" lon="4.73107">
        <ele>171</ele>
        <time>2018-03-07T11:48:28Z</time>
      </trkpt>
      <trkpt lat="45.92415" lon="4.73113">
        <ele>171</ele>
        <time>2018-03-07T11:48:30Z</time>
      </trkpt>
      <trkpt lat="45.92411" lon="4.73118">
        <ele>171</ele>
        <time>2018-03-07T11:48:31Z</time>
      </trkpt>
      <trkpt lat="45.92408" lon="4.7313">
        <ele>171</ele>
        <time>2018-03-07T11:48:33Z</time>
      </trkpt>
      <trkpt lat="45.92408" lon="4.73138">
        <ele>171</ele>
        <time>2018-03-07T11:48:34Z</time>
      </trkpt>
      <trkpt lat="45.92409" lon="4.73146">
        <ele>171</ele>
        <time>2018-03-07T11:48:35Z</time>
      </trkpt>
      <trkpt lat="45.92409" lon="4.73154">
        <ele>170</ele>
        <time>2018-03-07T11:48:36Z</time>
      </trkpt>
      <trkpt lat="45.92408" lon="4.73161">
        <ele>170</ele>
        <time>2018-03-07T11:48:37Z</time>
      </trkpt>
      <trkpt lat="45.92409" lon="4.73167">
        <ele>170</ele>
        <time>2018-03-07T11:48:38Z</time>
      </trkpt>
      <trkpt lat="45.92409" lon="4.73174">
        <ele>170</ele>
        <time>2018-03-07T11:48:39Z</time>
      </trkpt>
      <trkpt lat="45.92409" lon="4.7318">
        <ele>171</ele>
        <time>2018-03-07T11:48:40Z</time>
      </trkpt>
      <trkpt lat="45.92408" lon="4.73189">
        <ele>171</ele>
        <time>2018-03-07T11:48:41Z</time>
      </trkpt>
      <trkpt lat="45.92408" lon="4.73195">
        <ele>171</ele>
        <time>2018-03-07T11:48:42Z</time>
      </trkpt>
      <trkpt lat="45.92409" lon="4.73202">
        <ele>171</ele>
        <time>2018-03-07T11:48:43Z</time>
      </trkpt>
      <trkpt lat="45.92409" lon="4.73209">
        <ele>171</ele>
        <time>2018-03-07T11:48:44Z</time>
      </trkpt>
      <trkpt lat="45.9241" lon="4.73216">
        <ele>171</ele>
        <time>2018-03-07T11:48:45Z</time>
      </trkpt>
      <trkpt lat="45.92411" lon="4.73223">
        <ele>171</ele>
        <time>2018-03-07T11:48:46Z</time>
      </trkpt>
      <trkpt lat="45.92411" lon="4.73235">
        <ele>171</ele>
        <time>2018-03-07T11:48:48Z</time>
      </trkpt>
      <trkpt lat="45.92413" lon="4.73242">
        <ele>171</ele>
        <time>2018-03-07T11:48:49Z</time>
      </trkpt>
      <trkpt lat="45.92414" lon="4.73254">
        <ele>171</ele>
        <time>2018-03-07T11:48:51Z</time>
      </trkpt>
      <trkpt lat="45.92416" lon="4.7326">
        <ele>171</ele>
        <time>2018-03-07T11:48:52Z</time>
      </trkpt>
      <trkpt lat="45.92417" lon="4.73267">
        <ele>171</ele>
        <time>2018-03-07T11:48:53Z</time>
      </trkpt>
      <trkpt lat="45.92417" lon="4.73274">
        <ele>171</ele>
        <time>2018-03-07T11:48:54Z</time>
      </trkpt>
      <trkpt lat="45.92417" lon="4.7328">
        <ele>171</ele>
        <time>2018-03-07T11:48:55Z</time>
      </trkpt>
      <trkpt lat="45.92418" lon="4.73288">
        <ele>171</ele>
        <time>2018-03-07T11:48:56Z</time>
      </trkpt>
      <trkpt lat="45.92418" lon="4.73295">
        <ele>171</ele>
        <time>2018-03-07T11:48:57Z</time>
      </trkpt>
      <trkpt lat="45.92418" lon="4.73303">
        <ele>171</ele>
        <time>2018-03-07T11:48:58Z</time>
      </trkpt>
      <trkpt lat="45.92418" lon="4.73316">
        <ele>171</ele>
        <time>2018-03-07T11:49:00Z</time>
      </trkpt>
      <trkpt lat="45.92419" lon="4.73322">
        <ele>171</ele>
        <time>2018-03-07T11:49:01Z</time>
      </trkpt>
      <trkpt lat="45.92419" lon="4.7333">
        <ele>171</ele>
        <time>2018-03-07T11:49:02Z</time>
      </trkpt>
      <trkpt lat="45.92419" lon="4.73336">
        <ele>171</ele>
        <time>2018-03-07T11:49:03Z</time>
      </trkpt>
      <trkpt lat="45.9242" lon="4.73342">
        <ele>171</ele>
        <time>2018-03-07T11:49:04Z</time>
      </trkpt>
      <trkpt lat="45.92423" lon="4.73349">
        <ele>171</ele>
        <time>2018-03-07T11:49:05Z</time>
      </trkpt>
      <trkpt lat="45.92423" lon="4.73356">
        <ele>171</ele>
        <time>2018-03-07T11:49:06Z</time>
      </trkpt>
      <trkpt lat="45.92424" lon="4.73365">
        <ele>172</ele>
        <time>2018-03-07T11:49:07Z</time>
      </trkpt>
      <trkpt lat="45.92425" lon="4.73372">
        <ele>172</ele>
        <time>2018-03-07T11:49:08Z</time>
      </trkpt>
      <trkpt lat="45.92426" lon="4.73379">
        <ele>172</ele>
        <time>2018-03-07T11:49:09Z</time>
      </trkpt>
      <trkpt lat="45.92426" lon="4.73386">
        <ele>172</ele>
        <time>2018-03-07T11:49:10Z</time>
      </trkpt>
      <trkpt lat="45.92427" lon="4.73393">
        <ele>172</ele>
        <time>2018-03-07T11:49:11Z</time>
      </trkpt>
      <trkpt lat="45.92428" lon="4.73401">
        <ele>172</ele>
        <time>2018-03-07T11:49:12Z</time>
      </trkpt>
      <trkpt lat="45.9243" lon="4.73408">
        <ele>172</ele>
        <time>2018-03-07T11:49:13Z</time>
      </trkpt>
      <trkpt lat="45.92433" lon="4.73412">
        <ele>172</ele>
        <time>2018-03-07T11:49:14Z</time>
      </trkpt>
      <trkpt lat="45.92437" lon="4.73416">
        <ele>172</ele>
        <time>2018-03-07T11:49:15Z</time>
      </trkpt>
      <trkpt lat="45.9244" lon="4.73419">
        <ele>173</ele>
        <time>2018-03-07T11:49:16Z</time>
      </trkpt>
      <trkpt lat="45.92445" lon="4.73423">
        <ele>173</ele>
        <time>2018-03-07T11:49:17Z</time>
      </trkpt>
      <trkpt lat="45.9245" lon="4.73426">
        <ele>173</ele>
        <time>2018-03-07T11:49:18Z</time>
      </trkpt>
      <trkpt lat="45.92453" lon="4.73429">
        <ele>173</ele>
        <time>2018-03-07T11:49:19Z</time>
      </trkpt>
      <trkpt lat="45.92457" lon="4.73436">
        <ele>173</ele>
        <time>2018-03-07T11:49:20Z</time>
      </trkpt>
      <trkpt lat="45.92461" lon="4.7344">
        <ele>173</ele>
        <time>2018-03-07T11:49:21Z</time>
      </trkpt>
      <trkpt lat="45.92464" lon="4.73446">
        <ele>173</ele>
        <time>2018-03-07T11:49:22Z</time>
      </trkpt>
      <trkpt lat="45.92467" lon="4.7345">
        <ele>173</ele>
        <time>2018-03-07T11:49:23Z</time>
      </trkpt>
      <trkpt lat="45.9247" lon="4.73456">
        <ele>173</ele>
        <time>2018-03-07T11:49:24Z</time>
      </trkpt>
      <trkpt lat="45.9247" lon="4.73463">
        <ele>173</ele>
        <time>2018-03-07T11:49:25Z</time>
      </trkpt>
      <trkpt lat="45.92472" lon="4.73469">
        <ele>173</ele>
        <time>2018-03-07T11:49:26Z</time>
      </trkpt>
      <trkpt lat="45.92472" lon="4.73476">
        <ele>173</ele>
        <time>2018-03-07T11:49:27Z</time>
      </trkpt>
      <trkpt lat="45.92471" lon="4.73485">
        <ele>173</ele>
        <time>2018-03-07T11:49:29Z</time>
      </trkpt>
      <trkpt lat="45.92469" lon="4.73492">
        <ele>173</ele>
        <time>2018-03-07T11:49:30Z</time>
      </trkpt>
      <trkpt lat="45.92469" lon="4.73504">
        <ele>174</ele>
        <time>2018-03-07T11:49:32Z</time>
      </trkpt>
      <trkpt lat="45.92469" lon="4.73511">
        <ele>174</ele>
        <time>2018-03-07T11:49:33Z</time>
      </trkpt>
      <trkpt lat="45.9247" lon="4.73518">
        <ele>174</ele>
        <time>2018-03-07T11:49:34Z</time>
      </trkpt>
      <trkpt lat="45.92469" lon="4.73524">
        <ele>174</ele>
        <time>2018-03-07T11:49:35Z</time>
      </trkpt>
      <trkpt lat="45.92468" lon="4.73536">
        <ele>174</ele>
        <time>2018-03-07T11:49:38Z</time>
      </trkpt>
      <trkpt lat="45.92468" lon="4.73545">
        <ele>173</ele>
        <time>2018-03-07T11:49:39Z</time>
      </trkpt>
      <trkpt lat="45.92467" lon="4.73557">
        <ele>173</ele>
        <time>2018-03-07T11:49:41Z</time>
      </trkpt>
      <trkpt lat="45.92466" lon="4.73559">
        <ele>173</ele>
        <time>2018-03-07T11:49:42Z</time>
      </trkpt>
      <trkpt lat="45.92467" lon="4.73567">
        <ele>173</ele>
        <time>2018-03-07T11:49:43Z</time>
      </trkpt>
      <trkpt lat="45.92466" lon="4.73576">
        <ele>173</ele>
        <time>2018-03-07T11:49:44Z</time>
      </trkpt>
      <trkpt lat="45.92467" lon="4.73584">
        <ele>174</ele>
        <time>2018-03-07T11:49:45Z</time>
      </trkpt>
      <trkpt lat="45.92467" lon="4.73593">
        <ele>174</ele>
        <time>2018-03-07T11:49:46Z</time>
      </trkpt>
      <trkpt lat="45.92468" lon="4.73601">
        <ele>174</ele>
        <time>2018-03-07T11:49:47Z</time>
      </trkpt>
      <trkpt lat="45.92468" lon="4.73609">
        <ele>174</ele>
        <time>2018-03-07T11:49:48Z</time>
      </trkpt>
      <trkpt lat="45.92469" lon="4.73616">
        <ele>174</ele>
        <time>2018-03-07T11:49:49Z</time>
      </trkpt>
      <trkpt lat="45.92469" lon="4.73624">
        <ele>174</ele>
        <time>2018-03-07T11:49:50Z</time>
      </trkpt>
      <trkpt lat="45.9247" lon="4.73632">
        <ele>174</ele>
        <time>2018-03-07T11:49:51Z</time>
      </trkpt>
      <trkpt lat="45.92471" lon="4.73639">
        <ele>174</ele>
        <time>2018-03-07T11:49:52Z</time>
      </trkpt>
      <trkpt lat="45.92471" lon="4.73647">
        <ele>174</ele>
        <time>2018-03-07T11:49:53Z</time>
      </trkpt>
      <trkpt lat="45.9247" lon="4.73655">
        <ele>174</ele>
        <time>2018-03-07T11:49:54Z</time>
      </trkpt>
      <trkpt lat="45.92472" lon="4.73667">
        <ele>174</ele>
        <time>2018-03-07T11:49:56Z</time>
      </trkpt>
      <trkpt lat="45.9247" lon="4.73673">
        <ele>174</ele>
        <time>2018-03-07T11:49:57Z</time>
      </trkpt>
      <trkpt lat="45.9247" lon="4.73681">
        <ele>174</ele>
        <time>2018-03-07T11:49:58Z</time>
      </trkpt>
      <trkpt lat="45.92471" lon="4.73687">
        <ele>174</ele>
        <time>2018-03-07T11:49:59Z</time>
      </trkpt>
      <trkpt lat="45.92471" lon="4.73698">
        <ele>174</ele>
        <time>2018-03-07T11:50:02Z</time>
      </trkpt>
      <trkpt lat="45.92471" lon="4.73702">
        <ele>174</ele>
        <time>2018-03-07T11:50:03Z</time>
      </trkpt>
      <trkpt lat="45.92466" lon="4.73711">
        <ele>174</ele>
        <time>2018-03-07T11:50:12Z</time>
      </trkpt>
      <trkpt lat="45.92466" lon="4.73711">
        <ele>174</ele>
        <time>2018-03-07T11:50:13Z</time>
      </trkpt>
      <trkpt lat="45.92466" lon="4.73712">
        <ele>174</ele>
        <time>2018-03-07T11:50:14Z</time>
      </trkpt>
      <trkpt lat="45.92464" lon="4.73714">
        <ele>174</ele>
        <time>2018-03-07T11:50:18Z</time>
      </trkpt>
      <trkpt lat="45.92464" lon="4.73714">
        <ele>174</ele>
        <time>2018-03-07T11:50:19Z</time>
      </trkpt>
      <trkpt lat="45.92457" lon="4.73716">
        <ele>174</ele>
        <time>2018-03-07T11:50:40.217Z</time>
      </trkpt>
    </trkseg>
  </trk>
</gpx>